<?xml version="1.0" encoding="UTF-8" standalone="no" ?>
<gpx xmlns="http://www.topografix.com/GPX/1/1" xmlns:xsi="http://www.w3.org/2001/XMLSchema-instance" xsi:schemaLocation="http://www.topografix.com/GPX/1/1 http://www.topografix.com/GPX/1/1/gpx.xsd" version="1.1" creator="VisuGPX - https://www.visugpx.com">
  <metadata>
    <name>La Henry Anglade 2016</name>
  </metadata>
  <trk>
    <name><![CDATA[Brignais]]></name>
    <extensions>
      <line xmlns="http://www.topografix.com/GPX/gpx_style/0/2">
        <color>0000FF</color>
        <width>4</width>
      </line>
    </extensions>
    <trkseg>
      <trkpt lat="45.6817" lon="4.75261">
        <ele>216.074219</ele>
        <time>2016-09-25T06:22:53Z</time>
      </trkpt>
      <trkpt lat="45.68176" lon="4.75259">
        <ele>216.255951</ele>
        <time>2016-09-25T06:22:55Z</time>
      </trkpt>
      <trkpt lat="45.68182" lon="4.75257">
        <ele>216.549316</ele>
        <time>2016-09-25T06:22:57Z</time>
      </trkpt>
      <trkpt lat="45.68189" lon="4.75256">
        <ele>216.921265</ele>
        <time>2016-09-25T06:22:59Z</time>
      </trkpt>
      <trkpt lat="45.68194" lon="4.75255">
        <ele>217.295319</ele>
        <time>2016-09-25T06:23:01Z</time>
      </trkpt>
      <trkpt lat="45.68199" lon="4.75253">
        <ele>217.515503</ele>
        <time>2016-09-25T06:23:03Z</time>
      </trkpt>
      <trkpt lat="45.68205" lon="4.75253">
        <ele>217.959198</ele>
        <time>2016-09-25T06:23:05Z</time>
      </trkpt>
      <trkpt lat="45.6821" lon="4.75252">
        <ele>218.455856</ele>
        <time>2016-09-25T06:23:07Z</time>
      </trkpt>
      <trkpt lat="45.68216" lon="4.75252">
        <ele>219.045654</ele>
        <time>2016-09-25T06:23:09Z</time>
      </trkpt>
      <trkpt lat="45.68222" lon="4.75251">
        <ele>219.705032</ele>
        <time>2016-09-25T06:23:11Z</time>
      </trkpt>
      <trkpt lat="45.68228" lon="4.7525">
        <ele>220.167999</ele>
        <time>2016-09-25T06:23:13Z</time>
      </trkpt>
      <trkpt lat="45.68234" lon="4.7525">
        <ele>220.748322</ele>
        <time>2016-09-25T06:23:15Z</time>
      </trkpt>
      <trkpt lat="45.68238" lon="4.75249">
        <ele>221.322662</ele>
        <time>2016-09-25T06:23:17Z</time>
      </trkpt>
      <trkpt lat="45.68244" lon="4.75249">
        <ele>221.923004</ele>
        <time>2016-09-25T06:23:19Z</time>
      </trkpt>
      <trkpt lat="45.6825" lon="4.75251">
        <ele>222.359528</ele>
        <time>2016-09-25T06:23:21Z</time>
      </trkpt>
      <trkpt lat="45.68256" lon="4.75252">
        <ele>222.873245</ele>
        <time>2016-09-25T06:23:23Z</time>
      </trkpt>
      <trkpt lat="45.68263" lon="4.75254">
        <ele>223.386963</ele>
        <time>2016-09-25T06:23:25Z</time>
      </trkpt>
      <trkpt lat="45.68271" lon="4.75255">
        <ele>223.656174</ele>
        <time>2016-09-25T06:23:27Z</time>
      </trkpt>
      <trkpt lat="45.6828" lon="4.75256">
        <ele>224.199142</ele>
        <time>2016-09-25T06:23:29Z</time>
      </trkpt>
      <trkpt lat="45.68291" lon="4.75257">
        <ele>224.473969</ele>
        <time>2016-09-25T06:23:31Z</time>
      </trkpt>
      <trkpt lat="45.68302" lon="4.75258">
        <ele>224.830246</ele>
        <time>2016-09-25T06:23:33Z</time>
      </trkpt>
      <trkpt lat="45.68314" lon="4.75259">
        <ele>225.271881</ele>
        <time>2016-09-25T06:23:35Z</time>
      </trkpt>
      <trkpt lat="45.68326" lon="4.75258">
        <ele>225.661911</ele>
        <time>2016-09-25T06:23:37Z</time>
      </trkpt>
      <trkpt lat="45.68337" lon="4.75257">
        <ele>225.880005</ele>
        <time>2016-09-25T06:23:39Z</time>
      </trkpt>
      <trkpt lat="45.68349" lon="4.75255">
        <ele>226.140869</ele>
        <time>2016-09-25T06:23:41Z</time>
      </trkpt>
      <trkpt lat="45.68361" lon="4.75252">
        <ele>226.485199</ele>
        <time>2016-09-25T06:23:43Z</time>
      </trkpt>
      <trkpt lat="45.68371" lon="4.75248">
        <ele>226.626419</ele>
        <time>2016-09-25T06:23:45Z</time>
      </trkpt>
      <trkpt lat="45.68381" lon="4.75243">
        <ele>226.780151</ele>
        <time>2016-09-25T06:23:47Z</time>
      </trkpt>
      <trkpt lat="45.68392" lon="4.75239">
        <ele>227.027634</ele>
        <time>2016-09-25T06:23:49Z</time>
      </trkpt>
      <trkpt lat="45.68403" lon="4.75234">
        <ele>227.021317</ele>
        <time>2016-09-25T06:23:51Z</time>
      </trkpt>
      <trkpt lat="45.68413" lon="4.75229">
        <ele>227.008621</ele>
        <time>2016-09-25T06:23:53Z</time>
      </trkpt>
      <trkpt lat="45.68424" lon="4.75226">
        <ele>226.581512</ele>
        <time>2016-09-25T06:23:55Z</time>
      </trkpt>
      <trkpt lat="45.68435" lon="4.75223">
        <ele>226.738205</ele>
        <time>2016-09-25T06:23:57Z</time>
      </trkpt>
      <trkpt lat="45.68446" lon="4.75221">
        <ele>226.682297</ele>
        <time>2016-09-25T06:23:59Z</time>
      </trkpt>
      <trkpt lat="45.68457" lon="4.75221">
        <ele>226.65271</ele>
        <time>2016-09-25T06:24:01Z</time>
      </trkpt>
      <trkpt lat="45.68468" lon="4.75223">
        <ele>226.587158</ele>
        <time>2016-09-25T06:24:03Z</time>
      </trkpt>
      <trkpt lat="45.68479" lon="4.75223">
        <ele>226.540619</ele>
        <time>2016-09-25T06:24:05Z</time>
      </trkpt>
      <trkpt lat="45.6849" lon="4.75223">
        <ele>226.623123</ele>
        <time>2016-09-25T06:24:07Z</time>
      </trkpt>
      <trkpt lat="45.68499" lon="4.75222">
        <ele>226.517746</ele>
        <time>2016-09-25T06:24:09Z</time>
      </trkpt>
      <trkpt lat="45.68509" lon="4.75221">
        <ele>226.513336</ele>
        <time>2016-09-25T06:24:11Z</time>
      </trkpt>
      <trkpt lat="45.68518" lon="4.75221">
        <ele>226.855988</ele>
        <time>2016-09-25T06:24:13Z</time>
      </trkpt>
      <trkpt lat="45.68527" lon="4.75221">
        <ele>226.928253</ele>
        <time>2016-09-25T06:24:15Z</time>
      </trkpt>
      <trkpt lat="45.68535" lon="4.75221">
        <ele>227.057175</ele>
        <time>2016-09-25T06:24:17Z</time>
      </trkpt>
      <trkpt lat="45.68543" lon="4.75221">
        <ele>227.270706</ele>
        <time>2016-09-25T06:24:19Z</time>
      </trkpt>
      <trkpt lat="45.68552" lon="4.75222">
        <ele>227.459686</ele>
        <time>2016-09-25T06:24:21Z</time>
      </trkpt>
      <trkpt lat="45.68559" lon="4.75223">
        <ele>227.685303</ele>
        <time>2016-09-25T06:24:23Z</time>
      </trkpt>
      <trkpt lat="45.68567" lon="4.75224">
        <ele>227.871857</ele>
        <time>2016-09-25T06:24:25Z</time>
      </trkpt>
      <trkpt lat="45.68574" lon="4.75225">
        <ele>228.035431</ele>
        <time>2016-09-25T06:24:27Z</time>
      </trkpt>
      <trkpt lat="45.68581" lon="4.75226">
        <ele>228.132736</ele>
        <time>2016-09-25T06:24:29Z</time>
      </trkpt>
      <trkpt lat="45.68588" lon="4.75227">
        <ele>228.335815</ele>
        <time>2016-09-25T06:24:31Z</time>
      </trkpt>
      <trkpt lat="45.68594" lon="4.75228">
        <ele>228.648895</ele>
        <time>2016-09-25T06:24:33Z</time>
      </trkpt>
      <trkpt lat="45.68601" lon="4.75231">
        <ele>229.215942</ele>
        <time>2016-09-25T06:24:35Z</time>
      </trkpt>
      <trkpt lat="45.68607" lon="4.75233">
        <ele>229.907547</ele>
        <time>2016-09-25T06:24:37Z</time>
      </trkpt>
      <trkpt lat="45.68613" lon="4.75237">
        <ele>230.079803</ele>
        <time>2016-09-25T06:24:39Z</time>
      </trkpt>
      <trkpt lat="45.6862" lon="4.75241">
        <ele>230.511307</ele>
        <time>2016-09-25T06:24:41Z</time>
      </trkpt>
      <trkpt lat="45.68625" lon="4.75244">
        <ele>230.680542</ele>
        <time>2016-09-25T06:24:43Z</time>
      </trkpt>
      <trkpt lat="45.68631" lon="4.75248">
        <ele>231.245438</ele>
        <time>2016-09-25T06:24:45Z</time>
      </trkpt>
      <trkpt lat="45.68637" lon="4.75252">
        <ele>231.649734</ele>
        <time>2016-09-25T06:24:47Z</time>
      </trkpt>
      <trkpt lat="45.68642" lon="4.75255">
        <ele>232.081421</ele>
        <time>2016-09-25T06:24:49Z</time>
      </trkpt>
      <trkpt lat="45.68648" lon="4.75259">
        <ele>232.656082</ele>
        <time>2016-09-25T06:24:51Z</time>
      </trkpt>
      <trkpt lat="45.68654" lon="4.75262">
        <ele>233.005493</ele>
        <time>2016-09-25T06:24:53Z</time>
      </trkpt>
      <trkpt lat="45.68658" lon="4.75265">
        <ele>233.439285</ele>
        <time>2016-09-25T06:24:55Z</time>
      </trkpt>
      <trkpt lat="45.68663" lon="4.75269">
        <ele>233.559937</ele>
        <time>2016-09-25T06:24:57Z</time>
      </trkpt>
      <trkpt lat="45.68668" lon="4.75272">
        <ele>233.934692</ele>
        <time>2016-09-25T06:24:59Z</time>
      </trkpt>
      <trkpt lat="45.68673" lon="4.75274">
        <ele>234.595184</ele>
        <time>2016-09-25T06:25:01Z</time>
      </trkpt>
      <trkpt lat="45.68677" lon="4.75274">
        <ele>234.93103</ele>
        <time>2016-09-25T06:25:03Z</time>
      </trkpt>
      <trkpt lat="45.68681" lon="4.75274">
        <ele>235.292648</ele>
        <time>2016-09-25T06:25:05Z</time>
      </trkpt>
      <trkpt lat="45.68685" lon="4.75274">
        <ele>235.751984</ele>
        <time>2016-09-25T06:25:07Z</time>
      </trkpt>
      <trkpt lat="45.6869" lon="4.75273">
        <ele>236.317093</ele>
        <time>2016-09-25T06:25:09Z</time>
      </trkpt>
      <trkpt lat="45.68694" lon="4.75272">
        <ele>236.892975</ele>
        <time>2016-09-25T06:25:11Z</time>
      </trkpt>
      <trkpt lat="45.68699" lon="4.7527">
        <ele>237.402679</ele>
        <time>2016-09-25T06:25:13Z</time>
      </trkpt>
      <trkpt lat="45.68702" lon="4.75268">
        <ele>237.718185</ele>
        <time>2016-09-25T06:25:15Z</time>
      </trkpt>
      <trkpt lat="45.68705" lon="4.75267">
        <ele>237.938354</ele>
        <time>2016-09-25T06:25:17Z</time>
      </trkpt>
      <trkpt lat="45.6871" lon="4.75266">
        <ele>238.471924</ele>
        <time>2016-09-25T06:25:19Z</time>
      </trkpt>
      <trkpt lat="45.68714" lon="4.75265">
        <ele>239.037231</ele>
        <time>2016-09-25T06:25:21Z</time>
      </trkpt>
      <trkpt lat="45.68719" lon="4.75266">
        <ele>239.316772</ele>
        <time>2016-09-25T06:25:23Z</time>
      </trkpt>
      <trkpt lat="45.68724" lon="4.75267">
        <ele>239.843948</ele>
        <time>2016-09-25T06:25:25Z</time>
      </trkpt>
      <trkpt lat="45.68728" lon="4.75268">
        <ele>240.093872</ele>
        <time>2016-09-25T06:25:27Z</time>
      </trkpt>
      <trkpt lat="45.68732" lon="4.75269">
        <ele>240.592575</ele>
        <time>2016-09-25T06:25:29Z</time>
      </trkpt>
      <trkpt lat="45.68736" lon="4.75271">
        <ele>241.001068</ele>
        <time>2016-09-25T06:25:31Z</time>
      </trkpt>
      <trkpt lat="45.6874" lon="4.75273">
        <ele>241.478439</ele>
        <time>2016-09-25T06:25:33Z</time>
      </trkpt>
      <trkpt lat="45.68744" lon="4.75274">
        <ele>241.825775</ele>
        <time>2016-09-25T06:25:35Z</time>
      </trkpt>
      <trkpt lat="45.68747" lon="4.75276">
        <ele>242.382813</ele>
        <time>2016-09-25T06:25:37Z</time>
      </trkpt>
      <trkpt lat="45.68751" lon="4.75278">
        <ele>242.88269</ele>
        <time>2016-09-25T06:25:39Z</time>
      </trkpt>
      <trkpt lat="45.68755" lon="4.75279">
        <ele>243.035202</ele>
        <time>2016-09-25T06:25:41Z</time>
      </trkpt>
      <trkpt lat="45.68758" lon="4.7528">
        <ele>243.609344</ele>
        <time>2016-09-25T06:25:43Z</time>
      </trkpt>
      <trkpt lat="45.68761" lon="4.75282">
        <ele>244.07756</ele>
        <time>2016-09-25T06:25:45Z</time>
      </trkpt>
      <trkpt lat="45.68765" lon="4.75283">
        <ele>244.499115</ele>
        <time>2016-09-25T06:25:47Z</time>
      </trkpt>
      <trkpt lat="45.68768" lon="4.75285">
        <ele>244.994339</ele>
        <time>2016-09-25T06:25:49Z</time>
      </trkpt>
      <trkpt lat="45.68771" lon="4.75286">
        <ele>245.388428</ele>
        <time>2016-09-25T06:25:51Z</time>
      </trkpt>
      <trkpt lat="45.68774" lon="4.75287">
        <ele>245.889069</ele>
        <time>2016-09-25T06:25:53Z</time>
      </trkpt>
      <trkpt lat="45.68778" lon="4.75289">
        <ele>246.346771</ele>
        <time>2016-09-25T06:25:55Z</time>
      </trkpt>
      <trkpt lat="45.68781" lon="4.7529">
        <ele>246.562943</ele>
        <time>2016-09-25T06:25:57Z</time>
      </trkpt>
      <trkpt lat="45.68784" lon="4.75292">
        <ele>247.182037</ele>
        <time>2016-09-25T06:25:59Z</time>
      </trkpt>
      <trkpt lat="45.68787" lon="4.75293">
        <ele>247.593994</ele>
        <time>2016-09-25T06:26:01Z</time>
      </trkpt>
      <trkpt lat="45.68791" lon="4.75295">
        <ele>247.983932</ele>
        <time>2016-09-25T06:26:03Z</time>
      </trkpt>
      <trkpt lat="45.68795" lon="4.75296">
        <ele>248.681061</ele>
        <time>2016-09-25T06:26:05Z</time>
      </trkpt>
      <trkpt lat="45.68798" lon="4.75297">
        <ele>249.213043</ele>
        <time>2016-09-25T06:26:07Z</time>
      </trkpt>
      <trkpt lat="45.68802" lon="4.75298">
        <ele>249.66391</ele>
        <time>2016-09-25T06:26:09Z</time>
      </trkpt>
      <trkpt lat="45.68806" lon="4.75298">
        <ele>250.103027</ele>
        <time>2016-09-25T06:26:11Z</time>
      </trkpt>
      <trkpt lat="45.6881" lon="4.75299">
        <ele>250.515472</ele>
        <time>2016-09-25T06:26:13Z</time>
      </trkpt>
      <trkpt lat="45.68813" lon="4.75299">
        <ele>251.070892</ele>
        <time>2016-09-25T06:26:15Z</time>
      </trkpt>
      <trkpt lat="45.68817" lon="4.75299">
        <ele>251.594528</ele>
        <time>2016-09-25T06:26:17Z</time>
      </trkpt>
      <trkpt lat="45.68821" lon="4.75298">
        <ele>252.05542</ele>
        <time>2016-09-25T06:26:19Z</time>
      </trkpt>
      <trkpt lat="45.68824" lon="4.75297">
        <ele>252.565475</ele>
        <time>2016-09-25T06:26:21Z</time>
      </trkpt>
      <trkpt lat="45.68828" lon="4.75297">
        <ele>253.063721</ele>
        <time>2016-09-25T06:26:23Z</time>
      </trkpt>
      <trkpt lat="45.68832" lon="4.75297">
        <ele>253.326706</ele>
        <time>2016-09-25T06:26:25Z</time>
      </trkpt>
      <trkpt lat="45.68835" lon="4.75296">
        <ele>253.772018</ele>
        <time>2016-09-25T06:26:27Z</time>
      </trkpt>
      <trkpt lat="45.68839" lon="4.75295">
        <ele>254.311035</ele>
        <time>2016-09-25T06:26:29Z</time>
      </trkpt>
      <trkpt lat="45.68842" lon="4.75294">
        <ele>254.781342</ele>
        <time>2016-09-25T06:26:31Z</time>
      </trkpt>
      <trkpt lat="45.68845" lon="4.75294">
        <ele>255.235764</ele>
        <time>2016-09-25T06:26:33Z</time>
      </trkpt>
      <trkpt lat="45.68849" lon="4.75294">
        <ele>255.693924</ele>
        <time>2016-09-25T06:26:35Z</time>
      </trkpt>
      <trkpt lat="45.68852" lon="4.75293">
        <ele>256.160553</ele>
        <time>2016-09-25T06:26:37Z</time>
      </trkpt>
      <trkpt lat="45.68856" lon="4.75293">
        <ele>256.658569</ele>
        <time>2016-09-25T06:26:39Z</time>
      </trkpt>
      <trkpt lat="45.6886" lon="4.75293">
        <ele>257.188049</ele>
        <time>2016-09-25T06:26:41Z</time>
      </trkpt>
      <trkpt lat="45.68862" lon="4.75293">
        <ele>257.637878</ele>
        <time>2016-09-25T06:26:43Z</time>
      </trkpt>
      <trkpt lat="45.68866" lon="4.75293">
        <ele>258.246643</ele>
        <time>2016-09-25T06:26:45Z</time>
      </trkpt>
      <trkpt lat="45.68869" lon="4.75293">
        <ele>258.670898</ele>
        <time>2016-09-25T06:26:47Z</time>
      </trkpt>
      <trkpt lat="45.68873" lon="4.75294">
        <ele>259.215637</ele>
        <time>2016-09-25T06:26:49Z</time>
      </trkpt>
      <trkpt lat="45.68876" lon="4.75293">
        <ele>259.763062</ele>
        <time>2016-09-25T06:26:51Z</time>
      </trkpt>
      <trkpt lat="45.68879" lon="4.75293">
        <ele>260.28595</ele>
        <time>2016-09-25T06:26:53Z</time>
      </trkpt>
      <trkpt lat="45.68882" lon="4.75294">
        <ele>260.820648</ele>
        <time>2016-09-25T06:26:55Z</time>
      </trkpt>
      <trkpt lat="45.68886" lon="4.75294">
        <ele>261.088013</ele>
        <time>2016-09-25T06:26:57Z</time>
      </trkpt>
      <trkpt lat="45.68889" lon="4.75295">
        <ele>261.482697</ele>
        <time>2016-09-25T06:26:59Z</time>
      </trkpt>
      <trkpt lat="45.68893" lon="4.75295">
        <ele>262.103729</ele>
        <time>2016-09-25T06:27:01Z</time>
      </trkpt>
      <trkpt lat="45.68896" lon="4.75296">
        <ele>262.633087</ele>
        <time>2016-09-25T06:27:03Z</time>
      </trkpt>
      <trkpt lat="45.689" lon="4.75297">
        <ele>263.072418</ele>
        <time>2016-09-25T06:27:05Z</time>
      </trkpt>
      <trkpt lat="45.68903" lon="4.75298">
        <ele>263.558502</ele>
        <time>2016-09-25T06:27:07Z</time>
      </trkpt>
      <trkpt lat="45.68907" lon="4.75299">
        <ele>264.076447</ele>
        <time>2016-09-25T06:27:09Z</time>
      </trkpt>
      <trkpt lat="45.68911" lon="4.753">
        <ele>264.699371</ele>
        <time>2016-09-25T06:27:11Z</time>
      </trkpt>
      <trkpt lat="45.68915" lon="4.753">
        <ele>265.282532</ele>
        <time>2016-09-25T06:27:13Z</time>
      </trkpt>
      <trkpt lat="45.68919" lon="4.75301">
        <ele>265.80481</ele>
        <time>2016-09-25T06:27:15Z</time>
      </trkpt>
      <trkpt lat="45.68924" lon="4.75301">
        <ele>266.363098</ele>
        <time>2016-09-25T06:27:17Z</time>
      </trkpt>
      <trkpt lat="45.68929" lon="4.75302">
        <ele>266.851257</ele>
        <time>2016-09-25T06:27:19Z</time>
      </trkpt>
      <trkpt lat="45.68934" lon="4.75303">
        <ele>267.308228</ele>
        <time>2016-09-25T06:27:21Z</time>
      </trkpt>
      <trkpt lat="45.68939" lon="4.75303">
        <ele>267.868835</ele>
        <time>2016-09-25T06:27:23Z</time>
      </trkpt>
      <trkpt lat="45.68944" lon="4.75304">
        <ele>268.425018</ele>
        <time>2016-09-25T06:27:25Z</time>
      </trkpt>
      <trkpt lat="45.68949" lon="4.75304">
        <ele>268.65863</ele>
        <time>2016-09-25T06:27:27Z</time>
      </trkpt>
      <trkpt lat="45.68955" lon="4.75304">
        <ele>269.155457</ele>
        <time>2016-09-25T06:27:29Z</time>
      </trkpt>
      <trkpt lat="45.68959" lon="4.75304">
        <ele>269.605682</ele>
        <time>2016-09-25T06:27:31Z</time>
      </trkpt>
      <trkpt lat="45.68965" lon="4.75304">
        <ele>269.960327</ele>
        <time>2016-09-25T06:27:33Z</time>
      </trkpt>
      <trkpt lat="45.68971" lon="4.75304">
        <ele>270.429504</ele>
        <time>2016-09-25T06:27:35Z</time>
      </trkpt>
      <trkpt lat="45.68976" lon="4.75304">
        <ele>270.886169</ele>
        <time>2016-09-25T06:27:37Z</time>
      </trkpt>
      <trkpt lat="45.68982" lon="4.75302">
        <ele>271.35553</ele>
        <time>2016-09-25T06:27:39Z</time>
      </trkpt>
      <trkpt lat="45.68989" lon="4.75302">
        <ele>271.642273</ele>
        <time>2016-09-25T06:27:41Z</time>
      </trkpt>
      <trkpt lat="45.68998" lon="4.75303">
        <ele>271.937531</ele>
        <time>2016-09-25T06:27:43Z</time>
      </trkpt>
      <trkpt lat="45.69006" lon="4.75304">
        <ele>272.171112</ele>
        <time>2016-09-25T06:27:45Z</time>
      </trkpt>
      <trkpt lat="45.69016" lon="4.75305">
        <ele>272.429901</ele>
        <time>2016-09-25T06:27:47Z</time>
      </trkpt>
      <trkpt lat="45.69027" lon="4.75306">
        <ele>272.504272</ele>
        <time>2016-09-25T06:27:49Z</time>
      </trkpt>
      <trkpt lat="45.69037" lon="4.75307">
        <ele>272.610901</ele>
        <time>2016-09-25T06:27:51Z</time>
      </trkpt>
      <trkpt lat="45.69048" lon="4.7531">
        <ele>272.721344</ele>
        <time>2016-09-25T06:27:53Z</time>
      </trkpt>
      <trkpt lat="45.69059" lon="4.75312">
        <ele>272.759613</ele>
        <time>2016-09-25T06:27:55Z</time>
      </trkpt>
      <trkpt lat="45.6907" lon="4.75314">
        <ele>272.632202</ele>
        <time>2016-09-25T06:27:57Z</time>
      </trkpt>
      <trkpt lat="45.69082" lon="4.75315">
        <ele>272.608643</ele>
        <time>2016-09-25T06:27:59Z</time>
      </trkpt>
      <trkpt lat="45.69094" lon="4.75314">
        <ele>272.778687</ele>
        <time>2016-09-25T06:28:01Z</time>
      </trkpt>
      <trkpt lat="45.69106" lon="4.75316">
        <ele>272.752716</ele>
        <time>2016-09-25T06:28:03Z</time>
      </trkpt>
      <trkpt lat="45.69118" lon="4.75317">
        <ele>272.572144</ele>
        <time>2016-09-25T06:28:05Z</time>
      </trkpt>
      <trkpt lat="45.6913" lon="4.75319">
        <ele>272.323669</ele>
        <time>2016-09-25T06:28:07Z</time>
      </trkpt>
      <trkpt lat="45.69141" lon="4.75322">
        <ele>272.343903</ele>
        <time>2016-09-25T06:28:09Z</time>
      </trkpt>
      <trkpt lat="45.69153" lon="4.75325">
        <ele>272.260406</ele>
        <time>2016-09-25T06:28:11Z</time>
      </trkpt>
      <trkpt lat="45.69165" lon="4.75327">
        <ele>272.109619</ele>
        <time>2016-09-25T06:28:13Z</time>
      </trkpt>
      <trkpt lat="45.69177" lon="4.7533">
        <ele>272.099274</ele>
        <time>2016-09-25T06:28:15Z</time>
      </trkpt>
      <trkpt lat="45.69188" lon="4.75332">
        <ele>272.158752</ele>
        <time>2016-09-25T06:28:17Z</time>
      </trkpt>
      <trkpt lat="45.69199" lon="4.75333">
        <ele>271.810394</ele>
        <time>2016-09-25T06:28:19Z</time>
      </trkpt>
      <trkpt lat="45.69211" lon="4.75335">
        <ele>271.90387</ele>
        <time>2016-09-25T06:28:21Z</time>
      </trkpt>
      <trkpt lat="45.69223" lon="4.75336">
        <ele>271.967621</ele>
        <time>2016-09-25T06:28:23Z</time>
      </trkpt>
      <trkpt lat="45.69235" lon="4.75338">
        <ele>271.878387</ele>
        <time>2016-09-25T06:28:25Z</time>
      </trkpt>
      <trkpt lat="45.69248" lon="4.7534">
        <ele>271.98465</ele>
        <time>2016-09-25T06:28:27Z</time>
      </trkpt>
      <trkpt lat="45.6926" lon="4.75342">
        <ele>272.361145</ele>
        <time>2016-09-25T06:28:29Z</time>
      </trkpt>
      <trkpt lat="45.69272" lon="4.75345">
        <ele>272.312317</ele>
        <time>2016-09-25T06:28:31Z</time>
      </trkpt>
      <trkpt lat="45.69284" lon="4.75348">
        <ele>272.4776</ele>
        <time>2016-09-25T06:28:33Z</time>
      </trkpt>
      <trkpt lat="45.69294" lon="4.75354">
        <ele>272.511627</ele>
        <time>2016-09-25T06:28:35Z</time>
      </trkpt>
      <trkpt lat="45.69305" lon="4.75359">
        <ele>272.554077</ele>
        <time>2016-09-25T06:28:37Z</time>
      </trkpt>
      <trkpt lat="45.69315" lon="4.75366">
        <ele>272.439636</ele>
        <time>2016-09-25T06:28:39Z</time>
      </trkpt>
      <trkpt lat="45.69326" lon="4.75371">
        <ele>272.696594</ele>
        <time>2016-09-25T06:28:41Z</time>
      </trkpt>
      <trkpt lat="45.69335" lon="4.75374">
        <ele>273.021759</ele>
        <time>2016-09-25T06:28:43Z</time>
      </trkpt>
      <trkpt lat="45.69345" lon="4.75377">
        <ele>273.142853</ele>
        <time>2016-09-25T06:28:45Z</time>
      </trkpt>
      <trkpt lat="45.69354" lon="4.75379">
        <ele>273.292511</ele>
        <time>2016-09-25T06:28:47Z</time>
      </trkpt>
      <trkpt lat="45.69364" lon="4.7538">
        <ele>273.390198</ele>
        <time>2016-09-25T06:28:49Z</time>
      </trkpt>
      <trkpt lat="45.69374" lon="4.75379">
        <ele>273.404602</ele>
        <time>2016-09-25T06:28:51Z</time>
      </trkpt>
      <trkpt lat="45.69383" lon="4.75376">
        <ele>273.703674</ele>
        <time>2016-09-25T06:28:53Z</time>
      </trkpt>
      <trkpt lat="45.69393" lon="4.75373">
        <ele>273.614441</ele>
        <time>2016-09-25T06:28:55Z</time>
      </trkpt>
      <trkpt lat="45.69402" lon="4.7537">
        <ele>273.788605</ele>
        <time>2016-09-25T06:28:57Z</time>
      </trkpt>
      <trkpt lat="45.69412" lon="4.75367">
        <ele>273.763153</ele>
        <time>2016-09-25T06:28:59Z</time>
      </trkpt>
      <trkpt lat="45.69422" lon="4.75364">
        <ele>274.0159</ele>
        <time>2016-09-25T06:29:01Z</time>
      </trkpt>
      <trkpt lat="45.69432" lon="4.75362">
        <ele>273.973419</ele>
        <time>2016-09-25T06:29:03Z</time>
      </trkpt>
      <trkpt lat="45.69441" lon="4.75359">
        <ele>274.166779</ele>
        <time>2016-09-25T06:29:05Z</time>
      </trkpt>
      <trkpt lat="45.69451" lon="4.75356">
        <ele>274.234802</ele>
        <time>2016-09-25T06:29:07Z</time>
      </trkpt>
      <trkpt lat="45.69461" lon="4.75353">
        <ele>274.175232</ele>
        <time>2016-09-25T06:29:09Z</time>
      </trkpt>
      <trkpt lat="45.6947" lon="4.7535">
        <ele>274.296326</ele>
        <time>2016-09-25T06:29:11Z</time>
      </trkpt>
      <trkpt lat="45.69479" lon="4.75349">
        <ele>274.4599</ele>
        <time>2016-09-25T06:29:13Z</time>
      </trkpt>
      <trkpt lat="45.69489" lon="4.75349">
        <ele>274.589539</ele>
        <time>2016-09-25T06:29:15Z</time>
      </trkpt>
      <trkpt lat="45.69497" lon="4.75351">
        <ele>274.76593</ele>
        <time>2016-09-25T06:29:17Z</time>
      </trkpt>
      <trkpt lat="45.69507" lon="4.75352">
        <ele>275.229187</ele>
        <time>2016-09-25T06:29:19Z</time>
      </trkpt>
      <trkpt lat="45.69515" lon="4.75353">
        <ele>275.539368</ele>
        <time>2016-09-25T06:29:21Z</time>
      </trkpt>
      <trkpt lat="45.69524" lon="4.75354">
        <ele>275.689697</ele>
        <time>2016-09-25T06:29:23Z</time>
      </trkpt>
      <trkpt lat="45.69534" lon="4.75355">
        <ele>275.625885</ele>
        <time>2016-09-25T06:29:25Z</time>
      </trkpt>
      <trkpt lat="45.69545" lon="4.75356">
        <ele>275.872406</ele>
        <time>2016-09-25T06:29:27Z</time>
      </trkpt>
      <trkpt lat="45.69555" lon="4.75357">
        <ele>276.183838</ele>
        <time>2016-09-25T06:29:29Z</time>
      </trkpt>
      <trkpt lat="45.69566" lon="4.75358">
        <ele>276.513123</ele>
        <time>2016-09-25T06:29:31Z</time>
      </trkpt>
      <trkpt lat="45.69577" lon="4.75359">
        <ele>276.833099</ele>
        <time>2016-09-25T06:29:33Z</time>
      </trkpt>
      <trkpt lat="45.69588" lon="4.7536">
        <ele>277.018402</ele>
        <time>2016-09-25T06:29:35Z</time>
      </trkpt>
      <trkpt lat="45.69599" lon="4.75361">
        <ele>277.264893</ele>
        <time>2016-09-25T06:29:37Z</time>
      </trkpt>
      <trkpt lat="45.6961" lon="4.75363">
        <ele>277.528381</ele>
        <time>2016-09-25T06:29:39Z</time>
      </trkpt>
      <trkpt lat="45.6962" lon="4.75365">
        <ele>277.651611</ele>
        <time>2016-09-25T06:29:41Z</time>
      </trkpt>
      <trkpt lat="45.6963" lon="4.7537">
        <ele>277.955505</ele>
        <time>2016-09-25T06:29:43Z</time>
      </trkpt>
      <trkpt lat="45.6964" lon="4.75376">
        <ele>278.174408</ele>
        <time>2016-09-25T06:29:45Z</time>
      </trkpt>
      <trkpt lat="45.6965" lon="4.75383">
        <ele>278.208435</ele>
        <time>2016-09-25T06:29:47Z</time>
      </trkpt>
      <trkpt lat="45.69658" lon="4.75392">
        <ele>278.451843</ele>
        <time>2016-09-25T06:29:49Z</time>
      </trkpt>
      <trkpt lat="45.69668" lon="4.75401">
        <ele>278.670563</ele>
        <time>2016-09-25T06:29:51Z</time>
      </trkpt>
      <trkpt lat="45.69678" lon="4.75409">
        <ele>278.84906</ele>
        <time>2016-09-25T06:29:53Z</time>
      </trkpt>
      <trkpt lat="45.69689" lon="4.75413">
        <ele>279.045227</ele>
        <time>2016-09-25T06:29:55Z</time>
      </trkpt>
      <trkpt lat="45.697" lon="4.75415">
        <ele>279.280334</ele>
        <time>2016-09-25T06:29:57Z</time>
      </trkpt>
      <trkpt lat="45.69712" lon="4.75415">
        <ele>279.361908</ele>
        <time>2016-09-25T06:29:59Z</time>
      </trkpt>
      <trkpt lat="45.69724" lon="4.75415">
        <ele>279.220825</ele>
        <time>2016-09-25T06:30:01Z</time>
      </trkpt>
      <trkpt lat="45.69735" lon="4.75416">
        <ele>279.216583</ele>
        <time>2016-09-25T06:30:03Z</time>
      </trkpt>
      <trkpt lat="45.69747" lon="4.75417">
        <ele>279.245422</ele>
        <time>2016-09-25T06:30:05Z</time>
      </trkpt>
      <trkpt lat="45.69758" lon="4.75417">
        <ele>279.211395</ele>
        <time>2016-09-25T06:30:07Z</time>
      </trkpt>
      <trkpt lat="45.6977" lon="4.75418">
        <ele>279.151886</ele>
        <time>2016-09-25T06:30:09Z</time>
      </trkpt>
      <trkpt lat="45.69783" lon="4.7542">
        <ele>279.213531</ele>
        <time>2016-09-25T06:30:11Z</time>
      </trkpt>
      <trkpt lat="45.69795" lon="4.75422">
        <ele>279.234772</ele>
        <time>2016-09-25T06:30:13Z</time>
      </trkpt>
      <trkpt lat="45.69807" lon="4.75425">
        <ele>279.257019</ele>
        <time>2016-09-25T06:30:15Z</time>
      </trkpt>
      <trkpt lat="45.69818" lon="4.75427">
        <ele>279.407959</ele>
        <time>2016-09-25T06:30:17Z</time>
      </trkpt>
      <trkpt lat="45.69829" lon="4.75429">
        <ele>279.441956</ele>
        <time>2016-09-25T06:30:19Z</time>
      </trkpt>
      <trkpt lat="45.69838" lon="4.75427">
        <ele>279.444092</ele>
        <time>2016-09-25T06:30:21Z</time>
      </trkpt>
      <trkpt lat="45.69845" lon="4.75418">
        <ele>279.516418</ele>
        <time>2016-09-25T06:30:23Z</time>
      </trkpt>
      <trkpt lat="45.69848" lon="4.75406">
        <ele>279.519867</ele>
        <time>2016-09-25T06:30:25Z</time>
      </trkpt>
      <trkpt lat="45.69849" lon="4.75393">
        <ele>279.513519</ele>
        <time>2016-09-25T06:30:27Z</time>
      </trkpt>
      <trkpt lat="45.6985" lon="4.75379">
        <ele>279.605927</ele>
        <time>2016-09-25T06:30:29Z</time>
      </trkpt>
      <trkpt lat="45.6985" lon="4.75366">
        <ele>279.535797</ele>
        <time>2016-09-25T06:30:31Z</time>
      </trkpt>
      <trkpt lat="45.6985" lon="4.75353">
        <ele>279.542419</ele>
        <time>2016-09-25T06:30:33Z</time>
      </trkpt>
      <trkpt lat="45.6985" lon="4.7534">
        <ele>279.595306</ele>
        <time>2016-09-25T06:30:35Z</time>
      </trkpt>
      <trkpt lat="45.69851" lon="4.75328">
        <ele>279.63269</ele>
        <time>2016-09-25T06:30:37Z</time>
      </trkpt>
      <trkpt lat="45.69851" lon="4.75316">
        <ele>279.782349</ele>
        <time>2016-09-25T06:30:39Z</time>
      </trkpt>
      <trkpt lat="45.69851" lon="4.75304">
        <ele>280.187653</ele>
        <time>2016-09-25T06:30:41Z</time>
      </trkpt>
      <trkpt lat="45.69853" lon="4.75292">
        <ele>280.237366</ele>
        <time>2016-09-25T06:30:43Z</time>
      </trkpt>
      <trkpt lat="45.69854" lon="4.7528">
        <ele>280.407379</ele>
        <time>2016-09-25T06:30:45Z</time>
      </trkpt>
      <trkpt lat="45.69856" lon="4.75268">
        <ele>280.731964</ele>
        <time>2016-09-25T06:30:47Z</time>
      </trkpt>
      <trkpt lat="45.69859" lon="4.75256">
        <ele>280.899902</ele>
        <time>2016-09-25T06:30:49Z</time>
      </trkpt>
      <trkpt lat="45.69861" lon="4.75244">
        <ele>281.055145</ele>
        <time>2016-09-25T06:30:51Z</time>
      </trkpt>
      <trkpt lat="45.69862" lon="4.75232">
        <ele>281.059509</ele>
        <time>2016-09-25T06:30:53Z</time>
      </trkpt>
      <trkpt lat="45.69864" lon="4.7522">
        <ele>281.255066</ele>
        <time>2016-09-25T06:30:55Z</time>
      </trkpt>
      <trkpt lat="45.69866" lon="4.75208">
        <ele>281.482605</ele>
        <time>2016-09-25T06:30:57Z</time>
      </trkpt>
      <trkpt lat="45.69867" lon="4.75196">
        <ele>281.693115</ele>
        <time>2016-09-25T06:30:59Z</time>
      </trkpt>
      <trkpt lat="45.69869" lon="4.75184">
        <ele>281.958923</ele>
        <time>2016-09-25T06:31:01Z</time>
      </trkpt>
      <trkpt lat="45.6987" lon="4.75172">
        <ele>282.155121</ele>
        <time>2016-09-25T06:31:03Z</time>
      </trkpt>
      <trkpt lat="45.69872" lon="4.75159">
        <ele>282.181427</ele>
        <time>2016-09-25T06:31:05Z</time>
      </trkpt>
      <trkpt lat="45.69873" lon="4.75147">
        <ele>282.619446</ele>
        <time>2016-09-25T06:31:07Z</time>
      </trkpt>
      <trkpt lat="45.69875" lon="4.75136">
        <ele>282.889587</ele>
        <time>2016-09-25T06:31:09Z</time>
      </trkpt>
      <trkpt lat="45.69877" lon="4.75125">
        <ele>283.076721</ele>
        <time>2016-09-25T06:31:11Z</time>
      </trkpt>
      <trkpt lat="45.69878" lon="4.75114">
        <ele>283.546661</ele>
        <time>2016-09-25T06:31:13Z</time>
      </trkpt>
      <trkpt lat="45.69879" lon="4.75103">
        <ele>283.792999</ele>
        <time>2016-09-25T06:31:15Z</time>
      </trkpt>
      <trkpt lat="45.69881" lon="4.75094">
        <ele>283.906372</ele>
        <time>2016-09-25T06:31:17Z</time>
      </trkpt>
      <trkpt lat="45.69883" lon="4.75084">
        <ele>284.306702</ele>
        <time>2016-09-25T06:31:19Z</time>
      </trkpt>
      <trkpt lat="45.69883" lon="4.75074">
        <ele>284.576843</ele>
        <time>2016-09-25T06:31:21Z</time>
      </trkpt>
      <trkpt lat="45.69885" lon="4.75065">
        <ele>284.738495</ele>
        <time>2016-09-25T06:31:23Z</time>
      </trkpt>
      <trkpt lat="45.69886" lon="4.75056">
        <ele>285.123474</ele>
        <time>2016-09-25T06:31:25Z</time>
      </trkpt>
      <trkpt lat="45.69887" lon="4.75047">
        <ele>285.350525</ele>
        <time>2016-09-25T06:31:27Z</time>
      </trkpt>
      <trkpt lat="45.69889" lon="4.75037">
        <ele>285.644073</ele>
        <time>2016-09-25T06:31:29Z</time>
      </trkpt>
      <trkpt lat="45.6989" lon="4.75028">
        <ele>285.919159</ele>
        <time>2016-09-25T06:31:31Z</time>
      </trkpt>
      <trkpt lat="45.69891" lon="4.75018">
        <ele>286.737915</ele>
        <time>2016-09-25T06:31:33Z</time>
      </trkpt>
      <trkpt lat="45.69893" lon="4.75009">
        <ele>287.06604</ele>
        <time>2016-09-25T06:31:35Z</time>
      </trkpt>
      <trkpt lat="45.69894" lon="4.74999">
        <ele>287.512756</ele>
        <time>2016-09-25T06:31:37Z</time>
      </trkpt>
      <trkpt lat="45.69896" lon="4.7499">
        <ele>287.645569</ele>
        <time>2016-09-25T06:31:39Z</time>
      </trkpt>
      <trkpt lat="45.69897" lon="4.74981">
        <ele>288.009399</ele>
        <time>2016-09-25T06:31:41Z</time>
      </trkpt>
      <trkpt lat="45.69898" lon="4.74974">
        <ele>288.365112</ele>
        <time>2016-09-25T06:31:43Z</time>
      </trkpt>
      <trkpt lat="45.69899" lon="4.74966">
        <ele>288.83255</ele>
        <time>2016-09-25T06:31:45Z</time>
      </trkpt>
      <trkpt lat="45.69901" lon="4.74957">
        <ele>289.44104</ele>
        <time>2016-09-25T06:31:47Z</time>
      </trkpt>
      <trkpt lat="45.69901" lon="4.74948">
        <ele>289.745331</ele>
        <time>2016-09-25T06:31:49Z</time>
      </trkpt>
      <trkpt lat="45.69902" lon="4.7494">
        <ele>290.014374</ele>
        <time>2016-09-25T06:31:51Z</time>
      </trkpt>
      <trkpt lat="45.69902" lon="4.74932">
        <ele>290.284607</ele>
        <time>2016-09-25T06:31:53Z</time>
      </trkpt>
      <trkpt lat="45.69902" lon="4.74925">
        <ele>290.350555</ele>
        <time>2016-09-25T06:31:55Z</time>
      </trkpt>
      <trkpt lat="45.69902" lon="4.74918">
        <ele>290.743591</ele>
        <time>2016-09-25T06:31:57Z</time>
      </trkpt>
      <trkpt lat="45.69902" lon="4.74911">
        <ele>291.100128</ele>
        <time>2016-09-25T06:31:59Z</time>
      </trkpt>
      <trkpt lat="45.69902" lon="4.74904">
        <ele>291.526184</ele>
        <time>2016-09-25T06:32:01Z</time>
      </trkpt>
      <trkpt lat="45.69902" lon="4.74897">
        <ele>291.594269</ele>
        <time>2016-09-25T06:32:03Z</time>
      </trkpt>
      <trkpt lat="45.69902" lon="4.74889">
        <ele>292.079529</ele>
        <time>2016-09-25T06:32:05Z</time>
      </trkpt>
      <trkpt lat="45.69902" lon="4.74882">
        <ele>292.758667</ele>
        <time>2016-09-25T06:32:07Z</time>
      </trkpt>
      <trkpt lat="45.69902" lon="4.74875">
        <ele>292.957367</ele>
        <time>2016-09-25T06:32:09Z</time>
      </trkpt>
      <trkpt lat="45.69902" lon="4.74868">
        <ele>293.34906</ele>
        <time>2016-09-25T06:32:11Z</time>
      </trkpt>
      <trkpt lat="45.69902" lon="4.7486">
        <ele>293.780396</ele>
        <time>2016-09-25T06:32:13Z</time>
      </trkpt>
      <trkpt lat="45.69902" lon="4.74853">
        <ele>294.076111</ele>
        <time>2016-09-25T06:32:15Z</time>
      </trkpt>
      <trkpt lat="45.69901" lon="4.74846">
        <ele>294.34024</ele>
        <time>2016-09-25T06:32:17Z</time>
      </trkpt>
      <trkpt lat="45.69901" lon="4.74838">
        <ele>294.719818</ele>
        <time>2016-09-25T06:32:19Z</time>
      </trkpt>
      <trkpt lat="45.69901" lon="4.7483">
        <ele>295.144714</ele>
        <time>2016-09-25T06:32:21Z</time>
      </trkpt>
      <trkpt lat="45.69901" lon="4.74823">
        <ele>295.595764</ele>
        <time>2016-09-25T06:32:23Z</time>
      </trkpt>
      <trkpt lat="45.69901" lon="4.74815">
        <ele>296.164429</ele>
        <time>2016-09-25T06:32:25Z</time>
      </trkpt>
      <trkpt lat="45.69901" lon="4.74807">
        <ele>296.656342</ele>
        <time>2016-09-25T06:32:27Z</time>
      </trkpt>
      <trkpt lat="45.69901" lon="4.748">
        <ele>296.833069</ele>
        <time>2016-09-25T06:32:29Z</time>
      </trkpt>
      <trkpt lat="45.69901" lon="4.74792">
        <ele>297.084381</ele>
        <time>2016-09-25T06:32:31Z</time>
      </trkpt>
      <trkpt lat="45.69901" lon="4.74785">
        <ele>297.452576</ele>
        <time>2016-09-25T06:32:33Z</time>
      </trkpt>
      <trkpt lat="45.69901" lon="4.74777">
        <ele>298.014709</ele>
        <time>2016-09-25T06:32:35Z</time>
      </trkpt>
      <trkpt lat="45.69901" lon="4.7477">
        <ele>298.685333</ele>
        <time>2016-09-25T06:32:37Z</time>
      </trkpt>
      <trkpt lat="45.69901" lon="4.74764">
        <ele>299.122192</ele>
        <time>2016-09-25T06:32:39Z</time>
      </trkpt>
      <trkpt lat="45.69902" lon="4.74757">
        <ele>299.553772</ele>
        <time>2016-09-25T06:32:41Z</time>
      </trkpt>
      <trkpt lat="45.69902" lon="4.74751">
        <ele>300.003235</ele>
        <time>2016-09-25T06:32:43Z</time>
      </trkpt>
      <trkpt lat="45.69903" lon="4.74745">
        <ele>300.635773</ele>
        <time>2016-09-25T06:32:45Z</time>
      </trkpt>
      <trkpt lat="45.69906" lon="4.74739">
        <ele>301.074646</ele>
        <time>2016-09-25T06:32:47Z</time>
      </trkpt>
      <trkpt lat="45.69907" lon="4.74735">
        <ele>301.343079</ele>
        <time>2016-09-25T06:32:49Z</time>
      </trkpt>
      <trkpt lat="45.69907" lon="4.74731">
        <ele>301.575134</ele>
        <time>2016-09-25T06:32:51Z</time>
      </trkpt>
      <trkpt lat="45.69906" lon="4.74726">
        <ele>302.051392</ele>
        <time>2016-09-25T06:32:53Z</time>
      </trkpt>
      <trkpt lat="45.69906" lon="4.74719">
        <ele>302.564819</ele>
        <time>2016-09-25T06:32:55Z</time>
      </trkpt>
      <trkpt lat="45.69908" lon="4.74713">
        <ele>303.042267</ele>
        <time>2016-09-25T06:32:57Z</time>
      </trkpt>
      <trkpt lat="45.6991" lon="4.74707">
        <ele>303.522491</ele>
        <time>2016-09-25T06:32:59Z</time>
      </trkpt>
      <trkpt lat="45.69914" lon="4.747">
        <ele>303.947479</ele>
        <time>2016-09-25T06:33:01Z</time>
      </trkpt>
      <trkpt lat="45.69917" lon="4.74692">
        <ele>304.345978</ele>
        <time>2016-09-25T06:33:03Z</time>
      </trkpt>
      <trkpt lat="45.6992" lon="4.74683">
        <ele>304.622986</ele>
        <time>2016-09-25T06:33:05Z</time>
      </trkpt>
      <trkpt lat="45.69924" lon="4.74674">
        <ele>304.744446</ele>
        <time>2016-09-25T06:33:07Z</time>
      </trkpt>
      <trkpt lat="45.69927" lon="4.74664">
        <ele>305.015076</ele>
        <time>2016-09-25T06:33:09Z</time>
      </trkpt>
      <trkpt lat="45.6993" lon="4.74655">
        <ele>305.582397</ele>
        <time>2016-09-25T06:33:11Z</time>
      </trkpt>
      <trkpt lat="45.69934" lon="4.74645">
        <ele>305.884216</ele>
        <time>2016-09-25T06:33:13Z</time>
      </trkpt>
      <trkpt lat="45.69938" lon="4.74635">
        <ele>306.297577</ele>
        <time>2016-09-25T06:33:15Z</time>
      </trkpt>
      <trkpt lat="45.69941" lon="4.74625">
        <ele>306.47879</ele>
        <time>2016-09-25T06:33:17Z</time>
      </trkpt>
      <trkpt lat="45.69944" lon="4.74616">
        <ele>306.717468</ele>
        <time>2016-09-25T06:33:19Z</time>
      </trkpt>
      <trkpt lat="45.69947" lon="4.74606">
        <ele>306.884064</ele>
        <time>2016-09-25T06:33:21Z</time>
      </trkpt>
      <trkpt lat="45.69952" lon="4.74596">
        <ele>307.068451</ele>
        <time>2016-09-25T06:33:23Z</time>
      </trkpt>
      <trkpt lat="45.69955" lon="4.74585">
        <ele>307.202728</ele>
        <time>2016-09-25T06:33:25Z</time>
      </trkpt>
      <trkpt lat="45.69958" lon="4.74574">
        <ele>307.443542</ele>
        <time>2016-09-25T06:33:27Z</time>
      </trkpt>
      <trkpt lat="45.69962" lon="4.74563">
        <ele>307.567688</ele>
        <time>2016-09-25T06:33:29Z</time>
      </trkpt>
      <trkpt lat="45.69966" lon="4.74553">
        <ele>307.621277</ele>
        <time>2016-09-25T06:33:31Z</time>
      </trkpt>
      <trkpt lat="45.6997" lon="4.74542">
        <ele>307.704285</ele>
        <time>2016-09-25T06:33:33Z</time>
      </trkpt>
      <trkpt lat="45.69974" lon="4.7453">
        <ele>307.682983</ele>
        <time>2016-09-25T06:33:35Z</time>
      </trkpt>
      <trkpt lat="45.69978" lon="4.74519">
        <ele>307.732025</ele>
        <time>2016-09-25T06:33:37Z</time>
      </trkpt>
      <trkpt lat="45.69982" lon="4.74508">
        <ele>307.820007</ele>
        <time>2016-09-25T06:33:39Z</time>
      </trkpt>
      <trkpt lat="45.69986" lon="4.74497">
        <ele>307.967072</ele>
        <time>2016-09-25T06:33:41Z</time>
      </trkpt>
      <trkpt lat="45.6999" lon="4.74488">
        <ele>308.37912</ele>
        <time>2016-09-25T06:33:43Z</time>
      </trkpt>
      <trkpt lat="45.69996" lon="4.74479">
        <ele>308.464539</ele>
        <time>2016-09-25T06:33:45Z</time>
      </trkpt>
      <trkpt lat="45.70001" lon="4.74474">
        <ele>308.603088</ele>
        <time>2016-09-25T06:33:47Z</time>
      </trkpt>
      <trkpt lat="45.70005" lon="4.74466">
        <ele>308.82373</ele>
        <time>2016-09-25T06:33:49Z</time>
      </trkpt>
      <trkpt lat="45.70008" lon="4.74455">
        <ele>309.111572</ele>
        <time>2016-09-25T06:33:51Z</time>
      </trkpt>
      <trkpt lat="45.70011" lon="4.74445">
        <ele>309.332855</ele>
        <time>2016-09-25T06:33:53Z</time>
      </trkpt>
      <trkpt lat="45.70013" lon="4.74436">
        <ele>309.402527</ele>
        <time>2016-09-25T06:33:55Z</time>
      </trkpt>
      <trkpt lat="45.70015" lon="4.74427">
        <ele>309.620544</ele>
        <time>2016-09-25T06:33:57Z</time>
      </trkpt>
      <trkpt lat="45.70017" lon="4.74419">
        <ele>309.739807</ele>
        <time>2016-09-25T06:33:59Z</time>
      </trkpt>
      <trkpt lat="45.70019" lon="4.7441">
        <ele>310.044617</ele>
        <time>2016-09-25T06:34:01Z</time>
      </trkpt>
      <trkpt lat="45.70022" lon="4.74401">
        <ele>310.234344</ele>
        <time>2016-09-25T06:34:03Z</time>
      </trkpt>
      <trkpt lat="45.70024" lon="4.74392">
        <ele>310.438171</ele>
        <time>2016-09-25T06:34:05Z</time>
      </trkpt>
      <trkpt lat="45.70026" lon="4.74383">
        <ele>310.557556</ele>
        <time>2016-09-25T06:34:07Z</time>
      </trkpt>
      <trkpt lat="45.70029" lon="4.74375">
        <ele>310.822021</ele>
        <time>2016-09-25T06:34:09Z</time>
      </trkpt>
      <trkpt lat="45.70032" lon="4.74366">
        <ele>310.966522</ele>
        <time>2016-09-25T06:34:11Z</time>
      </trkpt>
      <trkpt lat="45.70034" lon="4.74355">
        <ele>311.1922</ele>
        <time>2016-09-25T06:34:13Z</time>
      </trkpt>
      <trkpt lat="45.70037" lon="4.74344">
        <ele>311.543549</ele>
        <time>2016-09-25T06:34:15Z</time>
      </trkpt>
      <trkpt lat="45.70041" lon="4.74333">
        <ele>312.016907</ele>
        <time>2016-09-25T06:34:17Z</time>
      </trkpt>
      <trkpt lat="45.70043" lon="4.74322">
        <ele>312.306915</ele>
        <time>2016-09-25T06:34:19Z</time>
      </trkpt>
      <trkpt lat="45.70046" lon="4.7431">
        <ele>312.5159</ele>
        <time>2016-09-25T06:34:21Z</time>
      </trkpt>
      <trkpt lat="45.70048" lon="4.74298">
        <ele>313.038513</ele>
        <time>2016-09-25T06:34:23Z</time>
      </trkpt>
      <trkpt lat="45.7005" lon="4.74286">
        <ele>313.117859</ele>
        <time>2016-09-25T06:34:25Z</time>
      </trkpt>
      <trkpt lat="45.70053" lon="4.74274">
        <ele>313.378082</ele>
        <time>2016-09-25T06:34:27Z</time>
      </trkpt>
      <trkpt lat="45.70056" lon="4.74262">
        <ele>313.647888</ele>
        <time>2016-09-25T06:34:29Z</time>
      </trkpt>
      <trkpt lat="45.70058" lon="4.7425">
        <ele>313.784393</ele>
        <time>2016-09-25T06:34:31Z</time>
      </trkpt>
      <trkpt lat="45.70061" lon="4.74237">
        <ele>313.913513</ele>
        <time>2016-09-25T06:34:33Z</time>
      </trkpt>
      <trkpt lat="45.70064" lon="4.74225">
        <ele>314.156616</ele>
        <time>2016-09-25T06:34:35Z</time>
      </trkpt>
      <trkpt lat="45.70067" lon="4.74213">
        <ele>314.244781</ele>
        <time>2016-09-25T06:34:37Z</time>
      </trkpt>
      <trkpt lat="45.7007" lon="4.74201">
        <ele>314.558624</ele>
        <time>2016-09-25T06:34:39Z</time>
      </trkpt>
      <trkpt lat="45.70074" lon="4.74189">
        <ele>314.710175</ele>
        <time>2016-09-25T06:34:41Z</time>
      </trkpt>
      <trkpt lat="45.70077" lon="4.74177">
        <ele>315.056976</ele>
        <time>2016-09-25T06:34:43Z</time>
      </trkpt>
      <trkpt lat="45.7008" lon="4.74166">
        <ele>315.283051</ele>
        <time>2016-09-25T06:34:45Z</time>
      </trkpt>
      <trkpt lat="45.70083" lon="4.74154">
        <ele>315.68277</ele>
        <time>2016-09-25T06:34:47Z</time>
      </trkpt>
      <trkpt lat="45.70086" lon="4.74143">
        <ele>315.898224</ele>
        <time>2016-09-25T06:34:49Z</time>
      </trkpt>
      <trkpt lat="45.70089" lon="4.74131">
        <ele>315.992096</ele>
        <time>2016-09-25T06:34:51Z</time>
      </trkpt>
      <trkpt lat="45.70093" lon="4.7412">
        <ele>316.102966</ele>
        <time>2016-09-25T06:34:53Z</time>
      </trkpt>
      <trkpt lat="45.70095" lon="4.74109">
        <ele>316.405334</ele>
        <time>2016-09-25T06:34:55Z</time>
      </trkpt>
      <trkpt lat="45.70098" lon="4.74098">
        <ele>316.524811</ele>
        <time>2016-09-25T06:34:57Z</time>
      </trkpt>
      <trkpt lat="45.701" lon="4.74088">
        <ele>316.699768</ele>
        <time>2016-09-25T06:34:59Z</time>
      </trkpt>
      <trkpt lat="45.70103" lon="4.74078">
        <ele>316.966461</ele>
        <time>2016-09-25T06:35:01Z</time>
      </trkpt>
      <trkpt lat="45.70107" lon="4.74068">
        <ele>317.314209</ele>
        <time>2016-09-25T06:35:03Z</time>
      </trkpt>
      <trkpt lat="45.70111" lon="4.74058">
        <ele>317.209625</ele>
        <time>2016-09-25T06:35:05Z</time>
      </trkpt>
      <trkpt lat="45.70115" lon="4.74047">
        <ele>317.362732</ele>
        <time>2016-09-25T06:35:07Z</time>
      </trkpt>
      <trkpt lat="45.70118" lon="4.74037">
        <ele>317.699707</ele>
        <time>2016-09-25T06:35:09Z</time>
      </trkpt>
      <trkpt lat="45.70122" lon="4.74027">
        <ele>317.940857</ele>
        <time>2016-09-25T06:35:11Z</time>
      </trkpt>
      <trkpt lat="45.70126" lon="4.74017">
        <ele>318.094666</ele>
        <time>2016-09-25T06:35:13Z</time>
      </trkpt>
      <trkpt lat="45.70129" lon="4.74007">
        <ele>318.187836</ele>
        <time>2016-09-25T06:35:15Z</time>
      </trkpt>
      <trkpt lat="45.70131" lon="4.73997">
        <ele>318.564941</ele>
        <time>2016-09-25T06:35:17Z</time>
      </trkpt>
      <trkpt lat="45.70134" lon="4.73987">
        <ele>318.73349</ele>
        <time>2016-09-25T06:35:19Z</time>
      </trkpt>
      <trkpt lat="45.70138" lon="4.73976">
        <ele>319.027161</ele>
        <time>2016-09-25T06:35:21Z</time>
      </trkpt>
      <trkpt lat="45.70143" lon="4.73959">
        <ele>319.278961</ele>
        <time>2016-09-25T06:35:24Z</time>
      </trkpt>
      <trkpt lat="45.70147" lon="4.73948">
        <ele>319.49118</ele>
        <time>2016-09-25T06:35:26Z</time>
      </trkpt>
      <trkpt lat="45.70152" lon="4.73936">
        <ele>319.668274</ele>
        <time>2016-09-25T06:35:28Z</time>
      </trkpt>
      <trkpt lat="45.70156" lon="4.73924">
        <ele>319.813416</ele>
        <time>2016-09-25T06:35:30Z</time>
      </trkpt>
      <trkpt lat="45.70161" lon="4.73912">
        <ele>320.026794</ele>
        <time>2016-09-25T06:35:32Z</time>
      </trkpt>
      <trkpt lat="45.70167" lon="4.73898">
        <ele>320.252991</ele>
        <time>2016-09-25T06:35:34Z</time>
      </trkpt>
      <trkpt lat="45.70173" lon="4.73885">
        <ele>320.494141</ele>
        <time>2016-09-25T06:35:36Z</time>
      </trkpt>
      <trkpt lat="45.70181" lon="4.73871">
        <ele>320.875671</ele>
        <time>2016-09-25T06:35:38Z</time>
      </trkpt>
      <trkpt lat="45.7019" lon="4.73859">
        <ele>320.961029</ele>
        <time>2016-09-25T06:35:40Z</time>
      </trkpt>
      <trkpt lat="45.70201" lon="4.7385">
        <ele>320.950378</ele>
        <time>2016-09-25T06:35:42Z</time>
      </trkpt>
      <trkpt lat="45.70213" lon="4.73843">
        <ele>321.197937</ele>
        <time>2016-09-25T06:35:44Z</time>
      </trkpt>
      <trkpt lat="45.70225" lon="4.73832">
        <ele>320.96106</ele>
        <time>2016-09-25T06:35:46Z</time>
      </trkpt>
      <trkpt lat="45.70231" lon="4.73816">
        <ele>320.918396</ele>
        <time>2016-09-25T06:35:48Z</time>
      </trkpt>
      <trkpt lat="45.70235" lon="4.73798">
        <ele>320.666687</ele>
        <time>2016-09-25T06:35:50Z</time>
      </trkpt>
      <trkpt lat="45.70239" lon="4.7378">
        <ele>320.423401</ele>
        <time>2016-09-25T06:35:52Z</time>
      </trkpt>
      <trkpt lat="45.70241" lon="4.73762">
        <ele>320.167358</ele>
        <time>2016-09-25T06:35:54Z</time>
      </trkpt>
      <trkpt lat="45.70244" lon="4.73743">
        <ele>319.8237</ele>
        <time>2016-09-25T06:35:56Z</time>
      </trkpt>
      <trkpt lat="45.70245" lon="4.73721">
        <ele>319.721283</ele>
        <time>2016-09-25T06:35:58Z</time>
      </trkpt>
      <trkpt lat="45.70246" lon="4.73699">
        <ele>319.447205</ele>
        <time>2016-09-25T06:36:00Z</time>
      </trkpt>
      <trkpt lat="45.70247" lon="4.73674">
        <ele>318.924469</ele>
        <time>2016-09-25T06:36:02Z</time>
      </trkpt>
      <trkpt lat="45.70249" lon="4.73647">
        <ele>318.267487</ele>
        <time>2016-09-25T06:36:04Z</time>
      </trkpt>
      <trkpt lat="45.70252" lon="4.7362">
        <ele>317.827942</ele>
        <time>2016-09-25T06:36:06Z</time>
      </trkpt>
      <trkpt lat="45.70257" lon="4.73594">
        <ele>317.117554</ele>
        <time>2016-09-25T06:36:08Z</time>
      </trkpt>
      <trkpt lat="45.70263" lon="4.73571">
        <ele>316.458588</ele>
        <time>2016-09-25T06:36:10Z</time>
      </trkpt>
      <trkpt lat="45.70269" lon="4.73552">
        <ele>315.91452</ele>
        <time>2016-09-25T06:36:12Z</time>
      </trkpt>
      <trkpt lat="45.70276" lon="4.73534">
        <ele>315.211853</ele>
        <time>2016-09-25T06:36:14Z</time>
      </trkpt>
      <trkpt lat="45.70284" lon="4.73516">
        <ele>314.747986</ele>
        <time>2016-09-25T06:36:16Z</time>
      </trkpt>
      <trkpt lat="45.70289" lon="4.73498">
        <ele>313.978302</ele>
        <time>2016-09-25T06:36:18Z</time>
      </trkpt>
      <trkpt lat="45.70293" lon="4.73478">
        <ele>313.399841</ele>
        <time>2016-09-25T06:36:20Z</time>
      </trkpt>
      <trkpt lat="45.70295" lon="4.73457">
        <ele>313.049896</ele>
        <time>2016-09-25T06:36:22Z</time>
      </trkpt>
      <trkpt lat="45.70295" lon="4.73436">
        <ele>312.188354</ele>
        <time>2016-09-25T06:36:24Z</time>
      </trkpt>
      <trkpt lat="45.70295" lon="4.73416">
        <ele>311.542145</ele>
        <time>2016-09-25T06:36:26Z</time>
      </trkpt>
      <trkpt lat="45.70295" lon="4.73395">
        <ele>311.328888</ele>
        <time>2016-09-25T06:36:28Z</time>
      </trkpt>
      <trkpt lat="45.70294" lon="4.73375">
        <ele>310.835968</ele>
        <time>2016-09-25T06:36:30Z</time>
      </trkpt>
      <trkpt lat="45.70294" lon="4.73355">
        <ele>310.354095</ele>
        <time>2016-09-25T06:36:32Z</time>
      </trkpt>
      <trkpt lat="45.70295" lon="4.73336">
        <ele>310.06192</ele>
        <time>2016-09-25T06:36:34Z</time>
      </trkpt>
      <trkpt lat="45.70297" lon="4.73317">
        <ele>309.614105</ele>
        <time>2016-09-25T06:36:36Z</time>
      </trkpt>
      <trkpt lat="45.70298" lon="4.73299">
        <ele>309.258118</ele>
        <time>2016-09-25T06:36:38Z</time>
      </trkpt>
      <trkpt lat="45.703" lon="4.7328">
        <ele>308.905701</ele>
        <time>2016-09-25T06:36:40Z</time>
      </trkpt>
      <trkpt lat="45.70301" lon="4.73262">
        <ele>308.651978</ele>
        <time>2016-09-25T06:36:42Z</time>
      </trkpt>
      <trkpt lat="45.70302" lon="4.73244">
        <ele>308.431244</ele>
        <time>2016-09-25T06:36:44Z</time>
      </trkpt>
      <trkpt lat="45.70304" lon="4.73225">
        <ele>308.258484</ele>
        <time>2016-09-25T06:36:46Z</time>
      </trkpt>
      <trkpt lat="45.70306" lon="4.73207">
        <ele>308.096436</ele>
        <time>2016-09-25T06:36:48Z</time>
      </trkpt>
      <trkpt lat="45.70308" lon="4.7319">
        <ele>308.220093</ele>
        <time>2016-09-25T06:36:50Z</time>
      </trkpt>
      <trkpt lat="45.70311" lon="4.73174">
        <ele>308.262726</ele>
        <time>2016-09-25T06:36:52Z</time>
      </trkpt>
      <trkpt lat="45.70314" lon="4.73157">
        <ele>308.193451</ele>
        <time>2016-09-25T06:36:54Z</time>
      </trkpt>
      <trkpt lat="45.70318" lon="4.73142">
        <ele>308.326569</ele>
        <time>2016-09-25T06:36:56Z</time>
      </trkpt>
      <trkpt lat="45.70321" lon="4.73126">
        <ele>308.220886</ele>
        <time>2016-09-25T06:36:58Z</time>
      </trkpt>
      <trkpt lat="45.70323" lon="4.73112">
        <ele>308.26001</ele>
        <time>2016-09-25T06:37:00Z</time>
      </trkpt>
      <trkpt lat="45.70327" lon="4.73098">
        <ele>308.29657</ele>
        <time>2016-09-25T06:37:02Z</time>
      </trkpt>
      <trkpt lat="45.70329" lon="4.73083">
        <ele>308.042816</ele>
        <time>2016-09-25T06:37:04Z</time>
      </trkpt>
      <trkpt lat="45.7033" lon="4.73067">
        <ele>308.146271</ele>
        <time>2016-09-25T06:37:06Z</time>
      </trkpt>
      <trkpt lat="45.70334" lon="4.73052">
        <ele>308.216644</ele>
        <time>2016-09-25T06:37:08Z</time>
      </trkpt>
      <trkpt lat="45.70338" lon="4.73036">
        <ele>308.415222</ele>
        <time>2016-09-25T06:37:10Z</time>
      </trkpt>
      <trkpt lat="45.70344" lon="4.73022">
        <ele>308.566589</ele>
        <time>2016-09-25T06:37:12Z</time>
      </trkpt>
      <trkpt lat="45.7035" lon="4.73008">
        <ele>308.633575</ele>
        <time>2016-09-25T06:37:14Z</time>
      </trkpt>
      <trkpt lat="45.70356" lon="4.72994">
        <ele>308.418274</ele>
        <time>2016-09-25T06:37:16Z</time>
      </trkpt>
      <trkpt lat="45.70362" lon="4.7298">
        <ele>308.695404</ele>
        <time>2016-09-25T06:37:18Z</time>
      </trkpt>
      <trkpt lat="45.70367" lon="4.72966">
        <ele>308.874451</ele>
        <time>2016-09-25T06:37:20Z</time>
      </trkpt>
      <trkpt lat="45.70373" lon="4.72951">
        <ele>308.942352</ele>
        <time>2016-09-25T06:37:22Z</time>
      </trkpt>
      <trkpt lat="45.7038" lon="4.72937">
        <ele>309.057739</ele>
        <time>2016-09-25T06:37:24Z</time>
      </trkpt>
      <trkpt lat="45.70387" lon="4.72922">
        <ele>309.026886</ele>
        <time>2016-09-25T06:37:26Z</time>
      </trkpt>
      <trkpt lat="45.70394" lon="4.72908">
        <ele>309.146271</ele>
        <time>2016-09-25T06:37:28Z</time>
      </trkpt>
      <trkpt lat="45.70401" lon="4.72894">
        <ele>309.156891</ele>
        <time>2016-09-25T06:37:30Z</time>
      </trkpt>
      <trkpt lat="45.70409" lon="4.72881">
        <ele>309.0737</ele>
        <time>2016-09-25T06:37:32Z</time>
      </trkpt>
      <trkpt lat="45.70416" lon="4.72867">
        <ele>309.174744</ele>
        <time>2016-09-25T06:37:34Z</time>
      </trkpt>
      <trkpt lat="45.70422" lon="4.72853">
        <ele>309.168152</ele>
        <time>2016-09-25T06:37:36Z</time>
      </trkpt>
      <trkpt lat="45.70429" lon="4.72838">
        <ele>309.143005</ele>
        <time>2016-09-25T06:37:38Z</time>
      </trkpt>
      <trkpt lat="45.70434" lon="4.72824">
        <ele>309.163544</ele>
        <time>2016-09-25T06:37:40Z</time>
      </trkpt>
      <trkpt lat="45.70438" lon="4.72809">
        <ele>309.30426</ele>
        <time>2016-09-25T06:37:42Z</time>
      </trkpt>
      <trkpt lat="45.70443" lon="4.72795">
        <ele>309.204041</ele>
        <time>2016-09-25T06:37:44Z</time>
      </trkpt>
      <trkpt lat="45.70451" lon="4.72788">
        <ele>309.248596</ele>
        <time>2016-09-25T06:37:46Z</time>
      </trkpt>
      <trkpt lat="45.7046" lon="4.72782">
        <ele>309.440399</ele>
        <time>2016-09-25T06:37:48Z</time>
      </trkpt>
      <trkpt lat="45.7047" lon="4.72775">
        <ele>309.655029</ele>
        <time>2016-09-25T06:37:50Z</time>
      </trkpt>
      <trkpt lat="45.7048" lon="4.7277">
        <ele>309.586609</ele>
        <time>2016-09-25T06:37:52Z</time>
      </trkpt>
      <trkpt lat="45.7049" lon="4.72765">
        <ele>309.612183</ele>
        <time>2016-09-25T06:37:54Z</time>
      </trkpt>
      <trkpt lat="45.70501" lon="4.7276">
        <ele>309.47699</ele>
        <time>2016-09-25T06:37:56Z</time>
      </trkpt>
      <trkpt lat="45.70512" lon="4.72756">
        <ele>309.656067</ele>
        <time>2016-09-25T06:37:58Z</time>
      </trkpt>
      <trkpt lat="45.70523" lon="4.72748">
        <ele>309.434357</ele>
        <time>2016-09-25T06:38:00Z</time>
      </trkpt>
      <trkpt lat="45.70533" lon="4.72738">
        <ele>309.334167</ele>
        <time>2016-09-25T06:38:02Z</time>
      </trkpt>
      <trkpt lat="45.70542" lon="4.72725">
        <ele>309.29364</ele>
        <time>2016-09-25T06:38:04Z</time>
      </trkpt>
      <trkpt lat="45.7055" lon="4.72711">
        <ele>309.425568</ele>
        <time>2016-09-25T06:38:06Z</time>
      </trkpt>
      <trkpt lat="45.70558" lon="4.72698">
        <ele>309.07608</ele>
        <time>2016-09-25T06:38:08Z</time>
      </trkpt>
      <trkpt lat="45.70565" lon="4.72684">
        <ele>309.255188</ele>
        <time>2016-09-25T06:38:10Z</time>
      </trkpt>
      <trkpt lat="45.70572" lon="4.72671">
        <ele>309.195557</ele>
        <time>2016-09-25T06:38:12Z</time>
      </trkpt>
      <trkpt lat="45.70579" lon="4.72657">
        <ele>309.123108</ele>
        <time>2016-09-25T06:38:14Z</time>
      </trkpt>
      <trkpt lat="45.70587" lon="4.72644">
        <ele>309.127625</ele>
        <time>2016-09-25T06:38:16Z</time>
      </trkpt>
      <trkpt lat="45.70594" lon="4.72632">
        <ele>309.170471</ele>
        <time>2016-09-25T06:38:18Z</time>
      </trkpt>
      <trkpt lat="45.706" lon="4.72621">
        <ele>309.506989</ele>
        <time>2016-09-25T06:38:20Z</time>
      </trkpt>
      <trkpt lat="45.70604" lon="4.72608">
        <ele>309.575195</ele>
        <time>2016-09-25T06:38:22Z</time>
      </trkpt>
      <trkpt lat="45.70611" lon="4.72595">
        <ele>309.225677</ele>
        <time>2016-09-25T06:38:24Z</time>
      </trkpt>
      <trkpt lat="45.70617" lon="4.72581">
        <ele>309.451721</ele>
        <time>2016-09-25T06:38:26Z</time>
      </trkpt>
      <trkpt lat="45.70623" lon="4.72568">
        <ele>309.052307</ele>
        <time>2016-09-25T06:38:28Z</time>
      </trkpt>
      <trkpt lat="45.70629" lon="4.72555">
        <ele>309.060455</ele>
        <time>2016-09-25T06:38:30Z</time>
      </trkpt>
      <trkpt lat="45.70635" lon="4.72542">
        <ele>309.024323</ele>
        <time>2016-09-25T06:38:32Z</time>
      </trkpt>
      <trkpt lat="45.70642" lon="4.72529">
        <ele>308.939056</ele>
        <time>2016-09-25T06:38:34Z</time>
      </trkpt>
      <trkpt lat="45.70648" lon="4.72515">
        <ele>308.723785</ele>
        <time>2016-09-25T06:38:36Z</time>
      </trkpt>
      <trkpt lat="45.70655" lon="4.72502">
        <ele>308.738678</ele>
        <time>2016-09-25T06:38:38Z</time>
      </trkpt>
      <trkpt lat="45.70661" lon="4.72488">
        <ele>308.817535</ele>
        <time>2016-09-25T06:38:40Z</time>
      </trkpt>
      <trkpt lat="45.70668" lon="4.72474">
        <ele>308.821838</ele>
        <time>2016-09-25T06:38:42Z</time>
      </trkpt>
      <trkpt lat="45.70674" lon="4.7246">
        <ele>308.939606</ele>
        <time>2016-09-25T06:38:44Z</time>
      </trkpt>
      <trkpt lat="45.70681" lon="4.72446">
        <ele>308.984375</ele>
        <time>2016-09-25T06:38:46Z</time>
      </trkpt>
      <trkpt lat="45.70688" lon="4.72434">
        <ele>309.105896</ele>
        <time>2016-09-25T06:38:48Z</time>
      </trkpt>
      <trkpt lat="45.70696" lon="4.72421">
        <ele>309.422699</ele>
        <time>2016-09-25T06:38:50Z</time>
      </trkpt>
      <trkpt lat="45.70702" lon="4.72408">
        <ele>309.256439</ele>
        <time>2016-09-25T06:38:52Z</time>
      </trkpt>
      <trkpt lat="45.7071" lon="4.72395">
        <ele>309.438171</ele>
        <time>2016-09-25T06:38:54Z</time>
      </trkpt>
      <trkpt lat="45.70717" lon="4.72382">
        <ele>309.604492</ele>
        <time>2016-09-25T06:38:56Z</time>
      </trkpt>
      <trkpt lat="45.70725" lon="4.72369">
        <ele>309.473328</ele>
        <time>2016-09-25T06:38:58Z</time>
      </trkpt>
      <trkpt lat="45.70732" lon="4.72357">
        <ele>309.320221</ele>
        <time>2016-09-25T06:39:00Z</time>
      </trkpt>
      <trkpt lat="45.7074" lon="4.72344">
        <ele>309.038788</ele>
        <time>2016-09-25T06:39:02Z</time>
      </trkpt>
      <trkpt lat="45.70747" lon="4.72331">
        <ele>309.230499</ele>
        <time>2016-09-25T06:39:04Z</time>
      </trkpt>
      <trkpt lat="45.70754" lon="4.72317">
        <ele>308.97464</ele>
        <time>2016-09-25T06:39:06Z</time>
      </trkpt>
      <trkpt lat="45.7076" lon="4.72303">
        <ele>308.991669</ele>
        <time>2016-09-25T06:39:08Z</time>
      </trkpt>
      <trkpt lat="45.70763" lon="4.72288">
        <ele>309.29538</ele>
        <time>2016-09-25T06:39:10Z</time>
      </trkpt>
      <trkpt lat="45.70766" lon="4.72273">
        <ele>309.365753</ele>
        <time>2016-09-25T06:39:12Z</time>
      </trkpt>
      <trkpt lat="45.70769" lon="4.72258">
        <ele>309.576843</ele>
        <time>2016-09-25T06:39:14Z</time>
      </trkpt>
      <trkpt lat="45.70773" lon="4.72242">
        <ele>309.576843</ele>
        <time>2016-09-25T06:39:16Z</time>
      </trkpt>
      <trkpt lat="45.70777" lon="4.72226">
        <ele>309.884552</ele>
        <time>2016-09-25T06:39:18Z</time>
      </trkpt>
      <trkpt lat="45.70779" lon="4.72211">
        <ele>310.321747</ele>
        <time>2016-09-25T06:39:20Z</time>
      </trkpt>
      <trkpt lat="45.70783" lon="4.72196">
        <ele>310.390015</ele>
        <time>2016-09-25T06:39:22Z</time>
      </trkpt>
      <trkpt lat="45.70786" lon="4.72181">
        <ele>310.36438</ele>
        <time>2016-09-25T06:39:24Z</time>
      </trkpt>
      <trkpt lat="45.7079" lon="4.72166">
        <ele>310.408081</ele>
        <time>2016-09-25T06:39:26Z</time>
      </trkpt>
      <trkpt lat="45.70795" lon="4.72152">
        <ele>310.331268</ele>
        <time>2016-09-25T06:39:28Z</time>
      </trkpt>
      <trkpt lat="45.708" lon="4.72139">
        <ele>310.521057</ele>
        <time>2016-09-25T06:39:30Z</time>
      </trkpt>
      <trkpt lat="45.70806" lon="4.72127">
        <ele>310.670197</ele>
        <time>2016-09-25T06:39:32Z</time>
      </trkpt>
      <trkpt lat="45.70812" lon="4.72114">
        <ele>310.642456</ele>
        <time>2016-09-25T06:39:34Z</time>
      </trkpt>
      <trkpt lat="45.70818" lon="4.72102">
        <ele>310.669647</ele>
        <time>2016-09-25T06:39:36Z</time>
      </trkpt>
      <trkpt lat="45.70823" lon="4.72089">
        <ele>310.83075</ele>
        <time>2016-09-25T06:39:38Z</time>
      </trkpt>
      <trkpt lat="45.70827" lon="4.72075">
        <ele>311.118164</ele>
        <time>2016-09-25T06:39:40Z</time>
      </trkpt>
      <trkpt lat="45.70832" lon="4.72063">
        <ele>311.209808</ele>
        <time>2016-09-25T06:39:42Z</time>
      </trkpt>
      <trkpt lat="45.70839" lon="4.72051">
        <ele>311.548859</ele>
        <time>2016-09-25T06:39:44Z</time>
      </trkpt>
      <trkpt lat="45.70845" lon="4.7204">
        <ele>311.909241</ele>
        <time>2016-09-25T06:39:46Z</time>
      </trkpt>
      <trkpt lat="45.70851" lon="4.72027">
        <ele>312.041443</ele>
        <time>2016-09-25T06:39:48Z</time>
      </trkpt>
      <trkpt lat="45.70857" lon="4.72016">
        <ele>312.236267</ele>
        <time>2016-09-25T06:39:50Z</time>
      </trkpt>
      <trkpt lat="45.70861" lon="4.72005">
        <ele>312.274658</ele>
        <time>2016-09-25T06:39:52Z</time>
      </trkpt>
      <trkpt lat="45.7086" lon="4.71994">
        <ele>312.355408</ele>
        <time>2016-09-25T06:39:54Z</time>
      </trkpt>
      <trkpt lat="45.70857" lon="4.71984">
        <ele>312.431549</ele>
        <time>2016-09-25T06:39:56Z</time>
      </trkpt>
      <trkpt lat="45.7085" lon="4.71973">
        <ele>312.535278</ele>
        <time>2016-09-25T06:39:58Z</time>
      </trkpt>
      <trkpt lat="45.70844" lon="4.71962">
        <ele>312.552307</ele>
        <time>2016-09-25T06:40:00Z</time>
      </trkpt>
      <trkpt lat="45.70838" lon="4.71951">
        <ele>312.707886</ele>
        <time>2016-09-25T06:40:02Z</time>
      </trkpt>
      <trkpt lat="45.70832" lon="4.7194">
        <ele>312.874207</ele>
        <time>2016-09-25T06:40:04Z</time>
      </trkpt>
      <trkpt lat="45.70825" lon="4.71929">
        <ele>313.021362</ele>
        <time>2016-09-25T06:40:06Z</time>
      </trkpt>
      <trkpt lat="45.70818" lon="4.71918">
        <ele>313.237335</ele>
        <time>2016-09-25T06:40:08Z</time>
      </trkpt>
      <trkpt lat="45.70811" lon="4.71907">
        <ele>313.343933</ele>
        <time>2016-09-25T06:40:10Z</time>
      </trkpt>
      <trkpt lat="45.70804" lon="4.71897">
        <ele>313.450592</ele>
        <time>2016-09-25T06:40:12Z</time>
      </trkpt>
      <trkpt lat="45.70796" lon="4.71886">
        <ele>313.643372</ele>
        <time>2016-09-25T06:40:14Z</time>
      </trkpt>
      <trkpt lat="45.70789" lon="4.71875">
        <ele>313.841705</ele>
        <time>2016-09-25T06:40:16Z</time>
      </trkpt>
      <trkpt lat="45.70782" lon="4.71865">
        <ele>313.997375</ele>
        <time>2016-09-25T06:40:18Z</time>
      </trkpt>
      <trkpt lat="45.70776" lon="4.71854">
        <ele>314.074158</ele>
        <time>2016-09-25T06:40:20Z</time>
      </trkpt>
      <trkpt lat="45.70769" lon="4.71844">
        <ele>314.07843</ele>
        <time>2016-09-25T06:40:22Z</time>
      </trkpt>
      <trkpt lat="45.70763" lon="4.71834">
        <ele>314.226624</ele>
        <time>2016-09-25T06:40:24Z</time>
      </trkpt>
      <trkpt lat="45.70757" lon="4.71823">
        <ele>314.297485</ele>
        <time>2016-09-25T06:40:26Z</time>
      </trkpt>
      <trkpt lat="45.70752" lon="4.71813">
        <ele>314.37851</ele>
        <time>2016-09-25T06:40:28Z</time>
      </trkpt>
      <trkpt lat="45.70746" lon="4.71802">
        <ele>314.455292</ele>
        <time>2016-09-25T06:40:30Z</time>
      </trkpt>
      <trkpt lat="45.70741" lon="4.71791">
        <ele>314.608124</ele>
        <time>2016-09-25T06:40:32Z</time>
      </trkpt>
      <trkpt lat="45.70736" lon="4.71779">
        <ele>314.866211</ele>
        <time>2016-09-25T06:40:34Z</time>
      </trkpt>
      <trkpt lat="45.70731" lon="4.71766">
        <ele>314.951813</ele>
        <time>2016-09-25T06:40:36Z</time>
      </trkpt>
      <trkpt lat="45.70728" lon="4.71754">
        <ele>315.074036</ele>
        <time>2016-09-25T06:40:38Z</time>
      </trkpt>
      <trkpt lat="45.70725" lon="4.7174">
        <ele>315.323608</ele>
        <time>2016-09-25T06:40:40Z</time>
      </trkpt>
      <trkpt lat="45.70725" lon="4.71725">
        <ele>315.583496</ele>
        <time>2016-09-25T06:40:42Z</time>
      </trkpt>
      <trkpt lat="45.70723" lon="4.71709">
        <ele>315.551483</ele>
        <time>2016-09-25T06:40:44Z</time>
      </trkpt>
      <trkpt lat="45.70722" lon="4.71693">
        <ele>315.679596</ele>
        <time>2016-09-25T06:40:46Z</time>
      </trkpt>
      <trkpt lat="45.70719" lon="4.71676">
        <ele>315.681732</ele>
        <time>2016-09-25T06:40:48Z</time>
      </trkpt>
      <trkpt lat="45.70715" lon="4.71659">
        <ele>315.671082</ele>
        <time>2016-09-25T06:40:50Z</time>
      </trkpt>
      <trkpt lat="45.70712" lon="4.71641">
        <ele>315.664673</ele>
        <time>2016-09-25T06:40:52Z</time>
      </trkpt>
      <trkpt lat="45.70709" lon="4.71623">
        <ele>315.843872</ele>
        <time>2016-09-25T06:40:54Z</time>
      </trkpt>
      <trkpt lat="45.70706" lon="4.71604">
        <ele>315.875885</ele>
        <time>2016-09-25T06:40:56Z</time>
      </trkpt>
      <trkpt lat="45.70704" lon="4.71586">
        <ele>315.927307</ele>
        <time>2016-09-25T06:40:58Z</time>
      </trkpt>
      <trkpt lat="45.70702" lon="4.71567">
        <ele>315.886078</ele>
        <time>2016-09-25T06:41:00Z</time>
      </trkpt>
      <trkpt lat="45.70699" lon="4.71548">
        <ele>315.879761</ele>
        <time>2016-09-25T06:41:02Z</time>
      </trkpt>
      <trkpt lat="45.70696" lon="4.71532">
        <ele>316.085907</ele>
        <time>2016-09-25T06:41:04Z</time>
      </trkpt>
      <trkpt lat="45.70692" lon="4.71517">
        <ele>316.191498</ele>
        <time>2016-09-25T06:41:06Z</time>
      </trkpt>
      <trkpt lat="45.70689" lon="4.71503">
        <ele>315.830963</ele>
        <time>2016-09-25T06:41:08Z</time>
      </trkpt>
      <trkpt lat="45.70685" lon="4.71489">
        <ele>315.997314</ele>
        <time>2016-09-25T06:41:10Z</time>
      </trkpt>
      <trkpt lat="45.70681" lon="4.71475">
        <ele>316.061279</ele>
        <time>2016-09-25T06:41:12Z</time>
      </trkpt>
      <trkpt lat="45.70678" lon="4.71461">
        <ele>316.049255</ele>
        <time>2016-09-25T06:41:14Z</time>
      </trkpt>
      <trkpt lat="45.70675" lon="4.71446">
        <ele>316.079163</ele>
        <time>2016-09-25T06:41:16Z</time>
      </trkpt>
      <trkpt lat="45.70671" lon="4.71432">
        <ele>316.416321</ele>
        <time>2016-09-25T06:41:18Z</time>
      </trkpt>
      <trkpt lat="45.70668" lon="4.71416">
        <ele>316.422699</ele>
        <time>2016-09-25T06:41:20Z</time>
      </trkpt>
      <trkpt lat="45.70665" lon="4.71398">
        <ele>316.08197</ele>
        <time>2016-09-25T06:41:22Z</time>
      </trkpt>
      <trkpt lat="45.7066" lon="4.7138">
        <ele>315.939026</ele>
        <time>2016-09-25T06:41:24Z</time>
      </trkpt>
      <trkpt lat="45.70654" lon="4.71362">
        <ele>315.883606</ele>
        <time>2016-09-25T06:41:26Z</time>
      </trkpt>
      <trkpt lat="45.70647" lon="4.71345">
        <ele>315.606262</ele>
        <time>2016-09-25T06:41:28Z</time>
      </trkpt>
      <trkpt lat="45.70639" lon="4.71327">
        <ele>315.384338</ele>
        <time>2016-09-25T06:41:30Z</time>
      </trkpt>
      <trkpt lat="45.70631" lon="4.7131">
        <ele>315.297028</ele>
        <time>2016-09-25T06:41:32Z</time>
      </trkpt>
      <trkpt lat="45.70623" lon="4.71293">
        <ele>315.266541</ele>
        <time>2016-09-25T06:41:34Z</time>
      </trkpt>
      <trkpt lat="45.70615" lon="4.71275">
        <ele>314.973969</ele>
        <time>2016-09-25T06:41:36Z</time>
      </trkpt>
      <trkpt lat="45.70607" lon="4.71257">
        <ele>314.935547</ele>
        <time>2016-09-25T06:41:38Z</time>
      </trkpt>
      <trkpt lat="45.70599" lon="4.71239">
        <ele>314.794525</ele>
        <time>2016-09-25T06:41:40Z</time>
      </trkpt>
      <trkpt lat="45.70591" lon="4.71222">
        <ele>314.430664</ele>
        <time>2016-09-25T06:41:42Z</time>
      </trkpt>
      <trkpt lat="45.70582" lon="4.71205">
        <ele>313.996246</ele>
        <time>2016-09-25T06:41:44Z</time>
      </trkpt>
      <trkpt lat="45.70574" lon="4.71188">
        <ele>313.220001</ele>
        <time>2016-09-25T06:41:46Z</time>
      </trkpt>
      <trkpt lat="45.70566" lon="4.71171">
        <ele>313.079407</ele>
        <time>2016-09-25T06:41:48Z</time>
      </trkpt>
      <trkpt lat="45.70559" lon="4.71154">
        <ele>312.961914</ele>
        <time>2016-09-25T06:41:50Z</time>
      </trkpt>
      <trkpt lat="45.70553" lon="4.71138">
        <ele>312.476654</ele>
        <time>2016-09-25T06:41:52Z</time>
      </trkpt>
      <trkpt lat="45.70552" lon="4.71119">
        <ele>312.09491</ele>
        <time>2016-09-25T06:41:54Z</time>
      </trkpt>
      <trkpt lat="45.7055" lon="4.711">
        <ele>311.684631</ele>
        <time>2016-09-25T06:41:56Z</time>
      </trkpt>
      <trkpt lat="45.70547" lon="4.7108">
        <ele>311.162048</ele>
        <time>2016-09-25T06:41:58Z</time>
      </trkpt>
      <trkpt lat="45.70544" lon="4.71061">
        <ele>310.247131</ele>
        <time>2016-09-25T06:42:00Z</time>
      </trkpt>
      <trkpt lat="45.70542" lon="4.71042">
        <ele>309.724609</ele>
        <time>2016-09-25T06:42:02Z</time>
      </trkpt>
      <trkpt lat="45.70542" lon="4.71024">
        <ele>309.529541</ele>
        <time>2016-09-25T06:42:04Z</time>
      </trkpt>
      <trkpt lat="45.70543" lon="4.71004">
        <ele>309.331207</ele>
        <time>2016-09-25T06:42:06Z</time>
      </trkpt>
      <trkpt lat="45.70545" lon="4.70983">
        <ele>309.550842</ele>
        <time>2016-09-25T06:42:08Z</time>
      </trkpt>
      <trkpt lat="45.70547" lon="4.70963">
        <ele>309.156464</ele>
        <time>2016-09-25T06:42:10Z</time>
      </trkpt>
      <trkpt lat="45.7055" lon="4.70943">
        <ele>308.885773</ele>
        <time>2016-09-25T06:42:12Z</time>
      </trkpt>
      <trkpt lat="45.70554" lon="4.70924">
        <ele>308.629456</ele>
        <time>2016-09-25T06:42:14Z</time>
      </trkpt>
      <trkpt lat="45.70559" lon="4.70906">
        <ele>308.478699</ele>
        <time>2016-09-25T06:42:16Z</time>
      </trkpt>
      <trkpt lat="45.70566" lon="4.7089">
        <ele>308.2052</ele>
        <time>2016-09-25T06:42:18Z</time>
      </trkpt>
      <trkpt lat="45.70575" lon="4.70876">
        <ele>307.855499</ele>
        <time>2016-09-25T06:42:20Z</time>
      </trkpt>
      <trkpt lat="45.70585" lon="4.70863">
        <ele>307.633789</ele>
        <time>2016-09-25T06:42:22Z</time>
      </trkpt>
      <trkpt lat="45.70594" lon="4.70849">
        <ele>307.832001</ele>
        <time>2016-09-25T06:42:24Z</time>
      </trkpt>
      <trkpt lat="45.70602" lon="4.70837">
        <ele>307.832153</ele>
        <time>2016-09-25T06:42:26Z</time>
      </trkpt>
      <trkpt lat="45.70611" lon="4.70824">
        <ele>307.987701</ele>
        <time>2016-09-25T06:42:28Z</time>
      </trkpt>
      <trkpt lat="45.7062" lon="4.70811">
        <ele>308.053528</ele>
        <time>2016-09-25T06:42:30Z</time>
      </trkpt>
      <trkpt lat="45.70629" lon="4.70799">
        <ele>308.013794</ele>
        <time>2016-09-25T06:42:32Z</time>
      </trkpt>
      <trkpt lat="45.70638" lon="4.70787">
        <ele>308.064941</ele>
        <time>2016-09-25T06:42:34Z</time>
      </trkpt>
      <trkpt lat="45.70646" lon="4.70774">
        <ele>308.096924</ele>
        <time>2016-09-25T06:42:36Z</time>
      </trkpt>
      <trkpt lat="45.70654" lon="4.70763">
        <ele>308.135437</ele>
        <time>2016-09-25T06:42:38Z</time>
      </trkpt>
      <trkpt lat="45.70663" lon="4.70751">
        <ele>308.531891</ele>
        <time>2016-09-25T06:42:40Z</time>
      </trkpt>
      <trkpt lat="45.7067" lon="4.7074">
        <ele>308.638489</ele>
        <time>2016-09-25T06:42:42Z</time>
      </trkpt>
      <trkpt lat="45.70678" lon="4.70728">
        <ele>308.759979</ele>
        <time>2016-09-25T06:42:44Z</time>
      </trkpt>
      <trkpt lat="45.70686" lon="4.70717">
        <ele>309.089294</ele>
        <time>2016-09-25T06:42:46Z</time>
      </trkpt>
      <trkpt lat="45.70694" lon="4.70705">
        <ele>309.184937</ele>
        <time>2016-09-25T06:42:48Z</time>
      </trkpt>
      <trkpt lat="45.70702" lon="4.70694">
        <ele>308.927917</ele>
        <time>2016-09-25T06:42:50Z</time>
      </trkpt>
      <trkpt lat="45.70709" lon="4.70682">
        <ele>309.303162</ele>
        <time>2016-09-25T06:42:52Z</time>
      </trkpt>
      <trkpt lat="45.70717" lon="4.7067">
        <ele>309.673828</ele>
        <time>2016-09-25T06:42:54Z</time>
      </trkpt>
      <trkpt lat="45.70723" lon="4.70658">
        <ele>310.019592</ele>
        <time>2016-09-25T06:42:56Z</time>
      </trkpt>
      <trkpt lat="45.70731" lon="4.70646">
        <ele>310.353271</ele>
        <time>2016-09-25T06:42:58Z</time>
      </trkpt>
      <trkpt lat="45.70738" lon="4.70633">
        <ele>310.89093</ele>
        <time>2016-09-25T06:43:00Z</time>
      </trkpt>
      <trkpt lat="45.70744" lon="4.70622">
        <ele>311.28537</ele>
        <time>2016-09-25T06:43:02Z</time>
      </trkpt>
      <trkpt lat="45.70751" lon="4.7061">
        <ele>311.688446</ele>
        <time>2016-09-25T06:43:04Z</time>
      </trkpt>
      <trkpt lat="45.70757" lon="4.70599">
        <ele>312.078705</ele>
        <time>2016-09-25T06:43:06Z</time>
      </trkpt>
      <trkpt lat="45.70763" lon="4.70588">
        <ele>312.428436</ele>
        <time>2016-09-25T06:43:08Z</time>
      </trkpt>
      <trkpt lat="45.7077" lon="4.70577">
        <ele>312.965942</ele>
        <time>2016-09-25T06:43:10Z</time>
      </trkpt>
      <trkpt lat="45.70775" lon="4.70565">
        <ele>313.223999</ele>
        <time>2016-09-25T06:43:12Z</time>
      </trkpt>
      <trkpt lat="45.70779" lon="4.70554">
        <ele>313.665863</ele>
        <time>2016-09-25T06:43:14Z</time>
      </trkpt>
      <trkpt lat="45.70784" lon="4.70541">
        <ele>314.16922</ele>
        <time>2016-09-25T06:43:16Z</time>
      </trkpt>
      <trkpt lat="45.70788" lon="4.70528">
        <ele>314.615021</ele>
        <time>2016-09-25T06:43:18Z</time>
      </trkpt>
      <trkpt lat="45.70792" lon="4.70515">
        <ele>315.028992</ele>
        <time>2016-09-25T06:43:20Z</time>
      </trkpt>
      <trkpt lat="45.70796" lon="4.705">
        <ele>315.291321</ele>
        <time>2016-09-25T06:43:22Z</time>
      </trkpt>
      <trkpt lat="45.70799" lon="4.70486">
        <ele>315.613373</ele>
        <time>2016-09-25T06:43:24Z</time>
      </trkpt>
      <trkpt lat="45.70802" lon="4.70472">
        <ele>315.901306</ele>
        <time>2016-09-25T06:43:26Z</time>
      </trkpt>
      <trkpt lat="45.70804" lon="4.70458">
        <ele>316.097839</ele>
        <time>2016-09-25T06:43:28Z</time>
      </trkpt>
      <trkpt lat="45.70805" lon="4.70444">
        <ele>316.369751</ele>
        <time>2016-09-25T06:43:30Z</time>
      </trkpt>
      <trkpt lat="45.70808" lon="4.70431">
        <ele>316.615906</ele>
        <time>2016-09-25T06:43:32Z</time>
      </trkpt>
      <trkpt lat="45.7081" lon="4.70419">
        <ele>316.799377</ele>
        <time>2016-09-25T06:43:34Z</time>
      </trkpt>
      <trkpt lat="45.70811" lon="4.70406">
        <ele>317.054993</ele>
        <time>2016-09-25T06:43:36Z</time>
      </trkpt>
      <trkpt lat="45.70812" lon="4.70393">
        <ele>317.069885</ele>
        <time>2016-09-25T06:43:38Z</time>
      </trkpt>
      <trkpt lat="45.70815" lon="4.70379">
        <ele>317.112213</ele>
        <time>2016-09-25T06:43:40Z</time>
      </trkpt>
      <trkpt lat="45.70821" lon="4.70366">
        <ele>317.029022</ele>
        <time>2016-09-25T06:43:42Z</time>
      </trkpt>
      <trkpt lat="45.70827" lon="4.70352">
        <ele>317.288422</ele>
        <time>2016-09-25T06:43:44Z</time>
      </trkpt>
      <trkpt lat="45.70833" lon="4.70338">
        <ele>317.085785</ele>
        <time>2016-09-25T06:43:46Z</time>
      </trkpt>
      <trkpt lat="45.70839" lon="4.70322">
        <ele>317.032471</ele>
        <time>2016-09-25T06:43:48Z</time>
      </trkpt>
      <trkpt lat="45.70844" lon="4.70306">
        <ele>316.87851</ele>
        <time>2016-09-25T06:43:50Z</time>
      </trkpt>
      <trkpt lat="45.7085" lon="4.7029">
        <ele>316.68222</ele>
        <time>2016-09-25T06:43:52Z</time>
      </trkpt>
      <trkpt lat="45.70855" lon="4.70273">
        <ele>316.56488</ele>
        <time>2016-09-25T06:43:54Z</time>
      </trkpt>
      <trkpt lat="45.70861" lon="4.70255">
        <ele>316.217224</ele>
        <time>2016-09-25T06:43:56Z</time>
      </trkpt>
      <trkpt lat="45.70865" lon="4.70238">
        <ele>315.954773</ele>
        <time>2016-09-25T06:43:58Z</time>
      </trkpt>
      <trkpt lat="45.70869" lon="4.70222">
        <ele>315.734863</ele>
        <time>2016-09-25T06:44:00Z</time>
      </trkpt>
      <trkpt lat="45.70872" lon="4.70208">
        <ele>315.553528</ele>
        <time>2016-09-25T06:44:02Z</time>
      </trkpt>
      <trkpt lat="45.70873" lon="4.70193">
        <ele>315.485291</ele>
        <time>2016-09-25T06:44:04Z</time>
      </trkpt>
      <trkpt lat="45.70873" lon="4.70177">
        <ele>315.197357</ele>
        <time>2016-09-25T06:44:06Z</time>
      </trkpt>
      <trkpt lat="45.7087" lon="4.70159">
        <ele>314.969177</ele>
        <time>2016-09-25T06:44:08Z</time>
      </trkpt>
      <trkpt lat="45.70869" lon="4.70141">
        <ele>314.928619</ele>
        <time>2016-09-25T06:44:10Z</time>
      </trkpt>
      <trkpt lat="45.70867" lon="4.70122">
        <ele>314.879547</ele>
        <time>2016-09-25T06:44:12Z</time>
      </trkpt>
      <trkpt lat="45.70866" lon="4.70103">
        <ele>314.736023</ele>
        <time>2016-09-25T06:44:14Z</time>
      </trkpt>
      <trkpt lat="45.70865" lon="4.70083">
        <ele>314.475769</ele>
        <time>2016-09-25T06:44:16Z</time>
      </trkpt>
      <trkpt lat="45.70863" lon="4.70064">
        <ele>314.455078</ele>
        <time>2016-09-25T06:44:18Z</time>
      </trkpt>
      <trkpt lat="45.70861" lon="4.70045">
        <ele>314.319885</ele>
        <time>2016-09-25T06:44:20Z</time>
      </trkpt>
      <trkpt lat="45.7086" lon="4.70026">
        <ele>314.258728</ele>
        <time>2016-09-25T06:44:22Z</time>
      </trkpt>
      <trkpt lat="45.70859" lon="4.70007">
        <ele>314.199921</ele>
        <time>2016-09-25T06:44:24Z</time>
      </trkpt>
      <trkpt lat="45.70857" lon="4.6999">
        <ele>313.877747</ele>
        <time>2016-09-25T06:44:26Z</time>
      </trkpt>
      <trkpt lat="45.70856" lon="4.69973">
        <ele>313.943817</ele>
        <time>2016-09-25T06:44:28Z</time>
      </trkpt>
      <trkpt lat="45.70855" lon="4.69955">
        <ele>313.997131</ele>
        <time>2016-09-25T06:44:30Z</time>
      </trkpt>
      <trkpt lat="45.70853" lon="4.69937">
        <ele>314.065765</ele>
        <time>2016-09-25T06:44:32Z</time>
      </trkpt>
      <trkpt lat="45.70852" lon="4.69919">
        <ele>313.986877</ele>
        <time>2016-09-25T06:44:34Z</time>
      </trkpt>
      <trkpt lat="45.7085" lon="4.69901">
        <ele>313.950623</ele>
        <time>2016-09-25T06:44:36Z</time>
      </trkpt>
      <trkpt lat="45.70848" lon="4.69882">
        <ele>314.176239</ele>
        <time>2016-09-25T06:44:38Z</time>
      </trkpt>
      <trkpt lat="45.70847" lon="4.69863">
        <ele>314.08667</ele>
        <time>2016-09-25T06:44:40Z</time>
      </trkpt>
      <trkpt lat="45.70846" lon="4.69845">
        <ele>314.121399</ele>
        <time>2016-09-25T06:44:42Z</time>
      </trkpt>
      <trkpt lat="45.70846" lon="4.69826">
        <ele>314.306946</ele>
        <time>2016-09-25T06:44:44Z</time>
      </trkpt>
      <trkpt lat="45.70847" lon="4.69808">
        <ele>314.503113</ele>
        <time>2016-09-25T06:44:46Z</time>
      </trkpt>
      <trkpt lat="45.70847" lon="4.6979">
        <ele>314.43277</ele>
        <time>2016-09-25T06:44:48Z</time>
      </trkpt>
      <trkpt lat="45.70847" lon="4.69772">
        <ele>314.370911</ele>
        <time>2016-09-25T06:44:50Z</time>
      </trkpt>
      <trkpt lat="45.70847" lon="4.69752">
        <ele>314.334656</ele>
        <time>2016-09-25T06:44:52Z</time>
      </trkpt>
      <trkpt lat="45.70847" lon="4.69733">
        <ele>313.929352</ele>
        <time>2016-09-25T06:44:54Z</time>
      </trkpt>
      <trkpt lat="45.70847" lon="4.69712">
        <ele>313.645752</ele>
        <time>2016-09-25T06:44:56Z</time>
      </trkpt>
      <trkpt lat="45.70845" lon="4.69688">
        <ele>313.639313</ele>
        <time>2016-09-25T06:44:58Z</time>
      </trkpt>
      <trkpt lat="45.70842" lon="4.69664">
        <ele>313.447418</ele>
        <time>2016-09-25T06:45:00Z</time>
      </trkpt>
      <trkpt lat="45.70837" lon="4.6964">
        <ele>313.433624</ele>
        <time>2016-09-25T06:45:02Z</time>
      </trkpt>
      <trkpt lat="45.70833" lon="4.69617">
        <ele>313.294312</ele>
        <time>2016-09-25T06:45:04Z</time>
      </trkpt>
      <trkpt lat="45.70829" lon="4.69593">
        <ele>313.042664</ele>
        <time>2016-09-25T06:45:06Z</time>
      </trkpt>
      <trkpt lat="45.70827" lon="4.69568">
        <ele>312.860291</ele>
        <time>2016-09-25T06:45:08Z</time>
      </trkpt>
      <trkpt lat="45.70826" lon="4.69541">
        <ele>312.450867</ele>
        <time>2016-09-25T06:45:10Z</time>
      </trkpt>
      <trkpt lat="45.70825" lon="4.69513">
        <ele>312.141724</ele>
        <time>2016-09-25T06:45:12Z</time>
      </trkpt>
      <trkpt lat="45.70824" lon="4.69484">
        <ele>311.784485</ele>
        <time>2016-09-25T06:45:14Z</time>
      </trkpt>
      <trkpt lat="45.70824" lon="4.69455">
        <ele>311.337036</ele>
        <time>2016-09-25T06:45:16Z</time>
      </trkpt>
      <trkpt lat="45.70823" lon="4.69425">
        <ele>310.634064</ele>
        <time>2016-09-25T06:45:18Z</time>
      </trkpt>
      <trkpt lat="45.70822" lon="4.69394">
        <ele>309.934937</ele>
        <time>2016-09-25T06:45:20Z</time>
      </trkpt>
      <trkpt lat="45.70821" lon="4.69364">
        <ele>309.552216</ele>
        <time>2016-09-25T06:45:22Z</time>
      </trkpt>
      <trkpt lat="45.7082" lon="4.69334">
        <ele>308.775696</ele>
        <time>2016-09-25T06:45:24Z</time>
      </trkpt>
      <trkpt lat="45.7082" lon="4.69306">
        <ele>308.244812</ele>
        <time>2016-09-25T06:45:26Z</time>
      </trkpt>
      <trkpt lat="45.70819" lon="4.69279">
        <ele>307.794495</ele>
        <time>2016-09-25T06:45:28Z</time>
      </trkpt>
      <trkpt lat="45.70818" lon="4.69252">
        <ele>307.236176</ele>
        <time>2016-09-25T06:45:30Z</time>
      </trkpt>
      <trkpt lat="45.70817" lon="4.69225">
        <ele>306.980438</ele>
        <time>2016-09-25T06:45:32Z</time>
      </trkpt>
      <trkpt lat="45.70815" lon="4.69199">
        <ele>306.051361</ele>
        <time>2016-09-25T06:45:34Z</time>
      </trkpt>
      <trkpt lat="45.70813" lon="4.69172">
        <ele>305.663574</ele>
        <time>2016-09-25T06:45:36Z</time>
      </trkpt>
      <trkpt lat="45.70809" lon="4.69147">
        <ele>305.184143</ele>
        <time>2016-09-25T06:45:38Z</time>
      </trkpt>
      <trkpt lat="45.70801" lon="4.69126">
        <ele>304.472137</ele>
        <time>2016-09-25T06:45:40Z</time>
      </trkpt>
      <trkpt lat="45.70791" lon="4.69108">
        <ele>303.805267</ele>
        <time>2016-09-25T06:45:42Z</time>
      </trkpt>
      <trkpt lat="45.70791" lon="4.69086">
        <ele>303.090881</ele>
        <time>2016-09-25T06:45:44Z</time>
      </trkpt>
      <trkpt lat="45.70789" lon="4.69065">
        <ele>302.743561</ele>
        <time>2016-09-25T06:45:46Z</time>
      </trkpt>
      <trkpt lat="45.70779" lon="4.6905">
        <ele>302.237457</ele>
        <time>2016-09-25T06:45:48Z</time>
      </trkpt>
      <trkpt lat="45.70767" lon="4.69042">
        <ele>301.860809</ele>
        <time>2016-09-25T06:45:50Z</time>
      </trkpt>
      <trkpt lat="45.70757" lon="4.69031">
        <ele>301.562561</ele>
        <time>2016-09-25T06:45:52Z</time>
      </trkpt>
      <trkpt lat="45.70749" lon="4.69018">
        <ele>301.108673</ele>
        <time>2016-09-25T06:45:54Z</time>
      </trkpt>
      <trkpt lat="45.70749" lon="4.69002">
        <ele>301.090607</ele>
        <time>2016-09-25T06:45:56Z</time>
      </trkpt>
      <trkpt lat="45.70746" lon="4.68986">
        <ele>300.664276</ele>
        <time>2016-09-25T06:45:58Z</time>
      </trkpt>
      <trkpt lat="45.7074" lon="4.68971">
        <ele>300.841125</ele>
        <time>2016-09-25T06:46:00Z</time>
      </trkpt>
      <trkpt lat="45.70735" lon="4.68958">
        <ele>300.570007</ele>
        <time>2016-09-25T06:46:02Z</time>
      </trkpt>
      <trkpt lat="45.70731" lon="4.68945">
        <ele>300.106812</ele>
        <time>2016-09-25T06:46:04Z</time>
      </trkpt>
      <trkpt lat="45.70727" lon="4.68932">
        <ele>300.202667</ele>
        <time>2016-09-25T06:46:06Z</time>
      </trkpt>
      <trkpt lat="45.70725" lon="4.68919">
        <ele>299.746796</ele>
        <time>2016-09-25T06:46:08Z</time>
      </trkpt>
      <trkpt lat="45.7072" lon="4.68907">
        <ele>299.351013</ele>
        <time>2016-09-25T06:46:10Z</time>
      </trkpt>
      <trkpt lat="45.70716" lon="4.68895">
        <ele>299.333801</ele>
        <time>2016-09-25T06:46:12Z</time>
      </trkpt>
      <trkpt lat="45.70711" lon="4.68883">
        <ele>299.444519</ele>
        <time>2016-09-25T06:46:14Z</time>
      </trkpt>
      <trkpt lat="45.70706" lon="4.68871">
        <ele>299.425323</ele>
        <time>2016-09-25T06:46:16Z</time>
      </trkpt>
      <trkpt lat="45.70701" lon="4.6886">
        <ele>299.648956</ele>
        <time>2016-09-25T06:46:18Z</time>
      </trkpt>
      <trkpt lat="45.70696" lon="4.68848">
        <ele>299.71286</ele>
        <time>2016-09-25T06:46:20Z</time>
      </trkpt>
      <trkpt lat="45.70693" lon="4.68838">
        <ele>299.915253</ele>
        <time>2016-09-25T06:46:22Z</time>
      </trkpt>
      <trkpt lat="45.70689" lon="4.68829">
        <ele>300.230499</ele>
        <time>2016-09-25T06:46:24Z</time>
      </trkpt>
      <trkpt lat="45.70686" lon="4.68819">
        <ele>300.151672</ele>
        <time>2016-09-25T06:46:26Z</time>
      </trkpt>
      <trkpt lat="45.70683" lon="4.68806">
        <ele>300.17511</ele>
        <time>2016-09-25T06:46:28Z</time>
      </trkpt>
      <trkpt lat="45.70679" lon="4.68793">
        <ele>300.300293</ele>
        <time>2016-09-25T06:46:30Z</time>
      </trkpt>
      <trkpt lat="45.70675" lon="4.6878">
        <ele>300.317322</ele>
        <time>2016-09-25T06:46:32Z</time>
      </trkpt>
      <trkpt lat="45.70672" lon="4.68766">
        <ele>300.400391</ele>
        <time>2016-09-25T06:46:34Z</time>
      </trkpt>
      <trkpt lat="45.70669" lon="4.68754">
        <ele>300.517395</ele>
        <time>2016-09-25T06:46:36Z</time>
      </trkpt>
      <trkpt lat="45.70667" lon="4.68748">
        <ele>300.768494</ele>
        <time>2016-09-25T06:46:42Z</time>
      </trkpt>
      <trkpt lat="45.70665" lon="4.68743">
        <ele>301.327209</ele>
        <time>2016-09-25T06:46:48Z</time>
      </trkpt>
      <trkpt lat="45.70665" lon="4.6874">
        <ele>301.86615</ele>
        <time>2016-09-25T06:46:52Z</time>
      </trkpt>
      <trkpt lat="45.70663" lon="4.68735">
        <ele>302.006744</ele>
        <time>2016-09-25T06:46:54Z</time>
      </trkpt>
      <trkpt lat="45.7066" lon="4.68728">
        <ele>302.243225</ele>
        <time>2016-09-25T06:46:56Z</time>
      </trkpt>
      <trkpt lat="45.70656" lon="4.6872">
        <ele>302.243225</ele>
        <time>2016-09-25T06:46:58Z</time>
      </trkpt>
      <trkpt lat="45.70653" lon="4.68711">
        <ele>302.30719</ele>
        <time>2016-09-25T06:47:00Z</time>
      </trkpt>
      <trkpt lat="45.70649" lon="4.68702">
        <ele>302.258179</ele>
        <time>2016-09-25T06:47:02Z</time>
      </trkpt>
      <trkpt lat="45.70645" lon="4.68693">
        <ele>302.243286</ele>
        <time>2016-09-25T06:47:04Z</time>
      </trkpt>
      <trkpt lat="45.70641" lon="4.68685">
        <ele>302.243256</ele>
        <time>2016-09-25T06:47:06Z</time>
      </trkpt>
      <trkpt lat="45.70638" lon="4.68677">
        <ele>302.377472</ele>
        <time>2016-09-25T06:47:08Z</time>
      </trkpt>
      <trkpt lat="45.70635" lon="4.68669">
        <ele>302.424316</ele>
        <time>2016-09-25T06:47:10Z</time>
      </trkpt>
      <trkpt lat="45.70631" lon="4.68661">
        <ele>302.50528</ele>
        <time>2016-09-25T06:47:12Z</time>
      </trkpt>
      <trkpt lat="45.70628" lon="4.68655">
        <ele>302.820618</ele>
        <time>2016-09-25T06:47:14Z</time>
      </trkpt>
      <trkpt lat="45.70625" lon="4.68649">
        <ele>302.899628</ele>
        <time>2016-09-25T06:47:16Z</time>
      </trkpt>
      <trkpt lat="45.70623" lon="4.68644">
        <ele>303.092346</ele>
        <time>2016-09-25T06:47:22Z</time>
      </trkpt>
      <trkpt lat="45.70621" lon="4.68641">
        <ele>303.220184</ele>
        <time>2016-09-25T06:47:24Z</time>
      </trkpt>
      <trkpt lat="45.70619" lon="4.68637">
        <ele>303.296906</ele>
        <time>2016-09-25T06:47:26Z</time>
      </trkpt>
      <trkpt lat="45.70617" lon="4.68633">
        <ele>303.418365</ele>
        <time>2016-09-25T06:47:28Z</time>
      </trkpt>
      <trkpt lat="45.70614" lon="4.68629">
        <ele>303.559021</ele>
        <time>2016-09-25T06:47:30Z</time>
      </trkpt>
      <trkpt lat="45.7061" lon="4.68624">
        <ele>303.693298</ele>
        <time>2016-09-25T06:47:32Z</time>
      </trkpt>
      <trkpt lat="45.70607" lon="4.68619">
        <ele>303.75293</ele>
        <time>2016-09-25T06:47:34Z</time>
      </trkpt>
      <trkpt lat="45.70605" lon="4.68614">
        <ele>303.908813</ele>
        <time>2016-09-25T06:47:36Z</time>
      </trkpt>
      <trkpt lat="45.70603" lon="4.68609">
        <ele>304.15387</ele>
        <time>2016-09-25T06:47:38Z</time>
      </trkpt>
      <trkpt lat="45.70601" lon="4.68604">
        <ele>304.460663</ele>
        <time>2016-09-25T06:47:40Z</time>
      </trkpt>
      <trkpt lat="45.70602" lon="4.68598">
        <ele>304.756836</ele>
        <time>2016-09-25T06:47:42Z</time>
      </trkpt>
      <trkpt lat="45.70604" lon="4.68594">
        <ele>304.955017</ele>
        <time>2016-09-25T06:47:44Z</time>
      </trkpt>
      <trkpt lat="45.70606" lon="4.68589">
        <ele>305.136169</ele>
        <time>2016-09-25T06:47:46Z</time>
      </trkpt>
      <trkpt lat="45.70609" lon="4.68584">
        <ele>305.347107</ele>
        <time>2016-09-25T06:47:48Z</time>
      </trkpt>
      <trkpt lat="45.70611" lon="4.68579">
        <ele>305.722168</ele>
        <time>2016-09-25T06:47:50Z</time>
      </trkpt>
      <trkpt lat="45.70614" lon="4.68575">
        <ele>305.90332</ele>
        <time>2016-09-25T06:47:52Z</time>
      </trkpt>
      <trkpt lat="45.70617" lon="4.6857">
        <ele>306.176178</ele>
        <time>2016-09-25T06:47:54Z</time>
      </trkpt>
      <trkpt lat="45.70622" lon="4.68565">
        <ele>306.333923</ele>
        <time>2016-09-25T06:47:56Z</time>
      </trkpt>
      <trkpt lat="45.70625" lon="4.68559">
        <ele>306.566132</ele>
        <time>2016-09-25T06:47:58Z</time>
      </trkpt>
      <trkpt lat="45.70628" lon="4.68552">
        <ele>306.702545</ele>
        <time>2016-09-25T06:48:00Z</time>
      </trkpt>
      <trkpt lat="45.70629" lon="4.68545">
        <ele>307.071228</ele>
        <time>2016-09-25T06:48:02Z</time>
      </trkpt>
      <trkpt lat="45.7063" lon="4.68537">
        <ele>307.350769</ele>
        <time>2016-09-25T06:48:04Z</time>
      </trkpt>
      <trkpt lat="45.7063" lon="4.6853">
        <ele>307.715271</ele>
        <time>2016-09-25T06:48:06Z</time>
      </trkpt>
      <trkpt lat="45.7063" lon="4.68521">
        <ele>307.975311</ele>
        <time>2016-09-25T06:48:08Z</time>
      </trkpt>
      <trkpt lat="45.70629" lon="4.68512">
        <ele>308.307831</ele>
        <time>2016-09-25T06:48:10Z</time>
      </trkpt>
      <trkpt lat="45.70628" lon="4.68504">
        <ele>308.440002</ele>
        <time>2016-09-25T06:48:12Z</time>
      </trkpt>
      <trkpt lat="45.70627" lon="4.68495">
        <ele>308.636078</ele>
        <time>2016-09-25T06:48:14Z</time>
      </trkpt>
      <trkpt lat="45.70626" lon="4.68486">
        <ele>308.84259</ele>
        <time>2016-09-25T06:48:16Z</time>
      </trkpt>
      <trkpt lat="45.70624" lon="4.68478">
        <ele>309.032288</ele>
        <time>2016-09-25T06:48:18Z</time>
      </trkpt>
      <trkpt lat="45.70623" lon="4.68469">
        <ele>309.288116</ele>
        <time>2016-09-25T06:48:20Z</time>
      </trkpt>
      <trkpt lat="45.70621" lon="4.68461">
        <ele>309.44162</ele>
        <time>2016-09-25T06:48:22Z</time>
      </trkpt>
      <trkpt lat="45.70619" lon="4.68452">
        <ele>309.627136</ele>
        <time>2016-09-25T06:48:24Z</time>
      </trkpt>
      <trkpt lat="45.70617" lon="4.68443">
        <ele>309.89151</ele>
        <time>2016-09-25T06:48:26Z</time>
      </trkpt>
      <trkpt lat="45.70614" lon="4.68434">
        <ele>310.160126</ele>
        <time>2016-09-25T06:48:28Z</time>
      </trkpt>
      <trkpt lat="45.70612" lon="4.68426">
        <ele>310.196381</ele>
        <time>2016-09-25T06:48:30Z</time>
      </trkpt>
      <trkpt lat="45.7061" lon="4.68417">
        <ele>310.345764</ele>
        <time>2016-09-25T06:48:32Z</time>
      </trkpt>
      <trkpt lat="45.70607" lon="4.68408">
        <ele>310.499298</ele>
        <time>2016-09-25T06:48:34Z</time>
      </trkpt>
      <trkpt lat="45.70605" lon="4.68399">
        <ele>310.701904</ele>
        <time>2016-09-25T06:48:36Z</time>
      </trkpt>
      <trkpt lat="45.70602" lon="4.68391">
        <ele>310.930115</ele>
        <time>2016-09-25T06:48:38Z</time>
      </trkpt>
      <trkpt lat="45.706" lon="4.68385">
        <ele>311.147583</ele>
        <time>2016-09-25T06:48:40Z</time>
      </trkpt>
      <trkpt lat="45.70598" lon="4.6838">
        <ele>311.320313</ele>
        <time>2016-09-25T06:48:42Z</time>
      </trkpt>
      <trkpt lat="45.70597" lon="4.68378">
        <ele>311.512238</ele>
        <time>2016-09-25T06:48:44Z</time>
      </trkpt>
      <trkpt lat="45.70597" lon="4.68373">
        <ele>311.719177</ele>
        <time>2016-09-25T06:48:48Z</time>
      </trkpt>
      <trkpt lat="45.70598" lon="4.68369">
        <ele>311.810883</ele>
        <time>2016-09-25T06:48:50Z</time>
      </trkpt>
      <trkpt lat="45.70596" lon="4.68364">
        <ele>311.932434</ele>
        <time>2016-09-25T06:48:52Z</time>
      </trkpt>
      <trkpt lat="45.70594" lon="4.68358">
        <ele>312.286407</ele>
        <time>2016-09-25T06:48:54Z</time>
      </trkpt>
      <trkpt lat="45.70593" lon="4.68351">
        <ele>312.414246</ele>
        <time>2016-09-25T06:48:56Z</time>
      </trkpt>
      <trkpt lat="45.7059" lon="4.68345">
        <ele>312.546448</ele>
        <time>2016-09-25T06:48:58Z</time>
      </trkpt>
      <trkpt lat="45.70589" lon="4.6834">
        <ele>312.776794</ele>
        <time>2016-09-25T06:49:00Z</time>
      </trkpt>
      <trkpt lat="45.70586" lon="4.68333">
        <ele>312.800262</ele>
        <time>2016-09-25T06:49:02Z</time>
      </trkpt>
      <trkpt lat="45.70583" lon="4.68326">
        <ele>312.953796</ele>
        <time>2016-09-25T06:49:04Z</time>
      </trkpt>
      <trkpt lat="45.70581" lon="4.68319">
        <ele>313.205444</ele>
        <time>2016-09-25T06:49:06Z</time>
      </trkpt>
      <trkpt lat="45.70581" lon="4.68311">
        <ele>313.060486</ele>
        <time>2016-09-25T06:49:08Z</time>
      </trkpt>
      <trkpt lat="45.70581" lon="4.68304">
        <ele>313.346344</ele>
        <time>2016-09-25T06:49:10Z</time>
      </trkpt>
      <trkpt lat="45.70581" lon="4.68295">
        <ele>313.590881</ele>
        <time>2016-09-25T06:49:12Z</time>
      </trkpt>
      <trkpt lat="45.7058" lon="4.68288">
        <ele>313.663391</ele>
        <time>2016-09-25T06:49:14Z</time>
      </trkpt>
      <trkpt lat="45.70578" lon="4.6828">
        <ele>313.866028</ele>
        <time>2016-09-25T06:49:16Z</time>
      </trkpt>
      <trkpt lat="45.70576" lon="4.68274">
        <ele>314.085754</ele>
        <time>2016-09-25T06:49:18Z</time>
      </trkpt>
      <trkpt lat="45.70574" lon="4.68267">
        <ele>314.113495</ele>
        <time>2016-09-25T06:49:20Z</time>
      </trkpt>
      <trkpt lat="45.70572" lon="4.68261">
        <ele>314.369934</ele>
        <time>2016-09-25T06:49:22Z</time>
      </trkpt>
      <trkpt lat="45.7057" lon="4.68254">
        <ele>314.615204</ele>
        <time>2016-09-25T06:49:24Z</time>
      </trkpt>
      <trkpt lat="45.70568" lon="4.68248">
        <ele>314.87973</ele>
        <time>2016-09-25T06:49:26Z</time>
      </trkpt>
      <trkpt lat="45.70565" lon="4.68243">
        <ele>315.14389</ele>
        <time>2016-09-25T06:49:28Z</time>
      </trkpt>
      <trkpt lat="45.70563" lon="4.68239">
        <ele>315.590881</ele>
        <time>2016-09-25T06:49:30Z</time>
      </trkpt>
      <trkpt lat="45.7056" lon="4.68235">
        <ele>315.947144</ele>
        <time>2016-09-25T06:49:32Z</time>
      </trkpt>
      <trkpt lat="45.70557" lon="4.6823">
        <ele>316.316223</ele>
        <time>2016-09-25T06:49:34Z</time>
      </trkpt>
      <trkpt lat="45.70554" lon="4.68226">
        <ele>316.631714</ele>
        <time>2016-09-25T06:49:36Z</time>
      </trkpt>
      <trkpt lat="45.70552" lon="4.68222">
        <ele>317.060577</ele>
        <time>2016-09-25T06:49:38Z</time>
      </trkpt>
      <trkpt lat="45.7055" lon="4.68218">
        <ele>317.376373</ele>
        <time>2016-09-25T06:49:40Z</time>
      </trkpt>
      <trkpt lat="45.70547" lon="4.68214">
        <ele>317.783875</ele>
        <time>2016-09-25T06:49:42Z</time>
      </trkpt>
      <trkpt lat="45.70545" lon="4.6821">
        <ele>318.165771</ele>
        <time>2016-09-25T06:49:44Z</time>
      </trkpt>
      <trkpt lat="45.70542" lon="4.68206">
        <ele>318.660919</ele>
        <time>2016-09-25T06:49:46Z</time>
      </trkpt>
      <trkpt lat="45.7054" lon="4.68202">
        <ele>319.073303</ele>
        <time>2016-09-25T06:49:48Z</time>
      </trkpt>
      <trkpt lat="45.70537" lon="4.68198">
        <ele>319.736816</ele>
        <time>2016-09-25T06:49:50Z</time>
      </trkpt>
      <trkpt lat="45.70535" lon="4.68194">
        <ele>320.074646</ele>
        <time>2016-09-25T06:49:52Z</time>
      </trkpt>
      <trkpt lat="45.70532" lon="4.6819">
        <ele>320.21759</ele>
        <time>2016-09-25T06:49:54Z</time>
      </trkpt>
      <trkpt lat="45.70529" lon="4.68185">
        <ele>320.717377</ele>
        <time>2016-09-25T06:49:56Z</time>
      </trkpt>
      <trkpt lat="45.70526" lon="4.6818">
        <ele>321.122955</ele>
        <time>2016-09-25T06:49:58Z</time>
      </trkpt>
      <trkpt lat="45.70523" lon="4.68175">
        <ele>321.656647</ele>
        <time>2016-09-25T06:50:00Z</time>
      </trkpt>
      <trkpt lat="45.70519" lon="4.68172">
        <ele>322.118408</ele>
        <time>2016-09-25T06:50:02Z</time>
      </trkpt>
      <trkpt lat="45.70515" lon="4.68167">
        <ele>322.430847</ele>
        <time>2016-09-25T06:50:04Z</time>
      </trkpt>
      <trkpt lat="45.70511" lon="4.68163">
        <ele>322.949615</ele>
        <time>2016-09-25T06:50:06Z</time>
      </trkpt>
      <trkpt lat="45.70507" lon="4.68158">
        <ele>323.531647</ele>
        <time>2016-09-25T06:50:08Z</time>
      </trkpt>
      <trkpt lat="45.70503" lon="4.68154">
        <ele>323.896729</ele>
        <time>2016-09-25T06:50:10Z</time>
      </trkpt>
      <trkpt lat="45.70499" lon="4.68149">
        <ele>324.229797</ele>
        <time>2016-09-25T06:50:12Z</time>
      </trkpt>
      <trkpt lat="45.70496" lon="4.68144">
        <ele>324.57132</ele>
        <time>2016-09-25T06:50:14Z</time>
      </trkpt>
      <trkpt lat="45.70493" lon="4.68139">
        <ele>324.889465</ele>
        <time>2016-09-25T06:50:16Z</time>
      </trkpt>
      <trkpt lat="45.70491" lon="4.68134">
        <ele>325.391541</ele>
        <time>2016-09-25T06:50:18Z</time>
      </trkpt>
      <trkpt lat="45.70488" lon="4.6813">
        <ele>325.891113</ele>
        <time>2016-09-25T06:50:20Z</time>
      </trkpt>
      <trkpt lat="45.70485" lon="4.68125">
        <ele>326.03418</ele>
        <time>2016-09-25T06:50:22Z</time>
      </trkpt>
      <trkpt lat="45.70482" lon="4.68121">
        <ele>326.467346</ele>
        <time>2016-09-25T06:50:24Z</time>
      </trkpt>
      <trkpt lat="45.70479" lon="4.68116">
        <ele>326.930695</ele>
        <time>2016-09-25T06:50:26Z</time>
      </trkpt>
      <trkpt lat="45.70477" lon="4.68111">
        <ele>327.276154</ele>
        <time>2016-09-25T06:50:28Z</time>
      </trkpt>
      <trkpt lat="45.70474" lon="4.68108">
        <ele>327.760437</ele>
        <time>2016-09-25T06:50:30Z</time>
      </trkpt>
      <trkpt lat="45.70471" lon="4.68103">
        <ele>328.179108</ele>
        <time>2016-09-25T06:50:32Z</time>
      </trkpt>
      <trkpt lat="45.70469" lon="4.68099">
        <ele>328.792145</ele>
        <time>2016-09-25T06:50:34Z</time>
      </trkpt>
      <trkpt lat="45.70467" lon="4.68094">
        <ele>329.490173</ele>
        <time>2016-09-25T06:50:36Z</time>
      </trkpt>
      <trkpt lat="45.70464" lon="4.6809">
        <ele>329.908844</ele>
        <time>2016-09-25T06:50:38Z</time>
      </trkpt>
      <trkpt lat="45.70462" lon="4.68086">
        <ele>330.231415</ele>
        <time>2016-09-25T06:50:40Z</time>
      </trkpt>
      <trkpt lat="45.7046" lon="4.68081">
        <ele>330.59552</ele>
        <time>2016-09-25T06:50:42Z</time>
      </trkpt>
      <trkpt lat="45.70458" lon="4.68077">
        <ele>331.037689</ele>
        <time>2016-09-25T06:50:44Z</time>
      </trkpt>
      <trkpt lat="45.70455" lon="4.68073">
        <ele>331.462067</ele>
        <time>2016-09-25T06:50:46Z</time>
      </trkpt>
      <trkpt lat="45.70453" lon="4.68068">
        <ele>331.847412</ele>
        <time>2016-09-25T06:50:48Z</time>
      </trkpt>
      <trkpt lat="45.7045" lon="4.68062">
        <ele>331.969177</ele>
        <time>2016-09-25T06:50:50Z</time>
      </trkpt>
      <trkpt lat="45.70448" lon="4.68058">
        <ele>332.391357</ele>
        <time>2016-09-25T06:50:52Z</time>
      </trkpt>
      <trkpt lat="45.70446" lon="4.68053">
        <ele>332.788879</ele>
        <time>2016-09-25T06:50:54Z</time>
      </trkpt>
      <trkpt lat="45.70444" lon="4.68049">
        <ele>333.309814</ele>
        <time>2016-09-25T06:50:56Z</time>
      </trkpt>
      <trkpt lat="45.70442" lon="4.68044">
        <ele>333.79483</ele>
        <time>2016-09-25T06:50:58Z</time>
      </trkpt>
      <trkpt lat="45.7044" lon="4.6804">
        <ele>334.079041</ele>
        <time>2016-09-25T06:51:00Z</time>
      </trkpt>
      <trkpt lat="45.70439" lon="4.68035">
        <ele>334.44696</ele>
        <time>2016-09-25T06:51:02Z</time>
      </trkpt>
      <trkpt lat="45.70437" lon="4.6803">
        <ele>334.900818</ele>
        <time>2016-09-25T06:51:04Z</time>
      </trkpt>
      <trkpt lat="45.70435" lon="4.68025">
        <ele>335.255554</ele>
        <time>2016-09-25T06:51:06Z</time>
      </trkpt>
      <trkpt lat="45.70433" lon="4.6802">
        <ele>335.833313</ele>
        <time>2016-09-25T06:51:08Z</time>
      </trkpt>
      <trkpt lat="45.70433" lon="4.68015">
        <ele>336.197418</ele>
        <time>2016-09-25T06:51:10Z</time>
      </trkpt>
      <trkpt lat="45.70431" lon="4.6801">
        <ele>336.336365</ele>
        <time>2016-09-25T06:51:12Z</time>
      </trkpt>
      <trkpt lat="45.70429" lon="4.68006">
        <ele>336.572845</ele>
        <time>2016-09-25T06:51:14Z</time>
      </trkpt>
      <trkpt lat="45.70427" lon="4.68001">
        <ele>336.867859</ele>
        <time>2016-09-25T06:51:16Z</time>
      </trkpt>
      <trkpt lat="45.70425" lon="4.67997">
        <ele>337.017517</ele>
        <time>2016-09-25T06:51:18Z</time>
      </trkpt>
      <trkpt lat="45.70423" lon="4.67992">
        <ele>337.436523</ele>
        <time>2016-09-25T06:51:20Z</time>
      </trkpt>
      <trkpt lat="45.70421" lon="4.67987">
        <ele>337.816406</ele>
        <time>2016-09-25T06:51:22Z</time>
      </trkpt>
      <trkpt lat="45.70418" lon="4.67982">
        <ele>338.312408</ele>
        <time>2016-09-25T06:51:24Z</time>
      </trkpt>
      <trkpt lat="45.70415" lon="4.67979">
        <ele>338.746429</ele>
        <time>2016-09-25T06:51:26Z</time>
      </trkpt>
      <trkpt lat="45.70412" lon="4.67975">
        <ele>339.174103</ele>
        <time>2016-09-25T06:51:28Z</time>
      </trkpt>
      <trkpt lat="45.7041" lon="4.67973">
        <ele>339.595886</ele>
        <time>2016-09-25T06:51:30Z</time>
      </trkpt>
      <trkpt lat="45.70408" lon="4.6797">
        <ele>340.075745</ele>
        <time>2016-09-25T06:51:32Z</time>
      </trkpt>
      <trkpt lat="45.70406" lon="4.67966">
        <ele>340.447693</ele>
        <time>2016-09-25T06:51:34Z</time>
      </trkpt>
      <trkpt lat="45.70403" lon="4.67961">
        <ele>340.65509</ele>
        <time>2016-09-25T06:51:36Z</time>
      </trkpt>
      <trkpt lat="45.704" lon="4.67957">
        <ele>341.055298</ele>
        <time>2016-09-25T06:51:38Z</time>
      </trkpt>
      <trkpt lat="45.70398" lon="4.67952">
        <ele>341.468048</ele>
        <time>2016-09-25T06:51:40Z</time>
      </trkpt>
      <trkpt lat="45.70395" lon="4.67947">
        <ele>341.912811</ele>
        <time>2016-09-25T06:51:42Z</time>
      </trkpt>
      <trkpt lat="45.70393" lon="4.67942">
        <ele>342.33371</ele>
        <time>2016-09-25T06:51:44Z</time>
      </trkpt>
      <trkpt lat="45.7039" lon="4.67937">
        <ele>342.711792</ele>
        <time>2016-09-25T06:51:46Z</time>
      </trkpt>
      <trkpt lat="45.70388" lon="4.67933">
        <ele>343.141632</ele>
        <time>2016-09-25T06:51:48Z</time>
      </trkpt>
      <trkpt lat="45.70385" lon="4.67927">
        <ele>343.312775</ele>
        <time>2016-09-25T06:51:50Z</time>
      </trkpt>
      <trkpt lat="45.70384" lon="4.67922">
        <ele>343.579315</ele>
        <time>2016-09-25T06:51:52Z</time>
      </trkpt>
      <trkpt lat="45.70381" lon="4.67916">
        <ele>343.878876</ele>
        <time>2016-09-25T06:51:54Z</time>
      </trkpt>
      <trkpt lat="45.70377" lon="4.6791">
        <ele>344.432892</ele>
        <time>2016-09-25T06:51:56Z</time>
      </trkpt>
      <trkpt lat="45.70375" lon="4.67902">
        <ele>344.661743</ele>
        <time>2016-09-25T06:51:58Z</time>
      </trkpt>
      <trkpt lat="45.70373" lon="4.67893">
        <ele>344.971954</ele>
        <time>2016-09-25T06:52:00Z</time>
      </trkpt>
      <trkpt lat="45.70371" lon="4.67885">
        <ele>345.203583</ele>
        <time>2016-09-25T06:52:02Z</time>
      </trkpt>
      <trkpt lat="45.70368" lon="4.67876">
        <ele>345.400421</ele>
        <time>2016-09-25T06:52:04Z</time>
      </trkpt>
      <trkpt lat="45.70365" lon="4.67867">
        <ele>345.588806</ele>
        <time>2016-09-25T06:52:06Z</time>
      </trkpt>
      <trkpt lat="45.70362" lon="4.67858">
        <ele>345.751404</ele>
        <time>2016-09-25T06:52:08Z</time>
      </trkpt>
      <trkpt lat="45.70359" lon="4.67848">
        <ele>345.958923</ele>
        <time>2016-09-25T06:52:10Z</time>
      </trkpt>
      <trkpt lat="45.70356" lon="4.67838">
        <ele>346.114563</ele>
        <time>2016-09-25T06:52:12Z</time>
      </trkpt>
      <trkpt lat="45.70353" lon="4.67828">
        <ele>346.285736</ele>
        <time>2016-09-25T06:52:14Z</time>
      </trkpt>
      <trkpt lat="45.7035" lon="4.67818">
        <ele>346.377747</ele>
        <time>2016-09-25T06:52:16Z</time>
      </trkpt>
      <trkpt lat="45.70346" lon="4.67807">
        <ele>346.621643</ele>
        <time>2016-09-25T06:52:18Z</time>
      </trkpt>
      <trkpt lat="45.70343" lon="4.67797">
        <ele>346.765045</ele>
        <time>2016-09-25T06:52:20Z</time>
      </trkpt>
      <trkpt lat="45.7034" lon="4.67786">
        <ele>346.842102</ele>
        <time>2016-09-25T06:52:22Z</time>
      </trkpt>
      <trkpt lat="45.70337" lon="4.67776">
        <ele>346.934082</ele>
        <time>2016-09-25T06:52:24Z</time>
      </trkpt>
      <trkpt lat="45.70334" lon="4.67765">
        <ele>347.244385</ele>
        <time>2016-09-25T06:52:26Z</time>
      </trkpt>
      <trkpt lat="45.70332" lon="4.67754">
        <ele>347.494812</ele>
        <time>2016-09-25T06:52:28Z</time>
      </trkpt>
      <trkpt lat="45.70329" lon="4.67743">
        <ele>347.730286</ele>
        <time>2016-09-25T06:52:30Z</time>
      </trkpt>
      <trkpt lat="45.70324" lon="4.67727">
        <ele>347.986053</ele>
        <time>2016-09-25T06:52:33Z</time>
      </trkpt>
      <trkpt lat="45.70321" lon="4.67716">
        <ele>348.240723</ele>
        <time>2016-09-25T06:52:35Z</time>
      </trkpt>
      <trkpt lat="45.70317" lon="4.67704">
        <ele>348.455383</ele>
        <time>2016-09-25T06:52:37Z</time>
      </trkpt>
      <trkpt lat="45.70314" lon="4.67693">
        <ele>348.51535</ele>
        <time>2016-09-25T06:52:39Z</time>
      </trkpt>
      <trkpt lat="45.70311" lon="4.67681">
        <ele>348.782837</ele>
        <time>2016-09-25T06:52:41Z</time>
      </trkpt>
      <trkpt lat="45.70307" lon="4.6767">
        <ele>348.810669</ele>
        <time>2016-09-25T06:52:43Z</time>
      </trkpt>
      <trkpt lat="45.70304" lon="4.67658">
        <ele>349.018951</ele>
        <time>2016-09-25T06:52:45Z</time>
      </trkpt>
      <trkpt lat="45.70301" lon="4.67647">
        <ele>349.218018</ele>
        <time>2016-09-25T06:52:47Z</time>
      </trkpt>
      <trkpt lat="45.70297" lon="4.67636">
        <ele>349.429749</ele>
        <time>2016-09-25T06:52:49Z</time>
      </trkpt>
      <trkpt lat="45.70294" lon="4.67626">
        <ele>349.853546</ele>
        <time>2016-09-25T06:52:51Z</time>
      </trkpt>
      <trkpt lat="45.7029" lon="4.67616">
        <ele>349.937012</ele>
        <time>2016-09-25T06:52:53Z</time>
      </trkpt>
      <trkpt lat="45.70287" lon="4.67608">
        <ele>349.990509</ele>
        <time>2016-09-25T06:52:55Z</time>
      </trkpt>
      <trkpt lat="45.70284" lon="4.67603">
        <ele>350.170288</ele>
        <time>2016-09-25T06:52:57Z</time>
      </trkpt>
      <trkpt lat="45.70281" lon="4.676">
        <ele>350.529816</ele>
        <time>2016-09-25T06:52:59Z</time>
      </trkpt>
      <trkpt lat="45.70277" lon="4.67598">
        <ele>350.754578</ele>
        <time>2016-09-25T06:53:01Z</time>
      </trkpt>
      <trkpt lat="45.70275" lon="4.67594">
        <ele>350.906525</ele>
        <time>2016-09-25T06:53:03Z</time>
      </trkpt>
      <trkpt lat="45.70273" lon="4.67591">
        <ele>351.129089</ele>
        <time>2016-09-25T06:53:05Z</time>
      </trkpt>
      <trkpt lat="45.70272" lon="4.67588">
        <ele>351.375183</ele>
        <time>2016-09-25T06:53:07Z</time>
      </trkpt>
      <trkpt lat="45.70272" lon="4.67583">
        <ele>351.561432</ele>
        <time>2016-09-25T06:53:09Z</time>
      </trkpt>
      <trkpt lat="45.70272" lon="4.67578">
        <ele>351.700562</ele>
        <time>2016-09-25T06:53:11Z</time>
      </trkpt>
      <trkpt lat="45.70271" lon="4.67576">
        <ele>351.533539</ele>
        <time>2016-09-25T06:53:13Z</time>
      </trkpt>
      <trkpt lat="45.70269" lon="4.67576">
        <ele>351.677979</ele>
        <time>2016-09-25T06:53:15Z</time>
      </trkpt>
      <trkpt lat="45.70269" lon="4.6758">
        <ele>351.842834</ele>
        <time>2016-09-25T06:53:17Z</time>
      </trkpt>
      <trkpt lat="45.70272" lon="4.67584">
        <ele>352.039764</ele>
        <time>2016-09-25T06:53:19Z</time>
      </trkpt>
      <trkpt lat="45.70274" lon="4.67586">
        <ele>352.185303</ele>
        <time>2016-09-25T06:53:21Z</time>
      </trkpt>
      <trkpt lat="45.70277" lon="4.67588">
        <ele>352.350128</ele>
        <time>2016-09-25T06:53:23Z</time>
      </trkpt>
      <trkpt lat="45.70279" lon="4.67591">
        <ele>352.430756</ele>
        <time>2016-09-25T06:53:25Z</time>
      </trkpt>
      <trkpt lat="45.70281" lon="4.67594">
        <ele>352.417908</ele>
        <time>2016-09-25T06:53:27Z</time>
      </trkpt>
      <trkpt lat="45.70282" lon="4.67597">
        <ele>352.50351</ele>
        <time>2016-09-25T06:53:29Z</time>
      </trkpt>
      <trkpt lat="45.70281" lon="4.676">
        <ele>352.524933</ele>
        <time>2016-09-25T06:53:31Z</time>
      </trkpt>
      <trkpt lat="45.70279" lon="4.67605">
        <ele>352.40802</ele>
        <time>2016-09-25T06:53:33Z</time>
      </trkpt>
      <trkpt lat="45.70279" lon="4.67609">
        <ele>352.532196</ele>
        <time>2016-09-25T06:53:35Z</time>
      </trkpt>
      <trkpt lat="45.70281" lon="4.67608">
        <ele>352.80188</ele>
        <time>2016-09-25T06:53:37Z</time>
      </trkpt>
      <trkpt lat="45.70284" lon="4.67604">
        <ele>352.862671</ele>
        <time>2016-09-25T06:53:39Z</time>
      </trkpt>
      <trkpt lat="45.70287" lon="4.67606">
        <ele>352.727722</ele>
        <time>2016-09-25T06:53:41Z</time>
      </trkpt>
      <trkpt lat="45.70291" lon="4.67615">
        <ele>352.794128</ele>
        <time>2016-09-25T06:53:43Z</time>
      </trkpt>
      <trkpt lat="45.70295" lon="4.67627">
        <ele>352.834778</ele>
        <time>2016-09-25T06:53:45Z</time>
      </trkpt>
      <trkpt lat="45.70299" lon="4.6764">
        <ele>353.044312</ele>
        <time>2016-09-25T06:53:47Z</time>
      </trkpt>
      <trkpt lat="45.70303" lon="4.67654">
        <ele>352.99231</ele>
        <time>2016-09-25T06:53:49Z</time>
      </trkpt>
      <trkpt lat="45.70307" lon="4.67668">
        <ele>352.690552</ele>
        <time>2016-09-25T06:53:51Z</time>
      </trkpt>
      <trkpt lat="45.7031" lon="4.67682">
        <ele>352.776184</ele>
        <time>2016-09-25T06:53:53Z</time>
      </trkpt>
      <trkpt lat="45.70314" lon="4.67695">
        <ele>352.722717</ele>
        <time>2016-09-25T06:53:55Z</time>
      </trkpt>
      <trkpt lat="45.70317" lon="4.67707">
        <ele>352.660614</ele>
        <time>2016-09-25T06:53:57Z</time>
      </trkpt>
      <trkpt lat="45.70321" lon="4.67719">
        <ele>352.575012</ele>
        <time>2016-09-25T06:53:59Z</time>
      </trkpt>
      <trkpt lat="45.70325" lon="4.67732">
        <ele>352.345978</ele>
        <time>2016-09-25T06:54:01Z</time>
      </trkpt>
      <trkpt lat="45.70329" lon="4.67745">
        <ele>352.105408</ele>
        <time>2016-09-25T06:54:03Z</time>
      </trkpt>
      <trkpt lat="45.70332" lon="4.67759">
        <ele>351.848572</ele>
        <time>2016-09-25T06:54:05Z</time>
      </trkpt>
      <trkpt lat="45.70335" lon="4.67773">
        <ele>351.586243</ele>
        <time>2016-09-25T06:54:07Z</time>
      </trkpt>
      <trkpt lat="45.70339" lon="4.67787">
        <ele>351.562714</ele>
        <time>2016-09-25T06:54:09Z</time>
      </trkpt>
      <trkpt lat="45.70343" lon="4.67801">
        <ele>351.45575</ele>
        <time>2016-09-25T06:54:11Z</time>
      </trkpt>
      <trkpt lat="45.70348" lon="4.67815">
        <ele>351.405701</ele>
        <time>2016-09-25T06:54:13Z</time>
      </trkpt>
      <trkpt lat="45.70352" lon="4.6783">
        <ele>351.24939</ele>
        <time>2016-09-25T06:54:15Z</time>
      </trkpt>
      <trkpt lat="45.70356" lon="4.67844">
        <ele>351.204437</ele>
        <time>2016-09-25T06:54:17Z</time>
      </trkpt>
      <trkpt lat="45.7036" lon="4.67856">
        <ele>351.083191</ele>
        <time>2016-09-25T06:54:19Z</time>
      </trkpt>
      <trkpt lat="45.70363" lon="4.67863">
        <ele>350.83194</ele>
        <time>2016-09-25T06:54:21Z</time>
      </trkpt>
      <trkpt lat="45.70365" lon="4.6787">
        <ele>350.675842</ele>
        <time>2016-09-25T06:54:23Z</time>
      </trkpt>
      <trkpt lat="45.70368" lon="4.6788">
        <ele>350.296967</ele>
        <time>2016-09-25T06:54:25Z</time>
      </trkpt>
      <trkpt lat="45.70371" lon="4.6789">
        <ele>350.04425</ele>
        <time>2016-09-25T06:54:27Z</time>
      </trkpt>
      <trkpt lat="45.70372" lon="4.67899">
        <ele>349.607422</ele>
        <time>2016-09-25T06:54:29Z</time>
      </trkpt>
      <trkpt lat="45.70372" lon="4.67905">
        <ele>349.364899</ele>
        <time>2016-09-25T06:54:31Z</time>
      </trkpt>
      <trkpt lat="45.70369" lon="4.67909">
        <ele>349.388428</ele>
        <time>2016-09-25T06:54:33Z</time>
      </trkpt>
      <trkpt lat="45.70365" lon="4.67909">
        <ele>349.039551</ele>
        <time>2016-09-25T06:54:35Z</time>
      </trkpt>
      <trkpt lat="45.70359" lon="4.67909">
        <ele>348.763428</ele>
        <time>2016-09-25T06:54:37Z</time>
      </trkpt>
      <trkpt lat="45.70353" lon="4.67908">
        <ele>348.521545</ele>
        <time>2016-09-25T06:54:39Z</time>
      </trkpt>
      <trkpt lat="45.70346" lon="4.67908">
        <ele>348.527985</ele>
        <time>2016-09-25T06:54:41Z</time>
      </trkpt>
      <trkpt lat="45.70338" lon="4.67908">
        <ele>348.381104</ele>
        <time>2016-09-25T06:54:43Z</time>
      </trkpt>
      <trkpt lat="45.70329" lon="4.67908">
        <ele>348.302734</ele>
        <time>2016-09-25T06:54:45Z</time>
      </trkpt>
      <trkpt lat="45.7032" lon="4.67908">
        <ele>348.339172</ele>
        <time>2016-09-25T06:54:47Z</time>
      </trkpt>
      <trkpt lat="45.7031" lon="4.6791">
        <ele>348.259033</ele>
        <time>2016-09-25T06:54:49Z</time>
      </trkpt>
      <trkpt lat="45.703" lon="4.67913">
        <ele>348.184082</ele>
        <time>2016-09-25T06:54:51Z</time>
      </trkpt>
      <trkpt lat="45.7029" lon="4.6792">
        <ele>348.048889</ele>
        <time>2016-09-25T06:54:53Z</time>
      </trkpt>
      <trkpt lat="45.70281" lon="4.67926">
        <ele>347.809235</ele>
        <time>2016-09-25T06:54:55Z</time>
      </trkpt>
      <trkpt lat="45.7027" lon="4.67931">
        <ele>347.740723</ele>
        <time>2016-09-25T06:54:57Z</time>
      </trkpt>
      <trkpt lat="45.7026" lon="4.67935">
        <ele>347.657166</ele>
        <time>2016-09-25T06:54:59Z</time>
      </trkpt>
      <trkpt lat="45.70249" lon="4.67935">
        <ele>347.770599</ele>
        <time>2016-09-25T06:55:01Z</time>
      </trkpt>
      <trkpt lat="45.70238" lon="4.67935">
        <ele>347.894714</ele>
        <time>2016-09-25T06:55:03Z</time>
      </trkpt>
      <trkpt lat="45.70227" lon="4.67935">
        <ele>347.999573</ele>
        <time>2016-09-25T06:55:05Z</time>
      </trkpt>
      <trkpt lat="45.70217" lon="4.67935">
        <ele>348.237122</ele>
        <time>2016-09-25T06:55:07Z</time>
      </trkpt>
      <trkpt lat="45.70206" lon="4.67936">
        <ele>348.301483</ele>
        <time>2016-09-25T06:55:09Z</time>
      </trkpt>
      <trkpt lat="45.70195" lon="4.67935">
        <ele>348.404633</ele>
        <time>2016-09-25T06:55:11Z</time>
      </trkpt>
      <trkpt lat="45.70185" lon="4.67935">
        <ele>348.494507</ele>
        <time>2016-09-25T06:55:13Z</time>
      </trkpt>
      <trkpt lat="45.70175" lon="4.67936">
        <ele>348.68927</ele>
        <time>2016-09-25T06:55:15Z</time>
      </trkpt>
      <trkpt lat="45.70165" lon="4.67938">
        <ele>348.89563</ele>
        <time>2016-09-25T06:55:17Z</time>
      </trkpt>
      <trkpt lat="45.70155" lon="4.67944">
        <ele>348.99408</ele>
        <time>2016-09-25T06:55:19Z</time>
      </trkpt>
      <trkpt lat="45.70148" lon="4.67954">
        <ele>349.100281</ele>
        <time>2016-09-25T06:55:21Z</time>
      </trkpt>
      <trkpt lat="45.70142" lon="4.67966">
        <ele>349.185059</ele>
        <time>2016-09-25T06:55:23Z</time>
      </trkpt>
      <trkpt lat="45.70136" lon="4.67976">
        <ele>349.365906</ele>
        <time>2016-09-25T06:55:25Z</time>
      </trkpt>
      <trkpt lat="45.70129" lon="4.67987">
        <ele>349.543579</ele>
        <time>2016-09-25T06:55:27Z</time>
      </trkpt>
      <trkpt lat="45.70122" lon="4.67997">
        <ele>349.627014</ele>
        <time>2016-09-25T06:55:29Z</time>
      </trkpt>
      <trkpt lat="45.70114" lon="4.68007">
        <ele>349.671936</ele>
        <time>2016-09-25T06:55:31Z</time>
      </trkpt>
      <trkpt lat="45.70105" lon="4.68018">
        <ele>349.607758</ele>
        <time>2016-09-25T06:55:33Z</time>
      </trkpt>
      <trkpt lat="45.70097" lon="4.68026">
        <ele>349.734314</ele>
        <time>2016-09-25T06:55:35Z</time>
      </trkpt>
      <trkpt lat="45.70089" lon="4.68025">
        <ele>349.560974</ele>
        <time>2016-09-25T06:55:37Z</time>
      </trkpt>
      <trkpt lat="45.70083" lon="4.68016">
        <ele>349.412659</ele>
        <time>2016-09-25T06:55:39Z</time>
      </trkpt>
      <trkpt lat="45.70075" lon="4.68007">
        <ele>349.297089</ele>
        <time>2016-09-25T06:55:41Z</time>
      </trkpt>
      <trkpt lat="45.70068" lon="4.67996">
        <ele>348.996918</ele>
        <time>2016-09-25T06:55:43Z</time>
      </trkpt>
      <trkpt lat="45.70061" lon="4.6799">
        <ele>348.740173</ele>
        <time>2016-09-25T06:55:45Z</time>
      </trkpt>
      <trkpt lat="45.70054" lon="4.67995">
        <ele>348.572418</ele>
        <time>2016-09-25T06:55:47Z</time>
      </trkpt>
      <trkpt lat="45.70049" lon="4.68007">
        <ele>348.140228</ele>
        <time>2016-09-25T06:55:49Z</time>
      </trkpt>
      <trkpt lat="45.70043" lon="4.6802">
        <ele>347.870667</ele>
        <time>2016-09-25T06:55:51Z</time>
      </trkpt>
      <trkpt lat="45.70038" lon="4.68034">
        <ele>347.522644</ele>
        <time>2016-09-25T06:55:53Z</time>
      </trkpt>
      <trkpt lat="45.70033" lon="4.68049">
        <ele>347.134155</ele>
        <time>2016-09-25T06:55:55Z</time>
      </trkpt>
      <trkpt lat="45.70029" lon="4.68063">
        <ele>346.908569</ele>
        <time>2016-09-25T06:55:57Z</time>
      </trkpt>
      <trkpt lat="45.70026" lon="4.68077">
        <ele>346.429382</ele>
        <time>2016-09-25T06:55:59Z</time>
      </trkpt>
      <trkpt lat="45.70025" lon="4.68092">
        <ele>345.992981</ele>
        <time>2016-09-25T06:56:01Z</time>
      </trkpt>
      <trkpt lat="45.70021" lon="4.68107">
        <ele>345.850433</ele>
        <time>2016-09-25T06:56:03Z</time>
      </trkpt>
      <trkpt lat="45.70015" lon="4.68123">
        <ele>345.629364</ele>
        <time>2016-09-25T06:56:05Z</time>
      </trkpt>
      <trkpt lat="45.70008" lon="4.68136">
        <ele>345.32016</ele>
        <time>2016-09-25T06:56:07Z</time>
      </trkpt>
      <trkpt lat="45.70004" lon="4.68149">
        <ele>344.473175</ele>
        <time>2016-09-25T06:56:09Z</time>
      </trkpt>
      <trkpt lat="45.7" lon="4.68163">
        <ele>343.795135</ele>
        <time>2016-09-25T06:56:11Z</time>
      </trkpt>
      <trkpt lat="45.69994" lon="4.6818">
        <ele>343.262543</ele>
        <time>2016-09-25T06:56:13Z</time>
      </trkpt>
      <trkpt lat="45.69989" lon="4.68196">
        <ele>343.119263</ele>
        <time>2016-09-25T06:56:15Z</time>
      </trkpt>
      <trkpt lat="45.69983" lon="4.68213">
        <ele>342.458649</ele>
        <time>2016-09-25T06:56:17Z</time>
      </trkpt>
      <trkpt lat="45.69979" lon="4.68232">
        <ele>341.967102</ele>
        <time>2016-09-25T06:56:19Z</time>
      </trkpt>
      <trkpt lat="45.69976" lon="4.68255">
        <ele>341.471069</ele>
        <time>2016-09-25T06:56:21Z</time>
      </trkpt>
      <trkpt lat="45.69976" lon="4.68279">
        <ele>340.705536</ele>
        <time>2016-09-25T06:56:23Z</time>
      </trkpt>
      <trkpt lat="45.69977" lon="4.68304">
        <ele>339.754395</ele>
        <time>2016-09-25T06:56:25Z</time>
      </trkpt>
      <trkpt lat="45.69981" lon="4.68327">
        <ele>338.783112</ele>
        <time>2016-09-25T06:56:27Z</time>
      </trkpt>
      <trkpt lat="45.69984" lon="4.68348">
        <ele>338.117096</ele>
        <time>2016-09-25T06:56:29Z</time>
      </trkpt>
      <trkpt lat="45.69988" lon="4.68371">
        <ele>337.161835</ele>
        <time>2016-09-25T06:56:31Z</time>
      </trkpt>
      <trkpt lat="45.69992" lon="4.68393">
        <ele>335.9245</ele>
        <time>2016-09-25T06:56:33Z</time>
      </trkpt>
      <trkpt lat="45.69996" lon="4.68417">
        <ele>335.065796</ele>
        <time>2016-09-25T06:56:35Z</time>
      </trkpt>
      <trkpt lat="45.69995" lon="4.68439">
        <ele>334.279175</ele>
        <time>2016-09-25T06:56:37Z</time>
      </trkpt>
      <trkpt lat="45.69993" lon="4.68461">
        <ele>332.879822</ele>
        <time>2016-09-25T06:56:39Z</time>
      </trkpt>
      <trkpt lat="45.69989" lon="4.68483">
        <ele>331.973999</ele>
        <time>2016-09-25T06:56:41Z</time>
      </trkpt>
      <trkpt lat="45.69985" lon="4.68503">
        <ele>330.833435</ele>
        <time>2016-09-25T06:56:43Z</time>
      </trkpt>
      <trkpt lat="45.69982" lon="4.68523">
        <ele>329.648224</ele>
        <time>2016-09-25T06:56:45Z</time>
      </trkpt>
      <trkpt lat="45.69978" lon="4.68543">
        <ele>328.378967</ele>
        <time>2016-09-25T06:56:47Z</time>
      </trkpt>
      <trkpt lat="45.69976" lon="4.68561">
        <ele>327.501831</ele>
        <time>2016-09-25T06:56:49Z</time>
      </trkpt>
      <trkpt lat="45.69973" lon="4.68579">
        <ele>326.570831</ele>
        <time>2016-09-25T06:56:51Z</time>
      </trkpt>
      <trkpt lat="45.69969" lon="4.68596">
        <ele>325.631042</ele>
        <time>2016-09-25T06:56:53Z</time>
      </trkpt>
      <trkpt lat="45.69966" lon="4.68613">
        <ele>325.22525</ele>
        <time>2016-09-25T06:56:55Z</time>
      </trkpt>
      <trkpt lat="45.69962" lon="4.6863">
        <ele>324.048859</ele>
        <time>2016-09-25T06:56:57Z</time>
      </trkpt>
      <trkpt lat="45.69959" lon="4.68647">
        <ele>323.290527</ele>
        <time>2016-09-25T06:56:59Z</time>
      </trkpt>
      <trkpt lat="45.69955" lon="4.68664">
        <ele>322.5513</ele>
        <time>2016-09-25T06:57:01Z</time>
      </trkpt>
      <trkpt lat="45.69952" lon="4.6868">
        <ele>321.66925</ele>
        <time>2016-09-25T06:57:03Z</time>
      </trkpt>
      <trkpt lat="45.69947" lon="4.68689">
        <ele>321.05072</ele>
        <time>2016-09-25T06:57:05Z</time>
      </trkpt>
      <trkpt lat="45.69942" lon="4.68688">
        <ele>320.660095</ele>
        <time>2016-09-25T06:57:07Z</time>
      </trkpt>
      <trkpt lat="45.69938" lon="4.68691">
        <ele>320.514191</ele>
        <time>2016-09-25T06:57:09Z</time>
      </trkpt>
      <trkpt lat="45.69941" lon="4.68695">
        <ele>320.191925</ele>
        <time>2016-09-25T06:57:11Z</time>
      </trkpt>
      <trkpt lat="45.69944" lon="4.68693">
        <ele>319.727081</ele>
        <time>2016-09-25T06:57:13Z</time>
      </trkpt>
      <trkpt lat="45.69947" lon="4.68689">
        <ele>319.765259</ele>
        <time>2016-09-25T06:57:15Z</time>
      </trkpt>
      <trkpt lat="45.6995" lon="4.68684">
        <ele>319.301208</ele>
        <time>2016-09-25T06:57:17Z</time>
      </trkpt>
      <trkpt lat="45.69952" lon="4.68678">
        <ele>319.290405</ele>
        <time>2016-09-25T06:57:19Z</time>
      </trkpt>
      <trkpt lat="45.69954" lon="4.68671">
        <ele>319.185822</ele>
        <time>2016-09-25T06:57:21Z</time>
      </trkpt>
      <trkpt lat="45.69955" lon="4.68663">
        <ele>318.957458</ele>
        <time>2016-09-25T06:57:23Z</time>
      </trkpt>
      <trkpt lat="45.69957" lon="4.68656">
        <ele>318.968079</ele>
        <time>2016-09-25T06:57:25Z</time>
      </trkpt>
      <trkpt lat="45.69959" lon="4.68648">
        <ele>318.882751</ele>
        <time>2016-09-25T06:57:27Z</time>
      </trkpt>
      <trkpt lat="45.69963" lon="4.68641">
        <ele>318.831818</ele>
        <time>2016-09-25T06:57:29Z</time>
      </trkpt>
      <trkpt lat="45.69967" lon="4.68636">
        <ele>318.724152</ele>
        <time>2016-09-25T06:57:31Z</time>
      </trkpt>
      <trkpt lat="45.69965" lon="4.68631">
        <ele>318.824402</ele>
        <time>2016-09-25T06:57:33Z</time>
      </trkpt>
      <trkpt lat="45.69962" lon="4.68633">
        <ele>318.80304</ele>
        <time>2016-09-25T06:57:35Z</time>
      </trkpt>
      <trkpt lat="45.69961" lon="4.68636">
        <ele>318.737122</ele>
        <time>2016-09-25T06:57:37Z</time>
      </trkpt>
      <trkpt lat="45.6996" lon="4.68639">
        <ele>318.658173</ele>
        <time>2016-09-25T06:57:39Z</time>
      </trkpt>
      <trkpt lat="45.6996" lon="4.68641">
        <ele>318.644348</ele>
        <time>2016-09-25T06:57:41Z</time>
      </trkpt>
      <trkpt lat="45.69962" lon="4.68642">
        <ele>318.686981</ele>
        <time>2016-09-25T06:57:43Z</time>
      </trkpt>
      <trkpt lat="45.69965" lon="4.68639">
        <ele>318.62085</ele>
        <time>2016-09-25T06:57:45Z</time>
      </trkpt>
      <trkpt lat="45.69966" lon="4.68634">
        <ele>318.605896</ele>
        <time>2016-09-25T06:57:47Z</time>
      </trkpt>
      <trkpt lat="45.69965" lon="4.68629">
        <ele>318.669922</ele>
        <time>2016-09-25T06:57:49Z</time>
      </trkpt>
      <trkpt lat="45.69965" lon="4.68623">
        <ele>318.657104</ele>
        <time>2016-09-25T06:57:51Z</time>
      </trkpt>
      <trkpt lat="45.69967" lon="4.68615">
        <ele>318.695496</ele>
        <time>2016-09-25T06:57:53Z</time>
      </trkpt>
      <trkpt lat="45.69968" lon="4.68606">
        <ele>318.654968</ele>
        <time>2016-09-25T06:57:55Z</time>
      </trkpt>
      <trkpt lat="45.6997" lon="4.68597">
        <ele>318.654968</ele>
        <time>2016-09-25T06:57:57Z</time>
      </trkpt>
      <trkpt lat="45.69973" lon="4.68587">
        <ele>318.745789</ele>
        <time>2016-09-25T06:57:59Z</time>
      </trkpt>
      <trkpt lat="45.69974" lon="4.68578">
        <ele>318.760712</ele>
        <time>2016-09-25T06:58:01Z</time>
      </trkpt>
      <trkpt lat="45.69976" lon="4.68568">
        <ele>318.809753</ele>
        <time>2016-09-25T06:58:03Z</time>
      </trkpt>
      <trkpt lat="45.69977" lon="4.68558">
        <ele>318.960602</ele>
        <time>2016-09-25T06:58:05Z</time>
      </trkpt>
      <trkpt lat="45.69979" lon="4.68548">
        <ele>319.004211</ele>
        <time>2016-09-25T06:58:07Z</time>
      </trkpt>
      <trkpt lat="45.69981" lon="4.68537">
        <ele>318.852448</ele>
        <time>2016-09-25T06:58:09Z</time>
      </trkpt>
      <trkpt lat="45.69982" lon="4.68527">
        <ele>318.826843</ele>
        <time>2016-09-25T06:58:11Z</time>
      </trkpt>
      <trkpt lat="45.69983" lon="4.68517">
        <ele>318.903687</ele>
        <time>2016-09-25T06:58:13Z</time>
      </trkpt>
      <trkpt lat="45.69985" lon="4.68507">
        <ele>318.910095</ele>
        <time>2016-09-25T06:58:15Z</time>
      </trkpt>
      <trkpt lat="45.69988" lon="4.68497">
        <ele>319.083771</ele>
        <time>2016-09-25T06:58:17Z</time>
      </trkpt>
      <trkpt lat="45.69989" lon="4.68488">
        <ele>319.149933</ele>
        <time>2016-09-25T06:58:19Z</time>
      </trkpt>
      <trkpt lat="45.69992" lon="4.68477">
        <ele>319.196869</ele>
        <time>2016-09-25T06:58:21Z</time>
      </trkpt>
      <trkpt lat="45.69993" lon="4.68467">
        <ele>319.28067</ele>
        <time>2016-09-25T06:58:23Z</time>
      </trkpt>
      <trkpt lat="45.69994" lon="4.68456">
        <ele>319.41803</ele>
        <time>2016-09-25T06:58:25Z</time>
      </trkpt>
      <trkpt lat="45.69994" lon="4.68447">
        <ele>319.554626</ele>
        <time>2016-09-25T06:58:27Z</time>
      </trkpt>
      <trkpt lat="45.69995" lon="4.68437">
        <ele>319.733917</ele>
        <time>2016-09-25T06:58:29Z</time>
      </trkpt>
      <trkpt lat="45.69994" lon="4.68428">
        <ele>320.022095</ele>
        <time>2016-09-25T06:58:31Z</time>
      </trkpt>
      <trkpt lat="45.69993" lon="4.68418">
        <ele>320.224854</ele>
        <time>2016-09-25T06:58:33Z</time>
      </trkpt>
      <trkpt lat="45.69991" lon="4.68409">
        <ele>320.461731</ele>
        <time>2016-09-25T06:58:35Z</time>
      </trkpt>
      <trkpt lat="45.69989" lon="4.68399">
        <ele>320.805359</ele>
        <time>2016-09-25T06:58:37Z</time>
      </trkpt>
      <trkpt lat="45.69989" lon="4.6839">
        <ele>321.042297</ele>
        <time>2016-09-25T06:58:39Z</time>
      </trkpt>
      <trkpt lat="45.69988" lon="4.6838">
        <ele>321.485168</ele>
        <time>2016-09-25T06:58:41Z</time>
      </trkpt>
      <trkpt lat="45.69986" lon="4.68372">
        <ele>321.805389</ele>
        <time>2016-09-25T06:58:43Z</time>
      </trkpt>
      <trkpt lat="45.69984" lon="4.68364">
        <ele>321.965546</ele>
        <time>2016-09-25T06:58:45Z</time>
      </trkpt>
      <trkpt lat="45.69983" lon="4.68355">
        <ele>322.158325</ele>
        <time>2016-09-25T06:58:47Z</time>
      </trkpt>
      <trkpt lat="45.69981" lon="4.68347">
        <ele>322.476105</ele>
        <time>2016-09-25T06:58:49Z</time>
      </trkpt>
      <trkpt lat="45.69979" lon="4.68338">
        <ele>323.099365</ele>
        <time>2016-09-25T06:58:51Z</time>
      </trkpt>
      <trkpt lat="45.69977" lon="4.68329">
        <ele>323.40033</ele>
        <time>2016-09-25T06:58:53Z</time>
      </trkpt>
      <trkpt lat="45.69976" lon="4.6832">
        <ele>323.342896</ele>
        <time>2016-09-25T06:58:55Z</time>
      </trkpt>
      <trkpt lat="45.69976" lon="4.68311">
        <ele>323.703674</ele>
        <time>2016-09-25T06:58:57Z</time>
      </trkpt>
      <trkpt lat="45.69976" lon="4.68303">
        <ele>324.039001</ele>
        <time>2016-09-25T06:58:59Z</time>
      </trkpt>
      <trkpt lat="45.69976" lon="4.68295">
        <ele>324.414734</ele>
        <time>2016-09-25T06:59:01Z</time>
      </trkpt>
      <trkpt lat="45.69976" lon="4.68286">
        <ele>324.914886</ele>
        <time>2016-09-25T06:59:03Z</time>
      </trkpt>
      <trkpt lat="45.69976" lon="4.68277">
        <ele>325.398865</ele>
        <time>2016-09-25T06:59:05Z</time>
      </trkpt>
      <trkpt lat="45.69977" lon="4.68269">
        <ele>325.591034</ele>
        <time>2016-09-25T06:59:07Z</time>
      </trkpt>
      <trkpt lat="45.69978" lon="4.68261">
        <ele>326.125092</ele>
        <time>2016-09-25T06:59:09Z</time>
      </trkpt>
      <trkpt lat="45.69979" lon="4.68253">
        <ele>326.462494</ele>
        <time>2016-09-25T06:59:11Z</time>
      </trkpt>
      <trkpt lat="45.6998" lon="4.68245">
        <ele>326.802063</ele>
        <time>2016-09-25T06:59:13Z</time>
      </trkpt>
      <trkpt lat="45.69981" lon="4.68238">
        <ele>327.348846</ele>
        <time>2016-09-25T06:59:15Z</time>
      </trkpt>
      <trkpt lat="45.69983" lon="4.6823">
        <ele>328.013092</ele>
        <time>2016-09-25T06:59:17Z</time>
      </trkpt>
      <trkpt lat="45.69984" lon="4.68224">
        <ele>328.485352</ele>
        <time>2016-09-25T06:59:19Z</time>
      </trkpt>
      <trkpt lat="45.69985" lon="4.68218">
        <ele>328.978851</ele>
        <time>2016-09-25T06:59:21Z</time>
      </trkpt>
      <trkpt lat="45.69986" lon="4.68213">
        <ele>329.378357</ele>
        <time>2016-09-25T06:59:23Z</time>
      </trkpt>
      <trkpt lat="45.69988" lon="4.68208">
        <ele>329.743652</ele>
        <time>2016-09-25T06:59:25Z</time>
      </trkpt>
      <trkpt lat="45.69989" lon="4.68203">
        <ele>330.237122</ele>
        <time>2016-09-25T06:59:27Z</time>
      </trkpt>
      <trkpt lat="45.69991" lon="4.68197">
        <ele>330.744812</ele>
        <time>2016-09-25T06:59:29Z</time>
      </trkpt>
      <trkpt lat="45.69992" lon="4.68191">
        <ele>331.054626</ele>
        <time>2016-09-25T06:59:31Z</time>
      </trkpt>
      <trkpt lat="45.69994" lon="4.68186">
        <ele>331.368652</ele>
        <time>2016-09-25T06:59:33Z</time>
      </trkpt>
      <trkpt lat="45.69995" lon="4.6818">
        <ele>331.870819</ele>
        <time>2016-09-25T06:59:35Z</time>
      </trkpt>
      <trkpt lat="45.69996" lon="4.68174">
        <ele>332.718689</ele>
        <time>2016-09-25T06:59:37Z</time>
      </trkpt>
      <trkpt lat="45.69998" lon="4.68168">
        <ele>333.207947</ele>
        <time>2016-09-25T06:59:39Z</time>
      </trkpt>
      <trkpt lat="45.69999" lon="4.68162">
        <ele>333.543396</ele>
        <time>2016-09-25T06:59:41Z</time>
      </trkpt>
      <trkpt lat="45.70001" lon="4.68157">
        <ele>333.993225</ele>
        <time>2016-09-25T06:59:43Z</time>
      </trkpt>
      <trkpt lat="45.70004" lon="4.68151">
        <ele>334.279602</ele>
        <time>2016-09-25T06:59:45Z</time>
      </trkpt>
      <trkpt lat="45.70006" lon="4.68146">
        <ele>334.694214</ele>
        <time>2016-09-25T06:59:47Z</time>
      </trkpt>
      <trkpt lat="45.70008" lon="4.6814">
        <ele>335.048767</ele>
        <time>2016-09-25T06:59:49Z</time>
      </trkpt>
      <trkpt lat="45.7001" lon="4.68135">
        <ele>335.392822</ele>
        <time>2016-09-25T06:59:51Z</time>
      </trkpt>
      <trkpt lat="45.70013" lon="4.68129">
        <ele>335.839447</ele>
        <time>2016-09-25T06:59:53Z</time>
      </trkpt>
      <trkpt lat="45.70015" lon="4.68124">
        <ele>336.153687</ele>
        <time>2016-09-25T06:59:55Z</time>
      </trkpt>
      <trkpt lat="45.70018" lon="4.68118">
        <ele>336.388794</ele>
        <time>2016-09-25T06:59:57Z</time>
      </trkpt>
      <trkpt lat="45.7002" lon="4.68112">
        <ele>336.576965</ele>
        <time>2016-09-25T06:59:59Z</time>
      </trkpt>
      <trkpt lat="45.70021" lon="4.68105">
        <ele>336.895996</ele>
        <time>2016-09-25T07:00:01Z</time>
      </trkpt>
      <trkpt lat="45.70023" lon="4.68099">
        <ele>337.139099</ele>
        <time>2016-09-25T07:00:03Z</time>
      </trkpt>
      <trkpt lat="45.70024" lon="4.68092">
        <ele>337.421295</ele>
        <time>2016-09-25T07:00:05Z</time>
      </trkpt>
      <trkpt lat="45.70025" lon="4.68084">
        <ele>337.662842</ele>
        <time>2016-09-25T07:00:07Z</time>
      </trkpt>
      <trkpt lat="45.70026" lon="4.68077">
        <ele>337.987</ele>
        <time>2016-09-25T07:00:09Z</time>
      </trkpt>
      <trkpt lat="45.70027" lon="4.68069">
        <ele>338.270721</ele>
        <time>2016-09-25T07:00:11Z</time>
      </trkpt>
      <trkpt lat="45.70029" lon="4.68061">
        <ele>338.565765</ele>
        <time>2016-09-25T07:00:13Z</time>
      </trkpt>
      <trkpt lat="45.70031" lon="4.68052">
        <ele>338.867035</ele>
        <time>2016-09-25T07:00:15Z</time>
      </trkpt>
      <trkpt lat="45.70034" lon="4.68044">
        <ele>339.230286</ele>
        <time>2016-09-25T07:00:17Z</time>
      </trkpt>
      <trkpt lat="45.70037" lon="4.68035">
        <ele>339.433411</ele>
        <time>2016-09-25T07:00:19Z</time>
      </trkpt>
      <trkpt lat="45.70041" lon="4.68027">
        <ele>339.557404</ele>
        <time>2016-09-25T07:00:21Z</time>
      </trkpt>
      <trkpt lat="45.70044" lon="4.68018">
        <ele>339.889618</ele>
        <time>2016-09-25T07:00:23Z</time>
      </trkpt>
      <trkpt lat="45.70047" lon="4.6801">
        <ele>340.108704</ele>
        <time>2016-09-25T07:00:25Z</time>
      </trkpt>
      <trkpt lat="45.7005" lon="4.68002">
        <ele>340.335358</ele>
        <time>2016-09-25T07:00:27Z</time>
      </trkpt>
      <trkpt lat="45.70053" lon="4.67997">
        <ele>340.553497</ele>
        <time>2016-09-25T07:00:29Z</time>
      </trkpt>
      <trkpt lat="45.70057" lon="4.67994">
        <ele>340.839264</ele>
        <time>2016-09-25T07:00:31Z</time>
      </trkpt>
      <trkpt lat="45.70062" lon="4.67995">
        <ele>341.130066</ele>
        <time>2016-09-25T07:00:33Z</time>
      </trkpt>
      <trkpt lat="45.70066" lon="4.68001">
        <ele>341.239166</ele>
        <time>2016-09-25T07:00:35Z</time>
      </trkpt>
      <trkpt lat="45.70069" lon="4.68007">
        <ele>341.361084</ele>
        <time>2016-09-25T07:00:37Z</time>
      </trkpt>
      <trkpt lat="45.70072" lon="4.68013">
        <ele>341.698059</ele>
        <time>2016-09-25T07:00:39Z</time>
      </trkpt>
      <trkpt lat="45.70077" lon="4.6802">
        <ele>341.824646</ele>
        <time>2016-09-25T07:00:41Z</time>
      </trkpt>
      <trkpt lat="45.70081" lon="4.68027">
        <ele>341.832428</ele>
        <time>2016-09-25T07:00:43Z</time>
      </trkpt>
      <trkpt lat="45.70086" lon="4.68032">
        <ele>342.032532</ele>
        <time>2016-09-25T07:00:45Z</time>
      </trkpt>
      <trkpt lat="45.70092" lon="4.68034">
        <ele>342.090271</ele>
        <time>2016-09-25T07:00:47Z</time>
      </trkpt>
      <trkpt lat="45.70096" lon="4.6803">
        <ele>342.415344</ele>
        <time>2016-09-25T07:00:49Z</time>
      </trkpt>
      <trkpt lat="45.701" lon="4.68024">
        <ele>342.583069</ele>
        <time>2016-09-25T07:00:51Z</time>
      </trkpt>
      <trkpt lat="45.70104" lon="4.68019">
        <ele>342.831726</ele>
        <time>2016-09-25T07:00:53Z</time>
      </trkpt>
      <trkpt lat="45.70109" lon="4.68014">
        <ele>342.994324</ele>
        <time>2016-09-25T07:00:55Z</time>
      </trkpt>
      <trkpt lat="45.70114" lon="4.68009">
        <ele>343.235748</ele>
        <time>2016-09-25T07:00:57Z</time>
      </trkpt>
      <trkpt lat="45.70118" lon="4.68004">
        <ele>343.451752</ele>
        <time>2016-09-25T07:00:59Z</time>
      </trkpt>
      <trkpt lat="45.70121" lon="4.67999">
        <ele>343.828278</ele>
        <time>2016-09-25T07:01:01Z</time>
      </trkpt>
      <trkpt lat="45.70125" lon="4.67994">
        <ele>344.197571</ele>
        <time>2016-09-25T07:01:03Z</time>
      </trkpt>
      <trkpt lat="45.70129" lon="4.67989">
        <ele>344.520569</ele>
        <time>2016-09-25T07:01:05Z</time>
      </trkpt>
      <trkpt lat="45.70132" lon="4.67984">
        <ele>344.689545</ele>
        <time>2016-09-25T07:01:07Z</time>
      </trkpt>
      <trkpt lat="45.70136" lon="4.67978">
        <ele>345.140961</ele>
        <time>2016-09-25T07:01:09Z</time>
      </trkpt>
      <trkpt lat="45.70139" lon="4.67971">
        <ele>345.339905</ele>
        <time>2016-09-25T07:01:11Z</time>
      </trkpt>
      <trkpt lat="45.70143" lon="4.67963">
        <ele>345.569611</ele>
        <time>2016-09-25T07:01:13Z</time>
      </trkpt>
      <trkpt lat="45.70146" lon="4.67956">
        <ele>345.672302</ele>
        <time>2016-09-25T07:01:15Z</time>
      </trkpt>
      <trkpt lat="45.70151" lon="4.6795">
        <ele>345.965393</ele>
        <time>2016-09-25T07:01:17Z</time>
      </trkpt>
      <trkpt lat="45.70157" lon="4.67944">
        <ele>346.254211</ele>
        <time>2016-09-25T07:01:19Z</time>
      </trkpt>
      <trkpt lat="45.70163" lon="4.67942">
        <ele>346.527924</ele>
        <time>2016-09-25T07:01:21Z</time>
      </trkpt>
      <trkpt lat="45.7017" lon="4.67941">
        <ele>346.824463</ele>
        <time>2016-09-25T07:01:23Z</time>
      </trkpt>
      <trkpt lat="45.70177" lon="4.67941">
        <ele>347.174652</ele>
        <time>2016-09-25T07:01:25Z</time>
      </trkpt>
      <trkpt lat="45.70184" lon="4.6794">
        <ele>347.42923</ele>
        <time>2016-09-25T07:01:27Z</time>
      </trkpt>
      <trkpt lat="45.70192" lon="4.67939">
        <ele>347.692413</ele>
        <time>2016-09-25T07:01:29Z</time>
      </trkpt>
      <trkpt lat="45.702" lon="4.6794">
        <ele>347.951355</ele>
        <time>2016-09-25T07:01:31Z</time>
      </trkpt>
      <trkpt lat="45.70207" lon="4.6794">
        <ele>347.823029</ele>
        <time>2016-09-25T07:01:33Z</time>
      </trkpt>
      <trkpt lat="45.70215" lon="4.6794">
        <ele>348.136047</ele>
        <time>2016-09-25T07:01:35Z</time>
      </trkpt>
      <trkpt lat="45.70222" lon="4.67939">
        <ele>348.264496</ele>
        <time>2016-09-25T07:01:37Z</time>
      </trkpt>
      <trkpt lat="45.70231" lon="4.67939">
        <ele>348.510925</ele>
        <time>2016-09-25T07:01:39Z</time>
      </trkpt>
      <trkpt lat="45.7024" lon="4.67939">
        <ele>348.534454</ele>
        <time>2016-09-25T07:01:41Z</time>
      </trkpt>
      <trkpt lat="45.70252" lon="4.67937">
        <ele>348.476654</ele>
        <time>2016-09-25T07:01:43Z</time>
      </trkpt>
      <trkpt lat="45.70262" lon="4.67935">
        <ele>348.447266</ele>
        <time>2016-09-25T07:01:45Z</time>
      </trkpt>
      <trkpt lat="45.70273" lon="4.6793">
        <ele>348.654938</ele>
        <time>2016-09-25T07:01:47Z</time>
      </trkpt>
      <trkpt lat="45.70284" lon="4.67923">
        <ele>348.650635</ele>
        <time>2016-09-25T07:01:49Z</time>
      </trkpt>
      <trkpt lat="45.70294" lon="4.67916">
        <ele>348.546997</ele>
        <time>2016-09-25T07:01:51Z</time>
      </trkpt>
      <trkpt lat="45.70305" lon="4.6791">
        <ele>348.45285</ele>
        <time>2016-09-25T07:01:53Z</time>
      </trkpt>
      <trkpt lat="45.70316" lon="4.67908">
        <ele>348.427185</ele>
        <time>2016-09-25T07:01:55Z</time>
      </trkpt>
      <trkpt lat="45.70328" lon="4.67908">
        <ele>348.427185</ele>
        <time>2016-09-25T07:01:57Z</time>
      </trkpt>
      <trkpt lat="45.70339" lon="4.67908">
        <ele>348.168396</ele>
        <time>2016-09-25T07:01:59Z</time>
      </trkpt>
      <trkpt lat="45.70349" lon="4.67909">
        <ele>348.120422</ele>
        <time>2016-09-25T07:02:01Z</time>
      </trkpt>
      <trkpt lat="45.70359" lon="4.67909">
        <ele>347.995239</ele>
        <time>2016-09-25T07:02:03Z</time>
      </trkpt>
      <trkpt lat="45.70367" lon="4.67906">
        <ele>347.738953</ele>
        <time>2016-09-25T07:02:05Z</time>
      </trkpt>
      <trkpt lat="45.70371" lon="4.67898">
        <ele>347.591309</ele>
        <time>2016-09-25T07:02:07Z</time>
      </trkpt>
      <trkpt lat="45.70369" lon="4.67889">
        <ele>347.559235</ele>
        <time>2016-09-25T07:02:09Z</time>
      </trkpt>
      <trkpt lat="45.70367" lon="4.67881">
        <ele>347.456482</ele>
        <time>2016-09-25T07:02:11Z</time>
      </trkpt>
      <trkpt lat="45.70366" lon="4.67875">
        <ele>347.317413</ele>
        <time>2016-09-25T07:02:13Z</time>
      </trkpt>
      <trkpt lat="45.70366" lon="4.6787">
        <ele>347.475891</ele>
        <time>2016-09-25T07:02:15Z</time>
      </trkpt>
      <trkpt lat="45.70366" lon="4.67867">
        <ele>347.244598</ele>
        <time>2016-09-25T07:02:17Z</time>
      </trkpt>
      <trkpt lat="45.70367" lon="4.67864">
        <ele>347.086243</ele>
        <time>2016-09-25T07:02:19Z</time>
      </trkpt>
      <trkpt lat="45.70369" lon="4.67863">
        <ele>346.983521</ele>
        <time>2016-09-25T07:02:21Z</time>
      </trkpt>
      <trkpt lat="45.70371" lon="4.67864">
        <ele>346.998505</ele>
        <time>2016-09-25T07:02:23Z</time>
      </trkpt>
      <trkpt lat="45.70372" lon="4.67865">
        <ele>346.940674</ele>
        <time>2016-09-25T07:02:25Z</time>
      </trkpt>
      <trkpt lat="45.70372" lon="4.67866">
        <ele>346.865204</ele>
        <time>2016-09-25T07:02:49Z</time>
      </trkpt>
      <trkpt lat="45.70375" lon="4.67866">
        <ele>346.77536</ele>
        <time>2016-09-25T07:02:51Z</time>
      </trkpt>
      <trkpt lat="45.70379" lon="4.67867">
        <ele>346.557159</ele>
        <time>2016-09-25T07:02:53Z</time>
      </trkpt>
      <trkpt lat="45.70373" lon="4.67865">
        <ele>346.405731</ele>
        <time>2016-09-25T07:03:23Z</time>
      </trkpt>
      <trkpt lat="45.70369" lon="4.67867">
        <ele>346.405334</ele>
        <time>2016-09-25T07:03:25Z</time>
      </trkpt>
      <trkpt lat="45.70367" lon="4.67869">
        <ele>346.326385</ele>
        <time>2016-09-25T07:03:27Z</time>
      </trkpt>
      <trkpt lat="45.70366" lon="4.67872">
        <ele>346.33493</ele>
        <time>2016-09-25T07:03:29Z</time>
      </trkpt>
      <trkpt lat="45.70366" lon="4.67876">
        <ele>346.352081</ele>
        <time>2016-09-25T07:03:31Z</time>
      </trkpt>
      <trkpt lat="45.70367" lon="4.67881">
        <ele>346.41629</ele>
        <time>2016-09-25T07:03:33Z</time>
      </trkpt>
      <trkpt lat="45.70369" lon="4.67886">
        <ele>346.637268</ele>
        <time>2016-09-25T07:03:35Z</time>
      </trkpt>
      <trkpt lat="45.70371" lon="4.67893">
        <ele>346.673645</ele>
        <time>2016-09-25T07:03:37Z</time>
      </trkpt>
      <trkpt lat="45.70372" lon="4.67899">
        <ele>346.68988</ele>
        <time>2016-09-25T07:03:39Z</time>
      </trkpt>
      <trkpt lat="45.70372" lon="4.67904">
        <ele>346.742798</ele>
        <time>2016-09-25T07:03:41Z</time>
      </trkpt>
      <trkpt lat="45.70373" lon="4.67907">
        <ele>346.784241</ele>
        <time>2016-09-25T07:03:43Z</time>
      </trkpt>
      <trkpt lat="45.70374" lon="4.6791">
        <ele>346.768738</ele>
        <time>2016-09-25T07:03:45Z</time>
      </trkpt>
      <trkpt lat="45.70376" lon="4.67913">
        <ele>346.76828</ele>
        <time>2016-09-25T07:03:47Z</time>
      </trkpt>
      <trkpt lat="45.7038" lon="4.67919">
        <ele>346.804657</ele>
        <time>2016-09-25T07:03:49Z</time>
      </trkpt>
      <trkpt lat="45.70385" lon="4.67928">
        <ele>346.773956</ele>
        <time>2016-09-25T07:03:51Z</time>
      </trkpt>
      <trkpt lat="45.7039" lon="4.67938">
        <ele>346.677704</ele>
        <time>2016-09-25T07:03:53Z</time>
      </trkpt>
      <trkpt lat="45.70395" lon="4.67947">
        <ele>346.523682</ele>
        <time>2016-09-25T07:03:55Z</time>
      </trkpt>
      <trkpt lat="45.704" lon="4.67954">
        <ele>346.279816</ele>
        <time>2016-09-25T07:03:57Z</time>
      </trkpt>
      <trkpt lat="45.70401" lon="4.67958">
        <ele>346.202789</ele>
        <time>2016-09-25T07:03:59Z</time>
      </trkpt>
      <trkpt lat="45.70406" lon="4.67964">
        <ele>344.695313</ele>
        <time>2016-09-25T07:04:22Z</time>
      </trkpt>
      <trkpt lat="45.70409" lon="4.67968">
        <ele>344.502777</ele>
        <time>2016-09-25T07:04:24Z</time>
      </trkpt>
      <trkpt lat="45.70416" lon="4.67975">
        <ele>343.823425</ele>
        <time>2016-09-25T07:04:26Z</time>
      </trkpt>
      <trkpt lat="45.70423" lon="4.6799">
        <ele>343.759918</ele>
        <time>2016-09-25T07:04:28Z</time>
      </trkpt>
      <trkpt lat="45.70429" lon="4.6801">
        <ele>343.464935</ele>
        <time>2016-09-25T07:04:30Z</time>
      </trkpt>
      <trkpt lat="45.70437" lon="4.68031">
        <ele>343.439392</ele>
        <time>2016-09-25T07:04:32Z</time>
      </trkpt>
      <trkpt lat="45.70446" lon="4.68052">
        <ele>343.239075</ele>
        <time>2016-09-25T07:04:34Z</time>
      </trkpt>
      <trkpt lat="45.70456" lon="4.68072">
        <ele>342.85849</ele>
        <time>2016-09-25T07:04:36Z</time>
      </trkpt>
      <trkpt lat="45.70467" lon="4.68087">
        <ele>342.330475</ele>
        <time>2016-09-25T07:04:38Z</time>
      </trkpt>
      <trkpt lat="45.70477" lon="4.68105">
        <ele>342.183258</ele>
        <time>2016-09-25T07:04:40Z</time>
      </trkpt>
      <trkpt lat="45.70488" lon="4.68124">
        <ele>341.494141</ele>
        <time>2016-09-25T07:04:42Z</time>
      </trkpt>
      <trkpt lat="45.70499" lon="4.68144">
        <ele>340.888031</ele>
        <time>2016-09-25T07:04:44Z</time>
      </trkpt>
      <trkpt lat="45.70511" lon="4.68157">
        <ele>340.153259</ele>
        <time>2016-09-25T07:04:46Z</time>
      </trkpt>
      <trkpt lat="45.7052" lon="4.68161">
        <ele>339.374329</ele>
        <time>2016-09-25T07:04:48Z</time>
      </trkpt>
      <trkpt lat="45.70529" lon="4.6816">
        <ele>338.492523</ele>
        <time>2016-09-25T07:04:50Z</time>
      </trkpt>
      <trkpt lat="45.70538" lon="4.68161">
        <ele>338.048004</ele>
        <time>2016-09-25T07:04:52Z</time>
      </trkpt>
      <trkpt lat="45.7055" lon="4.68161">
        <ele>337.379059</ele>
        <time>2016-09-25T07:04:54Z</time>
      </trkpt>
      <trkpt lat="45.70564" lon="4.68163">
        <ele>336.5224</ele>
        <time>2016-09-25T07:04:56Z</time>
      </trkpt>
      <trkpt lat="45.7058" lon="4.68164">
        <ele>335.864441</ele>
        <time>2016-09-25T07:04:58Z</time>
      </trkpt>
      <trkpt lat="45.70596" lon="4.68167">
        <ele>335.282959</ele>
        <time>2016-09-25T07:05:00Z</time>
      </trkpt>
      <trkpt lat="45.70612" lon="4.68173">
        <ele>334.49115</ele>
        <time>2016-09-25T07:05:02Z</time>
      </trkpt>
      <trkpt lat="45.7063" lon="4.6818">
        <ele>333.700256</ele>
        <time>2016-09-25T07:05:04Z</time>
      </trkpt>
      <trkpt lat="45.70647" lon="4.68185">
        <ele>332.995026</ele>
        <time>2016-09-25T07:05:06Z</time>
      </trkpt>
      <trkpt lat="45.70665" lon="4.68187">
        <ele>332.717285</ele>
        <time>2016-09-25T07:05:08Z</time>
      </trkpt>
      <trkpt lat="45.70681" lon="4.68189">
        <ele>331.717102</ele>
        <time>2016-09-25T07:05:10Z</time>
      </trkpt>
      <trkpt lat="45.70697" lon="4.68189">
        <ele>330.210266</ele>
        <time>2016-09-25T07:05:12Z</time>
      </trkpt>
      <trkpt lat="45.70713" lon="4.68192">
        <ele>328.971649</ele>
        <time>2016-09-25T07:05:14Z</time>
      </trkpt>
      <trkpt lat="45.70729" lon="4.68193">
        <ele>328.125916</ele>
        <time>2016-09-25T07:05:16Z</time>
      </trkpt>
      <trkpt lat="45.70745" lon="4.68191">
        <ele>327.687988</ele>
        <time>2016-09-25T07:05:18Z</time>
      </trkpt>
      <trkpt lat="45.7076" lon="4.68189">
        <ele>326.568237</ele>
        <time>2016-09-25T07:05:20Z</time>
      </trkpt>
      <trkpt lat="45.70775" lon="4.68186">
        <ele>325.970703</ele>
        <time>2016-09-25T07:05:22Z</time>
      </trkpt>
      <trkpt lat="45.70787" lon="4.68187">
        <ele>325.400604</ele>
        <time>2016-09-25T07:05:24Z</time>
      </trkpt>
      <trkpt lat="45.70794" lon="4.6819">
        <ele>324.677887</ele>
        <time>2016-09-25T07:05:26Z</time>
      </trkpt>
      <trkpt lat="45.708" lon="4.68194">
        <ele>323.303528</ele>
        <time>2016-09-25T07:05:28Z</time>
      </trkpt>
      <trkpt lat="45.70807" lon="4.68191">
        <ele>322.516968</ele>
        <time>2016-09-25T07:05:30Z</time>
      </trkpt>
      <trkpt lat="45.70816" lon="4.68183">
        <ele>321.414063</ele>
        <time>2016-09-25T07:05:32Z</time>
      </trkpt>
      <trkpt lat="45.70824" lon="4.68175">
        <ele>320.530334</ele>
        <time>2016-09-25T07:05:34Z</time>
      </trkpt>
      <trkpt lat="45.70831" lon="4.6817">
        <ele>319.649414</ele>
        <time>2016-09-25T07:05:36Z</time>
      </trkpt>
      <trkpt lat="45.70835" lon="4.68167">
        <ele>318.846863</ele>
        <time>2016-09-25T07:05:38Z</time>
      </trkpt>
      <trkpt lat="45.70837" lon="4.68167">
        <ele>317.627991</ele>
        <time>2016-09-25T07:05:40Z</time>
      </trkpt>
      <trkpt lat="45.70839" lon="4.68166">
        <ele>314.697449</ele>
        <time>2016-09-25T07:05:46Z</time>
      </trkpt>
      <trkpt lat="45.70842" lon="4.68164">
        <ele>313.888702</ele>
        <time>2016-09-25T07:05:48Z</time>
      </trkpt>
      <trkpt lat="45.70845" lon="4.68163">
        <ele>313.536682</ele>
        <time>2016-09-25T07:05:50Z</time>
      </trkpt>
      <trkpt lat="45.70847" lon="4.68162">
        <ele>312.55722</ele>
        <time>2016-09-25T07:05:54Z</time>
      </trkpt>
      <trkpt lat="45.7085" lon="4.68161">
        <ele>312.616913</ele>
        <time>2016-09-25T07:05:56Z</time>
      </trkpt>
      <trkpt lat="45.70853" lon="4.6816">
        <ele>312.134796</ele>
        <time>2016-09-25T07:05:58Z</time>
      </trkpt>
      <trkpt lat="45.70855" lon="4.6816">
        <ele>311.317688</ele>
        <time>2016-09-25T07:06:00Z</time>
      </trkpt>
      <trkpt lat="45.70858" lon="4.6816">
        <ele>310.867462</ele>
        <time>2016-09-25T07:06:02Z</time>
      </trkpt>
      <trkpt lat="45.7086" lon="4.6816">
        <ele>310.818359</ele>
        <time>2016-09-25T07:06:04Z</time>
      </trkpt>
      <trkpt lat="45.70862" lon="4.6816">
        <ele>310.813507</ele>
        <time>2016-09-25T07:06:06Z</time>
      </trkpt>
      <trkpt lat="45.70865" lon="4.68159">
        <ele>310.570221</ele>
        <time>2016-09-25T07:06:08Z</time>
      </trkpt>
      <trkpt lat="45.70867" lon="4.68159">
        <ele>311.01004</ele>
        <time>2016-09-25T07:06:10Z</time>
      </trkpt>
      <trkpt lat="45.70871" lon="4.68159">
        <ele>311.276489</ele>
        <time>2016-09-25T07:06:12Z</time>
      </trkpt>
      <trkpt lat="45.70873" lon="4.68159">
        <ele>311.419342</ele>
        <time>2016-09-25T07:06:16Z</time>
      </trkpt>
      <trkpt lat="45.70875" lon="4.68159">
        <ele>312.033295</ele>
        <time>2016-09-25T07:06:18Z</time>
      </trkpt>
      <trkpt lat="45.70878" lon="4.68159">
        <ele>312.180756</ele>
        <time>2016-09-25T07:06:20Z</time>
      </trkpt>
      <trkpt lat="45.7088" lon="4.68159">
        <ele>312.304352</ele>
        <time>2016-09-25T07:06:22Z</time>
      </trkpt>
      <trkpt lat="45.70883" lon="4.68159">
        <ele>312.53891</ele>
        <time>2016-09-25T07:06:24Z</time>
      </trkpt>
      <trkpt lat="45.70885" lon="4.68159">
        <ele>312.745789</ele>
        <time>2016-09-25T07:06:26Z</time>
      </trkpt>
      <trkpt lat="45.70889" lon="4.68159">
        <ele>313.386566</ele>
        <time>2016-09-25T07:06:32Z</time>
      </trkpt>
      <trkpt lat="45.7089" lon="4.68158">
        <ele>313.832336</ele>
        <time>2016-09-25T07:06:36Z</time>
      </trkpt>
      <trkpt lat="45.70892" lon="4.68157">
        <ele>314.161713</ele>
        <time>2016-09-25T07:06:38Z</time>
      </trkpt>
      <trkpt lat="45.70895" lon="4.68157">
        <ele>314.635284</ele>
        <time>2016-09-25T07:06:40Z</time>
      </trkpt>
      <trkpt lat="45.70897" lon="4.68157">
        <ele>314.887024</ele>
        <time>2016-09-25T07:06:42Z</time>
      </trkpt>
      <trkpt lat="45.709" lon="4.68157">
        <ele>315.138702</ele>
        <time>2016-09-25T07:06:44Z</time>
      </trkpt>
      <trkpt lat="45.70903" lon="4.68156">
        <ele>315.409637</ele>
        <time>2016-09-25T07:06:46Z</time>
      </trkpt>
      <trkpt lat="45.70905" lon="4.68156">
        <ele>315.653412</ele>
        <time>2016-09-25T07:06:48Z</time>
      </trkpt>
      <trkpt lat="45.70908" lon="4.68156">
        <ele>316.019501</ele>
        <time>2016-09-25T07:06:50Z</time>
      </trkpt>
      <trkpt lat="45.7091" lon="4.68156">
        <ele>316.405579</ele>
        <time>2016-09-25T07:06:52Z</time>
      </trkpt>
      <trkpt lat="45.70913" lon="4.68156">
        <ele>316.702148</ele>
        <time>2016-09-25T07:06:54Z</time>
      </trkpt>
      <trkpt lat="45.70915" lon="4.68156">
        <ele>316.842957</ele>
        <time>2016-09-25T07:06:56Z</time>
      </trkpt>
      <trkpt lat="45.70916" lon="4.68156">
        <ele>317.251526</ele>
        <time>2016-09-25T07:07:00Z</time>
      </trkpt>
      <trkpt lat="45.70918" lon="4.68156">
        <ele>317.503265</ele>
        <time>2016-09-25T07:07:02Z</time>
      </trkpt>
      <trkpt lat="45.7092" lon="4.68156">
        <ele>317.688904</ele>
        <time>2016-09-25T07:07:04Z</time>
      </trkpt>
      <trkpt lat="45.70923" lon="4.68155">
        <ele>318.214935</ele>
        <time>2016-09-25T07:07:08Z</time>
      </trkpt>
      <trkpt lat="45.70924" lon="4.68155">
        <ele>318.342987</ele>
        <time>2016-09-25T07:07:10Z</time>
      </trkpt>
      <trkpt lat="45.70927" lon="4.68154">
        <ele>318.851379</ele>
        <time>2016-09-25T07:07:14Z</time>
      </trkpt>
      <trkpt lat="45.70929" lon="4.68154">
        <ele>319.028503</ele>
        <time>2016-09-25T07:07:16Z</time>
      </trkpt>
      <trkpt lat="45.70931" lon="4.68154">
        <ele>319.23761</ele>
        <time>2016-09-25T07:07:18Z</time>
      </trkpt>
      <trkpt lat="45.70933" lon="4.68153">
        <ele>319.439423</ele>
        <time>2016-09-25T07:07:20Z</time>
      </trkpt>
      <trkpt lat="45.70935" lon="4.68153">
        <ele>319.60788</ele>
        <time>2016-09-25T07:07:22Z</time>
      </trkpt>
      <trkpt lat="45.70937" lon="4.68152">
        <ele>319.777222</ele>
        <time>2016-09-25T07:07:24Z</time>
      </trkpt>
      <trkpt lat="45.7094" lon="4.68151">
        <ele>319.913788</ele>
        <time>2016-09-25T07:07:26Z</time>
      </trkpt>
      <trkpt lat="45.70944" lon="4.6815">
        <ele>320.157135</ele>
        <time>2016-09-25T07:07:28Z</time>
      </trkpt>
      <trkpt lat="45.70949" lon="4.68149">
        <ele>320.284393</ele>
        <time>2016-09-25T07:07:30Z</time>
      </trkpt>
      <trkpt lat="45.70953" lon="4.68148">
        <ele>320.388977</ele>
        <time>2016-09-25T07:07:32Z</time>
      </trkpt>
      <trkpt lat="45.70958" lon="4.68146">
        <ele>320.529846</ele>
        <time>2016-09-25T07:07:34Z</time>
      </trkpt>
      <trkpt lat="45.70963" lon="4.68145">
        <ele>320.655762</ele>
        <time>2016-09-25T07:07:36Z</time>
      </trkpt>
      <trkpt lat="45.70968" lon="4.68143">
        <ele>320.764587</ele>
        <time>2016-09-25T07:07:38Z</time>
      </trkpt>
      <trkpt lat="45.70972" lon="4.6814">
        <ele>320.960693</ele>
        <time>2016-09-25T07:07:40Z</time>
      </trkpt>
      <trkpt lat="45.70979" lon="4.68138">
        <ele>321.227509</ele>
        <time>2016-09-25T07:07:42Z</time>
      </trkpt>
      <trkpt lat="45.70985" lon="4.68135">
        <ele>321.413208</ele>
        <time>2016-09-25T07:07:44Z</time>
      </trkpt>
      <trkpt lat="45.70991" lon="4.68132">
        <ele>321.55835</ele>
        <time>2016-09-25T07:07:46Z</time>
      </trkpt>
      <trkpt lat="45.70997" lon="4.6813">
        <ele>321.859344</ele>
        <time>2016-09-25T07:07:48Z</time>
      </trkpt>
      <trkpt lat="45.71003" lon="4.68127">
        <ele>322.117004</ele>
        <time>2016-09-25T07:07:50Z</time>
      </trkpt>
      <trkpt lat="45.71006" lon="4.68122">
        <ele>322.358215</ele>
        <time>2016-09-25T07:07:52Z</time>
      </trkpt>
      <trkpt lat="45.71006" lon="4.68117">
        <ele>322.443054</ele>
        <time>2016-09-25T07:07:54Z</time>
      </trkpt>
      <trkpt lat="45.71006" lon="4.68111">
        <ele>322.50708</ele>
        <time>2016-09-25T07:07:56Z</time>
      </trkpt>
      <trkpt lat="45.71005" lon="4.68106">
        <ele>322.655975</ele>
        <time>2016-09-25T07:07:58Z</time>
      </trkpt>
      <trkpt lat="45.71005" lon="4.68102">
        <ele>322.869446</ele>
        <time>2016-09-25T07:08:00Z</time>
      </trkpt>
      <trkpt lat="45.71005" lon="4.68097">
        <ele>323.063751</ele>
        <time>2016-09-25T07:08:02Z</time>
      </trkpt>
      <trkpt lat="45.71006" lon="4.68093">
        <ele>323.085114</ele>
        <time>2016-09-25T07:08:04Z</time>
      </trkpt>
      <trkpt lat="45.71006" lon="4.68089">
        <ele>323.573273</ele>
        <time>2016-09-25T07:08:06Z</time>
      </trkpt>
      <trkpt lat="45.71005" lon="4.68085">
        <ele>323.752625</ele>
        <time>2016-09-25T07:08:08Z</time>
      </trkpt>
      <trkpt lat="45.71006" lon="4.6808">
        <ele>324.05072</ele>
        <time>2016-09-25T07:08:10Z</time>
      </trkpt>
      <trkpt lat="45.71006" lon="4.68076">
        <ele>324.469177</ele>
        <time>2016-09-25T07:08:12Z</time>
      </trkpt>
      <trkpt lat="45.71005" lon="4.68072">
        <ele>324.859955</ele>
        <time>2016-09-25T07:08:14Z</time>
      </trkpt>
      <trkpt lat="45.71005" lon="4.68067">
        <ele>325.304077</ele>
        <time>2016-09-25T07:08:16Z</time>
      </trkpt>
      <trkpt lat="45.71005" lon="4.68063">
        <ele>325.733307</ele>
        <time>2016-09-25T07:08:18Z</time>
      </trkpt>
      <trkpt lat="45.71005" lon="4.68059">
        <ele>326.116882</ele>
        <time>2016-09-25T07:08:20Z</time>
      </trkpt>
      <trkpt lat="45.71005" lon="4.68054">
        <ele>326.481934</ele>
        <time>2016-09-25T07:08:22Z</time>
      </trkpt>
      <trkpt lat="45.71006" lon="4.6805">
        <ele>326.59726</ele>
        <time>2016-09-25T07:08:24Z</time>
      </trkpt>
      <trkpt lat="45.71006" lon="4.68046">
        <ele>327.013672</ele>
        <time>2016-09-25T07:08:26Z</time>
      </trkpt>
      <trkpt lat="45.71006" lon="4.68041">
        <ele>327.434387</ele>
        <time>2016-09-25T07:08:28Z</time>
      </trkpt>
      <trkpt lat="45.71006" lon="4.68037">
        <ele>327.759033</ele>
        <time>2016-09-25T07:08:30Z</time>
      </trkpt>
      <trkpt lat="45.71006" lon="4.68033">
        <ele>328.169708</ele>
        <time>2016-09-25T07:08:32Z</time>
      </trkpt>
      <trkpt lat="45.71006" lon="4.68028">
        <ele>328.558472</ele>
        <time>2016-09-25T07:08:34Z</time>
      </trkpt>
      <trkpt lat="45.71006" lon="4.68024">
        <ele>328.976746</ele>
        <time>2016-09-25T07:08:36Z</time>
      </trkpt>
      <trkpt lat="45.71006" lon="4.6802">
        <ele>329.507507</ele>
        <time>2016-09-25T07:08:38Z</time>
      </trkpt>
      <trkpt lat="45.71005" lon="4.68015">
        <ele>329.994446</ele>
        <time>2016-09-25T07:08:40Z</time>
      </trkpt>
      <trkpt lat="45.71005" lon="4.68011">
        <ele>330.429565</ele>
        <time>2016-09-25T07:08:42Z</time>
      </trkpt>
      <trkpt lat="45.71005" lon="4.68006">
        <ele>330.89093</ele>
        <time>2016-09-25T07:08:44Z</time>
      </trkpt>
      <trkpt lat="45.71005" lon="4.68002">
        <ele>331.339478</ele>
        <time>2016-09-25T07:08:46Z</time>
      </trkpt>
      <trkpt lat="45.71005" lon="4.67997">
        <ele>331.632233</ele>
        <time>2016-09-25T07:08:48Z</time>
      </trkpt>
      <trkpt lat="45.71005" lon="4.67993">
        <ele>331.858704</ele>
        <time>2016-09-25T07:08:50Z</time>
      </trkpt>
      <trkpt lat="45.71005" lon="4.67989">
        <ele>332.265778</ele>
        <time>2016-09-25T07:08:52Z</time>
      </trkpt>
      <trkpt lat="45.71005" lon="4.67985">
        <ele>332.652527</ele>
        <time>2016-09-25T07:08:54Z</time>
      </trkpt>
      <trkpt lat="45.71005" lon="4.6798">
        <ele>332.959534</ele>
        <time>2016-09-25T07:08:56Z</time>
      </trkpt>
      <trkpt lat="45.71005" lon="4.67976">
        <ele>333.395447</ele>
        <time>2016-09-25T07:08:58Z</time>
      </trkpt>
      <trkpt lat="45.71005" lon="4.67972">
        <ele>333.733093</ele>
        <time>2016-09-25T07:09:00Z</time>
      </trkpt>
      <trkpt lat="45.71005" lon="4.67968">
        <ele>334.149841</ele>
        <time>2016-09-25T07:09:02Z</time>
      </trkpt>
      <trkpt lat="45.71005" lon="4.67963">
        <ele>334.557068</ele>
        <time>2016-09-25T07:09:04Z</time>
      </trkpt>
      <trkpt lat="45.71006" lon="4.67959">
        <ele>335.027344</ele>
        <time>2016-09-25T07:09:06Z</time>
      </trkpt>
      <trkpt lat="45.71006" lon="4.67954">
        <ele>335.382141</ele>
        <time>2016-09-25T07:09:08Z</time>
      </trkpt>
      <trkpt lat="45.71006" lon="4.6795">
        <ele>335.781799</ele>
        <time>2016-09-25T07:09:10Z</time>
      </trkpt>
      <trkpt lat="45.71006" lon="4.67945">
        <ele>336.183655</ele>
        <time>2016-09-25T07:09:12Z</time>
      </trkpt>
      <trkpt lat="45.71006" lon="4.6794">
        <ele>336.576965</ele>
        <time>2016-09-25T07:09:14Z</time>
      </trkpt>
      <trkpt lat="45.71006" lon="4.67936">
        <ele>336.972748</ele>
        <time>2016-09-25T07:09:16Z</time>
      </trkpt>
      <trkpt lat="45.71006" lon="4.67931">
        <ele>337.177979</ele>
        <time>2016-09-25T07:09:18Z</time>
      </trkpt>
      <trkpt lat="45.71006" lon="4.67926">
        <ele>337.619781</ele>
        <time>2016-09-25T07:09:20Z</time>
      </trkpt>
      <trkpt lat="45.71006" lon="4.67922">
        <ele>338.02594</ele>
        <time>2016-09-25T07:09:22Z</time>
      </trkpt>
      <trkpt lat="45.71006" lon="4.67917">
        <ele>338.460632</ele>
        <time>2016-09-25T07:09:24Z</time>
      </trkpt>
      <trkpt lat="45.71006" lon="4.67913">
        <ele>338.954529</ele>
        <time>2016-09-25T07:09:26Z</time>
      </trkpt>
      <trkpt lat="45.71006" lon="4.67908">
        <ele>339.429138</ele>
        <time>2016-09-25T07:09:28Z</time>
      </trkpt>
      <trkpt lat="45.71005" lon="4.67904">
        <ele>339.850372</ele>
        <time>2016-09-25T07:09:30Z</time>
      </trkpt>
      <trkpt lat="45.71005" lon="4.67899">
        <ele>340.336121</ele>
        <time>2016-09-25T07:09:32Z</time>
      </trkpt>
      <trkpt lat="45.71006" lon="4.67895">
        <ele>340.6633</ele>
        <time>2016-09-25T07:09:34Z</time>
      </trkpt>
      <trkpt lat="45.71005" lon="4.6789">
        <ele>341.0867</ele>
        <time>2016-09-25T07:09:36Z</time>
      </trkpt>
      <trkpt lat="45.71005" lon="4.67886">
        <ele>341.453064</ele>
        <time>2016-09-25T07:09:38Z</time>
      </trkpt>
      <trkpt lat="45.71007" lon="4.67882">
        <ele>341.624146</ele>
        <time>2016-09-25T07:09:41Z</time>
      </trkpt>
      <trkpt lat="45.71006" lon="4.67875">
        <ele>345.417786</ele>
        <time>2016-09-25T07:10:34Z</time>
      </trkpt>
      <trkpt lat="45.71004" lon="4.67867">
        <ele>345.467773</ele>
        <time>2016-09-25T07:10:36Z</time>
      </trkpt>
      <trkpt lat="45.71003" lon="4.67862">
        <ele>345.589752</ele>
        <time>2016-09-25T07:10:38Z</time>
      </trkpt>
      <trkpt lat="45.71002" lon="4.67856">
        <ele>345.786591</ele>
        <time>2016-09-25T07:10:40Z</time>
      </trkpt>
      <trkpt lat="45.71001" lon="4.67847">
        <ele>345.846619</ele>
        <time>2016-09-25T07:10:43Z</time>
      </trkpt>
      <trkpt lat="45.71001" lon="4.67841">
        <ele>345.89798</ele>
        <time>2016-09-25T07:10:45Z</time>
      </trkpt>
      <trkpt lat="45.71001" lon="4.67834">
        <ele>346.090576</ele>
        <time>2016-09-25T07:10:47Z</time>
      </trkpt>
      <trkpt lat="45.71001" lon="4.67828">
        <ele>346.102875</ele>
        <time>2016-09-25T07:10:49Z</time>
      </trkpt>
      <trkpt lat="45.71001" lon="4.67822">
        <ele>346.185669</ele>
        <time>2016-09-25T07:10:51Z</time>
      </trkpt>
      <trkpt lat="45.71001" lon="4.67814">
        <ele>346.290009</ele>
        <time>2016-09-25T07:10:53Z</time>
      </trkpt>
      <trkpt lat="45.71" lon="4.67806">
        <ele>346.523254</ele>
        <time>2016-09-25T07:10:55Z</time>
      </trkpt>
      <trkpt lat="45.71" lon="4.67798">
        <ele>346.716003</ele>
        <time>2016-09-25T07:10:57Z</time>
      </trkpt>
      <trkpt lat="45.71" lon="4.6779">
        <ele>347.054138</ele>
        <time>2016-09-25T07:10:59Z</time>
      </trkpt>
      <trkpt lat="45.71001" lon="4.67782">
        <ele>347.283997</ele>
        <time>2016-09-25T07:11:01Z</time>
      </trkpt>
      <trkpt lat="45.71002" lon="4.67775">
        <ele>347.681274</ele>
        <time>2016-09-25T07:11:03Z</time>
      </trkpt>
      <trkpt lat="45.71003" lon="4.67767">
        <ele>348.019409</ele>
        <time>2016-09-25T07:11:05Z</time>
      </trkpt>
      <trkpt lat="45.71002" lon="4.6776">
        <ele>348.430359</ele>
        <time>2016-09-25T07:11:07Z</time>
      </trkpt>
      <trkpt lat="45.71" lon="4.67752">
        <ele>348.777039</ele>
        <time>2016-09-25T07:11:09Z</time>
      </trkpt>
      <trkpt lat="45.70998" lon="4.67744">
        <ele>349.102356</ele>
        <time>2016-09-25T07:11:11Z</time>
      </trkpt>
      <trkpt lat="45.70995" lon="4.67737">
        <ele>349.247864</ele>
        <time>2016-09-25T07:11:13Z</time>
      </trkpt>
      <trkpt lat="45.70994" lon="4.6773">
        <ele>349.618134</ele>
        <time>2016-09-25T07:11:15Z</time>
      </trkpt>
      <trkpt lat="45.70992" lon="4.67723">
        <ele>349.941284</ele>
        <time>2016-09-25T07:11:17Z</time>
      </trkpt>
      <trkpt lat="45.7099" lon="4.67716">
        <ele>350.372833</ele>
        <time>2016-09-25T07:11:19Z</time>
      </trkpt>
      <trkpt lat="45.70989" lon="4.67708">
        <ele>350.666077</ele>
        <time>2016-09-25T07:11:21Z</time>
      </trkpt>
      <trkpt lat="45.70988" lon="4.677">
        <ele>350.912781</ele>
        <time>2016-09-25T07:11:23Z</time>
      </trkpt>
      <trkpt lat="45.70987" lon="4.67692">
        <ele>351.347198</ele>
        <time>2016-09-25T07:11:25Z</time>
      </trkpt>
      <trkpt lat="45.70986" lon="4.67684">
        <ele>351.850311</ele>
        <time>2016-09-25T07:11:27Z</time>
      </trkpt>
      <trkpt lat="45.70985" lon="4.67676">
        <ele>352.253357</ele>
        <time>2016-09-25T07:11:29Z</time>
      </trkpt>
      <trkpt lat="45.70983" lon="4.67669">
        <ele>352.695374</ele>
        <time>2016-09-25T07:11:31Z</time>
      </trkpt>
      <trkpt lat="45.70981" lon="4.67661">
        <ele>353.123138</ele>
        <time>2016-09-25T07:11:33Z</time>
      </trkpt>
      <trkpt lat="45.70979" lon="4.67654">
        <ele>353.639099</ele>
        <time>2016-09-25T07:11:35Z</time>
      </trkpt>
      <trkpt lat="45.70977" lon="4.67647">
        <ele>354.062927</ele>
        <time>2016-09-25T07:11:37Z</time>
      </trkpt>
      <trkpt lat="45.70976" lon="4.67639">
        <ele>354.424835</ele>
        <time>2016-09-25T07:11:39Z</time>
      </trkpt>
      <trkpt lat="45.70974" lon="4.67632">
        <ele>354.960205</ele>
        <time>2016-09-25T07:11:41Z</time>
      </trkpt>
      <trkpt lat="45.70973" lon="4.67625">
        <ele>355.234314</ele>
        <time>2016-09-25T07:11:43Z</time>
      </trkpt>
      <trkpt lat="45.70972" lon="4.67617">
        <ele>355.488739</ele>
        <time>2016-09-25T07:11:45Z</time>
      </trkpt>
      <trkpt lat="45.70971" lon="4.6761">
        <ele>355.862305</ele>
        <time>2016-09-25T07:11:47Z</time>
      </trkpt>
      <trkpt lat="45.7097" lon="4.67603">
        <ele>356.132141</ele>
        <time>2016-09-25T07:11:49Z</time>
      </trkpt>
      <trkpt lat="45.70969" lon="4.67597">
        <ele>356.534088</ele>
        <time>2016-09-25T07:11:51Z</time>
      </trkpt>
      <trkpt lat="45.70968" lon="4.67591">
        <ele>356.926086</ele>
        <time>2016-09-25T07:11:53Z</time>
      </trkpt>
      <trkpt lat="45.70967" lon="4.67584">
        <ele>357.405853</ele>
        <time>2016-09-25T07:11:55Z</time>
      </trkpt>
      <trkpt lat="45.70966" lon="4.67578">
        <ele>357.97345</ele>
        <time>2016-09-25T07:11:57Z</time>
      </trkpt>
      <trkpt lat="45.70964" lon="4.67572">
        <ele>358.151184</ele>
        <time>2016-09-25T07:11:59Z</time>
      </trkpt>
      <trkpt lat="45.70963" lon="4.67566">
        <ele>358.585175</ele>
        <time>2016-09-25T07:12:01Z</time>
      </trkpt>
      <trkpt lat="45.70962" lon="4.6756">
        <ele>359.088928</ele>
        <time>2016-09-25T07:12:03Z</time>
      </trkpt>
      <trkpt lat="45.70961" lon="4.67554">
        <ele>359.570374</ele>
        <time>2016-09-25T07:12:05Z</time>
      </trkpt>
      <trkpt lat="45.7096" lon="4.67548">
        <ele>360.030273</ele>
        <time>2016-09-25T07:12:07Z</time>
      </trkpt>
      <trkpt lat="45.70958" lon="4.67542">
        <ele>360.387177</ele>
        <time>2016-09-25T07:12:09Z</time>
      </trkpt>
      <trkpt lat="45.70957" lon="4.67535">
        <ele>360.789978</ele>
        <time>2016-09-25T07:12:11Z</time>
      </trkpt>
      <trkpt lat="45.70956" lon="4.67529">
        <ele>361.310608</ele>
        <time>2016-09-25T07:12:13Z</time>
      </trkpt>
      <trkpt lat="45.70955" lon="4.67523">
        <ele>361.780609</ele>
        <time>2016-09-25T07:12:15Z</time>
      </trkpt>
      <trkpt lat="45.70954" lon="4.67517">
        <ele>362.155579</ele>
        <time>2016-09-25T07:12:17Z</time>
      </trkpt>
      <trkpt lat="45.70954" lon="4.67511">
        <ele>362.569153</ele>
        <time>2016-09-25T07:12:19Z</time>
      </trkpt>
      <trkpt lat="45.70955" lon="4.67505">
        <ele>362.935608</ele>
        <time>2016-09-25T07:12:21Z</time>
      </trkpt>
      <trkpt lat="45.70955" lon="4.67499">
        <ele>363.221985</ele>
        <time>2016-09-25T07:12:23Z</time>
      </trkpt>
      <trkpt lat="45.70956" lon="4.67493">
        <ele>363.453491</ele>
        <time>2016-09-25T07:12:25Z</time>
      </trkpt>
      <trkpt lat="45.70956" lon="4.67487">
        <ele>363.879211</ele>
        <time>2016-09-25T07:12:27Z</time>
      </trkpt>
      <trkpt lat="45.70957" lon="4.67481">
        <ele>364.26828</ele>
        <time>2016-09-25T07:12:29Z</time>
      </trkpt>
      <trkpt lat="45.70958" lon="4.67474">
        <ele>364.709747</ele>
        <time>2016-09-25T07:12:31Z</time>
      </trkpt>
      <trkpt lat="45.70959" lon="4.67466">
        <ele>365.042603</ele>
        <time>2016-09-25T07:12:33Z</time>
      </trkpt>
      <trkpt lat="45.7096" lon="4.67457">
        <ele>365.359802</ele>
        <time>2016-09-25T07:12:35Z</time>
      </trkpt>
      <trkpt lat="45.7096" lon="4.67447">
        <ele>365.647064</ele>
        <time>2016-09-25T07:12:37Z</time>
      </trkpt>
      <trkpt lat="45.70961" lon="4.67435">
        <ele>365.923584</ele>
        <time>2016-09-25T07:12:39Z</time>
      </trkpt>
      <trkpt lat="45.70962" lon="4.67424">
        <ele>366.278503</ele>
        <time>2016-09-25T07:12:41Z</time>
      </trkpt>
      <trkpt lat="45.70962" lon="4.6741">
        <ele>366.364258</ele>
        <time>2016-09-25T07:12:43Z</time>
      </trkpt>
      <trkpt lat="45.70962" lon="4.67395">
        <ele>366.533234</ele>
        <time>2016-09-25T07:12:45Z</time>
      </trkpt>
      <trkpt lat="45.7096" lon="4.6738">
        <ele>366.371033</ele>
        <time>2016-09-25T07:12:47Z</time>
      </trkpt>
      <trkpt lat="45.70956" lon="4.67367">
        <ele>366.480408</ele>
        <time>2016-09-25T07:12:49Z</time>
      </trkpt>
      <trkpt lat="45.70951" lon="4.67354">
        <ele>366.60907</ele>
        <time>2016-09-25T07:12:51Z</time>
      </trkpt>
      <trkpt lat="45.70946" lon="4.67343">
        <ele>366.780579</ele>
        <time>2016-09-25T07:12:53Z</time>
      </trkpt>
      <trkpt lat="45.7094" lon="4.67332">
        <ele>366.831238</ele>
        <time>2016-09-25T07:12:55Z</time>
      </trkpt>
      <trkpt lat="45.70935" lon="4.6732">
        <ele>366.809784</ele>
        <time>2016-09-25T07:12:57Z</time>
      </trkpt>
      <trkpt lat="45.70929" lon="4.67309">
        <ele>367.017822</ele>
        <time>2016-09-25T07:12:59Z</time>
      </trkpt>
      <trkpt lat="45.70924" lon="4.67297">
        <ele>366.90213</ele>
        <time>2016-09-25T07:13:01Z</time>
      </trkpt>
      <trkpt lat="45.70919" lon="4.67285">
        <ele>367.005035</ele>
        <time>2016-09-25T07:13:03Z</time>
      </trkpt>
      <trkpt lat="45.70914" lon="4.67273">
        <ele>367.089447</ele>
        <time>2016-09-25T07:13:05Z</time>
      </trkpt>
      <trkpt lat="45.70911" lon="4.67262">
        <ele>367.109924</ele>
        <time>2016-09-25T07:13:07Z</time>
      </trkpt>
      <trkpt lat="45.70909" lon="4.67249">
        <ele>367.262146</ele>
        <time>2016-09-25T07:13:09Z</time>
      </trkpt>
      <trkpt lat="45.70907" lon="4.67237">
        <ele>367.114227</ele>
        <time>2016-09-25T07:13:11Z</time>
      </trkpt>
      <trkpt lat="45.70906" lon="4.67227">
        <ele>367.254333</ele>
        <time>2016-09-25T07:13:13Z</time>
      </trkpt>
      <trkpt lat="45.70905" lon="4.67218">
        <ele>367.413025</ele>
        <time>2016-09-25T07:13:15Z</time>
      </trkpt>
      <trkpt lat="45.70904" lon="4.67208">
        <ele>367.485901</ele>
        <time>2016-09-25T07:13:17Z</time>
      </trkpt>
      <trkpt lat="45.70902" lon="4.67199">
        <ele>367.593719</ele>
        <time>2016-09-25T07:13:19Z</time>
      </trkpt>
      <trkpt lat="45.709" lon="4.67189">
        <ele>367.574432</ele>
        <time>2016-09-25T07:13:21Z</time>
      </trkpt>
      <trkpt lat="45.70903" lon="4.67179">
        <ele>367.490448</ele>
        <time>2016-09-25T07:13:23Z</time>
      </trkpt>
      <trkpt lat="45.7091" lon="4.67174">
        <ele>367.865601</ele>
        <time>2016-09-25T07:13:25Z</time>
      </trkpt>
      <trkpt lat="45.70919" lon="4.67171">
        <ele>367.822723</ele>
        <time>2016-09-25T07:13:27Z</time>
      </trkpt>
      <trkpt lat="45.70929" lon="4.67167">
        <ele>368.10379</ele>
        <time>2016-09-25T07:13:29Z</time>
      </trkpt>
      <trkpt lat="45.7094" lon="4.67161">
        <ele>368.075867</ele>
        <time>2016-09-25T07:13:31Z</time>
      </trkpt>
      <trkpt lat="45.70953" lon="4.67155">
        <ele>368.096039</ele>
        <time>2016-09-25T07:13:33Z</time>
      </trkpt>
      <trkpt lat="45.70968" lon="4.67151">
        <ele>367.873108</ele>
        <time>2016-09-25T07:13:35Z</time>
      </trkpt>
      <trkpt lat="45.70975" lon="4.67142">
        <ele>367.761658</ele>
        <time>2016-09-25T07:13:37Z</time>
      </trkpt>
      <trkpt lat="45.70975" lon="4.67134">
        <ele>367.652374</ele>
        <time>2016-09-25T07:13:39Z</time>
      </trkpt>
      <trkpt lat="45.70972" lon="4.67129">
        <ele>367.551483</ele>
        <time>2016-09-25T07:13:41Z</time>
      </trkpt>
      <trkpt lat="45.70969" lon="4.67122">
        <ele>367.3078</ele>
        <time>2016-09-25T07:13:43Z</time>
      </trkpt>
      <trkpt lat="45.70966" lon="4.67116">
        <ele>367.230652</ele>
        <time>2016-09-25T07:13:45Z</time>
      </trkpt>
      <trkpt lat="45.70964" lon="4.67109">
        <ele>367.041992</ele>
        <time>2016-09-25T07:13:47Z</time>
      </trkpt>
      <trkpt lat="45.70962" lon="4.67104">
        <ele>366.863464</ele>
        <time>2016-09-25T07:13:49Z</time>
      </trkpt>
      <trkpt lat="45.7096" lon="4.67099">
        <ele>366.658203</ele>
        <time>2016-09-25T07:13:51Z</time>
      </trkpt>
      <trkpt lat="45.70959" lon="4.67095">
        <ele>366.646729</ele>
        <time>2016-09-25T07:13:53Z</time>
      </trkpt>
      <trkpt lat="45.70957" lon="4.67092">
        <ele>366.530945</ele>
        <time>2016-09-25T07:13:55Z</time>
      </trkpt>
      <trkpt lat="45.70955" lon="4.67087">
        <ele>366.440857</ele>
        <time>2016-09-25T07:13:57Z</time>
      </trkpt>
      <trkpt lat="45.70953" lon="4.67083">
        <ele>366.333527</ele>
        <time>2016-09-25T07:13:59Z</time>
      </trkpt>
      <trkpt lat="45.70952" lon="4.67079">
        <ele>366.560272</ele>
        <time>2016-09-25T07:14:01Z</time>
      </trkpt>
      <trkpt lat="45.7095" lon="4.67075">
        <ele>366.607452</ele>
        <time>2016-09-25T07:14:03Z</time>
      </trkpt>
      <trkpt lat="45.70948" lon="4.6707">
        <ele>366.669586</ele>
        <time>2016-09-25T07:14:05Z</time>
      </trkpt>
      <trkpt lat="45.70946" lon="4.67066">
        <ele>366.699615</ele>
        <time>2016-09-25T07:14:07Z</time>
      </trkpt>
      <trkpt lat="45.70944" lon="4.67062">
        <ele>366.954529</ele>
        <time>2016-09-25T07:14:09Z</time>
      </trkpt>
      <trkpt lat="45.70941" lon="4.67058">
        <ele>367.235382</ele>
        <time>2016-09-25T07:14:11Z</time>
      </trkpt>
      <trkpt lat="45.70939" lon="4.67054">
        <ele>367.569977</ele>
        <time>2016-09-25T07:14:13Z</time>
      </trkpt>
      <trkpt lat="45.70937" lon="4.67049">
        <ele>367.964539</ele>
        <time>2016-09-25T07:14:15Z</time>
      </trkpt>
      <trkpt lat="45.70935" lon="4.67044">
        <ele>368.388031</ele>
        <time>2016-09-25T07:14:17Z</time>
      </trkpt>
      <trkpt lat="45.70932" lon="4.67039">
        <ele>368.919739</ele>
        <time>2016-09-25T07:14:19Z</time>
      </trkpt>
      <trkpt lat="45.70931" lon="4.67035">
        <ele>369.282166</ele>
        <time>2016-09-25T07:14:21Z</time>
      </trkpt>
      <trkpt lat="45.7093" lon="4.67031">
        <ele>369.897583</ele>
        <time>2016-09-25T07:14:23Z</time>
      </trkpt>
      <trkpt lat="45.70929" lon="4.67027">
        <ele>370.134857</ele>
        <time>2016-09-25T07:14:25Z</time>
      </trkpt>
      <trkpt lat="45.70927" lon="4.67022">
        <ele>370.611023</ele>
        <time>2016-09-25T07:14:27Z</time>
      </trkpt>
      <trkpt lat="45.70926" lon="4.67019">
        <ele>371.32309</ele>
        <time>2016-09-25T07:14:29Z</time>
      </trkpt>
      <trkpt lat="45.70925" lon="4.67014">
        <ele>371.849121</ele>
        <time>2016-09-25T07:14:31Z</time>
      </trkpt>
      <trkpt lat="45.70924" lon="4.67009">
        <ele>372.554138</ele>
        <time>2016-09-25T07:14:33Z</time>
      </trkpt>
      <trkpt lat="45.70923" lon="4.67004">
        <ele>373.004547</ele>
        <time>2016-09-25T07:14:35Z</time>
      </trkpt>
      <trkpt lat="45.70921" lon="4.67">
        <ele>373.341248</ele>
        <time>2016-09-25T07:14:37Z</time>
      </trkpt>
      <trkpt lat="45.70921" lon="4.66994">
        <ele>373.718903</ele>
        <time>2016-09-25T07:14:39Z</time>
      </trkpt>
      <trkpt lat="45.70919" lon="4.66989">
        <ele>374.122375</ele>
        <time>2016-09-25T07:14:41Z</time>
      </trkpt>
      <trkpt lat="45.70918" lon="4.66985">
        <ele>374.457031</ele>
        <time>2016-09-25T07:14:43Z</time>
      </trkpt>
      <trkpt lat="45.70917" lon="4.6698">
        <ele>375.055634</ele>
        <time>2016-09-25T07:14:45Z</time>
      </trkpt>
      <trkpt lat="45.70916" lon="4.66976">
        <ele>375.579041</ele>
        <time>2016-09-25T07:14:47Z</time>
      </trkpt>
      <trkpt lat="45.70915" lon="4.66972">
        <ele>375.922394</ele>
        <time>2016-09-25T07:14:49Z</time>
      </trkpt>
      <trkpt lat="45.70914" lon="4.66967">
        <ele>376.102631</ele>
        <time>2016-09-25T07:14:51Z</time>
      </trkpt>
      <trkpt lat="45.70912" lon="4.66963">
        <ele>376.559418</ele>
        <time>2016-09-25T07:14:53Z</time>
      </trkpt>
      <trkpt lat="45.70911" lon="4.66958">
        <ele>376.866333</ele>
        <time>2016-09-25T07:14:55Z</time>
      </trkpt>
      <trkpt lat="45.7091" lon="4.66953">
        <ele>377.179565</ele>
        <time>2016-09-25T07:14:57Z</time>
      </trkpt>
      <trkpt lat="45.70908" lon="4.66949">
        <ele>377.637695</ele>
        <time>2016-09-25T07:14:59Z</time>
      </trkpt>
      <trkpt lat="45.70907" lon="4.66944">
        <ele>378.073334</ele>
        <time>2016-09-25T07:15:01Z</time>
      </trkpt>
      <trkpt lat="45.70906" lon="4.6694">
        <ele>378.511139</ele>
        <time>2016-09-25T07:15:03Z</time>
      </trkpt>
      <trkpt lat="45.70904" lon="4.66935">
        <ele>378.854248</ele>
        <time>2016-09-25T07:15:05Z</time>
      </trkpt>
      <trkpt lat="45.70903" lon="4.6693">
        <ele>379.283539</ele>
        <time>2016-09-25T07:15:07Z</time>
      </trkpt>
      <trkpt lat="45.70902" lon="4.66925">
        <ele>379.601257</ele>
        <time>2016-09-25T07:15:09Z</time>
      </trkpt>
      <trkpt lat="45.709" lon="4.6692">
        <ele>379.828674</ele>
        <time>2016-09-25T07:15:11Z</time>
      </trkpt>
      <trkpt lat="45.70898" lon="4.66915">
        <ele>380.21286</ele>
        <time>2016-09-25T07:15:13Z</time>
      </trkpt>
      <trkpt lat="45.70897" lon="4.6691">
        <ele>380.594971</ele>
        <time>2016-09-25T07:15:15Z</time>
      </trkpt>
      <trkpt lat="45.70896" lon="4.66905">
        <ele>381.103516</ele>
        <time>2016-09-25T07:15:17Z</time>
      </trkpt>
      <trkpt lat="45.70895" lon="4.669">
        <ele>381.653015</ele>
        <time>2016-09-25T07:15:19Z</time>
      </trkpt>
      <trkpt lat="45.70894" lon="4.66895">
        <ele>382.041656</ele>
        <time>2016-09-25T07:15:21Z</time>
      </trkpt>
      <trkpt lat="45.70893" lon="4.6689">
        <ele>382.449036</ele>
        <time>2016-09-25T07:15:23Z</time>
      </trkpt>
      <trkpt lat="45.70892" lon="4.66885">
        <ele>382.680908</ele>
        <time>2016-09-25T07:15:25Z</time>
      </trkpt>
      <trkpt lat="45.70891" lon="4.6688">
        <ele>382.940247</ele>
        <time>2016-09-25T07:15:27Z</time>
      </trkpt>
      <trkpt lat="45.7089" lon="4.66875">
        <ele>383.342133</ele>
        <time>2016-09-25T07:15:29Z</time>
      </trkpt>
      <trkpt lat="45.70889" lon="4.6687">
        <ele>383.727203</ele>
        <time>2016-09-25T07:15:31Z</time>
      </trkpt>
      <trkpt lat="45.70887" lon="4.66865">
        <ele>384.07312</ele>
        <time>2016-09-25T07:15:33Z</time>
      </trkpt>
      <trkpt lat="45.70886" lon="4.6686">
        <ele>384.311462</ele>
        <time>2016-09-25T07:15:35Z</time>
      </trkpt>
      <trkpt lat="45.70884" lon="4.66856">
        <ele>384.786316</ele>
        <time>2016-09-25T07:15:37Z</time>
      </trkpt>
      <trkpt lat="45.70882" lon="4.66851">
        <ele>385.184753</ele>
        <time>2016-09-25T07:15:39Z</time>
      </trkpt>
      <trkpt lat="45.7088" lon="4.66848">
        <ele>385.685211</ele>
        <time>2016-09-25T07:15:41Z</time>
      </trkpt>
      <trkpt lat="45.70878" lon="4.66844">
        <ele>386.067505</ele>
        <time>2016-09-25T07:15:43Z</time>
      </trkpt>
      <trkpt lat="45.70876" lon="4.66841">
        <ele>386.370331</ele>
        <time>2016-09-25T07:15:45Z</time>
      </trkpt>
      <trkpt lat="45.70873" lon="4.66837">
        <ele>386.510223</ele>
        <time>2016-09-25T07:15:47Z</time>
      </trkpt>
      <trkpt lat="45.7087" lon="4.66834">
        <ele>386.799042</ele>
        <time>2016-09-25T07:15:49Z</time>
      </trkpt>
      <trkpt lat="45.70867" lon="4.66832">
        <ele>387.147034</ele>
        <time>2016-09-25T07:15:51Z</time>
      </trkpt>
      <trkpt lat="45.70864" lon="4.6683">
        <ele>387.523102</ele>
        <time>2016-09-25T07:15:53Z</time>
      </trkpt>
      <trkpt lat="45.70861" lon="4.66828">
        <ele>387.864624</ele>
        <time>2016-09-25T07:15:55Z</time>
      </trkpt>
      <trkpt lat="45.70858" lon="4.66825">
        <ele>388.193298</ele>
        <time>2016-09-25T07:15:57Z</time>
      </trkpt>
      <trkpt lat="45.70855" lon="4.66824">
        <ele>388.556549</ele>
        <time>2016-09-25T07:15:59Z</time>
      </trkpt>
      <trkpt lat="45.70851" lon="4.66822">
        <ele>388.971191</ele>
        <time>2016-09-25T07:16:01Z</time>
      </trkpt>
      <trkpt lat="45.70848" lon="4.66821">
        <ele>389.302094</ele>
        <time>2016-09-25T07:16:03Z</time>
      </trkpt>
      <trkpt lat="45.70844" lon="4.66819">
        <ele>389.639862</ele>
        <time>2016-09-25T07:16:05Z</time>
      </trkpt>
      <trkpt lat="45.70841" lon="4.66817">
        <ele>390.125977</ele>
        <time>2016-09-25T07:16:07Z</time>
      </trkpt>
      <trkpt lat="45.70837" lon="4.66815">
        <ele>390.37912</ele>
        <time>2016-09-25T07:16:09Z</time>
      </trkpt>
      <trkpt lat="45.70834" lon="4.66814">
        <ele>390.6427</ele>
        <time>2016-09-25T07:16:11Z</time>
      </trkpt>
      <trkpt lat="45.70831" lon="4.66811">
        <ele>390.986511</ele>
        <time>2016-09-25T07:16:13Z</time>
      </trkpt>
      <trkpt lat="45.70828" lon="4.66809">
        <ele>391.46994</ele>
        <time>2016-09-25T07:16:15Z</time>
      </trkpt>
      <trkpt lat="45.70824" lon="4.66807">
        <ele>391.895508</ele>
        <time>2016-09-25T07:16:17Z</time>
      </trkpt>
      <trkpt lat="45.70821" lon="4.66805">
        <ele>392.105804</ele>
        <time>2016-09-25T07:16:19Z</time>
      </trkpt>
      <trkpt lat="45.70818" lon="4.66803">
        <ele>392.401245</ele>
        <time>2016-09-25T07:16:21Z</time>
      </trkpt>
      <trkpt lat="45.70817" lon="4.66799">
        <ele>392.702209</ele>
        <time>2016-09-25T07:16:23Z</time>
      </trkpt>
      <trkpt lat="45.70819" lon="4.66795">
        <ele>393.067596</ele>
        <time>2016-09-25T07:16:25Z</time>
      </trkpt>
      <trkpt lat="45.70822" lon="4.66792">
        <ele>393.308289</ele>
        <time>2016-09-25T07:16:27Z</time>
      </trkpt>
      <trkpt lat="45.70826" lon="4.6679">
        <ele>393.723907</ele>
        <time>2016-09-25T07:16:29Z</time>
      </trkpt>
      <trkpt lat="45.70831" lon="4.66787">
        <ele>394.126984</ele>
        <time>2016-09-25T07:16:31Z</time>
      </trkpt>
      <trkpt lat="45.70836" lon="4.66784">
        <ele>394.508331</ele>
        <time>2016-09-25T07:16:33Z</time>
      </trkpt>
      <trkpt lat="45.7084" lon="4.6678">
        <ele>394.817993</ele>
        <time>2016-09-25T07:16:35Z</time>
      </trkpt>
      <trkpt lat="45.70845" lon="4.66776">
        <ele>395.127991</ele>
        <time>2016-09-25T07:16:37Z</time>
      </trkpt>
      <trkpt lat="45.7085" lon="4.66772">
        <ele>395.523407</ele>
        <time>2016-09-25T07:16:39Z</time>
      </trkpt>
      <trkpt lat="45.70855" lon="4.66768">
        <ele>395.899689</ele>
        <time>2016-09-25T07:16:41Z</time>
      </trkpt>
      <trkpt lat="45.70861" lon="4.66763">
        <ele>396.230774</ele>
        <time>2016-09-25T07:16:43Z</time>
      </trkpt>
      <trkpt lat="45.70866" lon="4.66759">
        <ele>396.417786</ele>
        <time>2016-09-25T07:16:45Z</time>
      </trkpt>
      <trkpt lat="45.70872" lon="4.66753">
        <ele>396.706818</ele>
        <time>2016-09-25T07:16:47Z</time>
      </trkpt>
      <trkpt lat="45.70878" lon="4.66748">
        <ele>397.123901</ele>
        <time>2016-09-25T07:16:49Z</time>
      </trkpt>
      <trkpt lat="45.70884" lon="4.66743">
        <ele>397.485077</ele>
        <time>2016-09-25T07:16:51Z</time>
      </trkpt>
      <trkpt lat="45.7089" lon="4.66738">
        <ele>397.667816</ele>
        <time>2016-09-25T07:16:53Z</time>
      </trkpt>
      <trkpt lat="45.70897" lon="4.66734">
        <ele>397.975861</ele>
        <time>2016-09-25T07:16:55Z</time>
      </trkpt>
      <trkpt lat="45.70903" lon="4.6673">
        <ele>398.322052</ele>
        <time>2016-09-25T07:16:57Z</time>
      </trkpt>
      <trkpt lat="45.7091" lon="4.66725">
        <ele>398.397278</ele>
        <time>2016-09-25T07:16:59Z</time>
      </trkpt>
      <trkpt lat="45.70916" lon="4.6672">
        <ele>398.565033</ele>
        <time>2016-09-25T07:17:01Z</time>
      </trkpt>
      <trkpt lat="45.70921" lon="4.66715">
        <ele>398.851013</ele>
        <time>2016-09-25T07:17:03Z</time>
      </trkpt>
      <trkpt lat="45.70927" lon="4.66711">
        <ele>398.924133</ele>
        <time>2016-09-25T07:17:05Z</time>
      </trkpt>
      <trkpt lat="45.70933" lon="4.66706">
        <ele>399.087555</ele>
        <time>2016-09-25T07:17:07Z</time>
      </trkpt>
      <trkpt lat="45.70939" lon="4.66702">
        <ele>399.40152</ele>
        <time>2016-09-25T07:17:09Z</time>
      </trkpt>
      <trkpt lat="45.70946" lon="4.66698">
        <ele>399.654816</ele>
        <time>2016-09-25T07:17:11Z</time>
      </trkpt>
      <trkpt lat="45.70952" lon="4.66693">
        <ele>399.828156</ele>
        <time>2016-09-25T07:17:13Z</time>
      </trkpt>
      <trkpt lat="45.70958" lon="4.66689">
        <ele>400.010956</ele>
        <time>2016-09-25T07:17:15Z</time>
      </trkpt>
      <trkpt lat="45.70964" lon="4.66684">
        <ele>400.316254</ele>
        <time>2016-09-25T07:17:17Z</time>
      </trkpt>
      <trkpt lat="45.7097" lon="4.6668">
        <ele>400.528778</ele>
        <time>2016-09-25T07:17:19Z</time>
      </trkpt>
      <trkpt lat="45.70976" lon="4.66676">
        <ele>400.920349</ele>
        <time>2016-09-25T07:17:21Z</time>
      </trkpt>
      <trkpt lat="45.70982" lon="4.66671">
        <ele>401.040833</ele>
        <time>2016-09-25T07:17:23Z</time>
      </trkpt>
      <trkpt lat="45.70987" lon="4.66667">
        <ele>401.266693</ele>
        <time>2016-09-25T07:17:25Z</time>
      </trkpt>
      <trkpt lat="45.70995" lon="4.66665">
        <ele>401.526917</ele>
        <time>2016-09-25T07:17:27Z</time>
      </trkpt>
      <trkpt lat="45.71003" lon="4.66666">
        <ele>401.670197</ele>
        <time>2016-09-25T07:17:29Z</time>
      </trkpt>
      <trkpt lat="45.7101" lon="4.66668">
        <ele>401.78421</ele>
        <time>2016-09-25T07:17:31Z</time>
      </trkpt>
      <trkpt lat="45.71016" lon="4.66668">
        <ele>402.016663</ele>
        <time>2016-09-25T07:17:33Z</time>
      </trkpt>
      <trkpt lat="45.71022" lon="4.66666">
        <ele>402.310425</ele>
        <time>2016-09-25T07:17:35Z</time>
      </trkpt>
      <trkpt lat="45.71027" lon="4.66662">
        <ele>402.777344</ele>
        <time>2016-09-25T07:17:37Z</time>
      </trkpt>
      <trkpt lat="45.71032" lon="4.66657">
        <ele>403.158173</ele>
        <time>2016-09-25T07:17:39Z</time>
      </trkpt>
      <trkpt lat="45.71037" lon="4.66652">
        <ele>403.530365</ele>
        <time>2016-09-25T07:17:41Z</time>
      </trkpt>
      <trkpt lat="45.71042" lon="4.66649">
        <ele>403.967072</ele>
        <time>2016-09-25T07:17:43Z</time>
      </trkpt>
      <trkpt lat="45.71053" lon="4.66648">
        <ele>404.014404</ele>
        <time>2016-09-25T07:17:47Z</time>
      </trkpt>
      <trkpt lat="45.71059" lon="4.6665">
        <ele>404.466949</ele>
        <time>2016-09-25T07:17:49Z</time>
      </trkpt>
      <trkpt lat="45.71065" lon="4.66651">
        <ele>404.673492</ele>
        <time>2016-09-25T07:17:51Z</time>
      </trkpt>
      <trkpt lat="45.71071" lon="4.66652">
        <ele>405.116974</ele>
        <time>2016-09-25T07:17:53Z</time>
      </trkpt>
      <trkpt lat="45.71076" lon="4.66653">
        <ele>405.342438</ele>
        <time>2016-09-25T07:17:55Z</time>
      </trkpt>
      <trkpt lat="45.71082" lon="4.66653">
        <ele>405.706116</ele>
        <time>2016-09-25T07:17:57Z</time>
      </trkpt>
      <trkpt lat="45.71087" lon="4.66653">
        <ele>406.198944</ele>
        <time>2016-09-25T07:17:59Z</time>
      </trkpt>
      <trkpt lat="45.71093" lon="4.66653">
        <ele>406.530334</ele>
        <time>2016-09-25T07:18:01Z</time>
      </trkpt>
      <trkpt lat="45.71099" lon="4.66654">
        <ele>406.887573</ele>
        <time>2016-09-25T07:18:03Z</time>
      </trkpt>
      <trkpt lat="45.71104" lon="4.66654">
        <ele>407.1651</ele>
        <time>2016-09-25T07:18:05Z</time>
      </trkpt>
      <trkpt lat="45.7111" lon="4.66654">
        <ele>407.524597</ele>
        <time>2016-09-25T07:18:07Z</time>
      </trkpt>
      <trkpt lat="45.71116" lon="4.66654">
        <ele>407.937897</ele>
        <time>2016-09-25T07:18:09Z</time>
      </trkpt>
      <trkpt lat="45.71121" lon="4.66653">
        <ele>408.36615</ele>
        <time>2016-09-25T07:18:11Z</time>
      </trkpt>
      <trkpt lat="45.71127" lon="4.66653">
        <ele>408.770691</ele>
        <time>2016-09-25T07:18:13Z</time>
      </trkpt>
      <trkpt lat="45.71133" lon="4.66652">
        <ele>409.222656</ele>
        <time>2016-09-25T07:18:15Z</time>
      </trkpt>
      <trkpt lat="45.71139" lon="4.6665">
        <ele>409.683197</ele>
        <time>2016-09-25T07:18:17Z</time>
      </trkpt>
      <trkpt lat="45.71145" lon="4.66647">
        <ele>410.01944</ele>
        <time>2016-09-25T07:18:19Z</time>
      </trkpt>
      <trkpt lat="45.71151" lon="4.66645">
        <ele>410.20459</ele>
        <time>2016-09-25T07:18:21Z</time>
      </trkpt>
      <trkpt lat="45.71158" lon="4.66642">
        <ele>410.503479</ele>
        <time>2016-09-25T07:18:23Z</time>
      </trkpt>
      <trkpt lat="45.71164" lon="4.66639">
        <ele>410.796234</ele>
        <time>2016-09-25T07:18:25Z</time>
      </trkpt>
      <trkpt lat="45.7117" lon="4.66636">
        <ele>411.377625</ele>
        <time>2016-09-25T07:18:27Z</time>
      </trkpt>
      <trkpt lat="45.71175" lon="4.66633">
        <ele>411.737213</ele>
        <time>2016-09-25T07:18:29Z</time>
      </trkpt>
      <trkpt lat="45.71181" lon="4.66629">
        <ele>412.139069</ele>
        <time>2016-09-25T07:18:31Z</time>
      </trkpt>
      <trkpt lat="45.71188" lon="4.66626">
        <ele>412.498352</ele>
        <time>2016-09-25T07:18:33Z</time>
      </trkpt>
      <trkpt lat="45.71195" lon="4.66622">
        <ele>412.759613</ele>
        <time>2016-09-25T07:18:35Z</time>
      </trkpt>
      <trkpt lat="45.71201" lon="4.66618">
        <ele>413.23764</ele>
        <time>2016-09-25T07:18:37Z</time>
      </trkpt>
      <trkpt lat="45.71209" lon="4.66614">
        <ele>413.443604</ele>
        <time>2016-09-25T07:18:39Z</time>
      </trkpt>
      <trkpt lat="45.71215" lon="4.66609">
        <ele>413.722595</ele>
        <time>2016-09-25T07:18:41Z</time>
      </trkpt>
      <trkpt lat="45.71221" lon="4.66604">
        <ele>413.978851</ele>
        <time>2016-09-25T07:18:43Z</time>
      </trkpt>
      <trkpt lat="45.71228" lon="4.66599">
        <ele>414.306213</ele>
        <time>2016-09-25T07:18:45Z</time>
      </trkpt>
      <trkpt lat="45.71235" lon="4.66595">
        <ele>414.646729</ele>
        <time>2016-09-25T07:18:47Z</time>
      </trkpt>
      <trkpt lat="45.71242" lon="4.66591">
        <ele>414.905121</ele>
        <time>2016-09-25T07:18:49Z</time>
      </trkpt>
      <trkpt lat="45.7125" lon="4.66587">
        <ele>414.900818</ele>
        <time>2016-09-25T07:18:51Z</time>
      </trkpt>
      <trkpt lat="45.71258" lon="4.66584">
        <ele>415.34137</ele>
        <time>2016-09-25T07:18:53Z</time>
      </trkpt>
      <trkpt lat="45.71267" lon="4.66583">
        <ele>415.604187</ele>
        <time>2016-09-25T07:18:55Z</time>
      </trkpt>
      <trkpt lat="45.71277" lon="4.66581">
        <ele>415.817444</ele>
        <time>2016-09-25T07:18:57Z</time>
      </trkpt>
      <trkpt lat="45.71288" lon="4.66579">
        <ele>416.062988</ele>
        <time>2016-09-25T07:18:59Z</time>
      </trkpt>
      <trkpt lat="45.71298" lon="4.66577">
        <ele>416.401184</ele>
        <time>2016-09-25T07:19:01Z</time>
      </trkpt>
      <trkpt lat="45.71309" lon="4.66574">
        <ele>416.425293</ele>
        <time>2016-09-25T07:19:03Z</time>
      </trkpt>
      <trkpt lat="45.71319" lon="4.66572">
        <ele>416.429626</ele>
        <time>2016-09-25T07:19:05Z</time>
      </trkpt>
      <trkpt lat="45.71329" lon="4.6657">
        <ele>416.227203</ele>
        <time>2016-09-25T07:19:07Z</time>
      </trkpt>
      <trkpt lat="45.71339" lon="4.66567">
        <ele>416.030457</ele>
        <time>2016-09-25T07:19:09Z</time>
      </trkpt>
      <trkpt lat="45.71351" lon="4.66565">
        <ele>416.144592</ele>
        <time>2016-09-25T07:19:11Z</time>
      </trkpt>
      <trkpt lat="45.71361" lon="4.66561">
        <ele>416.332031</ele>
        <time>2016-09-25T07:19:13Z</time>
      </trkpt>
      <trkpt lat="45.71371" lon="4.66557">
        <ele>416.39447</ele>
        <time>2016-09-25T07:19:15Z</time>
      </trkpt>
      <trkpt lat="45.7138" lon="4.66553">
        <ele>416.426178</ele>
        <time>2016-09-25T07:19:17Z</time>
      </trkpt>
      <trkpt lat="45.71389" lon="4.66549">
        <ele>416.469238</ele>
        <time>2016-09-25T07:19:19Z</time>
      </trkpt>
      <trkpt lat="45.71397" lon="4.66544">
        <ele>416.70697</ele>
        <time>2016-09-25T07:19:21Z</time>
      </trkpt>
      <trkpt lat="45.71405" lon="4.66539">
        <ele>416.786774</ele>
        <time>2016-09-25T07:19:23Z</time>
      </trkpt>
      <trkpt lat="45.71413" lon="4.66533">
        <ele>417.049561</ele>
        <time>2016-09-25T07:19:25Z</time>
      </trkpt>
      <trkpt lat="45.71421" lon="4.66528">
        <ele>417.049561</ele>
        <time>2016-09-25T07:19:27Z</time>
      </trkpt>
      <trkpt lat="45.71429" lon="4.66522">
        <ele>417.019379</ele>
        <time>2016-09-25T07:19:29Z</time>
      </trkpt>
      <trkpt lat="45.71438" lon="4.66518">
        <ele>417.109863</ele>
        <time>2016-09-25T07:19:31Z</time>
      </trkpt>
      <trkpt lat="45.71446" lon="4.66514">
        <ele>417.120605</ele>
        <time>2016-09-25T07:19:33Z</time>
      </trkpt>
      <trkpt lat="45.71455" lon="4.66509">
        <ele>417.230286</ele>
        <time>2016-09-25T07:19:35Z</time>
      </trkpt>
      <trkpt lat="45.71463" lon="4.66505">
        <ele>417.455383</ele>
        <time>2016-09-25T07:19:37Z</time>
      </trkpt>
      <trkpt lat="45.71471" lon="4.66501">
        <ele>417.573883</ele>
        <time>2016-09-25T07:19:39Z</time>
      </trkpt>
      <trkpt lat="45.71478" lon="4.66496">
        <ele>417.498444</ele>
        <time>2016-09-25T07:19:41Z</time>
      </trkpt>
      <trkpt lat="45.71484" lon="4.66491">
        <ele>417.927185</ele>
        <time>2016-09-25T07:19:43Z</time>
      </trkpt>
      <trkpt lat="45.7149" lon="4.66486">
        <ele>418.032043</ele>
        <time>2016-09-25T07:19:45Z</time>
      </trkpt>
      <trkpt lat="45.71495" lon="4.66481">
        <ele>418.549133</ele>
        <time>2016-09-25T07:19:47Z</time>
      </trkpt>
      <trkpt lat="45.715" lon="4.66477">
        <ele>419.086426</ele>
        <time>2016-09-25T07:19:49Z</time>
      </trkpt>
      <trkpt lat="45.71505" lon="4.66472">
        <ele>419.351379</ele>
        <time>2016-09-25T07:19:51Z</time>
      </trkpt>
      <trkpt lat="45.71511" lon="4.66467">
        <ele>419.439758</ele>
        <time>2016-09-25T07:19:53Z</time>
      </trkpt>
      <trkpt lat="45.71516" lon="4.66463">
        <ele>419.674561</ele>
        <time>2016-09-25T07:19:55Z</time>
      </trkpt>
      <trkpt lat="45.7152" lon="4.66459">
        <ele>420.051697</ele>
        <time>2016-09-25T07:19:57Z</time>
      </trkpt>
      <trkpt lat="45.71525" lon="4.66455">
        <ele>420.372803</ele>
        <time>2016-09-25T07:19:59Z</time>
      </trkpt>
      <trkpt lat="45.7153" lon="4.6645">
        <ele>420.711182</ele>
        <time>2016-09-25T07:20:01Z</time>
      </trkpt>
      <trkpt lat="45.71534" lon="4.66446">
        <ele>421.274658</ele>
        <time>2016-09-25T07:20:03Z</time>
      </trkpt>
      <trkpt lat="45.71539" lon="4.66442">
        <ele>421.608704</ele>
        <time>2016-09-25T07:20:05Z</time>
      </trkpt>
      <trkpt lat="45.71544" lon="4.66437">
        <ele>422.028748</ele>
        <time>2016-09-25T07:20:07Z</time>
      </trkpt>
      <trkpt lat="45.71548" lon="4.66433">
        <ele>422.382141</ele>
        <time>2016-09-25T07:20:09Z</time>
      </trkpt>
      <trkpt lat="45.71552" lon="4.66429">
        <ele>422.791656</ele>
        <time>2016-09-25T07:20:11Z</time>
      </trkpt>
      <trkpt lat="45.71555" lon="4.66426">
        <ele>423.205505</ele>
        <time>2016-09-25T07:20:13Z</time>
      </trkpt>
      <trkpt lat="45.71558" lon="4.66422">
        <ele>423.709045</ele>
        <time>2016-09-25T07:20:15Z</time>
      </trkpt>
      <trkpt lat="45.71561" lon="4.66418">
        <ele>424.035706</ele>
        <time>2016-09-25T07:20:17Z</time>
      </trkpt>
      <trkpt lat="45.71563" lon="4.66414">
        <ele>424.188721</ele>
        <time>2016-09-25T07:20:19Z</time>
      </trkpt>
      <trkpt lat="45.71566" lon="4.66409">
        <ele>424.710449</ele>
        <time>2016-09-25T07:20:21Z</time>
      </trkpt>
      <trkpt lat="45.71569" lon="4.66404">
        <ele>425.232178</ele>
        <time>2016-09-25T07:20:23Z</time>
      </trkpt>
      <trkpt lat="45.71572" lon="4.66399">
        <ele>425.376617</ele>
        <time>2016-09-25T07:20:25Z</time>
      </trkpt>
      <trkpt lat="45.71575" lon="4.66395">
        <ele>425.870361</ele>
        <time>2016-09-25T07:20:27Z</time>
      </trkpt>
      <trkpt lat="45.71578" lon="4.6639">
        <ele>426.165771</ele>
        <time>2016-09-25T07:20:29Z</time>
      </trkpt>
      <trkpt lat="45.7158" lon="4.66385">
        <ele>426.4375</ele>
        <time>2016-09-25T07:20:31Z</time>
      </trkpt>
      <trkpt lat="45.71583" lon="4.66379">
        <ele>427.058411</ele>
        <time>2016-09-25T07:20:33Z</time>
      </trkpt>
      <trkpt lat="45.71586" lon="4.66373">
        <ele>427.554352</ele>
        <time>2016-09-25T07:20:35Z</time>
      </trkpt>
      <trkpt lat="45.71588" lon="4.66367">
        <ele>427.849701</ele>
        <time>2016-09-25T07:20:37Z</time>
      </trkpt>
      <trkpt lat="45.71591" lon="4.66361">
        <ele>428.132233</ele>
        <time>2016-09-25T07:20:39Z</time>
      </trkpt>
      <trkpt lat="45.71594" lon="4.66355">
        <ele>428.623962</ele>
        <time>2016-09-25T07:20:41Z</time>
      </trkpt>
      <trkpt lat="45.71597" lon="4.66349">
        <ele>428.936676</ele>
        <time>2016-09-25T07:20:43Z</time>
      </trkpt>
      <trkpt lat="45.716" lon="4.66343">
        <ele>429.253815</ele>
        <time>2016-09-25T07:20:45Z</time>
      </trkpt>
      <trkpt lat="45.71603" lon="4.66337">
        <ele>429.603455</ele>
        <time>2016-09-25T07:20:47Z</time>
      </trkpt>
      <trkpt lat="45.71606" lon="4.66332">
        <ele>429.693787</ele>
        <time>2016-09-25T07:20:49Z</time>
      </trkpt>
      <trkpt lat="45.7161" lon="4.66326">
        <ele>430.125305</ele>
        <time>2016-09-25T07:20:51Z</time>
      </trkpt>
      <trkpt lat="45.71613" lon="4.6632">
        <ele>430.289246</ele>
        <time>2016-09-25T07:20:53Z</time>
      </trkpt>
      <trkpt lat="45.71615" lon="4.66315">
        <ele>430.591248</ele>
        <time>2016-09-25T07:20:55Z</time>
      </trkpt>
      <trkpt lat="45.71618" lon="4.6631">
        <ele>430.942932</ele>
        <time>2016-09-25T07:20:57Z</time>
      </trkpt>
      <trkpt lat="45.71621" lon="4.66304">
        <ele>431.231934</ele>
        <time>2016-09-25T07:20:59Z</time>
      </trkpt>
      <trkpt lat="45.71624" lon="4.66296">
        <ele>431.531799</ele>
        <time>2016-09-25T07:21:01Z</time>
      </trkpt>
      <trkpt lat="45.71628" lon="4.66289">
        <ele>431.732483</ele>
        <time>2016-09-25T07:21:03Z</time>
      </trkpt>
      <trkpt lat="45.71632" lon="4.66281">
        <ele>432.079834</ele>
        <time>2016-09-25T07:21:05Z</time>
      </trkpt>
      <trkpt lat="45.71635" lon="4.66274">
        <ele>432.500977</ele>
        <time>2016-09-25T07:21:07Z</time>
      </trkpt>
      <trkpt lat="45.71639" lon="4.66267">
        <ele>432.984314</ele>
        <time>2016-09-25T07:21:09Z</time>
      </trkpt>
      <trkpt lat="45.71642" lon="4.66259">
        <ele>433.269135</ele>
        <time>2016-09-25T07:21:11Z</time>
      </trkpt>
      <trkpt lat="45.71644" lon="4.66251">
        <ele>433.655426</ele>
        <time>2016-09-25T07:21:13Z</time>
      </trkpt>
      <trkpt lat="45.71647" lon="4.66243">
        <ele>433.944519</ele>
        <time>2016-09-25T07:21:15Z</time>
      </trkpt>
      <trkpt lat="45.71648" lon="4.66236">
        <ele>434.005859</ele>
        <time>2016-09-25T07:21:17Z</time>
      </trkpt>
      <trkpt lat="45.71649" lon="4.66229">
        <ele>434.413635</ele>
        <time>2016-09-25T07:21:19Z</time>
      </trkpt>
      <trkpt lat="45.7165" lon="4.66221">
        <ele>434.750244</ele>
        <time>2016-09-25T07:21:21Z</time>
      </trkpt>
      <trkpt lat="45.71653" lon="4.66211">
        <ele>435.017914</ele>
        <time>2016-09-25T07:21:23Z</time>
      </trkpt>
      <trkpt lat="45.71653" lon="4.66202">
        <ele>435.250977</ele>
        <time>2016-09-25T07:21:25Z</time>
      </trkpt>
      <trkpt lat="45.71653" lon="4.66196">
        <ele>435.35025</ele>
        <time>2016-09-25T07:21:27Z</time>
      </trkpt>
      <trkpt lat="45.71653" lon="4.66188">
        <ele>435.598389</ele>
        <time>2016-09-25T07:21:29Z</time>
      </trkpt>
      <trkpt lat="45.71653" lon="4.66179">
        <ele>435.883545</ele>
        <time>2016-09-25T07:21:31Z</time>
      </trkpt>
      <trkpt lat="45.71651" lon="4.66169">
        <ele>436.158783</ele>
        <time>2016-09-25T07:21:33Z</time>
      </trkpt>
      <trkpt lat="45.7165" lon="4.66159">
        <ele>436.320618</ele>
        <time>2016-09-25T07:21:35Z</time>
      </trkpt>
      <trkpt lat="45.71648" lon="4.66148">
        <ele>436.508392</ele>
        <time>2016-09-25T07:21:37Z</time>
      </trkpt>
      <trkpt lat="45.71645" lon="4.66136">
        <ele>436.70694</ele>
        <time>2016-09-25T07:21:39Z</time>
      </trkpt>
      <trkpt lat="45.71644" lon="4.66124">
        <ele>436.88208</ele>
        <time>2016-09-25T07:21:41Z</time>
      </trkpt>
      <trkpt lat="45.71642" lon="4.66112">
        <ele>437.052551</ele>
        <time>2016-09-25T07:21:43Z</time>
      </trkpt>
      <trkpt lat="45.71639" lon="4.661">
        <ele>437.241272</ele>
        <time>2016-09-25T07:21:45Z</time>
      </trkpt>
      <trkpt lat="45.71636" lon="4.66088">
        <ele>437.428864</ele>
        <time>2016-09-25T07:21:47Z</time>
      </trkpt>
      <trkpt lat="45.71633" lon="4.66076">
        <ele>437.625305</ele>
        <time>2016-09-25T07:21:49Z</time>
      </trkpt>
      <trkpt lat="45.71629" lon="4.66064">
        <ele>437.588562</ele>
        <time>2016-09-25T07:21:51Z</time>
      </trkpt>
      <trkpt lat="45.71625" lon="4.66052">
        <ele>437.6922</ele>
        <time>2016-09-25T07:21:53Z</time>
      </trkpt>
      <trkpt lat="45.7162" lon="4.66041">
        <ele>437.769928</ele>
        <time>2016-09-25T07:21:55Z</time>
      </trkpt>
      <trkpt lat="45.71615" lon="4.6603">
        <ele>437.879486</ele>
        <time>2016-09-25T07:21:57Z</time>
      </trkpt>
      <trkpt lat="45.71611" lon="4.66018">
        <ele>438.055573</ele>
        <time>2016-09-25T07:21:59Z</time>
      </trkpt>
      <trkpt lat="45.71606" lon="4.66007">
        <ele>438.218597</ele>
        <time>2016-09-25T07:22:01Z</time>
      </trkpt>
      <trkpt lat="45.71601" lon="4.65997">
        <ele>438.399902</ele>
        <time>2016-09-25T07:22:03Z</time>
      </trkpt>
      <trkpt lat="45.71597" lon="4.65985">
        <ele>438.436584</ele>
        <time>2016-09-25T07:22:05Z</time>
      </trkpt>
      <trkpt lat="45.71592" lon="4.65974">
        <ele>438.645996</ele>
        <time>2016-09-25T07:22:07Z</time>
      </trkpt>
      <trkpt lat="45.71587" lon="4.65963">
        <ele>438.814392</ele>
        <time>2016-09-25T07:22:09Z</time>
      </trkpt>
      <trkpt lat="45.71583" lon="4.65951">
        <ele>439.03891</ele>
        <time>2016-09-25T07:22:11Z</time>
      </trkpt>
      <trkpt lat="45.71578" lon="4.6594">
        <ele>439.107422</ele>
        <time>2016-09-25T07:22:13Z</time>
      </trkpt>
      <trkpt lat="45.71574" lon="4.6593">
        <ele>439.257233</ele>
        <time>2016-09-25T07:22:15Z</time>
      </trkpt>
      <trkpt lat="45.7157" lon="4.65918">
        <ele>439.455872</ele>
        <time>2016-09-25T07:22:17Z</time>
      </trkpt>
      <trkpt lat="45.71567" lon="4.65905">
        <ele>439.622986</ele>
        <time>2016-09-25T07:22:19Z</time>
      </trkpt>
      <trkpt lat="45.71566" lon="4.65893">
        <ele>439.780609</ele>
        <time>2016-09-25T07:22:21Z</time>
      </trkpt>
      <trkpt lat="45.71565" lon="4.65881">
        <ele>439.970276</ele>
        <time>2016-09-25T07:22:23Z</time>
      </trkpt>
      <trkpt lat="45.71563" lon="4.65871">
        <ele>440.265442</ele>
        <time>2016-09-25T07:22:25Z</time>
      </trkpt>
      <trkpt lat="45.71561" lon="4.65861">
        <ele>440.481537</ele>
        <time>2016-09-25T07:22:27Z</time>
      </trkpt>
      <trkpt lat="45.71559" lon="4.65851">
        <ele>440.676208</ele>
        <time>2016-09-25T07:22:29Z</time>
      </trkpt>
      <trkpt lat="45.71557" lon="4.6584">
        <ele>441.023926</ele>
        <time>2016-09-25T07:22:31Z</time>
      </trkpt>
      <trkpt lat="45.71554" lon="4.65829">
        <ele>441.376068</ele>
        <time>2016-09-25T07:22:33Z</time>
      </trkpt>
      <trkpt lat="45.71552" lon="4.65818">
        <ele>441.745361</ele>
        <time>2016-09-25T07:22:35Z</time>
      </trkpt>
      <trkpt lat="45.71549" lon="4.65807">
        <ele>442.032379</ele>
        <time>2016-09-25T07:22:37Z</time>
      </trkpt>
      <trkpt lat="45.71545" lon="4.65794">
        <ele>442.190491</ele>
        <time>2016-09-25T07:22:39Z</time>
      </trkpt>
      <trkpt lat="45.71541" lon="4.65779">
        <ele>442.313568</ele>
        <time>2016-09-25T07:22:41Z</time>
      </trkpt>
      <trkpt lat="45.71536" lon="4.65764">
        <ele>442.411285</ele>
        <time>2016-09-25T07:22:43Z</time>
      </trkpt>
      <trkpt lat="45.7153" lon="4.65748">
        <ele>442.585022</ele>
        <time>2016-09-25T07:22:45Z</time>
      </trkpt>
      <trkpt lat="45.71523" lon="4.65732">
        <ele>442.539642</ele>
        <time>2016-09-25T07:22:47Z</time>
      </trkpt>
      <trkpt lat="45.71514" lon="4.65714">
        <ele>442.533203</ele>
        <time>2016-09-25T07:22:49Z</time>
      </trkpt>
      <trkpt lat="45.71502" lon="4.65696">
        <ele>442.077881</ele>
        <time>2016-09-25T07:22:51Z</time>
      </trkpt>
      <trkpt lat="45.71488" lon="4.6568">
        <ele>441.721832</ele>
        <time>2016-09-25T07:22:53Z</time>
      </trkpt>
      <trkpt lat="45.71476" lon="4.65667">
        <ele>441.478851</ele>
        <time>2016-09-25T07:22:55Z</time>
      </trkpt>
      <trkpt lat="45.71466" lon="4.65653">
        <ele>441.034332</ele>
        <time>2016-09-25T07:22:57Z</time>
      </trkpt>
      <trkpt lat="45.71458" lon="4.65639">
        <ele>440.640564</ele>
        <time>2016-09-25T07:22:59Z</time>
      </trkpt>
      <trkpt lat="45.71452" lon="4.65626">
        <ele>440.446289</ele>
        <time>2016-09-25T07:23:01Z</time>
      </trkpt>
      <trkpt lat="45.71447" lon="4.65613">
        <ele>440.338287</ele>
        <time>2016-09-25T07:23:03Z</time>
      </trkpt>
      <trkpt lat="45.71443" lon="4.65602">
        <ele>440.219299</ele>
        <time>2016-09-25T07:23:05Z</time>
      </trkpt>
      <trkpt lat="45.71439" lon="4.65591">
        <ele>439.942871</ele>
        <time>2016-09-25T07:23:07Z</time>
      </trkpt>
      <trkpt lat="45.71434" lon="4.65582">
        <ele>439.718811</ele>
        <time>2016-09-25T07:23:09Z</time>
      </trkpt>
      <trkpt lat="45.71429" lon="4.65576">
        <ele>439.519775</ele>
        <time>2016-09-25T07:23:11Z</time>
      </trkpt>
      <trkpt lat="45.71423" lon="4.65572">
        <ele>439.230377</ele>
        <time>2016-09-25T07:23:13Z</time>
      </trkpt>
      <trkpt lat="45.71418" lon="4.65567">
        <ele>439.018494</ele>
        <time>2016-09-25T07:23:15Z</time>
      </trkpt>
      <trkpt lat="45.71415" lon="4.65563">
        <ele>438.746399</ele>
        <time>2016-09-25T07:23:17Z</time>
      </trkpt>
      <trkpt lat="45.71412" lon="4.65558">
        <ele>438.643738</ele>
        <time>2016-09-25T07:23:19Z</time>
      </trkpt>
      <trkpt lat="45.71409" lon="4.65555">
        <ele>438.572449</ele>
        <time>2016-09-25T07:23:21Z</time>
      </trkpt>
      <trkpt lat="45.71406" lon="4.65552">
        <ele>438.527679</ele>
        <time>2016-09-25T07:23:23Z</time>
      </trkpt>
      <trkpt lat="45.71404" lon="4.65548">
        <ele>438.610931</ele>
        <time>2016-09-25T07:23:25Z</time>
      </trkpt>
      <trkpt lat="45.71402" lon="4.65543">
        <ele>438.651947</ele>
        <time>2016-09-25T07:23:27Z</time>
      </trkpt>
      <trkpt lat="45.71401" lon="4.65538">
        <ele>439.081635</ele>
        <time>2016-09-25T07:23:29Z</time>
      </trkpt>
      <trkpt lat="45.71401" lon="4.65533">
        <ele>439.493896</ele>
        <time>2016-09-25T07:23:31Z</time>
      </trkpt>
      <trkpt lat="45.71402" lon="4.65528">
        <ele>439.776703</ele>
        <time>2016-09-25T07:23:33Z</time>
      </trkpt>
      <trkpt lat="45.71404" lon="4.65523">
        <ele>440.324646</ele>
        <time>2016-09-25T07:23:35Z</time>
      </trkpt>
      <trkpt lat="45.71407" lon="4.65519">
        <ele>440.911621</ele>
        <time>2016-09-25T07:23:37Z</time>
      </trkpt>
      <trkpt lat="45.7141" lon="4.65515">
        <ele>441.747131</ele>
        <time>2016-09-25T07:23:39Z</time>
      </trkpt>
      <trkpt lat="45.71414" lon="4.65512">
        <ele>442.466125</ele>
        <time>2016-09-25T07:23:41Z</time>
      </trkpt>
      <trkpt lat="45.71418" lon="4.65509">
        <ele>442.967041</ele>
        <time>2016-09-25T07:23:43Z</time>
      </trkpt>
      <trkpt lat="45.71422" lon="4.65506">
        <ele>443.286682</ele>
        <time>2016-09-25T07:23:45Z</time>
      </trkpt>
      <trkpt lat="45.71427" lon="4.65502">
        <ele>443.697998</ele>
        <time>2016-09-25T07:23:47Z</time>
      </trkpt>
      <trkpt lat="45.71431" lon="4.65498">
        <ele>444.263977</ele>
        <time>2016-09-25T07:23:49Z</time>
      </trkpt>
      <trkpt lat="45.71433" lon="4.65492">
        <ele>444.630615</ele>
        <time>2016-09-25T07:23:51Z</time>
      </trkpt>
      <trkpt lat="45.71434" lon="4.65486">
        <ele>445.11441</ele>
        <time>2016-09-25T07:23:53Z</time>
      </trkpt>
      <trkpt lat="45.71434" lon="4.65479">
        <ele>445.643616</ele>
        <time>2016-09-25T07:23:55Z</time>
      </trkpt>
      <trkpt lat="45.71434" lon="4.65472">
        <ele>446.088623</ele>
        <time>2016-09-25T07:23:57Z</time>
      </trkpt>
      <trkpt lat="45.71433" lon="4.65466">
        <ele>446.52417</ele>
        <time>2016-09-25T07:23:59Z</time>
      </trkpt>
      <trkpt lat="45.71433" lon="4.6546">
        <ele>446.833099</ele>
        <time>2016-09-25T07:24:01Z</time>
      </trkpt>
      <trkpt lat="45.71431" lon="4.65454">
        <ele>447.092346</ele>
        <time>2016-09-25T07:24:03Z</time>
      </trkpt>
      <trkpt lat="45.71429" lon="4.65448">
        <ele>447.482117</ele>
        <time>2016-09-25T07:24:05Z</time>
      </trkpt>
      <trkpt lat="45.71428" lon="4.65443">
        <ele>447.864166</ele>
        <time>2016-09-25T07:24:07Z</time>
      </trkpt>
      <trkpt lat="45.71426" lon="4.65439">
        <ele>448.192566</ele>
        <time>2016-09-25T07:24:09Z</time>
      </trkpt>
      <trkpt lat="45.71423" lon="4.65435">
        <ele>448.611877</ele>
        <time>2016-09-25T07:24:11Z</time>
      </trkpt>
      <trkpt lat="45.7142" lon="4.65432">
        <ele>449.000824</ele>
        <time>2016-09-25T07:24:13Z</time>
      </trkpt>
      <trkpt lat="45.71417" lon="4.65429">
        <ele>449.412354</ele>
        <time>2016-09-25T07:24:15Z</time>
      </trkpt>
      <trkpt lat="45.71415" lon="4.65426">
        <ele>449.667389</ele>
        <time>2016-09-25T07:24:17Z</time>
      </trkpt>
      <trkpt lat="45.71412" lon="4.65422">
        <ele>450.06073</ele>
        <time>2016-09-25T07:24:19Z</time>
      </trkpt>
      <trkpt lat="45.71409" lon="4.65419">
        <ele>450.397888</ele>
        <time>2016-09-25T07:24:21Z</time>
      </trkpt>
      <trkpt lat="45.71405" lon="4.65415">
        <ele>450.748047</ele>
        <time>2016-09-25T07:24:23Z</time>
      </trkpt>
      <trkpt lat="45.71402" lon="4.65411">
        <ele>451.096191</ele>
        <time>2016-09-25T07:24:25Z</time>
      </trkpt>
      <trkpt lat="45.71398" lon="4.65407">
        <ele>451.722015</ele>
        <time>2016-09-25T07:24:27Z</time>
      </trkpt>
      <trkpt lat="45.71394" lon="4.65403">
        <ele>451.938385</ele>
        <time>2016-09-25T07:24:29Z</time>
      </trkpt>
      <trkpt lat="45.71389" lon="4.65398">
        <ele>452.332031</ele>
        <time>2016-09-25T07:24:31Z</time>
      </trkpt>
      <trkpt lat="45.71385" lon="4.65394">
        <ele>452.78595</ele>
        <time>2016-09-25T07:24:33Z</time>
      </trkpt>
      <trkpt lat="45.71381" lon="4.65389">
        <ele>453.285339</ele>
        <time>2016-09-25T07:24:35Z</time>
      </trkpt>
      <trkpt lat="45.71377" lon="4.65384">
        <ele>453.691803</ele>
        <time>2016-09-25T07:24:37Z</time>
      </trkpt>
      <trkpt lat="45.71373" lon="4.65379">
        <ele>454.078766</ele>
        <time>2016-09-25T07:24:39Z</time>
      </trkpt>
      <trkpt lat="45.71368" lon="4.65374">
        <ele>454.411682</ele>
        <time>2016-09-25T07:24:41Z</time>
      </trkpt>
      <trkpt lat="45.71364" lon="4.65369">
        <ele>454.790039</ele>
        <time>2016-09-25T07:24:43Z</time>
      </trkpt>
      <trkpt lat="45.7136" lon="4.65364">
        <ele>455.219391</ele>
        <time>2016-09-25T07:24:45Z</time>
      </trkpt>
      <trkpt lat="45.71357" lon="4.65359">
        <ele>455.730164</ele>
        <time>2016-09-25T07:24:47Z</time>
      </trkpt>
      <trkpt lat="45.71357" lon="4.65351">
        <ele>456.199463</ele>
        <time>2016-09-25T07:24:49Z</time>
      </trkpt>
      <trkpt lat="45.71359" lon="4.65343">
        <ele>456.5065</ele>
        <time>2016-09-25T07:24:51Z</time>
      </trkpt>
      <trkpt lat="45.71364" lon="4.65336">
        <ele>456.582184</ele>
        <time>2016-09-25T07:24:53Z</time>
      </trkpt>
      <trkpt lat="45.71368" lon="4.6533">
        <ele>456.778992</ele>
        <time>2016-09-25T07:24:55Z</time>
      </trkpt>
      <trkpt lat="45.71371" lon="4.65325">
        <ele>457.018463</ele>
        <time>2016-09-25T07:24:57Z</time>
      </trkpt>
      <trkpt lat="45.71375" lon="4.65318">
        <ele>457.318054</ele>
        <time>2016-09-25T07:24:59Z</time>
      </trkpt>
      <trkpt lat="45.71379" lon="4.65311">
        <ele>457.516998</ele>
        <time>2016-09-25T07:25:01Z</time>
      </trkpt>
      <trkpt lat="45.71382" lon="4.65304">
        <ele>457.785156</ele>
        <time>2016-09-25T07:25:03Z</time>
      </trkpt>
      <trkpt lat="45.71384" lon="4.65298">
        <ele>457.988434</ele>
        <time>2016-09-25T07:25:05Z</time>
      </trkpt>
      <trkpt lat="45.71386" lon="4.65292">
        <ele>458.250153</ele>
        <time>2016-09-25T07:25:07Z</time>
      </trkpt>
      <trkpt lat="45.71389" lon="4.65287">
        <ele>458.179932</ele>
        <time>2016-09-25T07:25:09Z</time>
      </trkpt>
      <trkpt lat="45.71391" lon="4.65281">
        <ele>458.348785</ele>
        <time>2016-09-25T07:25:11Z</time>
      </trkpt>
      <trkpt lat="45.71392" lon="4.65275">
        <ele>458.469879</ele>
        <time>2016-09-25T07:25:13Z</time>
      </trkpt>
      <trkpt lat="45.71395" lon="4.65267">
        <ele>458.787903</ele>
        <time>2016-09-25T07:25:15Z</time>
      </trkpt>
      <trkpt lat="45.71397" lon="4.65258">
        <ele>459.051849</ele>
        <time>2016-09-25T07:25:17Z</time>
      </trkpt>
      <trkpt lat="45.71399" lon="4.65249">
        <ele>459.302795</ele>
        <time>2016-09-25T07:25:19Z</time>
      </trkpt>
      <trkpt lat="45.71401" lon="4.65239">
        <ele>459.512604</ele>
        <time>2016-09-25T07:25:21Z</time>
      </trkpt>
      <trkpt lat="45.71402" lon="4.65227">
        <ele>459.808899</ele>
        <time>2016-09-25T07:25:23Z</time>
      </trkpt>
      <trkpt lat="45.71404" lon="4.65213">
        <ele>459.824036</ele>
        <time>2016-09-25T07:25:25Z</time>
      </trkpt>
      <trkpt lat="45.71405" lon="4.65199">
        <ele>459.889343</ele>
        <time>2016-09-25T07:25:27Z</time>
      </trkpt>
      <trkpt lat="45.71407" lon="4.65184">
        <ele>460.039703</ele>
        <time>2016-09-25T07:25:29Z</time>
      </trkpt>
      <trkpt lat="45.71411" lon="4.6517">
        <ele>460.035339</ele>
        <time>2016-09-25T07:25:31Z</time>
      </trkpt>
      <trkpt lat="45.71417" lon="4.65157">
        <ele>460.13385</ele>
        <time>2016-09-25T07:25:33Z</time>
      </trkpt>
      <trkpt lat="45.71423" lon="4.65149">
        <ele>460.44281</ele>
        <time>2016-09-25T07:25:35Z</time>
      </trkpt>
      <trkpt lat="45.7143" lon="4.65142">
        <ele>461.024902</ele>
        <time>2016-09-25T07:25:37Z</time>
      </trkpt>
      <trkpt lat="45.71437" lon="4.65134">
        <ele>461.222809</ele>
        <time>2016-09-25T07:25:39Z</time>
      </trkpt>
      <trkpt lat="45.71445" lon="4.65129">
        <ele>461.557709</ele>
        <time>2016-09-25T07:25:41Z</time>
      </trkpt>
      <trkpt lat="45.71453" lon="4.65124">
        <ele>461.687561</ele>
        <time>2016-09-25T07:25:43Z</time>
      </trkpt>
      <trkpt lat="45.71459" lon="4.65119">
        <ele>461.83252</ele>
        <time>2016-09-25T07:25:45Z</time>
      </trkpt>
      <trkpt lat="45.71463" lon="4.65115">
        <ele>462.111023</ele>
        <time>2016-09-25T07:25:47Z</time>
      </trkpt>
      <trkpt lat="45.71465" lon="4.65112">
        <ele>462.424805</ele>
        <time>2016-09-25T07:25:49Z</time>
      </trkpt>
      <trkpt lat="45.71467" lon="4.65108">
        <ele>462.776215</ele>
        <time>2016-09-25T07:25:51Z</time>
      </trkpt>
      <trkpt lat="45.7147" lon="4.65105">
        <ele>463.000732</ele>
        <time>2016-09-25T07:25:53Z</time>
      </trkpt>
      <trkpt lat="45.71472" lon="4.65102">
        <ele>463.259369</ele>
        <time>2016-09-25T07:25:55Z</time>
      </trkpt>
      <trkpt lat="45.71475" lon="4.65099">
        <ele>463.510437</ele>
        <time>2016-09-25T07:25:57Z</time>
      </trkpt>
      <trkpt lat="45.71476" lon="4.65095">
        <ele>463.700928</ele>
        <time>2016-09-25T07:25:59Z</time>
      </trkpt>
      <trkpt lat="45.71479" lon="4.65093">
        <ele>464.072327</ele>
        <time>2016-09-25T07:26:01Z</time>
      </trkpt>
      <trkpt lat="45.7148" lon="4.6509">
        <ele>464.414246</ele>
        <time>2016-09-25T07:26:03Z</time>
      </trkpt>
      <trkpt lat="45.71483" lon="4.65086">
        <ele>464.715027</ele>
        <time>2016-09-25T07:26:05Z</time>
      </trkpt>
      <trkpt lat="45.71486" lon="4.65082">
        <ele>465.045746</ele>
        <time>2016-09-25T07:26:07Z</time>
      </trkpt>
      <trkpt lat="45.71489" lon="4.65078">
        <ele>465.557556</ele>
        <time>2016-09-25T07:26:09Z</time>
      </trkpt>
      <trkpt lat="45.71492" lon="4.65072">
        <ele>465.871399</ele>
        <time>2016-09-25T07:26:11Z</time>
      </trkpt>
      <trkpt lat="45.71495" lon="4.65066">
        <ele>466.208923</ele>
        <time>2016-09-25T07:26:13Z</time>
      </trkpt>
      <trkpt lat="45.71499" lon="4.65061">
        <ele>466.402649</ele>
        <time>2016-09-25T07:26:15Z</time>
      </trkpt>
      <trkpt lat="45.71503" lon="4.65055">
        <ele>466.67865</ele>
        <time>2016-09-25T07:26:17Z</time>
      </trkpt>
      <trkpt lat="45.71506" lon="4.65049">
        <ele>466.641785</ele>
        <time>2016-09-25T07:26:19Z</time>
      </trkpt>
      <trkpt lat="45.71509" lon="4.65042">
        <ele>466.873383</ele>
        <time>2016-09-25T07:26:21Z</time>
      </trkpt>
      <trkpt lat="45.71513" lon="4.65037">
        <ele>467.111969</ele>
        <time>2016-09-25T07:26:23Z</time>
      </trkpt>
      <trkpt lat="45.71516" lon="4.65031">
        <ele>467.570892</ele>
        <time>2016-09-25T07:26:25Z</time>
      </trkpt>
      <trkpt lat="45.71518" lon="4.65025">
        <ele>467.820251</ele>
        <time>2016-09-25T07:26:27Z</time>
      </trkpt>
      <trkpt lat="45.71521" lon="4.65018">
        <ele>468.028076</ele>
        <time>2016-09-25T07:26:29Z</time>
      </trkpt>
      <trkpt lat="45.71523" lon="4.65011">
        <ele>468.312164</ele>
        <time>2016-09-25T07:26:31Z</time>
      </trkpt>
      <trkpt lat="45.71524" lon="4.65003">
        <ele>468.64325</ele>
        <time>2016-09-25T07:26:33Z</time>
      </trkpt>
      <trkpt lat="45.71526" lon="4.64995">
        <ele>469.076324</ele>
        <time>2016-09-25T07:26:35Z</time>
      </trkpt>
      <trkpt lat="45.71529" lon="4.64985">
        <ele>469.358795</ele>
        <time>2016-09-25T07:26:37Z</time>
      </trkpt>
      <trkpt lat="45.7153" lon="4.64976">
        <ele>469.495209</ele>
        <time>2016-09-25T07:26:39Z</time>
      </trkpt>
      <trkpt lat="45.71531" lon="4.64967">
        <ele>469.685699</ele>
        <time>2016-09-25T07:26:41Z</time>
      </trkpt>
      <trkpt lat="45.71532" lon="4.64957">
        <ele>469.792664</ele>
        <time>2016-09-25T07:26:43Z</time>
      </trkpt>
      <trkpt lat="45.71532" lon="4.64947">
        <ele>469.974548</ele>
        <time>2016-09-25T07:26:45Z</time>
      </trkpt>
      <trkpt lat="45.71532" lon="4.64937">
        <ele>470.110992</ele>
        <time>2016-09-25T07:26:47Z</time>
      </trkpt>
      <trkpt lat="45.71531" lon="4.64926">
        <ele>470.115387</ele>
        <time>2016-09-25T07:26:49Z</time>
      </trkpt>
      <trkpt lat="45.71529" lon="4.64915">
        <ele>470.239899</ele>
        <time>2016-09-25T07:26:51Z</time>
      </trkpt>
      <trkpt lat="45.71525" lon="4.64897">
        <ele>470.342346</ele>
        <time>2016-09-25T07:26:54Z</time>
      </trkpt>
      <trkpt lat="45.71522" lon="4.64883">
        <ele>470.549255</ele>
        <time>2016-09-25T07:26:56Z</time>
      </trkpt>
      <trkpt lat="45.71517" lon="4.64869">
        <ele>470.529724</ele>
        <time>2016-09-25T07:26:58Z</time>
      </trkpt>
      <trkpt lat="45.71511" lon="4.64853">
        <ele>470.557037</ele>
        <time>2016-09-25T07:27:00Z</time>
      </trkpt>
      <trkpt lat="45.71505" lon="4.64837">
        <ele>470.676117</ele>
        <time>2016-09-25T07:27:02Z</time>
      </trkpt>
      <trkpt lat="45.71499" lon="4.64822">
        <ele>470.601624</ele>
        <time>2016-09-25T07:27:04Z</time>
      </trkpt>
      <trkpt lat="45.71494" lon="4.64808">
        <ele>470.577789</ele>
        <time>2016-09-25T07:27:06Z</time>
      </trkpt>
      <trkpt lat="45.71489" lon="4.64796">
        <ele>470.626373</ele>
        <time>2016-09-25T07:27:08Z</time>
      </trkpt>
      <trkpt lat="45.71485" lon="4.64787">
        <ele>470.594055</ele>
        <time>2016-09-25T07:27:10Z</time>
      </trkpt>
      <trkpt lat="45.71482" lon="4.64779">
        <ele>470.715271</ele>
        <time>2016-09-25T07:27:12Z</time>
      </trkpt>
      <trkpt lat="45.71479" lon="4.64771">
        <ele>470.717926</ele>
        <time>2016-09-25T07:27:14Z</time>
      </trkpt>
      <trkpt lat="45.71478" lon="4.64764">
        <ele>470.747498</ele>
        <time>2016-09-25T07:27:16Z</time>
      </trkpt>
      <trkpt lat="45.71476" lon="4.64757">
        <ele>470.818939</ele>
        <time>2016-09-25T07:27:18Z</time>
      </trkpt>
      <trkpt lat="45.71473" lon="4.64751">
        <ele>470.860107</ele>
        <time>2016-09-25T07:27:20Z</time>
      </trkpt>
      <trkpt lat="45.71471" lon="4.64746">
        <ele>470.855865</ele>
        <time>2016-09-25T07:27:22Z</time>
      </trkpt>
      <trkpt lat="45.71469" lon="4.64742">
        <ele>470.964203</ele>
        <time>2016-09-25T07:27:24Z</time>
      </trkpt>
      <trkpt lat="45.71467" lon="4.64737">
        <ele>471.069183</ele>
        <time>2016-09-25T07:27:26Z</time>
      </trkpt>
      <trkpt lat="45.71466" lon="4.64732">
        <ele>471.233582</ele>
        <time>2016-09-25T07:27:28Z</time>
      </trkpt>
      <trkpt lat="45.71465" lon="4.64728">
        <ele>471.690613</ele>
        <time>2016-09-25T07:27:30Z</time>
      </trkpt>
      <trkpt lat="45.71464" lon="4.64723">
        <ele>472.129883</ele>
        <time>2016-09-25T07:27:32Z</time>
      </trkpt>
      <trkpt lat="45.71462" lon="4.64715">
        <ele>472.380798</ele>
        <time>2016-09-25T07:27:34Z</time>
      </trkpt>
      <trkpt lat="45.7146" lon="4.64711">
        <ele>472.767975</ele>
        <time>2016-09-25T07:27:36Z</time>
      </trkpt>
      <trkpt lat="45.71458" lon="4.64707">
        <ele>473.130554</ele>
        <time>2016-09-25T07:27:38Z</time>
      </trkpt>
      <trkpt lat="45.71456" lon="4.64703">
        <ele>473.750092</ele>
        <time>2016-09-25T07:27:40Z</time>
      </trkpt>
      <trkpt lat="45.71454" lon="4.64699">
        <ele>473.999115</ele>
        <time>2016-09-25T07:27:42Z</time>
      </trkpt>
      <trkpt lat="45.71452" lon="4.64695">
        <ele>474.380768</ele>
        <time>2016-09-25T07:27:44Z</time>
      </trkpt>
      <trkpt lat="45.7145" lon="4.64693">
        <ele>474.925476</ele>
        <time>2016-09-25T07:27:46Z</time>
      </trkpt>
      <trkpt lat="45.71447" lon="4.64689">
        <ele>475.601471</ele>
        <time>2016-09-25T07:27:48Z</time>
      </trkpt>
      <trkpt lat="45.71446" lon="4.64686">
        <ele>476.199402</ele>
        <time>2016-09-25T07:27:50Z</time>
      </trkpt>
      <trkpt lat="45.71445" lon="4.64683">
        <ele>476.631744</ele>
        <time>2016-09-25T07:27:52Z</time>
      </trkpt>
      <trkpt lat="45.71442" lon="4.6468">
        <ele>477.13446</ele>
        <time>2016-09-25T07:27:54Z</time>
      </trkpt>
      <trkpt lat="45.71441" lon="4.64677">
        <ele>477.597839</ele>
        <time>2016-09-25T07:27:56Z</time>
      </trkpt>
      <trkpt lat="45.71439" lon="4.64674">
        <ele>478.046387</ele>
        <time>2016-09-25T07:27:58Z</time>
      </trkpt>
      <trkpt lat="45.71437" lon="4.64672">
        <ele>478.542572</ele>
        <time>2016-09-25T07:28:00Z</time>
      </trkpt>
      <trkpt lat="45.71434" lon="4.6467">
        <ele>478.984558</ele>
        <time>2016-09-25T07:28:02Z</time>
      </trkpt>
      <trkpt lat="45.71432" lon="4.64668">
        <ele>479.385162</ele>
        <time>2016-09-25T07:28:04Z</time>
      </trkpt>
      <trkpt lat="45.7143" lon="4.64665">
        <ele>479.773041</ele>
        <time>2016-09-25T07:28:06Z</time>
      </trkpt>
      <trkpt lat="45.71428" lon="4.64663">
        <ele>480.233795</ele>
        <time>2016-09-25T07:28:08Z</time>
      </trkpt>
      <trkpt lat="45.71426" lon="4.64662">
        <ele>480.415344</ele>
        <time>2016-09-25T07:28:10Z</time>
      </trkpt>
      <trkpt lat="45.71425" lon="4.64661">
        <ele>480.608307</ele>
        <time>2016-09-25T07:28:12Z</time>
      </trkpt>
      <trkpt lat="45.71423" lon="4.6466">
        <ele>480.931732</ele>
        <time>2016-09-25T07:28:14Z</time>
      </trkpt>
      <trkpt lat="45.71422" lon="4.64659">
        <ele>481.21933</ele>
        <time>2016-09-25T07:28:16Z</time>
      </trkpt>
      <trkpt lat="45.7142" lon="4.64657">
        <ele>481.431824</ele>
        <time>2016-09-25T07:28:18Z</time>
      </trkpt>
      <trkpt lat="45.71418" lon="4.64656">
        <ele>481.691956</ele>
        <time>2016-09-25T07:28:20Z</time>
      </trkpt>
      <trkpt lat="45.71415" lon="4.64656">
        <ele>481.893494</ele>
        <time>2016-09-25T07:28:22Z</time>
      </trkpt>
      <trkpt lat="45.71413" lon="4.64655">
        <ele>482.211975</ele>
        <time>2016-09-25T07:28:24Z</time>
      </trkpt>
      <trkpt lat="45.71411" lon="4.64655">
        <ele>482.660797</ele>
        <time>2016-09-25T07:28:26Z</time>
      </trkpt>
      <trkpt lat="45.71409" lon="4.64654">
        <ele>482.741028</ele>
        <time>2016-09-25T07:28:28Z</time>
      </trkpt>
      <trkpt lat="45.71406" lon="4.64653">
        <ele>483.024109</ele>
        <time>2016-09-25T07:28:30Z</time>
      </trkpt>
      <trkpt lat="45.71404" lon="4.64653">
        <ele>483.370789</ele>
        <time>2016-09-25T07:28:32Z</time>
      </trkpt>
      <trkpt lat="45.71403" lon="4.64653">
        <ele>483.570251</ele>
        <time>2016-09-25T07:28:34Z</time>
      </trkpt>
      <trkpt lat="45.71399" lon="4.64652">
        <ele>485.242767</ele>
        <time>2016-09-25T07:28:44Z</time>
      </trkpt>
      <trkpt lat="45.71398" lon="4.6465">
        <ele>485.414398</ele>
        <time>2016-09-25T07:28:46Z</time>
      </trkpt>
      <trkpt lat="45.71395" lon="4.64648">
        <ele>486.164795</ele>
        <time>2016-09-25T07:28:50Z</time>
      </trkpt>
      <trkpt lat="45.71391" lon="4.64648">
        <ele>487.153625</ele>
        <time>2016-09-25T07:28:56Z</time>
      </trkpt>
      <trkpt lat="45.71387" lon="4.64647">
        <ele>488.661072</ele>
        <time>2016-09-25T07:29:04Z</time>
      </trkpt>
      <trkpt lat="45.71386" lon="4.64647">
        <ele>488.841156</ele>
        <time>2016-09-25T07:29:06Z</time>
      </trkpt>
      <trkpt lat="45.71383" lon="4.64645">
        <ele>489.679535</ele>
        <time>2016-09-25T07:29:12Z</time>
      </trkpt>
      <trkpt lat="45.7138" lon="4.64644">
        <ele>490.351135</ele>
        <time>2016-09-25T07:29:16Z</time>
      </trkpt>
      <trkpt lat="45.71378" lon="4.64643">
        <ele>490.827881</ele>
        <time>2016-09-25T07:29:20Z</time>
      </trkpt>
      <trkpt lat="45.71368" lon="4.6464">
        <ele>493.087891</ele>
        <time>2016-09-25T07:29:38Z</time>
      </trkpt>
      <trkpt lat="45.71366" lon="4.6464">
        <ele>493.411194</ele>
        <time>2016-09-25T07:29:40Z</time>
      </trkpt>
      <trkpt lat="45.71364" lon="4.6464">
        <ele>493.548401</ele>
        <time>2016-09-25T07:29:42Z</time>
      </trkpt>
      <trkpt lat="45.71363" lon="4.6464">
        <ele>493.878265</ele>
        <time>2016-09-25T07:29:44Z</time>
      </trkpt>
      <trkpt lat="45.71361" lon="4.64639">
        <ele>494.14093</ele>
        <time>2016-09-25T07:29:46Z</time>
      </trkpt>
      <trkpt lat="45.71359" lon="4.64639">
        <ele>494.355774</ele>
        <time>2016-09-25T07:29:48Z</time>
      </trkpt>
      <trkpt lat="45.71358" lon="4.64639">
        <ele>494.71817</ele>
        <time>2016-09-25T07:29:50Z</time>
      </trkpt>
      <trkpt lat="45.71355" lon="4.64639">
        <ele>495.284729</ele>
        <time>2016-09-25T07:29:54Z</time>
      </trkpt>
      <trkpt lat="45.71353" lon="4.64639">
        <ele>495.577209</ele>
        <time>2016-09-25T07:29:56Z</time>
      </trkpt>
      <trkpt lat="45.71351" lon="4.64638">
        <ele>495.742188</ele>
        <time>2016-09-25T07:29:58Z</time>
      </trkpt>
      <trkpt lat="45.71349" lon="4.64639">
        <ele>496.029938</ele>
        <time>2016-09-25T07:30:00Z</time>
      </trkpt>
      <trkpt lat="45.71348" lon="4.64638">
        <ele>496.233978</ele>
        <time>2016-09-25T07:30:02Z</time>
      </trkpt>
      <trkpt lat="45.71347" lon="4.64637">
        <ele>496.484131</ele>
        <time>2016-09-25T07:30:04Z</time>
      </trkpt>
      <trkpt lat="45.71346" lon="4.64636">
        <ele>496.904449</ele>
        <time>2016-09-25T07:30:06Z</time>
      </trkpt>
      <trkpt lat="45.71343" lon="4.64635">
        <ele>497.458069</ele>
        <time>2016-09-25T07:30:12Z</time>
      </trkpt>
      <trkpt lat="45.71339" lon="4.64633">
        <ele>497.997314</ele>
        <time>2016-09-25T07:30:16Z</time>
      </trkpt>
      <trkpt lat="45.71338" lon="4.64632">
        <ele>498.345062</ele>
        <time>2016-09-25T07:30:18Z</time>
      </trkpt>
      <trkpt lat="45.71336" lon="4.64631">
        <ele>498.714752</ele>
        <time>2016-09-25T07:30:20Z</time>
      </trkpt>
      <trkpt lat="45.71335" lon="4.6463">
        <ele>498.812439</ele>
        <time>2016-09-25T07:30:22Z</time>
      </trkpt>
      <trkpt lat="45.71333" lon="4.6463">
        <ele>499.191986</ele>
        <time>2016-09-25T07:30:24Z</time>
      </trkpt>
      <trkpt lat="45.7133" lon="4.64629">
        <ele>499.500397</ele>
        <time>2016-09-25T07:30:26Z</time>
      </trkpt>
      <trkpt lat="45.71327" lon="4.64627">
        <ele>499.770935</ele>
        <time>2016-09-25T07:30:28Z</time>
      </trkpt>
      <trkpt lat="45.71325" lon="4.64627">
        <ele>500.118469</ele>
        <time>2016-09-25T07:30:30Z</time>
      </trkpt>
      <trkpt lat="45.71322" lon="4.64626">
        <ele>500.363861</ele>
        <time>2016-09-25T07:30:32Z</time>
      </trkpt>
      <trkpt lat="45.71319" lon="4.64624">
        <ele>500.641846</ele>
        <time>2016-09-25T07:30:34Z</time>
      </trkpt>
      <trkpt lat="45.71317" lon="4.64621">
        <ele>500.930756</ele>
        <time>2016-09-25T07:30:36Z</time>
      </trkpt>
      <trkpt lat="45.71315" lon="4.64618">
        <ele>501.40387</ele>
        <time>2016-09-25T07:30:38Z</time>
      </trkpt>
      <trkpt lat="45.71312" lon="4.64615">
        <ele>501.783936</ele>
        <time>2016-09-25T07:30:40Z</time>
      </trkpt>
      <trkpt lat="45.71309" lon="4.64613">
        <ele>502.237946</ele>
        <time>2016-09-25T07:30:42Z</time>
      </trkpt>
      <trkpt lat="45.71307" lon="4.64612">
        <ele>502.698486</ele>
        <time>2016-09-25T07:30:44Z</time>
      </trkpt>
      <trkpt lat="45.71304" lon="4.6461">
        <ele>502.980865</ele>
        <time>2016-09-25T07:30:46Z</time>
      </trkpt>
      <trkpt lat="45.71301" lon="4.64608">
        <ele>503.315094</ele>
        <time>2016-09-25T07:30:48Z</time>
      </trkpt>
      <trkpt lat="45.71299" lon="4.64606">
        <ele>503.673523</ele>
        <time>2016-09-25T07:30:50Z</time>
      </trkpt>
      <trkpt lat="45.71296" lon="4.64603">
        <ele>504.12384</ele>
        <time>2016-09-25T07:30:52Z</time>
      </trkpt>
      <trkpt lat="45.71293" lon="4.646">
        <ele>504.475769</ele>
        <time>2016-09-25T07:30:54Z</time>
      </trkpt>
      <trkpt lat="45.71289" lon="4.64595">
        <ele>504.874695</ele>
        <time>2016-09-25T07:30:56Z</time>
      </trkpt>
      <trkpt lat="45.71285" lon="4.64592">
        <ele>505.209778</ele>
        <time>2016-09-25T07:30:58Z</time>
      </trkpt>
      <trkpt lat="45.71281" lon="4.64589">
        <ele>505.617126</ele>
        <time>2016-09-25T07:31:00Z</time>
      </trkpt>
      <trkpt lat="45.71277" lon="4.64585">
        <ele>506.086365</ele>
        <time>2016-09-25T07:31:02Z</time>
      </trkpt>
      <trkpt lat="45.71273" lon="4.64581">
        <ele>506.234131</ele>
        <time>2016-09-25T07:31:04Z</time>
      </trkpt>
      <trkpt lat="45.7127" lon="4.64578">
        <ele>506.49054</ele>
        <time>2016-09-25T07:31:06Z</time>
      </trkpt>
      <trkpt lat="45.71267" lon="4.64575">
        <ele>506.899078</ele>
        <time>2016-09-25T07:31:08Z</time>
      </trkpt>
      <trkpt lat="45.71264" lon="4.64571">
        <ele>507.293365</ele>
        <time>2016-09-25T07:31:10Z</time>
      </trkpt>
      <trkpt lat="45.71259" lon="4.64567">
        <ele>507.584564</ele>
        <time>2016-09-25T07:31:12Z</time>
      </trkpt>
      <trkpt lat="45.71256" lon="4.64563">
        <ele>507.962708</ele>
        <time>2016-09-25T07:31:14Z</time>
      </trkpt>
      <trkpt lat="45.71251" lon="4.64558">
        <ele>508.136536</ele>
        <time>2016-09-25T07:31:16Z</time>
      </trkpt>
      <trkpt lat="45.71245" lon="4.64552">
        <ele>508.455078</ele>
        <time>2016-09-25T07:31:18Z</time>
      </trkpt>
      <trkpt lat="45.71239" lon="4.64546">
        <ele>508.711578</ele>
        <time>2016-09-25T07:31:20Z</time>
      </trkpt>
      <trkpt lat="45.71232" lon="4.64542">
        <ele>508.97998</ele>
        <time>2016-09-25T07:31:22Z</time>
      </trkpt>
      <trkpt lat="45.71225" lon="4.64538">
        <ele>509.064758</ele>
        <time>2016-09-25T07:31:24Z</time>
      </trkpt>
      <trkpt lat="45.71218" lon="4.64535">
        <ele>509.193542</ele>
        <time>2016-09-25T07:31:26Z</time>
      </trkpt>
      <trkpt lat="45.71212" lon="4.64533">
        <ele>509.153656</ele>
        <time>2016-09-25T07:31:28Z</time>
      </trkpt>
      <trkpt lat="45.71206" lon="4.64531">
        <ele>509.24823</ele>
        <time>2016-09-25T07:31:30Z</time>
      </trkpt>
      <trkpt lat="45.712" lon="4.64529">
        <ele>509.311615</ele>
        <time>2016-09-25T07:31:32Z</time>
      </trkpt>
      <trkpt lat="45.71195" lon="4.64528">
        <ele>509.411621</ele>
        <time>2016-09-25T07:31:34Z</time>
      </trkpt>
      <trkpt lat="45.7119" lon="4.64525">
        <ele>509.637756</ele>
        <time>2016-09-25T07:31:36Z</time>
      </trkpt>
      <trkpt lat="45.71186" lon="4.64523">
        <ele>509.842133</ele>
        <time>2016-09-25T07:31:38Z</time>
      </trkpt>
      <trkpt lat="45.71181" lon="4.64522">
        <ele>510.17749</ele>
        <time>2016-09-25T07:31:40Z</time>
      </trkpt>
      <trkpt lat="45.71176" lon="4.6452">
        <ele>510.405762</ele>
        <time>2016-09-25T07:31:42Z</time>
      </trkpt>
      <trkpt lat="45.71172" lon="4.64518">
        <ele>510.86441</ele>
        <time>2016-09-25T07:31:44Z</time>
      </trkpt>
      <trkpt lat="45.71168" lon="4.64517">
        <ele>511.064392</ele>
        <time>2016-09-25T07:31:46Z</time>
      </trkpt>
      <trkpt lat="45.71164" lon="4.64515">
        <ele>511.307922</ele>
        <time>2016-09-25T07:31:48Z</time>
      </trkpt>
      <trkpt lat="45.71161" lon="4.64513">
        <ele>511.56665</ele>
        <time>2016-09-25T07:31:50Z</time>
      </trkpt>
      <trkpt lat="45.71156" lon="4.64512">
        <ele>511.760193</ele>
        <time>2016-09-25T07:31:52Z</time>
      </trkpt>
      <trkpt lat="45.71153" lon="4.64511">
        <ele>512.0755</ele>
        <time>2016-09-25T07:31:54Z</time>
      </trkpt>
      <trkpt lat="45.71149" lon="4.6451">
        <ele>512.386414</ele>
        <time>2016-09-25T07:31:56Z</time>
      </trkpt>
      <trkpt lat="45.71147" lon="4.6451">
        <ele>512.685303</ele>
        <time>2016-09-25T07:31:58Z</time>
      </trkpt>
      <trkpt lat="45.71144" lon="4.64509">
        <ele>512.944092</ele>
        <time>2016-09-25T07:32:00Z</time>
      </trkpt>
      <trkpt lat="45.71141" lon="4.64508">
        <ele>513.30072</ele>
        <time>2016-09-25T07:32:02Z</time>
      </trkpt>
      <trkpt lat="45.71138" lon="4.64507">
        <ele>513.526855</ele>
        <time>2016-09-25T07:32:04Z</time>
      </trkpt>
      <trkpt lat="45.71135" lon="4.64507">
        <ele>514.050964</ele>
        <time>2016-09-25T07:32:06Z</time>
      </trkpt>
      <trkpt lat="45.71132" lon="4.64506">
        <ele>514.533081</ele>
        <time>2016-09-25T07:32:08Z</time>
      </trkpt>
      <trkpt lat="45.71129" lon="4.64506">
        <ele>515.082214</ele>
        <time>2016-09-25T07:32:10Z</time>
      </trkpt>
      <trkpt lat="45.71126" lon="4.64506">
        <ele>515.679382</ele>
        <time>2016-09-25T07:32:12Z</time>
      </trkpt>
      <trkpt lat="45.71122" lon="4.64506">
        <ele>516.122986</ele>
        <time>2016-09-25T07:32:14Z</time>
      </trkpt>
      <trkpt lat="45.7112" lon="4.64505">
        <ele>516.74939</ele>
        <time>2016-09-25T07:32:16Z</time>
      </trkpt>
      <trkpt lat="45.71117" lon="4.64504">
        <ele>517.224731</ele>
        <time>2016-09-25T07:32:18Z</time>
      </trkpt>
      <trkpt lat="45.71114" lon="4.64504">
        <ele>517.786011</ele>
        <time>2016-09-25T07:32:20Z</time>
      </trkpt>
      <trkpt lat="45.71111" lon="4.64503">
        <ele>518.225464</ele>
        <time>2016-09-25T07:32:22Z</time>
      </trkpt>
      <trkpt lat="45.71109" lon="4.64503">
        <ele>518.819458</ele>
        <time>2016-09-25T07:32:24Z</time>
      </trkpt>
      <trkpt lat="45.71106" lon="4.64503">
        <ele>519.387329</ele>
        <time>2016-09-25T07:32:26Z</time>
      </trkpt>
      <trkpt lat="45.71103" lon="4.64502">
        <ele>519.981323</ele>
        <time>2016-09-25T07:32:28Z</time>
      </trkpt>
      <trkpt lat="45.711" lon="4.64501">
        <ele>520.449158</ele>
        <time>2016-09-25T07:32:30Z</time>
      </trkpt>
      <trkpt lat="45.71097" lon="4.64501">
        <ele>520.930115</ele>
        <time>2016-09-25T07:32:32Z</time>
      </trkpt>
      <trkpt lat="45.71095" lon="4.645">
        <ele>521.528503</ele>
        <time>2016-09-25T07:32:34Z</time>
      </trkpt>
      <trkpt lat="45.71092" lon="4.64499">
        <ele>521.998535</ele>
        <time>2016-09-25T07:32:36Z</time>
      </trkpt>
      <trkpt lat="45.71088" lon="4.64499">
        <ele>522.525269</ele>
        <time>2016-09-25T07:32:38Z</time>
      </trkpt>
      <trkpt lat="45.71085" lon="4.64499">
        <ele>523.078003</ele>
        <time>2016-09-25T07:32:40Z</time>
      </trkpt>
      <trkpt lat="45.71082" lon="4.64499">
        <ele>523.278809</ele>
        <time>2016-09-25T07:32:42Z</time>
      </trkpt>
      <trkpt lat="45.71078" lon="4.64499">
        <ele>523.698853</ele>
        <time>2016-09-25T07:32:44Z</time>
      </trkpt>
      <trkpt lat="45.71075" lon="4.64498">
        <ele>524.144958</ele>
        <time>2016-09-25T07:32:46Z</time>
      </trkpt>
      <trkpt lat="45.71072" lon="4.64498">
        <ele>524.547607</ele>
        <time>2016-09-25T07:32:48Z</time>
      </trkpt>
      <trkpt lat="45.7107" lon="4.64498">
        <ele>525.098267</ele>
        <time>2016-09-25T07:32:50Z</time>
      </trkpt>
      <trkpt lat="45.71067" lon="4.64499">
        <ele>525.546692</ele>
        <time>2016-09-25T07:32:52Z</time>
      </trkpt>
      <trkpt lat="45.71065" lon="4.645">
        <ele>525.995178</ele>
        <time>2016-09-25T07:32:54Z</time>
      </trkpt>
      <trkpt lat="45.71063" lon="4.64502">
        <ele>526.356567</ele>
        <time>2016-09-25T07:32:56Z</time>
      </trkpt>
      <trkpt lat="45.71061" lon="4.64503">
        <ele>526.771301</ele>
        <time>2016-09-25T07:32:58Z</time>
      </trkpt>
      <trkpt lat="45.7106" lon="4.64505">
        <ele>527.141479</ele>
        <time>2016-09-25T07:33:00Z</time>
      </trkpt>
      <trkpt lat="45.71058" lon="4.64508">
        <ele>527.801331</ele>
        <time>2016-09-25T07:33:04Z</time>
      </trkpt>
      <trkpt lat="45.71058" lon="4.64511">
        <ele>528.110535</ele>
        <time>2016-09-25T07:33:06Z</time>
      </trkpt>
      <trkpt lat="45.71058" lon="4.64514">
        <ele>528.450317</ele>
        <time>2016-09-25T07:33:08Z</time>
      </trkpt>
      <trkpt lat="45.71058" lon="4.64516">
        <ele>528.772583</ele>
        <time>2016-09-25T07:33:10Z</time>
      </trkpt>
      <trkpt lat="45.71058" lon="4.64519">
        <ele>528.920715</ele>
        <time>2016-09-25T07:33:12Z</time>
      </trkpt>
      <trkpt lat="45.71058" lon="4.64521">
        <ele>529.178528</ele>
        <time>2016-09-25T07:33:14Z</time>
      </trkpt>
      <trkpt lat="45.71058" lon="4.64524">
        <ele>529.449524</ele>
        <time>2016-09-25T07:33:16Z</time>
      </trkpt>
      <trkpt lat="45.71058" lon="4.64527">
        <ele>529.745728</ele>
        <time>2016-09-25T07:33:18Z</time>
      </trkpt>
      <trkpt lat="45.71058" lon="4.64529">
        <ele>529.89386</ele>
        <time>2016-09-25T07:33:20Z</time>
      </trkpt>
      <trkpt lat="45.71058" lon="4.64532">
        <ele>530.24231</ele>
        <time>2016-09-25T07:33:22Z</time>
      </trkpt>
      <trkpt lat="45.71058" lon="4.64535">
        <ele>530.564087</ele>
        <time>2016-09-25T07:33:24Z</time>
      </trkpt>
      <trkpt lat="45.71058" lon="4.64538">
        <ele>531.082703</ele>
        <time>2016-09-25T07:33:26Z</time>
      </trkpt>
      <trkpt lat="45.71058" lon="4.64542">
        <ele>531.440063</ele>
        <time>2016-09-25T07:33:28Z</time>
      </trkpt>
      <trkpt lat="45.71057" lon="4.64546">
        <ele>531.751465</ele>
        <time>2016-09-25T07:33:30Z</time>
      </trkpt>
      <trkpt lat="45.71058" lon="4.6455">
        <ele>532.070496</ele>
        <time>2016-09-25T07:33:32Z</time>
      </trkpt>
      <trkpt lat="45.71058" lon="4.64554">
        <ele>532.43866</ele>
        <time>2016-09-25T07:33:34Z</time>
      </trkpt>
      <trkpt lat="45.71056" lon="4.64557">
        <ele>532.684875</ele>
        <time>2016-09-25T07:33:36Z</time>
      </trkpt>
      <trkpt lat="45.71055" lon="4.64559">
        <ele>532.90271</ele>
        <time>2016-09-25T07:33:38Z</time>
      </trkpt>
      <trkpt lat="45.71055" lon="4.64561">
        <ele>533.269714</ele>
        <time>2016-09-25T07:33:40Z</time>
      </trkpt>
      <trkpt lat="45.71053" lon="4.64564">
        <ele>533.592285</ele>
        <time>2016-09-25T07:33:42Z</time>
      </trkpt>
      <trkpt lat="45.71053" lon="4.64567">
        <ele>533.967102</ele>
        <time>2016-09-25T07:33:44Z</time>
      </trkpt>
      <trkpt lat="45.71051" lon="4.64569">
        <ele>534.442078</ele>
        <time>2016-09-25T07:33:46Z</time>
      </trkpt>
      <trkpt lat="45.7105" lon="4.64572">
        <ele>534.925903</ele>
        <time>2016-09-25T07:33:48Z</time>
      </trkpt>
      <trkpt lat="45.71048" lon="4.64575">
        <ele>535.331543</ele>
        <time>2016-09-25T07:33:50Z</time>
      </trkpt>
      <trkpt lat="45.71047" lon="4.64579">
        <ele>535.697144</ele>
        <time>2016-09-25T07:33:52Z</time>
      </trkpt>
      <trkpt lat="45.71046" lon="4.64582">
        <ele>536.108215</ele>
        <time>2016-09-25T07:33:54Z</time>
      </trkpt>
      <trkpt lat="45.71045" lon="4.64585">
        <ele>536.573608</ele>
        <time>2016-09-25T07:33:56Z</time>
      </trkpt>
      <trkpt lat="45.71044" lon="4.64588">
        <ele>537.053101</ele>
        <time>2016-09-25T07:33:58Z</time>
      </trkpt>
      <trkpt lat="45.71043" lon="4.64591">
        <ele>537.617554</ele>
        <time>2016-09-25T07:34:00Z</time>
      </trkpt>
      <trkpt lat="45.71043" lon="4.64595">
        <ele>537.942261</ele>
        <time>2016-09-25T07:34:02Z</time>
      </trkpt>
      <trkpt lat="45.71043" lon="4.64598">
        <ele>538.352905</ele>
        <time>2016-09-25T07:34:04Z</time>
      </trkpt>
      <trkpt lat="45.71042" lon="4.64601">
        <ele>538.79541</ele>
        <time>2016-09-25T07:34:06Z</time>
      </trkpt>
      <trkpt lat="45.71042" lon="4.64604">
        <ele>539.180542</ele>
        <time>2016-09-25T07:34:08Z</time>
      </trkpt>
      <trkpt lat="45.71041" lon="4.64607">
        <ele>539.551147</ele>
        <time>2016-09-25T07:34:10Z</time>
      </trkpt>
      <trkpt lat="45.7104" lon="4.6461">
        <ele>539.937805</ele>
        <time>2016-09-25T07:34:12Z</time>
      </trkpt>
      <trkpt lat="45.7104" lon="4.64614">
        <ele>540.320496</ele>
        <time>2016-09-25T07:34:14Z</time>
      </trkpt>
      <trkpt lat="45.71039" lon="4.64618">
        <ele>540.631958</ele>
        <time>2016-09-25T07:34:16Z</time>
      </trkpt>
      <trkpt lat="45.71038" lon="4.64622">
        <ele>541.078796</ele>
        <time>2016-09-25T07:34:18Z</time>
      </trkpt>
      <trkpt lat="45.71037" lon="4.64627">
        <ele>541.302368</ele>
        <time>2016-09-25T07:34:20Z</time>
      </trkpt>
      <trkpt lat="45.71036" lon="4.64631">
        <ele>541.614136</ele>
        <time>2016-09-25T07:34:22Z</time>
      </trkpt>
      <trkpt lat="45.71035" lon="4.64635">
        <ele>541.843079</ele>
        <time>2016-09-25T07:34:24Z</time>
      </trkpt>
      <trkpt lat="45.71035" lon="4.64639">
        <ele>541.945557</ele>
        <time>2016-09-25T07:34:26Z</time>
      </trkpt>
      <trkpt lat="45.71034" lon="4.64643">
        <ele>542.131958</ele>
        <time>2016-09-25T07:34:28Z</time>
      </trkpt>
      <trkpt lat="45.71033" lon="4.64646">
        <ele>542.367371</ele>
        <time>2016-09-25T07:34:30Z</time>
      </trkpt>
      <trkpt lat="45.71032" lon="4.64651">
        <ele>542.565491</ele>
        <time>2016-09-25T07:34:32Z</time>
      </trkpt>
      <trkpt lat="45.71031" lon="4.64654">
        <ele>542.842102</ele>
        <time>2016-09-25T07:34:34Z</time>
      </trkpt>
      <trkpt lat="45.7103" lon="4.64658">
        <ele>543.101624</ele>
        <time>2016-09-25T07:34:36Z</time>
      </trkpt>
      <trkpt lat="45.71029" lon="4.64663">
        <ele>543.317505</ele>
        <time>2016-09-25T07:34:38Z</time>
      </trkpt>
      <trkpt lat="45.71029" lon="4.64667">
        <ele>543.511597</ele>
        <time>2016-09-25T07:34:40Z</time>
      </trkpt>
      <trkpt lat="45.71029" lon="4.64671">
        <ele>543.627136</ele>
        <time>2016-09-25T07:34:42Z</time>
      </trkpt>
      <trkpt lat="45.7103" lon="4.64675">
        <ele>543.807312</ele>
        <time>2016-09-25T07:34:44Z</time>
      </trkpt>
      <trkpt lat="45.71032" lon="4.64678">
        <ele>544.003601</ele>
        <time>2016-09-25T07:34:46Z</time>
      </trkpt>
      <trkpt lat="45.71033" lon="4.6468">
        <ele>544.274109</ele>
        <time>2016-09-25T07:34:48Z</time>
      </trkpt>
      <trkpt lat="45.71034" lon="4.64683">
        <ele>544.394287</ele>
        <time>2016-09-25T07:34:50Z</time>
      </trkpt>
      <trkpt lat="45.71035" lon="4.64687">
        <ele>544.577759</ele>
        <time>2016-09-25T07:34:52Z</time>
      </trkpt>
      <trkpt lat="45.71035" lon="4.6469">
        <ele>544.908569</ele>
        <time>2016-09-25T07:34:54Z</time>
      </trkpt>
      <trkpt lat="45.71037" lon="4.64694">
        <ele>545.113647</ele>
        <time>2016-09-25T07:34:56Z</time>
      </trkpt>
      <trkpt lat="45.71038" lon="4.64697">
        <ele>545.401855</ele>
        <time>2016-09-25T07:34:58Z</time>
      </trkpt>
      <trkpt lat="45.71039" lon="4.64701">
        <ele>545.681091</ele>
        <time>2016-09-25T07:35:00Z</time>
      </trkpt>
      <trkpt lat="45.7104" lon="4.64705">
        <ele>545.803223</ele>
        <time>2016-09-25T07:35:02Z</time>
      </trkpt>
      <trkpt lat="45.71041" lon="4.6471">
        <ele>546.150024</ele>
        <time>2016-09-25T07:35:04Z</time>
      </trkpt>
      <trkpt lat="45.71042" lon="4.64714">
        <ele>546.527466</ele>
        <time>2016-09-25T07:35:06Z</time>
      </trkpt>
      <trkpt lat="45.71043" lon="4.64718">
        <ele>546.829773</ele>
        <time>2016-09-25T07:35:08Z</time>
      </trkpt>
      <trkpt lat="45.71045" lon="4.64722">
        <ele>547.043579</ele>
        <time>2016-09-25T07:35:10Z</time>
      </trkpt>
      <trkpt lat="45.71046" lon="4.64726">
        <ele>547.346924</ele>
        <time>2016-09-25T07:35:12Z</time>
      </trkpt>
      <trkpt lat="45.71048" lon="4.6473">
        <ele>547.530212</ele>
        <time>2016-09-25T07:35:14Z</time>
      </trkpt>
      <trkpt lat="45.71049" lon="4.64734">
        <ele>547.890991</ele>
        <time>2016-09-25T07:35:16Z</time>
      </trkpt>
      <trkpt lat="45.7105" lon="4.64738">
        <ele>548.187744</ele>
        <time>2016-09-25T07:35:18Z</time>
      </trkpt>
      <trkpt lat="45.71051" lon="4.64742">
        <ele>548.521606</ele>
        <time>2016-09-25T07:35:20Z</time>
      </trkpt>
      <trkpt lat="45.71053" lon="4.64745">
        <ele>548.90564</ele>
        <time>2016-09-25T07:35:22Z</time>
      </trkpt>
      <trkpt lat="45.71053" lon="4.64749">
        <ele>549.33551</ele>
        <time>2016-09-25T07:35:24Z</time>
      </trkpt>
      <trkpt lat="45.71055" lon="4.64753">
        <ele>549.706421</ele>
        <time>2016-09-25T07:35:26Z</time>
      </trkpt>
      <trkpt lat="45.71056" lon="4.64757">
        <ele>550.103638</ele>
        <time>2016-09-25T07:35:28Z</time>
      </trkpt>
      <trkpt lat="45.71057" lon="4.6476">
        <ele>550.406982</ele>
        <time>2016-09-25T07:35:30Z</time>
      </trkpt>
      <trkpt lat="45.71058" lon="4.64764">
        <ele>550.764587</ele>
        <time>2016-09-25T07:35:32Z</time>
      </trkpt>
      <trkpt lat="45.71059" lon="4.64768">
        <ele>551.109375</ele>
        <time>2016-09-25T07:35:34Z</time>
      </trkpt>
      <trkpt lat="45.7106" lon="4.64772">
        <ele>551.430298</ele>
        <time>2016-09-25T07:35:36Z</time>
      </trkpt>
      <trkpt lat="45.71061" lon="4.64776">
        <ele>551.803528</ele>
        <time>2016-09-25T07:35:38Z</time>
      </trkpt>
      <trkpt lat="45.71062" lon="4.64779">
        <ele>551.997742</ele>
        <time>2016-09-25T07:35:40Z</time>
      </trkpt>
      <trkpt lat="45.71063" lon="4.64783">
        <ele>552.296509</ele>
        <time>2016-09-25T07:35:42Z</time>
      </trkpt>
      <trkpt lat="45.71065" lon="4.64786">
        <ele>552.853882</ele>
        <time>2016-09-25T07:35:44Z</time>
      </trkpt>
      <trkpt lat="45.71066" lon="4.6479">
        <ele>553.166016</ele>
        <time>2016-09-25T07:35:46Z</time>
      </trkpt>
      <trkpt lat="45.71067" lon="4.64794">
        <ele>553.452026</ele>
        <time>2016-09-25T07:35:48Z</time>
      </trkpt>
      <trkpt lat="45.71068" lon="4.64798">
        <ele>553.768494</ele>
        <time>2016-09-25T07:35:50Z</time>
      </trkpt>
      <trkpt lat="45.71069" lon="4.64801">
        <ele>554.07843</ele>
        <time>2016-09-25T07:35:52Z</time>
      </trkpt>
      <trkpt lat="45.71069" lon="4.64805">
        <ele>554.409546</ele>
        <time>2016-09-25T07:35:54Z</time>
      </trkpt>
      <trkpt lat="45.7107" lon="4.64809">
        <ele>554.651917</ele>
        <time>2016-09-25T07:35:56Z</time>
      </trkpt>
      <trkpt lat="45.71071" lon="4.64814">
        <ele>554.988159</ele>
        <time>2016-09-25T07:35:58Z</time>
      </trkpt>
      <trkpt lat="45.71071" lon="4.64818">
        <ele>555.341858</ele>
        <time>2016-09-25T07:36:00Z</time>
      </trkpt>
      <trkpt lat="45.71072" lon="4.64822">
        <ele>555.459717</ele>
        <time>2016-09-25T07:36:02Z</time>
      </trkpt>
      <trkpt lat="45.71073" lon="4.64825">
        <ele>555.703064</ele>
        <time>2016-09-25T07:36:04Z</time>
      </trkpt>
      <trkpt lat="45.71073" lon="4.64829">
        <ele>556.010986</ele>
        <time>2016-09-25T07:36:06Z</time>
      </trkpt>
      <trkpt lat="45.71074" lon="4.64833">
        <ele>556.340698</ele>
        <time>2016-09-25T07:36:08Z</time>
      </trkpt>
      <trkpt lat="45.71075" lon="4.64838">
        <ele>556.515747</ele>
        <time>2016-09-25T07:36:10Z</time>
      </trkpt>
      <trkpt lat="45.71076" lon="4.64842">
        <ele>556.819275</ele>
        <time>2016-09-25T07:36:12Z</time>
      </trkpt>
      <trkpt lat="45.71076" lon="4.64846">
        <ele>557.133728</ele>
        <time>2016-09-25T07:36:14Z</time>
      </trkpt>
      <trkpt lat="45.71076" lon="4.64851">
        <ele>557.410278</ele>
        <time>2016-09-25T07:36:16Z</time>
      </trkpt>
      <trkpt lat="45.71077" lon="4.64855">
        <ele>557.600281</ele>
        <time>2016-09-25T07:36:18Z</time>
      </trkpt>
      <trkpt lat="45.71078" lon="4.64859">
        <ele>557.794373</ele>
        <time>2016-09-25T07:36:20Z</time>
      </trkpt>
      <trkpt lat="45.71079" lon="4.64864">
        <ele>557.921326</ele>
        <time>2016-09-25T07:36:22Z</time>
      </trkpt>
      <trkpt lat="45.71079" lon="4.64868">
        <ele>558.067688</ele>
        <time>2016-09-25T07:36:24Z</time>
      </trkpt>
      <trkpt lat="45.71079" lon="4.64872">
        <ele>558.212036</ele>
        <time>2016-09-25T07:36:26Z</time>
      </trkpt>
      <trkpt lat="45.71078" lon="4.64876">
        <ele>558.552856</ele>
        <time>2016-09-25T07:36:28Z</time>
      </trkpt>
      <trkpt lat="45.71077" lon="4.6488">
        <ele>558.775574</ele>
        <time>2016-09-25T07:36:30Z</time>
      </trkpt>
      <trkpt lat="45.71078" lon="4.64883">
        <ele>559.00293</ele>
        <time>2016-09-25T07:36:32Z</time>
      </trkpt>
      <trkpt lat="45.7108" lon="4.64886">
        <ele>559.361938</ele>
        <time>2016-09-25T07:36:34Z</time>
      </trkpt>
      <trkpt lat="45.71081" lon="4.64889">
        <ele>559.565735</ele>
        <time>2016-09-25T07:36:36Z</time>
      </trkpt>
      <trkpt lat="45.71082" lon="4.64893">
        <ele>559.891174</ele>
        <time>2016-09-25T07:36:38Z</time>
      </trkpt>
      <trkpt lat="45.71082" lon="4.64896">
        <ele>560.124878</ele>
        <time>2016-09-25T07:36:40Z</time>
      </trkpt>
      <trkpt lat="45.71083" lon="4.649">
        <ele>560.428589</ele>
        <time>2016-09-25T07:36:42Z</time>
      </trkpt>
      <trkpt lat="45.71084" lon="4.64904">
        <ele>560.566223</ele>
        <time>2016-09-25T07:36:44Z</time>
      </trkpt>
      <trkpt lat="45.71084" lon="4.64907">
        <ele>560.781189</ele>
        <time>2016-09-25T07:36:46Z</time>
      </trkpt>
      <trkpt lat="45.71085" lon="4.64911">
        <ele>560.925781</ele>
        <time>2016-09-25T07:36:48Z</time>
      </trkpt>
      <trkpt lat="45.71087" lon="4.64915">
        <ele>561.225098</ele>
        <time>2016-09-25T07:36:50Z</time>
      </trkpt>
      <trkpt lat="45.71088" lon="4.64918">
        <ele>561.596191</ele>
        <time>2016-09-25T07:36:52Z</time>
      </trkpt>
      <trkpt lat="45.71088" lon="4.64922">
        <ele>561.805908</ele>
        <time>2016-09-25T07:36:54Z</time>
      </trkpt>
      <trkpt lat="45.71089" lon="4.64926">
        <ele>562.056824</ele>
        <time>2016-09-25T07:36:56Z</time>
      </trkpt>
      <trkpt lat="45.71089" lon="4.6493">
        <ele>562.335083</ele>
        <time>2016-09-25T07:36:58Z</time>
      </trkpt>
      <trkpt lat="45.7109" lon="4.64935">
        <ele>562.658386</ele>
        <time>2016-09-25T07:37:00Z</time>
      </trkpt>
      <trkpt lat="45.71091" lon="4.64939">
        <ele>562.990784</ele>
        <time>2016-09-25T07:37:02Z</time>
      </trkpt>
      <trkpt lat="45.71092" lon="4.64943">
        <ele>563.368774</ele>
        <time>2016-09-25T07:37:04Z</time>
      </trkpt>
      <trkpt lat="45.71093" lon="4.64948">
        <ele>563.510803</ele>
        <time>2016-09-25T07:37:06Z</time>
      </trkpt>
      <trkpt lat="45.71093" lon="4.64952">
        <ele>563.900696</ele>
        <time>2016-09-25T07:37:08Z</time>
      </trkpt>
      <trkpt lat="45.71094" lon="4.64957">
        <ele>564.105713</ele>
        <time>2016-09-25T07:37:10Z</time>
      </trkpt>
      <trkpt lat="45.71094" lon="4.64962">
        <ele>564.374451</ele>
        <time>2016-09-25T07:37:12Z</time>
      </trkpt>
      <trkpt lat="45.71097" lon="4.64972">
        <ele>567.018982</ele>
        <time>2016-09-25T07:37:46Z</time>
      </trkpt>
      <trkpt lat="45.71099" lon="4.64985">
        <ele>566.980103</ele>
        <time>2016-09-25T07:37:48Z</time>
      </trkpt>
      <trkpt lat="45.71098" lon="4.65001">
        <ele>566.883911</ele>
        <time>2016-09-25T07:37:50Z</time>
      </trkpt>
      <trkpt lat="45.71096" lon="4.65012">
        <ele>566.903687</ele>
        <time>2016-09-25T07:37:52Z</time>
      </trkpt>
      <trkpt lat="45.71099" lon="4.65023">
        <ele>566.776733</ele>
        <time>2016-09-25T07:37:54Z</time>
      </trkpt>
      <trkpt lat="45.71101" lon="4.65033">
        <ele>566.625122</ele>
        <time>2016-09-25T07:37:56Z</time>
      </trkpt>
      <trkpt lat="45.71098" lon="4.65043">
        <ele>566.478149</ele>
        <time>2016-09-25T07:37:58Z</time>
      </trkpt>
      <trkpt lat="45.71096" lon="4.65054">
        <ele>566.357483</ele>
        <time>2016-09-25T07:38:00Z</time>
      </trkpt>
      <trkpt lat="45.71095" lon="4.65067">
        <ele>566.196411</ele>
        <time>2016-09-25T07:38:02Z</time>
      </trkpt>
      <trkpt lat="45.71092" lon="4.6508">
        <ele>565.875122</ele>
        <time>2016-09-25T07:38:04Z</time>
      </trkpt>
      <trkpt lat="45.7109" lon="4.6509">
        <ele>565.560486</ele>
        <time>2016-09-25T07:38:06Z</time>
      </trkpt>
      <trkpt lat="45.71088" lon="4.65097">
        <ele>565.396545</ele>
        <time>2016-09-25T07:38:08Z</time>
      </trkpt>
      <trkpt lat="45.71085" lon="4.65107">
        <ele>565.02301</ele>
        <time>2016-09-25T07:38:10Z</time>
      </trkpt>
      <trkpt lat="45.71084" lon="4.6512">
        <ele>564.55542</ele>
        <time>2016-09-25T07:38:12Z</time>
      </trkpt>
      <trkpt lat="45.71082" lon="4.65132">
        <ele>564.226135</ele>
        <time>2016-09-25T07:38:14Z</time>
      </trkpt>
      <trkpt lat="45.71081" lon="4.65138">
        <ele>563.843628</ele>
        <time>2016-09-25T07:38:16Z</time>
      </trkpt>
      <trkpt lat="45.7108" lon="4.65145">
        <ele>563.334412</ele>
        <time>2016-09-25T07:38:18Z</time>
      </trkpt>
      <trkpt lat="45.71078" lon="4.65155">
        <ele>562.625366</ele>
        <time>2016-09-25T07:38:20Z</time>
      </trkpt>
      <trkpt lat="45.71076" lon="4.65167">
        <ele>562.042114</ele>
        <time>2016-09-25T07:38:22Z</time>
      </trkpt>
      <trkpt lat="45.71072" lon="4.65179">
        <ele>561.325623</ele>
        <time>2016-09-25T07:38:24Z</time>
      </trkpt>
      <trkpt lat="45.71069" lon="4.6519">
        <ele>560.37561</ele>
        <time>2016-09-25T07:38:26Z</time>
      </trkpt>
      <trkpt lat="45.71066" lon="4.65196">
        <ele>559.725708</ele>
        <time>2016-09-25T07:38:28Z</time>
      </trkpt>
      <trkpt lat="45.71061" lon="4.65201">
        <ele>558.357178</ele>
        <time>2016-09-25T07:38:30Z</time>
      </trkpt>
      <trkpt lat="45.71059" lon="4.6521">
        <ele>557.975037</ele>
        <time>2016-09-25T07:38:32Z</time>
      </trkpt>
      <trkpt lat="45.71059" lon="4.65226">
        <ele>556.69342</ele>
        <time>2016-09-25T07:38:34Z</time>
      </trkpt>
      <trkpt lat="45.71056" lon="4.65248">
        <ele>555.653687</ele>
        <time>2016-09-25T07:38:36Z</time>
      </trkpt>
      <trkpt lat="45.71053" lon="4.65263">
        <ele>554.71582</ele>
        <time>2016-09-25T07:38:38Z</time>
      </trkpt>
      <trkpt lat="45.7105" lon="4.65272">
        <ele>553.864136</ele>
        <time>2016-09-25T07:38:40Z</time>
      </trkpt>
      <trkpt lat="45.71047" lon="4.65282">
        <ele>553.047668</ele>
        <time>2016-09-25T07:38:42Z</time>
      </trkpt>
      <trkpt lat="45.71043" lon="4.65293">
        <ele>552.268921</ele>
        <time>2016-09-25T07:38:44Z</time>
      </trkpt>
      <trkpt lat="45.7104" lon="4.65304">
        <ele>551.319519</ele>
        <time>2016-09-25T07:38:46Z</time>
      </trkpt>
      <trkpt lat="45.71038" lon="4.65313">
        <ele>549.866943</ele>
        <time>2016-09-25T07:38:48Z</time>
      </trkpt>
      <trkpt lat="45.71035" lon="4.65322">
        <ele>548.428894</ele>
        <time>2016-09-25T07:38:50Z</time>
      </trkpt>
      <trkpt lat="45.71032" lon="4.65332">
        <ele>547.191223</ele>
        <time>2016-09-25T07:38:52Z</time>
      </trkpt>
      <trkpt lat="45.71028" lon="4.65344">
        <ele>545.924927</ele>
        <time>2016-09-25T07:38:54Z</time>
      </trkpt>
      <trkpt lat="45.71026" lon="4.65355">
        <ele>544.269409</ele>
        <time>2016-09-25T07:38:56Z</time>
      </trkpt>
      <trkpt lat="45.71025" lon="4.65365">
        <ele>542.488159</ele>
        <time>2016-09-25T07:38:58Z</time>
      </trkpt>
      <trkpt lat="45.71023" lon="4.65375">
        <ele>540.674866</ele>
        <time>2016-09-25T07:39:00Z</time>
      </trkpt>
      <trkpt lat="45.71021" lon="4.65386">
        <ele>539.311646</ele>
        <time>2016-09-25T07:39:02Z</time>
      </trkpt>
      <trkpt lat="45.71019" lon="4.65397">
        <ele>537.870667</ele>
        <time>2016-09-25T07:39:04Z</time>
      </trkpt>
      <trkpt lat="45.71016" lon="4.65406">
        <ele>537.18396</ele>
        <time>2016-09-25T07:39:06Z</time>
      </trkpt>
      <trkpt lat="45.71011" lon="4.65407">
        <ele>536.078918</ele>
        <time>2016-09-25T07:39:08Z</time>
      </trkpt>
      <trkpt lat="45.71006" lon="4.65407">
        <ele>534.584167</ele>
        <time>2016-09-25T07:39:10Z</time>
      </trkpt>
      <trkpt lat="45.71002" lon="4.65408">
        <ele>533.730103</ele>
        <time>2016-09-25T07:39:12Z</time>
      </trkpt>
      <trkpt lat="45.71001" lon="4.6541">
        <ele>532.529358</ele>
        <time>2016-09-25T07:39:14Z</time>
      </trkpt>
      <trkpt lat="45.71002" lon="4.65413">
        <ele>531.540283</ele>
        <time>2016-09-25T07:39:16Z</time>
      </trkpt>
      <trkpt lat="45.71003" lon="4.65415">
        <ele>530.558289</ele>
        <time>2016-09-25T07:39:18Z</time>
      </trkpt>
      <trkpt lat="45.71" lon="4.65416">
        <ele>522.085022</ele>
        <time>2016-09-25T07:45:47Z</time>
      </trkpt>
      <trkpt lat="45.70995" lon="4.65409">
        <ele>522.19165</ele>
        <time>2016-09-25T07:45:49Z</time>
      </trkpt>
      <trkpt lat="45.70988" lon="4.65399">
        <ele>522.724243</ele>
        <time>2016-09-25T07:45:51Z</time>
      </trkpt>
      <trkpt lat="45.70983" lon="4.65392">
        <ele>522.628418</ele>
        <time>2016-09-25T07:45:53Z</time>
      </trkpt>
      <trkpt lat="45.70977" lon="4.65383">
        <ele>522.639282</ele>
        <time>2016-09-25T07:45:55Z</time>
      </trkpt>
      <trkpt lat="45.70971" lon="4.6537">
        <ele>522.658936</ele>
        <time>2016-09-25T07:45:57Z</time>
      </trkpt>
      <trkpt lat="45.70964" lon="4.65355">
        <ele>522.569702</ele>
        <time>2016-09-25T07:45:59Z</time>
      </trkpt>
      <trkpt lat="45.70956" lon="4.65339">
        <ele>522.504944</ele>
        <time>2016-09-25T07:46:01Z</time>
      </trkpt>
      <trkpt lat="45.70941" lon="4.65328">
        <ele>522.113342</ele>
        <time>2016-09-25T07:46:03Z</time>
      </trkpt>
      <trkpt lat="45.70926" lon="4.65318">
        <ele>521.58905</ele>
        <time>2016-09-25T07:46:05Z</time>
      </trkpt>
      <trkpt lat="45.7091" lon="4.65307">
        <ele>521.354065</ele>
        <time>2016-09-25T07:46:07Z</time>
      </trkpt>
      <trkpt lat="45.70892" lon="4.653">
        <ele>520.915039</ele>
        <time>2016-09-25T07:46:09Z</time>
      </trkpt>
      <trkpt lat="45.70873" lon="4.65294">
        <ele>520.359009</ele>
        <time>2016-09-25T07:46:11Z</time>
      </trkpt>
      <trkpt lat="45.70852" lon="4.65288">
        <ele>519.860962</ele>
        <time>2016-09-25T07:46:13Z</time>
      </trkpt>
      <trkpt lat="45.70831" lon="4.65286">
        <ele>518.799988</ele>
        <time>2016-09-25T07:46:15Z</time>
      </trkpt>
      <trkpt lat="45.7081" lon="4.6529">
        <ele>517.894653</ele>
        <time>2016-09-25T07:46:17Z</time>
      </trkpt>
      <trkpt lat="45.70788" lon="4.6529">
        <ele>516.779602</ele>
        <time>2016-09-25T07:46:19Z</time>
      </trkpt>
      <trkpt lat="45.7077" lon="4.65276">
        <ele>515.619263</ele>
        <time>2016-09-25T07:46:21Z</time>
      </trkpt>
      <trkpt lat="45.70757" lon="4.65254">
        <ele>515.006287</ele>
        <time>2016-09-25T07:46:23Z</time>
      </trkpt>
      <trkpt lat="45.70741" lon="4.65238">
        <ele>513.984314</ele>
        <time>2016-09-25T07:46:25Z</time>
      </trkpt>
      <trkpt lat="45.70725" lon="4.65236">
        <ele>512.818665</ele>
        <time>2016-09-25T07:46:27Z</time>
      </trkpt>
      <trkpt lat="45.70714" lon="4.6525">
        <ele>511.492828</ele>
        <time>2016-09-25T07:46:29Z</time>
      </trkpt>
      <trkpt lat="45.70706" lon="4.65273">
        <ele>509.754395</ele>
        <time>2016-09-25T07:46:31Z</time>
      </trkpt>
      <trkpt lat="45.707" lon="4.653">
        <ele>507.927887</ele>
        <time>2016-09-25T07:46:33Z</time>
      </trkpt>
      <trkpt lat="45.70692" lon="4.65327">
        <ele>506.229431</ele>
        <time>2016-09-25T07:46:35Z</time>
      </trkpt>
      <trkpt lat="45.70681" lon="4.6535">
        <ele>504.148682</ele>
        <time>2016-09-25T07:46:37Z</time>
      </trkpt>
      <trkpt lat="45.70672" lon="4.6537">
        <ele>502.225739</ele>
        <time>2016-09-25T07:46:39Z</time>
      </trkpt>
      <trkpt lat="45.70675" lon="4.65393">
        <ele>500.259705</ele>
        <time>2016-09-25T07:46:41Z</time>
      </trkpt>
      <trkpt lat="45.70681" lon="4.65418">
        <ele>498.205994</ele>
        <time>2016-09-25T07:46:43Z</time>
      </trkpt>
      <trkpt lat="45.70676" lon="4.65447">
        <ele>497.270325</ele>
        <time>2016-09-25T07:46:45Z</time>
      </trkpt>
      <trkpt lat="45.70667" lon="4.65468">
        <ele>495.306732</ele>
        <time>2016-09-25T07:46:47Z</time>
      </trkpt>
      <trkpt lat="45.70661" lon="4.65482">
        <ele>492.704773</ele>
        <time>2016-09-25T07:46:49Z</time>
      </trkpt>
      <trkpt lat="45.70656" lon="4.65486">
        <ele>490.313538</ele>
        <time>2016-09-25T07:46:51Z</time>
      </trkpt>
      <trkpt lat="45.70652" lon="4.65486">
        <ele>488.194336</ele>
        <time>2016-09-25T07:46:53Z</time>
      </trkpt>
      <trkpt lat="45.70649" lon="4.65483">
        <ele>486.011322</ele>
        <time>2016-09-25T07:46:55Z</time>
      </trkpt>
      <trkpt lat="45.70645" lon="4.6548">
        <ele>484.229065</ele>
        <time>2016-09-25T07:46:57Z</time>
      </trkpt>
      <trkpt lat="45.70643" lon="4.65477">
        <ele>482.359711</ele>
        <time>2016-09-25T07:46:59Z</time>
      </trkpt>
      <trkpt lat="45.7064" lon="4.65474">
        <ele>480.62738</ele>
        <time>2016-09-25T07:47:01Z</time>
      </trkpt>
      <trkpt lat="45.70638" lon="4.65471">
        <ele>479.139801</ele>
        <time>2016-09-25T07:47:03Z</time>
      </trkpt>
      <trkpt lat="45.70636" lon="4.65469">
        <ele>477.615387</ele>
        <time>2016-09-25T07:47:05Z</time>
      </trkpt>
      <trkpt lat="45.70634" lon="4.65466">
        <ele>475.999847</ele>
        <time>2016-09-25T07:47:07Z</time>
      </trkpt>
      <trkpt lat="45.70632" lon="4.65462">
        <ele>475.306</ele>
        <time>2016-09-25T07:47:09Z</time>
      </trkpt>
      <trkpt lat="45.70631" lon="4.65458">
        <ele>474.156799</ele>
        <time>2016-09-25T07:47:11Z</time>
      </trkpt>
      <trkpt lat="45.7063" lon="4.65454">
        <ele>473.274567</ele>
        <time>2016-09-25T07:47:13Z</time>
      </trkpt>
      <trkpt lat="45.70628" lon="4.65451">
        <ele>472.540466</ele>
        <time>2016-09-25T07:47:15Z</time>
      </trkpt>
      <trkpt lat="45.70626" lon="4.65448">
        <ele>471.764099</ele>
        <time>2016-09-25T07:47:17Z</time>
      </trkpt>
      <trkpt lat="45.70624" lon="4.65444">
        <ele>471.380615</ele>
        <time>2016-09-25T07:47:19Z</time>
      </trkpt>
      <trkpt lat="45.70623" lon="4.6544">
        <ele>470.754639</ele>
        <time>2016-09-25T07:47:21Z</time>
      </trkpt>
      <trkpt lat="45.70622" lon="4.65436">
        <ele>470.429626</ele>
        <time>2016-09-25T07:47:23Z</time>
      </trkpt>
      <trkpt lat="45.7062" lon="4.65433">
        <ele>470.381897</ele>
        <time>2016-09-25T07:47:25Z</time>
      </trkpt>
      <trkpt lat="45.70618" lon="4.6543">
        <ele>470.112946</ele>
        <time>2016-09-25T07:47:27Z</time>
      </trkpt>
      <trkpt lat="45.70616" lon="4.65428">
        <ele>470.5849</ele>
        <time>2016-09-25T07:47:29Z</time>
      </trkpt>
      <trkpt lat="45.70614" lon="4.65426">
        <ele>471.078674</ele>
        <time>2016-09-25T07:47:31Z</time>
      </trkpt>
      <trkpt lat="45.70612" lon="4.65423">
        <ele>471.42514</ele>
        <time>2016-09-25T07:47:33Z</time>
      </trkpt>
      <trkpt lat="45.7061" lon="4.65421">
        <ele>471.533936</ele>
        <time>2016-09-25T07:47:35Z</time>
      </trkpt>
      <trkpt lat="45.70609" lon="4.65419">
        <ele>471.816956</ele>
        <time>2016-09-25T07:47:37Z</time>
      </trkpt>
      <trkpt lat="45.70608" lon="4.65416">
        <ele>472.22226</ele>
        <time>2016-09-25T07:47:39Z</time>
      </trkpt>
      <trkpt lat="45.70607" lon="4.65414">
        <ele>473.391541</ele>
        <time>2016-09-25T07:47:43Z</time>
      </trkpt>
      <trkpt lat="45.70605" lon="4.65412">
        <ele>473.789001</ele>
        <time>2016-09-25T07:47:45Z</time>
      </trkpt>
      <trkpt lat="45.70604" lon="4.65411">
        <ele>474.263428</ele>
        <time>2016-09-25T07:47:47Z</time>
      </trkpt>
      <trkpt lat="45.70602" lon="4.65408">
        <ele>474.811462</ele>
        <time>2016-09-25T07:47:49Z</time>
      </trkpt>
      <trkpt lat="45.70601" lon="4.65406">
        <ele>475.186279</ele>
        <time>2016-09-25T07:47:51Z</time>
      </trkpt>
      <trkpt lat="45.70599" lon="4.65405">
        <ele>475.550232</ele>
        <time>2016-09-25T07:47:53Z</time>
      </trkpt>
      <trkpt lat="45.70598" lon="4.65403">
        <ele>475.995514</ele>
        <time>2016-09-25T07:47:55Z</time>
      </trkpt>
      <trkpt lat="45.70597" lon="4.65402">
        <ele>476.639069</ele>
        <time>2016-09-25T07:47:57Z</time>
      </trkpt>
      <trkpt lat="45.70596" lon="4.65399">
        <ele>476.829742</ele>
        <time>2016-09-25T07:47:59Z</time>
      </trkpt>
      <trkpt lat="45.70595" lon="4.65397">
        <ele>477.14386</ele>
        <time>2016-09-25T07:48:01Z</time>
      </trkpt>
      <trkpt lat="45.70594" lon="4.65395">
        <ele>477.585846</ele>
        <time>2016-09-25T07:48:03Z</time>
      </trkpt>
      <trkpt lat="45.70594" lon="4.65394">
        <ele>478.580505</ele>
        <time>2016-09-25T07:48:09Z</time>
      </trkpt>
      <trkpt lat="45.70593" lon="4.65392">
        <ele>478.957825</ele>
        <time>2016-09-25T07:48:11Z</time>
      </trkpt>
      <trkpt lat="45.70591" lon="4.6539">
        <ele>479.293701</ele>
        <time>2016-09-25T07:48:13Z</time>
      </trkpt>
      <trkpt lat="45.70589" lon="4.65388">
        <ele>479.711975</ele>
        <time>2016-09-25T07:48:15Z</time>
      </trkpt>
      <trkpt lat="45.70588" lon="4.65385">
        <ele>480.074615</ele>
        <time>2016-09-25T07:48:17Z</time>
      </trkpt>
      <trkpt lat="45.70586" lon="4.65383">
        <ele>480.394928</ele>
        <time>2016-09-25T07:48:19Z</time>
      </trkpt>
      <trkpt lat="45.70586" lon="4.6538">
        <ele>480.860901</ele>
        <time>2016-09-25T07:48:21Z</time>
      </trkpt>
      <trkpt lat="45.70585" lon="4.65377">
        <ele>481.245117</ele>
        <time>2016-09-25T07:48:23Z</time>
      </trkpt>
      <trkpt lat="45.70584" lon="4.65375">
        <ele>481.511719</ele>
        <time>2016-09-25T07:48:25Z</time>
      </trkpt>
      <trkpt lat="45.70583" lon="4.65373">
        <ele>481.900879</ele>
        <time>2016-09-25T07:48:27Z</time>
      </trkpt>
      <trkpt lat="45.70581" lon="4.65371">
        <ele>482.004944</ele>
        <time>2016-09-25T07:48:29Z</time>
      </trkpt>
      <trkpt lat="45.70579" lon="4.65369">
        <ele>482.284668</ele>
        <time>2016-09-25T07:48:31Z</time>
      </trkpt>
      <trkpt lat="45.70577" lon="4.65367">
        <ele>482.643127</ele>
        <time>2016-09-25T07:48:33Z</time>
      </trkpt>
      <trkpt lat="45.70575" lon="4.65365">
        <ele>482.920593</ele>
        <time>2016-09-25T07:48:35Z</time>
      </trkpt>
      <trkpt lat="45.70574" lon="4.65363">
        <ele>483.263184</ele>
        <time>2016-09-25T07:48:37Z</time>
      </trkpt>
      <trkpt lat="45.70572" lon="4.65362">
        <ele>483.471344</ele>
        <time>2016-09-25T07:48:39Z</time>
      </trkpt>
      <trkpt lat="45.70569" lon="4.6536">
        <ele>483.83136</ele>
        <time>2016-09-25T07:48:41Z</time>
      </trkpt>
      <trkpt lat="45.70566" lon="4.65358">
        <ele>484.270264</ele>
        <time>2016-09-25T07:48:43Z</time>
      </trkpt>
      <trkpt lat="45.70564" lon="4.65356">
        <ele>484.634583</ele>
        <time>2016-09-25T07:48:45Z</time>
      </trkpt>
      <trkpt lat="45.70562" lon="4.65354">
        <ele>485.027039</ele>
        <time>2016-09-25T07:48:47Z</time>
      </trkpt>
      <trkpt lat="45.7056" lon="4.65352">
        <ele>485.452087</ele>
        <time>2016-09-25T07:48:49Z</time>
      </trkpt>
      <trkpt lat="45.70557" lon="4.65351">
        <ele>485.81427</ele>
        <time>2016-09-25T07:48:51Z</time>
      </trkpt>
      <trkpt lat="45.70555" lon="4.65349">
        <ele>486.11142</ele>
        <time>2016-09-25T07:48:53Z</time>
      </trkpt>
      <trkpt lat="45.70553" lon="4.65347">
        <ele>486.571136</ele>
        <time>2016-09-25T07:48:55Z</time>
      </trkpt>
      <trkpt lat="45.7055" lon="4.65346">
        <ele>486.759857</ele>
        <time>2016-09-25T07:48:57Z</time>
      </trkpt>
      <trkpt lat="45.70549" lon="4.65343">
        <ele>487.088287</ele>
        <time>2016-09-25T07:48:59Z</time>
      </trkpt>
      <trkpt lat="45.70547" lon="4.65341">
        <ele>487.579651</ele>
        <time>2016-09-25T07:49:01Z</time>
      </trkpt>
      <trkpt lat="45.70545" lon="4.65339">
        <ele>487.996094</ele>
        <time>2016-09-25T07:49:03Z</time>
      </trkpt>
      <trkpt lat="45.70542" lon="4.65337">
        <ele>488.353821</ele>
        <time>2016-09-25T07:49:05Z</time>
      </trkpt>
      <trkpt lat="45.7054" lon="4.65336">
        <ele>488.791901</ele>
        <time>2016-09-25T07:49:07Z</time>
      </trkpt>
      <trkpt lat="45.70538" lon="4.65334">
        <ele>489.136139</ele>
        <time>2016-09-25T07:49:09Z</time>
      </trkpt>
      <trkpt lat="45.70536" lon="4.65332">
        <ele>489.54834</ele>
        <time>2016-09-25T07:49:11Z</time>
      </trkpt>
      <trkpt lat="45.70533" lon="4.6533">
        <ele>489.907715</ele>
        <time>2016-09-25T07:49:13Z</time>
      </trkpt>
      <trkpt lat="45.70532" lon="4.65328">
        <ele>490.23761</ele>
        <time>2016-09-25T07:49:15Z</time>
      </trkpt>
      <trkpt lat="45.7053" lon="4.65325">
        <ele>490.58905</ele>
        <time>2016-09-25T07:49:17Z</time>
      </trkpt>
      <trkpt lat="45.70528" lon="4.65323">
        <ele>490.936127</ele>
        <time>2016-09-25T07:49:19Z</time>
      </trkpt>
      <trkpt lat="45.70526" lon="4.65321">
        <ele>491.222565</ele>
        <time>2016-09-25T07:49:21Z</time>
      </trkpt>
      <trkpt lat="45.70524" lon="4.65318">
        <ele>491.363678</ele>
        <time>2016-09-25T07:49:23Z</time>
      </trkpt>
      <trkpt lat="45.70522" lon="4.65316">
        <ele>491.792297</ele>
        <time>2016-09-25T07:49:25Z</time>
      </trkpt>
      <trkpt lat="45.7052" lon="4.65314">
        <ele>492.076569</ele>
        <time>2016-09-25T07:49:27Z</time>
      </trkpt>
      <trkpt lat="45.70518" lon="4.65311">
        <ele>492.4086</ele>
        <time>2016-09-25T07:49:29Z</time>
      </trkpt>
      <trkpt lat="45.70515" lon="4.65309">
        <ele>492.749329</ele>
        <time>2016-09-25T07:49:31Z</time>
      </trkpt>
      <trkpt lat="45.70513" lon="4.65306">
        <ele>493.035828</ele>
        <time>2016-09-25T07:49:33Z</time>
      </trkpt>
      <trkpt lat="45.70511" lon="4.65304">
        <ele>493.390533</ele>
        <time>2016-09-25T07:49:35Z</time>
      </trkpt>
      <trkpt lat="45.70509" lon="4.65301">
        <ele>493.650391</ele>
        <time>2016-09-25T07:49:37Z</time>
      </trkpt>
      <trkpt lat="45.70507" lon="4.65298">
        <ele>493.872955</ele>
        <time>2016-09-25T07:49:39Z</time>
      </trkpt>
      <trkpt lat="45.70506" lon="4.65296">
        <ele>494.175598</ele>
        <time>2016-09-25T07:49:41Z</time>
      </trkpt>
      <trkpt lat="45.70504" lon="4.65293">
        <ele>494.428375</ele>
        <time>2016-09-25T07:49:43Z</time>
      </trkpt>
      <trkpt lat="45.70502" lon="4.6529">
        <ele>494.734467</ele>
        <time>2016-09-25T07:49:45Z</time>
      </trkpt>
      <trkpt lat="45.705" lon="4.65287">
        <ele>494.981873</ele>
        <time>2016-09-25T07:49:47Z</time>
      </trkpt>
      <trkpt lat="45.70498" lon="4.65284">
        <ele>495.194641</ele>
        <time>2016-09-25T07:49:49Z</time>
      </trkpt>
      <trkpt lat="45.70497" lon="4.65281">
        <ele>495.36676</ele>
        <time>2016-09-25T07:49:51Z</time>
      </trkpt>
      <trkpt lat="45.70495" lon="4.65278">
        <ele>495.617035</ele>
        <time>2016-09-25T07:49:53Z</time>
      </trkpt>
      <trkpt lat="45.70494" lon="4.65274">
        <ele>495.923523</ele>
        <time>2016-09-25T07:49:55Z</time>
      </trkpt>
      <trkpt lat="45.70492" lon="4.65271">
        <ele>496.205627</ele>
        <time>2016-09-25T07:49:57Z</time>
      </trkpt>
      <trkpt lat="45.70491" lon="4.65267">
        <ele>496.466125</ele>
        <time>2016-09-25T07:49:59Z</time>
      </trkpt>
      <trkpt lat="45.7049" lon="4.65264">
        <ele>496.823334</ele>
        <time>2016-09-25T07:50:01Z</time>
      </trkpt>
      <trkpt lat="45.70489" lon="4.65261">
        <ele>497.114258</ele>
        <time>2016-09-25T07:50:03Z</time>
      </trkpt>
      <trkpt lat="45.70487" lon="4.65258">
        <ele>497.424713</ele>
        <time>2016-09-25T07:50:05Z</time>
      </trkpt>
      <trkpt lat="45.70486" lon="4.65255">
        <ele>497.693939</ele>
        <time>2016-09-25T07:50:07Z</time>
      </trkpt>
      <trkpt lat="45.70484" lon="4.65252">
        <ele>498.06485</ele>
        <time>2016-09-25T07:50:09Z</time>
      </trkpt>
      <trkpt lat="45.70482" lon="4.65248">
        <ele>498.268616</ele>
        <time>2016-09-25T07:50:11Z</time>
      </trkpt>
      <trkpt lat="45.7048" lon="4.65246">
        <ele>498.557068</ele>
        <time>2016-09-25T07:50:13Z</time>
      </trkpt>
      <trkpt lat="45.70479" lon="4.65243">
        <ele>498.762451</ele>
        <time>2016-09-25T07:50:15Z</time>
      </trkpt>
      <trkpt lat="45.70478" lon="4.65239">
        <ele>499.144287</ele>
        <time>2016-09-25T07:50:17Z</time>
      </trkpt>
      <trkpt lat="45.70477" lon="4.65236">
        <ele>499.333191</ele>
        <time>2016-09-25T07:50:19Z</time>
      </trkpt>
      <trkpt lat="45.70475" lon="4.65232">
        <ele>499.756439</ele>
        <time>2016-09-25T07:50:21Z</time>
      </trkpt>
      <trkpt lat="45.70474" lon="4.65229">
        <ele>500.04306</ele>
        <time>2016-09-25T07:50:23Z</time>
      </trkpt>
      <trkpt lat="45.70472" lon="4.65225">
        <ele>500.361328</ele>
        <time>2016-09-25T07:50:25Z</time>
      </trkpt>
      <trkpt lat="45.7047" lon="4.65222">
        <ele>500.558929</ele>
        <time>2016-09-25T07:50:27Z</time>
      </trkpt>
      <trkpt lat="45.70469" lon="4.65218">
        <ele>500.941162</ele>
        <time>2016-09-25T07:50:29Z</time>
      </trkpt>
      <trkpt lat="45.70467" lon="4.65215">
        <ele>501.318939</ele>
        <time>2016-09-25T07:50:31Z</time>
      </trkpt>
      <trkpt lat="45.70465" lon="4.65212">
        <ele>501.689697</ele>
        <time>2016-09-25T07:50:33Z</time>
      </trkpt>
      <trkpt lat="45.70464" lon="4.65209">
        <ele>502.065033</ele>
        <time>2016-09-25T07:50:35Z</time>
      </trkpt>
      <trkpt lat="45.70462" lon="4.65205">
        <ele>502.3974</ele>
        <time>2016-09-25T07:50:37Z</time>
      </trkpt>
      <trkpt lat="45.70459" lon="4.65202">
        <ele>502.773132</ele>
        <time>2016-09-25T07:50:39Z</time>
      </trkpt>
      <trkpt lat="45.70457" lon="4.65198">
        <ele>503.130432</ele>
        <time>2016-09-25T07:50:41Z</time>
      </trkpt>
      <trkpt lat="45.70455" lon="4.65194">
        <ele>503.223816</ele>
        <time>2016-09-25T07:50:43Z</time>
      </trkpt>
      <trkpt lat="45.70453" lon="4.65189">
        <ele>503.596252</ele>
        <time>2016-09-25T07:50:45Z</time>
      </trkpt>
      <trkpt lat="45.70451" lon="4.65186">
        <ele>503.956879</ele>
        <time>2016-09-25T07:50:47Z</time>
      </trkpt>
      <trkpt lat="45.7045" lon="4.65181">
        <ele>504.232819</ele>
        <time>2016-09-25T07:50:49Z</time>
      </trkpt>
      <trkpt lat="45.70449" lon="4.65175">
        <ele>504.524261</ele>
        <time>2016-09-25T07:50:51Z</time>
      </trkpt>
      <trkpt lat="45.70448" lon="4.65168">
        <ele>504.972229</ele>
        <time>2016-09-25T07:50:53Z</time>
      </trkpt>
      <trkpt lat="45.70447" lon="4.65162">
        <ele>505.346252</ele>
        <time>2016-09-25T07:50:55Z</time>
      </trkpt>
      <trkpt lat="45.70446" lon="4.65156">
        <ele>505.762146</ele>
        <time>2016-09-25T07:50:57Z</time>
      </trkpt>
      <trkpt lat="45.70444" lon="4.6515">
        <ele>506.081604</ele>
        <time>2016-09-25T07:50:59Z</time>
      </trkpt>
      <trkpt lat="45.70443" lon="4.65144">
        <ele>506.505371</ele>
        <time>2016-09-25T07:51:01Z</time>
      </trkpt>
      <trkpt lat="45.70442" lon="4.65138">
        <ele>506.609863</ele>
        <time>2016-09-25T07:51:03Z</time>
      </trkpt>
      <trkpt lat="45.70441" lon="4.65133">
        <ele>507.025726</ele>
        <time>2016-09-25T07:51:05Z</time>
      </trkpt>
      <trkpt lat="45.70439" lon="4.65126">
        <ele>507.360779</ele>
        <time>2016-09-25T07:51:07Z</time>
      </trkpt>
      <trkpt lat="45.70438" lon="4.65118">
        <ele>507.775818</ele>
        <time>2016-09-25T07:51:09Z</time>
      </trkpt>
      <trkpt lat="45.70439" lon="4.6511">
        <ele>508.171387</ele>
        <time>2016-09-25T07:51:11Z</time>
      </trkpt>
      <trkpt lat="45.70439" lon="4.65102">
        <ele>508.448883</ele>
        <time>2016-09-25T07:51:13Z</time>
      </trkpt>
      <trkpt lat="45.70439" lon="4.65095">
        <ele>508.774902</ele>
        <time>2016-09-25T07:51:15Z</time>
      </trkpt>
      <trkpt lat="45.70439" lon="4.65088">
        <ele>509.068604</ele>
        <time>2016-09-25T07:51:17Z</time>
      </trkpt>
      <trkpt lat="45.7044" lon="4.6508">
        <ele>509.35553</ele>
        <time>2016-09-25T07:51:19Z</time>
      </trkpt>
      <trkpt lat="45.70439" lon="4.65072">
        <ele>509.605469</ele>
        <time>2016-09-25T07:51:21Z</time>
      </trkpt>
      <trkpt lat="45.7044" lon="4.65064">
        <ele>509.918396</ele>
        <time>2016-09-25T07:51:23Z</time>
      </trkpt>
      <trkpt lat="45.70442" lon="4.65054">
        <ele>510.144867</ele>
        <time>2016-09-25T07:51:25Z</time>
      </trkpt>
      <trkpt lat="45.70443" lon="4.65044">
        <ele>510.343994</ele>
        <time>2016-09-25T07:51:27Z</time>
      </trkpt>
      <trkpt lat="45.70444" lon="4.65033">
        <ele>510.648346</ele>
        <time>2016-09-25T07:51:29Z</time>
      </trkpt>
      <trkpt lat="45.70445" lon="4.65023">
        <ele>510.898346</ele>
        <time>2016-09-25T07:51:31Z</time>
      </trkpt>
      <trkpt lat="45.70446" lon="4.65013">
        <ele>511.204895</ele>
        <time>2016-09-25T07:51:33Z</time>
      </trkpt>
      <trkpt lat="45.70446" lon="4.65003">
        <ele>511.422272</ele>
        <time>2016-09-25T07:51:35Z</time>
      </trkpt>
      <trkpt lat="45.70445" lon="4.64995">
        <ele>511.526611</ele>
        <time>2016-09-25T07:51:37Z</time>
      </trkpt>
      <trkpt lat="45.70441" lon="4.64987">
        <ele>511.661377</ele>
        <time>2016-09-25T07:51:39Z</time>
      </trkpt>
      <trkpt lat="45.70437" lon="4.6498">
        <ele>511.772278</ele>
        <time>2016-09-25T07:51:41Z</time>
      </trkpt>
      <trkpt lat="45.70433" lon="4.64974">
        <ele>511.841858</ele>
        <time>2016-09-25T07:51:43Z</time>
      </trkpt>
      <trkpt lat="45.70431" lon="4.64967">
        <ele>512.217163</ele>
        <time>2016-09-25T07:51:45Z</time>
      </trkpt>
      <trkpt lat="45.7043" lon="4.6496">
        <ele>512.319397</ele>
        <time>2016-09-25T07:51:47Z</time>
      </trkpt>
      <trkpt lat="45.70429" lon="4.64952">
        <ele>512.6297</ele>
        <time>2016-09-25T07:51:49Z</time>
      </trkpt>
      <trkpt lat="45.70429" lon="4.64943">
        <ele>512.85675</ele>
        <time>2016-09-25T07:51:51Z</time>
      </trkpt>
      <trkpt lat="45.70428" lon="4.64935">
        <ele>513.095947</ele>
        <time>2016-09-25T07:51:53Z</time>
      </trkpt>
      <trkpt lat="45.70425" lon="4.64928">
        <ele>513.364136</ele>
        <time>2016-09-25T07:51:55Z</time>
      </trkpt>
      <trkpt lat="45.70422" lon="4.64921">
        <ele>513.605591</ele>
        <time>2016-09-25T07:51:57Z</time>
      </trkpt>
      <trkpt lat="45.70417" lon="4.64911">
        <ele>513.932312</ele>
        <time>2016-09-25T07:51:59Z</time>
      </trkpt>
      <trkpt lat="45.70412" lon="4.649">
        <ele>514.158813</ele>
        <time>2016-09-25T07:52:01Z</time>
      </trkpt>
      <trkpt lat="45.70408" lon="4.64889">
        <ele>514.296265</ele>
        <time>2016-09-25T07:52:03Z</time>
      </trkpt>
      <trkpt lat="45.70403" lon="4.64878">
        <ele>514.371948</ele>
        <time>2016-09-25T07:52:05Z</time>
      </trkpt>
      <trkpt lat="45.704" lon="4.64868">
        <ele>514.413208</ele>
        <time>2016-09-25T07:52:07Z</time>
      </trkpt>
      <trkpt lat="45.70399" lon="4.64856">
        <ele>514.46106</ele>
        <time>2016-09-25T07:52:09Z</time>
      </trkpt>
      <trkpt lat="45.70397" lon="4.64844">
        <ele>514.572266</ele>
        <time>2016-09-25T07:52:11Z</time>
      </trkpt>
      <trkpt lat="45.70396" lon="4.64832">
        <ele>514.720093</ele>
        <time>2016-09-25T07:52:13Z</time>
      </trkpt>
      <trkpt lat="45.70395" lon="4.64821">
        <ele>514.881104</ele>
        <time>2016-09-25T07:52:15Z</time>
      </trkpt>
      <trkpt lat="45.70395" lon="4.64813">
        <ele>514.974731</ele>
        <time>2016-09-25T07:52:17Z</time>
      </trkpt>
      <trkpt lat="45.70394" lon="4.64807">
        <ele>515.237915</ele>
        <time>2016-09-25T07:52:19Z</time>
      </trkpt>
      <trkpt lat="45.70392" lon="4.64801">
        <ele>515.566284</ele>
        <time>2016-09-25T07:52:21Z</time>
      </trkpt>
      <trkpt lat="45.70389" lon="4.64797">
        <ele>515.766357</ele>
        <time>2016-09-25T07:52:23Z</time>
      </trkpt>
      <trkpt lat="45.70386" lon="4.64795">
        <ele>516.103577</ele>
        <time>2016-09-25T07:52:25Z</time>
      </trkpt>
      <trkpt lat="45.70381" lon="4.64792">
        <ele>516.327637</ele>
        <time>2016-09-25T07:52:27Z</time>
      </trkpt>
      <trkpt lat="45.70377" lon="4.64788">
        <ele>516.621643</ele>
        <time>2016-09-25T07:52:29Z</time>
      </trkpt>
      <trkpt lat="45.70372" lon="4.64784">
        <ele>516.697815</ele>
        <time>2016-09-25T07:52:31Z</time>
      </trkpt>
      <trkpt lat="45.70369" lon="4.64781">
        <ele>516.914001</ele>
        <time>2016-09-25T07:52:33Z</time>
      </trkpt>
      <trkpt lat="45.70365" lon="4.64778">
        <ele>517.116333</ele>
        <time>2016-09-25T07:52:35Z</time>
      </trkpt>
      <trkpt lat="45.7036" lon="4.64775">
        <ele>517.371521</ele>
        <time>2016-09-25T07:52:37Z</time>
      </trkpt>
      <trkpt lat="45.70355" lon="4.6477">
        <ele>517.595581</ele>
        <time>2016-09-25T07:52:39Z</time>
      </trkpt>
      <trkpt lat="45.7035" lon="4.64767">
        <ele>517.903259</ele>
        <time>2016-09-25T07:52:41Z</time>
      </trkpt>
      <trkpt lat="45.70345" lon="4.64763">
        <ele>518.1073</ele>
        <time>2016-09-25T07:52:43Z</time>
      </trkpt>
      <trkpt lat="45.7034" lon="4.6476">
        <ele>518.376587</ele>
        <time>2016-09-25T07:52:45Z</time>
      </trkpt>
      <trkpt lat="45.70336" lon="4.64759">
        <ele>518.792053</ele>
        <time>2016-09-25T07:52:47Z</time>
      </trkpt>
      <trkpt lat="45.70333" lon="4.6476">
        <ele>519.314087</ele>
        <time>2016-09-25T07:52:49Z</time>
      </trkpt>
      <trkpt lat="45.7033" lon="4.64765">
        <ele>519.766357</ele>
        <time>2016-09-25T07:52:51Z</time>
      </trkpt>
      <trkpt lat="45.70329" lon="4.64776">
        <ele>520.084045</ele>
        <time>2016-09-25T07:52:53Z</time>
      </trkpt>
      <trkpt lat="45.70326" lon="4.64787">
        <ele>520.275513</ele>
        <time>2016-09-25T07:52:55Z</time>
      </trkpt>
      <trkpt lat="45.70323" lon="4.648">
        <ele>520.551147</ele>
        <time>2016-09-25T07:52:57Z</time>
      </trkpt>
      <trkpt lat="45.70319" lon="4.64813">
        <ele>520.707703</ele>
        <time>2016-09-25T07:52:59Z</time>
      </trkpt>
      <trkpt lat="45.70313" lon="4.64825">
        <ele>520.792542</ele>
        <time>2016-09-25T07:53:01Z</time>
      </trkpt>
      <trkpt lat="45.70302" lon="4.64834">
        <ele>520.511963</ele>
        <time>2016-09-25T07:53:03Z</time>
      </trkpt>
      <trkpt lat="45.7029" lon="4.64843">
        <ele>520.594604</ele>
        <time>2016-09-25T07:53:05Z</time>
      </trkpt>
      <trkpt lat="45.70277" lon="4.64852">
        <ele>520.262085</ele>
        <time>2016-09-25T07:53:07Z</time>
      </trkpt>
      <trkpt lat="45.70264" lon="4.64858">
        <ele>519.677124</ele>
        <time>2016-09-25T07:53:09Z</time>
      </trkpt>
      <trkpt lat="45.70251" lon="4.64867">
        <ele>518.881287</ele>
        <time>2016-09-25T07:53:11Z</time>
      </trkpt>
      <trkpt lat="45.70244" lon="4.64885">
        <ele>518.08374</ele>
        <time>2016-09-25T07:53:13Z</time>
      </trkpt>
      <trkpt lat="45.70237" lon="4.64901">
        <ele>517.898865</ele>
        <time>2016-09-25T07:53:15Z</time>
      </trkpt>
      <trkpt lat="45.70227" lon="4.64913">
        <ele>517.520508</ele>
        <time>2016-09-25T07:53:17Z</time>
      </trkpt>
      <trkpt lat="45.70218" lon="4.64921">
        <ele>517.066895</ele>
        <time>2016-09-25T07:53:19Z</time>
      </trkpt>
      <trkpt lat="45.70205" lon="4.64924">
        <ele>516.399231</ele>
        <time>2016-09-25T07:53:21Z</time>
      </trkpt>
      <trkpt lat="45.70192" lon="4.64929">
        <ele>515.510254</ele>
        <time>2016-09-25T07:53:23Z</time>
      </trkpt>
      <trkpt lat="45.70182" lon="4.64942">
        <ele>514.81897</ele>
        <time>2016-09-25T07:53:25Z</time>
      </trkpt>
      <trkpt lat="45.70176" lon="4.64956">
        <ele>514.153625</ele>
        <time>2016-09-25T07:53:27Z</time>
      </trkpt>
      <trkpt lat="45.7017" lon="4.6497">
        <ele>513.714233</ele>
        <time>2016-09-25T07:53:29Z</time>
      </trkpt>
      <trkpt lat="45.70165" lon="4.64983">
        <ele>513.187805</ele>
        <time>2016-09-25T07:53:31Z</time>
      </trkpt>
      <trkpt lat="45.70158" lon="4.64994">
        <ele>512.450317</ele>
        <time>2016-09-25T07:53:33Z</time>
      </trkpt>
      <trkpt lat="45.70151" lon="4.65003">
        <ele>511.865234</ele>
        <time>2016-09-25T07:53:35Z</time>
      </trkpt>
      <trkpt lat="45.70142" lon="4.65011">
        <ele>511.632477</ele>
        <time>2016-09-25T07:53:37Z</time>
      </trkpt>
      <trkpt lat="45.70134" lon="4.65018">
        <ele>511.214264</ele>
        <time>2016-09-25T07:53:39Z</time>
      </trkpt>
      <trkpt lat="45.70126" lon="4.65027">
        <ele>511.051025</ele>
        <time>2016-09-25T07:53:41Z</time>
      </trkpt>
      <trkpt lat="45.70117" lon="4.65037">
        <ele>510.813904</ele>
        <time>2016-09-25T07:53:43Z</time>
      </trkpt>
      <trkpt lat="45.70107" lon="4.65047">
        <ele>510.863922</ele>
        <time>2016-09-25T07:53:45Z</time>
      </trkpt>
      <trkpt lat="45.70095" lon="4.65053">
        <ele>510.374664</ele>
        <time>2016-09-25T07:53:47Z</time>
      </trkpt>
      <trkpt lat="45.70083" lon="4.65058">
        <ele>510.286621</ele>
        <time>2016-09-25T07:53:49Z</time>
      </trkpt>
      <trkpt lat="45.70072" lon="4.65061">
        <ele>510.329834</ele>
        <time>2016-09-25T07:53:51Z</time>
      </trkpt>
      <trkpt lat="45.70064" lon="4.65063">
        <ele>510.72168</ele>
        <time>2016-09-25T07:53:53Z</time>
      </trkpt>
      <trkpt lat="45.70057" lon="4.65066">
        <ele>511.29776</ele>
        <time>2016-09-25T07:53:55Z</time>
      </trkpt>
      <trkpt lat="45.70049" lon="4.65068">
        <ele>511.310699</ele>
        <time>2016-09-25T07:53:57Z</time>
      </trkpt>
      <trkpt lat="45.70041" lon="4.65069">
        <ele>511.21347</ele>
        <time>2016-09-25T07:53:59Z</time>
      </trkpt>
      <trkpt lat="45.70034" lon="4.6507">
        <ele>511.489594</ele>
        <time>2016-09-25T07:54:01Z</time>
      </trkpt>
      <trkpt lat="45.70028" lon="4.65071">
        <ele>511.737457</ele>
        <time>2016-09-25T07:54:03Z</time>
      </trkpt>
      <trkpt lat="45.70021" lon="4.65072">
        <ele>512.189453</ele>
        <time>2016-09-25T07:54:05Z</time>
      </trkpt>
      <trkpt lat="45.70015" lon="4.65072">
        <ele>512.693787</ele>
        <time>2016-09-25T07:54:07Z</time>
      </trkpt>
      <trkpt lat="45.70009" lon="4.65073">
        <ele>513.226501</ele>
        <time>2016-09-25T07:54:09Z</time>
      </trkpt>
      <trkpt lat="45.70002" lon="4.65074">
        <ele>513.37384</ele>
        <time>2016-09-25T07:54:11Z</time>
      </trkpt>
      <trkpt lat="45.69996" lon="4.65075">
        <ele>513.619019</ele>
        <time>2016-09-25T07:54:13Z</time>
      </trkpt>
      <trkpt lat="45.69989" lon="4.65077">
        <ele>513.966919</ele>
        <time>2016-09-25T07:54:15Z</time>
      </trkpt>
      <trkpt lat="45.69982" lon="4.65078">
        <ele>514.221313</ele>
        <time>2016-09-25T07:54:17Z</time>
      </trkpt>
      <trkpt lat="45.69975" lon="4.65078">
        <ele>514.32251</ele>
        <time>2016-09-25T07:54:19Z</time>
      </trkpt>
      <trkpt lat="45.69968" lon="4.65079">
        <ele>514.368225</ele>
        <time>2016-09-25T07:54:21Z</time>
      </trkpt>
      <trkpt lat="45.6996" lon="4.65079">
        <ele>514.694519</ele>
        <time>2016-09-25T07:54:23Z</time>
      </trkpt>
      <trkpt lat="45.69952" lon="4.65078">
        <ele>514.720642</ele>
        <time>2016-09-25T07:54:25Z</time>
      </trkpt>
      <trkpt lat="45.69943" lon="4.65077">
        <ele>514.922974</ele>
        <time>2016-09-25T07:54:27Z</time>
      </trkpt>
      <trkpt lat="45.69933" lon="4.65076">
        <ele>515.405334</ele>
        <time>2016-09-25T07:54:29Z</time>
      </trkpt>
      <trkpt lat="45.69924" lon="4.65076">
        <ele>515.710571</ele>
        <time>2016-09-25T07:54:31Z</time>
      </trkpt>
      <trkpt lat="45.69915" lon="4.65077">
        <ele>516.029846</ele>
        <time>2016-09-25T07:54:33Z</time>
      </trkpt>
      <trkpt lat="45.69906" lon="4.65077">
        <ele>516.255432</ele>
        <time>2016-09-25T07:54:35Z</time>
      </trkpt>
      <trkpt lat="45.69897" lon="4.65077">
        <ele>516.333679</ele>
        <time>2016-09-25T07:54:37Z</time>
      </trkpt>
      <trkpt lat="45.69888" lon="4.65077">
        <ele>516.899536</ele>
        <time>2016-09-25T07:54:39Z</time>
      </trkpt>
      <trkpt lat="45.69879" lon="4.65075">
        <ele>517.110413</ele>
        <time>2016-09-25T07:54:41Z</time>
      </trkpt>
      <trkpt lat="45.69869" lon="4.65073">
        <ele>517.121277</ele>
        <time>2016-09-25T07:54:43Z</time>
      </trkpt>
      <trkpt lat="45.69857" lon="4.65073">
        <ele>517.067078</ele>
        <time>2016-09-25T07:54:45Z</time>
      </trkpt>
      <trkpt lat="45.69846" lon="4.65073">
        <ele>517.064941</ele>
        <time>2016-09-25T07:54:47Z</time>
      </trkpt>
      <trkpt lat="45.69835" lon="4.65072">
        <ele>517.043518</ele>
        <time>2016-09-25T07:54:49Z</time>
      </trkpt>
      <trkpt lat="45.69824" lon="4.65073">
        <ele>516.902161</ele>
        <time>2016-09-25T07:54:51Z</time>
      </trkpt>
      <trkpt lat="45.69814" lon="4.65073">
        <ele>516.867981</ele>
        <time>2016-09-25T07:54:53Z</time>
      </trkpt>
      <trkpt lat="45.69803" lon="4.65071">
        <ele>516.788086</ele>
        <time>2016-09-25T07:54:55Z</time>
      </trkpt>
      <trkpt lat="45.69793" lon="4.65071">
        <ele>516.848389</ele>
        <time>2016-09-25T07:54:57Z</time>
      </trkpt>
      <trkpt lat="45.69783" lon="4.6507">
        <ele>516.840332</ele>
        <time>2016-09-25T07:54:59Z</time>
      </trkpt>
      <trkpt lat="45.69779" lon="4.65068">
        <ele>516.866455</ele>
        <time>2016-09-25T07:55:01Z</time>
      </trkpt>
      <trkpt lat="45.69778" lon="4.65064">
        <ele>516.79248</ele>
        <time>2016-09-25T07:55:03Z</time>
      </trkpt>
      <trkpt lat="45.69778" lon="4.65059">
        <ele>516.50531</ele>
        <time>2016-09-25T07:55:05Z</time>
      </trkpt>
      <trkpt lat="45.6978" lon="4.65053">
        <ele>516.453125</ele>
        <time>2016-09-25T07:55:07Z</time>
      </trkpt>
      <trkpt lat="45.69783" lon="4.65047">
        <ele>516.356079</ele>
        <time>2016-09-25T07:55:09Z</time>
      </trkpt>
      <trkpt lat="45.69786" lon="4.65042">
        <ele>516.336853</ele>
        <time>2016-09-25T07:55:11Z</time>
      </trkpt>
      <trkpt lat="45.69788" lon="4.65038">
        <ele>516.204163</ele>
        <time>2016-09-25T07:55:13Z</time>
      </trkpt>
      <trkpt lat="45.6979" lon="4.65034">
        <ele>516.228699</ele>
        <time>2016-09-25T07:55:15Z</time>
      </trkpt>
      <trkpt lat="45.69793" lon="4.65029">
        <ele>516.122131</ele>
        <time>2016-09-25T07:55:17Z</time>
      </trkpt>
      <trkpt lat="45.69795" lon="4.65025">
        <ele>516.028625</ele>
        <time>2016-09-25T07:55:19Z</time>
      </trkpt>
      <trkpt lat="45.69797" lon="4.65021">
        <ele>515.624146</ele>
        <time>2016-09-25T07:55:21Z</time>
      </trkpt>
      <trkpt lat="45.69799" lon="4.65017">
        <ele>515.728638</ele>
        <time>2016-09-25T07:55:23Z</time>
      </trkpt>
      <trkpt lat="45.69801" lon="4.65013">
        <ele>515.998413</ele>
        <time>2016-09-25T07:55:25Z</time>
      </trkpt>
      <trkpt lat="45.69804" lon="4.6501">
        <ele>516.10498</ele>
        <time>2016-09-25T07:55:27Z</time>
      </trkpt>
      <trkpt lat="45.69806" lon="4.65006">
        <ele>516.187317</ele>
        <time>2016-09-25T07:55:29Z</time>
      </trkpt>
      <trkpt lat="45.69808" lon="4.65002">
        <ele>516.367859</ele>
        <time>2016-09-25T07:55:31Z</time>
      </trkpt>
      <trkpt lat="45.6981" lon="4.64998">
        <ele>516.503723</ele>
        <time>2016-09-25T07:55:33Z</time>
      </trkpt>
      <trkpt lat="45.69812" lon="4.64995">
        <ele>516.703796</ele>
        <time>2016-09-25T07:55:35Z</time>
      </trkpt>
      <trkpt lat="45.69815" lon="4.64992">
        <ele>516.967041</ele>
        <time>2016-09-25T07:55:37Z</time>
      </trkpt>
      <trkpt lat="45.69817" lon="4.64989">
        <ele>517.141663</ele>
        <time>2016-09-25T07:55:39Z</time>
      </trkpt>
      <trkpt lat="45.6982" lon="4.64986">
        <ele>517.39563</ele>
        <time>2016-09-25T07:55:41Z</time>
      </trkpt>
      <trkpt lat="45.69822" lon="4.64984">
        <ele>517.721985</ele>
        <time>2016-09-25T07:55:43Z</time>
      </trkpt>
      <trkpt lat="45.69825" lon="4.64982">
        <ele>518.050476</ele>
        <time>2016-09-25T07:55:45Z</time>
      </trkpt>
      <trkpt lat="45.69827" lon="4.6498">
        <ele>518.412964</ele>
        <time>2016-09-25T07:55:47Z</time>
      </trkpt>
      <trkpt lat="45.6983" lon="4.64978">
        <ele>518.801453</ele>
        <time>2016-09-25T07:55:49Z</time>
      </trkpt>
      <trkpt lat="45.69833" lon="4.64976">
        <ele>519.101746</ele>
        <time>2016-09-25T07:55:51Z</time>
      </trkpt>
      <trkpt lat="45.69835" lon="4.64974">
        <ele>519.452026</ele>
        <time>2016-09-25T07:55:53Z</time>
      </trkpt>
      <trkpt lat="45.69837" lon="4.64972">
        <ele>519.67395</ele>
        <time>2016-09-25T07:55:55Z</time>
      </trkpt>
      <trkpt lat="45.69838" lon="4.6497">
        <ele>520.060852</ele>
        <time>2016-09-25T07:55:57Z</time>
      </trkpt>
      <trkpt lat="45.6984" lon="4.64968">
        <ele>520.519775</ele>
        <time>2016-09-25T07:55:59Z</time>
      </trkpt>
      <trkpt lat="45.69841" lon="4.64966">
        <ele>520.913635</ele>
        <time>2016-09-25T07:56:01Z</time>
      </trkpt>
      <trkpt lat="45.69843" lon="4.64963">
        <ele>521.335327</ele>
        <time>2016-09-25T07:56:03Z</time>
      </trkpt>
      <trkpt lat="45.69844" lon="4.64961">
        <ele>521.703674</ele>
        <time>2016-09-25T07:56:05Z</time>
      </trkpt>
      <trkpt lat="45.69846" lon="4.6496">
        <ele>521.890747</ele>
        <time>2016-09-25T07:56:07Z</time>
      </trkpt>
      <trkpt lat="45.69849" lon="4.64959">
        <ele>522.371826</ele>
        <time>2016-09-25T07:56:09Z</time>
      </trkpt>
      <trkpt lat="45.69851" lon="4.64959">
        <ele>522.872314</ele>
        <time>2016-09-25T07:56:11Z</time>
      </trkpt>
      <trkpt lat="45.69853" lon="4.64959">
        <ele>523.343811</ele>
        <time>2016-09-25T07:56:13Z</time>
      </trkpt>
      <trkpt lat="45.69856" lon="4.64957">
        <ele>523.815796</ele>
        <time>2016-09-25T07:56:15Z</time>
      </trkpt>
      <trkpt lat="45.69858" lon="4.64956">
        <ele>524.164124</ele>
        <time>2016-09-25T07:56:17Z</time>
      </trkpt>
      <trkpt lat="45.69861" lon="4.64954">
        <ele>524.59729</ele>
        <time>2016-09-25T07:56:19Z</time>
      </trkpt>
      <trkpt lat="45.69863" lon="4.64951">
        <ele>525.208984</ele>
        <time>2016-09-25T07:56:23Z</time>
      </trkpt>
      <trkpt lat="45.69865" lon="4.64948">
        <ele>525.559509</ele>
        <time>2016-09-25T07:56:25Z</time>
      </trkpt>
      <trkpt lat="45.69866" lon="4.64945">
        <ele>526.036316</ele>
        <time>2016-09-25T07:56:27Z</time>
      </trkpt>
      <trkpt lat="45.69869" lon="4.64942">
        <ele>526.324585</ele>
        <time>2016-09-25T07:56:29Z</time>
      </trkpt>
      <trkpt lat="45.69873" lon="4.6494">
        <ele>527.494324</ele>
        <time>2016-09-25T07:56:35Z</time>
      </trkpt>
      <trkpt lat="45.69875" lon="4.6494">
        <ele>528.010864</ele>
        <time>2016-09-25T07:56:37Z</time>
      </trkpt>
      <trkpt lat="45.69876" lon="4.6494">
        <ele>528.344055</ele>
        <time>2016-09-25T07:56:39Z</time>
      </trkpt>
      <trkpt lat="45.69878" lon="4.64939">
        <ele>528.696899</ele>
        <time>2016-09-25T07:56:41Z</time>
      </trkpt>
      <trkpt lat="45.69879" lon="4.6494">
        <ele>529.226135</ele>
        <time>2016-09-25T07:56:43Z</time>
      </trkpt>
      <trkpt lat="45.69881" lon="4.64941">
        <ele>529.64856</ele>
        <time>2016-09-25T07:56:45Z</time>
      </trkpt>
      <trkpt lat="45.69881" lon="4.64942">
        <ele>529.931091</ele>
        <time>2016-09-25T07:56:47Z</time>
      </trkpt>
      <trkpt lat="45.69883" lon="4.64944">
        <ele>530.26355</ele>
        <time>2016-09-25T07:56:49Z</time>
      </trkpt>
      <trkpt lat="45.69885" lon="4.64945">
        <ele>530.721069</ele>
        <time>2016-09-25T07:56:51Z</time>
      </trkpt>
      <trkpt lat="45.69886" lon="4.64945">
        <ele>531.006348</ele>
        <time>2016-09-25T07:56:53Z</time>
      </trkpt>
      <trkpt lat="45.69888" lon="4.64946">
        <ele>531.134888</ele>
        <time>2016-09-25T07:56:55Z</time>
      </trkpt>
      <trkpt lat="45.6989" lon="4.64947">
        <ele>531.479248</ele>
        <time>2016-09-25T07:56:57Z</time>
      </trkpt>
      <trkpt lat="45.69892" lon="4.64948">
        <ele>531.800171</ele>
        <time>2016-09-25T07:56:59Z</time>
      </trkpt>
      <trkpt lat="45.69893" lon="4.64948">
        <ele>532.144409</ele>
        <time>2016-09-25T07:57:01Z</time>
      </trkpt>
      <trkpt lat="45.69895" lon="4.64949">
        <ele>532.370972</ele>
        <time>2016-09-25T07:57:03Z</time>
      </trkpt>
      <trkpt lat="45.69897" lon="4.6495">
        <ele>532.714233</ele>
        <time>2016-09-25T07:57:05Z</time>
      </trkpt>
      <trkpt lat="45.69899" lon="4.64949">
        <ele>533.69458</ele>
        <time>2016-09-25T07:57:11Z</time>
      </trkpt>
      <trkpt lat="45.69902" lon="4.64948">
        <ele>533.970703</ele>
        <time>2016-09-25T07:57:13Z</time>
      </trkpt>
      <trkpt lat="45.69904" lon="4.64948">
        <ele>534.334595</ele>
        <time>2016-09-25T07:57:15Z</time>
      </trkpt>
      <trkpt lat="45.69906" lon="4.64947">
        <ele>534.484985</ele>
        <time>2016-09-25T07:57:17Z</time>
      </trkpt>
      <trkpt lat="45.69908" lon="4.64946">
        <ele>534.639709</ele>
        <time>2016-09-25T07:57:19Z</time>
      </trkpt>
      <trkpt lat="45.6991" lon="4.64945">
        <ele>534.901245</ele>
        <time>2016-09-25T07:57:21Z</time>
      </trkpt>
      <trkpt lat="45.69912" lon="4.64944">
        <ele>535.26947</ele>
        <time>2016-09-25T07:57:23Z</time>
      </trkpt>
      <trkpt lat="45.69913" lon="4.64943">
        <ele>535.476563</ele>
        <time>2016-09-25T07:57:25Z</time>
      </trkpt>
      <trkpt lat="45.69915" lon="4.64941">
        <ele>535.772949</ele>
        <time>2016-09-25T07:57:27Z</time>
      </trkpt>
      <trkpt lat="45.69916" lon="4.64939">
        <ele>536.015503</ele>
        <time>2016-09-25T07:57:29Z</time>
      </trkpt>
      <trkpt lat="45.69917" lon="4.64938">
        <ele>536.305359</ele>
        <time>2016-09-25T07:57:31Z</time>
      </trkpt>
      <trkpt lat="45.69919" lon="4.64936">
        <ele>536.551636</ele>
        <time>2016-09-25T07:57:33Z</time>
      </trkpt>
      <trkpt lat="45.6992" lon="4.64933">
        <ele>536.859619</ele>
        <time>2016-09-25T07:57:35Z</time>
      </trkpt>
      <trkpt lat="45.69921" lon="4.64931">
        <ele>537.077576</ele>
        <time>2016-09-25T07:57:37Z</time>
      </trkpt>
      <trkpt lat="45.69922" lon="4.64929">
        <ele>537.428406</ele>
        <time>2016-09-25T07:57:39Z</time>
      </trkpt>
      <trkpt lat="45.69924" lon="4.64927">
        <ele>537.78949</ele>
        <time>2016-09-25T07:57:41Z</time>
      </trkpt>
      <trkpt lat="45.69925" lon="4.64925">
        <ele>537.889771</ele>
        <time>2016-09-25T07:57:43Z</time>
      </trkpt>
      <trkpt lat="45.69927" lon="4.64923">
        <ele>538.22467</ele>
        <time>2016-09-25T07:57:45Z</time>
      </trkpt>
      <trkpt lat="45.69929" lon="4.64922">
        <ele>538.506714</ele>
        <time>2016-09-25T07:57:47Z</time>
      </trkpt>
      <trkpt lat="45.69931" lon="4.6492">
        <ele>538.838013</ele>
        <time>2016-09-25T07:57:49Z</time>
      </trkpt>
      <trkpt lat="45.69933" lon="4.64918">
        <ele>539.143188</ele>
        <time>2016-09-25T07:57:51Z</time>
      </trkpt>
      <trkpt lat="45.69935" lon="4.64917">
        <ele>539.467651</ele>
        <time>2016-09-25T07:57:53Z</time>
      </trkpt>
      <trkpt lat="45.69938" lon="4.64915">
        <ele>539.740112</ele>
        <time>2016-09-25T07:57:55Z</time>
      </trkpt>
      <trkpt lat="45.6994" lon="4.64914">
        <ele>540.067322</ele>
        <time>2016-09-25T07:57:57Z</time>
      </trkpt>
      <trkpt lat="45.69942" lon="4.64912">
        <ele>540.334167</ele>
        <time>2016-09-25T07:57:59Z</time>
      </trkpt>
      <trkpt lat="45.69944" lon="4.64911">
        <ele>540.648071</ele>
        <time>2016-09-25T07:58:01Z</time>
      </trkpt>
      <trkpt lat="45.69946" lon="4.64911">
        <ele>540.956848</ele>
        <time>2016-09-25T07:58:03Z</time>
      </trkpt>
      <trkpt lat="45.69948" lon="4.6491">
        <ele>541.259888</ele>
        <time>2016-09-25T07:58:05Z</time>
      </trkpt>
      <trkpt lat="45.69951" lon="4.64909">
        <ele>541.554321</ele>
        <time>2016-09-25T07:58:07Z</time>
      </trkpt>
      <trkpt lat="45.69954" lon="4.64907">
        <ele>541.970764</ele>
        <time>2016-09-25T07:58:11Z</time>
      </trkpt>
      <trkpt lat="45.69956" lon="4.64906">
        <ele>542.235535</ele>
        <time>2016-09-25T07:58:13Z</time>
      </trkpt>
      <trkpt lat="45.69958" lon="4.64904">
        <ele>542.523315</ele>
        <time>2016-09-25T07:58:15Z</time>
      </trkpt>
      <trkpt lat="45.6996" lon="4.64902">
        <ele>542.893921</ele>
        <time>2016-09-25T07:58:17Z</time>
      </trkpt>
      <trkpt lat="45.69962" lon="4.649">
        <ele>543.141174</ele>
        <time>2016-09-25T07:58:19Z</time>
      </trkpt>
      <trkpt lat="45.69964" lon="4.64897">
        <ele>543.429077</ele>
        <time>2016-09-25T07:58:21Z</time>
      </trkpt>
      <trkpt lat="45.69967" lon="4.64894">
        <ele>543.645386</ele>
        <time>2016-09-25T07:58:23Z</time>
      </trkpt>
      <trkpt lat="45.69968" lon="4.64891">
        <ele>544.032227</ele>
        <time>2016-09-25T07:58:25Z</time>
      </trkpt>
      <trkpt lat="45.69971" lon="4.64889">
        <ele>544.324463</ele>
        <time>2016-09-25T07:58:27Z</time>
      </trkpt>
      <trkpt lat="45.69973" lon="4.64886">
        <ele>544.782593</ele>
        <time>2016-09-25T07:58:29Z</time>
      </trkpt>
      <trkpt lat="45.69975" lon="4.64884">
        <ele>545.225464</ele>
        <time>2016-09-25T07:58:31Z</time>
      </trkpt>
      <trkpt lat="45.69978" lon="4.64883">
        <ele>545.406433</ele>
        <time>2016-09-25T07:58:33Z</time>
      </trkpt>
      <trkpt lat="45.6998" lon="4.64881">
        <ele>545.917358</ele>
        <time>2016-09-25T07:58:35Z</time>
      </trkpt>
      <trkpt lat="45.69982" lon="4.64878">
        <ele>546.102722</ele>
        <time>2016-09-25T07:58:37Z</time>
      </trkpt>
      <trkpt lat="45.69984" lon="4.64875">
        <ele>546.337402</ele>
        <time>2016-09-25T07:58:39Z</time>
      </trkpt>
      <trkpt lat="45.69987" lon="4.64874">
        <ele>546.701538</ele>
        <time>2016-09-25T07:58:41Z</time>
      </trkpt>
      <trkpt lat="45.69989" lon="4.64872">
        <ele>546.947937</ele>
        <time>2016-09-25T07:58:43Z</time>
      </trkpt>
      <trkpt lat="45.69991" lon="4.6487">
        <ele>547.306519</ele>
        <time>2016-09-25T07:58:45Z</time>
      </trkpt>
      <trkpt lat="45.69992" lon="4.64868">
        <ele>547.627319</ele>
        <time>2016-09-25T07:58:47Z</time>
      </trkpt>
      <trkpt lat="45.69994" lon="4.64866">
        <ele>548.065857</ele>
        <time>2016-09-25T07:58:49Z</time>
      </trkpt>
      <trkpt lat="45.69996" lon="4.64864">
        <ele>548.358276</ele>
        <time>2016-09-25T07:58:51Z</time>
      </trkpt>
      <trkpt lat="45.69998" lon="4.64861">
        <ele>548.690552</ele>
        <time>2016-09-25T07:58:53Z</time>
      </trkpt>
      <trkpt lat="45.69999" lon="4.64858">
        <ele>549.055481</ele>
        <time>2016-09-25T07:58:55Z</time>
      </trkpt>
      <trkpt lat="45.70001" lon="4.64855">
        <ele>549.434509</ele>
        <time>2016-09-25T07:58:57Z</time>
      </trkpt>
      <trkpt lat="45.70003" lon="4.64852">
        <ele>549.879639</ele>
        <time>2016-09-25T07:58:59Z</time>
      </trkpt>
      <trkpt lat="45.70004" lon="4.64849">
        <ele>550.260681</ele>
        <time>2016-09-25T07:59:01Z</time>
      </trkpt>
      <trkpt lat="45.70006" lon="4.64847">
        <ele>550.463623</ele>
        <time>2016-09-25T07:59:03Z</time>
      </trkpt>
      <trkpt lat="45.70007" lon="4.64845">
        <ele>550.827759</ele>
        <time>2016-09-25T07:59:05Z</time>
      </trkpt>
      <trkpt lat="45.7001" lon="4.64843">
        <ele>551.080078</ele>
        <time>2016-09-25T07:59:07Z</time>
      </trkpt>
      <trkpt lat="45.70011" lon="4.64841">
        <ele>551.394348</ele>
        <time>2016-09-25T07:59:09Z</time>
      </trkpt>
      <trkpt lat="45.70012" lon="4.64839">
        <ele>551.582031</ele>
        <time>2016-09-25T07:59:11Z</time>
      </trkpt>
      <trkpt lat="45.70014" lon="4.64838">
        <ele>551.865845</ele>
        <time>2016-09-25T07:59:13Z</time>
      </trkpt>
      <trkpt lat="45.70016" lon="4.64836">
        <ele>552.275452</ele>
        <time>2016-09-25T07:59:15Z</time>
      </trkpt>
      <trkpt lat="45.70018" lon="4.64834">
        <ele>552.436462</ele>
        <time>2016-09-25T07:59:17Z</time>
      </trkpt>
      <trkpt lat="45.70019" lon="4.64832">
        <ele>552.707886</ele>
        <time>2016-09-25T07:59:19Z</time>
      </trkpt>
      <trkpt lat="45.70021" lon="4.6483">
        <ele>553.086975</ele>
        <time>2016-09-25T07:59:21Z</time>
      </trkpt>
      <trkpt lat="45.70023" lon="4.64828">
        <ele>553.357727</ele>
        <time>2016-09-25T07:59:23Z</time>
      </trkpt>
      <trkpt lat="45.70025" lon="4.64826">
        <ele>553.602173</ele>
        <time>2016-09-25T07:59:25Z</time>
      </trkpt>
      <trkpt lat="45.70027" lon="4.64823">
        <ele>553.875</ele>
        <time>2016-09-25T07:59:27Z</time>
      </trkpt>
      <trkpt lat="45.70028" lon="4.6482">
        <ele>554.209778</ele>
        <time>2016-09-25T07:59:29Z</time>
      </trkpt>
      <trkpt lat="45.70029" lon="4.64818">
        <ele>554.484863</ele>
        <time>2016-09-25T07:59:31Z</time>
      </trkpt>
      <trkpt lat="45.70031" lon="4.64815">
        <ele>554.802429</ele>
        <time>2016-09-25T07:59:33Z</time>
      </trkpt>
      <trkpt lat="45.70033" lon="4.64814">
        <ele>555.043945</ele>
        <time>2016-09-25T07:59:35Z</time>
      </trkpt>
      <trkpt lat="45.70036" lon="4.64812">
        <ele>555.436584</ele>
        <time>2016-09-25T07:59:37Z</time>
      </trkpt>
      <trkpt lat="45.70037" lon="4.6481">
        <ele>555.764099</ele>
        <time>2016-09-25T07:59:39Z</time>
      </trkpt>
      <trkpt lat="45.70039" lon="4.64808">
        <ele>556.159363</ele>
        <time>2016-09-25T07:59:41Z</time>
      </trkpt>
      <trkpt lat="45.70041" lon="4.64806">
        <ele>556.563354</ele>
        <time>2016-09-25T07:59:43Z</time>
      </trkpt>
      <trkpt lat="45.70043" lon="4.64803">
        <ele>556.897339</ele>
        <time>2016-09-25T07:59:45Z</time>
      </trkpt>
      <trkpt lat="45.70046" lon="4.64801">
        <ele>557.043701</ele>
        <time>2016-09-25T07:59:47Z</time>
      </trkpt>
      <trkpt lat="45.70047" lon="4.64797">
        <ele>557.384033</ele>
        <time>2016-09-25T07:59:49Z</time>
      </trkpt>
      <trkpt lat="45.70049" lon="4.64795">
        <ele>557.753113</ele>
        <time>2016-09-25T07:59:51Z</time>
      </trkpt>
      <trkpt lat="45.70051" lon="4.64793">
        <ele>558.128784</ele>
        <time>2016-09-25T07:59:53Z</time>
      </trkpt>
      <trkpt lat="45.70053" lon="4.64791">
        <ele>558.452026</ele>
        <time>2016-09-25T07:59:55Z</time>
      </trkpt>
      <trkpt lat="45.70055" lon="4.6479">
        <ele>559.003174</ele>
        <time>2016-09-25T07:59:57Z</time>
      </trkpt>
      <trkpt lat="45.70058" lon="4.64789">
        <ele>559.488098</ele>
        <time>2016-09-25T07:59:59Z</time>
      </trkpt>
      <trkpt lat="45.70061" lon="4.64787">
        <ele>559.968628</ele>
        <time>2016-09-25T08:00:01Z</time>
      </trkpt>
      <trkpt lat="45.70063" lon="4.64786">
        <ele>560.475464</ele>
        <time>2016-09-25T08:00:03Z</time>
      </trkpt>
      <trkpt lat="45.70066" lon="4.64785">
        <ele>560.940735</ele>
        <time>2016-09-25T08:00:05Z</time>
      </trkpt>
      <trkpt lat="45.70069" lon="4.64784">
        <ele>561.427917</ele>
        <time>2016-09-25T08:00:07Z</time>
      </trkpt>
      <trkpt lat="45.70071" lon="4.64782">
        <ele>561.899597</ele>
        <time>2016-09-25T08:00:09Z</time>
      </trkpt>
      <trkpt lat="45.70073" lon="4.64781">
        <ele>562.257935</ele>
        <time>2016-09-25T08:00:11Z</time>
      </trkpt>
      <trkpt lat="45.70075" lon="4.6478">
        <ele>562.437134</ele>
        <time>2016-09-25T08:00:13Z</time>
      </trkpt>
      <trkpt lat="45.70077" lon="4.64778">
        <ele>562.905884</ele>
        <time>2016-09-25T08:00:15Z</time>
      </trkpt>
      <trkpt lat="45.70078" lon="4.64776">
        <ele>563.422852</ele>
        <time>2016-09-25T08:00:17Z</time>
      </trkpt>
      <trkpt lat="45.7008" lon="4.64774">
        <ele>563.791931</ele>
        <time>2016-09-25T08:00:19Z</time>
      </trkpt>
      <trkpt lat="45.70082" lon="4.64771">
        <ele>564.374451</ele>
        <time>2016-09-25T08:00:23Z</time>
      </trkpt>
      <trkpt lat="45.70084" lon="4.64769">
        <ele>564.630615</ele>
        <time>2016-09-25T08:00:25Z</time>
      </trkpt>
      <trkpt lat="45.70086" lon="4.64767">
        <ele>565.02179</ele>
        <time>2016-09-25T08:00:27Z</time>
      </trkpt>
      <trkpt lat="45.70089" lon="4.64765">
        <ele>565.31134</ele>
        <time>2016-09-25T08:00:29Z</time>
      </trkpt>
      <trkpt lat="45.70091" lon="4.64764">
        <ele>565.741821</ele>
        <time>2016-09-25T08:00:31Z</time>
      </trkpt>
      <trkpt lat="45.70093" lon="4.64762">
        <ele>566.088745</ele>
        <time>2016-09-25T08:00:33Z</time>
      </trkpt>
      <trkpt lat="45.70095" lon="4.6476">
        <ele>566.427551</ele>
        <time>2016-09-25T08:00:35Z</time>
      </trkpt>
      <trkpt lat="45.70097" lon="4.64758">
        <ele>566.663635</ele>
        <time>2016-09-25T08:00:37Z</time>
      </trkpt>
      <trkpt lat="45.701" lon="4.64755">
        <ele>567.000793</ele>
        <time>2016-09-25T08:00:39Z</time>
      </trkpt>
      <trkpt lat="45.70103" lon="4.64752">
        <ele>567.066345</ele>
        <time>2016-09-25T08:00:41Z</time>
      </trkpt>
      <trkpt lat="45.70106" lon="4.64749">
        <ele>567.226501</ele>
        <time>2016-09-25T08:00:43Z</time>
      </trkpt>
      <trkpt lat="45.70109" lon="4.64746">
        <ele>567.399231</ele>
        <time>2016-09-25T08:00:45Z</time>
      </trkpt>
      <trkpt lat="45.70112" lon="4.64744">
        <ele>567.709595</ele>
        <time>2016-09-25T08:00:47Z</time>
      </trkpt>
      <trkpt lat="45.70115" lon="4.64742">
        <ele>567.877808</ele>
        <time>2016-09-25T08:00:49Z</time>
      </trkpt>
      <trkpt lat="45.70118" lon="4.64739">
        <ele>568.080566</ele>
        <time>2016-09-25T08:00:51Z</time>
      </trkpt>
      <trkpt lat="45.7012" lon="4.64736">
        <ele>568.299377</ele>
        <time>2016-09-25T08:00:53Z</time>
      </trkpt>
      <trkpt lat="45.70123" lon="4.64732">
        <ele>568.443665</ele>
        <time>2016-09-25T08:00:55Z</time>
      </trkpt>
      <trkpt lat="45.70126" lon="4.64728">
        <ele>568.552917</ele>
        <time>2016-09-25T08:00:57Z</time>
      </trkpt>
      <trkpt lat="45.70129" lon="4.64725">
        <ele>568.7453</ele>
        <time>2016-09-25T08:00:59Z</time>
      </trkpt>
      <trkpt lat="45.70131" lon="4.6472">
        <ele>568.909302</ele>
        <time>2016-09-25T08:01:01Z</time>
      </trkpt>
      <trkpt lat="45.70134" lon="4.64716">
        <ele>569.147583</ele>
        <time>2016-09-25T08:01:03Z</time>
      </trkpt>
      <trkpt lat="45.70138" lon="4.64712">
        <ele>569.233765</ele>
        <time>2016-09-25T08:01:05Z</time>
      </trkpt>
      <trkpt lat="45.70142" lon="4.64706">
        <ele>569.41394</ele>
        <time>2016-09-25T08:01:07Z</time>
      </trkpt>
      <trkpt lat="45.70145" lon="4.64701">
        <ele>569.65448</ele>
        <time>2016-09-25T08:01:09Z</time>
      </trkpt>
      <trkpt lat="45.70149" lon="4.64697">
        <ele>569.949585</ele>
        <time>2016-09-25T08:01:11Z</time>
      </trkpt>
      <trkpt lat="45.70152" lon="4.64692">
        <ele>570.227295</ele>
        <time>2016-09-25T08:01:13Z</time>
      </trkpt>
      <trkpt lat="45.70155" lon="4.64688">
        <ele>570.359009</ele>
        <time>2016-09-25T08:01:15Z</time>
      </trkpt>
      <trkpt lat="45.70159" lon="4.64683">
        <ele>570.354614</ele>
        <time>2016-09-25T08:01:17Z</time>
      </trkpt>
      <trkpt lat="45.70162" lon="4.64679">
        <ele>570.411499</ele>
        <time>2016-09-25T08:01:19Z</time>
      </trkpt>
      <trkpt lat="45.70166" lon="4.64675">
        <ele>570.456177</ele>
        <time>2016-09-25T08:01:21Z</time>
      </trkpt>
      <trkpt lat="45.70169" lon="4.64672">
        <ele>570.639038</ele>
        <time>2016-09-25T08:01:23Z</time>
      </trkpt>
      <trkpt lat="45.70172" lon="4.64667">
        <ele>570.860413</ele>
        <time>2016-09-25T08:01:25Z</time>
      </trkpt>
      <trkpt lat="45.70174" lon="4.64663">
        <ele>570.919434</ele>
        <time>2016-09-25T08:01:27Z</time>
      </trkpt>
      <trkpt lat="45.70178" lon="4.64659">
        <ele>571.164429</ele>
        <time>2016-09-25T08:01:29Z</time>
      </trkpt>
      <trkpt lat="45.70181" lon="4.64655">
        <ele>571.300171</ele>
        <time>2016-09-25T08:01:31Z</time>
      </trkpt>
      <trkpt lat="45.70184" lon="4.64651">
        <ele>571.442261</ele>
        <time>2016-09-25T08:01:33Z</time>
      </trkpt>
      <trkpt lat="45.70189" lon="4.64647">
        <ele>571.595825</ele>
        <time>2016-09-25T08:01:35Z</time>
      </trkpt>
      <trkpt lat="45.70192" lon="4.64643">
        <ele>571.893921</ele>
        <time>2016-09-25T08:01:37Z</time>
      </trkpt>
      <trkpt lat="45.70196" lon="4.64639">
        <ele>572.190552</ele>
        <time>2016-09-25T08:01:39Z</time>
      </trkpt>
      <trkpt lat="45.70199" lon="4.64635">
        <ele>572.411438</ele>
        <time>2016-09-25T08:01:41Z</time>
      </trkpt>
      <trkpt lat="45.70202" lon="4.64632">
        <ele>572.724121</ele>
        <time>2016-09-25T08:01:43Z</time>
      </trkpt>
      <trkpt lat="45.70206" lon="4.64629">
        <ele>572.958191</ele>
        <time>2016-09-25T08:01:45Z</time>
      </trkpt>
      <trkpt lat="45.7021" lon="4.64624">
        <ele>573.230103</ele>
        <time>2016-09-25T08:01:47Z</time>
      </trkpt>
      <trkpt lat="45.70213" lon="4.6462">
        <ele>573.593262</ele>
        <time>2016-09-25T08:01:49Z</time>
      </trkpt>
      <trkpt lat="45.70216" lon="4.64614">
        <ele>573.814148</ele>
        <time>2016-09-25T08:01:51Z</time>
      </trkpt>
      <trkpt lat="45.7022" lon="4.64609">
        <ele>573.957153</ele>
        <time>2016-09-25T08:01:53Z</time>
      </trkpt>
      <trkpt lat="45.70224" lon="4.64605">
        <ele>574.046753</ele>
        <time>2016-09-25T08:01:55Z</time>
      </trkpt>
      <trkpt lat="45.70228" lon="4.646">
        <ele>574.362671</ele>
        <time>2016-09-25T08:01:57Z</time>
      </trkpt>
      <trkpt lat="45.70233" lon="4.64595">
        <ele>574.7323</ele>
        <time>2016-09-25T08:01:59Z</time>
      </trkpt>
      <trkpt lat="45.70237" lon="4.6459">
        <ele>575.014465</ele>
        <time>2016-09-25T08:02:01Z</time>
      </trkpt>
      <trkpt lat="45.70241" lon="4.64586">
        <ele>575.311035</ele>
        <time>2016-09-25T08:02:03Z</time>
      </trkpt>
      <trkpt lat="45.70245" lon="4.64582">
        <ele>575.704956</ele>
        <time>2016-09-25T08:02:05Z</time>
      </trkpt>
      <trkpt lat="45.70247" lon="4.64577">
        <ele>576.021667</ele>
        <time>2016-09-25T08:02:07Z</time>
      </trkpt>
      <trkpt lat="45.70248" lon="4.64572">
        <ele>576.39679</ele>
        <time>2016-09-25T08:02:09Z</time>
      </trkpt>
      <trkpt lat="45.7025" lon="4.64568">
        <ele>576.720581</ele>
        <time>2016-09-25T08:02:11Z</time>
      </trkpt>
      <trkpt lat="45.70252" lon="4.64564">
        <ele>577.142944</ele>
        <time>2016-09-25T08:02:13Z</time>
      </trkpt>
      <trkpt lat="45.70253" lon="4.64561">
        <ele>577.520874</ele>
        <time>2016-09-25T08:02:15Z</time>
      </trkpt>
      <trkpt lat="45.70256" lon="4.64557">
        <ele>577.833801</ele>
        <time>2016-09-25T08:02:17Z</time>
      </trkpt>
      <trkpt lat="45.70258" lon="4.64553">
        <ele>577.992737</ele>
        <time>2016-09-25T08:02:19Z</time>
      </trkpt>
      <trkpt lat="45.7026" lon="4.64549">
        <ele>578.362244</ele>
        <time>2016-09-25T08:02:21Z</time>
      </trkpt>
      <trkpt lat="45.70261" lon="4.64545">
        <ele>578.700134</ele>
        <time>2016-09-25T08:02:23Z</time>
      </trkpt>
      <trkpt lat="45.70263" lon="4.64541">
        <ele>579.218872</ele>
        <time>2016-09-25T08:02:25Z</time>
      </trkpt>
      <trkpt lat="45.70266" lon="4.64538">
        <ele>579.617188</ele>
        <time>2016-09-25T08:02:27Z</time>
      </trkpt>
      <trkpt lat="45.70268" lon="4.64534">
        <ele>580.105286</ele>
        <time>2016-09-25T08:02:29Z</time>
      </trkpt>
      <trkpt lat="45.7027" lon="4.64532">
        <ele>580.468628</ele>
        <time>2016-09-25T08:02:31Z</time>
      </trkpt>
      <trkpt lat="45.70273" lon="4.6453">
        <ele>580.85437</ele>
        <time>2016-09-25T08:02:33Z</time>
      </trkpt>
      <trkpt lat="45.70276" lon="4.64527">
        <ele>581.273865</ele>
        <time>2016-09-25T08:02:35Z</time>
      </trkpt>
      <trkpt lat="45.70278" lon="4.64524">
        <ele>581.713013</ele>
        <time>2016-09-25T08:02:37Z</time>
      </trkpt>
      <trkpt lat="45.7028" lon="4.6452">
        <ele>582.047974</ele>
        <time>2016-09-25T08:02:39Z</time>
      </trkpt>
      <trkpt lat="45.70282" lon="4.64518">
        <ele>582.590881</ele>
        <time>2016-09-25T08:02:41Z</time>
      </trkpt>
      <trkpt lat="45.70284" lon="4.64514">
        <ele>583.173218</ele>
        <time>2016-09-25T08:02:43Z</time>
      </trkpt>
      <trkpt lat="45.70286" lon="4.6451">
        <ele>583.466553</ele>
        <time>2016-09-25T08:02:45Z</time>
      </trkpt>
      <trkpt lat="45.70289" lon="4.64508">
        <ele>583.90564</ele>
        <time>2016-09-25T08:02:47Z</time>
      </trkpt>
      <trkpt lat="45.70292" lon="4.64506">
        <ele>584.4552</ele>
        <time>2016-09-25T08:02:49Z</time>
      </trkpt>
      <trkpt lat="45.70294" lon="4.64504">
        <ele>584.973022</ele>
        <time>2016-09-25T08:02:51Z</time>
      </trkpt>
      <trkpt lat="45.70296" lon="4.64502">
        <ele>585.356201</ele>
        <time>2016-09-25T08:02:53Z</time>
      </trkpt>
      <trkpt lat="45.70298" lon="4.645">
        <ele>585.73938</ele>
        <time>2016-09-25T08:02:55Z</time>
      </trkpt>
      <trkpt lat="45.70301" lon="4.64498">
        <ele>586.125061</ele>
        <time>2016-09-25T08:02:57Z</time>
      </trkpt>
      <trkpt lat="45.70303" lon="4.64496">
        <ele>586.609009</ele>
        <time>2016-09-25T08:02:59Z</time>
      </trkpt>
      <trkpt lat="45.70305" lon="4.64494">
        <ele>587.131409</ele>
        <time>2016-09-25T08:03:01Z</time>
      </trkpt>
      <trkpt lat="45.70306" lon="4.64492">
        <ele>587.551025</ele>
        <time>2016-09-25T08:03:03Z</time>
      </trkpt>
      <trkpt lat="45.70308" lon="4.6449">
        <ele>587.967163</ele>
        <time>2016-09-25T08:03:05Z</time>
      </trkpt>
      <trkpt lat="45.70309" lon="4.64487">
        <ele>588.352661</ele>
        <time>2016-09-25T08:03:07Z</time>
      </trkpt>
      <trkpt lat="45.70311" lon="4.64485">
        <ele>588.681274</ele>
        <time>2016-09-25T08:03:09Z</time>
      </trkpt>
      <trkpt lat="45.70314" lon="4.64484">
        <ele>589.066772</ele>
        <time>2016-09-25T08:03:11Z</time>
      </trkpt>
      <trkpt lat="45.70316" lon="4.64482">
        <ele>589.382935</ele>
        <time>2016-09-25T08:03:13Z</time>
      </trkpt>
      <trkpt lat="45.70319" lon="4.6448">
        <ele>589.605835</ele>
        <time>2016-09-25T08:03:15Z</time>
      </trkpt>
      <trkpt lat="45.70321" lon="4.64477">
        <ele>590.095581</ele>
        <time>2016-09-25T08:03:17Z</time>
      </trkpt>
      <trkpt lat="45.70323" lon="4.64474">
        <ele>590.538147</ele>
        <time>2016-09-25T08:03:19Z</time>
      </trkpt>
      <trkpt lat="45.70325" lon="4.64471">
        <ele>590.982788</ele>
        <time>2016-09-25T08:03:21Z</time>
      </trkpt>
      <trkpt lat="45.70327" lon="4.64468">
        <ele>591.236938</ele>
        <time>2016-09-25T08:03:23Z</time>
      </trkpt>
      <trkpt lat="45.70329" lon="4.64464">
        <ele>591.578735</ele>
        <time>2016-09-25T08:03:25Z</time>
      </trkpt>
      <trkpt lat="45.70331" lon="4.6446">
        <ele>591.84436</ele>
        <time>2016-09-25T08:03:27Z</time>
      </trkpt>
      <trkpt lat="45.70334" lon="4.64457">
        <ele>592.059143</ele>
        <time>2016-09-25T08:03:29Z</time>
      </trkpt>
      <trkpt lat="45.70336" lon="4.64454">
        <ele>592.330872</ele>
        <time>2016-09-25T08:03:31Z</time>
      </trkpt>
      <trkpt lat="45.70339" lon="4.6445">
        <ele>592.705566</ele>
        <time>2016-09-25T08:03:33Z</time>
      </trkpt>
      <trkpt lat="45.70341" lon="4.64446">
        <ele>593.054016</ele>
        <time>2016-09-25T08:03:35Z</time>
      </trkpt>
      <trkpt lat="45.70343" lon="4.64442">
        <ele>593.238159</ele>
        <time>2016-09-25T08:03:37Z</time>
      </trkpt>
      <trkpt lat="45.70346" lon="4.64439">
        <ele>593.541443</ele>
        <time>2016-09-25T08:03:39Z</time>
      </trkpt>
      <trkpt lat="45.70348" lon="4.64435">
        <ele>593.813171</ele>
        <time>2016-09-25T08:03:41Z</time>
      </trkpt>
      <trkpt lat="45.70351" lon="4.64431">
        <ele>594.098083</ele>
        <time>2016-09-25T08:03:43Z</time>
      </trkpt>
      <trkpt lat="45.70353" lon="4.64427">
        <ele>594.369812</ele>
        <time>2016-09-25T08:03:45Z</time>
      </trkpt>
      <trkpt lat="45.70356" lon="4.64423">
        <ele>594.617493</ele>
        <time>2016-09-25T08:03:47Z</time>
      </trkpt>
      <trkpt lat="45.70359" lon="4.64419">
        <ele>594.875366</ele>
        <time>2016-09-25T08:03:49Z</time>
      </trkpt>
      <trkpt lat="45.70362" lon="4.64415">
        <ele>595.147034</ele>
        <time>2016-09-25T08:03:51Z</time>
      </trkpt>
      <trkpt lat="45.70365" lon="4.6441">
        <ele>595.486816</ele>
        <time>2016-09-25T08:03:53Z</time>
      </trkpt>
      <trkpt lat="45.70367" lon="4.64405">
        <ele>595.823669</ele>
        <time>2016-09-25T08:03:55Z</time>
      </trkpt>
      <trkpt lat="45.70371" lon="4.644">
        <ele>596.113892</ele>
        <time>2016-09-25T08:03:57Z</time>
      </trkpt>
      <trkpt lat="45.70374" lon="4.64395">
        <ele>596.157776</ele>
        <time>2016-09-25T08:03:59Z</time>
      </trkpt>
      <trkpt lat="45.70377" lon="4.6439">
        <ele>596.379211</ele>
        <time>2016-09-25T08:04:01Z</time>
      </trkpt>
      <trkpt lat="45.7038" lon="4.64384">
        <ele>596.665649</ele>
        <time>2016-09-25T08:04:03Z</time>
      </trkpt>
      <trkpt lat="45.70384" lon="4.64378">
        <ele>596.895813</ele>
        <time>2016-09-25T08:04:05Z</time>
      </trkpt>
      <trkpt lat="45.70387" lon="4.64373">
        <ele>597.12384</ele>
        <time>2016-09-25T08:04:07Z</time>
      </trkpt>
      <trkpt lat="45.7039" lon="4.64367">
        <ele>597.373474</ele>
        <time>2016-09-25T08:04:09Z</time>
      </trkpt>
      <trkpt lat="45.70393" lon="4.64361">
        <ele>597.632141</ele>
        <time>2016-09-25T08:04:11Z</time>
      </trkpt>
      <trkpt lat="45.70395" lon="4.64355">
        <ele>597.930298</ele>
        <time>2016-09-25T08:04:13Z</time>
      </trkpt>
      <trkpt lat="45.70398" lon="4.64348">
        <ele>598.17804</ele>
        <time>2016-09-25T08:04:15Z</time>
      </trkpt>
      <trkpt lat="45.704" lon="4.6434">
        <ele>598.500366</ele>
        <time>2016-09-25T08:04:17Z</time>
      </trkpt>
      <trkpt lat="45.70403" lon="4.64332">
        <ele>598.823669</ele>
        <time>2016-09-25T08:04:19Z</time>
      </trkpt>
      <trkpt lat="45.70406" lon="4.64323">
        <ele>599.045166</ele>
        <time>2016-09-25T08:04:21Z</time>
      </trkpt>
      <trkpt lat="45.70408" lon="4.64315">
        <ele>599.238098</ele>
        <time>2016-09-25T08:04:23Z</time>
      </trkpt>
      <trkpt lat="45.70411" lon="4.64306">
        <ele>599.460205</ele>
        <time>2016-09-25T08:04:25Z</time>
      </trkpt>
      <trkpt lat="45.70414" lon="4.64298">
        <ele>599.690552</ele>
        <time>2016-09-25T08:04:27Z</time>
      </trkpt>
      <trkpt lat="45.70416" lon="4.64289">
        <ele>599.964661</ele>
        <time>2016-09-25T08:04:29Z</time>
      </trkpt>
      <trkpt lat="45.70419" lon="4.64281">
        <ele>600.172363</ele>
        <time>2016-09-25T08:04:31Z</time>
      </trkpt>
      <trkpt lat="45.70421" lon="4.64271">
        <ele>600.374207</ele>
        <time>2016-09-25T08:04:33Z</time>
      </trkpt>
      <trkpt lat="45.70424" lon="4.64262">
        <ele>600.497009</ele>
        <time>2016-09-25T08:04:35Z</time>
      </trkpt>
      <trkpt lat="45.70425" lon="4.64252">
        <ele>600.661987</ele>
        <time>2016-09-25T08:04:37Z</time>
      </trkpt>
      <trkpt lat="45.70427" lon="4.64241">
        <ele>600.80011</ele>
        <time>2016-09-25T08:04:39Z</time>
      </trkpt>
      <trkpt lat="45.70428" lon="4.64228">
        <ele>600.916321</ele>
        <time>2016-09-25T08:04:41Z</time>
      </trkpt>
      <trkpt lat="45.70429" lon="4.64215">
        <ele>601.006958</ele>
        <time>2016-09-25T08:04:43Z</time>
      </trkpt>
      <trkpt lat="45.70429" lon="4.64202">
        <ele>601.123169</ele>
        <time>2016-09-25T08:04:45Z</time>
      </trkpt>
      <trkpt lat="45.70429" lon="4.64189">
        <ele>601.151672</ele>
        <time>2016-09-25T08:04:47Z</time>
      </trkpt>
      <trkpt lat="45.70428" lon="4.64176">
        <ele>601.196045</ele>
        <time>2016-09-25T08:04:49Z</time>
      </trkpt>
      <trkpt lat="45.70426" lon="4.64161">
        <ele>601.13324</ele>
        <time>2016-09-25T08:04:51Z</time>
      </trkpt>
      <trkpt lat="45.70422" lon="4.64145">
        <ele>601.080994</ele>
        <time>2016-09-25T08:04:53Z</time>
      </trkpt>
      <trkpt lat="45.70418" lon="4.64127">
        <ele>601.061279</ele>
        <time>2016-09-25T08:04:55Z</time>
      </trkpt>
      <trkpt lat="45.70413" lon="4.64109">
        <ele>600.831116</ele>
        <time>2016-09-25T08:04:57Z</time>
      </trkpt>
      <trkpt lat="45.70409" lon="4.6409">
        <ele>600.359741</ele>
        <time>2016-09-25T08:04:59Z</time>
      </trkpt>
      <trkpt lat="45.70405" lon="4.64069">
        <ele>599.853271</ele>
        <time>2016-09-25T08:05:01Z</time>
      </trkpt>
      <trkpt lat="45.70402" lon="4.64047">
        <ele>599.509094</ele>
        <time>2016-09-25T08:05:03Z</time>
      </trkpt>
      <trkpt lat="45.704" lon="4.64024">
        <ele>599.059753</ele>
        <time>2016-09-25T08:05:05Z</time>
      </trkpt>
      <trkpt lat="45.70396" lon="4.64001">
        <ele>598.530701</ele>
        <time>2016-09-25T08:05:07Z</time>
      </trkpt>
      <trkpt lat="45.70394" lon="4.63978">
        <ele>598.151428</ele>
        <time>2016-09-25T08:05:09Z</time>
      </trkpt>
      <trkpt lat="45.70393" lon="4.63954">
        <ele>597.434753</ele>
        <time>2016-09-25T08:05:11Z</time>
      </trkpt>
      <trkpt lat="45.70392" lon="4.63933">
        <ele>596.873535</ele>
        <time>2016-09-25T08:05:13Z</time>
      </trkpt>
      <trkpt lat="45.70391" lon="4.63917">
        <ele>596.500854</ele>
        <time>2016-09-25T08:05:15Z</time>
      </trkpt>
      <trkpt lat="45.7039" lon="4.63909">
        <ele>596.220276</ele>
        <time>2016-09-25T08:05:17Z</time>
      </trkpt>
      <trkpt lat="45.70388" lon="4.63907">
        <ele>595.665283</ele>
        <time>2016-09-25T08:05:19Z</time>
      </trkpt>
      <trkpt lat="45.70387" lon="4.63909">
        <ele>595.106323</ele>
        <time>2016-09-25T08:05:21Z</time>
      </trkpt>
      <trkpt lat="45.70385" lon="4.63911">
        <ele>594.62854</ele>
        <time>2016-09-25T08:05:23Z</time>
      </trkpt>
      <trkpt lat="45.70384" lon="4.63914">
        <ele>594.128601</ele>
        <time>2016-09-25T08:05:25Z</time>
      </trkpt>
      <trkpt lat="45.70384" lon="4.63918">
        <ele>593.621399</ele>
        <time>2016-09-25T08:05:27Z</time>
      </trkpt>
      <trkpt lat="45.70383" lon="4.6392">
        <ele>593.289001</ele>
        <time>2016-09-25T08:05:29Z</time>
      </trkpt>
      <trkpt lat="45.70382" lon="4.63924">
        <ele>592.94873</ele>
        <time>2016-09-25T08:05:31Z</time>
      </trkpt>
      <trkpt lat="45.7038" lon="4.63927">
        <ele>592.680908</ele>
        <time>2016-09-25T08:05:33Z</time>
      </trkpt>
      <trkpt lat="45.7038" lon="4.63931">
        <ele>592.485901</ele>
        <time>2016-09-25T08:05:35Z</time>
      </trkpt>
      <trkpt lat="45.7038" lon="4.63935">
        <ele>592.29071</ele>
        <time>2016-09-25T08:05:37Z</time>
      </trkpt>
      <trkpt lat="45.70379" lon="4.63938">
        <ele>592.18988</ele>
        <time>2016-09-25T08:05:39Z</time>
      </trkpt>
      <trkpt lat="45.70377" lon="4.63942">
        <ele>592.247498</ele>
        <time>2016-09-25T08:05:41Z</time>
      </trkpt>
      <trkpt lat="45.70377" lon="4.63945">
        <ele>592.382446</ele>
        <time>2016-09-25T08:05:43Z</time>
      </trkpt>
      <trkpt lat="45.70376" lon="4.63947">
        <ele>592.553406</ele>
        <time>2016-09-25T08:05:45Z</time>
      </trkpt>
      <trkpt lat="45.70375" lon="4.6395">
        <ele>592.744019</ele>
        <time>2016-09-25T08:05:47Z</time>
      </trkpt>
      <trkpt lat="45.70374" lon="4.63954">
        <ele>593.01355</ele>
        <time>2016-09-25T08:05:49Z</time>
      </trkpt>
      <trkpt lat="45.70373" lon="4.63958">
        <ele>593.193848</ele>
        <time>2016-09-25T08:05:51Z</time>
      </trkpt>
      <trkpt lat="45.70373" lon="4.63962">
        <ele>593.743713</ele>
        <time>2016-09-25T08:05:53Z</time>
      </trkpt>
      <trkpt lat="45.70373" lon="4.63966">
        <ele>594.205383</ele>
        <time>2016-09-25T08:05:55Z</time>
      </trkpt>
      <trkpt lat="45.70373" lon="4.6397">
        <ele>594.495972</ele>
        <time>2016-09-25T08:05:57Z</time>
      </trkpt>
      <trkpt lat="45.70372" lon="4.63974">
        <ele>594.861084</ele>
        <time>2016-09-25T08:05:59Z</time>
      </trkpt>
      <trkpt lat="45.70371" lon="4.63979">
        <ele>595.332336</ele>
        <time>2016-09-25T08:06:01Z</time>
      </trkpt>
      <trkpt lat="45.70371" lon="4.63983">
        <ele>595.856201</ele>
        <time>2016-09-25T08:06:03Z</time>
      </trkpt>
      <trkpt lat="45.7037" lon="4.63988">
        <ele>596.075317</ele>
        <time>2016-09-25T08:06:05Z</time>
      </trkpt>
      <trkpt lat="45.7037" lon="4.63993">
        <ele>596.546265</ele>
        <time>2016-09-25T08:06:07Z</time>
      </trkpt>
      <trkpt lat="45.70369" lon="4.63998">
        <ele>597.009644</ele>
        <time>2016-09-25T08:06:09Z</time>
      </trkpt>
      <trkpt lat="45.70367" lon="4.64006">
        <ele>597.235474</ele>
        <time>2016-09-25T08:06:13Z</time>
      </trkpt>
      <trkpt lat="45.70366" lon="4.64011">
        <ele>597.654419</ele>
        <time>2016-09-25T08:06:15Z</time>
      </trkpt>
      <trkpt lat="45.70365" lon="4.64015">
        <ele>598.136719</ele>
        <time>2016-09-25T08:06:17Z</time>
      </trkpt>
      <trkpt lat="45.70364" lon="4.64019">
        <ele>598.526611</ele>
        <time>2016-09-25T08:06:19Z</time>
      </trkpt>
      <trkpt lat="45.70364" lon="4.64024">
        <ele>598.976013</ele>
        <time>2016-09-25T08:06:21Z</time>
      </trkpt>
      <trkpt lat="45.70363" lon="4.64028">
        <ele>599.491272</ele>
        <time>2016-09-25T08:06:23Z</time>
      </trkpt>
      <trkpt lat="45.70363" lon="4.64033">
        <ele>599.844604</ele>
        <time>2016-09-25T08:06:25Z</time>
      </trkpt>
      <trkpt lat="45.70363" lon="4.64037">
        <ele>600.312622</ele>
        <time>2016-09-25T08:06:27Z</time>
      </trkpt>
      <trkpt lat="45.70362" lon="4.64042">
        <ele>600.634949</ele>
        <time>2016-09-25T08:06:29Z</time>
      </trkpt>
      <trkpt lat="45.70362" lon="4.64046">
        <ele>601.00177</ele>
        <time>2016-09-25T08:06:31Z</time>
      </trkpt>
      <trkpt lat="45.70362" lon="4.64051">
        <ele>601.203491</ele>
        <time>2016-09-25T08:06:33Z</time>
      </trkpt>
      <trkpt lat="45.70362" lon="4.64055">
        <ele>601.579468</ele>
        <time>2016-09-25T08:06:35Z</time>
      </trkpt>
      <trkpt lat="45.70361" lon="4.6406">
        <ele>601.927612</ele>
        <time>2016-09-25T08:06:37Z</time>
      </trkpt>
      <trkpt lat="45.70361" lon="4.64065">
        <ele>602.388367</ele>
        <time>2016-09-25T08:06:39Z</time>
      </trkpt>
      <trkpt lat="45.70361" lon="4.6407">
        <ele>602.683289</ele>
        <time>2016-09-25T08:06:41Z</time>
      </trkpt>
      <trkpt lat="45.7036" lon="4.64076">
        <ele>603.009949</ele>
        <time>2016-09-25T08:06:43Z</time>
      </trkpt>
      <trkpt lat="45.70358" lon="4.64081">
        <ele>603.304688</ele>
        <time>2016-09-25T08:06:45Z</time>
      </trkpt>
      <trkpt lat="45.70356" lon="4.64085">
        <ele>603.644653</ele>
        <time>2016-09-25T08:06:47Z</time>
      </trkpt>
      <trkpt lat="45.70353" lon="4.64089">
        <ele>603.910034</ele>
        <time>2016-09-25T08:06:49Z</time>
      </trkpt>
      <trkpt lat="45.7035" lon="4.64093">
        <ele>604.195679</ele>
        <time>2016-09-25T08:06:51Z</time>
      </trkpt>
      <trkpt lat="45.70348" lon="4.64097">
        <ele>604.588501</ele>
        <time>2016-09-25T08:06:53Z</time>
      </trkpt>
      <trkpt lat="45.70345" lon="4.64102">
        <ele>604.961548</ele>
        <time>2016-09-25T08:06:55Z</time>
      </trkpt>
      <trkpt lat="45.70342" lon="4.64105">
        <ele>605.286255</ele>
        <time>2016-09-25T08:06:57Z</time>
      </trkpt>
      <trkpt lat="45.70339" lon="4.64108">
        <ele>605.472778</ele>
        <time>2016-09-25T08:06:59Z</time>
      </trkpt>
      <trkpt lat="45.70335" lon="4.64111">
        <ele>605.889954</ele>
        <time>2016-09-25T08:07:01Z</time>
      </trkpt>
      <trkpt lat="45.70331" lon="4.64113">
        <ele>606.243225</ele>
        <time>2016-09-25T08:07:03Z</time>
      </trkpt>
      <trkpt lat="45.70327" lon="4.64115">
        <ele>606.69751</ele>
        <time>2016-09-25T08:07:05Z</time>
      </trkpt>
      <trkpt lat="45.70324" lon="4.64116">
        <ele>607.04071</ele>
        <time>2016-09-25T08:07:07Z</time>
      </trkpt>
      <trkpt lat="45.7032" lon="4.64118">
        <ele>607.227173</ele>
        <time>2016-09-25T08:07:09Z</time>
      </trkpt>
      <trkpt lat="45.70316" lon="4.6412">
        <ele>607.580444</ele>
        <time>2016-09-25T08:07:11Z</time>
      </trkpt>
      <trkpt lat="45.70312" lon="4.64119">
        <ele>607.890991</ele>
        <time>2016-09-25T08:07:13Z</time>
      </trkpt>
      <trkpt lat="45.70309" lon="4.64118">
        <ele>608.140259</ele>
        <time>2016-09-25T08:07:15Z</time>
      </trkpt>
      <trkpt lat="45.70306" lon="4.64115">
        <ele>608.473816</ele>
        <time>2016-09-25T08:07:17Z</time>
      </trkpt>
      <trkpt lat="45.70305" lon="4.64112">
        <ele>608.748169</ele>
        <time>2016-09-25T08:07:19Z</time>
      </trkpt>
      <trkpt lat="45.70303" lon="4.64108">
        <ele>609.06427</ele>
        <time>2016-09-25T08:07:21Z</time>
      </trkpt>
      <trkpt lat="45.70302" lon="4.64104">
        <ele>609.44397</ele>
        <time>2016-09-25T08:07:23Z</time>
      </trkpt>
      <trkpt lat="45.70301" lon="4.64101">
        <ele>609.880981</ele>
        <time>2016-09-25T08:07:25Z</time>
      </trkpt>
      <trkpt lat="45.70301" lon="4.64097">
        <ele>610.339722</ele>
        <time>2016-09-25T08:07:27Z</time>
      </trkpt>
      <trkpt lat="45.70302" lon="4.64093">
        <ele>610.816101</ele>
        <time>2016-09-25T08:07:29Z</time>
      </trkpt>
      <trkpt lat="45.70303" lon="4.64089">
        <ele>610.976257</ele>
        <time>2016-09-25T08:07:31Z</time>
      </trkpt>
      <trkpt lat="45.70304" lon="4.64086">
        <ele>611.402466</ele>
        <time>2016-09-25T08:07:33Z</time>
      </trkpt>
      <trkpt lat="45.70306" lon="4.64082">
        <ele>611.791016</ele>
        <time>2016-09-25T08:07:35Z</time>
      </trkpt>
      <trkpt lat="45.70307" lon="4.64079">
        <ele>612.088501</ele>
        <time>2016-09-25T08:07:37Z</time>
      </trkpt>
      <trkpt lat="45.70309" lon="4.64076">
        <ele>612.466125</ele>
        <time>2016-09-25T08:07:39Z</time>
      </trkpt>
      <trkpt lat="45.7031" lon="4.64072">
        <ele>612.889832</ele>
        <time>2016-09-25T08:07:41Z</time>
      </trkpt>
      <trkpt lat="45.70311" lon="4.64067">
        <ele>613.265442</ele>
        <time>2016-09-25T08:07:43Z</time>
      </trkpt>
      <trkpt lat="45.70313" lon="4.64061">
        <ele>613.805786</ele>
        <time>2016-09-25T08:07:45Z</time>
      </trkpt>
      <trkpt lat="45.70314" lon="4.64056">
        <ele>614.203247</ele>
        <time>2016-09-25T08:07:47Z</time>
      </trkpt>
      <trkpt lat="45.70314" lon="4.6405">
        <ele>614.598755</ele>
        <time>2016-09-25T08:07:49Z</time>
      </trkpt>
      <trkpt lat="45.70314" lon="4.64043">
        <ele>614.785339</ele>
        <time>2016-09-25T08:07:51Z</time>
      </trkpt>
      <trkpt lat="45.70315" lon="4.64036">
        <ele>615.131653</ele>
        <time>2016-09-25T08:07:53Z</time>
      </trkpt>
      <trkpt lat="45.70316" lon="4.64029">
        <ele>615.461548</ele>
        <time>2016-09-25T08:07:55Z</time>
      </trkpt>
      <trkpt lat="45.70316" lon="4.64023">
        <ele>615.823853</ele>
        <time>2016-09-25T08:07:57Z</time>
      </trkpt>
      <trkpt lat="45.70316" lon="4.64018">
        <ele>616.189697</ele>
        <time>2016-09-25T08:07:59Z</time>
      </trkpt>
      <trkpt lat="45.70316" lon="4.64011">
        <ele>616.500427</ele>
        <time>2016-09-25T08:08:01Z</time>
      </trkpt>
      <trkpt lat="45.70316" lon="4.64005">
        <ele>616.684937</ele>
        <time>2016-09-25T08:08:03Z</time>
      </trkpt>
      <trkpt lat="45.70316" lon="4.63999">
        <ele>617.000977</ele>
        <time>2016-09-25T08:08:05Z</time>
      </trkpt>
      <trkpt lat="45.70316" lon="4.63994">
        <ele>617.194214</ele>
        <time>2016-09-25T08:08:07Z</time>
      </trkpt>
      <trkpt lat="45.70316" lon="4.63988">
        <ele>617.376526</ele>
        <time>2016-09-25T08:08:09Z</time>
      </trkpt>
      <trkpt lat="45.70315" lon="4.63983">
        <ele>617.648926</ele>
        <time>2016-09-25T08:08:11Z</time>
      </trkpt>
      <trkpt lat="45.70314" lon="4.63977">
        <ele>617.962402</ele>
        <time>2016-09-25T08:08:13Z</time>
      </trkpt>
      <trkpt lat="45.70314" lon="4.63972">
        <ele>618.105164</ele>
        <time>2016-09-25T08:08:15Z</time>
      </trkpt>
      <trkpt lat="45.70311" lon="4.63966">
        <ele>618.16449</ele>
        <time>2016-09-25T08:08:17Z</time>
      </trkpt>
      <trkpt lat="45.70309" lon="4.6396">
        <ele>618.41272</ele>
        <time>2016-09-25T08:08:19Z</time>
      </trkpt>
      <trkpt lat="45.70306" lon="4.63956">
        <ele>618.647827</ele>
        <time>2016-09-25T08:08:21Z</time>
      </trkpt>
      <trkpt lat="45.70303" lon="4.63951">
        <ele>618.744507</ele>
        <time>2016-09-25T08:08:23Z</time>
      </trkpt>
      <trkpt lat="45.70299" lon="4.63946">
        <ele>618.766357</ele>
        <time>2016-09-25T08:08:25Z</time>
      </trkpt>
      <trkpt lat="45.70296" lon="4.63941">
        <ele>618.76416</ele>
        <time>2016-09-25T08:08:27Z</time>
      </trkpt>
      <trkpt lat="45.70293" lon="4.63936">
        <ele>618.900391</ele>
        <time>2016-09-25T08:08:29Z</time>
      </trkpt>
      <trkpt lat="45.7029" lon="4.63931">
        <ele>619.14502</ele>
        <time>2016-09-25T08:08:31Z</time>
      </trkpt>
      <trkpt lat="45.70287" lon="4.63926">
        <ele>619.463623</ele>
        <time>2016-09-25T08:08:33Z</time>
      </trkpt>
      <trkpt lat="45.70286" lon="4.63919">
        <ele>619.734497</ele>
        <time>2016-09-25T08:08:35Z</time>
      </trkpt>
      <trkpt lat="45.70285" lon="4.63912">
        <ele>619.993774</ele>
        <time>2016-09-25T08:08:37Z</time>
      </trkpt>
      <trkpt lat="45.70285" lon="4.63905">
        <ele>620.303589</ele>
        <time>2016-09-25T08:08:39Z</time>
      </trkpt>
      <trkpt lat="45.70284" lon="4.63899">
        <ele>620.567932</ele>
        <time>2016-09-25T08:08:41Z</time>
      </trkpt>
      <trkpt lat="45.70284" lon="4.63892">
        <ele>620.742554</ele>
        <time>2016-09-25T08:08:43Z</time>
      </trkpt>
      <trkpt lat="45.70283" lon="4.63886">
        <ele>620.896362</ele>
        <time>2016-09-25T08:08:45Z</time>
      </trkpt>
      <trkpt lat="45.70282" lon="4.6388">
        <ele>621.107544</ele>
        <time>2016-09-25T08:08:47Z</time>
      </trkpt>
      <trkpt lat="45.70278" lon="4.63871">
        <ele>623.634827</ele>
        <time>2016-09-25T08:09:55Z</time>
      </trkpt>
      <trkpt lat="45.70276" lon="4.63863">
        <ele>623.691956</ele>
        <time>2016-09-25T08:09:57Z</time>
      </trkpt>
      <trkpt lat="45.70271" lon="4.63848">
        <ele>623.70874</ele>
        <time>2016-09-25T08:09:59Z</time>
      </trkpt>
      <trkpt lat="45.70269" lon="4.63843">
        <ele>623.770264</ele>
        <time>2016-09-25T08:10:01Z</time>
      </trkpt>
      <trkpt lat="45.70267" lon="4.63838">
        <ele>623.831604</ele>
        <time>2016-09-25T08:10:03Z</time>
      </trkpt>
      <trkpt lat="45.70264" lon="4.63833">
        <ele>623.858032</ele>
        <time>2016-09-25T08:10:05Z</time>
      </trkpt>
      <trkpt lat="45.70261" lon="4.63828">
        <ele>623.981079</ele>
        <time>2016-09-25T08:10:07Z</time>
      </trkpt>
      <trkpt lat="45.70258" lon="4.63823">
        <ele>624.170166</ele>
        <time>2016-09-25T08:10:09Z</time>
      </trkpt>
      <trkpt lat="45.70256" lon="4.63819">
        <ele>624.23175</ele>
        <time>2016-09-25T08:10:11Z</time>
      </trkpt>
      <trkpt lat="45.70253" lon="4.63814">
        <ele>624.330688</ele>
        <time>2016-09-25T08:10:13Z</time>
      </trkpt>
      <trkpt lat="45.7025" lon="4.6381">
        <ele>624.425232</ele>
        <time>2016-09-25T08:10:15Z</time>
      </trkpt>
      <trkpt lat="45.70248" lon="4.63805">
        <ele>624.554932</ele>
        <time>2016-09-25T08:10:17Z</time>
      </trkpt>
      <trkpt lat="45.70245" lon="4.63801">
        <ele>624.697876</ele>
        <time>2016-09-25T08:10:19Z</time>
      </trkpt>
      <trkpt lat="45.70243" lon="4.63797">
        <ele>624.803345</ele>
        <time>2016-09-25T08:10:21Z</time>
      </trkpt>
      <trkpt lat="45.7024" lon="4.63793">
        <ele>625.111206</ele>
        <time>2016-09-25T08:10:23Z</time>
      </trkpt>
      <trkpt lat="45.70238" lon="4.63788">
        <ele>625.45636</ele>
        <time>2016-09-25T08:10:25Z</time>
      </trkpt>
      <trkpt lat="45.70235" lon="4.63784">
        <ele>625.557495</ele>
        <time>2016-09-25T08:10:27Z</time>
      </trkpt>
      <trkpt lat="45.70232" lon="4.6378">
        <ele>625.757751</ele>
        <time>2016-09-25T08:10:29Z</time>
      </trkpt>
      <trkpt lat="45.7023" lon="4.63776">
        <ele>625.992676</ele>
        <time>2016-09-25T08:10:31Z</time>
      </trkpt>
      <trkpt lat="45.70227" lon="4.63772">
        <ele>626.368774</ele>
        <time>2016-09-25T08:10:33Z</time>
      </trkpt>
      <trkpt lat="45.70225" lon="4.63769">
        <ele>626.804077</ele>
        <time>2016-09-25T08:10:35Z</time>
      </trkpt>
      <trkpt lat="45.70223" lon="4.63765">
        <ele>627.063477</ele>
        <time>2016-09-25T08:10:37Z</time>
      </trkpt>
      <trkpt lat="45.70221" lon="4.63761">
        <ele>627.375732</ele>
        <time>2016-09-25T08:10:39Z</time>
      </trkpt>
      <trkpt lat="45.70219" lon="4.63758">
        <ele>627.803101</ele>
        <time>2016-09-25T08:10:41Z</time>
      </trkpt>
      <trkpt lat="45.70218" lon="4.63754">
        <ele>628.125854</ele>
        <time>2016-09-25T08:10:43Z</time>
      </trkpt>
      <trkpt lat="45.70216" lon="4.63751">
        <ele>628.589905</ele>
        <time>2016-09-25T08:10:45Z</time>
      </trkpt>
      <trkpt lat="45.70215" lon="4.63748">
        <ele>628.947388</ele>
        <time>2016-09-25T08:10:47Z</time>
      </trkpt>
      <trkpt lat="45.70213" lon="4.63746">
        <ele>629.268433</ele>
        <time>2016-09-25T08:10:49Z</time>
      </trkpt>
      <trkpt lat="45.70212" lon="4.63744">
        <ele>629.622498</ele>
        <time>2016-09-25T08:10:51Z</time>
      </trkpt>
      <trkpt lat="45.7021" lon="4.63741">
        <ele>630.090942</ele>
        <time>2016-09-25T08:10:53Z</time>
      </trkpt>
      <trkpt lat="45.70209" lon="4.63739">
        <ele>630.524109</ele>
        <time>2016-09-25T08:10:55Z</time>
      </trkpt>
      <trkpt lat="45.70207" lon="4.63736">
        <ele>630.889221</ele>
        <time>2016-09-25T08:10:57Z</time>
      </trkpt>
      <trkpt lat="45.70205" lon="4.63734">
        <ele>631.124512</ele>
        <time>2016-09-25T08:10:59Z</time>
      </trkpt>
      <trkpt lat="45.70204" lon="4.63731">
        <ele>631.533569</ele>
        <time>2016-09-25T08:11:01Z</time>
      </trkpt>
      <trkpt lat="45.70203" lon="4.63729">
        <ele>632.041687</ele>
        <time>2016-09-25T08:11:03Z</time>
      </trkpt>
      <trkpt lat="45.70202" lon="4.63726">
        <ele>632.215454</ele>
        <time>2016-09-25T08:11:05Z</time>
      </trkpt>
      <trkpt lat="45.70201" lon="4.63724">
        <ele>632.573486</ele>
        <time>2016-09-25T08:11:07Z</time>
      </trkpt>
      <trkpt lat="45.702" lon="4.63721">
        <ele>633.037415</ele>
        <time>2016-09-25T08:11:09Z</time>
      </trkpt>
      <trkpt lat="45.70198" lon="4.63718">
        <ele>633.552185</ele>
        <time>2016-09-25T08:11:11Z</time>
      </trkpt>
      <trkpt lat="45.70197" lon="4.63716">
        <ele>633.860718</ele>
        <time>2016-09-25T08:11:13Z</time>
      </trkpt>
      <trkpt lat="45.70195" lon="4.63713">
        <ele>634.168762</ele>
        <time>2016-09-25T08:11:15Z</time>
      </trkpt>
      <trkpt lat="45.70194" lon="4.63711">
        <ele>634.64624</ele>
        <time>2016-09-25T08:11:17Z</time>
      </trkpt>
      <trkpt lat="45.70192" lon="4.63708">
        <ele>635.048828</ele>
        <time>2016-09-25T08:11:19Z</time>
      </trkpt>
      <trkpt lat="45.7019" lon="4.63706">
        <ele>635.497681</ele>
        <time>2016-09-25T08:11:21Z</time>
      </trkpt>
      <trkpt lat="45.70189" lon="4.63703">
        <ele>635.929077</ele>
        <time>2016-09-25T08:11:23Z</time>
      </trkpt>
      <trkpt lat="45.70187" lon="4.637">
        <ele>636.303894</ele>
        <time>2016-09-25T08:11:25Z</time>
      </trkpt>
      <trkpt lat="45.70186" lon="4.63697">
        <ele>636.716431</ele>
        <time>2016-09-25T08:11:27Z</time>
      </trkpt>
      <trkpt lat="45.70184" lon="4.63695">
        <ele>637.108154</ele>
        <time>2016-09-25T08:11:29Z</time>
      </trkpt>
      <trkpt lat="45.70183" lon="4.63692">
        <ele>637.337036</ele>
        <time>2016-09-25T08:11:31Z</time>
      </trkpt>
      <trkpt lat="45.70181" lon="4.63688">
        <ele>637.735413</ele>
        <time>2016-09-25T08:11:33Z</time>
      </trkpt>
      <trkpt lat="45.70179" lon="4.63686">
        <ele>638.105164</ele>
        <time>2016-09-25T08:11:35Z</time>
      </trkpt>
      <trkpt lat="45.70178" lon="4.63683">
        <ele>638.441956</ele>
        <time>2016-09-25T08:11:37Z</time>
      </trkpt>
      <trkpt lat="45.70176" lon="4.6368">
        <ele>638.959229</ele>
        <time>2016-09-25T08:11:39Z</time>
      </trkpt>
      <trkpt lat="45.70176" lon="4.63677">
        <ele>639.388489</ele>
        <time>2016-09-25T08:11:41Z</time>
      </trkpt>
      <trkpt lat="45.70174" lon="4.63673">
        <ele>639.800171</ele>
        <time>2016-09-25T08:11:43Z</time>
      </trkpt>
      <trkpt lat="45.70173" lon="4.6367">
        <ele>640.31958</ele>
        <time>2016-09-25T08:11:45Z</time>
      </trkpt>
      <trkpt lat="45.70171" lon="4.63666">
        <ele>640.629822</ele>
        <time>2016-09-25T08:11:47Z</time>
      </trkpt>
      <trkpt lat="45.7017" lon="4.63663">
        <ele>640.89093</ele>
        <time>2016-09-25T08:11:49Z</time>
      </trkpt>
      <trkpt lat="45.70168" lon="4.63659">
        <ele>641.194763</ele>
        <time>2016-09-25T08:11:51Z</time>
      </trkpt>
      <trkpt lat="45.70167" lon="4.63656">
        <ele>641.498596</ele>
        <time>2016-09-25T08:11:53Z</time>
      </trkpt>
      <trkpt lat="45.70166" lon="4.63653">
        <ele>641.940247</ele>
        <time>2016-09-25T08:11:55Z</time>
      </trkpt>
      <trkpt lat="45.70165" lon="4.6365">
        <ele>642.230896</ele>
        <time>2016-09-25T08:11:57Z</time>
      </trkpt>
      <trkpt lat="45.70165" lon="4.63646">
        <ele>642.486328</ele>
        <time>2016-09-25T08:11:59Z</time>
      </trkpt>
      <trkpt lat="45.70163" lon="4.63643">
        <ele>642.706482</ele>
        <time>2016-09-25T08:12:01Z</time>
      </trkpt>
      <trkpt lat="45.70162" lon="4.63639">
        <ele>643.029785</ele>
        <time>2016-09-25T08:12:03Z</time>
      </trkpt>
      <trkpt lat="45.7016" lon="4.63635">
        <ele>643.260986</ele>
        <time>2016-09-25T08:12:05Z</time>
      </trkpt>
      <trkpt lat="45.7016" lon="4.63632">
        <ele>643.646423</ele>
        <time>2016-09-25T08:12:07Z</time>
      </trkpt>
      <trkpt lat="45.70158" lon="4.63628">
        <ele>644.053833</ele>
        <time>2016-09-25T08:12:09Z</time>
      </trkpt>
      <trkpt lat="45.70158" lon="4.63623">
        <ele>644.318115</ele>
        <time>2016-09-25T08:12:11Z</time>
      </trkpt>
      <trkpt lat="45.70157" lon="4.63619">
        <ele>644.644104</ele>
        <time>2016-09-25T08:12:13Z</time>
      </trkpt>
      <trkpt lat="45.70156" lon="4.63615">
        <ele>644.925903</ele>
        <time>2016-09-25T08:12:15Z</time>
      </trkpt>
      <trkpt lat="45.70155" lon="4.63611">
        <ele>645.172546</ele>
        <time>2016-09-25T08:12:17Z</time>
      </trkpt>
      <trkpt lat="45.70154" lon="4.63607">
        <ele>645.533813</ele>
        <time>2016-09-25T08:12:19Z</time>
      </trkpt>
      <trkpt lat="45.70153" lon="4.63604">
        <ele>645.780396</ele>
        <time>2016-09-25T08:12:21Z</time>
      </trkpt>
      <trkpt lat="45.70152" lon="4.636">
        <ele>646.128479</ele>
        <time>2016-09-25T08:12:23Z</time>
      </trkpt>
      <trkpt lat="45.70152" lon="4.63596">
        <ele>646.421448</ele>
        <time>2016-09-25T08:12:25Z</time>
      </trkpt>
      <trkpt lat="45.70152" lon="4.63592">
        <ele>646.584473</ele>
        <time>2016-09-25T08:12:27Z</time>
      </trkpt>
      <trkpt lat="45.70151" lon="4.63588">
        <ele>646.917664</ele>
        <time>2016-09-25T08:12:29Z</time>
      </trkpt>
      <trkpt lat="45.70151" lon="4.63584">
        <ele>647.339355</ele>
        <time>2016-09-25T08:12:31Z</time>
      </trkpt>
      <trkpt lat="45.70152" lon="4.63579">
        <ele>647.675415</ele>
        <time>2016-09-25T08:12:33Z</time>
      </trkpt>
      <trkpt lat="45.70152" lon="4.63576">
        <ele>648.111633</ele>
        <time>2016-09-25T08:12:35Z</time>
      </trkpt>
      <trkpt lat="45.70151" lon="4.63571">
        <ele>648.438049</ele>
        <time>2016-09-25T08:12:37Z</time>
      </trkpt>
      <trkpt lat="45.70151" lon="4.63568">
        <ele>648.764099</ele>
        <time>2016-09-25T08:12:39Z</time>
      </trkpt>
      <trkpt lat="45.7015" lon="4.63564">
        <ele>649.213074</ele>
        <time>2016-09-25T08:12:41Z</time>
      </trkpt>
      <trkpt lat="45.7015" lon="4.63561">
        <ele>649.53302</ele>
        <time>2016-09-25T08:12:43Z</time>
      </trkpt>
      <trkpt lat="45.70148" lon="4.63554">
        <ele>651.179993</ele>
        <time>2016-09-25T08:12:53Z</time>
      </trkpt>
      <trkpt lat="45.70146" lon="4.6355">
        <ele>651.550354</ele>
        <time>2016-09-25T08:12:55Z</time>
      </trkpt>
      <trkpt lat="45.70146" lon="4.63547">
        <ele>651.717834</ele>
        <time>2016-09-25T08:12:57Z</time>
      </trkpt>
      <trkpt lat="45.70145" lon="4.63544">
        <ele>652.133423</ele>
        <time>2016-09-25T08:12:59Z</time>
      </trkpt>
      <trkpt lat="45.70145" lon="4.63542">
        <ele>652.413391</ele>
        <time>2016-09-25T08:13:01Z</time>
      </trkpt>
      <trkpt lat="45.70145" lon="4.63539">
        <ele>652.748352</ele>
        <time>2016-09-25T08:13:03Z</time>
      </trkpt>
      <trkpt lat="45.70145" lon="4.63536">
        <ele>653.006226</ele>
        <time>2016-09-25T08:13:05Z</time>
      </trkpt>
      <trkpt lat="45.70145" lon="4.63534">
        <ele>653.332458</ele>
        <time>2016-09-25T08:13:07Z</time>
      </trkpt>
      <trkpt lat="45.70144" lon="4.63532">
        <ele>653.661133</ele>
        <time>2016-09-25T08:13:09Z</time>
      </trkpt>
      <trkpt lat="45.70145" lon="4.63527">
        <ele>654.792969</ele>
        <time>2016-09-25T08:13:17Z</time>
      </trkpt>
      <trkpt lat="45.70145" lon="4.6352">
        <ele>655.547363</ele>
        <time>2016-09-25T08:13:25Z</time>
      </trkpt>
      <trkpt lat="45.70145" lon="4.63516">
        <ele>655.755371</ele>
        <time>2016-09-25T08:13:27Z</time>
      </trkpt>
      <trkpt lat="45.70145" lon="4.63513">
        <ele>655.918579</ele>
        <time>2016-09-25T08:13:29Z</time>
      </trkpt>
      <trkpt lat="45.70146" lon="4.63509">
        <ele>656.118408</ele>
        <time>2016-09-25T08:13:31Z</time>
      </trkpt>
      <trkpt lat="45.70147" lon="4.63506">
        <ele>656.369751</ele>
        <time>2016-09-25T08:13:33Z</time>
      </trkpt>
      <trkpt lat="45.70147" lon="4.63502">
        <ele>656.687378</ele>
        <time>2016-09-25T08:13:35Z</time>
      </trkpt>
      <trkpt lat="45.70147" lon="4.63498">
        <ele>656.923279</ele>
        <time>2016-09-25T08:13:37Z</time>
      </trkpt>
      <trkpt lat="45.70148" lon="4.63495">
        <ele>657.158081</ele>
        <time>2016-09-25T08:13:39Z</time>
      </trkpt>
      <trkpt lat="45.70149" lon="4.63492">
        <ele>657.537415</ele>
        <time>2016-09-25T08:13:41Z</time>
      </trkpt>
      <trkpt lat="45.7015" lon="4.63487">
        <ele>657.821899</ele>
        <time>2016-09-25T08:13:43Z</time>
      </trkpt>
      <trkpt lat="45.70151" lon="4.63483">
        <ele>658.207825</ele>
        <time>2016-09-25T08:13:45Z</time>
      </trkpt>
      <trkpt lat="45.70151" lon="4.6348">
        <ele>658.567322</ele>
        <time>2016-09-25T08:13:47Z</time>
      </trkpt>
      <trkpt lat="45.70152" lon="4.63477">
        <ele>658.940125</ele>
        <time>2016-09-25T08:13:49Z</time>
      </trkpt>
      <trkpt lat="45.70152" lon="4.63474">
        <ele>659.109985</ele>
        <time>2016-09-25T08:13:51Z</time>
      </trkpt>
      <trkpt lat="45.70153" lon="4.6347">
        <ele>659.403015</ele>
        <time>2016-09-25T08:13:53Z</time>
      </trkpt>
      <trkpt lat="45.70153" lon="4.63466">
        <ele>659.705261</ele>
        <time>2016-09-25T08:13:55Z</time>
      </trkpt>
      <trkpt lat="45.70154" lon="4.63462">
        <ele>659.983154</ele>
        <time>2016-09-25T08:13:57Z</time>
      </trkpt>
      <trkpt lat="45.70155" lon="4.63458">
        <ele>660.33606</ele>
        <time>2016-09-25T08:13:59Z</time>
      </trkpt>
      <trkpt lat="45.70157" lon="4.63455">
        <ele>660.722168</ele>
        <time>2016-09-25T08:14:01Z</time>
      </trkpt>
      <trkpt lat="45.70157" lon="4.63452">
        <ele>661.068726</ele>
        <time>2016-09-25T08:14:03Z</time>
      </trkpt>
      <trkpt lat="45.70158" lon="4.63449">
        <ele>661.539185</ele>
        <time>2016-09-25T08:14:05Z</time>
      </trkpt>
      <trkpt lat="45.70158" lon="4.63445">
        <ele>661.948608</ele>
        <time>2016-09-25T08:14:07Z</time>
      </trkpt>
      <trkpt lat="45.70158" lon="4.63442">
        <ele>662.369995</ele>
        <time>2016-09-25T08:14:09Z</time>
      </trkpt>
      <trkpt lat="45.70158" lon="4.63439">
        <ele>662.828857</ele>
        <time>2016-09-25T08:14:11Z</time>
      </trkpt>
      <trkpt lat="45.70159" lon="4.63436">
        <ele>663.195129</ele>
        <time>2016-09-25T08:14:13Z</time>
      </trkpt>
      <trkpt lat="45.7016" lon="4.63432">
        <ele>663.645264</ele>
        <time>2016-09-25T08:14:15Z</time>
      </trkpt>
      <trkpt lat="45.70161" lon="4.63429">
        <ele>664.013794</ele>
        <time>2016-09-25T08:14:17Z</time>
      </trkpt>
      <trkpt lat="45.70161" lon="4.63426">
        <ele>664.216736</ele>
        <time>2016-09-25T08:14:19Z</time>
      </trkpt>
      <trkpt lat="45.70161" lon="4.63423">
        <ele>664.717468</ele>
        <time>2016-09-25T08:14:21Z</time>
      </trkpt>
      <trkpt lat="45.7016" lon="4.63419">
        <ele>665.06842</ele>
        <time>2016-09-25T08:14:23Z</time>
      </trkpt>
      <trkpt lat="45.70159" lon="4.63417">
        <ele>665.412659</ele>
        <time>2016-09-25T08:14:25Z</time>
      </trkpt>
      <trkpt lat="45.70158" lon="4.63412">
        <ele>665.740845</ele>
        <time>2016-09-25T08:14:27Z</time>
      </trkpt>
      <trkpt lat="45.70158" lon="4.63408">
        <ele>666.098389</ele>
        <time>2016-09-25T08:14:29Z</time>
      </trkpt>
      <trkpt lat="45.70158" lon="4.63404">
        <ele>666.383667</ele>
        <time>2016-09-25T08:14:31Z</time>
      </trkpt>
      <trkpt lat="45.70158" lon="4.634">
        <ele>666.737244</ele>
        <time>2016-09-25T08:14:33Z</time>
      </trkpt>
      <trkpt lat="45.70158" lon="4.63395">
        <ele>667.126099</ele>
        <time>2016-09-25T08:14:35Z</time>
      </trkpt>
      <trkpt lat="45.70158" lon="4.63391">
        <ele>667.5896</ele>
        <time>2016-09-25T08:14:37Z</time>
      </trkpt>
      <trkpt lat="45.70158" lon="4.63386">
        <ele>668.006836</ele>
        <time>2016-09-25T08:14:39Z</time>
      </trkpt>
      <trkpt lat="45.70157" lon="4.63382">
        <ele>668.382141</ele>
        <time>2016-09-25T08:14:41Z</time>
      </trkpt>
      <trkpt lat="45.70157" lon="4.63379">
        <ele>668.828064</ele>
        <time>2016-09-25T08:14:43Z</time>
      </trkpt>
      <trkpt lat="45.70157" lon="4.63375">
        <ele>669.328979</ele>
        <time>2016-09-25T08:14:45Z</time>
      </trkpt>
      <trkpt lat="45.70157" lon="4.63371">
        <ele>669.783203</ele>
        <time>2016-09-25T08:14:47Z</time>
      </trkpt>
      <trkpt lat="45.70157" lon="4.63367">
        <ele>670.202698</ele>
        <time>2016-09-25T08:14:49Z</time>
      </trkpt>
      <trkpt lat="45.70157" lon="4.63363">
        <ele>670.425659</ele>
        <time>2016-09-25T08:14:51Z</time>
      </trkpt>
      <trkpt lat="45.70156" lon="4.63359">
        <ele>670.822693</ele>
        <time>2016-09-25T08:14:53Z</time>
      </trkpt>
      <trkpt lat="45.70156" lon="4.63354">
        <ele>671.251038</ele>
        <time>2016-09-25T08:14:55Z</time>
      </trkpt>
      <trkpt lat="45.70156" lon="4.6335">
        <ele>671.535889</ele>
        <time>2016-09-25T08:14:57Z</time>
      </trkpt>
      <trkpt lat="45.70157" lon="4.63346">
        <ele>671.909058</ele>
        <time>2016-09-25T08:14:59Z</time>
      </trkpt>
      <trkpt lat="45.70156" lon="4.63341">
        <ele>672.25354</ele>
        <time>2016-09-25T08:15:01Z</time>
      </trkpt>
      <trkpt lat="45.70157" lon="4.63337">
        <ele>672.637817</ele>
        <time>2016-09-25T08:15:03Z</time>
      </trkpt>
      <trkpt lat="45.70158" lon="4.63333">
        <ele>673.006653</ele>
        <time>2016-09-25T08:15:05Z</time>
      </trkpt>
      <trkpt lat="45.70159" lon="4.63329">
        <ele>673.402588</ele>
        <time>2016-09-25T08:15:07Z</time>
      </trkpt>
      <trkpt lat="45.70159" lon="4.63325">
        <ele>673.74939</ele>
        <time>2016-09-25T08:15:09Z</time>
      </trkpt>
      <trkpt lat="45.7016" lon="4.63321">
        <ele>674.175659</ele>
        <time>2016-09-25T08:15:11Z</time>
      </trkpt>
      <trkpt lat="45.70159" lon="4.63317">
        <ele>674.56604</ele>
        <time>2016-09-25T08:15:13Z</time>
      </trkpt>
      <trkpt lat="45.70158" lon="4.63312">
        <ele>674.930054</ele>
        <time>2016-09-25T08:15:15Z</time>
      </trkpt>
      <trkpt lat="45.70157" lon="4.63306">
        <ele>675.250366</ele>
        <time>2016-09-25T08:15:17Z</time>
      </trkpt>
      <trkpt lat="45.70158" lon="4.633">
        <ele>675.650208</ele>
        <time>2016-09-25T08:15:19Z</time>
      </trkpt>
      <trkpt lat="45.70158" lon="4.63295">
        <ele>675.888794</ele>
        <time>2016-09-25T08:15:21Z</time>
      </trkpt>
      <trkpt lat="45.70158" lon="4.6329">
        <ele>676.11853</ele>
        <time>2016-09-25T08:15:23Z</time>
      </trkpt>
      <trkpt lat="45.70157" lon="4.63286">
        <ele>676.388794</ele>
        <time>2016-09-25T08:15:25Z</time>
      </trkpt>
      <trkpt lat="45.70156" lon="4.63282">
        <ele>676.627319</ele>
        <time>2016-09-25T08:15:27Z</time>
      </trkpt>
      <trkpt lat="45.70155" lon="4.63278">
        <ele>676.956543</ele>
        <time>2016-09-25T08:15:29Z</time>
      </trkpt>
      <trkpt lat="45.70155" lon="4.63273">
        <ele>677.232727</ele>
        <time>2016-09-25T08:15:31Z</time>
      </trkpt>
      <trkpt lat="45.70155" lon="4.63268">
        <ele>677.56897</ele>
        <time>2016-09-25T08:15:33Z</time>
      </trkpt>
      <trkpt lat="45.70155" lon="4.63263">
        <ele>677.88269</ele>
        <time>2016-09-25T08:15:35Z</time>
      </trkpt>
      <trkpt lat="45.70153" lon="4.63255">
        <ele>680.200806</ele>
        <time>2016-09-25T08:16:44Z</time>
      </trkpt>
      <trkpt lat="45.70153" lon="4.63247">
        <ele>680.081482</ele>
        <time>2016-09-25T08:16:46Z</time>
      </trkpt>
      <trkpt lat="45.70155" lon="4.63231">
        <ele>680.103577</ele>
        <time>2016-09-25T08:16:48Z</time>
      </trkpt>
      <trkpt lat="45.70157" lon="4.63223">
        <ele>680.110229</ele>
        <time>2016-09-25T08:16:50Z</time>
      </trkpt>
      <trkpt lat="45.70159" lon="4.63216">
        <ele>680.085876</ele>
        <time>2016-09-25T08:16:52Z</time>
      </trkpt>
      <trkpt lat="45.70162" lon="4.63209">
        <ele>680.013</ele>
        <time>2016-09-25T08:16:54Z</time>
      </trkpt>
      <trkpt lat="45.70165" lon="4.63204">
        <ele>679.938049</ele>
        <time>2016-09-25T08:16:56Z</time>
      </trkpt>
      <trkpt lat="45.70167" lon="4.632">
        <ele>679.985962</ele>
        <time>2016-09-25T08:16:58Z</time>
      </trkpt>
      <trkpt lat="45.70171" lon="4.63194">
        <ele>680.033875</ele>
        <time>2016-09-25T08:17:00Z</time>
      </trkpt>
      <trkpt lat="45.70175" lon="4.63186">
        <ele>680.006226</ele>
        <time>2016-09-25T08:17:02Z</time>
      </trkpt>
      <trkpt lat="45.70179" lon="4.63174">
        <ele>679.966492</ele>
        <time>2016-09-25T08:17:04Z</time>
      </trkpt>
      <trkpt lat="45.70186" lon="4.63162">
        <ele>679.999695</ele>
        <time>2016-09-25T08:17:06Z</time>
      </trkpt>
      <trkpt lat="45.70194" lon="4.6315">
        <ele>679.907104</ele>
        <time>2016-09-25T08:17:08Z</time>
      </trkpt>
      <trkpt lat="45.70203" lon="4.6314">
        <ele>679.562622</ele>
        <time>2016-09-25T08:17:10Z</time>
      </trkpt>
      <trkpt lat="45.70211" lon="4.63128">
        <ele>679.22467</ele>
        <time>2016-09-25T08:17:12Z</time>
      </trkpt>
      <trkpt lat="45.70219" lon="4.63113">
        <ele>679.057007</ele>
        <time>2016-09-25T08:17:14Z</time>
      </trkpt>
      <trkpt lat="45.70228" lon="4.63099">
        <ele>678.805298</ele>
        <time>2016-09-25T08:17:16Z</time>
      </trkpt>
      <trkpt lat="45.70238" lon="4.63084">
        <ele>678.290649</ele>
        <time>2016-09-25T08:17:18Z</time>
      </trkpt>
      <trkpt lat="45.70247" lon="4.63067">
        <ele>677.599426</ele>
        <time>2016-09-25T08:17:20Z</time>
      </trkpt>
      <trkpt lat="45.70249" lon="4.6305">
        <ele>677.104553</ele>
        <time>2016-09-25T08:17:22Z</time>
      </trkpt>
      <trkpt lat="45.70253" lon="4.63034">
        <ele>676.548523</ele>
        <time>2016-09-25T08:17:24Z</time>
      </trkpt>
      <trkpt lat="45.70256" lon="4.63019">
        <ele>676.055908</ele>
        <time>2016-09-25T08:17:26Z</time>
      </trkpt>
      <trkpt lat="45.7026" lon="4.63005">
        <ele>675.378052</ele>
        <time>2016-09-25T08:17:28Z</time>
      </trkpt>
      <trkpt lat="45.70266" lon="4.6299">
        <ele>674.671326</ele>
        <time>2016-09-25T08:17:30Z</time>
      </trkpt>
      <trkpt lat="45.70272" lon="4.62975">
        <ele>674.030762</ele>
        <time>2016-09-25T08:17:32Z</time>
      </trkpt>
      <trkpt lat="45.70277" lon="4.6296">
        <ele>673.931274</ele>
        <time>2016-09-25T08:17:34Z</time>
      </trkpt>
      <trkpt lat="45.70284" lon="4.62945">
        <ele>673.613403</ele>
        <time>2016-09-25T08:17:36Z</time>
      </trkpt>
      <trkpt lat="45.70289" lon="4.62929">
        <ele>672.847046</ele>
        <time>2016-09-25T08:17:38Z</time>
      </trkpt>
      <trkpt lat="45.70297" lon="4.62912">
        <ele>672.423096</ele>
        <time>2016-09-25T08:17:40Z</time>
      </trkpt>
      <trkpt lat="45.70303" lon="4.62896">
        <ele>671.523132</ele>
        <time>2016-09-25T08:17:42Z</time>
      </trkpt>
      <trkpt lat="45.70306" lon="4.62877">
        <ele>671.087952</ele>
        <time>2016-09-25T08:17:44Z</time>
      </trkpt>
      <trkpt lat="45.70305" lon="4.62858">
        <ele>670.49231</ele>
        <time>2016-09-25T08:17:46Z</time>
      </trkpt>
      <trkpt lat="45.70305" lon="4.62841">
        <ele>669.593628</ele>
        <time>2016-09-25T08:17:48Z</time>
      </trkpt>
      <trkpt lat="45.70304" lon="4.62828">
        <ele>668.616577</ele>
        <time>2016-09-25T08:17:50Z</time>
      </trkpt>
      <trkpt lat="45.70303" lon="4.62817">
        <ele>668.084534</ele>
        <time>2016-09-25T08:17:52Z</time>
      </trkpt>
      <trkpt lat="45.70302" lon="4.62806">
        <ele>667.620117</ele>
        <time>2016-09-25T08:17:54Z</time>
      </trkpt>
      <trkpt lat="45.70303" lon="4.6279">
        <ele>666.800903</ele>
        <time>2016-09-25T08:17:56Z</time>
      </trkpt>
      <trkpt lat="45.70307" lon="4.62774">
        <ele>665.337402</ele>
        <time>2016-09-25T08:17:58Z</time>
      </trkpt>
      <trkpt lat="45.70313" lon="4.62757">
        <ele>664.461731</ele>
        <time>2016-09-25T08:18:00Z</time>
      </trkpt>
      <trkpt lat="45.70318" lon="4.6274">
        <ele>663.685242</ele>
        <time>2016-09-25T08:18:02Z</time>
      </trkpt>
      <trkpt lat="45.70322" lon="4.62724">
        <ele>663.601379</ele>
        <time>2016-09-25T08:18:04Z</time>
      </trkpt>
      <trkpt lat="45.70326" lon="4.62705">
        <ele>662.843811</ele>
        <time>2016-09-25T08:18:06Z</time>
      </trkpt>
      <trkpt lat="45.7033" lon="4.62686">
        <ele>662.166504</ele>
        <time>2016-09-25T08:18:08Z</time>
      </trkpt>
      <trkpt lat="45.70333" lon="4.62667">
        <ele>661.575317</ele>
        <time>2016-09-25T08:18:10Z</time>
      </trkpt>
      <trkpt lat="45.70337" lon="4.62648">
        <ele>660.915833</ele>
        <time>2016-09-25T08:18:12Z</time>
      </trkpt>
      <trkpt lat="45.70341" lon="4.62629">
        <ele>659.951965</ele>
        <time>2016-09-25T08:18:14Z</time>
      </trkpt>
      <trkpt lat="45.70343" lon="4.62611">
        <ele>658.764832</ele>
        <time>2016-09-25T08:18:16Z</time>
      </trkpt>
      <trkpt lat="45.70346" lon="4.62598">
        <ele>657.762817</ele>
        <time>2016-09-25T08:18:18Z</time>
      </trkpt>
      <trkpt lat="45.7035" lon="4.62593">
        <ele>657.246704</ele>
        <time>2016-09-25T08:18:20Z</time>
      </trkpt>
      <trkpt lat="45.70353" lon="4.62588">
        <ele>656.730347</ele>
        <time>2016-09-25T08:18:22Z</time>
      </trkpt>
      <trkpt lat="45.70357" lon="4.62581">
        <ele>656.542969</ele>
        <time>2016-09-25T08:18:24Z</time>
      </trkpt>
      <trkpt lat="45.70361" lon="4.62573">
        <ele>655.816589</ele>
        <time>2016-09-25T08:18:26Z</time>
      </trkpt>
      <trkpt lat="45.70365" lon="4.62565">
        <ele>655.094604</ele>
        <time>2016-09-25T08:18:28Z</time>
      </trkpt>
      <trkpt lat="45.70371" lon="4.62556">
        <ele>654.411011</ele>
        <time>2016-09-25T08:18:30Z</time>
      </trkpt>
      <trkpt lat="45.70375" lon="4.62549">
        <ele>654.270325</ele>
        <time>2016-09-25T08:18:32Z</time>
      </trkpt>
      <trkpt lat="45.70379" lon="4.62541">
        <ele>654.043091</ele>
        <time>2016-09-25T08:18:34Z</time>
      </trkpt>
      <trkpt lat="45.70383" lon="4.62534">
        <ele>653.714355</ele>
        <time>2016-09-25T08:18:36Z</time>
      </trkpt>
      <trkpt lat="45.70387" lon="4.62527">
        <ele>653.566101</ele>
        <time>2016-09-25T08:18:38Z</time>
      </trkpt>
      <trkpt lat="45.70389" lon="4.6252">
        <ele>654.351868</ele>
        <time>2016-09-25T08:18:40Z</time>
      </trkpt>
      <trkpt lat="45.70392" lon="4.62512">
        <ele>654.685364</ele>
        <time>2016-09-25T08:18:42Z</time>
      </trkpt>
      <trkpt lat="45.70393" lon="4.62505">
        <ele>655.013794</ele>
        <time>2016-09-25T08:18:44Z</time>
      </trkpt>
      <trkpt lat="45.70395" lon="4.62497">
        <ele>654.934387</ele>
        <time>2016-09-25T08:18:46Z</time>
      </trkpt>
      <trkpt lat="45.70396" lon="4.6249">
        <ele>655.311401</ele>
        <time>2016-09-25T08:18:48Z</time>
      </trkpt>
      <trkpt lat="45.70397" lon="4.62482">
        <ele>655.505493</ele>
        <time>2016-09-25T08:18:50Z</time>
      </trkpt>
      <trkpt lat="45.70398" lon="4.62474">
        <ele>655.922241</ele>
        <time>2016-09-25T08:18:52Z</time>
      </trkpt>
      <trkpt lat="45.70399" lon="4.62466">
        <ele>656.030273</ele>
        <time>2016-09-25T08:18:54Z</time>
      </trkpt>
      <trkpt lat="45.704" lon="4.62457">
        <ele>656.526245</ele>
        <time>2016-09-25T08:18:56Z</time>
      </trkpt>
      <trkpt lat="45.70401" lon="4.62449">
        <ele>656.896606</ele>
        <time>2016-09-25T08:18:58Z</time>
      </trkpt>
      <trkpt lat="45.70402" lon="4.62441">
        <ele>657.233948</ele>
        <time>2016-09-25T08:19:00Z</time>
      </trkpt>
      <trkpt lat="45.70403" lon="4.62432">
        <ele>657.518433</ele>
        <time>2016-09-25T08:19:02Z</time>
      </trkpt>
      <trkpt lat="45.70404" lon="4.62423">
        <ele>657.826355</ele>
        <time>2016-09-25T08:19:04Z</time>
      </trkpt>
      <trkpt lat="45.70405" lon="4.62415">
        <ele>658.144714</ele>
        <time>2016-09-25T08:19:06Z</time>
      </trkpt>
      <trkpt lat="45.70407" lon="4.62406">
        <ele>658.481384</ele>
        <time>2016-09-25T08:19:08Z</time>
      </trkpt>
      <trkpt lat="45.70408" lon="4.62397">
        <ele>659.008301</ele>
        <time>2016-09-25T08:19:10Z</time>
      </trkpt>
      <trkpt lat="45.70409" lon="4.62389">
        <ele>659.354553</ele>
        <time>2016-09-25T08:19:12Z</time>
      </trkpt>
      <trkpt lat="45.70409" lon="4.62381">
        <ele>659.579468</ele>
        <time>2016-09-25T08:19:14Z</time>
      </trkpt>
      <trkpt lat="45.70411" lon="4.62373">
        <ele>659.674316</ele>
        <time>2016-09-25T08:19:16Z</time>
      </trkpt>
      <trkpt lat="45.70412" lon="4.62365">
        <ele>660.011719</ele>
        <time>2016-09-25T08:19:18Z</time>
      </trkpt>
      <trkpt lat="45.70414" lon="4.62357">
        <ele>660.294556</ele>
        <time>2016-09-25T08:19:20Z</time>
      </trkpt>
      <trkpt lat="45.70415" lon="4.62349">
        <ele>660.575073</ele>
        <time>2016-09-25T08:19:22Z</time>
      </trkpt>
      <trkpt lat="45.70416" lon="4.62341">
        <ele>660.828796</ele>
        <time>2016-09-25T08:19:24Z</time>
      </trkpt>
      <trkpt lat="45.70417" lon="4.62334">
        <ele>661.130981</ele>
        <time>2016-09-25T08:19:26Z</time>
      </trkpt>
      <trkpt lat="45.70419" lon="4.62327">
        <ele>661.37146</ele>
        <time>2016-09-25T08:19:28Z</time>
      </trkpt>
      <trkpt lat="45.70421" lon="4.6232">
        <ele>661.667114</ele>
        <time>2016-09-25T08:19:30Z</time>
      </trkpt>
      <trkpt lat="45.70423" lon="4.62312">
        <ele>661.894348</ele>
        <time>2016-09-25T08:19:32Z</time>
      </trkpt>
      <trkpt lat="45.70424" lon="4.62305">
        <ele>662.058716</ele>
        <time>2016-09-25T08:19:34Z</time>
      </trkpt>
      <trkpt lat="45.70425" lon="4.62298">
        <ele>662.433777</ele>
        <time>2016-09-25T08:19:36Z</time>
      </trkpt>
      <trkpt lat="45.70427" lon="4.62291">
        <ele>662.58606</ele>
        <time>2016-09-25T08:19:38Z</time>
      </trkpt>
      <trkpt lat="45.7043" lon="4.62285">
        <ele>662.881226</ele>
        <time>2016-09-25T08:19:40Z</time>
      </trkpt>
      <trkpt lat="45.70432" lon="4.62277">
        <ele>663.190186</ele>
        <time>2016-09-25T08:19:42Z</time>
      </trkpt>
      <trkpt lat="45.70435" lon="4.6227">
        <ele>663.596191</ele>
        <time>2016-09-25T08:19:44Z</time>
      </trkpt>
      <trkpt lat="45.70438" lon="4.62262">
        <ele>663.958862</ele>
        <time>2016-09-25T08:19:46Z</time>
      </trkpt>
      <trkpt lat="45.70441" lon="4.62254">
        <ele>664.198853</ele>
        <time>2016-09-25T08:19:48Z</time>
      </trkpt>
      <trkpt lat="45.70445" lon="4.62247">
        <ele>664.546021</ele>
        <time>2016-09-25T08:19:50Z</time>
      </trkpt>
      <trkpt lat="45.70448" lon="4.62239">
        <ele>664.782104</ele>
        <time>2016-09-25T08:19:52Z</time>
      </trkpt>
      <trkpt lat="45.70451" lon="4.62232">
        <ele>665.054077</ele>
        <time>2016-09-25T08:19:54Z</time>
      </trkpt>
      <trkpt lat="45.70454" lon="4.62224">
        <ele>665.40271</ele>
        <time>2016-09-25T08:19:56Z</time>
      </trkpt>
      <trkpt lat="45.70457" lon="4.62217">
        <ele>665.652161</ele>
        <time>2016-09-25T08:19:58Z</time>
      </trkpt>
      <trkpt lat="45.70459" lon="4.62209">
        <ele>665.786804</ele>
        <time>2016-09-25T08:20:00Z</time>
      </trkpt>
      <trkpt lat="45.70462" lon="4.62201">
        <ele>666.000854</ele>
        <time>2016-09-25T08:20:02Z</time>
      </trkpt>
      <trkpt lat="45.70465" lon="4.62194">
        <ele>666.274536</ele>
        <time>2016-09-25T08:20:04Z</time>
      </trkpt>
      <trkpt lat="45.70468" lon="4.62187">
        <ele>666.501221</ele>
        <time>2016-09-25T08:20:06Z</time>
      </trkpt>
      <trkpt lat="45.7047" lon="4.62179">
        <ele>666.585083</ele>
        <time>2016-09-25T08:20:08Z</time>
      </trkpt>
      <trkpt lat="45.70473" lon="4.62172">
        <ele>666.735168</ele>
        <time>2016-09-25T08:20:10Z</time>
      </trkpt>
      <trkpt lat="45.70475" lon="4.62165">
        <ele>666.955933</ele>
        <time>2016-09-25T08:20:12Z</time>
      </trkpt>
      <trkpt lat="45.70478" lon="4.62157">
        <ele>667.134644</ele>
        <time>2016-09-25T08:20:14Z</time>
      </trkpt>
      <trkpt lat="45.7048" lon="4.62148">
        <ele>667.41394</ele>
        <time>2016-09-25T08:20:16Z</time>
      </trkpt>
      <trkpt lat="45.70483" lon="4.62138">
        <ele>667.583923</ele>
        <time>2016-09-25T08:20:18Z</time>
      </trkpt>
      <trkpt lat="45.70487" lon="4.62128">
        <ele>667.908447</ele>
        <time>2016-09-25T08:20:20Z</time>
      </trkpt>
      <trkpt lat="45.70491" lon="4.62117">
        <ele>668.107483</ele>
        <time>2016-09-25T08:20:22Z</time>
      </trkpt>
      <trkpt lat="45.70495" lon="4.62107">
        <ele>668.226685</ele>
        <time>2016-09-25T08:20:24Z</time>
      </trkpt>
      <trkpt lat="45.70498" lon="4.62097">
        <ele>668.403442</ele>
        <time>2016-09-25T08:20:26Z</time>
      </trkpt>
      <trkpt lat="45.70501" lon="4.62087">
        <ele>668.493896</ele>
        <time>2016-09-25T08:20:28Z</time>
      </trkpt>
      <trkpt lat="45.70504" lon="4.62076">
        <ele>668.647766</ele>
        <time>2016-09-25T08:20:30Z</time>
      </trkpt>
      <trkpt lat="45.70507" lon="4.62066">
        <ele>668.760315</ele>
        <time>2016-09-25T08:20:32Z</time>
      </trkpt>
      <trkpt lat="45.70509" lon="4.62054">
        <ele>668.837585</ele>
        <time>2016-09-25T08:20:34Z</time>
      </trkpt>
      <trkpt lat="45.70512" lon="4.62043">
        <ele>668.901062</ele>
        <time>2016-09-25T08:20:36Z</time>
      </trkpt>
      <trkpt lat="45.70515" lon="4.6203">
        <ele>669.026917</ele>
        <time>2016-09-25T08:20:38Z</time>
      </trkpt>
      <trkpt lat="45.70518" lon="4.62016">
        <ele>669.132874</ele>
        <time>2016-09-25T08:20:40Z</time>
      </trkpt>
      <trkpt lat="45.7052" lon="4.62003">
        <ele>669.223328</ele>
        <time>2016-09-25T08:20:42Z</time>
      </trkpt>
      <trkpt lat="45.70522" lon="4.61989">
        <ele>669.265259</ele>
        <time>2016-09-25T08:20:44Z</time>
      </trkpt>
      <trkpt lat="45.70524" lon="4.61974">
        <ele>669.208618</ele>
        <time>2016-09-25T08:20:46Z</time>
      </trkpt>
      <trkpt lat="45.70524" lon="4.61959">
        <ele>669.217651</ele>
        <time>2016-09-25T08:20:48Z</time>
      </trkpt>
      <trkpt lat="45.70525" lon="4.61944">
        <ele>669.219971</ele>
        <time>2016-09-25T08:20:50Z</time>
      </trkpt>
      <trkpt lat="45.70525" lon="4.61928">
        <ele>669.161011</ele>
        <time>2016-09-25T08:20:52Z</time>
      </trkpt>
      <trkpt lat="45.70524" lon="4.61913">
        <ele>669.140198</ele>
        <time>2016-09-25T08:20:54Z</time>
      </trkpt>
      <trkpt lat="45.70524" lon="4.61899">
        <ele>669.038635</ele>
        <time>2016-09-25T08:20:56Z</time>
      </trkpt>
      <trkpt lat="45.70524" lon="4.61885">
        <ele>668.910522</ele>
        <time>2016-09-25T08:20:58Z</time>
      </trkpt>
      <trkpt lat="45.70526" lon="4.61872">
        <ele>668.817993</ele>
        <time>2016-09-25T08:21:00Z</time>
      </trkpt>
      <trkpt lat="45.70529" lon="4.6186">
        <ele>668.693604</ele>
        <time>2016-09-25T08:21:02Z</time>
      </trkpt>
      <trkpt lat="45.70532" lon="4.61846">
        <ele>668.742126</ele>
        <time>2016-09-25T08:21:04Z</time>
      </trkpt>
      <trkpt lat="45.70532" lon="4.61832">
        <ele>668.667114</ele>
        <time>2016-09-25T08:21:06Z</time>
      </trkpt>
      <trkpt lat="45.70529" lon="4.61824">
        <ele>668.693481</ele>
        <time>2016-09-25T08:21:08Z</time>
      </trkpt>
      <trkpt lat="45.70527" lon="4.61819">
        <ele>668.786194</ele>
        <time>2016-09-25T08:21:10Z</time>
      </trkpt>
      <trkpt lat="45.70524" lon="4.61815">
        <ele>668.788025</ele>
        <time>2016-09-25T08:21:12Z</time>
      </trkpt>
      <trkpt lat="45.70522" lon="4.61811">
        <ele>668.88739</ele>
        <time>2016-09-25T08:21:14Z</time>
      </trkpt>
      <trkpt lat="45.70522" lon="4.61807">
        <ele>669.108215</ele>
        <time>2016-09-25T08:21:16Z</time>
      </trkpt>
      <trkpt lat="45.70521" lon="4.61804">
        <ele>669.292786</ele>
        <time>2016-09-25T08:21:18Z</time>
      </trkpt>
      <trkpt lat="45.70521" lon="4.618">
        <ele>669.405396</ele>
        <time>2016-09-25T08:21:20Z</time>
      </trkpt>
      <trkpt lat="45.70521" lon="4.61796">
        <ele>669.63501</ele>
        <time>2016-09-25T08:21:22Z</time>
      </trkpt>
      <trkpt lat="45.70521" lon="4.61792">
        <ele>669.902222</ele>
        <time>2016-09-25T08:21:24Z</time>
      </trkpt>
      <trkpt lat="45.7052" lon="4.61788">
        <ele>670.147034</ele>
        <time>2016-09-25T08:21:26Z</time>
      </trkpt>
      <trkpt lat="45.7052" lon="4.61784">
        <ele>670.482422</ele>
        <time>2016-09-25T08:21:28Z</time>
      </trkpt>
      <trkpt lat="45.7052" lon="4.61781">
        <ele>670.826965</ele>
        <time>2016-09-25T08:21:30Z</time>
      </trkpt>
      <trkpt lat="45.70519" lon="4.61778">
        <ele>671.021179</ele>
        <time>2016-09-25T08:21:32Z</time>
      </trkpt>
      <trkpt lat="45.70519" lon="4.61774">
        <ele>671.31897</ele>
        <time>2016-09-25T08:21:34Z</time>
      </trkpt>
      <trkpt lat="45.70517" lon="4.61771">
        <ele>671.716248</ele>
        <time>2016-09-25T08:21:36Z</time>
      </trkpt>
      <trkpt lat="45.70516" lon="4.61767">
        <ele>672.180054</ele>
        <time>2016-09-25T08:21:38Z</time>
      </trkpt>
      <trkpt lat="45.70515" lon="4.61765">
        <ele>672.600952</ele>
        <time>2016-09-25T08:21:40Z</time>
      </trkpt>
      <trkpt lat="45.70514" lon="4.61762">
        <ele>673.046936</ele>
        <time>2016-09-25T08:21:42Z</time>
      </trkpt>
      <trkpt lat="45.70511" lon="4.61759">
        <ele>673.520325</ele>
        <time>2016-09-25T08:21:44Z</time>
      </trkpt>
      <trkpt lat="45.70509" lon="4.61757">
        <ele>673.886902</ele>
        <time>2016-09-25T08:21:46Z</time>
      </trkpt>
      <trkpt lat="45.70507" lon="4.61756">
        <ele>674.235901</ele>
        <time>2016-09-25T08:21:48Z</time>
      </trkpt>
      <trkpt lat="45.70505" lon="4.61755">
        <ele>674.701965</ele>
        <time>2016-09-25T08:21:50Z</time>
      </trkpt>
      <trkpt lat="45.70503" lon="4.61753">
        <ele>675.202271</ele>
        <time>2016-09-25T08:21:52Z</time>
      </trkpt>
      <trkpt lat="45.70501" lon="4.61752">
        <ele>675.727905</ele>
        <time>2016-09-25T08:21:54Z</time>
      </trkpt>
      <trkpt lat="45.70499" lon="4.61751">
        <ele>676.198547</ele>
        <time>2016-09-25T08:21:56Z</time>
      </trkpt>
      <trkpt lat="45.70497" lon="4.6175">
        <ele>676.820374</ele>
        <time>2016-09-25T08:21:58Z</time>
      </trkpt>
      <trkpt lat="45.70496" lon="4.61749">
        <ele>677.195923</ele>
        <time>2016-09-25T08:22:00Z</time>
      </trkpt>
      <trkpt lat="45.70495" lon="4.61747">
        <ele>677.441895</ele>
        <time>2016-09-25T08:22:02Z</time>
      </trkpt>
      <trkpt lat="45.70494" lon="4.61745">
        <ele>677.842407</ele>
        <time>2016-09-25T08:22:04Z</time>
      </trkpt>
      <trkpt lat="45.70494" lon="4.61742">
        <ele>678.231323</ele>
        <time>2016-09-25T08:22:06Z</time>
      </trkpt>
      <trkpt lat="45.70496" lon="4.61735">
        <ele>678.692749</ele>
        <time>2016-09-25T08:22:08Z</time>
      </trkpt>
      <trkpt lat="45.70499" lon="4.61725">
        <ele>679.097168</ele>
        <time>2016-09-25T08:22:10Z</time>
      </trkpt>
      <trkpt lat="45.70504" lon="4.61715">
        <ele>679.282776</ele>
        <time>2016-09-25T08:22:12Z</time>
      </trkpt>
      <trkpt lat="45.70508" lon="4.61704">
        <ele>679.485657</ele>
        <time>2016-09-25T08:22:14Z</time>
      </trkpt>
      <trkpt lat="45.70512" lon="4.61695">
        <ele>679.828186</ele>
        <time>2016-09-25T08:22:16Z</time>
      </trkpt>
      <trkpt lat="45.70515" lon="4.61687">
        <ele>680.028198</ele>
        <time>2016-09-25T08:22:18Z</time>
      </trkpt>
      <trkpt lat="45.70516" lon="4.6168">
        <ele>680.272705</ele>
        <time>2016-09-25T08:22:20Z</time>
      </trkpt>
      <trkpt lat="45.70518" lon="4.61672">
        <ele>680.343384</ele>
        <time>2016-09-25T08:22:22Z</time>
      </trkpt>
      <trkpt lat="45.7052" lon="4.61665">
        <ele>680.493713</ele>
        <time>2016-09-25T08:22:24Z</time>
      </trkpt>
      <trkpt lat="45.70523" lon="4.61658">
        <ele>680.568787</ele>
        <time>2016-09-25T08:22:26Z</time>
      </trkpt>
      <trkpt lat="45.70528" lon="4.6165">
        <ele>680.5224</ele>
        <time>2016-09-25T08:22:28Z</time>
      </trkpt>
      <trkpt lat="45.70535" lon="4.61641">
        <ele>680.694763</ele>
        <time>2016-09-25T08:22:30Z</time>
      </trkpt>
      <trkpt lat="45.70544" lon="4.61633">
        <ele>680.615234</ele>
        <time>2016-09-25T08:22:32Z</time>
      </trkpt>
      <trkpt lat="45.70556" lon="4.61628">
        <ele>680.272827</ele>
        <time>2016-09-25T08:22:34Z</time>
      </trkpt>
      <trkpt lat="45.70571" lon="4.61625">
        <ele>680.016541</ele>
        <time>2016-09-25T08:22:36Z</time>
      </trkpt>
      <trkpt lat="45.70586" lon="4.61624">
        <ele>679.83313</ele>
        <time>2016-09-25T08:22:38Z</time>
      </trkpt>
      <trkpt lat="45.70601" lon="4.61626">
        <ele>679.207703</ele>
        <time>2016-09-25T08:22:40Z</time>
      </trkpt>
      <trkpt lat="45.70614" lon="4.61635">
        <ele>678.712891</ele>
        <time>2016-09-25T08:22:42Z</time>
      </trkpt>
      <trkpt lat="45.70627" lon="4.61645">
        <ele>678.042297</ele>
        <time>2016-09-25T08:22:44Z</time>
      </trkpt>
      <trkpt lat="45.70639" lon="4.61654">
        <ele>677.421509</ele>
        <time>2016-09-25T08:22:46Z</time>
      </trkpt>
      <trkpt lat="45.7065" lon="4.61664">
        <ele>676.937683</ele>
        <time>2016-09-25T08:22:48Z</time>
      </trkpt>
      <trkpt lat="45.70661" lon="4.61665">
        <ele>676.014526</ele>
        <time>2016-09-25T08:22:50Z</time>
      </trkpt>
      <trkpt lat="45.70667" lon="4.6166">
        <ele>675.473267</ele>
        <time>2016-09-25T08:22:52Z</time>
      </trkpt>
      <trkpt lat="45.7067" lon="4.61651">
        <ele>675.184021</ele>
        <time>2016-09-25T08:22:54Z</time>
      </trkpt>
      <trkpt lat="45.70675" lon="4.61644">
        <ele>674.624878</ele>
        <time>2016-09-25T08:22:56Z</time>
      </trkpt>
      <trkpt lat="45.7068" lon="4.61638">
        <ele>673.542969</ele>
        <time>2016-09-25T08:22:58Z</time>
      </trkpt>
      <trkpt lat="45.70685" lon="4.61628">
        <ele>672.926697</ele>
        <time>2016-09-25T08:23:00Z</time>
      </trkpt>
      <trkpt lat="45.70689" lon="4.61616">
        <ele>672.122253</ele>
        <time>2016-09-25T08:23:02Z</time>
      </trkpt>
      <trkpt lat="45.70695" lon="4.61604">
        <ele>671.117859</ele>
        <time>2016-09-25T08:23:04Z</time>
      </trkpt>
      <trkpt lat="45.707" lon="4.61591">
        <ele>670.080261</ele>
        <time>2016-09-25T08:23:06Z</time>
      </trkpt>
      <trkpt lat="45.70706" lon="4.61578">
        <ele>669.424927</ele>
        <time>2016-09-25T08:23:08Z</time>
      </trkpt>
      <trkpt lat="45.70711" lon="4.61566">
        <ele>668.849304</ele>
        <time>2016-09-25T08:23:10Z</time>
      </trkpt>
      <trkpt lat="45.70716" lon="4.61554">
        <ele>667.146362</ele>
        <time>2016-09-25T08:23:12Z</time>
      </trkpt>
      <trkpt lat="45.7072" lon="4.61543">
        <ele>665.862427</ele>
        <time>2016-09-25T08:23:14Z</time>
      </trkpt>
      <trkpt lat="45.70725" lon="4.61531">
        <ele>664.446106</ele>
        <time>2016-09-25T08:23:16Z</time>
      </trkpt>
      <trkpt lat="45.7073" lon="4.61522">
        <ele>663.327454</ele>
        <time>2016-09-25T08:23:18Z</time>
      </trkpt>
      <trkpt lat="45.70736" lon="4.61505">
        <ele>662.721375</ele>
        <time>2016-09-25T08:23:21Z</time>
      </trkpt>
      <trkpt lat="45.70741" lon="4.61494">
        <ele>661.717773</ele>
        <time>2016-09-25T08:23:23Z</time>
      </trkpt>
      <trkpt lat="45.70745" lon="4.61479">
        <ele>660.249329</ele>
        <time>2016-09-25T08:23:25Z</time>
      </trkpt>
      <trkpt lat="45.7075" lon="4.6147">
        <ele>659.027954</ele>
        <time>2016-09-25T08:23:27Z</time>
      </trkpt>
      <trkpt lat="45.70752" lon="4.61457">
        <ele>657.262512</ele>
        <time>2016-09-25T08:23:29Z</time>
      </trkpt>
      <trkpt lat="45.70751" lon="4.61438">
        <ele>655.664429</ele>
        <time>2016-09-25T08:23:31Z</time>
      </trkpt>
      <trkpt lat="45.70749" lon="4.61417">
        <ele>654.357117</ele>
        <time>2016-09-25T08:23:33Z</time>
      </trkpt>
      <trkpt lat="45.7075" lon="4.61399">
        <ele>652.755188</ele>
        <time>2016-09-25T08:23:35Z</time>
      </trkpt>
      <trkpt lat="45.70754" lon="4.61385">
        <ele>651.147156</ele>
        <time>2016-09-25T08:23:37Z</time>
      </trkpt>
      <trkpt lat="45.70761" lon="4.61371">
        <ele>649.512573</ele>
        <time>2016-09-25T08:23:39Z</time>
      </trkpt>
      <trkpt lat="45.70769" lon="4.61354">
        <ele>647.838257</ele>
        <time>2016-09-25T08:23:41Z</time>
      </trkpt>
      <trkpt lat="45.70774" lon="4.61334">
        <ele>647.003235</ele>
        <time>2016-09-25T08:23:43Z</time>
      </trkpt>
      <trkpt lat="45.70779" lon="4.61315">
        <ele>645.355286</ele>
        <time>2016-09-25T08:23:45Z</time>
      </trkpt>
      <trkpt lat="45.70782" lon="4.61301">
        <ele>643.222473</ele>
        <time>2016-09-25T08:23:47Z</time>
      </trkpt>
      <trkpt lat="45.70786" lon="4.6129">
        <ele>641.79541</ele>
        <time>2016-09-25T08:23:49Z</time>
      </trkpt>
      <trkpt lat="45.70792" lon="4.61279">
        <ele>639.992798</ele>
        <time>2016-09-25T08:23:51Z</time>
      </trkpt>
      <trkpt lat="45.70797" lon="4.6127">
        <ele>638.02771</ele>
        <time>2016-09-25T08:23:53Z</time>
      </trkpt>
      <trkpt lat="45.70802" lon="4.61259">
        <ele>637.202271</ele>
        <time>2016-09-25T08:23:55Z</time>
      </trkpt>
      <trkpt lat="45.70806" lon="4.6125">
        <ele>635.539185</ele>
        <time>2016-09-25T08:23:57Z</time>
      </trkpt>
      <trkpt lat="45.7081" lon="4.61242">
        <ele>633.586609</ele>
        <time>2016-09-25T08:23:59Z</time>
      </trkpt>
      <trkpt lat="45.70816" lon="4.61231">
        <ele>631.635498</ele>
        <time>2016-09-25T08:24:01Z</time>
      </trkpt>
      <trkpt lat="45.70823" lon="4.61226">
        <ele>629.656128</ele>
        <time>2016-09-25T08:24:03Z</time>
      </trkpt>
      <trkpt lat="45.70828" lon="4.61228">
        <ele>627.888306</ele>
        <time>2016-09-25T08:24:05Z</time>
      </trkpt>
      <trkpt lat="45.70833" lon="4.61231">
        <ele>626.446045</ele>
        <time>2016-09-25T08:24:07Z</time>
      </trkpt>
      <trkpt lat="45.70838" lon="4.61234">
        <ele>625.641052</ele>
        <time>2016-09-25T08:24:09Z</time>
      </trkpt>
      <trkpt lat="45.70843" lon="4.61235">
        <ele>624.549377</ele>
        <time>2016-09-25T08:24:11Z</time>
      </trkpt>
      <trkpt lat="45.70847" lon="4.6124">
        <ele>623.034485</ele>
        <time>2016-09-25T08:24:13Z</time>
      </trkpt>
      <trkpt lat="45.7085" lon="4.61245">
        <ele>621.372925</ele>
        <time>2016-09-25T08:24:15Z</time>
      </trkpt>
      <trkpt lat="45.70853" lon="4.61243">
        <ele>619.831726</ele>
        <time>2016-09-25T08:24:17Z</time>
      </trkpt>
      <trkpt lat="45.70858" lon="4.61235">
        <ele>618.222778</ele>
        <time>2016-09-25T08:24:19Z</time>
      </trkpt>
      <trkpt lat="45.70863" lon="4.61229">
        <ele>616.66748</ele>
        <time>2016-09-25T08:24:21Z</time>
      </trkpt>
      <trkpt lat="45.70871" lon="4.61222">
        <ele>614.317566</ele>
        <time>2016-09-25T08:24:23Z</time>
      </trkpt>
      <trkpt lat="45.70879" lon="4.61215">
        <ele>612.680908</ele>
        <time>2016-09-25T08:24:25Z</time>
      </trkpt>
      <trkpt lat="45.70886" lon="4.61208">
        <ele>611.29541</ele>
        <time>2016-09-25T08:24:27Z</time>
      </trkpt>
      <trkpt lat="45.70892" lon="4.61198">
        <ele>610.198364</ele>
        <time>2016-09-25T08:24:29Z</time>
      </trkpt>
      <trkpt lat="45.70898" lon="4.61189">
        <ele>608.211548</ele>
        <time>2016-09-25T08:24:31Z</time>
      </trkpt>
      <trkpt lat="45.70903" lon="4.61178">
        <ele>606.424072</ele>
        <time>2016-09-25T08:24:33Z</time>
      </trkpt>
      <trkpt lat="45.70907" lon="4.6117">
        <ele>603.941345</ele>
        <time>2016-09-25T08:24:35Z</time>
      </trkpt>
      <trkpt lat="45.70911" lon="4.61163">
        <ele>603.232361</ele>
        <time>2016-09-25T08:24:37Z</time>
      </trkpt>
      <trkpt lat="45.70915" lon="4.61155">
        <ele>601.95575</ele>
        <time>2016-09-25T08:24:39Z</time>
      </trkpt>
      <trkpt lat="45.70918" lon="4.61144">
        <ele>600.920776</ele>
        <time>2016-09-25T08:24:41Z</time>
      </trkpt>
      <trkpt lat="45.70918" lon="4.61135">
        <ele>599.702393</ele>
        <time>2016-09-25T08:24:43Z</time>
      </trkpt>
      <trkpt lat="45.70917" lon="4.61131">
        <ele>598.338562</ele>
        <time>2016-09-25T08:24:45Z</time>
      </trkpt>
      <trkpt lat="45.70917" lon="4.61128">
        <ele>596.988159</ele>
        <time>2016-09-25T08:24:47Z</time>
      </trkpt>
      <trkpt lat="45.70916" lon="4.61125">
        <ele>595.687683</ele>
        <time>2016-09-25T08:24:49Z</time>
      </trkpt>
      <trkpt lat="45.70916" lon="4.61122">
        <ele>594.169617</ele>
        <time>2016-09-25T08:24:51Z</time>
      </trkpt>
      <trkpt lat="45.70915" lon="4.61119">
        <ele>592.425476</ele>
        <time>2016-09-25T08:24:53Z</time>
      </trkpt>
      <trkpt lat="45.70913" lon="4.61115">
        <ele>590.995972</ele>
        <time>2016-09-25T08:24:55Z</time>
      </trkpt>
      <trkpt lat="45.70913" lon="4.61112">
        <ele>589.567322</ele>
        <time>2016-09-25T08:24:57Z</time>
      </trkpt>
      <trkpt lat="45.70913" lon="4.61107">
        <ele>588.097412</ele>
        <time>2016-09-25T08:24:59Z</time>
      </trkpt>
      <trkpt lat="45.70916" lon="4.61101">
        <ele>586.980103</ele>
        <time>2016-09-25T08:25:01Z</time>
      </trkpt>
      <trkpt lat="45.70919" lon="4.61095">
        <ele>586.246277</ele>
        <time>2016-09-25T08:25:03Z</time>
      </trkpt>
      <trkpt lat="45.70925" lon="4.61088">
        <ele>586.074829</ele>
        <time>2016-09-25T08:25:05Z</time>
      </trkpt>
      <trkpt lat="45.70932" lon="4.6108">
        <ele>584.890991</ele>
        <time>2016-09-25T08:25:07Z</time>
      </trkpt>
      <trkpt lat="45.7094" lon="4.6107">
        <ele>583.87146</ele>
        <time>2016-09-25T08:25:09Z</time>
      </trkpt>
      <trkpt lat="45.70947" lon="4.61063">
        <ele>582.859985</ele>
        <time>2016-09-25T08:25:11Z</time>
      </trkpt>
      <trkpt lat="45.70953" lon="4.61056">
        <ele>582.010559</ele>
        <time>2016-09-25T08:25:13Z</time>
      </trkpt>
      <trkpt lat="45.70958" lon="4.61048">
        <ele>580.774231</ele>
        <time>2016-09-25T08:25:15Z</time>
      </trkpt>
      <trkpt lat="45.70965" lon="4.61039">
        <ele>580.498413</ele>
        <time>2016-09-25T08:25:17Z</time>
      </trkpt>
      <trkpt lat="45.70973" lon="4.61032">
        <ele>579.406738</ele>
        <time>2016-09-25T08:25:19Z</time>
      </trkpt>
      <trkpt lat="45.70982" lon="4.61025">
        <ele>578.38855</ele>
        <time>2016-09-25T08:25:21Z</time>
      </trkpt>
      <trkpt lat="45.7099" lon="4.61017">
        <ele>577.062012</ele>
        <time>2016-09-25T08:25:23Z</time>
      </trkpt>
      <trkpt lat="45.70998" lon="4.61009">
        <ele>576.582947</ele>
        <time>2016-09-25T08:25:25Z</time>
      </trkpt>
      <trkpt lat="45.71006" lon="4.60999">
        <ele>575.712036</ele>
        <time>2016-09-25T08:25:27Z</time>
      </trkpt>
      <trkpt lat="45.71014" lon="4.60989">
        <ele>574.474426</ele>
        <time>2016-09-25T08:25:29Z</time>
      </trkpt>
      <trkpt lat="45.71018" lon="4.6098">
        <ele>573.050964</ele>
        <time>2016-09-25T08:25:31Z</time>
      </trkpt>
      <trkpt lat="45.71024" lon="4.60972">
        <ele>571.555542</ele>
        <time>2016-09-25T08:25:33Z</time>
      </trkpt>
      <trkpt lat="45.71032" lon="4.60963">
        <ele>570.731567</ele>
        <time>2016-09-25T08:25:35Z</time>
      </trkpt>
      <trkpt lat="45.71037" lon="4.60954">
        <ele>569.676941</ele>
        <time>2016-09-25T08:25:37Z</time>
      </trkpt>
      <trkpt lat="45.71042" lon="4.60943">
        <ele>568.546997</ele>
        <time>2016-09-25T08:25:39Z</time>
      </trkpt>
      <trkpt lat="45.71046" lon="4.60933">
        <ele>566.876343</ele>
        <time>2016-09-25T08:25:41Z</time>
      </trkpt>
      <trkpt lat="45.71051" lon="4.60923">
        <ele>564.860657</ele>
        <time>2016-09-25T08:25:43Z</time>
      </trkpt>
      <trkpt lat="45.71056" lon="4.60915">
        <ele>563.185669</ele>
        <time>2016-09-25T08:25:45Z</time>
      </trkpt>
      <trkpt lat="45.71059" lon="4.60907">
        <ele>561.332275</ele>
        <time>2016-09-25T08:25:47Z</time>
      </trkpt>
      <trkpt lat="45.71063" lon="4.60895">
        <ele>559.512817</ele>
        <time>2016-09-25T08:25:49Z</time>
      </trkpt>
      <trkpt lat="45.71068" lon="4.60883">
        <ele>558.578857</ele>
        <time>2016-09-25T08:25:51Z</time>
      </trkpt>
      <trkpt lat="45.71075" lon="4.60874">
        <ele>556.886719</ele>
        <time>2016-09-25T08:25:53Z</time>
      </trkpt>
      <trkpt lat="45.71084" lon="4.60868">
        <ele>554.763</ele>
        <time>2016-09-25T08:25:55Z</time>
      </trkpt>
      <trkpt lat="45.71093" lon="4.60863">
        <ele>553.228271</ele>
        <time>2016-09-25T08:25:57Z</time>
      </trkpt>
      <trkpt lat="45.71101" lon="4.60861">
        <ele>551.179321</ele>
        <time>2016-09-25T08:25:59Z</time>
      </trkpt>
      <trkpt lat="45.71111" lon="4.60856">
        <ele>530.304077</ele>
        <time>2016-09-25T08:27:07Z</time>
      </trkpt>
      <trkpt lat="45.71117" lon="4.60864">
        <ele>530.099365</ele>
        <time>2016-09-25T08:27:09Z</time>
      </trkpt>
      <trkpt lat="45.7112" lon="4.60868">
        <ele>529.896851</ele>
        <time>2016-09-25T08:27:11Z</time>
      </trkpt>
      <trkpt lat="45.71119" lon="4.60871">
        <ele>529.694336</ele>
        <time>2016-09-25T08:27:13Z</time>
      </trkpt>
      <trkpt lat="45.71114" lon="4.60876">
        <ele>529.411255</ele>
        <time>2016-09-25T08:27:15Z</time>
      </trkpt>
      <trkpt lat="45.71106" lon="4.60885">
        <ele>529.104309</ele>
        <time>2016-09-25T08:27:17Z</time>
      </trkpt>
      <trkpt lat="45.71103" lon="4.60895">
        <ele>528.780273</ele>
        <time>2016-09-25T08:27:19Z</time>
      </trkpt>
      <trkpt lat="45.71099" lon="4.60909">
        <ele>528.342773</ele>
        <time>2016-09-25T08:27:21Z</time>
      </trkpt>
      <trkpt lat="45.71095" lon="4.60925">
        <ele>528.024109</ele>
        <time>2016-09-25T08:27:23Z</time>
      </trkpt>
      <trkpt lat="45.71089" lon="4.60941">
        <ele>527.552063</ele>
        <time>2016-09-25T08:27:25Z</time>
      </trkpt>
      <trkpt lat="45.71084" lon="4.60958">
        <ele>526.912109</ele>
        <time>2016-09-25T08:27:27Z</time>
      </trkpt>
      <trkpt lat="45.71079" lon="4.60976">
        <ele>526.246216</ele>
        <time>2016-09-25T08:27:29Z</time>
      </trkpt>
      <trkpt lat="45.71073" lon="4.60994">
        <ele>525.758667</ele>
        <time>2016-09-25T08:27:31Z</time>
      </trkpt>
      <trkpt lat="45.71067" lon="4.61009">
        <ele>525.376648</ele>
        <time>2016-09-25T08:27:33Z</time>
      </trkpt>
      <trkpt lat="45.71066" lon="4.6102">
        <ele>524.76709</ele>
        <time>2016-09-25T08:27:35Z</time>
      </trkpt>
      <trkpt lat="45.71067" lon="4.61028">
        <ele>524.349121</ele>
        <time>2016-09-25T08:27:37Z</time>
      </trkpt>
      <trkpt lat="45.71069" lon="4.61036">
        <ele>523.774414</ele>
        <time>2016-09-25T08:27:39Z</time>
      </trkpt>
      <trkpt lat="45.71071" lon="4.61041">
        <ele>523.242493</ele>
        <time>2016-09-25T08:27:41Z</time>
      </trkpt>
      <trkpt lat="45.71072" lon="4.61044">
        <ele>522.641724</ele>
        <time>2016-09-25T08:27:43Z</time>
      </trkpt>
      <trkpt lat="45.71072" lon="4.61047">
        <ele>522.027832</ele>
        <time>2016-09-25T08:27:45Z</time>
      </trkpt>
      <trkpt lat="45.71073" lon="4.6105">
        <ele>521.696106</ele>
        <time>2016-09-25T08:27:47Z</time>
      </trkpt>
      <trkpt lat="45.71074" lon="4.61053">
        <ele>521.36731</ele>
        <time>2016-09-25T08:27:49Z</time>
      </trkpt>
      <trkpt lat="45.71075" lon="4.61056">
        <ele>521.069153</ele>
        <time>2016-09-25T08:27:51Z</time>
      </trkpt>
      <trkpt lat="45.71076" lon="4.6106">
        <ele>520.78186</ele>
        <time>2016-09-25T08:27:53Z</time>
      </trkpt>
      <trkpt lat="45.71077" lon="4.61065">
        <ele>520.631592</ele>
        <time>2016-09-25T08:27:55Z</time>
      </trkpt>
      <trkpt lat="45.71079" lon="4.6107">
        <ele>520.429138</ele>
        <time>2016-09-25T08:27:57Z</time>
      </trkpt>
      <trkpt lat="45.71079" lon="4.61075">
        <ele>520.477112</ele>
        <time>2016-09-25T08:27:59Z</time>
      </trkpt>
      <trkpt lat="45.71078" lon="4.61079">
        <ele>520.36676</ele>
        <time>2016-09-25T08:28:01Z</time>
      </trkpt>
      <trkpt lat="45.71079" lon="4.61084">
        <ele>520.484253</ele>
        <time>2016-09-25T08:28:03Z</time>
      </trkpt>
      <trkpt lat="45.7108" lon="4.61088">
        <ele>520.438538</ele>
        <time>2016-09-25T08:28:05Z</time>
      </trkpt>
      <trkpt lat="45.7108" lon="4.61093">
        <ele>520.486389</ele>
        <time>2016-09-25T08:28:07Z</time>
      </trkpt>
      <trkpt lat="45.7108" lon="4.61097">
        <ele>520.762085</ele>
        <time>2016-09-25T08:28:09Z</time>
      </trkpt>
      <trkpt lat="45.71081" lon="4.61102">
        <ele>521.084717</ele>
        <time>2016-09-25T08:28:11Z</time>
      </trkpt>
      <trkpt lat="45.71082" lon="4.61107">
        <ele>521.440369</ele>
        <time>2016-09-25T08:28:13Z</time>
      </trkpt>
      <trkpt lat="45.71083" lon="4.61111">
        <ele>521.607971</ele>
        <time>2016-09-25T08:28:15Z</time>
      </trkpt>
      <trkpt lat="45.71084" lon="4.61115">
        <ele>522.012817</ele>
        <time>2016-09-25T08:28:17Z</time>
      </trkpt>
      <trkpt lat="45.71085" lon="4.6112">
        <ele>522.280518</ele>
        <time>2016-09-25T08:28:19Z</time>
      </trkpt>
      <trkpt lat="45.71085" lon="4.61125">
        <ele>522.590393</ele>
        <time>2016-09-25T08:28:21Z</time>
      </trkpt>
      <trkpt lat="45.71086" lon="4.61129">
        <ele>523.077881</ele>
        <time>2016-09-25T08:28:23Z</time>
      </trkpt>
      <trkpt lat="45.71087" lon="4.61134">
        <ele>523.358643</ele>
        <time>2016-09-25T08:28:25Z</time>
      </trkpt>
      <trkpt lat="45.71088" lon="4.61139">
        <ele>523.689392</ele>
        <time>2016-09-25T08:28:27Z</time>
      </trkpt>
      <trkpt lat="45.71089" lon="4.61145">
        <ele>523.968506</ele>
        <time>2016-09-25T08:28:29Z</time>
      </trkpt>
      <trkpt lat="45.7109" lon="4.61151">
        <ele>524.286255</ele>
        <time>2016-09-25T08:28:31Z</time>
      </trkpt>
      <trkpt lat="45.7109" lon="4.61158">
        <ele>524.815308</ele>
        <time>2016-09-25T08:28:33Z</time>
      </trkpt>
      <trkpt lat="45.7109" lon="4.61166">
        <ele>525.213623</ele>
        <time>2016-09-25T08:28:35Z</time>
      </trkpt>
      <trkpt lat="45.7109" lon="4.61173">
        <ele>525.630005</ele>
        <time>2016-09-25T08:28:37Z</time>
      </trkpt>
      <trkpt lat="45.71091" lon="4.61181">
        <ele>525.98114</ele>
        <time>2016-09-25T08:28:39Z</time>
      </trkpt>
      <trkpt lat="45.71091" lon="4.61191">
        <ele>526.15979</ele>
        <time>2016-09-25T08:28:41Z</time>
      </trkpt>
      <trkpt lat="45.7109" lon="4.61204">
        <ele>526.538696</ele>
        <time>2016-09-25T08:28:43Z</time>
      </trkpt>
      <trkpt lat="45.71086" lon="4.6122">
        <ele>526.440796</ele>
        <time>2016-09-25T08:28:45Z</time>
      </trkpt>
      <trkpt lat="45.7108" lon="4.61236">
        <ele>526.26239</ele>
        <time>2016-09-25T08:28:47Z</time>
      </trkpt>
      <trkpt lat="45.71071" lon="4.6125">
        <ele>526.397339</ele>
        <time>2016-09-25T08:28:49Z</time>
      </trkpt>
      <trkpt lat="45.71059" lon="4.61263">
        <ele>526.454712</ele>
        <time>2016-09-25T08:28:51Z</time>
      </trkpt>
      <trkpt lat="45.71048" lon="4.61278">
        <ele>526.584656</ele>
        <time>2016-09-25T08:28:53Z</time>
      </trkpt>
      <trkpt lat="45.71036" lon="4.61292">
        <ele>526.436646</ele>
        <time>2016-09-25T08:28:55Z</time>
      </trkpt>
      <trkpt lat="45.71027" lon="4.61305">
        <ele>526.240723</ele>
        <time>2016-09-25T08:28:57Z</time>
      </trkpt>
      <trkpt lat="45.71021" lon="4.61315">
        <ele>525.933838</ele>
        <time>2016-09-25T08:28:59Z</time>
      </trkpt>
      <trkpt lat="45.71018" lon="4.61325">
        <ele>525.80127</ele>
        <time>2016-09-25T08:29:01Z</time>
      </trkpt>
      <trkpt lat="45.71018" lon="4.61339">
        <ele>525.612854</ele>
        <time>2016-09-25T08:29:03Z</time>
      </trkpt>
      <trkpt lat="45.71021" lon="4.61354">
        <ele>525.341309</ele>
        <time>2016-09-25T08:29:05Z</time>
      </trkpt>
      <trkpt lat="45.71027" lon="4.6137">
        <ele>525.099731</ele>
        <time>2016-09-25T08:29:07Z</time>
      </trkpt>
      <trkpt lat="45.71034" lon="4.61387">
        <ele>524.57135</ele>
        <time>2016-09-25T08:29:09Z</time>
      </trkpt>
      <trkpt lat="45.71041" lon="4.61404">
        <ele>524.388489</ele>
        <time>2016-09-25T08:29:11Z</time>
      </trkpt>
      <trkpt lat="45.71046" lon="4.61422">
        <ele>523.916138</ele>
        <time>2016-09-25T08:29:13Z</time>
      </trkpt>
      <trkpt lat="45.71052" lon="4.6144">
        <ele>523.778931</ele>
        <time>2016-09-25T08:29:15Z</time>
      </trkpt>
      <trkpt lat="45.71055" lon="4.61454">
        <ele>523.491089</ele>
        <time>2016-09-25T08:29:17Z</time>
      </trkpt>
      <trkpt lat="45.71058" lon="4.61465">
        <ele>522.992004</ele>
        <time>2016-09-25T08:29:19Z</time>
      </trkpt>
      <trkpt lat="45.7106" lon="4.61476">
        <ele>522.488464</ele>
        <time>2016-09-25T08:29:21Z</time>
      </trkpt>
      <trkpt lat="45.7106" lon="4.61487">
        <ele>522.414429</ele>
        <time>2016-09-25T08:29:23Z</time>
      </trkpt>
      <trkpt lat="45.71062" lon="4.61499">
        <ele>521.841919</ele>
        <time>2016-09-25T08:29:25Z</time>
      </trkpt>
      <trkpt lat="45.71062" lon="4.61513">
        <ele>521.98114</ele>
        <time>2016-09-25T08:29:27Z</time>
      </trkpt>
      <trkpt lat="45.71063" lon="4.61529">
        <ele>521.926758</ele>
        <time>2016-09-25T08:29:29Z</time>
      </trkpt>
      <trkpt lat="45.71065" lon="4.61544">
        <ele>521.922363</ele>
        <time>2016-09-25T08:29:31Z</time>
      </trkpt>
      <trkpt lat="45.71066" lon="4.61562">
        <ele>521.632996</ele>
        <time>2016-09-25T08:29:33Z</time>
      </trkpt>
      <trkpt lat="45.71064" lon="4.6158">
        <ele>521.219543</ele>
        <time>2016-09-25T08:29:35Z</time>
      </trkpt>
      <trkpt lat="45.71063" lon="4.61598">
        <ele>521.184753</ele>
        <time>2016-09-25T08:29:37Z</time>
      </trkpt>
      <trkpt lat="45.71061" lon="4.61616">
        <ele>520.986816</ele>
        <time>2016-09-25T08:29:39Z</time>
      </trkpt>
      <trkpt lat="45.71056" lon="4.61634">
        <ele>520.369446</ele>
        <time>2016-09-25T08:29:41Z</time>
      </trkpt>
      <trkpt lat="45.71052" lon="4.61652">
        <ele>520.212524</ele>
        <time>2016-09-25T08:29:43Z</time>
      </trkpt>
      <trkpt lat="45.71051" lon="4.61669">
        <ele>520.009644</ele>
        <time>2016-09-25T08:29:45Z</time>
      </trkpt>
      <trkpt lat="45.71053" lon="4.61686">
        <ele>519.81543</ele>
        <time>2016-09-25T08:29:47Z</time>
      </trkpt>
      <trkpt lat="45.71054" lon="4.61704">
        <ele>519.53479</ele>
        <time>2016-09-25T08:29:49Z</time>
      </trkpt>
      <trkpt lat="45.71055" lon="4.61721">
        <ele>519.115051</ele>
        <time>2016-09-25T08:29:51Z</time>
      </trkpt>
      <trkpt lat="45.71053" lon="4.61736">
        <ele>518.914856</ele>
        <time>2016-09-25T08:29:53Z</time>
      </trkpt>
      <trkpt lat="45.71051" lon="4.61749">
        <ele>518.712585</ele>
        <time>2016-09-25T08:29:55Z</time>
      </trkpt>
      <trkpt lat="45.71051" lon="4.61759">
        <ele>518.406372</ele>
        <time>2016-09-25T08:29:57Z</time>
      </trkpt>
      <trkpt lat="45.7105" lon="4.61771">
        <ele>518.097351</ele>
        <time>2016-09-25T08:29:59Z</time>
      </trkpt>
      <trkpt lat="45.71049" lon="4.61784">
        <ele>518.108215</ele>
        <time>2016-09-25T08:30:01Z</time>
      </trkpt>
      <trkpt lat="45.71051" lon="4.61797">
        <ele>517.755676</ele>
        <time>2016-09-25T08:30:03Z</time>
      </trkpt>
      <trkpt lat="45.71054" lon="4.61812">
        <ele>517.559875</ele>
        <time>2016-09-25T08:30:05Z</time>
      </trkpt>
      <trkpt lat="45.71056" lon="4.61829">
        <ele>516.877075</ele>
        <time>2016-09-25T08:30:07Z</time>
      </trkpt>
      <trkpt lat="45.71054" lon="4.61847">
        <ele>516.827026</ele>
        <time>2016-09-25T08:30:09Z</time>
      </trkpt>
      <trkpt lat="45.71055" lon="4.61865">
        <ele>516.903137</ele>
        <time>2016-09-25T08:30:11Z</time>
      </trkpt>
      <trkpt lat="45.71053" lon="4.61881">
        <ele>516.575073</ele>
        <time>2016-09-25T08:30:13Z</time>
      </trkpt>
      <trkpt lat="45.71053" lon="4.61897">
        <ele>516.529419</ele>
        <time>2016-09-25T08:30:15Z</time>
      </trkpt>
      <trkpt lat="45.71052" lon="4.61914">
        <ele>516.411987</ele>
        <time>2016-09-25T08:30:17Z</time>
      </trkpt>
      <trkpt lat="45.71049" lon="4.61931">
        <ele>516.368347</ele>
        <time>2016-09-25T08:30:19Z</time>
      </trkpt>
      <trkpt lat="45.71046" lon="4.61947">
        <ele>516.183472</ele>
        <time>2016-09-25T08:30:21Z</time>
      </trkpt>
      <trkpt lat="45.71045" lon="4.61961">
        <ele>516.583313</ele>
        <time>2016-09-25T08:30:23Z</time>
      </trkpt>
      <trkpt lat="45.71044" lon="4.61973">
        <ele>516.543152</ele>
        <time>2016-09-25T08:30:25Z</time>
      </trkpt>
      <trkpt lat="45.71041" lon="4.61987">
        <ele>516.549683</ele>
        <time>2016-09-25T08:30:27Z</time>
      </trkpt>
      <trkpt lat="45.71035" lon="4.61999">
        <ele>516.47522</ele>
        <time>2016-09-25T08:30:29Z</time>
      </trkpt>
      <trkpt lat="45.7103" lon="4.6201">
        <ele>516.688293</ele>
        <time>2016-09-25T08:30:31Z</time>
      </trkpt>
      <trkpt lat="45.71025" lon="4.62015">
        <ele>516.988403</ele>
        <time>2016-09-25T08:30:33Z</time>
      </trkpt>
      <trkpt lat="45.71021" lon="4.6202">
        <ele>517.040649</ele>
        <time>2016-09-25T08:30:35Z</time>
      </trkpt>
      <trkpt lat="45.71018" lon="4.62026">
        <ele>517.438721</ele>
        <time>2016-09-25T08:30:37Z</time>
      </trkpt>
      <trkpt lat="45.71015" lon="4.62032">
        <ele>517.64978</ele>
        <time>2016-09-25T08:30:39Z</time>
      </trkpt>
      <trkpt lat="45.71011" lon="4.62038">
        <ele>517.765076</ele>
        <time>2016-09-25T08:30:41Z</time>
      </trkpt>
      <trkpt lat="45.71008" lon="4.62043">
        <ele>517.891174</ele>
        <time>2016-09-25T08:30:43Z</time>
      </trkpt>
      <trkpt lat="45.71004" lon="4.62048">
        <ele>518.115295</ele>
        <time>2016-09-25T08:30:45Z</time>
      </trkpt>
      <trkpt lat="45.71001" lon="4.62054">
        <ele>518.33313</ele>
        <time>2016-09-25T08:30:47Z</time>
      </trkpt>
      <trkpt lat="45.71" lon="4.62061">
        <ele>518.985474</ele>
        <time>2016-09-25T08:30:49Z</time>
      </trkpt>
      <trkpt lat="45.71" lon="4.62073">
        <ele>519.270569</ele>
        <time>2016-09-25T08:30:51Z</time>
      </trkpt>
      <trkpt lat="45.70999" lon="4.62084">
        <ele>519.507874</ele>
        <time>2016-09-25T08:30:53Z</time>
      </trkpt>
      <trkpt lat="45.70999" lon="4.62094">
        <ele>519.81842</ele>
        <time>2016-09-25T08:30:55Z</time>
      </trkpt>
      <trkpt lat="45.70998" lon="4.62102">
        <ele>520.247009</ele>
        <time>2016-09-25T08:30:57Z</time>
      </trkpt>
      <trkpt lat="45.70997" lon="4.62108">
        <ele>520.632446</ele>
        <time>2016-09-25T08:30:59Z</time>
      </trkpt>
      <trkpt lat="45.70996" lon="4.62114">
        <ele>521.061157</ele>
        <time>2016-09-25T08:31:01Z</time>
      </trkpt>
      <trkpt lat="45.70996" lon="4.6212">
        <ele>521.376587</ele>
        <time>2016-09-25T08:31:03Z</time>
      </trkpt>
      <trkpt lat="45.70994" lon="4.62125">
        <ele>521.750916</ele>
        <time>2016-09-25T08:31:05Z</time>
      </trkpt>
      <trkpt lat="45.70992" lon="4.6213">
        <ele>522.250244</ele>
        <time>2016-09-25T08:31:07Z</time>
      </trkpt>
      <trkpt lat="45.70991" lon="4.62135">
        <ele>522.685608</ele>
        <time>2016-09-25T08:31:09Z</time>
      </trkpt>
      <trkpt lat="45.70989" lon="4.62139">
        <ele>523.101135</ele>
        <time>2016-09-25T08:31:11Z</time>
      </trkpt>
      <trkpt lat="45.70988" lon="4.62143">
        <ele>523.6604</ele>
        <time>2016-09-25T08:31:13Z</time>
      </trkpt>
      <trkpt lat="45.70986" lon="4.62146">
        <ele>523.978088</ele>
        <time>2016-09-25T08:31:15Z</time>
      </trkpt>
      <trkpt lat="45.70985" lon="4.6215">
        <ele>524.443909</ele>
        <time>2016-09-25T08:31:17Z</time>
      </trkpt>
      <trkpt lat="45.70985" lon="4.62155">
        <ele>524.675537</ele>
        <time>2016-09-25T08:31:19Z</time>
      </trkpt>
      <trkpt lat="45.70986" lon="4.62163">
        <ele>524.917542</ele>
        <time>2016-09-25T08:31:21Z</time>
      </trkpt>
      <trkpt lat="45.70987" lon="4.6217">
        <ele>525.140564</ele>
        <time>2016-09-25T08:31:23Z</time>
      </trkpt>
      <trkpt lat="45.70988" lon="4.62179">
        <ele>525.480164</ele>
        <time>2016-09-25T08:31:25Z</time>
      </trkpt>
      <trkpt lat="45.70988" lon="4.62191">
        <ele>526.022034</ele>
        <time>2016-09-25T08:31:27Z</time>
      </trkpt>
      <trkpt lat="45.70991" lon="4.62205">
        <ele>526.360229</ele>
        <time>2016-09-25T08:31:29Z</time>
      </trkpt>
      <trkpt lat="45.70994" lon="4.62221">
        <ele>526.443054</ele>
        <time>2016-09-25T08:31:31Z</time>
      </trkpt>
      <trkpt lat="45.70997" lon="4.62239">
        <ele>526.406067</ele>
        <time>2016-09-25T08:31:33Z</time>
      </trkpt>
      <trkpt lat="45.70999" lon="4.62255">
        <ele>526.453674</ele>
        <time>2016-09-25T08:31:35Z</time>
      </trkpt>
      <trkpt lat="45.71003" lon="4.62272">
        <ele>526.475403</ele>
        <time>2016-09-25T08:31:37Z</time>
      </trkpt>
      <trkpt lat="45.7101" lon="4.62291">
        <ele>526.490601</ele>
        <time>2016-09-25T08:31:39Z</time>
      </trkpt>
      <trkpt lat="45.71019" lon="4.62313">
        <ele>526.290039</ele>
        <time>2016-09-25T08:31:41Z</time>
      </trkpt>
      <trkpt lat="45.71029" lon="4.62334">
        <ele>525.987549</ele>
        <time>2016-09-25T08:31:43Z</time>
      </trkpt>
      <trkpt lat="45.7104" lon="4.62352">
        <ele>525.434937</ele>
        <time>2016-09-25T08:31:45Z</time>
      </trkpt>
      <trkpt lat="45.71049" lon="4.62368">
        <ele>524.690613</ele>
        <time>2016-09-25T08:31:47Z</time>
      </trkpt>
      <trkpt lat="45.71058" lon="4.62384">
        <ele>524.344543</ele>
        <time>2016-09-25T08:31:49Z</time>
      </trkpt>
      <trkpt lat="45.71069" lon="4.624">
        <ele>524.012207</ele>
        <time>2016-09-25T08:31:51Z</time>
      </trkpt>
      <trkpt lat="45.71077" lon="4.62414">
        <ele>523.572632</ele>
        <time>2016-09-25T08:31:53Z</time>
      </trkpt>
      <trkpt lat="45.71083" lon="4.62427">
        <ele>523.054749</ele>
        <time>2016-09-25T08:31:55Z</time>
      </trkpt>
      <trkpt lat="45.71089" lon="4.6244">
        <ele>522.854431</ele>
        <time>2016-09-25T08:31:57Z</time>
      </trkpt>
      <trkpt lat="45.71095" lon="4.62451">
        <ele>522.453979</ele>
        <time>2016-09-25T08:31:59Z</time>
      </trkpt>
      <trkpt lat="45.711" lon="4.62459">
        <ele>522.505005</ele>
        <time>2016-09-25T08:32:01Z</time>
      </trkpt>
      <trkpt lat="45.71103" lon="4.62464">
        <ele>522.502808</ele>
        <time>2016-09-25T08:32:03Z</time>
      </trkpt>
      <trkpt lat="45.71106" lon="4.62468">
        <ele>522.386536</ele>
        <time>2016-09-25T08:32:05Z</time>
      </trkpt>
      <trkpt lat="45.7111" lon="4.62473">
        <ele>522.247192</ele>
        <time>2016-09-25T08:32:07Z</time>
      </trkpt>
      <trkpt lat="45.71116" lon="4.62477">
        <ele>521.78772</ele>
        <time>2016-09-25T08:32:09Z</time>
      </trkpt>
      <trkpt lat="45.71122" lon="4.62482">
        <ele>521.625854</ele>
        <time>2016-09-25T08:32:11Z</time>
      </trkpt>
      <trkpt lat="45.71131" lon="4.62485">
        <ele>521.016602</ele>
        <time>2016-09-25T08:32:13Z</time>
      </trkpt>
      <trkpt lat="45.71141" lon="4.62491">
        <ele>520.94043</ele>
        <time>2016-09-25T08:32:15Z</time>
      </trkpt>
      <trkpt lat="45.71151" lon="4.625">
        <ele>520.47937</ele>
        <time>2016-09-25T08:32:17Z</time>
      </trkpt>
      <trkpt lat="45.71159" lon="4.62513">
        <ele>520.218201</ele>
        <time>2016-09-25T08:32:19Z</time>
      </trkpt>
      <trkpt lat="45.71165" lon="4.62532">
        <ele>520.065979</ele>
        <time>2016-09-25T08:32:21Z</time>
      </trkpt>
      <trkpt lat="45.7117" lon="4.62551">
        <ele>519.865845</ele>
        <time>2016-09-25T08:32:23Z</time>
      </trkpt>
      <trkpt lat="45.71181" lon="4.62572">
        <ele>519.557007</ele>
        <time>2016-09-25T08:32:25Z</time>
      </trkpt>
      <trkpt lat="45.71191" lon="4.6259">
        <ele>518.959106</ele>
        <time>2016-09-25T08:32:27Z</time>
      </trkpt>
      <trkpt lat="45.71202" lon="4.62607">
        <ele>519.185181</ele>
        <time>2016-09-25T08:32:29Z</time>
      </trkpt>
      <trkpt lat="45.71215" lon="4.62624">
        <ele>518.702942</ele>
        <time>2016-09-25T08:32:31Z</time>
      </trkpt>
      <trkpt lat="45.71225" lon="4.62642">
        <ele>517.505493</ele>
        <time>2016-09-25T08:32:33Z</time>
      </trkpt>
      <trkpt lat="45.71237" lon="4.62659">
        <ele>516.879395</ele>
        <time>2016-09-25T08:32:35Z</time>
      </trkpt>
      <trkpt lat="45.71246" lon="4.62671">
        <ele>516.249023</ele>
        <time>2016-09-25T08:32:37Z</time>
      </trkpt>
      <trkpt lat="45.71254" lon="4.62685">
        <ele>515.077454</ele>
        <time>2016-09-25T08:32:39Z</time>
      </trkpt>
      <trkpt lat="45.71262" lon="4.62701">
        <ele>514.19928</ele>
        <time>2016-09-25T08:32:41Z</time>
      </trkpt>
      <trkpt lat="45.71272" lon="4.62717">
        <ele>512.273804</ele>
        <time>2016-09-25T08:32:43Z</time>
      </trkpt>
      <trkpt lat="45.71282" lon="4.62734">
        <ele>510.556824</ele>
        <time>2016-09-25T08:32:45Z</time>
      </trkpt>
      <trkpt lat="45.71292" lon="4.62751">
        <ele>509.320404</ele>
        <time>2016-09-25T08:32:47Z</time>
      </trkpt>
      <trkpt lat="45.71301" lon="4.62763">
        <ele>507.575195</ele>
        <time>2016-09-25T08:32:49Z</time>
      </trkpt>
      <trkpt lat="45.71308" lon="4.62776">
        <ele>505.98175</ele>
        <time>2016-09-25T08:32:51Z</time>
      </trkpt>
      <trkpt lat="45.71316" lon="4.62794">
        <ele>504.480865</ele>
        <time>2016-09-25T08:32:53Z</time>
      </trkpt>
      <trkpt lat="45.71323" lon="4.62812">
        <ele>502.372467</ele>
        <time>2016-09-25T08:32:55Z</time>
      </trkpt>
      <trkpt lat="45.7133" lon="4.62832">
        <ele>500.41806</ele>
        <time>2016-09-25T08:32:57Z</time>
      </trkpt>
      <trkpt lat="45.71337" lon="4.62857">
        <ele>499.632324</ele>
        <time>2016-09-25T08:32:59Z</time>
      </trkpt>
      <trkpt lat="45.71346" lon="4.62882">
        <ele>497.38739</ele>
        <time>2016-09-25T08:33:01Z</time>
      </trkpt>
      <trkpt lat="45.71354" lon="4.62905">
        <ele>494.783508</ele>
        <time>2016-09-25T08:33:03Z</time>
      </trkpt>
      <trkpt lat="45.71356" lon="4.62927">
        <ele>492.603607</ele>
        <time>2016-09-25T08:33:05Z</time>
      </trkpt>
      <trkpt lat="45.71353" lon="4.62952">
        <ele>490.526947</ele>
        <time>2016-09-25T08:33:07Z</time>
      </trkpt>
      <trkpt lat="45.71348" lon="4.6298">
        <ele>488.713684</ele>
        <time>2016-09-25T08:33:09Z</time>
      </trkpt>
      <trkpt lat="45.71341" lon="4.6301">
        <ele>485.975983</ele>
        <time>2016-09-25T08:33:11Z</time>
      </trkpt>
      <trkpt lat="45.71339" lon="4.63032">
        <ele>483.520813</ele>
        <time>2016-09-25T08:33:13Z</time>
      </trkpt>
      <trkpt lat="45.71337" lon="4.63045">
        <ele>480.960144</ele>
        <time>2016-09-25T08:33:15Z</time>
      </trkpt>
      <trkpt lat="45.71336" lon="4.6305">
        <ele>478.152161</ele>
        <time>2016-09-25T08:33:17Z</time>
      </trkpt>
      <trkpt lat="45.71338" lon="4.63058">
        <ele>456.900146</ele>
        <time>2016-09-25T08:33:37Z</time>
      </trkpt>
      <trkpt lat="45.71333" lon="4.63065">
        <ele>455.298767</ele>
        <time>2016-09-25T08:33:39Z</time>
      </trkpt>
      <trkpt lat="45.71325" lon="4.63072">
        <ele>453.543396</ele>
        <time>2016-09-25T08:33:41Z</time>
      </trkpt>
      <trkpt lat="45.71315" lon="4.63078">
        <ele>452.461609</ele>
        <time>2016-09-25T08:33:43Z</time>
      </trkpt>
      <trkpt lat="45.71304" lon="4.63083">
        <ele>450.983002</ele>
        <time>2016-09-25T08:33:45Z</time>
      </trkpt>
      <trkpt lat="45.71291" lon="4.63088">
        <ele>450.02301</ele>
        <time>2016-09-25T08:33:47Z</time>
      </trkpt>
      <trkpt lat="45.71277" lon="4.63095">
        <ele>448.479553</ele>
        <time>2016-09-25T08:33:49Z</time>
      </trkpt>
      <trkpt lat="45.71264" lon="4.631">
        <ele>447.182281</ele>
        <time>2016-09-25T08:33:51Z</time>
      </trkpt>
      <trkpt lat="45.71253" lon="4.63107">
        <ele>446.0354</ele>
        <time>2016-09-25T08:33:53Z</time>
      </trkpt>
      <trkpt lat="45.71249" lon="4.63125">
        <ele>445.441406</ele>
        <time>2016-09-25T08:33:55Z</time>
      </trkpt>
      <trkpt lat="45.71256" lon="4.63142">
        <ele>445.054871</ele>
        <time>2016-09-25T08:33:57Z</time>
      </trkpt>
      <trkpt lat="45.71265" lon="4.63158">
        <ele>443.812103</ele>
        <time>2016-09-25T08:33:59Z</time>
      </trkpt>
      <trkpt lat="45.71275" lon="4.63169">
        <ele>443.032654</ele>
        <time>2016-09-25T08:34:01Z</time>
      </trkpt>
      <trkpt lat="45.71283" lon="4.63178">
        <ele>442.505707</ele>
        <time>2016-09-25T08:34:03Z</time>
      </trkpt>
      <trkpt lat="45.71291" lon="4.63186">
        <ele>442.015472</ele>
        <time>2016-09-25T08:34:05Z</time>
      </trkpt>
      <trkpt lat="45.71298" lon="4.63192">
        <ele>441.561951</ele>
        <time>2016-09-25T08:34:07Z</time>
      </trkpt>
      <trkpt lat="45.71304" lon="4.63198">
        <ele>441.18399</ele>
        <time>2016-09-25T08:34:09Z</time>
      </trkpt>
      <trkpt lat="45.7131" lon="4.63202">
        <ele>440.851318</ele>
        <time>2016-09-25T08:34:11Z</time>
      </trkpt>
      <trkpt lat="45.71316" lon="4.63206">
        <ele>440.482025</ele>
        <time>2016-09-25T08:34:13Z</time>
      </trkpt>
      <trkpt lat="45.71321" lon="4.63209">
        <ele>440.220642</ele>
        <time>2016-09-25T08:34:15Z</time>
      </trkpt>
      <trkpt lat="45.71327" lon="4.63211">
        <ele>439.780029</ele>
        <time>2016-09-25T08:34:17Z</time>
      </trkpt>
      <trkpt lat="45.71332" lon="4.63212">
        <ele>439.71524</ele>
        <time>2016-09-25T08:34:19Z</time>
      </trkpt>
      <trkpt lat="45.71338" lon="4.63214">
        <ele>439.423584</ele>
        <time>2016-09-25T08:34:21Z</time>
      </trkpt>
      <trkpt lat="45.71344" lon="4.63215">
        <ele>439.257263</ele>
        <time>2016-09-25T08:34:23Z</time>
      </trkpt>
      <trkpt lat="45.71347" lon="4.63216">
        <ele>439.14325</ele>
        <time>2016-09-25T08:34:25Z</time>
      </trkpt>
      <trkpt lat="45.71351" lon="4.63216">
        <ele>439.253418</ele>
        <time>2016-09-25T08:34:27Z</time>
      </trkpt>
      <trkpt lat="45.71354" lon="4.63217">
        <ele>439.242615</ele>
        <time>2016-09-25T08:34:29Z</time>
      </trkpt>
      <trkpt lat="45.71357" lon="4.63218">
        <ele>439.488831</ele>
        <time>2016-09-25T08:34:31Z</time>
      </trkpt>
      <trkpt lat="45.71359" lon="4.63219">
        <ele>439.765289</ele>
        <time>2016-09-25T08:34:33Z</time>
      </trkpt>
      <trkpt lat="45.71362" lon="4.6322">
        <ele>440.389099</ele>
        <time>2016-09-25T08:34:35Z</time>
      </trkpt>
      <trkpt lat="45.71365" lon="4.63221">
        <ele>440.751953</ele>
        <time>2016-09-25T08:34:37Z</time>
      </trkpt>
      <trkpt lat="45.71368" lon="4.63223">
        <ele>441.453766</ele>
        <time>2016-09-25T08:34:39Z</time>
      </trkpt>
      <trkpt lat="45.71371" lon="4.63224">
        <ele>442.605774</ele>
        <time>2016-09-25T08:34:41Z</time>
      </trkpt>
      <trkpt lat="45.71374" lon="4.63225">
        <ele>443.361481</ele>
        <time>2016-09-25T08:34:43Z</time>
      </trkpt>
      <trkpt lat="45.71376" lon="4.63227">
        <ele>443.875488</ele>
        <time>2016-09-25T08:34:45Z</time>
      </trkpt>
      <trkpt lat="45.7138" lon="4.63229">
        <ele>444.456451</ele>
        <time>2016-09-25T08:34:47Z</time>
      </trkpt>
      <trkpt lat="45.71383" lon="4.63231">
        <ele>444.635742</ele>
        <time>2016-09-25T08:34:49Z</time>
      </trkpt>
      <trkpt lat="45.71385" lon="4.63233">
        <ele>445.026672</ele>
        <time>2016-09-25T08:34:51Z</time>
      </trkpt>
      <trkpt lat="45.71388" lon="4.63235">
        <ele>445.478119</ele>
        <time>2016-09-25T08:34:53Z</time>
      </trkpt>
      <trkpt lat="45.7139" lon="4.63238">
        <ele>445.918762</ele>
        <time>2016-09-25T08:34:55Z</time>
      </trkpt>
      <trkpt lat="45.71392" lon="4.63241">
        <ele>446.232239</ele>
        <time>2016-09-25T08:34:57Z</time>
      </trkpt>
      <trkpt lat="45.71394" lon="4.63243">
        <ele>446.843567</ele>
        <time>2016-09-25T08:34:59Z</time>
      </trkpt>
      <trkpt lat="45.71396" lon="4.63245">
        <ele>447.296936</ele>
        <time>2016-09-25T08:35:01Z</time>
      </trkpt>
      <trkpt lat="45.71398" lon="4.63248">
        <ele>447.767517</ele>
        <time>2016-09-25T08:35:03Z</time>
      </trkpt>
      <trkpt lat="45.71401" lon="4.6325">
        <ele>448.221283</ele>
        <time>2016-09-25T08:35:05Z</time>
      </trkpt>
      <trkpt lat="45.71403" lon="4.63252">
        <ele>448.51947</ele>
        <time>2016-09-25T08:35:07Z</time>
      </trkpt>
      <trkpt lat="45.71405" lon="4.63254">
        <ele>448.854431</ele>
        <time>2016-09-25T08:35:09Z</time>
      </trkpt>
      <trkpt lat="45.71406" lon="4.63257">
        <ele>449.232605</ele>
        <time>2016-09-25T08:35:11Z</time>
      </trkpt>
      <trkpt lat="45.71408" lon="4.6326">
        <ele>449.448669</ele>
        <time>2016-09-25T08:35:13Z</time>
      </trkpt>
      <trkpt lat="45.7141" lon="4.63263">
        <ele>449.84848</ele>
        <time>2016-09-25T08:35:15Z</time>
      </trkpt>
      <trkpt lat="45.71411" lon="4.63265">
        <ele>450.308746</ele>
        <time>2016-09-25T08:35:17Z</time>
      </trkpt>
      <trkpt lat="45.71413" lon="4.63268">
        <ele>450.76474</ele>
        <time>2016-09-25T08:35:19Z</time>
      </trkpt>
      <trkpt lat="45.71414" lon="4.63271">
        <ele>450.954926</ele>
        <time>2016-09-25T08:35:21Z</time>
      </trkpt>
      <trkpt lat="45.71415" lon="4.63274">
        <ele>451.298523</ele>
        <time>2016-09-25T08:35:23Z</time>
      </trkpt>
      <trkpt lat="45.71416" lon="4.63278">
        <ele>451.640076</ele>
        <time>2016-09-25T08:35:25Z</time>
      </trkpt>
      <trkpt lat="45.71416" lon="4.63281">
        <ele>452.009705</ele>
        <time>2016-09-25T08:35:27Z</time>
      </trkpt>
      <trkpt lat="45.71417" lon="4.63284">
        <ele>452.392334</ele>
        <time>2016-09-25T08:35:29Z</time>
      </trkpt>
      <trkpt lat="45.71417" lon="4.63287">
        <ele>452.733948</ele>
        <time>2016-09-25T08:35:31Z</time>
      </trkpt>
      <trkpt lat="45.71418" lon="4.6329">
        <ele>453.103577</ele>
        <time>2016-09-25T08:35:33Z</time>
      </trkpt>
      <trkpt lat="45.71419" lon="4.63293">
        <ele>453.527252</ele>
        <time>2016-09-25T08:35:35Z</time>
      </trkpt>
      <trkpt lat="45.71419" lon="4.63297">
        <ele>453.713196</ele>
        <time>2016-09-25T08:35:37Z</time>
      </trkpt>
      <trkpt lat="45.7142" lon="4.633">
        <ele>454.12915</ele>
        <time>2016-09-25T08:35:39Z</time>
      </trkpt>
      <trkpt lat="45.71421" lon="4.63304">
        <ele>454.453461</ele>
        <time>2016-09-25T08:35:41Z</time>
      </trkpt>
      <trkpt lat="45.71422" lon="4.63307">
        <ele>454.781189</ele>
        <time>2016-09-25T08:35:43Z</time>
      </trkpt>
      <trkpt lat="45.71423" lon="4.6331">
        <ele>455.186523</ele>
        <time>2016-09-25T08:35:45Z</time>
      </trkpt>
      <trkpt lat="45.71423" lon="4.63314">
        <ele>455.500153</ele>
        <time>2016-09-25T08:35:47Z</time>
      </trkpt>
      <trkpt lat="45.71424" lon="4.63317">
        <ele>455.98233</ele>
        <time>2016-09-25T08:35:49Z</time>
      </trkpt>
      <trkpt lat="45.71425" lon="4.63321">
        <ele>456.48407</ele>
        <time>2016-09-25T08:35:51Z</time>
      </trkpt>
      <trkpt lat="45.71426" lon="4.63324">
        <ele>456.866852</ele>
        <time>2016-09-25T08:35:53Z</time>
      </trkpt>
      <trkpt lat="45.71427" lon="4.63327">
        <ele>457.284271</ele>
        <time>2016-09-25T08:35:55Z</time>
      </trkpt>
      <trkpt lat="45.71428" lon="4.6333">
        <ele>457.714661</ele>
        <time>2016-09-25T08:35:57Z</time>
      </trkpt>
      <trkpt lat="45.71429" lon="4.63333">
        <ele>458.11264</ele>
        <time>2016-09-25T08:35:59Z</time>
      </trkpt>
      <trkpt lat="45.71429" lon="4.63336">
        <ele>458.58197</ele>
        <time>2016-09-25T08:36:01Z</time>
      </trkpt>
      <trkpt lat="45.71429" lon="4.6334">
        <ele>459.040527</ele>
        <time>2016-09-25T08:36:03Z</time>
      </trkpt>
      <trkpt lat="45.71429" lon="4.63343">
        <ele>459.291443</ele>
        <time>2016-09-25T08:36:05Z</time>
      </trkpt>
      <trkpt lat="45.71429" lon="4.63346">
        <ele>459.663513</ele>
        <time>2016-09-25T08:36:07Z</time>
      </trkpt>
      <trkpt lat="45.71429" lon="4.63349">
        <ele>460.045563</ele>
        <time>2016-09-25T08:36:09Z</time>
      </trkpt>
      <trkpt lat="45.7143" lon="4.63353">
        <ele>460.465271</ele>
        <time>2016-09-25T08:36:11Z</time>
      </trkpt>
      <trkpt lat="45.71431" lon="4.63357">
        <ele>460.928284</ele>
        <time>2016-09-25T08:36:13Z</time>
      </trkpt>
      <trkpt lat="45.7143" lon="4.6336">
        <ele>461.414734</ele>
        <time>2016-09-25T08:36:15Z</time>
      </trkpt>
      <trkpt lat="45.71431" lon="4.63363">
        <ele>461.879944</ele>
        <time>2016-09-25T08:36:17Z</time>
      </trkpt>
      <trkpt lat="45.71432" lon="4.63366">
        <ele>462.318054</ele>
        <time>2016-09-25T08:36:19Z</time>
      </trkpt>
      <trkpt lat="45.71433" lon="4.63369">
        <ele>462.807068</ele>
        <time>2016-09-25T08:36:21Z</time>
      </trkpt>
      <trkpt lat="45.71434" lon="4.63373">
        <ele>463.24762</ele>
        <time>2016-09-25T08:36:23Z</time>
      </trkpt>
      <trkpt lat="45.71435" lon="4.63376">
        <ele>463.743225</ele>
        <time>2016-09-25T08:36:25Z</time>
      </trkpt>
      <trkpt lat="45.71436" lon="4.6338">
        <ele>464.135101</ele>
        <time>2016-09-25T08:36:27Z</time>
      </trkpt>
      <trkpt lat="45.71437" lon="4.63383">
        <ele>464.563568</ele>
        <time>2016-09-25T08:36:29Z</time>
      </trkpt>
      <trkpt lat="45.71438" lon="4.63386">
        <ele>464.922852</ele>
        <time>2016-09-25T08:36:31Z</time>
      </trkpt>
      <trkpt lat="45.71439" lon="4.6339">
        <ele>465.392578</ele>
        <time>2016-09-25T08:36:33Z</time>
      </trkpt>
      <trkpt lat="45.71439" lon="4.63393">
        <ele>465.803864</ele>
        <time>2016-09-25T08:36:35Z</time>
      </trkpt>
      <trkpt lat="45.71438" lon="4.63397">
        <ele>466.104675</ele>
        <time>2016-09-25T08:36:37Z</time>
      </trkpt>
      <trkpt lat="45.71438" lon="4.63401">
        <ele>466.297363</ele>
        <time>2016-09-25T08:36:39Z</time>
      </trkpt>
      <trkpt lat="45.71437" lon="4.63404">
        <ele>466.704102</ele>
        <time>2016-09-25T08:36:41Z</time>
      </trkpt>
      <trkpt lat="45.71437" lon="4.63407">
        <ele>467.127502</ele>
        <time>2016-09-25T08:36:43Z</time>
      </trkpt>
      <trkpt lat="45.71437" lon="4.63411">
        <ele>467.52359</ele>
        <time>2016-09-25T08:36:45Z</time>
      </trkpt>
      <trkpt lat="45.71436" lon="4.63415">
        <ele>467.982574</ele>
        <time>2016-09-25T08:36:47Z</time>
      </trkpt>
      <trkpt lat="45.71436" lon="4.63418">
        <ele>468.340759</ele>
        <time>2016-09-25T08:36:49Z</time>
      </trkpt>
      <trkpt lat="45.71436" lon="4.63422">
        <ele>468.720398</ele>
        <time>2016-09-25T08:36:51Z</time>
      </trkpt>
      <trkpt lat="45.71436" lon="4.63425">
        <ele>469.079773</ele>
        <time>2016-09-25T08:36:53Z</time>
      </trkpt>
      <trkpt lat="45.71435" lon="4.63429">
        <ele>469.437012</ele>
        <time>2016-09-25T08:36:55Z</time>
      </trkpt>
      <trkpt lat="45.71434" lon="4.63432">
        <ele>469.80542</ele>
        <time>2016-09-25T08:36:57Z</time>
      </trkpt>
      <trkpt lat="45.71434" lon="4.63435">
        <ele>470.207947</ele>
        <time>2016-09-25T08:36:59Z</time>
      </trkpt>
      <trkpt lat="45.71433" lon="4.63439">
        <ele>470.413666</ele>
        <time>2016-09-25T08:37:01Z</time>
      </trkpt>
      <trkpt lat="45.71433" lon="4.63442">
        <ele>470.776123</ele>
        <time>2016-09-25T08:37:03Z</time>
      </trkpt>
      <trkpt lat="45.71433" lon="4.63445">
        <ele>471.156403</ele>
        <time>2016-09-25T08:37:05Z</time>
      </trkpt>
      <trkpt lat="45.71433" lon="4.63448">
        <ele>471.463959</ele>
        <time>2016-09-25T08:37:07Z</time>
      </trkpt>
      <trkpt lat="45.71431" lon="4.63452">
        <ele>471.766846</ele>
        <time>2016-09-25T08:37:09Z</time>
      </trkpt>
      <trkpt lat="45.7143" lon="4.63455">
        <ele>472.16098</ele>
        <time>2016-09-25T08:37:11Z</time>
      </trkpt>
      <trkpt lat="45.71429" lon="4.6346">
        <ele>472.475037</ele>
        <time>2016-09-25T08:37:13Z</time>
      </trkpt>
      <trkpt lat="45.71429" lon="4.63464">
        <ele>472.737152</ele>
        <time>2016-09-25T08:37:15Z</time>
      </trkpt>
      <trkpt lat="45.71428" lon="4.63467">
        <ele>473.070709</ele>
        <time>2016-09-25T08:37:17Z</time>
      </trkpt>
      <trkpt lat="45.71427" lon="4.63471">
        <ele>473.542877</ele>
        <time>2016-09-25T08:37:19Z</time>
      </trkpt>
      <trkpt lat="45.71427" lon="4.63475">
        <ele>473.930817</ele>
        <time>2016-09-25T08:37:21Z</time>
      </trkpt>
      <trkpt lat="45.71425" lon="4.63478">
        <ele>474.315125</ele>
        <time>2016-09-25T08:37:23Z</time>
      </trkpt>
      <trkpt lat="45.71425" lon="4.63482">
        <ele>474.423431</ele>
        <time>2016-09-25T08:37:25Z</time>
      </trkpt>
      <trkpt lat="45.71423" lon="4.63486">
        <ele>474.747803</ele>
        <time>2016-09-25T08:37:27Z</time>
      </trkpt>
      <trkpt lat="45.71423" lon="4.63491">
        <ele>475.048981</ele>
        <time>2016-09-25T08:37:29Z</time>
      </trkpt>
      <trkpt lat="45.71421" lon="4.63495">
        <ele>475.40976</ele>
        <time>2016-09-25T08:37:31Z</time>
      </trkpt>
      <trkpt lat="45.71421" lon="4.63499">
        <ele>475.771545</ele>
        <time>2016-09-25T08:37:33Z</time>
      </trkpt>
      <trkpt lat="45.7142" lon="4.63503">
        <ele>476.088318</ele>
        <time>2016-09-25T08:37:35Z</time>
      </trkpt>
      <trkpt lat="45.71419" lon="4.63507">
        <ele>476.342285</ele>
        <time>2016-09-25T08:37:37Z</time>
      </trkpt>
      <trkpt lat="45.71418" lon="4.63511">
        <ele>476.656433</ele>
        <time>2016-09-25T08:37:39Z</time>
      </trkpt>
      <trkpt lat="45.71416" lon="4.63515">
        <ele>476.845215</ele>
        <time>2016-09-25T08:37:41Z</time>
      </trkpt>
      <trkpt lat="45.71413" lon="4.63519">
        <ele>477.162933</ele>
        <time>2016-09-25T08:37:43Z</time>
      </trkpt>
      <trkpt lat="45.71412" lon="4.63522">
        <ele>477.493103</ele>
        <time>2016-09-25T08:37:45Z</time>
      </trkpt>
      <trkpt lat="45.71409" lon="4.63526">
        <ele>477.733704</ele>
        <time>2016-09-25T08:37:47Z</time>
      </trkpt>
      <trkpt lat="45.71406" lon="4.63529">
        <ele>477.878845</ele>
        <time>2016-09-25T08:37:49Z</time>
      </trkpt>
      <trkpt lat="45.71404" lon="4.63532">
        <ele>478.182861</ele>
        <time>2016-09-25T08:37:51Z</time>
      </trkpt>
      <trkpt lat="45.71402" lon="4.63535">
        <ele>478.460266</ele>
        <time>2016-09-25T08:37:53Z</time>
      </trkpt>
      <trkpt lat="45.71399" lon="4.63538">
        <ele>478.684235</ele>
        <time>2016-09-25T08:37:55Z</time>
      </trkpt>
      <trkpt lat="45.71397" lon="4.6354">
        <ele>478.903076</ele>
        <time>2016-09-25T08:37:57Z</time>
      </trkpt>
      <trkpt lat="45.71394" lon="4.63542">
        <ele>479.111664</ele>
        <time>2016-09-25T08:37:59Z</time>
      </trkpt>
      <trkpt lat="45.71392" lon="4.63544">
        <ele>479.298737</ele>
        <time>2016-09-25T08:38:01Z</time>
      </trkpt>
      <trkpt lat="45.71389" lon="4.63547">
        <ele>479.459076</ele>
        <time>2016-09-25T08:38:03Z</time>
      </trkpt>
      <trkpt lat="45.71386" lon="4.63549">
        <ele>479.62384</ele>
        <time>2016-09-25T08:38:05Z</time>
      </trkpt>
      <trkpt lat="45.71383" lon="4.63552">
        <ele>479.864929</ele>
        <time>2016-09-25T08:38:07Z</time>
      </trkpt>
      <trkpt lat="45.71381" lon="4.63555">
        <ele>480.103363</ele>
        <time>2016-09-25T08:38:09Z</time>
      </trkpt>
      <trkpt lat="45.71378" lon="4.63558">
        <ele>480.307068</ele>
        <time>2016-09-25T08:38:11Z</time>
      </trkpt>
      <trkpt lat="45.71375" lon="4.63562">
        <ele>480.404633</ele>
        <time>2016-09-25T08:38:13Z</time>
      </trkpt>
      <trkpt lat="45.71373" lon="4.63565">
        <ele>480.645264</ele>
        <time>2016-09-25T08:38:15Z</time>
      </trkpt>
      <trkpt lat="45.71371" lon="4.63568">
        <ele>480.820313</ele>
        <time>2016-09-25T08:38:17Z</time>
      </trkpt>
      <trkpt lat="45.71369" lon="4.63572">
        <ele>481.032288</ele>
        <time>2016-09-25T08:38:19Z</time>
      </trkpt>
      <trkpt lat="45.71367" lon="4.63575">
        <ele>481.275085</ele>
        <time>2016-09-25T08:38:21Z</time>
      </trkpt>
      <trkpt lat="45.71365" lon="4.63579">
        <ele>481.589417</ele>
        <time>2016-09-25T08:38:23Z</time>
      </trkpt>
      <trkpt lat="45.71363" lon="4.63583">
        <ele>481.806213</ele>
        <time>2016-09-25T08:38:25Z</time>
      </trkpt>
      <trkpt lat="45.71361" lon="4.63586">
        <ele>481.952087</ele>
        <time>2016-09-25T08:38:27Z</time>
      </trkpt>
      <trkpt lat="45.71359" lon="4.63589">
        <ele>482.19928</ele>
        <time>2016-09-25T08:38:29Z</time>
      </trkpt>
      <trkpt lat="45.71356" lon="4.63592">
        <ele>482.471191</ele>
        <time>2016-09-25T08:38:31Z</time>
      </trkpt>
      <trkpt lat="45.71354" lon="4.63596">
        <ele>482.709656</ele>
        <time>2016-09-25T08:38:33Z</time>
      </trkpt>
      <trkpt lat="45.71352" lon="4.636">
        <ele>482.917053</ele>
        <time>2016-09-25T08:38:35Z</time>
      </trkpt>
      <trkpt lat="45.71351" lon="4.63603">
        <ele>483.220612</ele>
        <time>2016-09-25T08:38:37Z</time>
      </trkpt>
      <trkpt lat="45.71349" lon="4.63607">
        <ele>483.491608</ele>
        <time>2016-09-25T08:38:39Z</time>
      </trkpt>
      <trkpt lat="45.71346" lon="4.63611">
        <ele>483.681885</ele>
        <time>2016-09-25T08:38:41Z</time>
      </trkpt>
      <trkpt lat="45.71343" lon="4.63615">
        <ele>483.906799</ele>
        <time>2016-09-25T08:38:43Z</time>
      </trkpt>
      <trkpt lat="45.71341" lon="4.63618">
        <ele>484.162598</ele>
        <time>2016-09-25T08:38:45Z</time>
      </trkpt>
      <trkpt lat="45.71337" lon="4.63623">
        <ele>484.533447</ele>
        <time>2016-09-25T08:38:47Z</time>
      </trkpt>
      <trkpt lat="45.71334" lon="4.63627">
        <ele>484.837006</ele>
        <time>2016-09-25T08:38:49Z</time>
      </trkpt>
      <trkpt lat="45.71331" lon="4.63631">
        <ele>485.149323</ele>
        <time>2016-09-25T08:38:51Z</time>
      </trkpt>
      <trkpt lat="45.71328" lon="4.63634">
        <ele>485.49408</ele>
        <time>2016-09-25T08:38:53Z</time>
      </trkpt>
      <trkpt lat="45.71326" lon="4.63638">
        <ele>485.843506</ele>
        <time>2016-09-25T08:38:55Z</time>
      </trkpt>
      <trkpt lat="45.71323" lon="4.63641">
        <ele>486.153961</ele>
        <time>2016-09-25T08:38:57Z</time>
      </trkpt>
      <trkpt lat="45.7132" lon="4.63647">
        <ele>486.676697</ele>
        <time>2016-09-25T08:38:59Z</time>
      </trkpt>
      <trkpt lat="45.71317" lon="4.6365">
        <ele>487.065002</ele>
        <time>2016-09-25T08:39:01Z</time>
      </trkpt>
      <trkpt lat="45.71315" lon="4.63654">
        <ele>487.481445</ele>
        <time>2016-09-25T08:39:03Z</time>
      </trkpt>
      <trkpt lat="45.71312" lon="4.63657">
        <ele>487.973145</ele>
        <time>2016-09-25T08:39:05Z</time>
      </trkpt>
      <trkpt lat="45.71309" lon="4.63659">
        <ele>488.341888</ele>
        <time>2016-09-25T08:39:07Z</time>
      </trkpt>
      <trkpt lat="45.71305" lon="4.63662">
        <ele>488.720856</ele>
        <time>2016-09-25T08:39:09Z</time>
      </trkpt>
      <trkpt lat="45.71301" lon="4.63666">
        <ele>489.070068</ele>
        <time>2016-09-25T08:39:11Z</time>
      </trkpt>
      <trkpt lat="45.71297" lon="4.6367">
        <ele>489.21109</ele>
        <time>2016-09-25T08:39:13Z</time>
      </trkpt>
      <trkpt lat="45.71293" lon="4.63674">
        <ele>489.539063</ele>
        <time>2016-09-25T08:39:15Z</time>
      </trkpt>
      <trkpt lat="45.71291" lon="4.63678">
        <ele>489.875793</ele>
        <time>2016-09-25T08:39:17Z</time>
      </trkpt>
      <trkpt lat="45.71289" lon="4.63683">
        <ele>490.2164</ele>
        <time>2016-09-25T08:39:19Z</time>
      </trkpt>
      <trkpt lat="45.71287" lon="4.63689">
        <ele>490.530945</ele>
        <time>2016-09-25T08:39:21Z</time>
      </trkpt>
      <trkpt lat="45.71285" lon="4.63695">
        <ele>491.00824</ele>
        <time>2016-09-25T08:39:23Z</time>
      </trkpt>
      <trkpt lat="45.71282" lon="4.63706">
        <ele>491.219147</ele>
        <time>2016-09-25T08:39:25Z</time>
      </trkpt>
      <trkpt lat="45.7128" lon="4.63719">
        <ele>491.388367</ele>
        <time>2016-09-25T08:39:27Z</time>
      </trkpt>
      <trkpt lat="45.71278" lon="4.63732">
        <ele>491.785461</ele>
        <time>2016-09-25T08:39:29Z</time>
      </trkpt>
      <trkpt lat="45.71277" lon="4.63744">
        <ele>492.071869</ele>
        <time>2016-09-25T08:39:31Z</time>
      </trkpt>
      <trkpt lat="45.71278" lon="4.63755">
        <ele>492.048035</ele>
        <time>2016-09-25T08:39:33Z</time>
      </trkpt>
      <trkpt lat="45.71277" lon="4.63766">
        <ele>492.07193</ele>
        <time>2016-09-25T08:39:35Z</time>
      </trkpt>
      <trkpt lat="45.71277" lon="4.63776">
        <ele>492.488098</ele>
        <time>2016-09-25T08:39:37Z</time>
      </trkpt>
      <trkpt lat="45.71276" lon="4.63784">
        <ele>492.637787</ele>
        <time>2016-09-25T08:39:39Z</time>
      </trkpt>
      <trkpt lat="45.71276" lon="4.63791">
        <ele>492.605225</ele>
        <time>2016-09-25T08:39:41Z</time>
      </trkpt>
      <trkpt lat="45.71276" lon="4.63797">
        <ele>492.607361</ele>
        <time>2016-09-25T08:39:43Z</time>
      </trkpt>
      <trkpt lat="45.71276" lon="4.63804">
        <ele>492.64209</ele>
        <time>2016-09-25T08:39:45Z</time>
      </trkpt>
      <trkpt lat="45.71276" lon="4.63811">
        <ele>492.586487</ele>
        <time>2016-09-25T08:39:47Z</time>
      </trkpt>
      <trkpt lat="45.71275" lon="4.63817">
        <ele>492.660248</ele>
        <time>2016-09-25T08:39:49Z</time>
      </trkpt>
      <trkpt lat="45.71273" lon="4.63823">
        <ele>492.679779</ele>
        <time>2016-09-25T08:39:51Z</time>
      </trkpt>
      <trkpt lat="45.71272" lon="4.63829">
        <ele>492.801605</ele>
        <time>2016-09-25T08:39:53Z</time>
      </trkpt>
      <trkpt lat="45.71272" lon="4.63835">
        <ele>492.916168</ele>
        <time>2016-09-25T08:39:55Z</time>
      </trkpt>
      <trkpt lat="45.71272" lon="4.63841">
        <ele>493.076324</ele>
        <time>2016-09-25T08:39:57Z</time>
      </trkpt>
      <trkpt lat="45.71272" lon="4.63847">
        <ele>493.150085</ele>
        <time>2016-09-25T08:39:59Z</time>
      </trkpt>
      <trkpt lat="45.71273" lon="4.63851">
        <ele>493.291168</ele>
        <time>2016-09-25T08:40:01Z</time>
      </trkpt>
      <trkpt lat="45.71273" lon="4.63856">
        <ele>493.499451</ele>
        <time>2016-09-25T08:40:03Z</time>
      </trkpt>
      <trkpt lat="45.71275" lon="4.63862">
        <ele>493.48111</ele>
        <time>2016-09-25T08:40:05Z</time>
      </trkpt>
      <trkpt lat="45.71277" lon="4.63869">
        <ele>493.669434</ele>
        <time>2016-09-25T08:40:07Z</time>
      </trkpt>
      <trkpt lat="45.71278" lon="4.63876">
        <ele>493.893005</ele>
        <time>2016-09-25T08:40:09Z</time>
      </trkpt>
      <trkpt lat="45.7128" lon="4.63882">
        <ele>493.89859</ele>
        <time>2016-09-25T08:40:11Z</time>
      </trkpt>
      <trkpt lat="45.71281" lon="4.63888">
        <ele>494.004944</ele>
        <time>2016-09-25T08:40:13Z</time>
      </trkpt>
      <trkpt lat="45.71283" lon="4.63894">
        <ele>494.402039</ele>
        <time>2016-09-25T08:40:15Z</time>
      </trkpt>
      <trkpt lat="45.71285" lon="4.63901">
        <ele>494.751465</ele>
        <time>2016-09-25T08:40:17Z</time>
      </trkpt>
      <trkpt lat="45.71286" lon="4.63908">
        <ele>494.715576</ele>
        <time>2016-09-25T08:40:19Z</time>
      </trkpt>
      <trkpt lat="45.71288" lon="4.63914">
        <ele>494.906647</ele>
        <time>2016-09-25T08:40:21Z</time>
      </trkpt>
      <trkpt lat="45.71289" lon="4.6392">
        <ele>495.237305</ele>
        <time>2016-09-25T08:40:23Z</time>
      </trkpt>
      <trkpt lat="45.7129" lon="4.63926">
        <ele>495.628021</ele>
        <time>2016-09-25T08:40:25Z</time>
      </trkpt>
      <trkpt lat="45.71291" lon="4.63935">
        <ele>495.79303</ele>
        <time>2016-09-25T08:40:28Z</time>
      </trkpt>
      <trkpt lat="45.71291" lon="4.63944">
        <ele>496.091949</ele>
        <time>2016-09-25T08:40:31Z</time>
      </trkpt>
      <trkpt lat="45.71292" lon="4.63949">
        <ele>496.517487</ele>
        <time>2016-09-25T08:40:33Z</time>
      </trkpt>
      <trkpt lat="45.71292" lon="4.63955">
        <ele>496.88443</ele>
        <time>2016-09-25T08:40:35Z</time>
      </trkpt>
      <trkpt lat="45.71293" lon="4.63959">
        <ele>497.329254</ele>
        <time>2016-09-25T08:40:37Z</time>
      </trkpt>
      <trkpt lat="45.71293" lon="4.63964">
        <ele>497.828674</ele>
        <time>2016-09-25T08:40:39Z</time>
      </trkpt>
      <trkpt lat="45.71294" lon="4.63968">
        <ele>498.106598</ele>
        <time>2016-09-25T08:40:41Z</time>
      </trkpt>
      <trkpt lat="45.71293" lon="4.63972">
        <ele>498.482239</ele>
        <time>2016-09-25T08:40:43Z</time>
      </trkpt>
      <trkpt lat="45.71293" lon="4.63977">
        <ele>499.021729</ele>
        <time>2016-09-25T08:40:45Z</time>
      </trkpt>
      <trkpt lat="45.71291" lon="4.63982">
        <ele>499.377869</ele>
        <time>2016-09-25T08:40:47Z</time>
      </trkpt>
      <trkpt lat="45.71291" lon="4.63987">
        <ele>499.822418</ele>
        <time>2016-09-25T08:40:49Z</time>
      </trkpt>
      <trkpt lat="45.71291" lon="4.63992">
        <ele>500.061279</ele>
        <time>2016-09-25T08:40:51Z</time>
      </trkpt>
      <trkpt lat="45.71289" lon="4.63999">
        <ele>500.422516</ele>
        <time>2016-09-25T08:40:54Z</time>
      </trkpt>
      <trkpt lat="45.71289" lon="4.64003">
        <ele>500.731842</ele>
        <time>2016-09-25T08:40:56Z</time>
      </trkpt>
      <trkpt lat="45.71288" lon="4.64008">
        <ele>501.168365</ele>
        <time>2016-09-25T08:40:58Z</time>
      </trkpt>
      <trkpt lat="45.71288" lon="4.64012">
        <ele>501.691833</ele>
        <time>2016-09-25T08:41:00Z</time>
      </trkpt>
      <trkpt lat="45.71287" lon="4.64017">
        <ele>502.195709</ele>
        <time>2016-09-25T08:41:02Z</time>
      </trkpt>
      <trkpt lat="45.71287" lon="4.64022">
        <ele>502.681152</ele>
        <time>2016-09-25T08:41:04Z</time>
      </trkpt>
      <trkpt lat="45.71287" lon="4.64027">
        <ele>503.148132</ele>
        <time>2016-09-25T08:41:06Z</time>
      </trkpt>
      <trkpt lat="45.71288" lon="4.64033">
        <ele>503.613953</ele>
        <time>2016-09-25T08:41:08Z</time>
      </trkpt>
      <trkpt lat="45.71287" lon="4.64038">
        <ele>503.915924</ele>
        <time>2016-09-25T08:41:10Z</time>
      </trkpt>
      <trkpt lat="45.71289" lon="4.64044">
        <ele>504.244568</ele>
        <time>2016-09-25T08:41:12Z</time>
      </trkpt>
      <trkpt lat="45.71291" lon="4.64049">
        <ele>504.42276</ele>
        <time>2016-09-25T08:41:14Z</time>
      </trkpt>
      <trkpt lat="45.71293" lon="4.64055">
        <ele>504.679535</ele>
        <time>2016-09-25T08:41:16Z</time>
      </trkpt>
      <trkpt lat="45.71295" lon="4.64061">
        <ele>505.029358</ele>
        <time>2016-09-25T08:41:18Z</time>
      </trkpt>
      <trkpt lat="45.71296" lon="4.64067">
        <ele>505.359619</ele>
        <time>2016-09-25T08:41:20Z</time>
      </trkpt>
      <trkpt lat="45.71298" lon="4.64072">
        <ele>505.668274</ele>
        <time>2016-09-25T08:41:22Z</time>
      </trkpt>
      <trkpt lat="45.71299" lon="4.64076">
        <ele>506.066223</ele>
        <time>2016-09-25T08:41:24Z</time>
      </trkpt>
      <trkpt lat="45.71301" lon="4.64081">
        <ele>506.450775</ele>
        <time>2016-09-25T08:41:26Z</time>
      </trkpt>
      <trkpt lat="45.713" lon="4.64089">
        <ele>508.61142</ele>
        <time>2016-09-25T08:41:42Z</time>
      </trkpt>
      <trkpt lat="45.71299" lon="4.64093">
        <ele>508.799866</ele>
        <time>2016-09-25T08:41:44Z</time>
      </trkpt>
      <trkpt lat="45.71299" lon="4.64097">
        <ele>508.951752</ele>
        <time>2016-09-25T08:41:46Z</time>
      </trkpt>
      <trkpt lat="45.71298" lon="4.64102">
        <ele>509.253906</ele>
        <time>2016-09-25T08:41:48Z</time>
      </trkpt>
      <trkpt lat="45.71297" lon="4.64107">
        <ele>509.593506</ele>
        <time>2016-09-25T08:41:50Z</time>
      </trkpt>
      <trkpt lat="45.71296" lon="4.6411">
        <ele>509.902527</ele>
        <time>2016-09-25T08:41:52Z</time>
      </trkpt>
      <trkpt lat="45.71297" lon="4.64114">
        <ele>510.253723</ele>
        <time>2016-09-25T08:41:54Z</time>
      </trkpt>
      <trkpt lat="45.71296" lon="4.64118">
        <ele>510.574036</ele>
        <time>2016-09-25T08:41:56Z</time>
      </trkpt>
      <trkpt lat="45.71295" lon="4.64121">
        <ele>510.873444</ele>
        <time>2016-09-25T08:41:58Z</time>
      </trkpt>
      <trkpt lat="45.71293" lon="4.64124">
        <ele>511.212555</ele>
        <time>2016-09-25T08:42:00Z</time>
      </trkpt>
      <trkpt lat="45.71292" lon="4.64128">
        <ele>511.525696</ele>
        <time>2016-09-25T08:42:02Z</time>
      </trkpt>
      <trkpt lat="45.71291" lon="4.64131">
        <ele>511.78656</ele>
        <time>2016-09-25T08:42:04Z</time>
      </trkpt>
      <trkpt lat="45.71289" lon="4.64135">
        <ele>512.040649</ele>
        <time>2016-09-25T08:42:06Z</time>
      </trkpt>
      <trkpt lat="45.71288" lon="4.64139">
        <ele>512.195007</ele>
        <time>2016-09-25T08:42:08Z</time>
      </trkpt>
      <trkpt lat="45.71288" lon="4.64143">
        <ele>512.4823</ele>
        <time>2016-09-25T08:42:10Z</time>
      </trkpt>
      <trkpt lat="45.71288" lon="4.64147">
        <ele>512.803955</ele>
        <time>2016-09-25T08:42:12Z</time>
      </trkpt>
      <trkpt lat="45.71286" lon="4.6415">
        <ele>513.061646</ele>
        <time>2016-09-25T08:42:14Z</time>
      </trkpt>
      <trkpt lat="45.71284" lon="4.64154">
        <ele>513.265442</ele>
        <time>2016-09-25T08:42:16Z</time>
      </trkpt>
      <trkpt lat="45.71283" lon="4.64157">
        <ele>513.674194</ele>
        <time>2016-09-25T08:42:18Z</time>
      </trkpt>
      <trkpt lat="45.71282" lon="4.6416">
        <ele>514.006897</ele>
        <time>2016-09-25T08:42:20Z</time>
      </trkpt>
      <trkpt lat="45.71281" lon="4.64163">
        <ele>514.463745</ele>
        <time>2016-09-25T08:42:22Z</time>
      </trkpt>
      <trkpt lat="45.7128" lon="4.64166">
        <ele>514.790649</ele>
        <time>2016-09-25T08:42:24Z</time>
      </trkpt>
      <trkpt lat="45.71279" lon="4.64169">
        <ele>515.232361</ele>
        <time>2016-09-25T08:42:26Z</time>
      </trkpt>
      <trkpt lat="45.71278" lon="4.64172">
        <ele>515.438965</ele>
        <time>2016-09-25T08:42:28Z</time>
      </trkpt>
      <trkpt lat="45.71276" lon="4.64175">
        <ele>515.709595</ele>
        <time>2016-09-25T08:42:30Z</time>
      </trkpt>
      <trkpt lat="45.71275" lon="4.64179">
        <ele>515.983704</ele>
        <time>2016-09-25T08:42:32Z</time>
      </trkpt>
      <trkpt lat="45.71274" lon="4.64182">
        <ele>516.350891</ele>
        <time>2016-09-25T08:42:34Z</time>
      </trkpt>
      <trkpt lat="45.71273" lon="4.64185">
        <ele>516.699829</ele>
        <time>2016-09-25T08:42:36Z</time>
      </trkpt>
      <trkpt lat="45.71272" lon="4.64188">
        <ele>517.105835</ele>
        <time>2016-09-25T08:42:38Z</time>
      </trkpt>
      <trkpt lat="45.7127" lon="4.64191">
        <ele>517.473633</ele>
        <time>2016-09-25T08:42:40Z</time>
      </trkpt>
      <trkpt lat="45.71269" lon="4.64194">
        <ele>517.752075</ele>
        <time>2016-09-25T08:42:42Z</time>
      </trkpt>
      <trkpt lat="45.71268" lon="4.64196">
        <ele>518.050171</ele>
        <time>2016-09-25T08:42:44Z</time>
      </trkpt>
      <trkpt lat="45.71266" lon="4.64198">
        <ele>518.276428</ele>
        <time>2016-09-25T08:42:46Z</time>
      </trkpt>
      <trkpt lat="45.71265" lon="4.64201">
        <ele>518.687561</ele>
        <time>2016-09-25T08:42:48Z</time>
      </trkpt>
      <trkpt lat="45.71265" lon="4.64205">
        <ele>518.985413</ele>
        <time>2016-09-25T08:42:50Z</time>
      </trkpt>
      <trkpt lat="45.71264" lon="4.64209">
        <ele>519.157288</ele>
        <time>2016-09-25T08:42:52Z</time>
      </trkpt>
      <trkpt lat="45.71263" lon="4.64212">
        <ele>519.445801</ele>
        <time>2016-09-25T08:42:54Z</time>
      </trkpt>
      <trkpt lat="45.71262" lon="4.64216">
        <ele>519.784546</ele>
        <time>2016-09-25T08:42:56Z</time>
      </trkpt>
      <trkpt lat="45.7126" lon="4.64219">
        <ele>520.157227</ele>
        <time>2016-09-25T08:42:58Z</time>
      </trkpt>
      <trkpt lat="45.71258" lon="4.64222">
        <ele>520.381348</ele>
        <time>2016-09-25T08:43:00Z</time>
      </trkpt>
      <trkpt lat="45.71257" lon="4.64225">
        <ele>520.722473</ele>
        <time>2016-09-25T08:43:02Z</time>
      </trkpt>
      <trkpt lat="45.71256" lon="4.64228">
        <ele>520.933533</ele>
        <time>2016-09-25T08:43:04Z</time>
      </trkpt>
      <trkpt lat="45.71255" lon="4.64231">
        <ele>521.279053</ele>
        <time>2016-09-25T08:43:06Z</time>
      </trkpt>
      <trkpt lat="45.71254" lon="4.64234">
        <ele>521.516296</ele>
        <time>2016-09-25T08:43:08Z</time>
      </trkpt>
      <trkpt lat="45.71253" lon="4.64236">
        <ele>521.806946</ele>
        <time>2016-09-25T08:43:10Z</time>
      </trkpt>
      <trkpt lat="45.71252" lon="4.64239">
        <ele>522.085571</ele>
        <time>2016-09-25T08:43:12Z</time>
      </trkpt>
      <trkpt lat="45.7125" lon="4.64242">
        <ele>522.429443</ele>
        <time>2016-09-25T08:43:14Z</time>
      </trkpt>
      <trkpt lat="45.71249" lon="4.64244">
        <ele>522.594849</ele>
        <time>2016-09-25T08:43:16Z</time>
      </trkpt>
      <trkpt lat="45.71248" lon="4.64247">
        <ele>522.940918</ele>
        <time>2016-09-25T08:43:18Z</time>
      </trkpt>
      <trkpt lat="45.71246" lon="4.64249">
        <ele>523.291382</ele>
        <time>2016-09-25T08:43:20Z</time>
      </trkpt>
      <trkpt lat="45.71245" lon="4.64252">
        <ele>523.545044</ele>
        <time>2016-09-25T08:43:22Z</time>
      </trkpt>
      <trkpt lat="45.71244" lon="4.64255">
        <ele>523.836731</ele>
        <time>2016-09-25T08:43:24Z</time>
      </trkpt>
      <trkpt lat="45.71243" lon="4.64258">
        <ele>524.174194</ele>
        <time>2016-09-25T08:43:26Z</time>
      </trkpt>
      <trkpt lat="45.71241" lon="4.64261">
        <ele>524.553589</ele>
        <time>2016-09-25T08:43:28Z</time>
      </trkpt>
      <trkpt lat="45.7124" lon="4.64264">
        <ele>524.846069</ele>
        <time>2016-09-25T08:43:30Z</time>
      </trkpt>
      <trkpt lat="45.71239" lon="4.64267">
        <ele>525.183472</ele>
        <time>2016-09-25T08:43:32Z</time>
      </trkpt>
      <trkpt lat="45.71237" lon="4.6427">
        <ele>525.556763</ele>
        <time>2016-09-25T08:43:34Z</time>
      </trkpt>
      <trkpt lat="45.71236" lon="4.64273">
        <ele>525.877808</ele>
        <time>2016-09-25T08:43:36Z</time>
      </trkpt>
      <trkpt lat="45.71235" lon="4.64276">
        <ele>526.051941</ele>
        <time>2016-09-25T08:43:38Z</time>
      </trkpt>
      <trkpt lat="45.71233" lon="4.64279">
        <ele>526.530945</ele>
        <time>2016-09-25T08:43:40Z</time>
      </trkpt>
      <trkpt lat="45.71232" lon="4.64282">
        <ele>526.90979</ele>
        <time>2016-09-25T08:43:42Z</time>
      </trkpt>
      <trkpt lat="45.7123" lon="4.64286">
        <ele>527.280396</ele>
        <time>2016-09-25T08:43:44Z</time>
      </trkpt>
      <trkpt lat="45.71228" lon="4.64288">
        <ele>527.813904</ele>
        <time>2016-09-25T08:43:46Z</time>
      </trkpt>
      <trkpt lat="45.71227" lon="4.64291">
        <ele>528.125854</ele>
        <time>2016-09-25T08:43:48Z</time>
      </trkpt>
      <trkpt lat="45.71225" lon="4.64293">
        <ele>528.46936</ele>
        <time>2016-09-25T08:43:50Z</time>
      </trkpt>
      <trkpt lat="45.71223" lon="4.64296">
        <ele>528.901855</ele>
        <time>2016-09-25T08:43:52Z</time>
      </trkpt>
      <trkpt lat="45.71222" lon="4.64299">
        <ele>529.260559</ele>
        <time>2016-09-25T08:43:54Z</time>
      </trkpt>
      <trkpt lat="45.7122" lon="4.64301">
        <ele>529.582886</ele>
        <time>2016-09-25T08:43:56Z</time>
      </trkpt>
      <trkpt lat="45.71219" lon="4.64304">
        <ele>529.926941</ele>
        <time>2016-09-25T08:43:58Z</time>
      </trkpt>
      <trkpt lat="45.71218" lon="4.64307">
        <ele>530.192688</ele>
        <time>2016-09-25T08:44:00Z</time>
      </trkpt>
      <trkpt lat="45.71216" lon="4.6431">
        <ele>530.489929</ele>
        <time>2016-09-25T08:44:02Z</time>
      </trkpt>
      <trkpt lat="45.71215" lon="4.64313">
        <ele>530.685913</ele>
        <time>2016-09-25T08:44:04Z</time>
      </trkpt>
      <trkpt lat="45.71214" lon="4.64316">
        <ele>531.065918</ele>
        <time>2016-09-25T08:44:06Z</time>
      </trkpt>
      <trkpt lat="45.71212" lon="4.64319">
        <ele>531.324219</ele>
        <time>2016-09-25T08:44:08Z</time>
      </trkpt>
      <trkpt lat="45.7121" lon="4.64323">
        <ele>531.667664</ele>
        <time>2016-09-25T08:44:10Z</time>
      </trkpt>
      <trkpt lat="45.71208" lon="4.64327">
        <ele>531.987122</ele>
        <time>2016-09-25T08:44:12Z</time>
      </trkpt>
      <trkpt lat="45.71206" lon="4.6433">
        <ele>532.379211</ele>
        <time>2016-09-25T08:44:14Z</time>
      </trkpt>
      <trkpt lat="45.71204" lon="4.64334">
        <ele>532.610168</ele>
        <time>2016-09-25T08:44:16Z</time>
      </trkpt>
      <trkpt lat="45.71202" lon="4.64338">
        <ele>532.925598</ele>
        <time>2016-09-25T08:44:18Z</time>
      </trkpt>
      <trkpt lat="45.712" lon="4.64341">
        <ele>533.136902</ele>
        <time>2016-09-25T08:44:20Z</time>
      </trkpt>
      <trkpt lat="45.71199" lon="4.64345">
        <ele>533.461548</ele>
        <time>2016-09-25T08:44:22Z</time>
      </trkpt>
      <trkpt lat="45.71198" lon="4.64347">
        <ele>533.646667</ele>
        <time>2016-09-25T08:44:24Z</time>
      </trkpt>
      <trkpt lat="45.71196" lon="4.64348">
        <ele>533.766479</ele>
        <time>2016-09-25T08:44:26Z</time>
      </trkpt>
      <trkpt lat="45.71193" lon="4.6435">
        <ele>535.973511</ele>
        <time>2016-09-25T08:47:09Z</time>
      </trkpt>
      <trkpt lat="45.7119" lon="4.64362">
        <ele>535.981689</ele>
        <time>2016-09-25T08:47:11Z</time>
      </trkpt>
      <trkpt lat="45.71188" lon="4.64366">
        <ele>535.94281</ele>
        <time>2016-09-25T08:47:13Z</time>
      </trkpt>
      <trkpt lat="45.71186" lon="4.6437">
        <ele>535.91449</ele>
        <time>2016-09-25T08:47:15Z</time>
      </trkpt>
      <trkpt lat="45.71183" lon="4.64374">
        <ele>535.92926</ele>
        <time>2016-09-25T08:47:17Z</time>
      </trkpt>
      <trkpt lat="45.7118" lon="4.64378">
        <ele>535.998657</ele>
        <time>2016-09-25T08:47:19Z</time>
      </trkpt>
      <trkpt lat="45.71178" lon="4.64384">
        <ele>535.936218</ele>
        <time>2016-09-25T08:47:21Z</time>
      </trkpt>
      <trkpt lat="45.71175" lon="4.64394">
        <ele>535.876465</ele>
        <time>2016-09-25T08:47:23Z</time>
      </trkpt>
      <trkpt lat="45.71172" lon="4.64405">
        <ele>535.641235</ele>
        <time>2016-09-25T08:47:25Z</time>
      </trkpt>
      <trkpt lat="45.71164" lon="4.64413">
        <ele>535.570679</ele>
        <time>2016-09-25T08:47:27Z</time>
      </trkpt>
      <trkpt lat="45.71153" lon="4.64416">
        <ele>535.284485</ele>
        <time>2016-09-25T08:47:29Z</time>
      </trkpt>
      <trkpt lat="45.71142" lon="4.64419">
        <ele>534.957825</ele>
        <time>2016-09-25T08:47:31Z</time>
      </trkpt>
      <trkpt lat="45.7113" lon="4.64424">
        <ele>534.807434</ele>
        <time>2016-09-25T08:47:33Z</time>
      </trkpt>
      <trkpt lat="45.71118" lon="4.64432">
        <ele>534.436157</ele>
        <time>2016-09-25T08:47:35Z</time>
      </trkpt>
      <trkpt lat="45.71106" lon="4.64442">
        <ele>534.268372</ele>
        <time>2016-09-25T08:47:37Z</time>
      </trkpt>
      <trkpt lat="45.71094" lon="4.64452">
        <ele>533.981567</ele>
        <time>2016-09-25T08:47:39Z</time>
      </trkpt>
      <trkpt lat="45.71084" lon="4.64463">
        <ele>533.796265</ele>
        <time>2016-09-25T08:47:41Z</time>
      </trkpt>
      <trkpt lat="45.71073" lon="4.64474">
        <ele>533.59375</ele>
        <time>2016-09-25T08:47:43Z</time>
      </trkpt>
      <trkpt lat="45.71066" lon="4.64489">
        <ele>533.149414</ele>
        <time>2016-09-25T08:47:45Z</time>
      </trkpt>
      <trkpt lat="45.71064" lon="4.64501">
        <ele>533.078247</ele>
        <time>2016-09-25T08:47:47Z</time>
      </trkpt>
      <trkpt lat="45.71064" lon="4.64511">
        <ele>532.686157</ele>
        <time>2016-09-25T08:47:49Z</time>
      </trkpt>
      <trkpt lat="45.71064" lon="4.64517">
        <ele>532.379395</ele>
        <time>2016-09-25T08:47:51Z</time>
      </trkpt>
      <trkpt lat="45.71063" lon="4.64522">
        <ele>532.239563</ele>
        <time>2016-09-25T08:47:53Z</time>
      </trkpt>
      <trkpt lat="45.71063" lon="4.64527">
        <ele>532.172058</ele>
        <time>2016-09-25T08:47:55Z</time>
      </trkpt>
      <trkpt lat="45.71063" lon="4.6453">
        <ele>532.19165</ele>
        <time>2016-09-25T08:47:57Z</time>
      </trkpt>
      <trkpt lat="45.71062" lon="4.64534">
        <ele>532.107178</ele>
        <time>2016-09-25T08:47:59Z</time>
      </trkpt>
      <trkpt lat="45.71061" lon="4.64538">
        <ele>531.922974</ele>
        <time>2016-09-25T08:48:01Z</time>
      </trkpt>
      <trkpt lat="45.7106" lon="4.64542">
        <ele>531.894653</ele>
        <time>2016-09-25T08:48:03Z</time>
      </trkpt>
      <trkpt lat="45.71059" lon="4.64545">
        <ele>531.984863</ele>
        <time>2016-09-25T08:48:05Z</time>
      </trkpt>
      <trkpt lat="45.71059" lon="4.64549">
        <ele>532.231079</ele>
        <time>2016-09-25T08:48:07Z</time>
      </trkpt>
      <trkpt lat="45.71058" lon="4.64553">
        <ele>532.246277</ele>
        <time>2016-09-25T08:48:09Z</time>
      </trkpt>
      <trkpt lat="45.71055" lon="4.64557">
        <ele>532.719116</ele>
        <time>2016-09-25T08:48:11Z</time>
      </trkpt>
      <trkpt lat="45.71053" lon="4.6456">
        <ele>533.090942</ele>
        <time>2016-09-25T08:48:13Z</time>
      </trkpt>
      <trkpt lat="45.71051" lon="4.64564">
        <ele>533.347473</ele>
        <time>2016-09-25T08:48:15Z</time>
      </trkpt>
      <trkpt lat="45.7105" lon="4.64567">
        <ele>533.931274</ele>
        <time>2016-09-25T08:48:17Z</time>
      </trkpt>
      <trkpt lat="45.71049" lon="4.64573">
        <ele>534.735229</ele>
        <time>2016-09-25T08:48:21Z</time>
      </trkpt>
      <trkpt lat="45.71047" lon="4.64577">
        <ele>535.127563</ele>
        <time>2016-09-25T08:48:23Z</time>
      </trkpt>
      <trkpt lat="45.71047" lon="4.64581">
        <ele>535.227722</ele>
        <time>2016-09-25T08:48:25Z</time>
      </trkpt>
      <trkpt lat="45.71046" lon="4.64585">
        <ele>535.886902</ele>
        <time>2016-09-25T08:48:27Z</time>
      </trkpt>
      <trkpt lat="45.71046" lon="4.64588">
        <ele>536.176453</ele>
        <time>2016-09-25T08:48:29Z</time>
      </trkpt>
      <trkpt lat="45.71045" lon="4.64592">
        <ele>536.734192</ele>
        <time>2016-09-25T08:48:31Z</time>
      </trkpt>
      <trkpt lat="45.71045" lon="4.64596">
        <ele>537.252808</ele>
        <time>2016-09-25T08:48:33Z</time>
      </trkpt>
      <trkpt lat="45.71044" lon="4.646">
        <ele>537.584595</ele>
        <time>2016-09-25T08:48:35Z</time>
      </trkpt>
      <trkpt lat="45.71044" lon="4.64603">
        <ele>537.915833</ele>
        <time>2016-09-25T08:48:37Z</time>
      </trkpt>
      <trkpt lat="45.71043" lon="4.64608">
        <ele>538.227539</ele>
        <time>2016-09-25T08:48:39Z</time>
      </trkpt>
      <trkpt lat="45.71043" lon="4.64612">
        <ele>538.412781</ele>
        <time>2016-09-25T08:48:41Z</time>
      </trkpt>
      <trkpt lat="45.71043" lon="4.64615">
        <ele>538.771484</ele>
        <time>2016-09-25T08:48:43Z</time>
      </trkpt>
      <trkpt lat="45.71043" lon="4.64619">
        <ele>539.155029</ele>
        <time>2016-09-25T08:48:45Z</time>
      </trkpt>
      <trkpt lat="45.71042" lon="4.64622">
        <ele>539.447144</ele>
        <time>2016-09-25T08:48:47Z</time>
      </trkpt>
      <trkpt lat="45.71041" lon="4.64626">
        <ele>539.785034</ele>
        <time>2016-09-25T08:48:49Z</time>
      </trkpt>
      <trkpt lat="45.7104" lon="4.6463">
        <ele>540.083435</ele>
        <time>2016-09-25T08:48:51Z</time>
      </trkpt>
      <trkpt lat="45.71039" lon="4.64635">
        <ele>540.209839</ele>
        <time>2016-09-25T08:48:53Z</time>
      </trkpt>
      <trkpt lat="45.71038" lon="4.64639">
        <ele>540.446167</ele>
        <time>2016-09-25T08:48:55Z</time>
      </trkpt>
      <trkpt lat="45.71038" lon="4.64643">
        <ele>540.672913</ele>
        <time>2016-09-25T08:48:57Z</time>
      </trkpt>
      <trkpt lat="45.71037" lon="4.64647">
        <ele>540.975952</ele>
        <time>2016-09-25T08:48:59Z</time>
      </trkpt>
      <trkpt lat="45.71037" lon="4.64652">
        <ele>541.152466</ele>
        <time>2016-09-25T08:49:01Z</time>
      </trkpt>
      <trkpt lat="45.71035" lon="4.64656">
        <ele>541.346558</ele>
        <time>2016-09-25T08:49:03Z</time>
      </trkpt>
      <trkpt lat="45.71034" lon="4.6466">
        <ele>541.388062</ele>
        <time>2016-09-25T08:49:05Z</time>
      </trkpt>
      <trkpt lat="45.71033" lon="4.64665">
        <ele>541.665405</ele>
        <time>2016-09-25T08:49:07Z</time>
      </trkpt>
      <trkpt lat="45.71034" lon="4.6467">
        <ele>541.829834</ele>
        <time>2016-09-25T08:49:09Z</time>
      </trkpt>
      <trkpt lat="45.71034" lon="4.64674">
        <ele>542.046448</ele>
        <time>2016-09-25T08:49:11Z</time>
      </trkpt>
      <trkpt lat="45.71035" lon="4.64678">
        <ele>542.302185</ele>
        <time>2016-09-25T08:49:13Z</time>
      </trkpt>
      <trkpt lat="45.71037" lon="4.64682">
        <ele>542.435181</ele>
        <time>2016-09-25T08:49:15Z</time>
      </trkpt>
      <trkpt lat="45.71038" lon="4.64685">
        <ele>542.809937</ele>
        <time>2016-09-25T08:49:17Z</time>
      </trkpt>
      <trkpt lat="45.7104" lon="4.64688">
        <ele>542.990845</ele>
        <time>2016-09-25T08:49:19Z</time>
      </trkpt>
      <trkpt lat="45.71041" lon="4.64691">
        <ele>543.139221</ele>
        <time>2016-09-25T08:49:21Z</time>
      </trkpt>
      <trkpt lat="45.71042" lon="4.64696">
        <ele>543.40564</ele>
        <time>2016-09-25T08:49:23Z</time>
      </trkpt>
      <trkpt lat="45.71043" lon="4.64699">
        <ele>543.547485</ele>
        <time>2016-09-25T08:49:25Z</time>
      </trkpt>
      <trkpt lat="45.71044" lon="4.64702">
        <ele>543.678345</ele>
        <time>2016-09-25T08:49:27Z</time>
      </trkpt>
      <trkpt lat="45.71046" lon="4.64706">
        <ele>543.946655</ele>
        <time>2016-09-25T08:49:29Z</time>
      </trkpt>
      <trkpt lat="45.71047" lon="4.64709">
        <ele>544.243347</ele>
        <time>2016-09-25T08:49:31Z</time>
      </trkpt>
      <trkpt lat="45.71048" lon="4.64713">
        <ele>544.598999</ele>
        <time>2016-09-25T08:49:33Z</time>
      </trkpt>
      <trkpt lat="45.71049" lon="4.64717">
        <ele>544.89209</ele>
        <time>2016-09-25T08:49:35Z</time>
      </trkpt>
      <trkpt lat="45.7105" lon="4.6472">
        <ele>545.206055</ele>
        <time>2016-09-25T08:49:37Z</time>
      </trkpt>
      <trkpt lat="45.71051" lon="4.64724">
        <ele>545.504395</ele>
        <time>2016-09-25T08:49:39Z</time>
      </trkpt>
      <trkpt lat="45.71053" lon="4.64728">
        <ele>545.685425</ele>
        <time>2016-09-25T08:49:41Z</time>
      </trkpt>
      <trkpt lat="45.71054" lon="4.64732">
        <ele>546.078247</ele>
        <time>2016-09-25T08:49:43Z</time>
      </trkpt>
      <trkpt lat="45.71055" lon="4.64736">
        <ele>546.418579</ele>
        <time>2016-09-25T08:49:45Z</time>
      </trkpt>
      <trkpt lat="45.71056" lon="4.6474">
        <ele>546.876282</ele>
        <time>2016-09-25T08:49:47Z</time>
      </trkpt>
      <trkpt lat="45.71057" lon="4.64744">
        <ele>547.242798</ele>
        <time>2016-09-25T08:49:49Z</time>
      </trkpt>
      <trkpt lat="45.71058" lon="4.64748">
        <ele>547.469727</ele>
        <time>2016-09-25T08:49:51Z</time>
      </trkpt>
      <trkpt lat="45.71059" lon="4.64752">
        <ele>547.835815</ele>
        <time>2016-09-25T08:49:53Z</time>
      </trkpt>
      <trkpt lat="45.7106" lon="4.64756">
        <ele>548.152344</ele>
        <time>2016-09-25T08:49:55Z</time>
      </trkpt>
      <trkpt lat="45.71061" lon="4.6476">
        <ele>548.570435</ele>
        <time>2016-09-25T08:49:57Z</time>
      </trkpt>
      <trkpt lat="45.71062" lon="4.64764">
        <ele>548.809875</ele>
        <time>2016-09-25T08:49:59Z</time>
      </trkpt>
      <trkpt lat="45.71063" lon="4.64768">
        <ele>549.173218</ele>
        <time>2016-09-25T08:50:01Z</time>
      </trkpt>
      <trkpt lat="45.71064" lon="4.64772">
        <ele>549.548523</ele>
        <time>2016-09-25T08:50:03Z</time>
      </trkpt>
      <trkpt lat="45.71065" lon="4.64775">
        <ele>549.867065</ele>
        <time>2016-09-25T08:50:05Z</time>
      </trkpt>
      <trkpt lat="45.71066" lon="4.64779">
        <ele>550.170532</ele>
        <time>2016-09-25T08:50:07Z</time>
      </trkpt>
      <trkpt lat="45.71067" lon="4.64782">
        <ele>550.628784</ele>
        <time>2016-09-25T08:50:09Z</time>
      </trkpt>
      <trkpt lat="45.71068" lon="4.64786">
        <ele>550.98877</ele>
        <time>2016-09-25T08:50:11Z</time>
      </trkpt>
      <trkpt lat="45.71069" lon="4.6479">
        <ele>551.119812</ele>
        <time>2016-09-25T08:50:13Z</time>
      </trkpt>
      <trkpt lat="45.7107" lon="4.64794">
        <ele>551.45105</ele>
        <time>2016-09-25T08:50:15Z</time>
      </trkpt>
      <trkpt lat="45.71071" lon="4.64798">
        <ele>551.742004</ele>
        <time>2016-09-25T08:50:17Z</time>
      </trkpt>
      <trkpt lat="45.71072" lon="4.64802">
        <ele>552.113098</ele>
        <time>2016-09-25T08:50:19Z</time>
      </trkpt>
      <trkpt lat="45.71073" lon="4.64806">
        <ele>552.497681</ele>
        <time>2016-09-25T08:50:21Z</time>
      </trkpt>
      <trkpt lat="45.71073" lon="4.64811">
        <ele>552.945129</ele>
        <time>2016-09-25T08:50:23Z</time>
      </trkpt>
      <trkpt lat="45.71074" lon="4.64816">
        <ele>553.236023</ele>
        <time>2016-09-25T08:50:25Z</time>
      </trkpt>
      <trkpt lat="45.71075" lon="4.64821">
        <ele>553.522644</ele>
        <time>2016-09-25T08:50:27Z</time>
      </trkpt>
      <trkpt lat="45.71076" lon="4.64826">
        <ele>553.725708</ele>
        <time>2016-09-25T08:50:29Z</time>
      </trkpt>
      <trkpt lat="45.71077" lon="4.64831">
        <ele>553.989868</ele>
        <time>2016-09-25T08:50:31Z</time>
      </trkpt>
      <trkpt lat="45.71078" lon="4.64836">
        <ele>554.334167</ele>
        <time>2016-09-25T08:50:33Z</time>
      </trkpt>
      <trkpt lat="45.71079" lon="4.64841">
        <ele>554.610657</ele>
        <time>2016-09-25T08:50:35Z</time>
      </trkpt>
      <trkpt lat="45.7108" lon="4.64846">
        <ele>554.966492</ele>
        <time>2016-09-25T08:50:37Z</time>
      </trkpt>
      <trkpt lat="45.7108" lon="4.64852">
        <ele>555.144226</ele>
        <time>2016-09-25T08:50:39Z</time>
      </trkpt>
      <trkpt lat="45.7108" lon="4.64857">
        <ele>555.380554</ele>
        <time>2016-09-25T08:50:41Z</time>
      </trkpt>
      <trkpt lat="45.71082" lon="4.64862">
        <ele>555.754883</ele>
        <time>2016-09-25T08:50:43Z</time>
      </trkpt>
      <trkpt lat="45.71083" lon="4.64867">
        <ele>556.110718</ele>
        <time>2016-09-25T08:50:45Z</time>
      </trkpt>
      <trkpt lat="45.71083" lon="4.64872">
        <ele>556.43634</ele>
        <time>2016-09-25T08:50:47Z</time>
      </trkpt>
      <trkpt lat="45.71083" lon="4.64877">
        <ele>556.704834</ele>
        <time>2016-09-25T08:50:49Z</time>
      </trkpt>
      <trkpt lat="45.71083" lon="4.64882">
        <ele>556.935913</ele>
        <time>2016-09-25T08:50:51Z</time>
      </trkpt>
      <trkpt lat="45.71083" lon="4.64887">
        <ele>557.363892</ele>
        <time>2016-09-25T08:50:53Z</time>
      </trkpt>
      <trkpt lat="45.71084" lon="4.64891">
        <ele>557.707214</ele>
        <time>2016-09-25T08:50:55Z</time>
      </trkpt>
      <trkpt lat="45.71085" lon="4.64895">
        <ele>557.974365</ele>
        <time>2016-09-25T08:50:57Z</time>
      </trkpt>
      <trkpt lat="45.71085" lon="4.64899">
        <ele>558.358704</ele>
        <time>2016-09-25T08:50:59Z</time>
      </trkpt>
      <trkpt lat="45.71085" lon="4.64903">
        <ele>558.616455</ele>
        <time>2016-09-25T08:51:01Z</time>
      </trkpt>
      <trkpt lat="45.71086" lon="4.64906">
        <ele>558.778015</ele>
        <time>2016-09-25T08:51:03Z</time>
      </trkpt>
      <trkpt lat="45.71088" lon="4.6491">
        <ele>558.920044</ele>
        <time>2016-09-25T08:51:05Z</time>
      </trkpt>
      <trkpt lat="45.71089" lon="4.64914">
        <ele>559.239258</ele>
        <time>2016-09-25T08:51:07Z</time>
      </trkpt>
      <trkpt lat="45.7109" lon="4.64918">
        <ele>559.526917</ele>
        <time>2016-09-25T08:51:09Z</time>
      </trkpt>
      <trkpt lat="45.7109" lon="4.64923">
        <ele>559.902649</ele>
        <time>2016-09-25T08:51:11Z</time>
      </trkpt>
      <trkpt lat="45.71091" lon="4.64927">
        <ele>560.210449</ele>
        <time>2016-09-25T08:51:13Z</time>
      </trkpt>
      <trkpt lat="45.71092" lon="4.64932">
        <ele>560.538208</ele>
        <time>2016-09-25T08:51:15Z</time>
      </trkpt>
      <trkpt lat="45.71092" lon="4.64936">
        <ele>560.83313</ele>
        <time>2016-09-25T08:51:17Z</time>
      </trkpt>
      <trkpt lat="45.71093" lon="4.64941">
        <ele>561.077759</ele>
        <time>2016-09-25T08:51:19Z</time>
      </trkpt>
      <trkpt lat="45.71095" lon="4.64946">
        <ele>561.370483</ele>
        <time>2016-09-25T08:51:21Z</time>
      </trkpt>
      <trkpt lat="45.71095" lon="4.64952">
        <ele>561.6698</ele>
        <time>2016-09-25T08:51:23Z</time>
      </trkpt>
      <trkpt lat="45.71096" lon="4.64958">
        <ele>561.95166</ele>
        <time>2016-09-25T08:51:25Z</time>
      </trkpt>
      <trkpt lat="45.71096" lon="4.64964">
        <ele>562.33844</ele>
        <time>2016-09-25T08:51:27Z</time>
      </trkpt>
      <trkpt lat="45.71097" lon="4.64972">
        <ele>562.521667</ele>
        <time>2016-09-25T08:51:29Z</time>
      </trkpt>
      <trkpt lat="45.71097" lon="4.64981">
        <ele>562.740112</ele>
        <time>2016-09-25T08:51:31Z</time>
      </trkpt>
      <trkpt lat="45.71095" lon="4.64991">
        <ele>563.022339</ele>
        <time>2016-09-25T08:51:33Z</time>
      </trkpt>
      <trkpt lat="45.71093" lon="4.65002">
        <ele>563.085754</ele>
        <time>2016-09-25T08:51:35Z</time>
      </trkpt>
      <trkpt lat="45.71096" lon="4.65014">
        <ele>563.199341</ele>
        <time>2016-09-25T08:51:37Z</time>
      </trkpt>
      <trkpt lat="45.71098" lon="4.65026">
        <ele>563.448425</ele>
        <time>2016-09-25T08:51:39Z</time>
      </trkpt>
      <trkpt lat="45.71095" lon="4.65035">
        <ele>563.677856</ele>
        <time>2016-09-25T08:51:41Z</time>
      </trkpt>
      <trkpt lat="45.71094" lon="4.65047">
        <ele>563.806824</ele>
        <time>2016-09-25T08:51:43Z</time>
      </trkpt>
      <trkpt lat="45.71093" lon="4.65061">
        <ele>564.152039</ele>
        <time>2016-09-25T08:51:45Z</time>
      </trkpt>
      <trkpt lat="45.71091" lon="4.65075">
        <ele>563.860657</ele>
        <time>2016-09-25T08:51:47Z</time>
      </trkpt>
      <trkpt lat="45.71087" lon="4.65088">
        <ele>563.68811</ele>
        <time>2016-09-25T08:51:49Z</time>
      </trkpt>
      <trkpt lat="45.71085" lon="4.65103">
        <ele>563.716492</ele>
        <time>2016-09-25T08:51:51Z</time>
      </trkpt>
      <trkpt lat="45.71083" lon="4.6512">
        <ele>563.570129</ele>
        <time>2016-09-25T08:51:53Z</time>
      </trkpt>
      <trkpt lat="45.71081" lon="4.65136">
        <ele>563.530945</ele>
        <time>2016-09-25T08:51:55Z</time>
      </trkpt>
      <trkpt lat="45.71079" lon="4.6515">
        <ele>563.270813</ele>
        <time>2016-09-25T08:51:57Z</time>
      </trkpt>
      <trkpt lat="45.71076" lon="4.65164">
        <ele>562.79657</ele>
        <time>2016-09-25T08:51:59Z</time>
      </trkpt>
      <trkpt lat="45.71073" lon="4.65177">
        <ele>562.004089</ele>
        <time>2016-09-25T08:52:01Z</time>
      </trkpt>
      <trkpt lat="45.7107" lon="4.65191">
        <ele>561.12207</ele>
        <time>2016-09-25T08:52:03Z</time>
      </trkpt>
      <trkpt lat="45.71069" lon="4.65201">
        <ele>560.395874</ele>
        <time>2016-09-25T08:52:05Z</time>
      </trkpt>
      <trkpt lat="45.71065" lon="4.6521">
        <ele>559.676392</ele>
        <time>2016-09-25T08:52:07Z</time>
      </trkpt>
      <trkpt lat="45.71062" lon="4.65226">
        <ele>558.575867</ele>
        <time>2016-09-25T08:52:09Z</time>
      </trkpt>
      <trkpt lat="45.71058" lon="4.65248">
        <ele>557.521606</ele>
        <time>2016-09-25T08:52:11Z</time>
      </trkpt>
      <trkpt lat="45.71054" lon="4.65265">
        <ele>556.602417</ele>
        <time>2016-09-25T08:52:13Z</time>
      </trkpt>
      <trkpt lat="45.7105" lon="4.65279">
        <ele>555.304016</ele>
        <time>2016-09-25T08:52:15Z</time>
      </trkpt>
      <trkpt lat="45.71045" lon="4.65294">
        <ele>554.706055</ele>
        <time>2016-09-25T08:52:17Z</time>
      </trkpt>
      <trkpt lat="45.7104" lon="4.65309">
        <ele>553.317261</ele>
        <time>2016-09-25T08:52:19Z</time>
      </trkpt>
      <trkpt lat="45.71037" lon="4.65323">
        <ele>551.977356</ele>
        <time>2016-09-25T08:52:21Z</time>
      </trkpt>
      <trkpt lat="45.71031" lon="4.65336">
        <ele>550.447937</ele>
        <time>2016-09-25T08:52:23Z</time>
      </trkpt>
      <trkpt lat="45.71029" lon="4.65352">
        <ele>548.763367</ele>
        <time>2016-09-25T08:52:25Z</time>
      </trkpt>
      <trkpt lat="45.71028" lon="4.65365">
        <ele>546.47998</ele>
        <time>2016-09-25T08:52:27Z</time>
      </trkpt>
      <trkpt lat="45.71027" lon="4.65378">
        <ele>545.310181</ele>
        <time>2016-09-25T08:52:29Z</time>
      </trkpt>
      <trkpt lat="45.71024" lon="4.65389">
        <ele>543.286987</ele>
        <time>2016-09-25T08:52:31Z</time>
      </trkpt>
      <trkpt lat="45.71021" lon="4.65399">
        <ele>541.176086</ele>
        <time>2016-09-25T08:52:33Z</time>
      </trkpt>
      <trkpt lat="45.71017" lon="4.65404">
        <ele>539.430664</ele>
        <time>2016-09-25T08:52:35Z</time>
      </trkpt>
      <trkpt lat="45.71011" lon="4.65405">
        <ele>537.389771</ele>
        <time>2016-09-25T08:52:37Z</time>
      </trkpt>
      <trkpt lat="45.71006" lon="4.65411">
        <ele>531.0578</ele>
        <time>2016-09-25T08:52:47Z</time>
      </trkpt>
      <trkpt lat="45.71008" lon="4.65413">
        <ele>529.717407</ele>
        <time>2016-09-25T08:52:49Z</time>
      </trkpt>
      <trkpt lat="45.71008" lon="4.65416">
        <ele>528.583252</ele>
        <time>2016-09-25T08:52:51Z</time>
      </trkpt>
      <trkpt lat="45.71009" lon="4.65417">
        <ele>521.551819</ele>
        <time>2016-09-25T08:58:17Z</time>
      </trkpt>
      <trkpt lat="45.71011" lon="4.65419">
        <ele>521.423279</ele>
        <time>2016-09-25T08:58:19Z</time>
      </trkpt>
      <trkpt lat="45.7101" lon="4.65423">
        <ele>521.487427</ele>
        <time>2016-09-25T08:58:21Z</time>
      </trkpt>
      <trkpt lat="45.71007" lon="4.65429">
        <ele>521.533691</ele>
        <time>2016-09-25T08:58:23Z</time>
      </trkpt>
      <trkpt lat="45.71003" lon="4.65436">
        <ele>521.511902</ele>
        <time>2016-09-25T08:58:25Z</time>
      </trkpt>
      <trkpt lat="45.70998" lon="4.65442">
        <ele>521.360962</ele>
        <time>2016-09-25T08:58:27Z</time>
      </trkpt>
      <trkpt lat="45.70993" lon="4.65452">
        <ele>521.036621</ele>
        <time>2016-09-25T08:58:29Z</time>
      </trkpt>
      <trkpt lat="45.70986" lon="4.65461">
        <ele>520.634155</ele>
        <time>2016-09-25T08:58:31Z</time>
      </trkpt>
      <trkpt lat="45.70981" lon="4.65471">
        <ele>520.597351</ele>
        <time>2016-09-25T08:58:33Z</time>
      </trkpt>
      <trkpt lat="45.70973" lon="4.65477">
        <ele>520.264587</ele>
        <time>2016-09-25T08:58:35Z</time>
      </trkpt>
      <trkpt lat="45.70963" lon="4.65479">
        <ele>520.02771</ele>
        <time>2016-09-25T08:58:37Z</time>
      </trkpt>
      <trkpt lat="45.70954" lon="4.65486">
        <ele>519.386169</ele>
        <time>2016-09-25T08:58:39Z</time>
      </trkpt>
      <trkpt lat="45.70944" lon="4.65489">
        <ele>518.789917</ele>
        <time>2016-09-25T08:58:41Z</time>
      </trkpt>
      <trkpt lat="45.70935" lon="4.65496">
        <ele>517.976685</ele>
        <time>2016-09-25T08:58:43Z</time>
      </trkpt>
      <trkpt lat="45.70925" lon="4.65503">
        <ele>517.109131</ele>
        <time>2016-09-25T08:58:45Z</time>
      </trkpt>
      <trkpt lat="45.70916" lon="4.65508">
        <ele>516.243835</ele>
        <time>2016-09-25T08:58:47Z</time>
      </trkpt>
      <trkpt lat="45.70908" lon="4.65514">
        <ele>513.996948</ele>
        <time>2016-09-25T08:58:49Z</time>
      </trkpt>
      <trkpt lat="45.70903" lon="4.65519">
        <ele>512.619019</ele>
        <time>2016-09-25T08:58:51Z</time>
      </trkpt>
      <trkpt lat="45.70897" lon="4.65523">
        <ele>511.05072</ele>
        <time>2016-09-25T08:58:53Z</time>
      </trkpt>
      <trkpt lat="45.70889" lon="4.65526">
        <ele>509.928955</ele>
        <time>2016-09-25T08:58:55Z</time>
      </trkpt>
      <trkpt lat="45.7088" lon="4.65529">
        <ele>508.535797</ele>
        <time>2016-09-25T08:58:57Z</time>
      </trkpt>
      <trkpt lat="45.70872" lon="4.65533">
        <ele>507.666687</ele>
        <time>2016-09-25T08:58:59Z</time>
      </trkpt>
      <trkpt lat="45.70864" lon="4.65536">
        <ele>505.998474</ele>
        <time>2016-09-25T08:59:01Z</time>
      </trkpt>
      <trkpt lat="45.70858" lon="4.65537">
        <ele>504.326416</ele>
        <time>2016-09-25T08:59:03Z</time>
      </trkpt>
      <trkpt lat="45.70852" lon="4.65537">
        <ele>502.717224</ele>
        <time>2016-09-25T08:59:05Z</time>
      </trkpt>
      <trkpt lat="45.70841" lon="4.65542">
        <ele>500.957764</ele>
        <time>2016-09-25T08:59:07Z</time>
      </trkpt>
      <trkpt lat="45.70832" lon="4.65546">
        <ele>499.029541</ele>
        <time>2016-09-25T08:59:09Z</time>
      </trkpt>
      <trkpt lat="45.70824" lon="4.65551">
        <ele>497.724457</ele>
        <time>2016-09-25T08:59:11Z</time>
      </trkpt>
      <trkpt lat="45.70815" lon="4.65557">
        <ele>496.329498</ele>
        <time>2016-09-25T08:59:13Z</time>
      </trkpt>
      <trkpt lat="45.70807" lon="4.65564">
        <ele>494.517395</ele>
        <time>2016-09-25T08:59:15Z</time>
      </trkpt>
      <trkpt lat="45.708" lon="4.65573">
        <ele>492.665466</ele>
        <time>2016-09-25T08:59:17Z</time>
      </trkpt>
      <trkpt lat="45.70796" lon="4.65583">
        <ele>490.913971</ele>
        <time>2016-09-25T08:59:19Z</time>
      </trkpt>
      <trkpt lat="45.70789" lon="4.65594">
        <ele>488.944672</ele>
        <time>2016-09-25T08:59:21Z</time>
      </trkpt>
      <trkpt lat="45.70783" lon="4.65604">
        <ele>487.252991</ele>
        <time>2016-09-25T08:59:23Z</time>
      </trkpt>
      <trkpt lat="45.70777" lon="4.65613">
        <ele>485.706879</ele>
        <time>2016-09-25T08:59:25Z</time>
      </trkpt>
      <trkpt lat="45.70773" lon="4.65624">
        <ele>484.628906</ele>
        <time>2016-09-25T08:59:27Z</time>
      </trkpt>
      <trkpt lat="45.70769" lon="4.65631">
        <ele>483.03009</ele>
        <time>2016-09-25T08:59:29Z</time>
      </trkpt>
      <trkpt lat="45.70766" lon="4.65642">
        <ele>482.552643</ele>
        <time>2016-09-25T08:59:31Z</time>
      </trkpt>
      <trkpt lat="45.70762" lon="4.65656">
        <ele>481.394958</ele>
        <time>2016-09-25T08:59:33Z</time>
      </trkpt>
      <trkpt lat="45.70757" lon="4.65665">
        <ele>480.00293</ele>
        <time>2016-09-25T08:59:35Z</time>
      </trkpt>
      <trkpt lat="45.70752" lon="4.65674">
        <ele>478.054352</ele>
        <time>2016-09-25T08:59:37Z</time>
      </trkpt>
      <trkpt lat="45.70747" lon="4.65685">
        <ele>476.559479</ele>
        <time>2016-09-25T08:59:39Z</time>
      </trkpt>
      <trkpt lat="45.7074" lon="4.6569">
        <ele>475.293762</ele>
        <time>2016-09-25T08:59:41Z</time>
      </trkpt>
      <trkpt lat="45.70732" lon="4.65687">
        <ele>473.777924</ele>
        <time>2016-09-25T08:59:43Z</time>
      </trkpt>
      <trkpt lat="45.70723" lon="4.65682">
        <ele>472.112549</ele>
        <time>2016-09-25T08:59:45Z</time>
      </trkpt>
      <trkpt lat="45.70712" lon="4.65677">
        <ele>470.403564</ele>
        <time>2016-09-25T08:59:47Z</time>
      </trkpt>
      <trkpt lat="45.707" lon="4.65669">
        <ele>469.260681</ele>
        <time>2016-09-25T08:59:49Z</time>
      </trkpt>
      <trkpt lat="45.70689" lon="4.6566">
        <ele>467.656097</ele>
        <time>2016-09-25T08:59:51Z</time>
      </trkpt>
      <trkpt lat="45.70683" lon="4.65662">
        <ele>466.65567</ele>
        <time>2016-09-25T08:59:53Z</time>
      </trkpt>
      <trkpt lat="45.7068" lon="4.65674">
        <ele>465.176605</ele>
        <time>2016-09-25T08:59:55Z</time>
      </trkpt>
      <trkpt lat="45.70679" lon="4.65692">
        <ele>463.65274</ele>
        <time>2016-09-25T08:59:57Z</time>
      </trkpt>
      <trkpt lat="45.70678" lon="4.65713">
        <ele>462.121033</ele>
        <time>2016-09-25T08:59:59Z</time>
      </trkpt>
      <trkpt lat="45.70678" lon="4.65737">
        <ele>460.669189</ele>
        <time>2016-09-25T09:00:01Z</time>
      </trkpt>
      <trkpt lat="45.70677" lon="4.65764">
        <ele>459.8125</ele>
        <time>2016-09-25T09:00:03Z</time>
      </trkpt>
      <trkpt lat="45.70673" lon="4.65791">
        <ele>457.951508</ele>
        <time>2016-09-25T09:00:05Z</time>
      </trkpt>
      <trkpt lat="45.70665" lon="4.65816">
        <ele>456.502838</ele>
        <time>2016-09-25T09:00:07Z</time>
      </trkpt>
      <trkpt lat="45.70653" lon="4.65841">
        <ele>455.168518</ele>
        <time>2016-09-25T09:00:09Z</time>
      </trkpt>
      <trkpt lat="45.70646" lon="4.65869">
        <ele>453.648499</ele>
        <time>2016-09-25T09:00:11Z</time>
      </trkpt>
      <trkpt lat="45.70644" lon="4.65903">
        <ele>451.963135</ele>
        <time>2016-09-25T09:00:13Z</time>
      </trkpt>
      <trkpt lat="45.70642" lon="4.65938">
        <ele>450.220856</ele>
        <time>2016-09-25T09:00:15Z</time>
      </trkpt>
      <trkpt lat="45.70641" lon="4.65974">
        <ele>448.672119</ele>
        <time>2016-09-25T09:00:17Z</time>
      </trkpt>
      <trkpt lat="45.70641" lon="4.66012">
        <ele>447.829926</ele>
        <time>2016-09-25T09:00:19Z</time>
      </trkpt>
      <trkpt lat="45.7064" lon="4.66049">
        <ele>446.03833</ele>
        <time>2016-09-25T09:00:21Z</time>
      </trkpt>
      <trkpt lat="45.70638" lon="4.66085">
        <ele>444.118073</ele>
        <time>2016-09-25T09:00:23Z</time>
      </trkpt>
      <trkpt lat="45.7063" lon="4.66117">
        <ele>442.565735</ele>
        <time>2016-09-25T09:00:25Z</time>
      </trkpt>
      <trkpt lat="45.70619" lon="4.66147">
        <ele>440.435303</ele>
        <time>2016-09-25T09:00:27Z</time>
      </trkpt>
      <trkpt lat="45.70606" lon="4.66174">
        <ele>438.645752</ele>
        <time>2016-09-25T09:00:29Z</time>
      </trkpt>
      <trkpt lat="45.70596" lon="4.66197">
        <ele>436.738098</ele>
        <time>2016-09-25T09:00:31Z</time>
      </trkpt>
      <trkpt lat="45.70595" lon="4.66215">
        <ele>434.990143</ele>
        <time>2016-09-25T09:00:33Z</time>
      </trkpt>
      <trkpt lat="45.70604" lon="4.66227">
        <ele>433.092285</ele>
        <time>2016-09-25T09:00:35Z</time>
      </trkpt>
      <trkpt lat="45.70614" lon="4.66234">
        <ele>431.199554</ele>
        <time>2016-09-25T09:00:37Z</time>
      </trkpt>
      <trkpt lat="45.70626" lon="4.6624">
        <ele>429.816467</ele>
        <time>2016-09-25T09:00:39Z</time>
      </trkpt>
      <trkpt lat="45.70639" lon="4.66244">
        <ele>428.41391</ele>
        <time>2016-09-25T09:00:41Z</time>
      </trkpt>
      <trkpt lat="45.70652" lon="4.66248">
        <ele>426.408752</ele>
        <time>2016-09-25T09:00:43Z</time>
      </trkpt>
      <trkpt lat="45.70665" lon="4.66248">
        <ele>424.78241</ele>
        <time>2016-09-25T09:00:45Z</time>
      </trkpt>
      <trkpt lat="45.70676" lon="4.66239">
        <ele>423.025543</ele>
        <time>2016-09-25T09:00:47Z</time>
      </trkpt>
      <trkpt lat="45.70689" lon="4.66226">
        <ele>422.36319</ele>
        <time>2016-09-25T09:00:49Z</time>
      </trkpt>
      <trkpt lat="45.70701" lon="4.66218">
        <ele>420.440277</ele>
        <time>2016-09-25T09:00:51Z</time>
      </trkpt>
      <trkpt lat="45.70711" lon="4.66225">
        <ele>418.619385</ele>
        <time>2016-09-25T09:00:53Z</time>
      </trkpt>
      <trkpt lat="45.70718" lon="4.66239">
        <ele>417.46344</ele>
        <time>2016-09-25T09:00:55Z</time>
      </trkpt>
      <trkpt lat="45.70721" lon="4.66258">
        <ele>415.843079</ele>
        <time>2016-09-25T09:00:57Z</time>
      </trkpt>
      <trkpt lat="45.70718" lon="4.66278">
        <ele>414.6828</ele>
        <time>2016-09-25T09:00:59Z</time>
      </trkpt>
      <trkpt lat="45.70713" lon="4.66298">
        <ele>413.556976</ele>
        <time>2016-09-25T09:01:01Z</time>
      </trkpt>
      <trkpt lat="45.70706" lon="4.66317">
        <ele>412.631348</ele>
        <time>2016-09-25T09:01:03Z</time>
      </trkpt>
      <trkpt lat="45.70699" lon="4.66336">
        <ele>411.473633</ele>
        <time>2016-09-25T09:01:05Z</time>
      </trkpt>
      <trkpt lat="45.70692" lon="4.66357">
        <ele>410.358704</ele>
        <time>2016-09-25T09:01:07Z</time>
      </trkpt>
      <trkpt lat="45.70688" lon="4.6638">
        <ele>409.760071</ele>
        <time>2016-09-25T09:01:09Z</time>
      </trkpt>
      <trkpt lat="45.70683" lon="4.66403">
        <ele>409.426361</ele>
        <time>2016-09-25T09:01:11Z</time>
      </trkpt>
      <trkpt lat="45.7068" lon="4.66426">
        <ele>408.619446</ele>
        <time>2016-09-25T09:01:13Z</time>
      </trkpt>
      <trkpt lat="45.70677" lon="4.66448">
        <ele>407.923615</ele>
        <time>2016-09-25T09:01:15Z</time>
      </trkpt>
      <trkpt lat="45.70676" lon="4.66471">
        <ele>407.15744</ele>
        <time>2016-09-25T09:01:17Z</time>
      </trkpt>
      <trkpt lat="45.70676" lon="4.66492">
        <ele>406.315857</ele>
        <time>2016-09-25T09:01:19Z</time>
      </trkpt>
      <trkpt lat="45.70676" lon="4.66512">
        <ele>405.588074</ele>
        <time>2016-09-25T09:01:21Z</time>
      </trkpt>
      <trkpt lat="45.70676" lon="4.66532">
        <ele>404.591339</ele>
        <time>2016-09-25T09:01:23Z</time>
      </trkpt>
      <trkpt lat="45.70676" lon="4.66549">
        <ele>404.235962</ele>
        <time>2016-09-25T09:01:25Z</time>
      </trkpt>
      <trkpt lat="45.70675" lon="4.66565">
        <ele>403.671936</ele>
        <time>2016-09-25T09:01:27Z</time>
      </trkpt>
      <trkpt lat="45.70673" lon="4.66582">
        <ele>403.595581</ele>
        <time>2016-09-25T09:01:29Z</time>
      </trkpt>
      <trkpt lat="45.70671" lon="4.66598">
        <ele>403.378601</ele>
        <time>2016-09-25T09:01:31Z</time>
      </trkpt>
      <trkpt lat="45.7067" lon="4.66614">
        <ele>402.92688</ele>
        <time>2016-09-25T09:01:33Z</time>
      </trkpt>
      <trkpt lat="45.7067" lon="4.66629">
        <ele>402.555695</ele>
        <time>2016-09-25T09:01:35Z</time>
      </trkpt>
      <trkpt lat="45.70674" lon="4.66643">
        <ele>402.494904</ele>
        <time>2016-09-25T09:01:37Z</time>
      </trkpt>
      <trkpt lat="45.7068" lon="4.66657">
        <ele>402.200134</ele>
        <time>2016-09-25T09:01:39Z</time>
      </trkpt>
      <trkpt lat="45.70686" lon="4.66669">
        <ele>402.001221</ele>
        <time>2016-09-25T09:01:41Z</time>
      </trkpt>
      <trkpt lat="45.70692" lon="4.6668">
        <ele>401.619263</ele>
        <time>2016-09-25T09:01:43Z</time>
      </trkpt>
      <trkpt lat="45.70697" lon="4.6669">
        <ele>401.860199</ele>
        <time>2016-09-25T09:01:45Z</time>
      </trkpt>
      <trkpt lat="45.70704" lon="4.66698">
        <ele>401.797791</ele>
        <time>2016-09-25T09:01:47Z</time>
      </trkpt>
      <trkpt lat="45.7071" lon="4.66708">
        <ele>402.037659</ele>
        <time>2016-09-25T09:01:49Z</time>
      </trkpt>
      <trkpt lat="45.70717" lon="4.66718">
        <ele>401.50824</ele>
        <time>2016-09-25T09:01:51Z</time>
      </trkpt>
      <trkpt lat="45.70725" lon="4.66726">
        <ele>401.485016</ele>
        <time>2016-09-25T09:01:53Z</time>
      </trkpt>
      <trkpt lat="45.70733" lon="4.66734">
        <ele>401.506409</ele>
        <time>2016-09-25T09:01:55Z</time>
      </trkpt>
      <trkpt lat="45.70742" lon="4.66743">
        <ele>401.607513</ele>
        <time>2016-09-25T09:01:57Z</time>
      </trkpt>
      <trkpt lat="45.70751" lon="4.66752">
        <ele>401.814026</ele>
        <time>2016-09-25T09:01:59Z</time>
      </trkpt>
      <trkpt lat="45.70762" lon="4.66761">
        <ele>401.691498</ele>
        <time>2016-09-25T09:02:01Z</time>
      </trkpt>
      <trkpt lat="45.70773" lon="4.6677">
        <ele>401.315979</ele>
        <time>2016-09-25T09:02:03Z</time>
      </trkpt>
      <trkpt lat="45.70786" lon="4.6678">
        <ele>401.262207</ele>
        <time>2016-09-25T09:02:05Z</time>
      </trkpt>
      <trkpt lat="45.70799" lon="4.66788">
        <ele>401.044983</ele>
        <time>2016-09-25T09:02:07Z</time>
      </trkpt>
      <trkpt lat="45.70811" lon="4.66795">
        <ele>401.017151</ele>
        <time>2016-09-25T09:02:09Z</time>
      </trkpt>
      <trkpt lat="45.70823" lon="4.66803">
        <ele>400.26767</ele>
        <time>2016-09-25T09:02:11Z</time>
      </trkpt>
      <trkpt lat="45.70838" lon="4.66811">
        <ele>399.958191</ele>
        <time>2016-09-25T09:02:13Z</time>
      </trkpt>
      <trkpt lat="45.70855" lon="4.66821">
        <ele>399.832703</ele>
        <time>2016-09-25T09:02:15Z</time>
      </trkpt>
      <trkpt lat="45.7087" lon="4.6683">
        <ele>399.215973</ele>
        <time>2016-09-25T09:02:17Z</time>
      </trkpt>
      <trkpt lat="45.70881" lon="4.66843">
        <ele>399.020813</ele>
        <time>2016-09-25T09:02:19Z</time>
      </trkpt>
      <trkpt lat="45.70889" lon="4.66862">
        <ele>398.575745</ele>
        <time>2016-09-25T09:02:21Z</time>
      </trkpt>
      <trkpt lat="45.70894" lon="4.66883">
        <ele>397.696716</ele>
        <time>2016-09-25T09:02:23Z</time>
      </trkpt>
      <trkpt lat="45.70898" lon="4.66906">
        <ele>396.626556</ele>
        <time>2016-09-25T09:02:25Z</time>
      </trkpt>
      <trkpt lat="45.70903" lon="4.6693">
        <ele>395.343689</ele>
        <time>2016-09-25T09:02:27Z</time>
      </trkpt>
      <trkpt lat="45.70909" lon="4.66955">
        <ele>395.249084</ele>
        <time>2016-09-25T09:02:29Z</time>
      </trkpt>
      <trkpt lat="45.70915" lon="4.66979">
        <ele>394.695313</ele>
        <time>2016-09-25T09:02:31Z</time>
      </trkpt>
      <trkpt lat="45.70922" lon="4.67002">
        <ele>394.154205</ele>
        <time>2016-09-25T09:02:33Z</time>
      </trkpt>
      <trkpt lat="45.70928" lon="4.67023">
        <ele>393.00592</ele>
        <time>2016-09-25T09:02:35Z</time>
      </trkpt>
      <trkpt lat="45.70937" lon="4.67043">
        <ele>391.213104</ele>
        <time>2016-09-25T09:02:37Z</time>
      </trkpt>
      <trkpt lat="45.70947" lon="4.67064">
        <ele>390.458374</ele>
        <time>2016-09-25T09:02:39Z</time>
      </trkpt>
      <trkpt lat="45.70957" lon="4.67086">
        <ele>388.454834</ele>
        <time>2016-09-25T09:02:41Z</time>
      </trkpt>
      <trkpt lat="45.70966" lon="4.67107">
        <ele>386.916748</ele>
        <time>2016-09-25T09:02:43Z</time>
      </trkpt>
      <trkpt lat="45.70973" lon="4.67124">
        <ele>385.398438</ele>
        <time>2016-09-25T09:02:45Z</time>
      </trkpt>
      <trkpt lat="45.70977" lon="4.67135">
        <ele>383.926117</ele>
        <time>2016-09-25T09:02:47Z</time>
      </trkpt>
      <trkpt lat="45.70976" lon="4.67141">
        <ele>382.324738</ele>
        <time>2016-09-25T09:02:49Z</time>
      </trkpt>
      <trkpt lat="45.70971" lon="4.67143">
        <ele>381.340973</ele>
        <time>2016-09-25T09:02:51Z</time>
      </trkpt>
      <trkpt lat="45.70965" lon="4.67147">
        <ele>379.929077</ele>
        <time>2016-09-25T09:02:53Z</time>
      </trkpt>
      <trkpt lat="45.70958" lon="4.6715">
        <ele>378.194061</ele>
        <time>2016-09-25T09:02:55Z</time>
      </trkpt>
      <trkpt lat="45.70952" lon="4.67154">
        <ele>376.458862</ele>
        <time>2016-09-25T09:02:57Z</time>
      </trkpt>
      <trkpt lat="45.70944" lon="4.67157">
        <ele>375.218475</ele>
        <time>2016-09-25T09:02:59Z</time>
      </trkpt>
      <trkpt lat="45.70937" lon="4.6716">
        <ele>373.634216</ele>
        <time>2016-09-25T09:03:01Z</time>
      </trkpt>
      <trkpt lat="45.70931" lon="4.67163">
        <ele>372.259033</ele>
        <time>2016-09-25T09:03:03Z</time>
      </trkpt>
      <trkpt lat="45.70924" lon="4.67166">
        <ele>371.366608</ele>
        <time>2016-09-25T09:03:05Z</time>
      </trkpt>
      <trkpt lat="45.70917" lon="4.67168">
        <ele>370.622223</ele>
        <time>2016-09-25T09:03:07Z</time>
      </trkpt>
      <trkpt lat="45.70911" lon="4.67171">
        <ele>370.105225</ele>
        <time>2016-09-25T09:03:09Z</time>
      </trkpt>
      <trkpt lat="45.70905" lon="4.67174">
        <ele>368.843018</ele>
        <time>2016-09-25T09:03:11Z</time>
      </trkpt>
      <trkpt lat="45.70902" lon="4.6718">
        <ele>367.168457</ele>
        <time>2016-09-25T09:03:13Z</time>
      </trkpt>
      <trkpt lat="45.70902" lon="4.67188">
        <ele>366.949768</ele>
        <time>2016-09-25T09:03:15Z</time>
      </trkpt>
      <trkpt lat="45.70903" lon="4.67197">
        <ele>366.282166</ele>
        <time>2016-09-25T09:03:17Z</time>
      </trkpt>
      <trkpt lat="45.70903" lon="4.67205">
        <ele>366.275452</ele>
        <time>2016-09-25T09:03:19Z</time>
      </trkpt>
      <trkpt lat="45.70904" lon="4.67215">
        <ele>365.444916</ele>
        <time>2016-09-25T09:03:21Z</time>
      </trkpt>
      <trkpt lat="45.70905" lon="4.67225">
        <ele>365.629211</ele>
        <time>2016-09-25T09:03:23Z</time>
      </trkpt>
      <trkpt lat="45.70906" lon="4.67236">
        <ele>365.725647</ele>
        <time>2016-09-25T09:03:25Z</time>
      </trkpt>
      <trkpt lat="45.70907" lon="4.67246">
        <ele>365.755676</ele>
        <time>2016-09-25T09:03:27Z</time>
      </trkpt>
      <trkpt lat="45.7091" lon="4.67258">
        <ele>365.924988</ele>
        <time>2016-09-25T09:03:29Z</time>
      </trkpt>
      <trkpt lat="45.70913" lon="4.6727">
        <ele>366.092224</ele>
        <time>2016-09-25T09:03:31Z</time>
      </trkpt>
      <trkpt lat="45.70918" lon="4.67284">
        <ele>365.507904</ele>
        <time>2016-09-25T09:03:33Z</time>
      </trkpt>
      <trkpt lat="45.70924" lon="4.67298">
        <ele>366.344238</ele>
        <time>2016-09-25T09:03:35Z</time>
      </trkpt>
      <trkpt lat="45.70931" lon="4.67312">
        <ele>366.755676</ele>
        <time>2016-09-25T09:03:37Z</time>
      </trkpt>
      <trkpt lat="45.70938" lon="4.67326">
        <ele>367.068604</ele>
        <time>2016-09-25T09:03:39Z</time>
      </trkpt>
      <trkpt lat="45.70945" lon="4.6734">
        <ele>367.129059</ele>
        <time>2016-09-25T09:03:41Z</time>
      </trkpt>
      <trkpt lat="45.70952" lon="4.67354">
        <ele>367.137634</ele>
        <time>2016-09-25T09:03:43Z</time>
      </trkpt>
      <trkpt lat="45.70957" lon="4.67368">
        <ele>367.252838</ele>
        <time>2016-09-25T09:03:45Z</time>
      </trkpt>
      <trkpt lat="45.70961" lon="4.67382">
        <ele>367.309326</ele>
        <time>2016-09-25T09:03:47Z</time>
      </trkpt>
      <trkpt lat="45.70963" lon="4.67396">
        <ele>367.255768</ele>
        <time>2016-09-25T09:03:49Z</time>
      </trkpt>
      <trkpt lat="45.70963" lon="4.67409">
        <ele>366.92569</ele>
        <time>2016-09-25T09:03:51Z</time>
      </trkpt>
      <trkpt lat="45.70963" lon="4.67422">
        <ele>366.917328</ele>
        <time>2016-09-25T09:03:53Z</time>
      </trkpt>
      <trkpt lat="45.70962" lon="4.67434">
        <ele>366.923676</ele>
        <time>2016-09-25T09:03:55Z</time>
      </trkpt>
      <trkpt lat="45.70961" lon="4.67446">
        <ele>366.984467</ele>
        <time>2016-09-25T09:03:57Z</time>
      </trkpt>
      <trkpt lat="45.7096" lon="4.67458">
        <ele>367.175232</ele>
        <time>2016-09-25T09:03:59Z</time>
      </trkpt>
      <trkpt lat="45.70959" lon="4.6747">
        <ele>366.900818</ele>
        <time>2016-09-25T09:04:01Z</time>
      </trkpt>
      <trkpt lat="45.70958" lon="4.67482">
        <ele>366.759277</ele>
        <time>2016-09-25T09:04:03Z</time>
      </trkpt>
      <trkpt lat="45.70956" lon="4.67495">
        <ele>366.860077</ele>
        <time>2016-09-25T09:04:05Z</time>
      </trkpt>
      <trkpt lat="45.70955" lon="4.67509">
        <ele>366.875977</ele>
        <time>2016-09-25T09:04:07Z</time>
      </trkpt>
      <trkpt lat="45.70956" lon="4.67526">
        <ele>366.719513</ele>
        <time>2016-09-25T09:04:09Z</time>
      </trkpt>
      <trkpt lat="45.7096" lon="4.67545">
        <ele>366.743103</ele>
        <time>2016-09-25T09:04:11Z</time>
      </trkpt>
      <trkpt lat="45.70964" lon="4.67566">
        <ele>366.806946</ele>
        <time>2016-09-25T09:04:13Z</time>
      </trkpt>
      <trkpt lat="45.70969" lon="4.67588">
        <ele>367.095428</ele>
        <time>2016-09-25T09:04:15Z</time>
      </trkpt>
      <trkpt lat="45.70972" lon="4.67611">
        <ele>366.17984</ele>
        <time>2016-09-25T09:04:17Z</time>
      </trkpt>
      <trkpt lat="45.70976" lon="4.67635">
        <ele>365.946198</ele>
        <time>2016-09-25T09:04:19Z</time>
      </trkpt>
      <trkpt lat="45.70984" lon="4.67659">
        <ele>365.3526</ele>
        <time>2016-09-25T09:04:21Z</time>
      </trkpt>
      <trkpt lat="45.70989" lon="4.67686">
        <ele>364.879517</ele>
        <time>2016-09-25T09:04:23Z</time>
      </trkpt>
      <trkpt lat="45.70993" lon="4.67711">
        <ele>364.658844</ele>
        <time>2016-09-25T09:04:25Z</time>
      </trkpt>
      <trkpt lat="45.70997" lon="4.67731">
        <ele>363.925323</ele>
        <time>2016-09-25T09:04:27Z</time>
      </trkpt>
      <trkpt lat="45.71002" lon="4.67747">
        <ele>363.083466</ele>
        <time>2016-09-25T09:04:29Z</time>
      </trkpt>
      <trkpt lat="45.71006" lon="4.67765">
        <ele>362.890686</ele>
        <time>2016-09-25T09:04:31Z</time>
      </trkpt>
      <trkpt lat="45.71005" lon="4.67783">
        <ele>361.976227</ele>
        <time>2016-09-25T09:04:33Z</time>
      </trkpt>
      <trkpt lat="45.71004" lon="4.67803">
        <ele>361.144836</ele>
        <time>2016-09-25T09:04:35Z</time>
      </trkpt>
      <trkpt lat="45.71004" lon="4.67824">
        <ele>360.787201</ele>
        <time>2016-09-25T09:04:37Z</time>
      </trkpt>
      <trkpt lat="45.71005" lon="4.67843">
        <ele>360.065735</ele>
        <time>2016-09-25T09:04:39Z</time>
      </trkpt>
      <trkpt lat="45.71006" lon="4.67861">
        <ele>359.228088</ele>
        <time>2016-09-25T09:04:41Z</time>
      </trkpt>
      <trkpt lat="45.71008" lon="4.67874">
        <ele>358.202332</ele>
        <time>2016-09-25T09:04:43Z</time>
      </trkpt>
      <trkpt lat="45.71003" lon="4.67882">
        <ele>357.420319</ele>
        <time>2016-09-25T09:04:45Z</time>
      </trkpt>
      <trkpt lat="45.70994" lon="4.67883">
        <ele>355.983215</ele>
        <time>2016-09-25T09:04:47Z</time>
      </trkpt>
      <trkpt lat="45.70984" lon="4.67885">
        <ele>355.028625</ele>
        <time>2016-09-25T09:04:49Z</time>
      </trkpt>
      <trkpt lat="45.70971" lon="4.67888">
        <ele>354.172302</ele>
        <time>2016-09-25T09:04:51Z</time>
      </trkpt>
      <trkpt lat="45.70956" lon="4.67889">
        <ele>353.114258</ele>
        <time>2016-09-25T09:04:53Z</time>
      </trkpt>
      <trkpt lat="45.7094" lon="4.67886">
        <ele>352.116791</ele>
        <time>2016-09-25T09:04:55Z</time>
      </trkpt>
      <trkpt lat="45.70925" lon="4.67881">
        <ele>351.649994</ele>
        <time>2016-09-25T09:04:57Z</time>
      </trkpt>
      <trkpt lat="45.70911" lon="4.67875">
        <ele>350.759521</ele>
        <time>2016-09-25T09:04:59Z</time>
      </trkpt>
      <trkpt lat="45.70897" lon="4.67868">
        <ele>349.937439</ele>
        <time>2016-09-25T09:05:01Z</time>
      </trkpt>
      <trkpt lat="45.70885" lon="4.67866">
        <ele>349.114105</ele>
        <time>2016-09-25T09:05:03Z</time>
      </trkpt>
      <trkpt lat="45.70874" lon="4.67866">
        <ele>348.570007</ele>
        <time>2016-09-25T09:05:05Z</time>
      </trkpt>
      <trkpt lat="45.70863" lon="4.67865">
        <ele>347.687653</ele>
        <time>2016-09-25T09:05:07Z</time>
      </trkpt>
      <trkpt lat="45.70853" lon="4.67865">
        <ele>347.199066</ele>
        <time>2016-09-25T09:05:09Z</time>
      </trkpt>
      <trkpt lat="45.70843" lon="4.67865">
        <ele>346.946564</ele>
        <time>2016-09-25T09:05:11Z</time>
      </trkpt>
      <trkpt lat="45.70834" lon="4.67865">
        <ele>346.394287</ele>
        <time>2016-09-25T09:05:13Z</time>
      </trkpt>
      <trkpt lat="45.70825" lon="4.67865">
        <ele>346.340759</ele>
        <time>2016-09-25T09:05:15Z</time>
      </trkpt>
      <trkpt lat="45.70817" lon="4.67865">
        <ele>346.077576</ele>
        <time>2016-09-25T09:05:17Z</time>
      </trkpt>
      <trkpt lat="45.70809" lon="4.67865">
        <ele>345.81839</ele>
        <time>2016-09-25T09:05:19Z</time>
      </trkpt>
      <trkpt lat="45.70802" lon="4.67865">
        <ele>345.548676</ele>
        <time>2016-09-25T09:05:21Z</time>
      </trkpt>
      <trkpt lat="45.70794" lon="4.67865">
        <ele>345.486633</ele>
        <time>2016-09-25T09:05:23Z</time>
      </trkpt>
      <trkpt lat="45.70787" lon="4.67865">
        <ele>345.514404</ele>
        <time>2016-09-25T09:05:25Z</time>
      </trkpt>
      <trkpt lat="45.70779" lon="4.67864">
        <ele>345.525208</ele>
        <time>2016-09-25T09:05:27Z</time>
      </trkpt>
      <trkpt lat="45.70771" lon="4.67864">
        <ele>345.786224</ele>
        <time>2016-09-25T09:05:29Z</time>
      </trkpt>
      <trkpt lat="45.70764" lon="4.67863">
        <ele>345.662659</ele>
        <time>2016-09-25T09:05:31Z</time>
      </trkpt>
      <trkpt lat="45.70757" lon="4.67862">
        <ele>345.585236</ele>
        <time>2016-09-25T09:05:33Z</time>
      </trkpt>
      <trkpt lat="45.7075" lon="4.67862">
        <ele>345.645081</ele>
        <time>2016-09-25T09:05:35Z</time>
      </trkpt>
      <trkpt lat="45.70742" lon="4.67861">
        <ele>345.8638</ele>
        <time>2016-09-25T09:05:37Z</time>
      </trkpt>
      <trkpt lat="45.70734" lon="4.6786">
        <ele>345.806946</ele>
        <time>2016-09-25T09:05:39Z</time>
      </trkpt>
      <trkpt lat="45.70726" lon="4.67858">
        <ele>346.093903</ele>
        <time>2016-09-25T09:05:41Z</time>
      </trkpt>
      <trkpt lat="45.70718" lon="4.67855">
        <ele>346.391632</ele>
        <time>2016-09-25T09:05:43Z</time>
      </trkpt>
      <trkpt lat="45.70709" lon="4.67852">
        <ele>346.943054</ele>
        <time>2016-09-25T09:05:45Z</time>
      </trkpt>
      <trkpt lat="45.70699" lon="4.67849">
        <ele>347.251343</ele>
        <time>2016-09-25T09:05:47Z</time>
      </trkpt>
      <trkpt lat="45.7069" lon="4.67845">
        <ele>347.4617</ele>
        <time>2016-09-25T09:05:49Z</time>
      </trkpt>
      <trkpt lat="45.70681" lon="4.6784">
        <ele>347.594299</ele>
        <time>2016-09-25T09:05:51Z</time>
      </trkpt>
      <trkpt lat="45.70673" lon="4.67834">
        <ele>347.613586</ele>
        <time>2016-09-25T09:05:53Z</time>
      </trkpt>
      <trkpt lat="45.70667" lon="4.67827">
        <ele>347.647858</ele>
        <time>2016-09-25T09:05:55Z</time>
      </trkpt>
      <trkpt lat="45.7066" lon="4.6782">
        <ele>347.734406</ele>
        <time>2016-09-25T09:05:57Z</time>
      </trkpt>
      <trkpt lat="45.70654" lon="4.67813">
        <ele>348.033997</ele>
        <time>2016-09-25T09:05:59Z</time>
      </trkpt>
      <trkpt lat="45.7065" lon="4.67807">
        <ele>347.868683</ele>
        <time>2016-09-25T09:06:01Z</time>
      </trkpt>
      <trkpt lat="45.70646" lon="4.67803">
        <ele>347.975739</ele>
        <time>2016-09-25T09:06:03Z</time>
      </trkpt>
      <trkpt lat="45.70642" lon="4.67798">
        <ele>347.997162</ele>
        <time>2016-09-25T09:06:05Z</time>
      </trkpt>
      <trkpt lat="45.70638" lon="4.67793">
        <ele>348.069916</ele>
        <time>2016-09-25T09:06:07Z</time>
      </trkpt>
      <trkpt lat="45.70633" lon="4.67789">
        <ele>348.252686</ele>
        <time>2016-09-25T09:06:09Z</time>
      </trkpt>
      <trkpt lat="45.7063" lon="4.67784">
        <ele>348.385345</ele>
        <time>2016-09-25T09:06:11Z</time>
      </trkpt>
      <trkpt lat="45.70626" lon="4.6778">
        <ele>348.661072</ele>
        <time>2016-09-25T09:06:13Z</time>
      </trkpt>
      <trkpt lat="45.70622" lon="4.67776">
        <ele>348.892181</ele>
        <time>2016-09-25T09:06:15Z</time>
      </trkpt>
      <trkpt lat="45.70617" lon="4.67771">
        <ele>348.979919</ele>
        <time>2016-09-25T09:06:17Z</time>
      </trkpt>
      <trkpt lat="45.70613" lon="4.67767">
        <ele>349.225677</ele>
        <time>2016-09-25T09:06:19Z</time>
      </trkpt>
      <trkpt lat="45.70607" lon="4.67762">
        <ele>349.203064</ele>
        <time>2016-09-25T09:06:21Z</time>
      </trkpt>
      <trkpt lat="45.70599" lon="4.67757">
        <ele>349.286224</ele>
        <time>2016-09-25T09:06:23Z</time>
      </trkpt>
      <trkpt lat="45.70591" lon="4.67751">
        <ele>349.526031</ele>
        <time>2016-09-25T09:06:25Z</time>
      </trkpt>
      <trkpt lat="45.70581" lon="4.67745">
        <ele>349.642517</ele>
        <time>2016-09-25T09:06:27Z</time>
      </trkpt>
      <trkpt lat="45.7057" lon="4.67738">
        <ele>349.600037</ele>
        <time>2016-09-25T09:06:29Z</time>
      </trkpt>
      <trkpt lat="45.70556" lon="4.6773">
        <ele>348.85199</ele>
        <time>2016-09-25T09:06:31Z</time>
      </trkpt>
      <trkpt lat="45.7054" lon="4.6772">
        <ele>348.697998</ele>
        <time>2016-09-25T09:06:33Z</time>
      </trkpt>
      <trkpt lat="45.70527" lon="4.67709">
        <ele>348.823181</ele>
        <time>2016-09-25T09:06:35Z</time>
      </trkpt>
      <trkpt lat="45.70514" lon="4.677">
        <ele>348.368744</ele>
        <time>2016-09-25T09:06:37Z</time>
      </trkpt>
      <trkpt lat="45.70502" lon="4.67698">
        <ele>347.650055</ele>
        <time>2016-09-25T09:06:39Z</time>
      </trkpt>
      <trkpt lat="45.70491" lon="4.67703">
        <ele>347.385681</ele>
        <time>2016-09-25T09:06:41Z</time>
      </trkpt>
      <trkpt lat="45.70484" lon="4.67715">
        <ele>347.126953</ele>
        <time>2016-09-25T09:06:43Z</time>
      </trkpt>
      <trkpt lat="45.70484" lon="4.67727">
        <ele>346.630493</ele>
        <time>2016-09-25T09:06:45Z</time>
      </trkpt>
      <trkpt lat="45.70486" lon="4.67739">
        <ele>346.085022</ele>
        <time>2016-09-25T09:06:47Z</time>
      </trkpt>
      <trkpt lat="45.70487" lon="4.67748">
        <ele>345.45401</ele>
        <time>2016-09-25T09:06:49Z</time>
      </trkpt>
      <trkpt lat="45.70487" lon="4.67757">
        <ele>344.854156</ele>
        <time>2016-09-25T09:06:51Z</time>
      </trkpt>
      <trkpt lat="45.70487" lon="4.67766">
        <ele>344.293854</ele>
        <time>2016-09-25T09:06:53Z</time>
      </trkpt>
      <trkpt lat="45.70488" lon="4.67773">
        <ele>343.716156</ele>
        <time>2016-09-25T09:06:55Z</time>
      </trkpt>
      <trkpt lat="45.70488" lon="4.67781">
        <ele>343.43158</ele>
        <time>2016-09-25T09:06:57Z</time>
      </trkpt>
      <trkpt lat="45.70489" lon="4.67789">
        <ele>342.866486</ele>
        <time>2016-09-25T09:06:59Z</time>
      </trkpt>
      <trkpt lat="45.7049" lon="4.67798">
        <ele>342.218079</ele>
        <time>2016-09-25T09:07:01Z</time>
      </trkpt>
      <trkpt lat="45.70491" lon="4.67807">
        <ele>341.751678</ele>
        <time>2016-09-25T09:07:03Z</time>
      </trkpt>
      <trkpt lat="45.70492" lon="4.67816">
        <ele>341.346375</ele>
        <time>2016-09-25T09:07:05Z</time>
      </trkpt>
      <trkpt lat="45.70494" lon="4.67825">
        <ele>340.725983</ele>
        <time>2016-09-25T09:07:07Z</time>
      </trkpt>
      <trkpt lat="45.70493" lon="4.67836">
        <ele>340.549225</ele>
        <time>2016-09-25T09:07:09Z</time>
      </trkpt>
      <trkpt lat="45.70491" lon="4.67846">
        <ele>340.022736</ele>
        <time>2016-09-25T09:07:11Z</time>
      </trkpt>
      <trkpt lat="45.70487" lon="4.67855">
        <ele>340.591034</ele>
        <time>2016-09-25T09:07:13Z</time>
      </trkpt>
      <trkpt lat="45.70481" lon="4.6786">
        <ele>339.962036</ele>
        <time>2016-09-25T09:07:15Z</time>
      </trkpt>
      <trkpt lat="45.70474" lon="4.67863">
        <ele>340.345642</ele>
        <time>2016-09-25T09:07:17Z</time>
      </trkpt>
      <trkpt lat="45.70467" lon="4.67865">
        <ele>340.66214</ele>
        <time>2016-09-25T09:07:19Z</time>
      </trkpt>
      <trkpt lat="45.70461" lon="4.67866">
        <ele>341.059814</ele>
        <time>2016-09-25T09:07:21Z</time>
      </trkpt>
      <trkpt lat="45.70454" lon="4.67867">
        <ele>341.046082</ele>
        <time>2016-09-25T09:07:23Z</time>
      </trkpt>
      <trkpt lat="45.70447" lon="4.67868">
        <ele>341.242981</ele>
        <time>2016-09-25T09:07:25Z</time>
      </trkpt>
      <trkpt lat="45.7044" lon="4.67869">
        <ele>341.467468</ele>
        <time>2016-09-25T09:07:27Z</time>
      </trkpt>
      <trkpt lat="45.70433" lon="4.67869">
        <ele>341.600037</ele>
        <time>2016-09-25T09:07:29Z</time>
      </trkpt>
      <trkpt lat="45.70426" lon="4.67869">
        <ele>341.976471</ele>
        <time>2016-09-25T09:07:31Z</time>
      </trkpt>
      <trkpt lat="45.70419" lon="4.67869">
        <ele>342.269379</ele>
        <time>2016-09-25T09:07:33Z</time>
      </trkpt>
      <trkpt lat="45.70412" lon="4.67869">
        <ele>342.487488</ele>
        <time>2016-09-25T09:07:35Z</time>
      </trkpt>
      <trkpt lat="45.70406" lon="4.67869">
        <ele>342.744202</ele>
        <time>2016-09-25T09:07:37Z</time>
      </trkpt>
      <trkpt lat="45.70399" lon="4.67869">
        <ele>343.023743</ele>
        <time>2016-09-25T09:07:39Z</time>
      </trkpt>
      <trkpt lat="45.70393" lon="4.67868">
        <ele>343.290527</ele>
        <time>2016-09-25T09:07:41Z</time>
      </trkpt>
      <trkpt lat="45.70386" lon="4.67866">
        <ele>343.641418</ele>
        <time>2016-09-25T09:07:43Z</time>
      </trkpt>
      <trkpt lat="45.7038" lon="4.67865">
        <ele>344.038727</ele>
        <time>2016-09-25T09:07:45Z</time>
      </trkpt>
      <trkpt lat="45.70374" lon="4.67866">
        <ele>344.299561</ele>
        <time>2016-09-25T09:07:47Z</time>
      </trkpt>
      <trkpt lat="45.70369" lon="4.6787">
        <ele>344.691071</ele>
        <time>2016-09-25T09:07:49Z</time>
      </trkpt>
      <trkpt lat="45.70369" lon="4.67878">
        <ele>345.001465</ele>
        <time>2016-09-25T09:07:51Z</time>
      </trkpt>
      <trkpt lat="45.70371" lon="4.67887">
        <ele>345.159821</ele>
        <time>2016-09-25T09:07:53Z</time>
      </trkpt>
      <trkpt lat="45.70374" lon="4.67896">
        <ele>345.324554</ele>
        <time>2016-09-25T09:07:55Z</time>
      </trkpt>
      <trkpt lat="45.70371" lon="4.67906">
        <ele>345.722687</ele>
        <time>2016-09-25T09:07:57Z</time>
      </trkpt>
      <trkpt lat="45.70363" lon="4.6791">
        <ele>345.961151</ele>
        <time>2016-09-25T09:07:59Z</time>
      </trkpt>
      <trkpt lat="45.70354" lon="4.6791">
        <ele>346.155853</ele>
        <time>2016-09-25T09:08:01Z</time>
      </trkpt>
      <trkpt lat="45.70345" lon="4.6791">
        <ele>346.497803</ele>
        <time>2016-09-25T09:08:03Z</time>
      </trkpt>
      <trkpt lat="45.70336" lon="4.6791">
        <ele>346.779846</ele>
        <time>2016-09-25T09:08:05Z</time>
      </trkpt>
      <trkpt lat="45.70327" lon="4.6791">
        <ele>347.068726</ele>
        <time>2016-09-25T09:08:07Z</time>
      </trkpt>
      <trkpt lat="45.70317" lon="4.67911">
        <ele>347.333954</ele>
        <time>2016-09-25T09:08:09Z</time>
      </trkpt>
      <trkpt lat="45.70308" lon="4.67913">
        <ele>347.507263</ele>
        <time>2016-09-25T09:08:11Z</time>
      </trkpt>
      <trkpt lat="45.70299" lon="4.67918">
        <ele>347.539368</ele>
        <time>2016-09-25T09:08:13Z</time>
      </trkpt>
      <trkpt lat="45.7029" lon="4.67924">
        <ele>347.605743</ele>
        <time>2016-09-25T09:08:15Z</time>
      </trkpt>
      <trkpt lat="45.70281" lon="4.67929">
        <ele>347.624969</ele>
        <time>2016-09-25T09:08:17Z</time>
      </trkpt>
      <trkpt lat="45.70271" lon="4.67934">
        <ele>347.684265</ele>
        <time>2016-09-25T09:08:19Z</time>
      </trkpt>
      <trkpt lat="45.70261" lon="4.67938">
        <ele>347.721619</ele>
        <time>2016-09-25T09:08:21Z</time>
      </trkpt>
      <trkpt lat="45.70252" lon="4.67939">
        <ele>347.848419</ele>
        <time>2016-09-25T09:08:23Z</time>
      </trkpt>
      <trkpt lat="45.70242" lon="4.67939">
        <ele>347.919067</ele>
        <time>2016-09-25T09:08:25Z</time>
      </trkpt>
      <trkpt lat="45.70232" lon="4.6794">
        <ele>348.105164</ele>
        <time>2016-09-25T09:08:27Z</time>
      </trkpt>
      <trkpt lat="45.70223" lon="4.67941">
        <ele>348.055939</ele>
        <time>2016-09-25T09:08:29Z</time>
      </trkpt>
      <trkpt lat="45.70213" lon="4.67942">
        <ele>348.094452</ele>
        <time>2016-09-25T09:08:31Z</time>
      </trkpt>
      <trkpt lat="45.70203" lon="4.67942">
        <ele>348.415497</ele>
        <time>2016-09-25T09:08:33Z</time>
      </trkpt>
      <trkpt lat="45.70194" lon="4.67941">
        <ele>348.582458</ele>
        <time>2016-09-25T09:08:35Z</time>
      </trkpt>
      <trkpt lat="45.70184" lon="4.67941">
        <ele>348.710083</ele>
        <time>2016-09-25T09:08:37Z</time>
      </trkpt>
      <trkpt lat="45.70175" lon="4.67942">
        <ele>348.750702</ele>
        <time>2016-09-25T09:08:39Z</time>
      </trkpt>
      <trkpt lat="45.70166" lon="4.67944">
        <ele>348.915466</ele>
        <time>2016-09-25T09:08:41Z</time>
      </trkpt>
      <trkpt lat="45.70157" lon="4.67948">
        <ele>348.985046</ele>
        <time>2016-09-25T09:08:43Z</time>
      </trkpt>
      <trkpt lat="45.7015" lon="4.67957">
        <ele>348.949036</ele>
        <time>2016-09-25T09:08:45Z</time>
      </trkpt>
      <trkpt lat="45.70144" lon="4.67969">
        <ele>349.109863</ele>
        <time>2016-09-25T09:08:47Z</time>
      </trkpt>
      <trkpt lat="45.70137" lon="4.67979">
        <ele>349.041351</ele>
        <time>2016-09-25T09:08:49Z</time>
      </trkpt>
      <trkpt lat="45.70131" lon="4.67989">
        <ele>349.135529</ele>
        <time>2016-09-25T09:08:51Z</time>
      </trkpt>
      <trkpt lat="45.70124" lon="4.68">
        <ele>349.289917</ele>
        <time>2016-09-25T09:08:53Z</time>
      </trkpt>
      <trkpt lat="45.70116" lon="4.68009">
        <ele>349.414032</ele>
        <time>2016-09-25T09:08:55Z</time>
      </trkpt>
      <trkpt lat="45.70108" lon="4.68019">
        <ele>349.454132</ele>
        <time>2016-09-25T09:08:57Z</time>
      </trkpt>
      <trkpt lat="45.70099" lon="4.68029">
        <ele>349.518921</ele>
        <time>2016-09-25T09:08:59Z</time>
      </trkpt>
      <trkpt lat="45.70089" lon="4.68029">
        <ele>349.403442</ele>
        <time>2016-09-25T09:09:01Z</time>
      </trkpt>
      <trkpt lat="45.7008" lon="4.68018">
        <ele>349.307159</ele>
        <time>2016-09-25T09:09:03Z</time>
      </trkpt>
      <trkpt lat="45.70073" lon="4.68005">
        <ele>348.9841</ele>
        <time>2016-09-25T09:09:05Z</time>
      </trkpt>
      <trkpt lat="45.70063" lon="4.67997">
        <ele>348.62677</ele>
        <time>2016-09-25T09:09:07Z</time>
      </trkpt>
      <trkpt lat="45.70054" lon="4.68">
        <ele>348.527771</ele>
        <time>2016-09-25T09:09:09Z</time>
      </trkpt>
      <trkpt lat="45.70048" lon="4.68011">
        <ele>348.521698</ele>
        <time>2016-09-25T09:09:11Z</time>
      </trkpt>
      <trkpt lat="45.70042" lon="4.68025">
        <ele>348.230682</ele>
        <time>2016-09-25T09:09:13Z</time>
      </trkpt>
      <trkpt lat="45.70037" lon="4.6804">
        <ele>347.67218</ele>
        <time>2016-09-25T09:09:15Z</time>
      </trkpt>
      <trkpt lat="45.70032" lon="4.68055">
        <ele>347.168823</ele>
        <time>2016-09-25T09:09:17Z</time>
      </trkpt>
      <trkpt lat="45.70028" lon="4.6807">
        <ele>346.769287</ele>
        <time>2016-09-25T09:09:19Z</time>
      </trkpt>
      <trkpt lat="45.70026" lon="4.68085">
        <ele>346.208801</ele>
        <time>2016-09-25T09:09:21Z</time>
      </trkpt>
      <trkpt lat="45.70024" lon="4.681">
        <ele>346.131866</ele>
        <time>2016-09-25T09:09:23Z</time>
      </trkpt>
      <trkpt lat="45.70019" lon="4.68116">
        <ele>345.867584</ele>
        <time>2016-09-25T09:09:25Z</time>
      </trkpt>
      <trkpt lat="45.70011" lon="4.68133">
        <ele>345.461273</ele>
        <time>2016-09-25T09:09:27Z</time>
      </trkpt>
      <trkpt lat="45.70004" lon="4.68151">
        <ele>345.09549</ele>
        <time>2016-09-25T09:09:29Z</time>
      </trkpt>
      <trkpt lat="45.69997" lon="4.68172">
        <ele>344.758728</ele>
        <time>2016-09-25T09:09:31Z</time>
      </trkpt>
      <trkpt lat="45.6999" lon="4.68193">
        <ele>343.914185</ele>
        <time>2016-09-25T09:09:33Z</time>
      </trkpt>
      <trkpt lat="45.69983" lon="4.68213">
        <ele>343.234009</ele>
        <time>2016-09-25T09:09:35Z</time>
      </trkpt>
      <trkpt lat="45.69978" lon="4.68235">
        <ele>342.38205</ele>
        <time>2016-09-25T09:09:37Z</time>
      </trkpt>
      <trkpt lat="45.69975" lon="4.6826">
        <ele>341.514587</ele>
        <time>2016-09-25T09:09:39Z</time>
      </trkpt>
      <trkpt lat="45.69975" lon="4.68285">
        <ele>340.499146</ele>
        <time>2016-09-25T09:09:41Z</time>
      </trkpt>
      <trkpt lat="45.69977" lon="4.68311">
        <ele>339.87912</ele>
        <time>2016-09-25T09:09:43Z</time>
      </trkpt>
      <trkpt lat="45.69981" lon="4.68335">
        <ele>339.246643</ele>
        <time>2016-09-25T09:09:45Z</time>
      </trkpt>
      <trkpt lat="45.69985" lon="4.68359">
        <ele>338.195526</ele>
        <time>2016-09-25T09:09:47Z</time>
      </trkpt>
      <trkpt lat="45.69989" lon="4.68384">
        <ele>337.367126</ele>
        <time>2016-09-25T09:09:49Z</time>
      </trkpt>
      <trkpt lat="45.69994" lon="4.68409">
        <ele>336.587097</ele>
        <time>2016-09-25T09:09:51Z</time>
      </trkpt>
      <trkpt lat="45.69995" lon="4.68433">
        <ele>335.178741</ele>
        <time>2016-09-25T09:09:53Z</time>
      </trkpt>
      <trkpt lat="45.69993" lon="4.68458">
        <ele>333.649445</ele>
        <time>2016-09-25T09:09:55Z</time>
      </trkpt>
      <trkpt lat="45.69989" lon="4.68482">
        <ele>332.568329</ele>
        <time>2016-09-25T09:09:57Z</time>
      </trkpt>
      <trkpt lat="45.69984" lon="4.68506">
        <ele>331.519653</ele>
        <time>2016-09-25T09:09:59Z</time>
      </trkpt>
      <trkpt lat="45.6998" lon="4.6853">
        <ele>330.612274</ele>
        <time>2016-09-25T09:10:01Z</time>
      </trkpt>
      <trkpt lat="45.69976" lon="4.68553">
        <ele>329.761353</ele>
        <time>2016-09-25T09:10:03Z</time>
      </trkpt>
      <trkpt lat="45.69973" lon="4.68576">
        <ele>328.406281</ele>
        <time>2016-09-25T09:10:05Z</time>
      </trkpt>
      <trkpt lat="45.69968" lon="4.68598">
        <ele>327.043121</ele>
        <time>2016-09-25T09:10:07Z</time>
      </trkpt>
      <trkpt lat="45.69964" lon="4.68621">
        <ele>326.141541</ele>
        <time>2016-09-25T09:10:09Z</time>
      </trkpt>
      <trkpt lat="45.6996" lon="4.68643">
        <ele>325.279327</ele>
        <time>2016-09-25T09:10:11Z</time>
      </trkpt>
      <trkpt lat="45.69956" lon="4.68664">
        <ele>324.839233</ele>
        <time>2016-09-25T09:10:13Z</time>
      </trkpt>
      <trkpt lat="45.6995" lon="4.68683">
        <ele>324.249786</ele>
        <time>2016-09-25T09:10:15Z</time>
      </trkpt>
      <trkpt lat="45.69939" lon="4.68697">
        <ele>323.328979</ele>
        <time>2016-09-25T09:10:17Z</time>
      </trkpt>
      <trkpt lat="45.69931" lon="4.68712">
        <ele>322.518616</ele>
        <time>2016-09-25T09:10:19Z</time>
      </trkpt>
      <trkpt lat="45.69926" lon="4.68726">
        <ele>321.899353</ele>
        <time>2016-09-25T09:10:21Z</time>
      </trkpt>
      <trkpt lat="45.69918" lon="4.68728">
        <ele>321.391327</ele>
        <time>2016-09-25T09:10:23Z</time>
      </trkpt>
      <trkpt lat="45.69912" lon="4.68725">
        <ele>320.703735</ele>
        <time>2016-09-25T09:10:25Z</time>
      </trkpt>
      <trkpt lat="45.69906" lon="4.68724">
        <ele>319.934753</ele>
        <time>2016-09-25T09:10:27Z</time>
      </trkpt>
      <trkpt lat="45.699" lon="4.68728">
        <ele>319.785431</ele>
        <time>2016-09-25T09:10:29Z</time>
      </trkpt>
      <trkpt lat="45.69899" lon="4.68736">
        <ele>319.650421</ele>
        <time>2016-09-25T09:10:31Z</time>
      </trkpt>
      <trkpt lat="45.69903" lon="4.68745">
        <ele>319.180847</ele>
        <time>2016-09-25T09:10:33Z</time>
      </trkpt>
      <trkpt lat="45.69906" lon="4.68756">
        <ele>319.526398</ele>
        <time>2016-09-25T09:10:35Z</time>
      </trkpt>
      <trkpt lat="45.69907" lon="4.68771">
        <ele>319.321655</ele>
        <time>2016-09-25T09:10:37Z</time>
      </trkpt>
      <trkpt lat="45.69908" lon="4.68788">
        <ele>318.754364</ele>
        <time>2016-09-25T09:10:39Z</time>
      </trkpt>
      <trkpt lat="45.69908" lon="4.68807">
        <ele>318.558044</ele>
        <time>2016-09-25T09:10:41Z</time>
      </trkpt>
      <trkpt lat="45.69911" lon="4.68825">
        <ele>318.419952</ele>
        <time>2016-09-25T09:10:43Z</time>
      </trkpt>
      <trkpt lat="45.6992" lon="4.68839">
        <ele>318.036438</ele>
        <time>2016-09-25T09:10:45Z</time>
      </trkpt>
      <trkpt lat="45.6993" lon="4.68856">
        <ele>317.439148</ele>
        <time>2016-09-25T09:10:47Z</time>
      </trkpt>
      <trkpt lat="45.69939" lon="4.68875">
        <ele>317.174622</ele>
        <time>2016-09-25T09:10:49Z</time>
      </trkpt>
      <trkpt lat="45.69948" lon="4.68895">
        <ele>316.70932</ele>
        <time>2016-09-25T09:10:51Z</time>
      </trkpt>
      <trkpt lat="45.69957" lon="4.68915">
        <ele>316.107605</ele>
        <time>2016-09-25T09:10:53Z</time>
      </trkpt>
      <trkpt lat="45.69966" lon="4.68936">
        <ele>315.461395</ele>
        <time>2016-09-25T09:10:55Z</time>
      </trkpt>
      <trkpt lat="45.69974" lon="4.68957">
        <ele>314.977173</ele>
        <time>2016-09-25T09:10:57Z</time>
      </trkpt>
      <trkpt lat="45.6998" lon="4.68979">
        <ele>314.783569</ele>
        <time>2016-09-25T09:10:59Z</time>
      </trkpt>
      <trkpt lat="45.69986" lon="4.69002">
        <ele>314.265656</ele>
        <time>2016-09-25T09:11:01Z</time>
      </trkpt>
      <trkpt lat="45.69991" lon="4.69024">
        <ele>313.763794</ele>
        <time>2016-09-25T09:11:03Z</time>
      </trkpt>
      <trkpt lat="45.69996" lon="4.69047">
        <ele>313.117645</ele>
        <time>2016-09-25T09:11:05Z</time>
      </trkpt>
      <trkpt lat="45.70001" lon="4.69069">
        <ele>312.74118</ele>
        <time>2016-09-25T09:11:07Z</time>
      </trkpt>
      <trkpt lat="45.70006" lon="4.69092">
        <ele>312.048035</ele>
        <time>2016-09-25T09:11:09Z</time>
      </trkpt>
      <trkpt lat="45.70012" lon="4.69114">
        <ele>311.858185</ele>
        <time>2016-09-25T09:11:11Z</time>
      </trkpt>
      <trkpt lat="45.70018" lon="4.69136">
        <ele>311.327179</ele>
        <time>2016-09-25T09:11:13Z</time>
      </trkpt>
      <trkpt lat="45.70026" lon="4.69156">
        <ele>310.961853</ele>
        <time>2016-09-25T09:11:15Z</time>
      </trkpt>
      <trkpt lat="45.70035" lon="4.69176">
        <ele>310.243286</ele>
        <time>2016-09-25T09:11:17Z</time>
      </trkpt>
      <trkpt lat="45.70044" lon="4.69195">
        <ele>309.865936</ele>
        <time>2016-09-25T09:11:19Z</time>
      </trkpt>
      <trkpt lat="45.70051" lon="4.69216">
        <ele>309.405487</ele>
        <time>2016-09-25T09:11:21Z</time>
      </trkpt>
      <trkpt lat="45.70059" lon="4.69238">
        <ele>308.963409</ele>
        <time>2016-09-25T09:11:23Z</time>
      </trkpt>
      <trkpt lat="45.70069" lon="4.69257">
        <ele>308.146851</ele>
        <time>2016-09-25T09:11:25Z</time>
      </trkpt>
      <trkpt lat="45.7008" lon="4.69273">
        <ele>307.899719</ele>
        <time>2016-09-25T09:11:27Z</time>
      </trkpt>
      <trkpt lat="45.70084" lon="4.69291">
        <ele>307.763336</ele>
        <time>2016-09-25T09:11:29Z</time>
      </trkpt>
      <trkpt lat="45.70081" lon="4.69311">
        <ele>307.006714</ele>
        <time>2016-09-25T09:11:31Z</time>
      </trkpt>
      <trkpt lat="45.70076" lon="4.69331">
        <ele>306.597382</ele>
        <time>2016-09-25T09:11:33Z</time>
      </trkpt>
      <trkpt lat="45.70067" lon="4.69349">
        <ele>306.271301</ele>
        <time>2016-09-25T09:11:35Z</time>
      </trkpt>
      <trkpt lat="45.70055" lon="4.69364">
        <ele>306.218079</ele>
        <time>2016-09-25T09:11:37Z</time>
      </trkpt>
      <trkpt lat="45.70043" lon="4.69379">
        <ele>305.785461</ele>
        <time>2016-09-25T09:11:39Z</time>
      </trkpt>
      <trkpt lat="45.70029" lon="4.69394">
        <ele>305.077515</ele>
        <time>2016-09-25T09:11:41Z</time>
      </trkpt>
      <trkpt lat="45.70013" lon="4.69407">
        <ele>304.706238</ele>
        <time>2016-09-25T09:11:43Z</time>
      </trkpt>
      <trkpt lat="45.69995" lon="4.69414">
        <ele>304.187103</ele>
        <time>2016-09-25T09:11:45Z</time>
      </trkpt>
      <trkpt lat="45.69977" lon="4.69419">
        <ele>303.631165</ele>
        <time>2016-09-25T09:11:47Z</time>
      </trkpt>
      <trkpt lat="45.69964" lon="4.69438">
        <ele>302.968506</ele>
        <time>2016-09-25T09:11:49Z</time>
      </trkpt>
      <trkpt lat="45.69954" lon="4.69452">
        <ele>302.458008</ele>
        <time>2016-09-25T09:11:51Z</time>
      </trkpt>
      <trkpt lat="45.69947" lon="4.69468">
        <ele>301.555237</ele>
        <time>2016-09-25T09:11:53Z</time>
      </trkpt>
      <trkpt lat="45.69938" lon="4.69493">
        <ele>300.474365</ele>
        <time>2016-09-25T09:11:55Z</time>
      </trkpt>
      <trkpt lat="45.69924" lon="4.69513">
        <ele>299.318085</ele>
        <time>2016-09-25T09:11:57Z</time>
      </trkpt>
      <trkpt lat="45.69908" lon="4.69534">
        <ele>298.787842</ele>
        <time>2016-09-25T09:11:59Z</time>
      </trkpt>
      <trkpt lat="45.69893" lon="4.69557">
        <ele>297.838409</ele>
        <time>2016-09-25T09:12:01Z</time>
      </trkpt>
      <trkpt lat="45.69881" lon="4.69586">
        <ele>296.605652</ele>
        <time>2016-09-25T09:12:03Z</time>
      </trkpt>
      <trkpt lat="45.6987" lon="4.69615">
        <ele>295.9422</ele>
        <time>2016-09-25T09:12:05Z</time>
      </trkpt>
      <trkpt lat="45.69861" lon="4.69645">
        <ele>295.275574</ele>
        <time>2016-09-25T09:12:07Z</time>
      </trkpt>
      <trkpt lat="45.69852" lon="4.69671">
        <ele>294.053406</ele>
        <time>2016-09-25T09:12:09Z</time>
      </trkpt>
      <trkpt lat="45.69849" lon="4.69698">
        <ele>292.557159</ele>
        <time>2016-09-25T09:12:11Z</time>
      </trkpt>
      <trkpt lat="45.69851" lon="4.69724">
        <ele>291.419006</ele>
        <time>2016-09-25T09:12:13Z</time>
      </trkpt>
      <trkpt lat="45.69856" lon="4.6975">
        <ele>289.937836</ele>
        <time>2016-09-25T09:12:15Z</time>
      </trkpt>
      <trkpt lat="45.69861" lon="4.69774">
        <ele>288.943817</ele>
        <time>2016-09-25T09:12:17Z</time>
      </trkpt>
      <trkpt lat="45.69865" lon="4.69796">
        <ele>287.779602</ele>
        <time>2016-09-25T09:12:19Z</time>
      </trkpt>
      <trkpt lat="45.69862" lon="4.69816">
        <ele>286.769196</ele>
        <time>2016-09-25T09:12:21Z</time>
      </trkpt>
      <trkpt lat="45.69856" lon="4.6983">
        <ele>285.803284</ele>
        <time>2016-09-25T09:12:23Z</time>
      </trkpt>
      <trkpt lat="45.69849" lon="4.69843">
        <ele>284.92691</ele>
        <time>2016-09-25T09:12:25Z</time>
      </trkpt>
      <trkpt lat="45.69848" lon="4.69853">
        <ele>283.950867</ele>
        <time>2016-09-25T09:12:27Z</time>
      </trkpt>
      <trkpt lat="45.69852" lon="4.69861">
        <ele>282.84079</ele>
        <time>2016-09-25T09:12:29Z</time>
      </trkpt>
      <trkpt lat="45.69859" lon="4.6987">
        <ele>281.778381</ele>
        <time>2016-09-25T09:12:31Z</time>
      </trkpt>
      <trkpt lat="45.69867" lon="4.6988">
        <ele>280.743256</ele>
        <time>2016-09-25T09:12:33Z</time>
      </trkpt>
      <trkpt lat="45.69877" lon="4.69886">
        <ele>279.860352</ele>
        <time>2016-09-25T09:12:35Z</time>
      </trkpt>
      <trkpt lat="45.69888" lon="4.6989">
        <ele>279.223724</ele>
        <time>2016-09-25T09:12:37Z</time>
      </trkpt>
      <trkpt lat="45.69898" lon="4.69895">
        <ele>278.316345</ele>
        <time>2016-09-25T09:12:39Z</time>
      </trkpt>
      <trkpt lat="45.69909" lon="4.699">
        <ele>277.181</ele>
        <time>2016-09-25T09:12:41Z</time>
      </trkpt>
      <trkpt lat="45.6992" lon="4.69904">
        <ele>276.655945</ele>
        <time>2016-09-25T09:12:43Z</time>
      </trkpt>
      <trkpt lat="45.6993" lon="4.6991">
        <ele>276.092712</ele>
        <time>2016-09-25T09:12:45Z</time>
      </trkpt>
      <trkpt lat="45.69939" lon="4.69915">
        <ele>275.516907</ele>
        <time>2016-09-25T09:12:47Z</time>
      </trkpt>
      <trkpt lat="45.69946" lon="4.69921">
        <ele>275.121429</ele>
        <time>2016-09-25T09:12:49Z</time>
      </trkpt>
      <trkpt lat="45.69953" lon="4.69926">
        <ele>274.273865</ele>
        <time>2016-09-25T09:12:51Z</time>
      </trkpt>
      <trkpt lat="45.69959" lon="4.69931">
        <ele>273.92334</ele>
        <time>2016-09-25T09:12:53Z</time>
      </trkpt>
      <trkpt lat="45.69965" lon="4.69937">
        <ele>273.83197</ele>
        <time>2016-09-25T09:12:55Z</time>
      </trkpt>
      <trkpt lat="45.69972" lon="4.69943">
        <ele>273.752502</ele>
        <time>2016-09-25T09:12:57Z</time>
      </trkpt>
      <trkpt lat="45.69976" lon="4.69951">
        <ele>273.367737</ele>
        <time>2016-09-25T09:12:59Z</time>
      </trkpt>
      <trkpt lat="45.6998" lon="4.69961">
        <ele>272.940613</ele>
        <time>2016-09-25T09:13:01Z</time>
      </trkpt>
      <trkpt lat="45.69982" lon="4.69973">
        <ele>272.762146</ele>
        <time>2016-09-25T09:13:03Z</time>
      </trkpt>
      <trkpt lat="45.69986" lon="4.69988">
        <ele>272.479828</ele>
        <time>2016-09-25T09:13:05Z</time>
      </trkpt>
      <trkpt lat="45.6999" lon="4.70003">
        <ele>272.557861</ele>
        <time>2016-09-25T09:13:07Z</time>
      </trkpt>
      <trkpt lat="45.69996" lon="4.70017">
        <ele>272.487762</ele>
        <time>2016-09-25T09:13:09Z</time>
      </trkpt>
      <trkpt lat="45.70001" lon="4.70031">
        <ele>272.570618</ele>
        <time>2016-09-25T09:13:11Z</time>
      </trkpt>
      <trkpt lat="45.70004" lon="4.70045">
        <ele>272.516144</ele>
        <time>2016-09-25T09:13:13Z</time>
      </trkpt>
      <trkpt lat="45.70009" lon="4.70056">
        <ele>272.319519</ele>
        <time>2016-09-25T09:13:15Z</time>
      </trkpt>
      <trkpt lat="45.70015" lon="4.70068">
        <ele>272.306763</ele>
        <time>2016-09-25T09:13:17Z</time>
      </trkpt>
      <trkpt lat="45.70021" lon="4.7008">
        <ele>272.316345</ele>
        <time>2016-09-25T09:13:19Z</time>
      </trkpt>
      <trkpt lat="45.70028" lon="4.70091">
        <ele>272.63916</ele>
        <time>2016-09-25T09:13:21Z</time>
      </trkpt>
      <trkpt lat="45.70034" lon="4.701">
        <ele>272.637085</ele>
        <time>2016-09-25T09:13:23Z</time>
      </trkpt>
      <trkpt lat="45.7004" lon="4.70108">
        <ele>272.533264</ele>
        <time>2016-09-25T09:13:25Z</time>
      </trkpt>
      <trkpt lat="45.70047" lon="4.70113">
        <ele>272.51416</ele>
        <time>2016-09-25T09:13:27Z</time>
      </trkpt>
      <trkpt lat="45.70055" lon="4.70117">
        <ele>272.5354</ele>
        <time>2016-09-25T09:13:29Z</time>
      </trkpt>
      <trkpt lat="45.70062" lon="4.70121">
        <ele>272.902649</ele>
        <time>2016-09-25T09:13:31Z</time>
      </trkpt>
      <trkpt lat="45.70068" lon="4.7013">
        <ele>272.363342</ele>
        <time>2016-09-25T09:13:33Z</time>
      </trkpt>
      <trkpt lat="45.70076" lon="4.70139">
        <ele>272.33783</ele>
        <time>2016-09-25T09:13:35Z</time>
      </trkpt>
      <trkpt lat="45.70079" lon="4.70148">
        <ele>271.966125</ele>
        <time>2016-09-25T09:13:37Z</time>
      </trkpt>
      <trkpt lat="45.7008" lon="4.70154">
        <ele>271.66748</ele>
        <time>2016-09-25T09:13:39Z</time>
      </trkpt>
      <trkpt lat="45.70082" lon="4.70161">
        <ele>271.544281</ele>
        <time>2016-09-25T09:13:41Z</time>
      </trkpt>
      <trkpt lat="45.70087" lon="4.70169">
        <ele>271.293915</ele>
        <time>2016-09-25T09:13:43Z</time>
      </trkpt>
      <trkpt lat="45.70093" lon="4.70178">
        <ele>270.78006</ele>
        <time>2016-09-25T09:13:45Z</time>
      </trkpt>
      <trkpt lat="45.70099" lon="4.70188">
        <ele>270.501343</ele>
        <time>2016-09-25T09:13:47Z</time>
      </trkpt>
      <trkpt lat="45.70097" lon="4.70194">
        <ele>269.940643</ele>
        <time>2016-09-25T09:13:49Z</time>
      </trkpt>
      <trkpt lat="45.70097" lon="4.70204">
        <ele>269.673157</ele>
        <time>2016-09-25T09:13:51Z</time>
      </trkpt>
      <trkpt lat="45.70101" lon="4.70214">
        <ele>269.138</ele>
        <time>2016-09-25T09:13:53Z</time>
      </trkpt>
      <trkpt lat="45.70107" lon="4.70225">
        <ele>268.780457</ele>
        <time>2016-09-25T09:13:55Z</time>
      </trkpt>
      <trkpt lat="45.70111" lon="4.70235">
        <ele>268.650574</ele>
        <time>2016-09-25T09:13:57Z</time>
      </trkpt>
      <trkpt lat="45.70114" lon="4.70243">
        <ele>268.370178</ele>
        <time>2016-09-25T09:13:59Z</time>
      </trkpt>
      <trkpt lat="45.70117" lon="4.70251">
        <ele>268.087769</ele>
        <time>2016-09-25T09:14:01Z</time>
      </trkpt>
      <trkpt lat="45.70118" lon="4.70255">
        <ele>267.677856</ele>
        <time>2016-09-25T09:14:03Z</time>
      </trkpt>
      <trkpt lat="45.7012" lon="4.70259">
        <ele>267.580139</ele>
        <time>2016-09-25T09:14:05Z</time>
      </trkpt>
      <trkpt lat="45.70121" lon="4.70264">
        <ele>267.416321</ele>
        <time>2016-09-25T09:14:07Z</time>
      </trkpt>
      <trkpt lat="45.70122" lon="4.70269">
        <ele>267.29538</ele>
        <time>2016-09-25T09:14:09Z</time>
      </trkpt>
      <trkpt lat="45.70123" lon="4.70274">
        <ele>267.02951</ele>
        <time>2016-09-25T09:14:11Z</time>
      </trkpt>
      <trkpt lat="45.70124" lon="4.70279">
        <ele>266.921173</ele>
        <time>2016-09-25T09:14:13Z</time>
      </trkpt>
      <trkpt lat="45.70126" lon="4.70283">
        <ele>267.356384</ele>
        <time>2016-09-25T09:14:15Z</time>
      </trkpt>
      <trkpt lat="45.70126" lon="4.70288">
        <ele>267.430725</ele>
        <time>2016-09-25T09:14:17Z</time>
      </trkpt>
      <trkpt lat="45.70127" lon="4.70293">
        <ele>267.689819</ele>
        <time>2016-09-25T09:14:19Z</time>
      </trkpt>
      <trkpt lat="45.70128" lon="4.70297">
        <ele>267.857605</ele>
        <time>2016-09-25T09:14:21Z</time>
      </trkpt>
      <trkpt lat="45.70129" lon="4.70302">
        <ele>267.921448</ele>
        <time>2016-09-25T09:14:23Z</time>
      </trkpt>
      <trkpt lat="45.70131" lon="4.70306">
        <ele>268.274353</ele>
        <time>2016-09-25T09:14:25Z</time>
      </trkpt>
      <trkpt lat="45.70131" lon="4.70311">
        <ele>268.851471</ele>
        <time>2016-09-25T09:14:27Z</time>
      </trkpt>
      <trkpt lat="45.70132" lon="4.70315">
        <ele>269.087158</ele>
        <time>2016-09-25T09:14:29Z</time>
      </trkpt>
      <trkpt lat="45.70133" lon="4.7032">
        <ele>269.643494</ele>
        <time>2016-09-25T09:14:31Z</time>
      </trkpt>
      <trkpt lat="45.70134" lon="4.70324">
        <ele>270.053467</ele>
        <time>2016-09-25T09:14:33Z</time>
      </trkpt>
      <trkpt lat="45.70134" lon="4.70328">
        <ele>270.612</ele>
        <time>2016-09-25T09:14:35Z</time>
      </trkpt>
      <trkpt lat="45.70134" lon="4.70332">
        <ele>270.971283</ele>
        <time>2016-09-25T09:14:37Z</time>
      </trkpt>
      <trkpt lat="45.70134" lon="4.70336">
        <ele>271.251648</ele>
        <time>2016-09-25T09:14:39Z</time>
      </trkpt>
      <trkpt lat="45.70134" lon="4.70341">
        <ele>271.574524</ele>
        <time>2016-09-25T09:14:41Z</time>
      </trkpt>
      <trkpt lat="45.70134" lon="4.70346">
        <ele>272.019104</ele>
        <time>2016-09-25T09:14:43Z</time>
      </trkpt>
      <trkpt lat="45.70134" lon="4.70351">
        <ele>272.537415</ele>
        <time>2016-09-25T09:14:45Z</time>
      </trkpt>
      <trkpt lat="45.70134" lon="4.70358">
        <ele>272.983398</ele>
        <time>2016-09-25T09:14:47Z</time>
      </trkpt>
      <trkpt lat="45.70135" lon="4.70364">
        <ele>273.440002</ele>
        <time>2016-09-25T09:14:49Z</time>
      </trkpt>
      <trkpt lat="45.70136" lon="4.7037">
        <ele>273.828522</ele>
        <time>2016-09-25T09:14:51Z</time>
      </trkpt>
      <trkpt lat="45.70136" lon="4.70376">
        <ele>274.191742</ele>
        <time>2016-09-25T09:14:53Z</time>
      </trkpt>
      <trkpt lat="45.70137" lon="4.70381">
        <ele>274.584808</ele>
        <time>2016-09-25T09:14:55Z</time>
      </trkpt>
      <trkpt lat="45.70138" lon="4.70385">
        <ele>274.882324</ele>
        <time>2016-09-25T09:14:57Z</time>
      </trkpt>
      <trkpt lat="45.7014" lon="4.70387">
        <ele>275.192535</ele>
        <time>2016-09-25T09:14:59Z</time>
      </trkpt>
      <trkpt lat="45.70143" lon="4.70385">
        <ele>275.553772</ele>
        <time>2016-09-25T09:15:01Z</time>
      </trkpt>
      <trkpt lat="45.70145" lon="4.70382">
        <ele>275.893799</ele>
        <time>2016-09-25T09:15:03Z</time>
      </trkpt>
      <trkpt lat="45.70147" lon="4.70379">
        <ele>276.218079</ele>
        <time>2016-09-25T09:15:05Z</time>
      </trkpt>
      <trkpt lat="45.7015" lon="4.70375">
        <ele>276.434875</ele>
        <time>2016-09-25T09:15:07Z</time>
      </trkpt>
      <trkpt lat="45.70153" lon="4.70372">
        <ele>276.72406</ele>
        <time>2016-09-25T09:15:09Z</time>
      </trkpt>
      <trkpt lat="45.70155" lon="4.70368">
        <ele>277.121521</ele>
        <time>2016-09-25T09:15:11Z</time>
      </trkpt>
      <trkpt lat="45.70158" lon="4.70364">
        <ele>277.512604</ele>
        <time>2016-09-25T09:15:13Z</time>
      </trkpt>
      <trkpt lat="45.7016" lon="4.70361">
        <ele>277.714539</ele>
        <time>2016-09-25T09:15:15Z</time>
      </trkpt>
      <trkpt lat="45.70163" lon="4.70357">
        <ele>278.054626</ele>
        <time>2016-09-25T09:15:17Z</time>
      </trkpt>
      <trkpt lat="45.70165" lon="4.70353">
        <ele>278.283203</ele>
        <time>2016-09-25T09:15:19Z</time>
      </trkpt>
      <trkpt lat="45.70168" lon="4.70349">
        <ele>278.718933</ele>
        <time>2016-09-25T09:15:21Z</time>
      </trkpt>
      <trkpt lat="45.70171" lon="4.70345">
        <ele>279.035065</ele>
        <time>2016-09-25T09:15:23Z</time>
      </trkpt>
      <trkpt lat="45.70173" lon="4.70341">
        <ele>279.288025</ele>
        <time>2016-09-25T09:15:25Z</time>
      </trkpt>
      <trkpt lat="45.70176" lon="4.70338">
        <ele>279.632385</ele>
        <time>2016-09-25T09:15:27Z</time>
      </trkpt>
      <trkpt lat="45.70178" lon="4.70334">
        <ele>279.951233</ele>
        <time>2016-09-25T09:15:29Z</time>
      </trkpt>
      <trkpt lat="45.70181" lon="4.70331">
        <ele>280.104309</ele>
        <time>2016-09-25T09:15:31Z</time>
      </trkpt>
      <trkpt lat="45.70184" lon="4.70327">
        <ele>280.353668</ele>
        <time>2016-09-25T09:15:33Z</time>
      </trkpt>
      <trkpt lat="45.70186" lon="4.70324">
        <ele>280.683167</ele>
        <time>2016-09-25T09:15:35Z</time>
      </trkpt>
      <trkpt lat="45.70188" lon="4.70321">
        <ele>281.059509</ele>
        <time>2016-09-25T09:15:37Z</time>
      </trkpt>
      <trkpt lat="45.7019" lon="4.70318">
        <ele>281.357147</ele>
        <time>2016-09-25T09:15:39Z</time>
      </trkpt>
      <trkpt lat="45.70192" lon="4.70314">
        <ele>281.732727</ele>
        <time>2016-09-25T09:15:41Z</time>
      </trkpt>
      <trkpt lat="45.70194" lon="4.70312">
        <ele>282.023895</ele>
        <time>2016-09-25T09:15:43Z</time>
      </trkpt>
      <trkpt lat="45.70195" lon="4.70309">
        <ele>282.376831</ele>
        <time>2016-09-25T09:15:45Z</time>
      </trkpt>
      <trkpt lat="45.70197" lon="4.70306">
        <ele>282.74469</ele>
        <time>2016-09-25T09:15:47Z</time>
      </trkpt>
      <trkpt lat="45.70198" lon="4.70302">
        <ele>283.099792</ele>
        <time>2016-09-25T09:15:49Z</time>
      </trkpt>
      <trkpt lat="45.70198" lon="4.70298">
        <ele>283.310303</ele>
        <time>2016-09-25T09:15:51Z</time>
      </trkpt>
      <trkpt lat="45.70198" lon="4.70294">
        <ele>283.617981</ele>
        <time>2016-09-25T09:15:53Z</time>
      </trkpt>
      <trkpt lat="45.70198" lon="4.7029">
        <ele>283.825287</ele>
        <time>2016-09-25T09:15:55Z</time>
      </trkpt>
      <trkpt lat="45.70198" lon="4.70286">
        <ele>284.106018</ele>
        <time>2016-09-25T09:15:57Z</time>
      </trkpt>
      <trkpt lat="45.70197" lon="4.70281">
        <ele>284.459076</ele>
        <time>2016-09-25T09:15:59Z</time>
      </trkpt>
      <trkpt lat="45.70196" lon="4.70277">
        <ele>284.887543</ele>
        <time>2016-09-25T09:16:01Z</time>
      </trkpt>
      <trkpt lat="45.70195" lon="4.70273">
        <ele>285.181091</ele>
        <time>2016-09-25T09:16:03Z</time>
      </trkpt>
      <trkpt lat="45.70194" lon="4.70268">
        <ele>285.407043</ele>
        <time>2016-09-25T09:16:05Z</time>
      </trkpt>
      <trkpt lat="45.70193" lon="4.70263">
        <ele>285.757996</ele>
        <time>2016-09-25T09:16:07Z</time>
      </trkpt>
      <trkpt lat="45.70192" lon="4.70259">
        <ele>285.998352</ele>
        <time>2016-09-25T09:16:09Z</time>
      </trkpt>
      <trkpt lat="45.70192" lon="4.70254">
        <ele>286.451416</ele>
        <time>2016-09-25T09:16:11Z</time>
      </trkpt>
      <trkpt lat="45.70191" lon="4.7025">
        <ele>286.823669</ele>
        <time>2016-09-25T09:16:13Z</time>
      </trkpt>
      <trkpt lat="45.7019" lon="4.70246">
        <ele>287.153381</ele>
        <time>2016-09-25T09:16:15Z</time>
      </trkpt>
      <trkpt lat="45.7019" lon="4.70242">
        <ele>287.295898</ele>
        <time>2016-09-25T09:16:17Z</time>
      </trkpt>
      <trkpt lat="45.70189" lon="4.70238">
        <ele>287.568207</ele>
        <time>2016-09-25T09:16:19Z</time>
      </trkpt>
      <trkpt lat="45.70189" lon="4.70234">
        <ele>287.834137</ele>
        <time>2016-09-25T09:16:21Z</time>
      </trkpt>
      <trkpt lat="45.70188" lon="4.70231">
        <ele>288.095886</ele>
        <time>2016-09-25T09:16:23Z</time>
      </trkpt>
      <trkpt lat="45.70187" lon="4.70227">
        <ele>288.459839</ele>
        <time>2016-09-25T09:16:25Z</time>
      </trkpt>
      <trkpt lat="45.70186" lon="4.70224">
        <ele>288.862</ele>
        <time>2016-09-25T09:16:27Z</time>
      </trkpt>
      <trkpt lat="45.70186" lon="4.7022">
        <ele>289.244598</ele>
        <time>2016-09-25T09:16:29Z</time>
      </trkpt>
      <trkpt lat="45.70185" lon="4.70216">
        <ele>289.627869</ele>
        <time>2016-09-25T09:16:31Z</time>
      </trkpt>
      <trkpt lat="45.70184" lon="4.70212">
        <ele>290.006836</ele>
        <time>2016-09-25T09:16:33Z</time>
      </trkpt>
      <trkpt lat="45.70183" lon="4.70208">
        <ele>290.370392</ele>
        <time>2016-09-25T09:16:35Z</time>
      </trkpt>
      <trkpt lat="45.70182" lon="4.70203">
        <ele>290.849121</ele>
        <time>2016-09-25T09:16:37Z</time>
      </trkpt>
      <trkpt lat="45.70181" lon="4.70198">
        <ele>291.196075</ele>
        <time>2016-09-25T09:16:39Z</time>
      </trkpt>
      <trkpt lat="45.70179" lon="4.70193">
        <ele>291.611115</ele>
        <time>2016-09-25T09:16:41Z</time>
      </trkpt>
      <trkpt lat="45.70178" lon="4.70189">
        <ele>292.005341</ele>
        <time>2016-09-25T09:16:43Z</time>
      </trkpt>
      <trkpt lat="45.70176" lon="4.70184">
        <ele>292.428894</ele>
        <time>2016-09-25T09:16:45Z</time>
      </trkpt>
      <trkpt lat="45.70174" lon="4.70179">
        <ele>292.636993</ele>
        <time>2016-09-25T09:16:47Z</time>
      </trkpt>
      <trkpt lat="45.70172" lon="4.70175">
        <ele>293.019226</ele>
        <time>2016-09-25T09:16:49Z</time>
      </trkpt>
      <trkpt lat="45.7017" lon="4.7017">
        <ele>293.38739</ele>
        <time>2016-09-25T09:16:51Z</time>
      </trkpt>
      <trkpt lat="45.70168" lon="4.70165">
        <ele>293.727966</ele>
        <time>2016-09-25T09:16:53Z</time>
      </trkpt>
      <trkpt lat="45.70166" lon="4.7016">
        <ele>294.109009</ele>
        <time>2016-09-25T09:16:55Z</time>
      </trkpt>
      <trkpt lat="45.70164" lon="4.70156">
        <ele>294.494415</ele>
        <time>2016-09-25T09:16:57Z</time>
      </trkpt>
      <trkpt lat="45.70162" lon="4.70152">
        <ele>294.911682</ele>
        <time>2016-09-25T09:16:59Z</time>
      </trkpt>
      <trkpt lat="45.7016" lon="4.70147">
        <ele>295.395935</ele>
        <time>2016-09-25T09:17:01Z</time>
      </trkpt>
      <trkpt lat="45.70158" lon="4.70142">
        <ele>295.82254</ele>
        <time>2016-09-25T09:17:03Z</time>
      </trkpt>
      <trkpt lat="45.70155" lon="4.70137">
        <ele>296.278198</ele>
        <time>2016-09-25T09:17:05Z</time>
      </trkpt>
      <trkpt lat="45.70153" lon="4.70132">
        <ele>296.593353</ele>
        <time>2016-09-25T09:17:07Z</time>
      </trkpt>
      <trkpt lat="45.70151" lon="4.70127">
        <ele>296.889343</ele>
        <time>2016-09-25T09:17:09Z</time>
      </trkpt>
      <trkpt lat="45.70149" lon="4.70122">
        <ele>297.151672</ele>
        <time>2016-09-25T09:17:11Z</time>
      </trkpt>
      <trkpt lat="45.70147" lon="4.70117">
        <ele>297.398682</ele>
        <time>2016-09-25T09:17:13Z</time>
      </trkpt>
      <trkpt lat="45.70145" lon="4.70113">
        <ele>297.592987</ele>
        <time>2016-09-25T09:17:15Z</time>
      </trkpt>
      <trkpt lat="45.70143" lon="4.70108">
        <ele>297.926697</ele>
        <time>2016-09-25T09:17:17Z</time>
      </trkpt>
      <trkpt lat="45.70141" lon="4.70104">
        <ele>298.361786</ele>
        <time>2016-09-25T09:17:19Z</time>
      </trkpt>
      <trkpt lat="45.70139" lon="4.70099">
        <ele>298.612823</ele>
        <time>2016-09-25T09:17:21Z</time>
      </trkpt>
      <trkpt lat="45.70136" lon="4.70094">
        <ele>298.780457</ele>
        <time>2016-09-25T09:17:23Z</time>
      </trkpt>
      <trkpt lat="45.70134" lon="4.70089">
        <ele>299.00238</ele>
        <time>2016-09-25T09:17:25Z</time>
      </trkpt>
      <trkpt lat="45.70132" lon="4.70084">
        <ele>299.226013</ele>
        <time>2016-09-25T09:17:27Z</time>
      </trkpt>
      <trkpt lat="45.70131" lon="4.7008">
        <ele>299.514435</ele>
        <time>2016-09-25T09:17:29Z</time>
      </trkpt>
      <trkpt lat="45.70129" lon="4.70075">
        <ele>299.919128</ele>
        <time>2016-09-25T09:17:31Z</time>
      </trkpt>
      <trkpt lat="45.70127" lon="4.7007">
        <ele>300.215149</ele>
        <time>2016-09-25T09:17:33Z</time>
      </trkpt>
      <trkpt lat="45.70126" lon="4.70066">
        <ele>300.504883</ele>
        <time>2016-09-25T09:17:35Z</time>
      </trkpt>
      <trkpt lat="45.70127" lon="4.70061">
        <ele>300.647614</ele>
        <time>2016-09-25T09:17:37Z</time>
      </trkpt>
      <trkpt lat="45.7013" lon="4.70059">
        <ele>301.037354</ele>
        <time>2016-09-25T09:17:39Z</time>
      </trkpt>
      <trkpt lat="45.70133" lon="4.70057">
        <ele>301.429382</ele>
        <time>2016-09-25T09:17:41Z</time>
      </trkpt>
      <trkpt lat="45.70136" lon="4.70056">
        <ele>301.845886</ele>
        <time>2016-09-25T09:17:43Z</time>
      </trkpt>
      <trkpt lat="45.70139" lon="4.70054">
        <ele>302.156921</ele>
        <time>2016-09-25T09:17:45Z</time>
      </trkpt>
      <trkpt lat="45.70144" lon="4.70052">
        <ele>302.425354</ele>
        <time>2016-09-25T09:17:47Z</time>
      </trkpt>
      <trkpt lat="45.70148" lon="4.70051">
        <ele>302.636688</ele>
        <time>2016-09-25T09:17:49Z</time>
      </trkpt>
      <trkpt lat="45.70152" lon="4.70049">
        <ele>302.986145</ele>
        <time>2016-09-25T09:17:51Z</time>
      </trkpt>
      <trkpt lat="45.70156" lon="4.70047">
        <ele>303.366211</ele>
        <time>2016-09-25T09:17:53Z</time>
      </trkpt>
      <trkpt lat="45.70161" lon="4.70046">
        <ele>303.790222</ele>
        <time>2016-09-25T09:17:55Z</time>
      </trkpt>
      <trkpt lat="45.70165" lon="4.70045">
        <ele>304.160706</ele>
        <time>2016-09-25T09:17:57Z</time>
      </trkpt>
      <trkpt lat="45.70169" lon="4.70043">
        <ele>304.449768</ele>
        <time>2016-09-25T09:17:59Z</time>
      </trkpt>
      <trkpt lat="45.70174" lon="4.70042">
        <ele>304.841248</ele>
        <time>2016-09-25T09:18:01Z</time>
      </trkpt>
      <trkpt lat="45.7018" lon="4.70041">
        <ele>305.191589</ele>
        <time>2016-09-25T09:18:03Z</time>
      </trkpt>
      <trkpt lat="45.70186" lon="4.70039">
        <ele>305.394012</ele>
        <time>2016-09-25T09:18:05Z</time>
      </trkpt>
      <trkpt lat="45.70191" lon="4.70038">
        <ele>305.839935</ele>
        <time>2016-09-25T09:18:07Z</time>
      </trkpt>
      <trkpt lat="45.70198" lon="4.70037">
        <ele>306.18515</ele>
        <time>2016-09-25T09:18:09Z</time>
      </trkpt>
      <trkpt lat="45.70205" lon="4.70036">
        <ele>306.600769</ele>
        <time>2016-09-25T09:18:11Z</time>
      </trkpt>
      <trkpt lat="45.70211" lon="4.70034">
        <ele>306.952484</ele>
        <time>2016-09-25T09:18:13Z</time>
      </trkpt>
      <trkpt lat="45.70219" lon="4.70033">
        <ele>307.242249</ele>
        <time>2016-09-25T09:18:15Z</time>
      </trkpt>
      <trkpt lat="45.70227" lon="4.70031">
        <ele>307.526184</ele>
        <time>2016-09-25T09:18:17Z</time>
      </trkpt>
      <trkpt lat="45.70236" lon="4.70029">
        <ele>307.911896</ele>
        <time>2016-09-25T09:18:19Z</time>
      </trkpt>
      <trkpt lat="45.70244" lon="4.70026">
        <ele>308.167694</ele>
        <time>2016-09-25T09:18:21Z</time>
      </trkpt>
      <trkpt lat="45.70253" lon="4.70023">
        <ele>308.203949</ele>
        <time>2016-09-25T09:18:23Z</time>
      </trkpt>
      <trkpt lat="45.70261" lon="4.70018">
        <ele>308.161377</ele>
        <time>2016-09-25T09:18:25Z</time>
      </trkpt>
      <trkpt lat="45.70269" lon="4.70011">
        <ele>308.30423</ele>
        <time>2016-09-25T09:18:27Z</time>
      </trkpt>
      <trkpt lat="45.70275" lon="4.70003">
        <ele>308.538727</ele>
        <time>2016-09-25T09:18:29Z</time>
      </trkpt>
      <trkpt lat="45.7028" lon="4.69994">
        <ele>308.63208</ele>
        <time>2016-09-25T09:18:31Z</time>
      </trkpt>
      <trkpt lat="45.70285" lon="4.69985">
        <ele>308.719147</ele>
        <time>2016-09-25T09:18:33Z</time>
      </trkpt>
      <trkpt lat="45.7029" lon="4.69977">
        <ele>308.946442</ele>
        <time>2016-09-25T09:18:35Z</time>
      </trkpt>
      <trkpt lat="45.70296" lon="4.69967">
        <ele>309.089264</ele>
        <time>2016-09-25T09:18:37Z</time>
      </trkpt>
      <trkpt lat="45.70301" lon="4.69958">
        <ele>309.138611</ele>
        <time>2016-09-25T09:18:39Z</time>
      </trkpt>
      <trkpt lat="45.70307" lon="4.69948">
        <ele>309.29071</ele>
        <time>2016-09-25T09:18:41Z</time>
      </trkpt>
      <trkpt lat="45.70313" lon="4.69939">
        <ele>309.476227</ele>
        <time>2016-09-25T09:18:43Z</time>
      </trkpt>
      <trkpt lat="45.70318" lon="4.69929">
        <ele>309.503967</ele>
        <time>2016-09-25T09:18:45Z</time>
      </trkpt>
      <trkpt lat="45.70324" lon="4.69919">
        <ele>309.590393</ele>
        <time>2016-09-25T09:18:47Z</time>
      </trkpt>
      <trkpt lat="45.7033" lon="4.69909">
        <ele>309.825623</ele>
        <time>2016-09-25T09:18:49Z</time>
      </trkpt>
      <trkpt lat="45.70334" lon="4.69898">
        <ele>309.742493</ele>
        <time>2016-09-25T09:18:51Z</time>
      </trkpt>
      <trkpt lat="45.70335" lon="4.69887">
        <ele>309.979187</ele>
        <time>2016-09-25T09:18:53Z</time>
      </trkpt>
      <trkpt lat="45.70337" lon="4.69873">
        <ele>309.881165</ele>
        <time>2016-09-25T09:18:55Z</time>
      </trkpt>
      <trkpt lat="45.70338" lon="4.69859">
        <ele>309.906738</ele>
        <time>2016-09-25T09:18:57Z</time>
      </trkpt>
      <trkpt lat="45.70336" lon="4.69847">
        <ele>309.925476</ele>
        <time>2016-09-25T09:18:59Z</time>
      </trkpt>
      <trkpt lat="45.70335" lon="4.69835">
        <ele>309.838043</ele>
        <time>2016-09-25T09:19:01Z</time>
      </trkpt>
      <trkpt lat="45.70333" lon="4.69824">
        <ele>309.752838</ele>
        <time>2016-09-25T09:19:03Z</time>
      </trkpt>
      <trkpt lat="45.70331" lon="4.69813">
        <ele>309.757507</ele>
        <time>2016-09-25T09:19:05Z</time>
      </trkpt>
      <trkpt lat="45.70329" lon="4.69801">
        <ele>310.032471</ele>
        <time>2016-09-25T09:19:07Z</time>
      </trkpt>
      <trkpt lat="45.70328" lon="4.6979">
        <ele>310.190186</ele>
        <time>2016-09-25T09:19:09Z</time>
      </trkpt>
      <trkpt lat="45.70327" lon="4.69779">
        <ele>310.00473</ele>
        <time>2016-09-25T09:19:11Z</time>
      </trkpt>
      <trkpt lat="45.70329" lon="4.6977">
        <ele>309.989807</ele>
        <time>2016-09-25T09:19:13Z</time>
      </trkpt>
      <trkpt lat="45.70335" lon="4.69767">
        <ele>310.143616</ele>
        <time>2016-09-25T09:19:15Z</time>
      </trkpt>
      <trkpt lat="45.70343" lon="4.69768">
        <ele>310.103088</ele>
        <time>2016-09-25T09:19:17Z</time>
      </trkpt>
      <trkpt lat="45.70353" lon="4.69771">
        <ele>310.134979</ele>
        <time>2016-09-25T09:19:19Z</time>
      </trkpt>
      <trkpt lat="45.70365" lon="4.69773">
        <ele>310.250153</ele>
        <time>2016-09-25T09:19:21Z</time>
      </trkpt>
      <trkpt lat="45.70377" lon="4.69772">
        <ele>310.220306</ele>
        <time>2016-09-25T09:19:23Z</time>
      </trkpt>
      <trkpt lat="45.7039" lon="4.69768">
        <ele>310.058289</ele>
        <time>2016-09-25T09:19:25Z</time>
      </trkpt>
      <trkpt lat="45.70404" lon="4.69763">
        <ele>310.149261</ele>
        <time>2016-09-25T09:19:27Z</time>
      </trkpt>
      <trkpt lat="45.70415" lon="4.69758">
        <ele>309.979767</ele>
        <time>2016-09-25T09:19:29Z</time>
      </trkpt>
      <trkpt lat="45.70422" lon="4.69755">
        <ele>309.703064</ele>
        <time>2016-09-25T09:19:31Z</time>
      </trkpt>
      <trkpt lat="45.70429" lon="4.69758">
        <ele>309.393921</ele>
        <time>2016-09-25T09:19:33Z</time>
      </trkpt>
      <trkpt lat="45.70434" lon="4.69764">
        <ele>309.454132</ele>
        <time>2016-09-25T09:19:35Z</time>
      </trkpt>
      <trkpt lat="45.7044" lon="4.69771">
        <ele>309.110962</ele>
        <time>2016-09-25T09:19:37Z</time>
      </trkpt>
      <trkpt lat="45.70446" lon="4.69778">
        <ele>308.9711</ele>
        <time>2016-09-25T09:19:39Z</time>
      </trkpt>
      <trkpt lat="45.70454" lon="4.69786">
        <ele>308.775696</ele>
        <time>2016-09-25T09:19:41Z</time>
      </trkpt>
      <trkpt lat="45.70464" lon="4.69797">
        <ele>308.372894</ele>
        <time>2016-09-25T09:19:43Z</time>
      </trkpt>
      <trkpt lat="45.70477" lon="4.6981">
        <ele>308.240784</ele>
        <time>2016-09-25T09:19:45Z</time>
      </trkpt>
      <trkpt lat="45.70491" lon="4.69823">
        <ele>307.760864</ele>
        <time>2016-09-25T09:19:47Z</time>
      </trkpt>
      <trkpt lat="45.70504" lon="4.69836">
        <ele>307.38797</ele>
        <time>2016-09-25T09:19:49Z</time>
      </trkpt>
      <trkpt lat="45.70519" lon="4.69846">
        <ele>306.702484</ele>
        <time>2016-09-25T09:19:51Z</time>
      </trkpt>
      <trkpt lat="45.70535" lon="4.69855">
        <ele>306.133759</ele>
        <time>2016-09-25T09:19:53Z</time>
      </trkpt>
      <trkpt lat="45.70553" lon="4.69859">
        <ele>305.31366</ele>
        <time>2016-09-25T09:19:55Z</time>
      </trkpt>
      <trkpt lat="45.70572" lon="4.69863">
        <ele>304.25705</ele>
        <time>2016-09-25T09:19:57Z</time>
      </trkpt>
      <trkpt lat="45.70588" lon="4.69875">
        <ele>303.266571</ele>
        <time>2016-09-25T09:19:59Z</time>
      </trkpt>
      <trkpt lat="45.70605" lon="4.69888">
        <ele>302.244446</ele>
        <time>2016-09-25T09:20:01Z</time>
      </trkpt>
      <trkpt lat="45.70618" lon="4.69904">
        <ele>301.224182</ele>
        <time>2016-09-25T09:20:03Z</time>
      </trkpt>
      <trkpt lat="45.70624" lon="4.69924">
        <ele>300.295441</ele>
        <time>2016-09-25T09:20:05Z</time>
      </trkpt>
      <trkpt lat="45.70626" lon="4.69943">
        <ele>299.11145</ele>
        <time>2016-09-25T09:20:07Z</time>
      </trkpt>
      <trkpt lat="45.70625" lon="4.69957">
        <ele>298.281433</ele>
        <time>2016-09-25T09:20:09Z</time>
      </trkpt>
      <trkpt lat="45.70624" lon="4.69968">
        <ele>297.365448</ele>
        <time>2016-09-25T09:20:11Z</time>
      </trkpt>
      <trkpt lat="45.70623" lon="4.69976">
        <ele>296.700256</ele>
        <time>2016-09-25T09:20:13Z</time>
      </trkpt>
      <trkpt lat="45.70622" lon="4.69983">
        <ele>296.375763</ele>
        <time>2016-09-25T09:20:15Z</time>
      </trkpt>
      <trkpt lat="45.7062" lon="4.69988">
        <ele>295.670105</ele>
        <time>2016-09-25T09:20:17Z</time>
      </trkpt>
      <trkpt lat="45.70618" lon="4.69994">
        <ele>295.27179</ele>
        <time>2016-09-25T09:20:19Z</time>
      </trkpt>
      <trkpt lat="45.70615" lon="4.69999">
        <ele>294.776672</ele>
        <time>2016-09-25T09:20:21Z</time>
      </trkpt>
      <trkpt lat="45.70613" lon="4.70005">
        <ele>294.239075</ele>
        <time>2016-09-25T09:20:23Z</time>
      </trkpt>
      <trkpt lat="45.7061" lon="4.70009">
        <ele>293.919647</ele>
        <time>2016-09-25T09:20:25Z</time>
      </trkpt>
      <trkpt lat="45.70607" lon="4.70014">
        <ele>293.585266</ele>
        <time>2016-09-25T09:20:27Z</time>
      </trkpt>
      <trkpt lat="45.70604" lon="4.70018">
        <ele>293.386749</ele>
        <time>2016-09-25T09:20:29Z</time>
      </trkpt>
      <trkpt lat="45.70601" lon="4.70022">
        <ele>293.618835</ele>
        <time>2016-09-25T09:20:31Z</time>
      </trkpt>
      <trkpt lat="45.70598" lon="4.70027">
        <ele>293.601196</ele>
        <time>2016-09-25T09:20:33Z</time>
      </trkpt>
      <trkpt lat="45.70595" lon="4.70031">
        <ele>293.990784</ele>
        <time>2016-09-25T09:20:35Z</time>
      </trkpt>
      <trkpt lat="45.70592" lon="4.70037">
        <ele>294.263336</ele>
        <time>2016-09-25T09:20:37Z</time>
      </trkpt>
      <trkpt lat="45.70588" lon="4.70044">
        <ele>294.69342</ele>
        <time>2016-09-25T09:20:39Z</time>
      </trkpt>
      <trkpt lat="45.70585" lon="4.70051">
        <ele>295.200073</ele>
        <time>2016-09-25T09:20:41Z</time>
      </trkpt>
      <trkpt lat="45.70583" lon="4.70058">
        <ele>295.297668</ele>
        <time>2016-09-25T09:20:43Z</time>
      </trkpt>
      <trkpt lat="45.70579" lon="4.70065">
        <ele>295.714844</ele>
        <time>2016-09-25T09:20:45Z</time>
      </trkpt>
      <trkpt lat="45.70577" lon="4.70073">
        <ele>296.078918</ele>
        <time>2016-09-25T09:20:47Z</time>
      </trkpt>
      <trkpt lat="45.70573" lon="4.70081">
        <ele>296.705933</ele>
        <time>2016-09-25T09:20:49Z</time>
      </trkpt>
      <trkpt lat="45.7057" lon="4.70088">
        <ele>297.16156</ele>
        <time>2016-09-25T09:20:51Z</time>
      </trkpt>
      <trkpt lat="45.70567" lon="4.70096">
        <ele>297.483032</ele>
        <time>2016-09-25T09:20:53Z</time>
      </trkpt>
      <trkpt lat="45.70564" lon="4.70103">
        <ele>297.747101</ele>
        <time>2016-09-25T09:20:55Z</time>
      </trkpt>
      <trkpt lat="45.70561" lon="4.70112">
        <ele>298.116272</ele>
        <time>2016-09-25T09:20:57Z</time>
      </trkpt>
      <trkpt lat="45.70558" lon="4.7012">
        <ele>298.335602</ele>
        <time>2016-09-25T09:20:59Z</time>
      </trkpt>
      <trkpt lat="45.70554" lon="4.70129">
        <ele>298.56134</ele>
        <time>2016-09-25T09:21:01Z</time>
      </trkpt>
      <trkpt lat="45.70551" lon="4.70137">
        <ele>298.727478</ele>
        <time>2016-09-25T09:21:03Z</time>
      </trkpt>
      <trkpt lat="45.70547" lon="4.70145">
        <ele>299.023499</ele>
        <time>2016-09-25T09:21:05Z</time>
      </trkpt>
      <trkpt lat="45.70544" lon="4.70153">
        <ele>299.281158</ele>
        <time>2016-09-25T09:21:07Z</time>
      </trkpt>
      <trkpt lat="45.7054" lon="4.7016">
        <ele>299.398285</ele>
        <time>2016-09-25T09:21:09Z</time>
      </trkpt>
      <trkpt lat="45.70537" lon="4.70167">
        <ele>299.62677</ele>
        <time>2016-09-25T09:21:11Z</time>
      </trkpt>
      <trkpt lat="45.70535" lon="4.70173">
        <ele>299.837616</ele>
        <time>2016-09-25T09:21:13Z</time>
      </trkpt>
      <trkpt lat="45.70533" lon="4.70179">
        <ele>300.054871</ele>
        <time>2016-09-25T09:21:15Z</time>
      </trkpt>
      <trkpt lat="45.70532" lon="4.70185">
        <ele>300.310516</ele>
        <time>2016-09-25T09:21:17Z</time>
      </trkpt>
      <trkpt lat="45.7053" lon="4.7019">
        <ele>300.44046</ele>
        <time>2016-09-25T09:21:19Z</time>
      </trkpt>
      <trkpt lat="45.70529" lon="4.70197">
        <ele>300.683319</ele>
        <time>2016-09-25T09:21:21Z</time>
      </trkpt>
      <trkpt lat="45.70528" lon="4.70203">
        <ele>300.950867</ele>
        <time>2016-09-25T09:21:23Z</time>
      </trkpt>
      <trkpt lat="45.70527" lon="4.70209">
        <ele>301.304504</ele>
        <time>2016-09-25T09:21:25Z</time>
      </trkpt>
      <trkpt lat="45.70526" lon="4.70215">
        <ele>301.592102</ele>
        <time>2016-09-25T09:21:27Z</time>
      </trkpt>
      <trkpt lat="45.70525" lon="4.70222">
        <ele>301.927429</ele>
        <time>2016-09-25T09:21:29Z</time>
      </trkpt>
      <trkpt lat="45.70524" lon="4.70228">
        <ele>302.376953</ele>
        <time>2016-09-25T09:21:31Z</time>
      </trkpt>
      <trkpt lat="45.70524" lon="4.70235">
        <ele>302.749847</ele>
        <time>2016-09-25T09:21:33Z</time>
      </trkpt>
      <trkpt lat="45.70522" lon="4.70241">
        <ele>303.207855</ele>
        <time>2016-09-25T09:21:35Z</time>
      </trkpt>
      <trkpt lat="45.70521" lon="4.70248">
        <ele>303.565857</ele>
        <time>2016-09-25T09:21:37Z</time>
      </trkpt>
      <trkpt lat="45.7052" lon="4.70254">
        <ele>303.957916</ele>
        <time>2016-09-25T09:21:39Z</time>
      </trkpt>
      <trkpt lat="45.7052" lon="4.7026">
        <ele>304.10614</ele>
        <time>2016-09-25T09:21:41Z</time>
      </trkpt>
      <trkpt lat="45.70519" lon="4.70266">
        <ele>304.542999</ele>
        <time>2016-09-25T09:21:43Z</time>
      </trkpt>
      <trkpt lat="45.70518" lon="4.70271">
        <ele>304.975555</ele>
        <time>2016-09-25T09:21:45Z</time>
      </trkpt>
      <trkpt lat="45.70517" lon="4.70276">
        <ele>305.434692</ele>
        <time>2016-09-25T09:21:47Z</time>
      </trkpt>
      <trkpt lat="45.70515" lon="4.70282">
        <ele>305.78302</ele>
        <time>2016-09-25T09:21:49Z</time>
      </trkpt>
      <trkpt lat="45.70514" lon="4.70287">
        <ele>306.224457</ele>
        <time>2016-09-25T09:21:51Z</time>
      </trkpt>
      <trkpt lat="45.70513" lon="4.70293">
        <ele>306.606018</ele>
        <time>2016-09-25T09:21:53Z</time>
      </trkpt>
      <trkpt lat="45.70512" lon="4.70298">
        <ele>307.028015</ele>
        <time>2016-09-25T09:21:55Z</time>
      </trkpt>
      <trkpt lat="45.70511" lon="4.70304">
        <ele>307.363281</ele>
        <time>2016-09-25T09:21:57Z</time>
      </trkpt>
      <trkpt lat="45.7051" lon="4.70309">
        <ele>307.772522</ele>
        <time>2016-09-25T09:21:59Z</time>
      </trkpt>
      <trkpt lat="45.70509" lon="4.70316">
        <ele>307.996338</ele>
        <time>2016-09-25T09:22:01Z</time>
      </trkpt>
      <trkpt lat="45.70508" lon="4.70322">
        <ele>308.301208</ele>
        <time>2016-09-25T09:22:03Z</time>
      </trkpt>
      <trkpt lat="45.70507" lon="4.70329">
        <ele>308.642365</ele>
        <time>2016-09-25T09:22:05Z</time>
      </trkpt>
      <trkpt lat="45.70507" lon="4.70335">
        <ele>308.96637</ele>
        <time>2016-09-25T09:22:07Z</time>
      </trkpt>
      <trkpt lat="45.70506" lon="4.70342">
        <ele>309.196594</ele>
        <time>2016-09-25T09:22:09Z</time>
      </trkpt>
      <trkpt lat="45.70507" lon="4.70348">
        <ele>309.550232</ele>
        <time>2016-09-25T09:22:11Z</time>
      </trkpt>
      <trkpt lat="45.70507" lon="4.70355">
        <ele>309.842316</ele>
        <time>2016-09-25T09:22:13Z</time>
      </trkpt>
      <trkpt lat="45.70508" lon="4.70361">
        <ele>310.136536</ele>
        <time>2016-09-25T09:22:15Z</time>
      </trkpt>
      <trkpt lat="45.70509" lon="4.70368">
        <ele>310.541321</ele>
        <time>2016-09-25T09:22:17Z</time>
      </trkpt>
      <trkpt lat="45.7051" lon="4.70374">
        <ele>310.882507</ele>
        <time>2016-09-25T09:22:19Z</time>
      </trkpt>
      <trkpt lat="45.70511" lon="4.7038">
        <ele>311.076538</ele>
        <time>2016-09-25T09:22:21Z</time>
      </trkpt>
      <trkpt lat="45.70512" lon="4.70387">
        <ele>311.496765</ele>
        <time>2016-09-25T09:22:23Z</time>
      </trkpt>
      <trkpt lat="45.70513" lon="4.70393">
        <ele>311.797394</ele>
        <time>2016-09-25T09:22:25Z</time>
      </trkpt>
      <trkpt lat="45.70514" lon="4.704">
        <ele>312.031952</ele>
        <time>2016-09-25T09:22:27Z</time>
      </trkpt>
      <trkpt lat="45.70515" lon="4.70408">
        <ele>312.329559</ele>
        <time>2016-09-25T09:22:29Z</time>
      </trkpt>
      <trkpt lat="45.70515" lon="4.70415">
        <ele>312.68045</ele>
        <time>2016-09-25T09:22:31Z</time>
      </trkpt>
      <trkpt lat="45.70517" lon="4.70423">
        <ele>312.961548</ele>
        <time>2016-09-25T09:22:33Z</time>
      </trkpt>
      <trkpt lat="45.70518" lon="4.7043">
        <ele>313.242004</ele>
        <time>2016-09-25T09:22:35Z</time>
      </trkpt>
      <trkpt lat="45.70519" lon="4.70437">
        <ele>313.463806</ele>
        <time>2016-09-25T09:22:37Z</time>
      </trkpt>
      <trkpt lat="45.7052" lon="4.70445">
        <ele>313.73233</ele>
        <time>2016-09-25T09:22:39Z</time>
      </trkpt>
      <trkpt lat="45.70521" lon="4.70453">
        <ele>313.994659</ele>
        <time>2016-09-25T09:22:41Z</time>
      </trkpt>
      <trkpt lat="45.70521" lon="4.70461">
        <ele>314.263367</ele>
        <time>2016-09-25T09:22:43Z</time>
      </trkpt>
      <trkpt lat="45.70521" lon="4.70468">
        <ele>314.443298</ele>
        <time>2016-09-25T09:22:45Z</time>
      </trkpt>
      <trkpt lat="45.70521" lon="4.70477">
        <ele>314.765411</ele>
        <time>2016-09-25T09:22:47Z</time>
      </trkpt>
      <trkpt lat="45.70521" lon="4.70486">
        <ele>315.057617</ele>
        <time>2016-09-25T09:22:49Z</time>
      </trkpt>
      <trkpt lat="45.70521" lon="4.70495">
        <ele>315.22821</ele>
        <time>2016-09-25T09:22:51Z</time>
      </trkpt>
      <trkpt lat="45.7052" lon="4.70505">
        <ele>315.500793</ele>
        <time>2016-09-25T09:22:53Z</time>
      </trkpt>
      <trkpt lat="45.7052" lon="4.70515">
        <ele>315.711975</ele>
        <time>2016-09-25T09:22:55Z</time>
      </trkpt>
      <trkpt lat="45.70521" lon="4.70525">
        <ele>315.679993</ele>
        <time>2016-09-25T09:22:57Z</time>
      </trkpt>
      <trkpt lat="45.70521" lon="4.70536">
        <ele>315.819702</ele>
        <time>2016-09-25T09:22:59Z</time>
      </trkpt>
      <trkpt lat="45.70522" lon="4.70547">
        <ele>315.78772</ele>
        <time>2016-09-25T09:23:01Z</time>
      </trkpt>
      <trkpt lat="45.70522" lon="4.70559">
        <ele>315.811188</ele>
        <time>2016-09-25T09:23:03Z</time>
      </trkpt>
      <trkpt lat="45.70522" lon="4.70572">
        <ele>315.837585</ele>
        <time>2016-09-25T09:23:05Z</time>
      </trkpt>
      <trkpt lat="45.70524" lon="4.70586">
        <ele>315.906799</ele>
        <time>2016-09-25T09:23:07Z</time>
      </trkpt>
      <trkpt lat="45.70525" lon="4.70603">
        <ele>316.029999</ele>
        <time>2016-09-25T09:23:09Z</time>
      </trkpt>
      <trkpt lat="45.70527" lon="4.7062">
        <ele>316.080261</ele>
        <time>2016-09-25T09:23:11Z</time>
      </trkpt>
      <trkpt lat="45.70528" lon="4.70638">
        <ele>315.943817</ele>
        <time>2016-09-25T09:23:13Z</time>
      </trkpt>
      <trkpt lat="45.7053" lon="4.70658">
        <ele>315.794556</ele>
        <time>2016-09-25T09:23:15Z</time>
      </trkpt>
      <trkpt lat="45.70533" lon="4.70679">
        <ele>315.501312</ele>
        <time>2016-09-25T09:23:17Z</time>
      </trkpt>
      <trkpt lat="45.70536" lon="4.70698">
        <ele>315.217255</ele>
        <time>2016-09-25T09:23:19Z</time>
      </trkpt>
      <trkpt lat="45.70537" lon="4.70711">
        <ele>314.863281</ele>
        <time>2016-09-25T09:23:21Z</time>
      </trkpt>
      <trkpt lat="45.70532" lon="4.70715">
        <ele>314.762115</ele>
        <time>2016-09-25T09:23:23Z</time>
      </trkpt>
      <trkpt lat="45.70525" lon="4.70717">
        <ele>314.434387</ele>
        <time>2016-09-25T09:23:25Z</time>
      </trkpt>
      <trkpt lat="45.70516" lon="4.70718">
        <ele>314.140106</ele>
        <time>2016-09-25T09:23:27Z</time>
      </trkpt>
      <trkpt lat="45.70506" lon="4.70719">
        <ele>313.698639</ele>
        <time>2016-09-25T09:23:29Z</time>
      </trkpt>
      <trkpt lat="45.70495" lon="4.7072">
        <ele>313.255066</ele>
        <time>2016-09-25T09:23:31Z</time>
      </trkpt>
      <trkpt lat="45.70483" lon="4.7072">
        <ele>312.78241</ele>
        <time>2016-09-25T09:23:33Z</time>
      </trkpt>
      <trkpt lat="45.70471" lon="4.70721">
        <ele>312.485931</ele>
        <time>2016-09-25T09:23:35Z</time>
      </trkpt>
      <trkpt lat="45.70458" lon="4.70722">
        <ele>311.922913</ele>
        <time>2016-09-25T09:23:37Z</time>
      </trkpt>
      <trkpt lat="45.70444" lon="4.70727">
        <ele>311.589172</ele>
        <time>2016-09-25T09:23:39Z</time>
      </trkpt>
      <trkpt lat="45.70431" lon="4.70731">
        <ele>311.248016</ele>
        <time>2016-09-25T09:23:41Z</time>
      </trkpt>
      <trkpt lat="45.70417" lon="4.70736">
        <ele>310.808807</ele>
        <time>2016-09-25T09:23:43Z</time>
      </trkpt>
      <trkpt lat="45.70405" lon="4.70741">
        <ele>310.041443</ele>
        <time>2016-09-25T09:23:45Z</time>
      </trkpt>
      <trkpt lat="45.70396" lon="4.70751">
        <ele>309.702362</ele>
        <time>2016-09-25T09:23:47Z</time>
      </trkpt>
      <trkpt lat="45.70389" lon="4.70762">
        <ele>308.687561</ele>
        <time>2016-09-25T09:23:49Z</time>
      </trkpt>
      <trkpt lat="45.70378" lon="4.70767">
        <ele>307.826355</ele>
        <time>2016-09-25T09:23:51Z</time>
      </trkpt>
      <trkpt lat="45.70365" lon="4.7077">
        <ele>306.766296</ele>
        <time>2016-09-25T09:23:53Z</time>
      </trkpt>
      <trkpt lat="45.7035" lon="4.70772">
        <ele>306.267456</ele>
        <time>2016-09-25T09:23:55Z</time>
      </trkpt>
      <trkpt lat="45.70335" lon="4.70777">
        <ele>305.385071</ele>
        <time>2016-09-25T09:23:57Z</time>
      </trkpt>
      <trkpt lat="45.70321" lon="4.70782">
        <ele>304.386139</ele>
        <time>2016-09-25T09:23:59Z</time>
      </trkpt>
      <trkpt lat="45.70307" lon="4.70791">
        <ele>303.351105</ele>
        <time>2016-09-25T09:24:01Z</time>
      </trkpt>
      <trkpt lat="45.70294" lon="4.708">
        <ele>302.807922</ele>
        <time>2016-09-25T09:24:03Z</time>
      </trkpt>
      <trkpt lat="45.70283" lon="4.70812">
        <ele>301.007141</ele>
        <time>2016-09-25T09:24:05Z</time>
      </trkpt>
      <trkpt lat="45.70273" lon="4.70825">
        <ele>300.223267</ele>
        <time>2016-09-25T09:24:07Z</time>
      </trkpt>
      <trkpt lat="45.70261" lon="4.70839">
        <ele>299.335602</ele>
        <time>2016-09-25T09:24:09Z</time>
      </trkpt>
      <trkpt lat="45.70252" lon="4.7085">
        <ele>298.181793</ele>
        <time>2016-09-25T09:24:11Z</time>
      </trkpt>
      <trkpt lat="45.70244" lon="4.70856">
        <ele>297.051025</ele>
        <time>2016-09-25T09:24:13Z</time>
      </trkpt>
      <trkpt lat="45.70237" lon="4.70859">
        <ele>295.299744</ele>
        <time>2016-09-25T09:24:15Z</time>
      </trkpt>
      <trkpt lat="45.70229" lon="4.7086">
        <ele>294.152344</ele>
        <time>2016-09-25T09:24:17Z</time>
      </trkpt>
      <trkpt lat="45.70224" lon="4.70861">
        <ele>292.613647</ele>
        <time>2016-09-25T09:24:19Z</time>
      </trkpt>
      <trkpt lat="45.7022" lon="4.70862">
        <ele>291.951172</ele>
        <time>2016-09-25T09:24:21Z</time>
      </trkpt>
      <trkpt lat="45.70216" lon="4.70862">
        <ele>290.47052</ele>
        <time>2016-09-25T09:24:23Z</time>
      </trkpt>
      <trkpt lat="45.70212" lon="4.70863">
        <ele>289.100403</ele>
        <time>2016-09-25T09:24:25Z</time>
      </trkpt>
      <trkpt lat="45.70207" lon="4.70865">
        <ele>287.800659</ele>
        <time>2016-09-25T09:24:27Z</time>
      </trkpt>
      <trkpt lat="45.702" lon="4.70865">
        <ele>286.193695</ele>
        <time>2016-09-25T09:24:29Z</time>
      </trkpt>
      <trkpt lat="45.70195" lon="4.70866">
        <ele>285.032288</ele>
        <time>2016-09-25T09:24:31Z</time>
      </trkpt>
      <trkpt lat="45.7019" lon="4.70867">
        <ele>283.855652</ele>
        <time>2016-09-25T09:24:33Z</time>
      </trkpt>
      <trkpt lat="45.70186" lon="4.70868">
        <ele>282.739441</ele>
        <time>2016-09-25T09:24:35Z</time>
      </trkpt>
      <trkpt lat="45.70183" lon="4.70868">
        <ele>281.427185</ele>
        <time>2016-09-25T09:24:37Z</time>
      </trkpt>
      <trkpt lat="45.70181" lon="4.70868">
        <ele>280.623596</ele>
        <time>2016-09-25T09:24:39Z</time>
      </trkpt>
      <trkpt lat="45.70178" lon="4.70869">
        <ele>275.192566</ele>
        <time>2016-09-25T09:24:51Z</time>
      </trkpt>
      <trkpt lat="45.70174" lon="4.70869">
        <ele>274.490082</ele>
        <time>2016-09-25T09:24:53Z</time>
      </trkpt>
      <trkpt lat="45.70169" lon="4.70871">
        <ele>273.894928</ele>
        <time>2016-09-25T09:24:55Z</time>
      </trkpt>
      <trkpt lat="45.70163" lon="4.70871">
        <ele>273.556885</ele>
        <time>2016-09-25T09:24:57Z</time>
      </trkpt>
      <trkpt lat="45.70155" lon="4.70873">
        <ele>272.991608</ele>
        <time>2016-09-25T09:24:59Z</time>
      </trkpt>
      <trkpt lat="45.70148" lon="4.70873">
        <ele>272.67511</ele>
        <time>2016-09-25T09:25:01Z</time>
      </trkpt>
      <trkpt lat="45.7014" lon="4.70875">
        <ele>271.854401</ele>
        <time>2016-09-25T09:25:03Z</time>
      </trkpt>
      <trkpt lat="45.70131" lon="4.70876">
        <ele>271.195313</ele>
        <time>2016-09-25T09:25:05Z</time>
      </trkpt>
      <trkpt lat="45.70122" lon="4.70877">
        <ele>270.713196</ele>
        <time>2016-09-25T09:25:07Z</time>
      </trkpt>
      <trkpt lat="45.70112" lon="4.70877">
        <ele>270.059326</ele>
        <time>2016-09-25T09:25:09Z</time>
      </trkpt>
      <trkpt lat="45.70105" lon="4.70887">
        <ele>269.316162</ele>
        <time>2016-09-25T09:25:11Z</time>
      </trkpt>
      <trkpt lat="45.70101" lon="4.709">
        <ele>268.918365</ele>
        <time>2016-09-25T09:25:13Z</time>
      </trkpt>
      <trkpt lat="45.70098" lon="4.70914">
        <ele>268.239075</ele>
        <time>2016-09-25T09:25:15Z</time>
      </trkpt>
      <trkpt lat="45.70095" lon="4.70922">
        <ele>267.693451</ele>
        <time>2016-09-25T09:25:17Z</time>
      </trkpt>
      <trkpt lat="45.70089" lon="4.70922">
        <ele>267.778473</ele>
        <time>2016-09-25T09:25:19Z</time>
      </trkpt>
      <trkpt lat="45.70081" lon="4.70921">
        <ele>267.60434</ele>
        <time>2016-09-25T09:25:21Z</time>
      </trkpt>
      <trkpt lat="45.70071" lon="4.70916">
        <ele>267.08432</ele>
        <time>2016-09-25T09:25:23Z</time>
      </trkpt>
      <trkpt lat="45.70062" lon="4.70912">
        <ele>266.607361</ele>
        <time>2016-09-25T09:25:25Z</time>
      </trkpt>
      <trkpt lat="45.70054" lon="4.7091">
        <ele>266.342041</ele>
        <time>2016-09-25T09:25:27Z</time>
      </trkpt>
      <trkpt lat="45.70046" lon="4.70908">
        <ele>265.510193</ele>
        <time>2016-09-25T09:25:29Z</time>
      </trkpt>
      <trkpt lat="45.70037" lon="4.70907">
        <ele>264.678497</ele>
        <time>2016-09-25T09:25:31Z</time>
      </trkpt>
      <trkpt lat="45.70027" lon="4.70907">
        <ele>263.831573</ele>
        <time>2016-09-25T09:25:33Z</time>
      </trkpt>
      <trkpt lat="45.70017" lon="4.70905">
        <ele>263.139679</ele>
        <time>2016-09-25T09:25:35Z</time>
      </trkpt>
      <trkpt lat="45.70008" lon="4.70905">
        <ele>261.902222</ele>
        <time>2016-09-25T09:25:37Z</time>
      </trkpt>
      <trkpt lat="45.7" lon="4.70905">
        <ele>261.199768</ele>
        <time>2016-09-25T09:25:39Z</time>
      </trkpt>
      <trkpt lat="45.69992" lon="4.70901">
        <ele>260.034821</ele>
        <time>2016-09-25T09:25:41Z</time>
      </trkpt>
      <trkpt lat="45.69983" lon="4.70895">
        <ele>259.61911</ele>
        <time>2016-09-25T09:25:43Z</time>
      </trkpt>
      <trkpt lat="45.69972" lon="4.70888">
        <ele>258.715363</ele>
        <time>2016-09-25T09:25:45Z</time>
      </trkpt>
      <trkpt lat="45.69967" lon="4.70876">
        <ele>258.520142</ele>
        <time>2016-09-25T09:25:47Z</time>
      </trkpt>
      <trkpt lat="45.69967" lon="4.70865">
        <ele>257.697327</ele>
        <time>2016-09-25T09:25:49Z</time>
      </trkpt>
      <trkpt lat="45.69967" lon="4.70861">
        <ele>257.2901</ele>
        <time>2016-09-25T09:25:51Z</time>
      </trkpt>
      <trkpt lat="45.69965" lon="4.7086">
        <ele>256.105316</ele>
        <time>2016-09-25T09:25:55Z</time>
      </trkpt>
      <trkpt lat="45.69964" lon="4.70859">
        <ele>255.575119</ele>
        <time>2016-09-25T09:25:57Z</time>
      </trkpt>
      <trkpt lat="45.69962" lon="4.70858">
        <ele>255.126434</ele>
        <time>2016-09-25T09:25:59Z</time>
      </trkpt>
      <trkpt lat="45.69961" lon="4.70856">
        <ele>254.071579</ele>
        <time>2016-09-25T09:26:01Z</time>
      </trkpt>
      <trkpt lat="45.69959" lon="4.70854">
        <ele>253.220734</ele>
        <time>2016-09-25T09:26:03Z</time>
      </trkpt>
      <trkpt lat="45.69958" lon="4.70852">
        <ele>252.82132</ele>
        <time>2016-09-25T09:26:05Z</time>
      </trkpt>
      <trkpt lat="45.69955" lon="4.70849">
        <ele>252.458664</ele>
        <time>2016-09-25T09:26:07Z</time>
      </trkpt>
      <trkpt lat="45.69954" lon="4.70845">
        <ele>251.849442</ele>
        <time>2016-09-25T09:26:11Z</time>
      </trkpt>
      <trkpt lat="45.69953" lon="4.70843">
        <ele>251.796677</ele>
        <time>2016-09-25T09:26:13Z</time>
      </trkpt>
      <trkpt lat="45.69952" lon="4.7084">
        <ele>251.462738</ele>
        <time>2016-09-25T09:26:17Z</time>
      </trkpt>
      <trkpt lat="45.69952" lon="4.70837">
        <ele>251.442947</ele>
        <time>2016-09-25T09:26:19Z</time>
      </trkpt>
      <trkpt lat="45.69952" lon="4.70835">
        <ele>251.230927</ele>
        <time>2016-09-25T09:26:21Z</time>
      </trkpt>
      <trkpt lat="45.69952" lon="4.70833">
        <ele>251.30722</ele>
        <time>2016-09-25T09:26:23Z</time>
      </trkpt>
      <trkpt lat="45.69952" lon="4.70831">
        <ele>250.906281</ele>
        <time>2016-09-25T09:26:25Z</time>
      </trkpt>
      <trkpt lat="45.69953" lon="4.70828">
        <ele>250.886795</ele>
        <time>2016-09-25T09:26:27Z</time>
      </trkpt>
      <trkpt lat="45.69954" lon="4.70824">
        <ele>250.87825</ele>
        <time>2016-09-25T09:26:29Z</time>
      </trkpt>
      <trkpt lat="45.69955" lon="4.70819">
        <ele>250.981689</ele>
        <time>2016-09-25T09:26:31Z</time>
      </trkpt>
      <trkpt lat="45.69956" lon="4.70814">
        <ele>251.055328</ele>
        <time>2016-09-25T09:26:33Z</time>
      </trkpt>
      <trkpt lat="45.69957" lon="4.70809">
        <ele>251.159225</ele>
        <time>2016-09-25T09:26:35Z</time>
      </trkpt>
      <trkpt lat="45.69957" lon="4.70805">
        <ele>251.213989</ele>
        <time>2016-09-25T09:26:37Z</time>
      </trkpt>
      <trkpt lat="45.69958" lon="4.70801">
        <ele>251.417511</ele>
        <time>2016-09-25T09:26:39Z</time>
      </trkpt>
      <trkpt lat="45.69959" lon="4.70797">
        <ele>251.521149</ele>
        <time>2016-09-25T09:26:41Z</time>
      </trkpt>
      <trkpt lat="45.6996" lon="4.70793">
        <ele>251.618683</ele>
        <time>2016-09-25T09:26:43Z</time>
      </trkpt>
      <trkpt lat="45.69961" lon="4.70788">
        <ele>251.7565</ele>
        <time>2016-09-25T09:26:45Z</time>
      </trkpt>
      <trkpt lat="45.69962" lon="4.70784">
        <ele>251.879471</ele>
        <time>2016-09-25T09:26:47Z</time>
      </trkpt>
      <trkpt lat="45.69962" lon="4.70779">
        <ele>252.019318</ele>
        <time>2016-09-25T09:26:49Z</time>
      </trkpt>
      <trkpt lat="45.69962" lon="4.70773">
        <ele>252.129562</ele>
        <time>2016-09-25T09:26:52Z</time>
      </trkpt>
      <trkpt lat="45.69962" lon="4.70768">
        <ele>252.216705</ele>
        <time>2016-09-25T09:26:54Z</time>
      </trkpt>
      <trkpt lat="45.69962" lon="4.70762">
        <ele>252.393021</ele>
        <time>2016-09-25T09:26:56Z</time>
      </trkpt>
      <trkpt lat="45.69961" lon="4.70756">
        <ele>252.638382</ele>
        <time>2016-09-25T09:26:58Z</time>
      </trkpt>
      <trkpt lat="45.6996" lon="4.70751">
        <ele>252.964935</ele>
        <time>2016-09-25T09:27:00Z</time>
      </trkpt>
      <trkpt lat="45.69958" lon="4.70752">
        <ele>253.221558</ele>
        <time>2016-09-25T09:27:02Z</time>
      </trkpt>
      <trkpt lat="45.69957" lon="4.70756">
        <ele>253.574295</ele>
        <time>2016-09-25T09:27:04Z</time>
      </trkpt>
      <trkpt lat="45.69957" lon="4.7076">
        <ele>253.951752</ele>
        <time>2016-09-25T09:27:06Z</time>
      </trkpt>
      <trkpt lat="45.69957" lon="4.70764">
        <ele>254.193527</ele>
        <time>2016-09-25T09:27:08Z</time>
      </trkpt>
      <trkpt lat="45.69957" lon="4.70767">
        <ele>254.556519</ele>
        <time>2016-09-25T09:27:10Z</time>
      </trkpt>
      <trkpt lat="45.69957" lon="4.70771">
        <ele>254.982758</ele>
        <time>2016-09-25T09:27:12Z</time>
      </trkpt>
      <trkpt lat="45.69956" lon="4.70775">
        <ele>255.404816</ele>
        <time>2016-09-25T09:27:14Z</time>
      </trkpt>
      <trkpt lat="45.69955" lon="4.70779">
        <ele>255.748993</ele>
        <time>2016-09-25T09:27:16Z</time>
      </trkpt>
      <trkpt lat="45.69953" lon="4.70783">
        <ele>256.0672</ele>
        <time>2016-09-25T09:27:18Z</time>
      </trkpt>
      <trkpt lat="45.69952" lon="4.70787">
        <ele>256.597473</ele>
        <time>2016-09-25T09:27:20Z</time>
      </trkpt>
      <trkpt lat="45.69951" lon="4.70791">
        <ele>256.84491</ele>
        <time>2016-09-25T09:27:22Z</time>
      </trkpt>
      <trkpt lat="45.69949" lon="4.70795">
        <ele>257.040039</ele>
        <time>2016-09-25T09:27:24Z</time>
      </trkpt>
      <trkpt lat="45.69949" lon="4.70799">
        <ele>257.365692</ele>
        <time>2016-09-25T09:27:26Z</time>
      </trkpt>
      <trkpt lat="45.69948" lon="4.70803">
        <ele>257.724182</ele>
        <time>2016-09-25T09:27:28Z</time>
      </trkpt>
      <trkpt lat="45.69947" lon="4.70807">
        <ele>258.048767</ele>
        <time>2016-09-25T09:27:30Z</time>
      </trkpt>
      <trkpt lat="45.69944" lon="4.7081">
        <ele>258.439209</ele>
        <time>2016-09-25T09:27:32Z</time>
      </trkpt>
      <trkpt lat="45.69941" lon="4.70812">
        <ele>258.768036</ele>
        <time>2016-09-25T09:27:34Z</time>
      </trkpt>
      <trkpt lat="45.69939" lon="4.70814">
        <ele>259.181396</ele>
        <time>2016-09-25T09:27:36Z</time>
      </trkpt>
      <trkpt lat="45.69936" lon="4.70817">
        <ele>259.606354</ele>
        <time>2016-09-25T09:27:38Z</time>
      </trkpt>
      <trkpt lat="45.69933" lon="4.7082">
        <ele>260.005219</ele>
        <time>2016-09-25T09:27:40Z</time>
      </trkpt>
      <trkpt lat="45.69931" lon="4.70824">
        <ele>260.266205</ele>
        <time>2016-09-25T09:27:42Z</time>
      </trkpt>
      <trkpt lat="45.69928" lon="4.70826">
        <ele>260.444458</ele>
        <time>2016-09-25T09:27:44Z</time>
      </trkpt>
      <trkpt lat="45.69925" lon="4.70829">
        <ele>260.673645</ele>
        <time>2016-09-25T09:27:46Z</time>
      </trkpt>
      <trkpt lat="45.69923" lon="4.70832">
        <ele>261.295258</ele>
        <time>2016-09-25T09:27:48Z</time>
      </trkpt>
      <trkpt lat="45.6992" lon="4.70836">
        <ele>261.658203</ele>
        <time>2016-09-25T09:27:50Z</time>
      </trkpt>
      <trkpt lat="45.69918" lon="4.70839">
        <ele>262.031677</ele>
        <time>2016-09-25T09:27:52Z</time>
      </trkpt>
      <trkpt lat="45.69915" lon="4.70843">
        <ele>262.237549</ele>
        <time>2016-09-25T09:27:54Z</time>
      </trkpt>
      <trkpt lat="45.69913" lon="4.70846">
        <ele>262.57663</ele>
        <time>2016-09-25T09:27:56Z</time>
      </trkpt>
      <trkpt lat="45.6991" lon="4.70849">
        <ele>262.824951</ele>
        <time>2016-09-25T09:27:58Z</time>
      </trkpt>
      <trkpt lat="45.69907" lon="4.70852">
        <ele>263.147583</ele>
        <time>2016-09-25T09:28:00Z</time>
      </trkpt>
      <trkpt lat="45.69904" lon="4.70855">
        <ele>263.257996</ele>
        <time>2016-09-25T09:28:02Z</time>
      </trkpt>
      <trkpt lat="45.69901" lon="4.70858">
        <ele>263.717102</ele>
        <time>2016-09-25T09:28:04Z</time>
      </trkpt>
      <trkpt lat="45.69897" lon="4.70861">
        <ele>263.963867</ele>
        <time>2016-09-25T09:28:06Z</time>
      </trkpt>
      <trkpt lat="45.69894" lon="4.70863">
        <ele>264.286469</ele>
        <time>2016-09-25T09:28:08Z</time>
      </trkpt>
      <trkpt lat="45.6989" lon="4.70864">
        <ele>264.590027</ele>
        <time>2016-09-25T09:28:10Z</time>
      </trkpt>
      <trkpt lat="45.69886" lon="4.70865">
        <ele>264.942413</ele>
        <time>2016-09-25T09:28:12Z</time>
      </trkpt>
      <trkpt lat="45.69883" lon="4.70867">
        <ele>265.333008</ele>
        <time>2016-09-25T09:28:14Z</time>
      </trkpt>
      <trkpt lat="45.6988" lon="4.70868">
        <ele>265.477386</ele>
        <time>2016-09-25T09:28:16Z</time>
      </trkpt>
      <trkpt lat="45.69877" lon="4.70869">
        <ele>265.793854</ele>
        <time>2016-09-25T09:28:18Z</time>
      </trkpt>
      <trkpt lat="45.69873" lon="4.7087">
        <ele>266.044128</ele>
        <time>2016-09-25T09:28:20Z</time>
      </trkpt>
      <trkpt lat="45.6987" lon="4.70871">
        <ele>266.318665</ele>
        <time>2016-09-25T09:28:22Z</time>
      </trkpt>
      <trkpt lat="45.69867" lon="4.70873">
        <ele>266.6987</ele>
        <time>2016-09-25T09:28:24Z</time>
      </trkpt>
      <trkpt lat="45.69863" lon="4.70874">
        <ele>267.074402</ele>
        <time>2016-09-25T09:28:26Z</time>
      </trkpt>
      <trkpt lat="45.69859" lon="4.70875">
        <ele>267.469391</ele>
        <time>2016-09-25T09:28:28Z</time>
      </trkpt>
      <trkpt lat="45.69856" lon="4.70876">
        <ele>267.71759</ele>
        <time>2016-09-25T09:28:30Z</time>
      </trkpt>
      <trkpt lat="45.69852" lon="4.70876">
        <ele>267.89386</ele>
        <time>2016-09-25T09:28:32Z</time>
      </trkpt>
      <trkpt lat="45.69848" lon="4.70874">
        <ele>268.227081</ele>
        <time>2016-09-25T09:28:34Z</time>
      </trkpt>
      <trkpt lat="45.69846" lon="4.7087">
        <ele>268.567352</ele>
        <time>2016-09-25T09:28:36Z</time>
      </trkpt>
      <trkpt lat="45.69848" lon="4.70867">
        <ele>268.892303</ele>
        <time>2016-09-25T09:28:38Z</time>
      </trkpt>
      <trkpt lat="45.6985" lon="4.70865">
        <ele>269.249084</ele>
        <time>2016-09-25T09:28:40Z</time>
      </trkpt>
      <trkpt lat="45.69853" lon="4.70863">
        <ele>269.541931</ele>
        <time>2016-09-25T09:28:42Z</time>
      </trkpt>
      <trkpt lat="45.69856" lon="4.70861">
        <ele>269.777588</ele>
        <time>2016-09-25T09:28:44Z</time>
      </trkpt>
      <trkpt lat="45.69858" lon="4.70859">
        <ele>270.072571</ele>
        <time>2016-09-25T09:28:46Z</time>
      </trkpt>
      <trkpt lat="45.69861" lon="4.70857">
        <ele>270.455811</ele>
        <time>2016-09-25T09:28:48Z</time>
      </trkpt>
      <trkpt lat="45.69863" lon="4.70853">
        <ele>270.819</ele>
        <time>2016-09-25T09:28:50Z</time>
      </trkpt>
      <trkpt lat="45.69865" lon="4.70849">
        <ele>271.18219</ele>
        <time>2016-09-25T09:28:52Z</time>
      </trkpt>
      <trkpt lat="45.69866" lon="4.70845">
        <ele>271.468079</ele>
        <time>2016-09-25T09:28:54Z</time>
      </trkpt>
      <trkpt lat="45.69868" lon="4.70841">
        <ele>271.744476</ele>
        <time>2016-09-25T09:28:56Z</time>
      </trkpt>
      <trkpt lat="45.69869" lon="4.70837">
        <ele>272.071625</ele>
        <time>2016-09-25T09:28:58Z</time>
      </trkpt>
      <trkpt lat="45.69871" lon="4.70833">
        <ele>272.345642</ele>
        <time>2016-09-25T09:29:00Z</time>
      </trkpt>
      <trkpt lat="45.69873" lon="4.70829">
        <ele>272.735809</ele>
        <time>2016-09-25T09:29:02Z</time>
      </trkpt>
      <trkpt lat="45.69873" lon="4.70825">
        <ele>272.975891</ele>
        <time>2016-09-25T09:29:04Z</time>
      </trkpt>
      <trkpt lat="45.69872" lon="4.70823">
        <ele>273.432678</ele>
        <time>2016-09-25T09:29:06Z</time>
      </trkpt>
      <trkpt lat="45.6987" lon="4.70821">
        <ele>273.757721</ele>
        <time>2016-09-25T09:29:08Z</time>
      </trkpt>
      <trkpt lat="45.69869" lon="4.7082">
        <ele>273.825684</ele>
        <time>2016-09-25T09:29:10Z</time>
      </trkpt>
      <trkpt lat="45.69866" lon="4.7082">
        <ele>274.216858</ele>
        <time>2016-09-25T09:29:12Z</time>
      </trkpt>
      <trkpt lat="45.69864" lon="4.70818">
        <ele>274.484558</ele>
        <time>2016-09-25T09:29:14Z</time>
      </trkpt>
      <trkpt lat="45.69862" lon="4.70816">
        <ele>274.890564</ele>
        <time>2016-09-25T09:29:16Z</time>
      </trkpt>
      <trkpt lat="45.6986" lon="4.70816">
        <ele>275.168945</ele>
        <time>2016-09-25T09:29:18Z</time>
      </trkpt>
      <trkpt lat="45.69857" lon="4.70815">
        <ele>275.42395</ele>
        <time>2016-09-25T09:29:20Z</time>
      </trkpt>
      <trkpt lat="45.69855" lon="4.70814">
        <ele>275.819275</ele>
        <time>2016-09-25T09:29:22Z</time>
      </trkpt>
      <trkpt lat="45.69853" lon="4.70814">
        <ele>276.242401</ele>
        <time>2016-09-25T09:29:24Z</time>
      </trkpt>
      <trkpt lat="45.69851" lon="4.70813">
        <ele>276.623016</ele>
        <time>2016-09-25T09:29:26Z</time>
      </trkpt>
      <trkpt lat="45.69849" lon="4.70812">
        <ele>277.059662</ele>
        <time>2016-09-25T09:29:28Z</time>
      </trkpt>
      <trkpt lat="45.69846" lon="4.7081">
        <ele>277.520905</ele>
        <time>2016-09-25T09:29:30Z</time>
      </trkpt>
      <trkpt lat="45.69844" lon="4.70809">
        <ele>277.899231</ele>
        <time>2016-09-25T09:29:32Z</time>
      </trkpt>
      <trkpt lat="45.69842" lon="4.70808">
        <ele>278.34137</ele>
        <time>2016-09-25T09:29:34Z</time>
      </trkpt>
      <trkpt lat="45.6984" lon="4.70808">
        <ele>278.813812</ele>
        <time>2016-09-25T09:29:36Z</time>
      </trkpt>
      <trkpt lat="45.69838" lon="4.70807">
        <ele>278.998749</ele>
        <time>2016-09-25T09:29:38Z</time>
      </trkpt>
      <trkpt lat="45.69836" lon="4.70806">
        <ele>279.401306</ele>
        <time>2016-09-25T09:29:40Z</time>
      </trkpt>
      <trkpt lat="45.69833" lon="4.70804">
        <ele>279.909363</ele>
        <time>2016-09-25T09:29:42Z</time>
      </trkpt>
      <trkpt lat="45.69831" lon="4.70803">
        <ele>280.330261</ele>
        <time>2016-09-25T09:29:44Z</time>
      </trkpt>
      <trkpt lat="45.69828" lon="4.70802">
        <ele>280.891541</ele>
        <time>2016-09-25T09:29:46Z</time>
      </trkpt>
      <trkpt lat="45.69826" lon="4.70801">
        <ele>281.264404</ele>
        <time>2016-09-25T09:29:48Z</time>
      </trkpt>
      <trkpt lat="45.69824" lon="4.708">
        <ele>281.692078</ele>
        <time>2016-09-25T09:29:50Z</time>
      </trkpt>
      <trkpt lat="45.69821" lon="4.70799">
        <ele>282.178955</ele>
        <time>2016-09-25T09:29:52Z</time>
      </trkpt>
      <trkpt lat="45.69819" lon="4.70798">
        <ele>282.651031</ele>
        <time>2016-09-25T09:29:54Z</time>
      </trkpt>
      <trkpt lat="45.69817" lon="4.70797">
        <ele>283.140076</ele>
        <time>2016-09-25T09:29:56Z</time>
      </trkpt>
      <trkpt lat="45.69814" lon="4.70796">
        <ele>283.622833</ele>
        <time>2016-09-25T09:29:58Z</time>
      </trkpt>
      <trkpt lat="45.69812" lon="4.70794">
        <ele>284.120453</ele>
        <time>2016-09-25T09:30:00Z</time>
      </trkpt>
      <trkpt lat="45.69809" lon="4.70793">
        <ele>284.34375</ele>
        <time>2016-09-25T09:30:02Z</time>
      </trkpt>
      <trkpt lat="45.69807" lon="4.70793">
        <ele>284.721802</ele>
        <time>2016-09-25T09:30:04Z</time>
      </trkpt>
      <trkpt lat="45.69804" lon="4.70792">
        <ele>285.147339</ele>
        <time>2016-09-25T09:30:06Z</time>
      </trkpt>
      <trkpt lat="45.69802" lon="4.70791">
        <ele>285.634399</ele>
        <time>2016-09-25T09:30:08Z</time>
      </trkpt>
      <trkpt lat="45.698" lon="4.7079">
        <ele>286.034027</ele>
        <time>2016-09-25T09:30:10Z</time>
      </trkpt>
      <trkpt lat="45.69798" lon="4.70789">
        <ele>286.42334</ele>
        <time>2016-09-25T09:30:12Z</time>
      </trkpt>
      <trkpt lat="45.69795" lon="4.70788">
        <ele>286.850922</ele>
        <time>2016-09-25T09:30:14Z</time>
      </trkpt>
      <trkpt lat="45.69793" lon="4.70787">
        <ele>287.252991</ele>
        <time>2016-09-25T09:30:16Z</time>
      </trkpt>
      <trkpt lat="45.6979" lon="4.70785">
        <ele>287.625244</ele>
        <time>2016-09-25T09:30:18Z</time>
      </trkpt>
      <trkpt lat="45.69788" lon="4.70784">
        <ele>288.031006</ele>
        <time>2016-09-25T09:30:20Z</time>
      </trkpt>
      <trkpt lat="45.69786" lon="4.70783">
        <ele>288.39267</ele>
        <time>2016-09-25T09:30:22Z</time>
      </trkpt>
      <trkpt lat="45.69783" lon="4.70782">
        <ele>288.747986</ele>
        <time>2016-09-25T09:30:24Z</time>
      </trkpt>
      <trkpt lat="45.69781" lon="4.7078">
        <ele>289.067139</ele>
        <time>2016-09-25T09:30:26Z</time>
      </trkpt>
      <trkpt lat="45.69778" lon="4.70779">
        <ele>289.396942</ele>
        <time>2016-09-25T09:30:28Z</time>
      </trkpt>
      <trkpt lat="45.69776" lon="4.70778">
        <ele>289.832397</ele>
        <time>2016-09-25T09:30:30Z</time>
      </trkpt>
      <trkpt lat="45.69773" lon="4.70777">
        <ele>290.208649</ele>
        <time>2016-09-25T09:30:32Z</time>
      </trkpt>
      <trkpt lat="45.6977" lon="4.70776">
        <ele>290.379089</ele>
        <time>2016-09-25T09:30:34Z</time>
      </trkpt>
      <trkpt lat="45.69768" lon="4.70775">
        <ele>290.732361</ele>
        <time>2016-09-25T09:30:36Z</time>
      </trkpt>
      <trkpt lat="45.69765" lon="4.70773">
        <ele>291.115417</ele>
        <time>2016-09-25T09:30:38Z</time>
      </trkpt>
      <trkpt lat="45.69762" lon="4.70772">
        <ele>291.464478</ele>
        <time>2016-09-25T09:30:40Z</time>
      </trkpt>
      <trkpt lat="45.6976" lon="4.7077">
        <ele>291.83905</ele>
        <time>2016-09-25T09:30:42Z</time>
      </trkpt>
      <trkpt lat="45.69758" lon="4.70769">
        <ele>292.230652</ele>
        <time>2016-09-25T09:30:44Z</time>
      </trkpt>
      <trkpt lat="45.69755" lon="4.70768">
        <ele>292.609894</ele>
        <time>2016-09-25T09:30:46Z</time>
      </trkpt>
      <trkpt lat="45.69752" lon="4.70766">
        <ele>292.924042</ele>
        <time>2016-09-25T09:30:48Z</time>
      </trkpt>
      <trkpt lat="45.69749" lon="4.70765">
        <ele>293.29895</ele>
        <time>2016-09-25T09:30:50Z</time>
      </trkpt>
      <trkpt lat="45.69746" lon="4.70764">
        <ele>293.591431</ele>
        <time>2016-09-25T09:30:52Z</time>
      </trkpt>
      <trkpt lat="45.69744" lon="4.70763">
        <ele>293.957581</ele>
        <time>2016-09-25T09:30:54Z</time>
      </trkpt>
      <trkpt lat="45.69742" lon="4.70761">
        <ele>294.270508</ele>
        <time>2016-09-25T09:30:56Z</time>
      </trkpt>
      <trkpt lat="45.6974" lon="4.70759">
        <ele>294.608978</ele>
        <time>2016-09-25T09:30:58Z</time>
      </trkpt>
      <trkpt lat="45.69738" lon="4.70757">
        <ele>294.987701</ele>
        <time>2016-09-25T09:31:00Z</time>
      </trkpt>
      <trkpt lat="45.69738" lon="4.70754">
        <ele>295.213348</ele>
        <time>2016-09-25T09:31:02Z</time>
      </trkpt>
      <trkpt lat="45.69739" lon="4.70752">
        <ele>298.564331</ele>
        <time>2016-09-25T09:31:45Z</time>
      </trkpt>
      <trkpt lat="45.69741" lon="4.70746">
        <ele>298.590698</ele>
        <time>2016-09-25T09:31:47Z</time>
      </trkpt>
      <trkpt lat="45.69744" lon="4.7074">
        <ele>298.535309</ele>
        <time>2016-09-25T09:31:49Z</time>
      </trkpt>
      <trkpt lat="45.69747" lon="4.70734">
        <ele>298.469177</ele>
        <time>2016-09-25T09:31:51Z</time>
      </trkpt>
      <trkpt lat="45.6975" lon="4.70727">
        <ele>298.450012</ele>
        <time>2016-09-25T09:31:53Z</time>
      </trkpt>
      <trkpt lat="45.69753" lon="4.70721">
        <ele>298.476837</ele>
        <time>2016-09-25T09:31:55Z</time>
      </trkpt>
      <trkpt lat="45.69755" lon="4.70715">
        <ele>298.438507</ele>
        <time>2016-09-25T09:31:57Z</time>
      </trkpt>
      <trkpt lat="45.69754" lon="4.70709">
        <ele>298.474335</ele>
        <time>2016-09-25T09:31:59Z</time>
      </trkpt>
      <trkpt lat="45.69751" lon="4.70705">
        <ele>298.463684</ele>
        <time>2016-09-25T09:32:01Z</time>
      </trkpt>
      <trkpt lat="45.69747" lon="4.70703">
        <ele>298.485382</ele>
        <time>2016-09-25T09:32:03Z</time>
      </trkpt>
      <trkpt lat="45.69742" lon="4.70702">
        <ele>298.521576</ele>
        <time>2016-09-25T09:32:05Z</time>
      </trkpt>
      <trkpt lat="45.69737" lon="4.70701">
        <ele>298.632324</ele>
        <time>2016-09-25T09:32:07Z</time>
      </trkpt>
      <trkpt lat="45.69732" lon="4.70699">
        <ele>298.69931</ele>
        <time>2016-09-25T09:32:09Z</time>
      </trkpt>
      <trkpt lat="45.69726" lon="4.70696">
        <ele>298.72702</ele>
        <time>2016-09-25T09:32:11Z</time>
      </trkpt>
      <trkpt lat="45.69721" lon="4.70693">
        <ele>298.807953</ele>
        <time>2016-09-25T09:32:13Z</time>
      </trkpt>
      <trkpt lat="45.69715" lon="4.70691">
        <ele>298.940002</ele>
        <time>2016-09-25T09:32:15Z</time>
      </trkpt>
      <trkpt lat="45.69709" lon="4.70687">
        <ele>299.17218</ele>
        <time>2016-09-25T09:32:17Z</time>
      </trkpt>
      <trkpt lat="45.69702" lon="4.70684">
        <ele>299.193451</ele>
        <time>2016-09-25T09:32:19Z</time>
      </trkpt>
      <trkpt lat="45.69695" lon="4.7068">
        <ele>299.376617</ele>
        <time>2016-09-25T09:32:21Z</time>
      </trkpt>
      <trkpt lat="45.69687" lon="4.70677">
        <ele>299.331909</ele>
        <time>2016-09-25T09:32:23Z</time>
      </trkpt>
      <trkpt lat="45.69679" lon="4.70673">
        <ele>299.286896</ele>
        <time>2016-09-25T09:32:25Z</time>
      </trkpt>
      <trkpt lat="45.69669" lon="4.70668">
        <ele>299.412537</ele>
        <time>2016-09-25T09:32:27Z</time>
      </trkpt>
      <trkpt lat="45.6966" lon="4.70664">
        <ele>299.43515</ele>
        <time>2016-09-25T09:32:29Z</time>
      </trkpt>
      <trkpt lat="45.6965" lon="4.7066">
        <ele>299.403259</ele>
        <time>2016-09-25T09:32:31Z</time>
      </trkpt>
      <trkpt lat="45.69641" lon="4.70655">
        <ele>299.484192</ele>
        <time>2016-09-25T09:32:33Z</time>
      </trkpt>
      <trkpt lat="45.69632" lon="4.7065">
        <ele>299.637543</ele>
        <time>2016-09-25T09:32:35Z</time>
      </trkpt>
      <trkpt lat="45.69623" lon="4.70644">
        <ele>299.614807</ele>
        <time>2016-09-25T09:32:37Z</time>
      </trkpt>
      <trkpt lat="45.69614" lon="4.70637">
        <ele>299.623108</ele>
        <time>2016-09-25T09:32:39Z</time>
      </trkpt>
      <trkpt lat="45.69606" lon="4.70629">
        <ele>299.567719</ele>
        <time>2016-09-25T09:32:41Z</time>
      </trkpt>
      <trkpt lat="45.69597" lon="4.70622">
        <ele>299.463348</ele>
        <time>2016-09-25T09:32:43Z</time>
      </trkpt>
      <trkpt lat="45.69589" lon="4.70614">
        <ele>299.567749</ele>
        <time>2016-09-25T09:32:45Z</time>
      </trkpt>
      <trkpt lat="45.69581" lon="4.70606">
        <ele>299.416565</ele>
        <time>2016-09-25T09:32:47Z</time>
      </trkpt>
      <trkpt lat="45.69572" lon="4.70598">
        <ele>299.463409</ele>
        <time>2016-09-25T09:32:49Z</time>
      </trkpt>
      <trkpt lat="45.69563" lon="4.7059">
        <ele>299.411407</ele>
        <time>2016-09-25T09:32:51Z</time>
      </trkpt>
      <trkpt lat="45.69554" lon="4.70582">
        <ele>299.518951</ele>
        <time>2016-09-25T09:32:53Z</time>
      </trkpt>
      <trkpt lat="45.69545" lon="4.70574">
        <ele>299.531738</ele>
        <time>2016-09-25T09:32:55Z</time>
      </trkpt>
      <trkpt lat="45.69537" lon="4.70566">
        <ele>299.448669</ele>
        <time>2016-09-25T09:32:57Z</time>
      </trkpt>
      <trkpt lat="45.69529" lon="4.70559">
        <ele>299.429504</ele>
        <time>2016-09-25T09:32:59Z</time>
      </trkpt>
      <trkpt lat="45.69521" lon="4.70551">
        <ele>299.495544</ele>
        <time>2016-09-25T09:33:01Z</time>
      </trkpt>
      <trkpt lat="45.69513" lon="4.70544">
        <ele>299.404388</ele>
        <time>2016-09-25T09:33:03Z</time>
      </trkpt>
      <trkpt lat="45.69506" lon="4.70537">
        <ele>299.372742</ele>
        <time>2016-09-25T09:33:05Z</time>
      </trkpt>
      <trkpt lat="45.69498" lon="4.7053">
        <ele>299.466431</ele>
        <time>2016-09-25T09:33:07Z</time>
      </trkpt>
      <trkpt lat="45.69491" lon="4.70523">
        <ele>299.511169</ele>
        <time>2016-09-25T09:33:09Z</time>
      </trkpt>
      <trkpt lat="45.69484" lon="4.70516">
        <ele>299.670929</ele>
        <time>2016-09-25T09:33:11Z</time>
      </trkpt>
      <trkpt lat="45.69477" lon="4.7051">
        <ele>299.775299</ele>
        <time>2016-09-25T09:33:13Z</time>
      </trkpt>
      <trkpt lat="45.6947" lon="4.70504">
        <ele>299.841309</ele>
        <time>2016-09-25T09:33:15Z</time>
      </trkpt>
      <trkpt lat="45.69463" lon="4.70498">
        <ele>299.90094</ele>
        <time>2016-09-25T09:33:17Z</time>
      </trkpt>
      <trkpt lat="45.69457" lon="4.70491">
        <ele>299.914917</ele>
        <time>2016-09-25T09:33:19Z</time>
      </trkpt>
      <trkpt lat="45.6945" lon="4.70485">
        <ele>300.081635</ele>
        <time>2016-09-25T09:33:21Z</time>
      </trkpt>
      <trkpt lat="45.69444" lon="4.70479">
        <ele>300.300171</ele>
        <time>2016-09-25T09:33:23Z</time>
      </trkpt>
      <trkpt lat="45.69438" lon="4.70473">
        <ele>300.574921</ele>
        <time>2016-09-25T09:33:25Z</time>
      </trkpt>
      <trkpt lat="45.69432" lon="4.70466">
        <ele>300.577057</ele>
        <time>2016-09-25T09:33:27Z</time>
      </trkpt>
      <trkpt lat="45.69426" lon="4.7046">
        <ele>300.753815</ele>
        <time>2016-09-25T09:33:29Z</time>
      </trkpt>
      <trkpt lat="45.6942" lon="4.70453">
        <ele>300.849579</ele>
        <time>2016-09-25T09:33:31Z</time>
      </trkpt>
      <trkpt lat="45.69414" lon="4.70447">
        <ele>300.999084</ele>
        <time>2016-09-25T09:33:33Z</time>
      </trkpt>
      <trkpt lat="45.69408" lon="4.70441">
        <ele>300.967133</ele>
        <time>2016-09-25T09:33:35Z</time>
      </trkpt>
      <trkpt lat="45.69402" lon="4.70434">
        <ele>301.18866</ele>
        <time>2016-09-25T09:33:37Z</time>
      </trkpt>
      <trkpt lat="45.69395" lon="4.70428">
        <ele>301.269623</ele>
        <time>2016-09-25T09:33:39Z</time>
      </trkpt>
      <trkpt lat="45.69389" lon="4.70421">
        <ele>301.446442</ele>
        <time>2016-09-25T09:33:41Z</time>
      </trkpt>
      <trkpt lat="45.69383" lon="4.70415">
        <ele>301.53653</ele>
        <time>2016-09-25T09:33:43Z</time>
      </trkpt>
      <trkpt lat="45.69378" lon="4.70409">
        <ele>301.710754</ele>
        <time>2016-09-25T09:33:45Z</time>
      </trkpt>
      <trkpt lat="45.69372" lon="4.70402">
        <ele>301.911041</ele>
        <time>2016-09-25T09:33:47Z</time>
      </trkpt>
      <trkpt lat="45.69366" lon="4.70397">
        <ele>302.104919</ele>
        <time>2016-09-25T09:33:49Z</time>
      </trkpt>
      <trkpt lat="45.6936" lon="4.70395">
        <ele>302.230621</ele>
        <time>2016-09-25T09:33:51Z</time>
      </trkpt>
      <trkpt lat="45.69353" lon="4.70398">
        <ele>302.309448</ele>
        <time>2016-09-25T09:33:53Z</time>
      </trkpt>
      <trkpt lat="45.69348" lon="4.70405">
        <ele>302.46286</ele>
        <time>2016-09-25T09:33:55Z</time>
      </trkpt>
      <trkpt lat="45.69342" lon="4.70414">
        <ele>302.624115</ele>
        <time>2016-09-25T09:33:57Z</time>
      </trkpt>
      <trkpt lat="45.69337" lon="4.70422">
        <ele>302.892273</ele>
        <time>2016-09-25T09:33:59Z</time>
      </trkpt>
      <trkpt lat="45.69331" lon="4.7043">
        <ele>303.031921</ele>
        <time>2016-09-25T09:34:01Z</time>
      </trkpt>
      <trkpt lat="45.69325" lon="4.70438">
        <ele>303.214081</ele>
        <time>2016-09-25T09:34:03Z</time>
      </trkpt>
      <trkpt lat="45.69319" lon="4.70445">
        <ele>303.307831</ele>
        <time>2016-09-25T09:34:05Z</time>
      </trkpt>
      <trkpt lat="45.69313" lon="4.70452">
        <ele>303.386658</ele>
        <time>2016-09-25T09:34:07Z</time>
      </trkpt>
      <trkpt lat="45.69306" lon="4.70459">
        <ele>303.263123</ele>
        <time>2016-09-25T09:34:09Z</time>
      </trkpt>
      <trkpt lat="45.693" lon="4.70465">
        <ele>303.369629</ele>
        <time>2016-09-25T09:34:11Z</time>
      </trkpt>
      <trkpt lat="45.69293" lon="4.70471">
        <ele>303.41864</ele>
        <time>2016-09-25T09:34:13Z</time>
      </trkpt>
      <trkpt lat="45.69286" lon="4.70477">
        <ele>303.459808</ele>
        <time>2016-09-25T09:34:15Z</time>
      </trkpt>
      <trkpt lat="45.6928" lon="4.70483">
        <ele>303.521606</ele>
        <time>2016-09-25T09:34:17Z</time>
      </trkpt>
      <trkpt lat="45.69273" lon="4.70489">
        <ele>303.581268</ele>
        <time>2016-09-25T09:34:19Z</time>
      </trkpt>
      <trkpt lat="45.69265" lon="4.70494">
        <ele>303.720856</ele>
        <time>2016-09-25T09:34:21Z</time>
      </trkpt>
      <trkpt lat="45.69258" lon="4.70498">
        <ele>303.750671</ele>
        <time>2016-09-25T09:34:23Z</time>
      </trkpt>
      <trkpt lat="45.69251" lon="4.70503">
        <ele>303.948181</ele>
        <time>2016-09-25T09:34:25Z</time>
      </trkpt>
      <trkpt lat="45.69243" lon="4.70506">
        <ele>303.956848</ele>
        <time>2016-09-25T09:34:27Z</time>
      </trkpt>
      <trkpt lat="45.69236" lon="4.7051">
        <ele>303.946198</ele>
        <time>2016-09-25T09:34:29Z</time>
      </trkpt>
      <trkpt lat="45.69228" lon="4.70512">
        <ele>304.084656</ele>
        <time>2016-09-25T09:34:31Z</time>
      </trkpt>
      <trkpt lat="45.69221" lon="4.70514">
        <ele>304.253662</ele>
        <time>2016-09-25T09:34:33Z</time>
      </trkpt>
      <trkpt lat="45.69214" lon="4.70515">
        <ele>304.381531</ele>
        <time>2016-09-25T09:34:35Z</time>
      </trkpt>
      <trkpt lat="45.69206" lon="4.70517">
        <ele>304.517883</ele>
        <time>2016-09-25T09:34:37Z</time>
      </trkpt>
      <trkpt lat="45.69198" lon="4.70519">
        <ele>304.627563</ele>
        <time>2016-09-25T09:34:39Z</time>
      </trkpt>
      <trkpt lat="45.69191" lon="4.7052">
        <ele>304.606201</ele>
        <time>2016-09-25T09:34:41Z</time>
      </trkpt>
      <trkpt lat="45.69183" lon="4.7052">
        <ele>304.85556</ele>
        <time>2016-09-25T09:34:43Z</time>
      </trkpt>
      <trkpt lat="45.69176" lon="4.70521">
        <ele>305.006714</ele>
        <time>2016-09-25T09:34:45Z</time>
      </trkpt>
      <trkpt lat="45.69169" lon="4.70521">
        <ele>305.140472</ele>
        <time>2016-09-25T09:34:47Z</time>
      </trkpt>
      <trkpt lat="45.69161" lon="4.7052">
        <ele>305.368469</ele>
        <time>2016-09-25T09:34:49Z</time>
      </trkpt>
      <trkpt lat="45.69154" lon="4.70519">
        <ele>305.734985</ele>
        <time>2016-09-25T09:34:51Z</time>
      </trkpt>
      <trkpt lat="45.69147" lon="4.70517">
        <ele>306.148438</ele>
        <time>2016-09-25T09:34:53Z</time>
      </trkpt>
      <trkpt lat="45.6914" lon="4.70515">
        <ele>306.23645</ele>
        <time>2016-09-25T09:34:55Z</time>
      </trkpt>
      <trkpt lat="45.69132" lon="4.70513">
        <ele>306.641327</ele>
        <time>2016-09-25T09:34:57Z</time>
      </trkpt>
      <trkpt lat="45.69126" lon="4.70511">
        <ele>306.971741</ele>
        <time>2016-09-25T09:34:59Z</time>
      </trkpt>
      <trkpt lat="45.69119" lon="4.7051">
        <ele>306.961121</ele>
        <time>2016-09-25T09:35:01Z</time>
      </trkpt>
      <trkpt lat="45.69112" lon="4.70508">
        <ele>307.181702</ele>
        <time>2016-09-25T09:35:03Z</time>
      </trkpt>
      <trkpt lat="45.69106" lon="4.70506">
        <ele>307.348083</ele>
        <time>2016-09-25T09:35:05Z</time>
      </trkpt>
      <trkpt lat="45.691" lon="4.70505">
        <ele>307.341675</ele>
        <time>2016-09-25T09:35:07Z</time>
      </trkpt>
      <trkpt lat="45.69093" lon="4.70504">
        <ele>307.628082</ele>
        <time>2016-09-25T09:35:09Z</time>
      </trkpt>
      <trkpt lat="45.69087" lon="4.70502">
        <ele>307.794373</ele>
        <time>2016-09-25T09:35:11Z</time>
      </trkpt>
      <trkpt lat="45.69081" lon="4.70501">
        <ele>307.809296</ele>
        <time>2016-09-25T09:35:13Z</time>
      </trkpt>
      <trkpt lat="45.69074" lon="4.705">
        <ele>308.077301</ele>
        <time>2016-09-25T09:35:15Z</time>
      </trkpt>
      <trkpt lat="45.69068" lon="4.70498">
        <ele>308.343811</ele>
        <time>2016-09-25T09:35:17Z</time>
      </trkpt>
      <trkpt lat="45.69062" lon="4.70498">
        <ele>308.582672</ele>
        <time>2016-09-25T09:35:19Z</time>
      </trkpt>
      <trkpt lat="45.69056" lon="4.70497">
        <ele>308.667938</ele>
        <time>2016-09-25T09:35:21Z</time>
      </trkpt>
      <trkpt lat="45.6905" lon="4.70497">
        <ele>308.589111</ele>
        <time>2016-09-25T09:35:23Z</time>
      </trkpt>
      <trkpt lat="45.69043" lon="4.70497">
        <ele>308.729797</ele>
        <time>2016-09-25T09:35:25Z</time>
      </trkpt>
      <trkpt lat="45.69037" lon="4.70497">
        <ele>308.789978</ele>
        <time>2016-09-25T09:35:27Z</time>
      </trkpt>
      <trkpt lat="45.69031" lon="4.70497">
        <ele>308.907867</ele>
        <time>2016-09-25T09:35:29Z</time>
      </trkpt>
      <trkpt lat="45.69024" lon="4.70498">
        <ele>308.982483</ele>
        <time>2016-09-25T09:35:31Z</time>
      </trkpt>
      <trkpt lat="45.69018" lon="4.70499">
        <ele>309.136047</ele>
        <time>2016-09-25T09:35:33Z</time>
      </trkpt>
      <trkpt lat="45.69011" lon="4.70501">
        <ele>309.20636</ele>
        <time>2016-09-25T09:35:35Z</time>
      </trkpt>
      <trkpt lat="45.69004" lon="4.70503">
        <ele>309.276093</ele>
        <time>2016-09-25T09:35:37Z</time>
      </trkpt>
      <trkpt lat="45.68998" lon="4.70505">
        <ele>309.480835</ele>
        <time>2016-09-25T09:35:39Z</time>
      </trkpt>
      <trkpt lat="45.68991" lon="4.70507">
        <ele>309.152557</ele>
        <time>2016-09-25T09:35:41Z</time>
      </trkpt>
      <trkpt lat="45.68985" lon="4.7051">
        <ele>309.36142</ele>
        <time>2016-09-25T09:35:43Z</time>
      </trkpt>
      <trkpt lat="45.68979" lon="4.70513">
        <ele>309.736023</ele>
        <time>2016-09-25T09:35:45Z</time>
      </trkpt>
      <trkpt lat="45.68972" lon="4.70516">
        <ele>309.863953</ele>
        <time>2016-09-25T09:35:47Z</time>
      </trkpt>
      <trkpt lat="45.68965" lon="4.70519">
        <ele>310.142273</ele>
        <time>2016-09-25T09:35:49Z</time>
      </trkpt>
      <trkpt lat="45.68959" lon="4.70522">
        <ele>310.292511</ele>
        <time>2016-09-25T09:35:51Z</time>
      </trkpt>
      <trkpt lat="45.68953" lon="4.70526">
        <ele>310.318085</ele>
        <time>2016-09-25T09:35:53Z</time>
      </trkpt>
      <trkpt lat="45.68947" lon="4.7053">
        <ele>310.378113</ele>
        <time>2016-09-25T09:35:55Z</time>
      </trkpt>
      <trkpt lat="45.68941" lon="4.70535">
        <ele>310.457031</ele>
        <time>2016-09-25T09:35:57Z</time>
      </trkpt>
      <trkpt lat="45.68935" lon="4.7054">
        <ele>310.292816</ele>
        <time>2016-09-25T09:35:59Z</time>
      </trkpt>
      <trkpt lat="45.68929" lon="4.70545">
        <ele>310.510254</ele>
        <time>2016-09-25T09:36:01Z</time>
      </trkpt>
      <trkpt lat="45.68923" lon="4.7055">
        <ele>310.738434</ele>
        <time>2016-09-25T09:36:03Z</time>
      </trkpt>
      <trkpt lat="45.68918" lon="4.70556">
        <ele>310.738434</ele>
        <time>2016-09-25T09:36:05Z</time>
      </trkpt>
      <trkpt lat="45.68912" lon="4.70561">
        <ele>310.772522</ele>
        <time>2016-09-25T09:36:07Z</time>
      </trkpt>
      <trkpt lat="45.68907" lon="4.70567">
        <ele>311.09668</ele>
        <time>2016-09-25T09:36:09Z</time>
      </trkpt>
      <trkpt lat="45.68901" lon="4.70573">
        <ele>311.582367</ele>
        <time>2016-09-25T09:36:11Z</time>
      </trkpt>
      <trkpt lat="45.68897" lon="4.7058">
        <ele>311.851624</ele>
        <time>2016-09-25T09:36:13Z</time>
      </trkpt>
      <trkpt lat="45.68892" lon="4.70587">
        <ele>311.8974</ele>
        <time>2016-09-25T09:36:15Z</time>
      </trkpt>
      <trkpt lat="45.68887" lon="4.70594">
        <ele>311.876068</ele>
        <time>2016-09-25T09:36:17Z</time>
      </trkpt>
      <trkpt lat="45.68882" lon="4.70601">
        <ele>311.846191</ele>
        <time>2016-09-25T09:36:19Z</time>
      </trkpt>
      <trkpt lat="45.68877" lon="4.70609">
        <ele>312.543518</ele>
        <time>2016-09-25T09:36:21Z</time>
      </trkpt>
      <trkpt lat="45.68873" lon="4.70617">
        <ele>312.854889</ele>
        <time>2016-09-25T09:36:23Z</time>
      </trkpt>
      <trkpt lat="45.68868" lon="4.70624">
        <ele>312.782379</ele>
        <time>2016-09-25T09:36:25Z</time>
      </trkpt>
      <trkpt lat="45.68864" lon="4.70632">
        <ele>312.74054</ele>
        <time>2016-09-25T09:36:27Z</time>
      </trkpt>
      <trkpt lat="45.6886" lon="4.70641">
        <ele>312.913269</ele>
        <time>2016-09-25T09:36:29Z</time>
      </trkpt>
      <trkpt lat="45.68857" lon="4.70649">
        <ele>312.935059</ele>
        <time>2016-09-25T09:36:31Z</time>
      </trkpt>
      <trkpt lat="45.68853" lon="4.70657">
        <ele>313.035095</ele>
        <time>2016-09-25T09:36:33Z</time>
      </trkpt>
      <trkpt lat="45.6885" lon="4.70666">
        <ele>313.295197</ele>
        <time>2016-09-25T09:36:35Z</time>
      </trkpt>
      <trkpt lat="45.68848" lon="4.70674">
        <ele>313.682983</ele>
        <time>2016-09-25T09:36:37Z</time>
      </trkpt>
      <trkpt lat="45.68846" lon="4.70681">
        <ele>313.770447</ele>
        <time>2016-09-25T09:36:39Z</time>
      </trkpt>
      <trkpt lat="45.68843" lon="4.70688">
        <ele>313.966705</ele>
        <time>2016-09-25T09:36:41Z</time>
      </trkpt>
      <trkpt lat="45.6884" lon="4.70696">
        <ele>314.043427</ele>
        <time>2016-09-25T09:36:43Z</time>
      </trkpt>
      <trkpt lat="45.68838" lon="4.70703">
        <ele>314.216156</ele>
        <time>2016-09-25T09:36:45Z</time>
      </trkpt>
      <trkpt lat="45.68835" lon="4.70711">
        <ele>314.39743</ele>
        <time>2016-09-25T09:36:47Z</time>
      </trkpt>
      <trkpt lat="45.68834" lon="4.70718">
        <ele>314.38031</ele>
        <time>2016-09-25T09:36:49Z</time>
      </trkpt>
      <trkpt lat="45.68832" lon="4.70725">
        <ele>314.410187</ele>
        <time>2016-09-25T09:36:51Z</time>
      </trkpt>
      <trkpt lat="45.6883" lon="4.70731">
        <ele>314.180817</ele>
        <time>2016-09-25T09:36:53Z</time>
      </trkpt>
      <trkpt lat="45.68826" lon="4.70736">
        <ele>314.455444</ele>
        <time>2016-09-25T09:36:55Z</time>
      </trkpt>
      <trkpt lat="45.68823" lon="4.70741">
        <ele>314.556824</ele>
        <time>2016-09-25T09:36:57Z</time>
      </trkpt>
      <trkpt lat="45.68821" lon="4.70746">
        <ele>314.838318</ele>
        <time>2016-09-25T09:36:59Z</time>
      </trkpt>
      <trkpt lat="45.6882" lon="4.70751">
        <ele>314.912964</ele>
        <time>2016-09-25T09:37:01Z</time>
      </trkpt>
      <trkpt lat="45.68819" lon="4.70755">
        <ele>314.722992</ele>
        <time>2016-09-25T09:37:03Z</time>
      </trkpt>
      <trkpt lat="45.68818" lon="4.70759">
        <ele>314.684601</ele>
        <time>2016-09-25T09:37:05Z</time>
      </trkpt>
      <trkpt lat="45.68818" lon="4.70763">
        <ele>314.959656</ele>
        <time>2016-09-25T09:37:07Z</time>
      </trkpt>
      <trkpt lat="45.68816" lon="4.70767">
        <ele>315.060303</ele>
        <time>2016-09-25T09:37:09Z</time>
      </trkpt>
      <trkpt lat="45.68816" lon="4.70771">
        <ele>315.206848</ele>
        <time>2016-09-25T09:37:11Z</time>
      </trkpt>
      <trkpt lat="45.68815" lon="4.70776">
        <ele>315.305939</ele>
        <time>2016-09-25T09:37:13Z</time>
      </trkpt>
      <trkpt lat="45.68813" lon="4.7078">
        <ele>315.442474</ele>
        <time>2016-09-25T09:37:15Z</time>
      </trkpt>
      <trkpt lat="45.68812" lon="4.70784">
        <ele>315.51828</ele>
        <time>2016-09-25T09:37:17Z</time>
      </trkpt>
      <trkpt lat="45.68811" lon="4.70788">
        <ele>315.614288</ele>
        <time>2016-09-25T09:37:19Z</time>
      </trkpt>
      <trkpt lat="45.68809" lon="4.70791">
        <ele>315.718811</ele>
        <time>2016-09-25T09:37:21Z</time>
      </trkpt>
      <trkpt lat="45.68808" lon="4.70795">
        <ele>315.953339</ele>
        <time>2016-09-25T09:37:23Z</time>
      </trkpt>
      <trkpt lat="45.68806" lon="4.70798">
        <ele>316.121887</ele>
        <time>2016-09-25T09:37:25Z</time>
      </trkpt>
      <trkpt lat="45.68805" lon="4.70802">
        <ele>316.275818</ele>
        <time>2016-09-25T09:37:27Z</time>
      </trkpt>
      <trkpt lat="45.68803" lon="4.70805">
        <ele>316.578766</ele>
        <time>2016-09-25T09:37:29Z</time>
      </trkpt>
      <trkpt lat="45.68802" lon="4.70809">
        <ele>316.853973</ele>
        <time>2016-09-25T09:37:31Z</time>
      </trkpt>
      <trkpt lat="45.688" lon="4.70813">
        <ele>317.048126</ele>
        <time>2016-09-25T09:37:33Z</time>
      </trkpt>
      <trkpt lat="45.68799" lon="4.70817">
        <ele>317.326111</ele>
        <time>2016-09-25T09:37:35Z</time>
      </trkpt>
      <trkpt lat="45.68797" lon="4.70822">
        <ele>317.379456</ele>
        <time>2016-09-25T09:37:37Z</time>
      </trkpt>
      <trkpt lat="45.68795" lon="4.70826">
        <ele>317.577881</ele>
        <time>2016-09-25T09:37:39Z</time>
      </trkpt>
      <trkpt lat="45.68794" lon="4.70831">
        <ele>317.9086</ele>
        <time>2016-09-25T09:37:41Z</time>
      </trkpt>
      <trkpt lat="45.68792" lon="4.70836">
        <ele>318.098541</ele>
        <time>2016-09-25T09:37:43Z</time>
      </trkpt>
      <trkpt lat="45.6879" lon="4.70841">
        <ele>318.390869</ele>
        <time>2016-09-25T09:37:45Z</time>
      </trkpt>
      <trkpt lat="45.68788" lon="4.70846">
        <ele>318.533844</ele>
        <time>2016-09-25T09:37:47Z</time>
      </trkpt>
      <trkpt lat="45.68786" lon="4.70852">
        <ele>318.738434</ele>
        <time>2016-09-25T09:37:49Z</time>
      </trkpt>
      <trkpt lat="45.68783" lon="4.70857">
        <ele>318.740082</ele>
        <time>2016-09-25T09:37:51Z</time>
      </trkpt>
      <trkpt lat="45.68781" lon="4.70862">
        <ele>318.954346</ele>
        <time>2016-09-25T09:37:53Z</time>
      </trkpt>
      <trkpt lat="45.68778" lon="4.70867">
        <ele>319.135742</ele>
        <time>2016-09-25T09:37:55Z</time>
      </trkpt>
      <trkpt lat="45.68775" lon="4.70872">
        <ele>319.383301</ele>
        <time>2016-09-25T09:37:57Z</time>
      </trkpt>
      <trkpt lat="45.68771" lon="4.70878">
        <ele>319.53363</ele>
        <time>2016-09-25T09:37:59Z</time>
      </trkpt>
      <trkpt lat="45.68767" lon="4.70883">
        <ele>319.766479</ele>
        <time>2016-09-25T09:38:01Z</time>
      </trkpt>
      <trkpt lat="45.68763" lon="4.70888">
        <ele>319.992676</ele>
        <time>2016-09-25T09:38:03Z</time>
      </trkpt>
      <trkpt lat="45.68759" lon="4.70894">
        <ele>320.251465</ele>
        <time>2016-09-25T09:38:05Z</time>
      </trkpt>
      <trkpt lat="45.68755" lon="4.70899">
        <ele>320.558502</ele>
        <time>2016-09-25T09:38:07Z</time>
      </trkpt>
      <trkpt lat="45.68752" lon="4.70904">
        <ele>320.451813</ele>
        <time>2016-09-25T09:38:09Z</time>
      </trkpt>
      <trkpt lat="45.68749" lon="4.70908">
        <ele>320.637512</ele>
        <time>2016-09-25T09:38:11Z</time>
      </trkpt>
      <trkpt lat="45.68746" lon="4.70912">
        <ele>320.812531</ele>
        <time>2016-09-25T09:38:13Z</time>
      </trkpt>
      <trkpt lat="45.68742" lon="4.70918">
        <ele>320.954468</ele>
        <time>2016-09-25T09:38:15Z</time>
      </trkpt>
      <trkpt lat="45.68738" lon="4.70923">
        <ele>321.125153</ele>
        <time>2016-09-25T09:38:17Z</time>
      </trkpt>
      <trkpt lat="45.68734" lon="4.70929">
        <ele>321.263855</ele>
        <time>2016-09-25T09:38:19Z</time>
      </trkpt>
      <trkpt lat="45.68731" lon="4.70934">
        <ele>321.302307</ele>
        <time>2016-09-25T09:38:21Z</time>
      </trkpt>
      <trkpt lat="45.68728" lon="4.7094">
        <ele>321.315094</ele>
        <time>2016-09-25T09:38:23Z</time>
      </trkpt>
      <trkpt lat="45.68729" lon="4.70946">
        <ele>321.509338</ele>
        <time>2016-09-25T09:38:25Z</time>
      </trkpt>
      <trkpt lat="45.68732" lon="4.7095">
        <ele>321.601105</ele>
        <time>2016-09-25T09:38:27Z</time>
      </trkpt>
      <trkpt lat="45.68736" lon="4.70952">
        <ele>321.808136</ele>
        <time>2016-09-25T09:38:29Z</time>
      </trkpt>
      <trkpt lat="45.68741" lon="4.70954">
        <ele>321.874512</ele>
        <time>2016-09-25T09:38:31Z</time>
      </trkpt>
      <trkpt lat="45.68745" lon="4.70956">
        <ele>322.072784</ele>
        <time>2016-09-25T09:38:33Z</time>
      </trkpt>
      <trkpt lat="45.68751" lon="4.70957">
        <ele>322.06424</ele>
        <time>2016-09-25T09:38:35Z</time>
      </trkpt>
      <trkpt lat="45.68757" lon="4.70959">
        <ele>322.149597</ele>
        <time>2016-09-25T09:38:37Z</time>
      </trkpt>
      <trkpt lat="45.68763" lon="4.70962">
        <ele>322.130402</ele>
        <time>2016-09-25T09:38:39Z</time>
      </trkpt>
      <trkpt lat="45.68768" lon="4.70963">
        <ele>322.275543</ele>
        <time>2016-09-25T09:38:41Z</time>
      </trkpt>
      <trkpt lat="45.68774" lon="4.70966">
        <ele>322.341492</ele>
        <time>2016-09-25T09:38:43Z</time>
      </trkpt>
      <trkpt lat="45.68781" lon="4.70968">
        <ele>322.382019</ele>
        <time>2016-09-25T09:38:45Z</time>
      </trkpt>
      <trkpt lat="45.68789" lon="4.70971">
        <ele>322.210724</ele>
        <time>2016-09-25T09:38:47Z</time>
      </trkpt>
      <trkpt lat="45.68798" lon="4.70974">
        <ele>322.103973</ele>
        <time>2016-09-25T09:38:49Z</time>
      </trkpt>
      <trkpt lat="45.68808" lon="4.70978">
        <ele>322.231995</ele>
        <time>2016-09-25T09:38:51Z</time>
      </trkpt>
      <trkpt lat="45.68818" lon="4.70982">
        <ele>322.118134</ele>
        <time>2016-09-25T09:38:53Z</time>
      </trkpt>
      <trkpt lat="45.68828" lon="4.70986">
        <ele>322.118134</ele>
        <time>2016-09-25T09:38:55Z</time>
      </trkpt>
      <trkpt lat="45.68839" lon="4.70991">
        <ele>322.086243</ele>
        <time>2016-09-25T09:38:57Z</time>
      </trkpt>
      <trkpt lat="45.68848" lon="4.70997">
        <ele>321.787476</ele>
        <time>2016-09-25T09:38:59Z</time>
      </trkpt>
      <trkpt lat="45.68858" lon="4.71003">
        <ele>321.623169</ele>
        <time>2016-09-25T09:39:01Z</time>
      </trkpt>
      <trkpt lat="45.68868" lon="4.7101">
        <ele>321.682922</ele>
        <time>2016-09-25T09:39:03Z</time>
      </trkpt>
      <trkpt lat="45.68877" lon="4.71017">
        <ele>321.69574</ele>
        <time>2016-09-25T09:39:05Z</time>
      </trkpt>
      <trkpt lat="45.68887" lon="4.71026">
        <ele>321.583282</ele>
        <time>2016-09-25T09:39:07Z</time>
      </trkpt>
      <trkpt lat="45.68898" lon="4.71035">
        <ele>321.510712</ele>
        <time>2016-09-25T09:39:09Z</time>
      </trkpt>
      <trkpt lat="45.68908" lon="4.71044">
        <ele>321.412537</ele>
        <time>2016-09-25T09:39:11Z</time>
      </trkpt>
      <trkpt lat="45.68919" lon="4.71052">
        <ele>321.288757</ele>
        <time>2016-09-25T09:39:13Z</time>
      </trkpt>
      <trkpt lat="45.6893" lon="4.71061">
        <ele>321.160675</ele>
        <time>2016-09-25T09:39:15Z</time>
      </trkpt>
      <trkpt lat="45.6894" lon="4.7107">
        <ele>320.983521</ele>
        <time>2016-09-25T09:39:17Z</time>
      </trkpt>
      <trkpt lat="45.68951" lon="4.71079">
        <ele>320.838409</ele>
        <time>2016-09-25T09:39:19Z</time>
      </trkpt>
      <trkpt lat="45.68961" lon="4.71088">
        <ele>320.605774</ele>
        <time>2016-09-25T09:39:21Z</time>
      </trkpt>
      <trkpt lat="45.68972" lon="4.71097">
        <ele>320.554565</ele>
        <time>2016-09-25T09:39:23Z</time>
      </trkpt>
      <trkpt lat="45.68984" lon="4.71104">
        <ele>320.274963</ele>
        <time>2016-09-25T09:39:25Z</time>
      </trkpt>
      <trkpt lat="45.68996" lon="4.71111">
        <ele>320.336365</ele>
        <time>2016-09-25T09:39:27Z</time>
      </trkpt>
      <trkpt lat="45.69009" lon="4.71118">
        <ele>320.270355</ele>
        <time>2016-09-25T09:39:29Z</time>
      </trkpt>
      <trkpt lat="45.69021" lon="4.71125">
        <ele>320.212769</ele>
        <time>2016-09-25T09:39:31Z</time>
      </trkpt>
      <trkpt lat="45.69033" lon="4.71132">
        <ele>320.146606</ele>
        <time>2016-09-25T09:39:33Z</time>
      </trkpt>
      <trkpt lat="45.69046" lon="4.7114">
        <ele>320.05603</ele>
        <time>2016-09-25T09:39:35Z</time>
      </trkpt>
      <trkpt lat="45.69058" lon="4.71147">
        <ele>320.05603</ele>
        <time>2016-09-25T09:39:37Z</time>
      </trkpt>
      <trkpt lat="45.6907" lon="4.71155">
        <ele>319.767273</ele>
        <time>2016-09-25T09:39:39Z</time>
      </trkpt>
      <trkpt lat="45.69082" lon="4.71162">
        <ele>319.718201</ele>
        <time>2016-09-25T09:39:41Z</time>
      </trkpt>
      <trkpt lat="45.69092" lon="4.71172">
        <ele>319.647766</ele>
        <time>2016-09-25T09:39:43Z</time>
      </trkpt>
      <trkpt lat="45.69095" lon="4.71187">
        <ele>319.476776</ele>
        <time>2016-09-25T09:39:45Z</time>
      </trkpt>
      <trkpt lat="45.69093" lon="4.71201">
        <ele>319.338043</ele>
        <time>2016-09-25T09:39:47Z</time>
      </trkpt>
      <trkpt lat="45.69091" lon="4.71216">
        <ele>319.166626</ele>
        <time>2016-09-25T09:39:49Z</time>
      </trkpt>
      <trkpt lat="45.69089" lon="4.71231">
        <ele>318.910583</ele>
        <time>2016-09-25T09:39:51Z</time>
      </trkpt>
      <trkpt lat="45.6909" lon="4.71247">
        <ele>318.882813</ele>
        <time>2016-09-25T09:39:53Z</time>
      </trkpt>
      <trkpt lat="45.6909" lon="4.71261">
        <ele>318.840149</ele>
        <time>2016-09-25T09:39:55Z</time>
      </trkpt>
      <trkpt lat="45.69088" lon="4.71275">
        <ele>318.622498</ele>
        <time>2016-09-25T09:39:57Z</time>
      </trkpt>
      <trkpt lat="45.69091" lon="4.71288">
        <ele>318.46463</ele>
        <time>2016-09-25T09:39:59Z</time>
      </trkpt>
      <trkpt lat="45.69097" lon="4.71301">
        <ele>318.31955</ele>
        <time>2016-09-25T09:40:01Z</time>
      </trkpt>
      <trkpt lat="45.69095" lon="4.71318">
        <ele>318.096161</ele>
        <time>2016-09-25T09:40:03Z</time>
      </trkpt>
      <trkpt lat="45.69091" lon="4.71337">
        <ele>317.569672</ele>
        <time>2016-09-25T09:40:05Z</time>
      </trkpt>
      <trkpt lat="45.69087" lon="4.71356">
        <ele>317.20282</ele>
        <time>2016-09-25T09:40:07Z</time>
      </trkpt>
      <trkpt lat="45.69083" lon="4.71375">
        <ele>316.642242</ele>
        <time>2016-09-25T09:40:09Z</time>
      </trkpt>
      <trkpt lat="45.69085" lon="4.7139">
        <ele>316.055511</ele>
        <time>2016-09-25T09:40:11Z</time>
      </trkpt>
      <trkpt lat="45.69093" lon="4.714">
        <ele>315.277344</ele>
        <time>2016-09-25T09:40:13Z</time>
      </trkpt>
      <trkpt lat="45.69105" lon="4.71406">
        <ele>314.671204</ele>
        <time>2016-09-25T09:40:15Z</time>
      </trkpt>
      <trkpt lat="45.69117" lon="4.71411">
        <ele>313.975891</ele>
        <time>2016-09-25T09:40:17Z</time>
      </trkpt>
      <trkpt lat="45.69131" lon="4.71416">
        <ele>313.306305</ele>
        <time>2016-09-25T09:40:19Z</time>
      </trkpt>
      <trkpt lat="45.69144" lon="4.71422">
        <ele>312.707123</ele>
        <time>2016-09-25T09:40:21Z</time>
      </trkpt>
      <trkpt lat="45.69159" lon="4.71428">
        <ele>312.47052</ele>
        <time>2016-09-25T09:40:23Z</time>
      </trkpt>
      <trkpt lat="45.69174" lon="4.71437">
        <ele>311.924652</ele>
        <time>2016-09-25T09:40:25Z</time>
      </trkpt>
      <trkpt lat="45.6919" lon="4.71444">
        <ele>310.95932</ele>
        <time>2016-09-25T09:40:27Z</time>
      </trkpt>
      <trkpt lat="45.69205" lon="4.71453">
        <ele>310.434753</ele>
        <time>2016-09-25T09:40:29Z</time>
      </trkpt>
      <trkpt lat="45.69218" lon="4.7146">
        <ele>309.548035</ele>
        <time>2016-09-25T09:40:31Z</time>
      </trkpt>
      <trkpt lat="45.69231" lon="4.71467">
        <ele>308.991638</ele>
        <time>2016-09-25T09:40:33Z</time>
      </trkpt>
      <trkpt lat="45.69243" lon="4.71476">
        <ele>308.530945</ele>
        <time>2016-09-25T09:40:35Z</time>
      </trkpt>
      <trkpt lat="45.69249" lon="4.71491">
        <ele>307.714417</ele>
        <time>2016-09-25T09:40:37Z</time>
      </trkpt>
      <trkpt lat="45.69248" lon="4.7151">
        <ele>307.072693</ele>
        <time>2016-09-25T09:40:39Z</time>
      </trkpt>
      <trkpt lat="45.69241" lon="4.71527">
        <ele>306.384277</ele>
        <time>2016-09-25T09:40:41Z</time>
      </trkpt>
      <trkpt lat="45.69232" lon="4.71544">
        <ele>306.413635</ele>
        <time>2016-09-25T09:40:43Z</time>
      </trkpt>
      <trkpt lat="45.69226" lon="4.71562">
        <ele>305.718567</ele>
        <time>2016-09-25T09:40:45Z</time>
      </trkpt>
      <trkpt lat="45.69221" lon="4.71577">
        <ele>305.207062</ele>
        <time>2016-09-25T09:40:47Z</time>
      </trkpt>
      <trkpt lat="45.69219" lon="4.71588">
        <ele>304.874756</ele>
        <time>2016-09-25T09:40:49Z</time>
      </trkpt>
      <trkpt lat="45.69223" lon="4.71598">
        <ele>304.314392</ele>
        <time>2016-09-25T09:40:51Z</time>
      </trkpt>
      <trkpt lat="45.69229" lon="4.7161">
        <ele>303.937195</ele>
        <time>2016-09-25T09:40:53Z</time>
      </trkpt>
      <trkpt lat="45.69235" lon="4.71623">
        <ele>303.526001</ele>
        <time>2016-09-25T09:40:55Z</time>
      </trkpt>
      <trkpt lat="45.69241" lon="4.71639">
        <ele>303.11908</ele>
        <time>2016-09-25T09:40:57Z</time>
      </trkpt>
      <trkpt lat="45.69248" lon="4.71654">
        <ele>302.69928</ele>
        <time>2016-09-25T09:40:59Z</time>
      </trkpt>
      <trkpt lat="45.69257" lon="4.71668">
        <ele>302.257507</ele>
        <time>2016-09-25T09:41:01Z</time>
      </trkpt>
      <trkpt lat="45.69265" lon="4.71682">
        <ele>302.113983</ele>
        <time>2016-09-25T09:41:03Z</time>
      </trkpt>
      <trkpt lat="45.69274" lon="4.71695">
        <ele>301.881775</ele>
        <time>2016-09-25T09:41:05Z</time>
      </trkpt>
      <trkpt lat="45.69282" lon="4.71708">
        <ele>301.474854</ele>
        <time>2016-09-25T09:41:07Z</time>
      </trkpt>
      <trkpt lat="45.6929" lon="4.71721">
        <ele>301.048584</ele>
        <time>2016-09-25T09:41:09Z</time>
      </trkpt>
      <trkpt lat="45.69299" lon="4.71736">
        <ele>300.925079</ele>
        <time>2016-09-25T09:41:11Z</time>
      </trkpt>
      <trkpt lat="45.69309" lon="4.71752">
        <ele>300.30127</ele>
        <time>2016-09-25T09:41:13Z</time>
      </trkpt>
      <trkpt lat="45.6932" lon="4.71769">
        <ele>299.813385</ele>
        <time>2016-09-25T09:41:15Z</time>
      </trkpt>
      <trkpt lat="45.69333" lon="4.71787">
        <ele>298.806091</ele>
        <time>2016-09-25T09:41:17Z</time>
      </trkpt>
      <trkpt lat="45.69346" lon="4.71805">
        <ele>298.046173</ele>
        <time>2016-09-25T09:41:19Z</time>
      </trkpt>
      <trkpt lat="45.69359" lon="4.71824">
        <ele>297.224396</ele>
        <time>2016-09-25T09:41:21Z</time>
      </trkpt>
      <trkpt lat="45.6937" lon="4.71842">
        <ele>296.685486</ele>
        <time>2016-09-25T09:41:23Z</time>
      </trkpt>
      <trkpt lat="45.69382" lon="4.71859">
        <ele>295.452789</ele>
        <time>2016-09-25T09:41:25Z</time>
      </trkpt>
      <trkpt lat="45.69393" lon="4.71876">
        <ele>294.775848</ele>
        <time>2016-09-25T09:41:27Z</time>
      </trkpt>
      <trkpt lat="45.69405" lon="4.71892">
        <ele>294.06076</ele>
        <time>2016-09-25T09:41:29Z</time>
      </trkpt>
      <trkpt lat="45.69415" lon="4.71909">
        <ele>293.383759</ele>
        <time>2016-09-25T09:41:31Z</time>
      </trkpt>
      <trkpt lat="45.69425" lon="4.71927">
        <ele>292.800629</ele>
        <time>2016-09-25T09:41:33Z</time>
      </trkpt>
      <trkpt lat="45.69434" lon="4.71946">
        <ele>292.291809</ele>
        <time>2016-09-25T09:41:35Z</time>
      </trkpt>
      <trkpt lat="45.69438" lon="4.71966">
        <ele>292.259857</ele>
        <time>2016-09-25T09:41:37Z</time>
      </trkpt>
      <trkpt lat="45.69438" lon="4.71987">
        <ele>291.963867</ele>
        <time>2016-09-25T09:41:39Z</time>
      </trkpt>
      <trkpt lat="45.69437" lon="4.72007">
        <ele>291.195557</ele>
        <time>2016-09-25T09:41:41Z</time>
      </trkpt>
      <trkpt lat="45.69437" lon="4.72026">
        <ele>290.481934</ele>
        <time>2016-09-25T09:41:43Z</time>
      </trkpt>
      <trkpt lat="45.69436" lon="4.72046">
        <ele>289.785431</ele>
        <time>2016-09-25T09:41:45Z</time>
      </trkpt>
      <trkpt lat="45.69436" lon="4.72067">
        <ele>289.102448</ele>
        <time>2016-09-25T09:41:47Z</time>
      </trkpt>
      <trkpt lat="45.69434" lon="4.72087">
        <ele>288.918243</ele>
        <time>2016-09-25T09:41:49Z</time>
      </trkpt>
      <trkpt lat="45.69435" lon="4.72105">
        <ele>288.086395</ele>
        <time>2016-09-25T09:41:51Z</time>
      </trkpt>
      <trkpt lat="45.69438" lon="4.7212">
        <ele>287.180206</ele>
        <time>2016-09-25T09:41:53Z</time>
      </trkpt>
      <trkpt lat="45.69437" lon="4.72135">
        <ele>286.355286</ele>
        <time>2016-09-25T09:41:55Z</time>
      </trkpt>
      <trkpt lat="45.69436" lon="4.72152">
        <ele>285.787628</ele>
        <time>2016-09-25T09:41:57Z</time>
      </trkpt>
      <trkpt lat="45.69436" lon="4.72166">
        <ele>285.412903</ele>
        <time>2016-09-25T09:41:59Z</time>
      </trkpt>
      <trkpt lat="45.69439" lon="4.7218">
        <ele>285.228607</ele>
        <time>2016-09-25T09:42:01Z</time>
      </trkpt>
      <trkpt lat="45.69441" lon="4.72198">
        <ele>284.146912</ele>
        <time>2016-09-25T09:42:03Z</time>
      </trkpt>
      <trkpt lat="45.69443" lon="4.72218">
        <ele>283.237305</ele>
        <time>2016-09-25T09:42:05Z</time>
      </trkpt>
      <trkpt lat="45.69444" lon="4.72236">
        <ele>282.028778</ele>
        <time>2016-09-25T09:42:07Z</time>
      </trkpt>
      <trkpt lat="45.69444" lon="4.72252">
        <ele>280.81778</ele>
        <time>2016-09-25T09:42:09Z</time>
      </trkpt>
      <trkpt lat="45.69444" lon="4.72265">
        <ele>279.860291</ele>
        <time>2016-09-25T09:42:11Z</time>
      </trkpt>
      <trkpt lat="45.69445" lon="4.72278">
        <ele>279.042542</ele>
        <time>2016-09-25T09:42:13Z</time>
      </trkpt>
      <trkpt lat="45.69445" lon="4.72284">
        <ele>277.483582</ele>
        <time>2016-09-25T09:42:15Z</time>
      </trkpt>
      <trkpt lat="45.69445" lon="4.72291">
        <ele>275.773376</ele>
        <time>2016-09-25T09:42:17Z</time>
      </trkpt>
      <trkpt lat="45.69445" lon="4.72301">
        <ele>274.069153</ele>
        <time>2016-09-25T09:42:19Z</time>
      </trkpt>
      <trkpt lat="45.69443" lon="4.7231">
        <ele>272.690491</ele>
        <time>2016-09-25T09:42:21Z</time>
      </trkpt>
      <trkpt lat="45.6944" lon="4.72317">
        <ele>271.037262</ele>
        <time>2016-09-25T09:42:23Z</time>
      </trkpt>
      <trkpt lat="45.69438" lon="4.72324">
        <ele>270.578552</ele>
        <time>2016-09-25T09:42:25Z</time>
      </trkpt>
      <trkpt lat="45.69436" lon="4.72332">
        <ele>268.905823</ele>
        <time>2016-09-25T09:42:27Z</time>
      </trkpt>
      <trkpt lat="45.69439" lon="4.72349">
        <ele>267.230316</ele>
        <time>2016-09-25T09:42:29Z</time>
      </trkpt>
      <trkpt lat="45.69448" lon="4.72365">
        <ele>265.081879</ele>
        <time>2016-09-25T09:42:31Z</time>
      </trkpt>
      <trkpt lat="45.69459" lon="4.7238">
        <ele>263.117157</ele>
        <time>2016-09-25T09:42:33Z</time>
      </trkpt>
      <trkpt lat="45.6947" lon="4.72394">
        <ele>261.232086</ele>
        <time>2016-09-25T09:42:35Z</time>
      </trkpt>
      <trkpt lat="45.69476" lon="4.72408">
        <ele>259.596741</ele>
        <time>2016-09-25T09:42:37Z</time>
      </trkpt>
      <trkpt lat="45.69471" lon="4.72415">
        <ele>257.62442</ele>
        <time>2016-09-25T09:42:39Z</time>
      </trkpt>
      <trkpt lat="45.69462" lon="4.72414">
        <ele>255.339066</ele>
        <time>2016-09-25T09:42:41Z</time>
      </trkpt>
      <trkpt lat="45.69451" lon="4.72408">
        <ele>253.376785</ele>
        <time>2016-09-25T09:42:43Z</time>
      </trkpt>
      <trkpt lat="45.69439" lon="4.724">
        <ele>252.620041</ele>
        <time>2016-09-25T09:42:45Z</time>
      </trkpt>
      <trkpt lat="45.69426" lon="4.72392">
        <ele>250.668777</ele>
        <time>2016-09-25T09:42:47Z</time>
      </trkpt>
      <trkpt lat="45.69415" lon="4.72387">
        <ele>249.135941</ele>
        <time>2016-09-25T09:42:49Z</time>
      </trkpt>
      <trkpt lat="45.6941" lon="4.72394">
        <ele>247.51709</ele>
        <time>2016-09-25T09:42:51Z</time>
      </trkpt>
      <trkpt lat="45.69412" lon="4.72405">
        <ele>245.917999</ele>
        <time>2016-09-25T09:42:53Z</time>
      </trkpt>
      <trkpt lat="45.69413" lon="4.72419">
        <ele>244.397064</ele>
        <time>2016-09-25T09:42:55Z</time>
      </trkpt>
      <trkpt lat="45.69416" lon="4.72436">
        <ele>243.28125</ele>
        <time>2016-09-25T09:42:57Z</time>
      </trkpt>
      <trkpt lat="45.6942" lon="4.72456">
        <ele>242.168625</ele>
        <time>2016-09-25T09:42:59Z</time>
      </trkpt>
      <trkpt lat="45.69422" lon="4.72476">
        <ele>240.648529</ele>
        <time>2016-09-25T09:43:01Z</time>
      </trkpt>
      <trkpt lat="45.69424" lon="4.72494">
        <ele>239.423782</ele>
        <time>2016-09-25T09:43:03Z</time>
      </trkpt>
      <trkpt lat="45.69426" lon="4.72513">
        <ele>238.199509</ele>
        <time>2016-09-25T09:43:05Z</time>
      </trkpt>
      <trkpt lat="45.69424" lon="4.7253">
        <ele>236.78653</ele>
        <time>2016-09-25T09:43:07Z</time>
      </trkpt>
      <trkpt lat="45.69421" lon="4.72543">
        <ele>236.354446</ele>
        <time>2016-09-25T09:43:09Z</time>
      </trkpt>
      <trkpt lat="45.69417" lon="4.72555">
        <ele>235.242157</ele>
        <time>2016-09-25T09:43:11Z</time>
      </trkpt>
      <trkpt lat="45.69415" lon="4.72566">
        <ele>234.101532</ele>
        <time>2016-09-25T09:43:13Z</time>
      </trkpt>
      <trkpt lat="45.69415" lon="4.72575">
        <ele>233.396759</ele>
        <time>2016-09-25T09:43:15Z</time>
      </trkpt>
      <trkpt lat="45.6942" lon="4.72583">
        <ele>232.911179</ele>
        <time>2016-09-25T09:43:17Z</time>
      </trkpt>
      <trkpt lat="45.69422" lon="4.72591">
        <ele>232.088104</ele>
        <time>2016-09-25T09:43:19Z</time>
      </trkpt>
      <trkpt lat="45.69423" lon="4.72596">
        <ele>231.691559</ele>
        <time>2016-09-25T09:43:21Z</time>
      </trkpt>
      <trkpt lat="45.69421" lon="4.72601">
        <ele>231.374146</ele>
        <time>2016-09-25T09:43:23Z</time>
      </trkpt>
      <trkpt lat="45.69417" lon="4.72604">
        <ele>230.992996</ele>
        <time>2016-09-25T09:43:25Z</time>
      </trkpt>
      <trkpt lat="45.69412" lon="4.72608">
        <ele>230.396393</ele>
        <time>2016-09-25T09:43:27Z</time>
      </trkpt>
      <trkpt lat="45.69407" lon="4.72612">
        <ele>230.079025</ele>
        <time>2016-09-25T09:43:29Z</time>
      </trkpt>
      <trkpt lat="45.69401" lon="4.72617">
        <ele>229.763718</ele>
        <time>2016-09-25T09:43:31Z</time>
      </trkpt>
      <trkpt lat="45.69394" lon="4.72621">
        <ele>229.586029</ele>
        <time>2016-09-25T09:43:33Z</time>
      </trkpt>
      <trkpt lat="45.69387" lon="4.72626">
        <ele>228.987137</ele>
        <time>2016-09-25T09:43:35Z</time>
      </trkpt>
      <trkpt lat="45.69379" lon="4.72632">
        <ele>228.777634</ele>
        <time>2016-09-25T09:43:37Z</time>
      </trkpt>
      <trkpt lat="45.69372" lon="4.72638">
        <ele>228.592896</ele>
        <time>2016-09-25T09:43:39Z</time>
      </trkpt>
      <trkpt lat="45.69365" lon="4.72645">
        <ele>228.362518</ele>
        <time>2016-09-25T09:43:41Z</time>
      </trkpt>
      <trkpt lat="45.69358" lon="4.72652">
        <ele>228.261765</ele>
        <time>2016-09-25T09:43:43Z</time>
      </trkpt>
      <trkpt lat="45.69351" lon="4.7266">
        <ele>227.951813</ele>
        <time>2016-09-25T09:43:45Z</time>
      </trkpt>
      <trkpt lat="45.69344" lon="4.72668">
        <ele>227.829132</ele>
        <time>2016-09-25T09:43:47Z</time>
      </trkpt>
      <trkpt lat="45.69336" lon="4.72677">
        <ele>227.854523</ele>
        <time>2016-09-25T09:43:49Z</time>
      </trkpt>
      <trkpt lat="45.69328" lon="4.72684">
        <ele>227.778198</ele>
        <time>2016-09-25T09:43:51Z</time>
      </trkpt>
      <trkpt lat="45.69319" lon="4.72691">
        <ele>227.772919</ele>
        <time>2016-09-25T09:43:53Z</time>
      </trkpt>
      <trkpt lat="45.69312" lon="4.72696">
        <ele>227.65239</ele>
        <time>2016-09-25T09:43:55Z</time>
      </trkpt>
      <trkpt lat="45.69305" lon="4.72702">
        <ele>227.937958</ele>
        <time>2016-09-25T09:43:57Z</time>
      </trkpt>
      <trkpt lat="45.69297" lon="4.72708">
        <ele>228.145172</ele>
        <time>2016-09-25T09:43:59Z</time>
      </trkpt>
      <trkpt lat="45.69282" lon="4.72725">
        <ele>228.149658</ele>
        <time>2016-09-25T09:44:03Z</time>
      </trkpt>
      <trkpt lat="45.69275" lon="4.72732">
        <ele>228.125122</ele>
        <time>2016-09-25T09:44:05Z</time>
      </trkpt>
      <trkpt lat="45.69267" lon="4.7274">
        <ele>228.09346</ele>
        <time>2016-09-25T09:44:07Z</time>
      </trkpt>
      <trkpt lat="45.69261" lon="4.72748">
        <ele>228.167694</ele>
        <time>2016-09-25T09:44:09Z</time>
      </trkpt>
      <trkpt lat="45.69254" lon="4.72756">
        <ele>228.146561</ele>
        <time>2016-09-25T09:44:11Z</time>
      </trkpt>
      <trkpt lat="45.69247" lon="4.72766">
        <ele>228.337372</ele>
        <time>2016-09-25T09:44:13Z</time>
      </trkpt>
      <trkpt lat="45.69241" lon="4.72776">
        <ele>228.393219</ele>
        <time>2016-09-25T09:44:15Z</time>
      </trkpt>
      <trkpt lat="45.69235" lon="4.72787">
        <ele>228.456757</ele>
        <time>2016-09-25T09:44:17Z</time>
      </trkpt>
      <trkpt lat="45.69229" lon="4.72795">
        <ele>228.670441</ele>
        <time>2016-09-25T09:44:19Z</time>
      </trkpt>
      <trkpt lat="45.69223" lon="4.72804">
        <ele>228.796509</ele>
        <time>2016-09-25T09:44:21Z</time>
      </trkpt>
      <trkpt lat="45.69216" lon="4.72814">
        <ele>228.800873</ele>
        <time>2016-09-25T09:44:23Z</time>
      </trkpt>
      <trkpt lat="45.69209" lon="4.72824">
        <ele>228.767014</ele>
        <time>2016-09-25T09:44:25Z</time>
      </trkpt>
      <trkpt lat="45.69203" lon="4.72834">
        <ele>228.807938</ele>
        <time>2016-09-25T09:44:27Z</time>
      </trkpt>
      <trkpt lat="45.69196" lon="4.72844">
        <ele>229.043793</ele>
        <time>2016-09-25T09:44:29Z</time>
      </trkpt>
      <trkpt lat="45.69189" lon="4.72854">
        <ele>229.041656</ele>
        <time>2016-09-25T09:44:31Z</time>
      </trkpt>
      <trkpt lat="45.69181" lon="4.72864">
        <ele>229.01416</ele>
        <time>2016-09-25T09:44:33Z</time>
      </trkpt>
      <trkpt lat="45.69173" lon="4.72876">
        <ele>229.033203</ele>
        <time>2016-09-25T09:44:35Z</time>
      </trkpt>
      <trkpt lat="45.69167" lon="4.72889">
        <ele>229.028</ele>
        <time>2016-09-25T09:44:37Z</time>
      </trkpt>
      <trkpt lat="45.69162" lon="4.72902">
        <ele>229.053375</ele>
        <time>2016-09-25T09:44:39Z</time>
      </trkpt>
      <trkpt lat="45.69159" lon="4.72916">
        <ele>229.182449</ele>
        <time>2016-09-25T09:44:41Z</time>
      </trkpt>
      <trkpt lat="45.69156" lon="4.7293">
        <ele>229.162674</ele>
        <time>2016-09-25T09:44:43Z</time>
      </trkpt>
      <trkpt lat="45.69154" lon="4.72943">
        <ele>229.409943</ele>
        <time>2016-09-25T09:44:45Z</time>
      </trkpt>
      <trkpt lat="45.69153" lon="4.72954">
        <ele>229.574921</ele>
        <time>2016-09-25T09:44:47Z</time>
      </trkpt>
      <trkpt lat="45.69151" lon="4.72965">
        <ele>229.731415</ele>
        <time>2016-09-25T09:44:49Z</time>
      </trkpt>
      <trkpt lat="45.69148" lon="4.72977">
        <ele>229.771637</ele>
        <time>2016-09-25T09:44:51Z</time>
      </trkpt>
      <trkpt lat="45.69144" lon="4.72988">
        <ele>229.876877</ele>
        <time>2016-09-25T09:44:53Z</time>
      </trkpt>
      <trkpt lat="45.69141" lon="4.72998">
        <ele>230.197662</ele>
        <time>2016-09-25T09:44:55Z</time>
      </trkpt>
      <trkpt lat="45.69137" lon="4.73008">
        <ele>230.286453</ele>
        <time>2016-09-25T09:44:57Z</time>
      </trkpt>
      <trkpt lat="45.69133" lon="4.73017">
        <ele>230.079147</ele>
        <time>2016-09-25T09:44:59Z</time>
      </trkpt>
      <trkpt lat="45.69128" lon="4.73027">
        <ele>230.157425</ele>
        <time>2016-09-25T09:45:01Z</time>
      </trkpt>
      <trkpt lat="45.69126" lon="4.73041">
        <ele>230.189209</ele>
        <time>2016-09-25T09:45:03Z</time>
      </trkpt>
      <trkpt lat="45.69125" lon="4.73055">
        <ele>230.333862</ele>
        <time>2016-09-25T09:45:05Z</time>
      </trkpt>
      <trkpt lat="45.69129" lon="4.73067">
        <ele>230.315628</ele>
        <time>2016-09-25T09:45:07Z</time>
      </trkpt>
      <trkpt lat="45.69134" lon="4.73078">
        <ele>230.403763</ele>
        <time>2016-09-25T09:45:09Z</time>
      </trkpt>
      <trkpt lat="45.69138" lon="4.73089">
        <ele>230.128738</ele>
        <time>2016-09-25T09:45:11Z</time>
      </trkpt>
      <trkpt lat="45.69145" lon="4.73098">
        <ele>230.264114</ele>
        <time>2016-09-25T09:45:13Z</time>
      </trkpt>
      <trkpt lat="45.69153" lon="4.73108">
        <ele>230.221832</ele>
        <time>2016-09-25T09:45:15Z</time>
      </trkpt>
      <trkpt lat="45.69159" lon="4.73118">
        <ele>230.303497</ele>
        <time>2016-09-25T09:45:17Z</time>
      </trkpt>
      <trkpt lat="45.69166" lon="4.73126">
        <ele>230.204071</ele>
        <time>2016-09-25T09:45:19Z</time>
      </trkpt>
      <trkpt lat="45.69172" lon="4.73133">
        <ele>230.461182</ele>
        <time>2016-09-25T09:45:21Z</time>
      </trkpt>
      <trkpt lat="45.69179" lon="4.73139">
        <ele>230.448212</ele>
        <time>2016-09-25T09:45:23Z</time>
      </trkpt>
      <trkpt lat="45.69186" lon="4.73144">
        <ele>230.3284</ele>
        <time>2016-09-25T09:45:25Z</time>
      </trkpt>
      <trkpt lat="45.69191" lon="4.73148">
        <ele>230.294312</ele>
        <time>2016-09-25T09:45:27Z</time>
      </trkpt>
      <trkpt lat="45.69196" lon="4.73154">
        <ele>230.480011</ele>
        <time>2016-09-25T09:45:29Z</time>
      </trkpt>
      <trkpt lat="45.692" lon="4.73162">
        <ele>230.441971</ele>
        <time>2016-09-25T09:45:31Z</time>
      </trkpt>
      <trkpt lat="45.69205" lon="4.73172">
        <ele>230.488525</ele>
        <time>2016-09-25T09:45:33Z</time>
      </trkpt>
      <trkpt lat="45.69209" lon="4.73185">
        <ele>230.520233</ele>
        <time>2016-09-25T09:45:35Z</time>
      </trkpt>
      <trkpt lat="45.69214" lon="4.73198">
        <ele>230.452545</ele>
        <time>2016-09-25T09:45:37Z</time>
      </trkpt>
      <trkpt lat="45.69218" lon="4.73211">
        <ele>230.378586</ele>
        <time>2016-09-25T09:45:39Z</time>
      </trkpt>
      <trkpt lat="45.69223" lon="4.73224">
        <ele>230.582062</ele>
        <time>2016-09-25T09:45:41Z</time>
      </trkpt>
      <trkpt lat="45.69227" lon="4.73238">
        <ele>230.541656</ele>
        <time>2016-09-25T09:45:43Z</time>
      </trkpt>
      <trkpt lat="45.69228" lon="4.73254">
        <ele>230.555145</ele>
        <time>2016-09-25T09:45:45Z</time>
      </trkpt>
      <trkpt lat="45.69226" lon="4.73273">
        <ele>230.518433</ele>
        <time>2016-09-25T09:45:47Z</time>
      </trkpt>
      <trkpt lat="45.6922" lon="4.73291">
        <ele>230.698853</ele>
        <time>2016-09-25T09:45:49Z</time>
      </trkpt>
      <trkpt lat="45.69212" lon="4.73309">
        <ele>230.538132</ele>
        <time>2016-09-25T09:45:51Z</time>
      </trkpt>
      <trkpt lat="45.69206" lon="4.73328">
        <ele>230.453537</ele>
        <time>2016-09-25T09:45:53Z</time>
      </trkpt>
      <trkpt lat="45.69202" lon="4.73347">
        <ele>230.203949</ele>
        <time>2016-09-25T09:45:55Z</time>
      </trkpt>
      <trkpt lat="45.69198" lon="4.73366">
        <ele>230.165863</ele>
        <time>2016-09-25T09:45:57Z</time>
      </trkpt>
      <trkpt lat="45.69196" lon="4.73384">
        <ele>229.675201</ele>
        <time>2016-09-25T09:45:59Z</time>
      </trkpt>
      <trkpt lat="45.69194" lon="4.73401">
        <ele>229.50061</ele>
        <time>2016-09-25T09:46:01Z</time>
      </trkpt>
      <trkpt lat="45.6919" lon="4.73418">
        <ele>229.18364</ele>
        <time>2016-09-25T09:46:03Z</time>
      </trkpt>
      <trkpt lat="45.69185" lon="4.73432">
        <ele>228.779709</ele>
        <time>2016-09-25T09:46:05Z</time>
      </trkpt>
      <trkpt lat="45.69177" lon="4.73445">
        <ele>228.857025</ele>
        <time>2016-09-25T09:46:07Z</time>
      </trkpt>
      <trkpt lat="45.69169" lon="4.73456">
        <ele>228.517014</ele>
        <time>2016-09-25T09:46:09Z</time>
      </trkpt>
      <trkpt lat="45.69161" lon="4.73468">
        <ele>228.195953</ele>
        <time>2016-09-25T09:46:11Z</time>
      </trkpt>
      <trkpt lat="45.69154" lon="4.73479">
        <ele>227.880768</ele>
        <time>2016-09-25T09:46:13Z</time>
      </trkpt>
      <trkpt lat="45.69147" lon="4.7349">
        <ele>227.567657</ele>
        <time>2016-09-25T09:46:15Z</time>
      </trkpt>
      <trkpt lat="45.6914" lon="4.73503">
        <ele>227.684052</ele>
        <time>2016-09-25T09:46:17Z</time>
      </trkpt>
      <trkpt lat="45.69133" lon="4.73517">
        <ele>227.568024</ele>
        <time>2016-09-25T09:46:19Z</time>
      </trkpt>
      <trkpt lat="45.69125" lon="4.7353">
        <ele>227.457932</ele>
        <time>2016-09-25T09:46:21Z</time>
      </trkpt>
      <trkpt lat="45.69119" lon="4.73543">
        <ele>227.21611</ele>
        <time>2016-09-25T09:46:23Z</time>
      </trkpt>
      <trkpt lat="45.69113" lon="4.73557">
        <ele>226.822754</ele>
        <time>2016-09-25T09:46:25Z</time>
      </trkpt>
      <trkpt lat="45.6911" lon="4.73572">
        <ele>226.755081</ele>
        <time>2016-09-25T09:46:27Z</time>
      </trkpt>
      <trkpt lat="45.6911" lon="4.7359">
        <ele>225.989548</ele>
        <time>2016-09-25T09:46:29Z</time>
      </trkpt>
      <trkpt lat="45.69109" lon="4.73607">
        <ele>225.873901</ele>
        <time>2016-09-25T09:46:31Z</time>
      </trkpt>
      <trkpt lat="45.69104" lon="4.73624">
        <ele>225.617996</ele>
        <time>2016-09-25T09:46:33Z</time>
      </trkpt>
      <trkpt lat="45.69096" lon="4.73641">
        <ele>225.609543</ele>
        <time>2016-09-25T09:46:35Z</time>
      </trkpt>
      <trkpt lat="45.69088" lon="4.73655">
        <ele>225.529938</ele>
        <time>2016-09-25T09:46:37Z</time>
      </trkpt>
      <trkpt lat="45.6908" lon="4.7367">
        <ele>225.345917</ele>
        <time>2016-09-25T09:46:39Z</time>
      </trkpt>
      <trkpt lat="45.69073" lon="4.73685">
        <ele>225.756256</ele>
        <time>2016-09-25T09:46:41Z</time>
      </trkpt>
      <trkpt lat="45.69069" lon="4.73699">
        <ele>225.874664</ele>
        <time>2016-09-25T09:46:43Z</time>
      </trkpt>
      <trkpt lat="45.69065" lon="4.73713">
        <ele>225.910843</ele>
        <time>2016-09-25T09:46:45Z</time>
      </trkpt>
      <trkpt lat="45.69064" lon="4.73728">
        <ele>226.159134</ele>
        <time>2016-09-25T09:46:47Z</time>
      </trkpt>
      <trkpt lat="45.69062" lon="4.73742">
        <ele>225.856369</ele>
        <time>2016-09-25T09:46:49Z</time>
      </trkpt>
      <trkpt lat="45.69062" lon="4.73755">
        <ele>225.888092</ele>
        <time>2016-09-25T09:46:51Z</time>
      </trkpt>
      <trkpt lat="45.69061" lon="4.73768">
        <ele>225.84787</ele>
        <time>2016-09-25T09:46:53Z</time>
      </trkpt>
      <trkpt lat="45.69061" lon="4.73779">
        <ele>225.937744</ele>
        <time>2016-09-25T09:46:55Z</time>
      </trkpt>
      <trkpt lat="45.69062" lon="4.73789">
        <ele>225.719803</ele>
        <time>2016-09-25T09:46:57Z</time>
      </trkpt>
      <trkpt lat="45.69063" lon="4.73799">
        <ele>225.601364</ele>
        <time>2016-09-25T09:46:59Z</time>
      </trkpt>
      <trkpt lat="45.69063" lon="4.73808">
        <ele>225.516403</ele>
        <time>2016-09-25T09:47:01Z</time>
      </trkpt>
      <trkpt lat="45.69062" lon="4.73818">
        <ele>225.266891</ele>
        <time>2016-09-25T09:47:03Z</time>
      </trkpt>
      <trkpt lat="45.69061" lon="4.73827">
        <ele>225.146805</ele>
        <time>2016-09-25T09:47:05Z</time>
      </trkpt>
      <trkpt lat="45.69059" lon="4.73839">
        <ele>225.487259</ele>
        <time>2016-09-25T09:47:07Z</time>
      </trkpt>
      <trkpt lat="45.69056" lon="4.73852">
        <ele>225.337112</ele>
        <time>2016-09-25T09:47:09Z</time>
      </trkpt>
      <trkpt lat="45.69053" lon="4.73867">
        <ele>225.719727</ele>
        <time>2016-09-25T09:47:11Z</time>
      </trkpt>
      <trkpt lat="45.69049" lon="4.73882">
        <ele>225.622467</ele>
        <time>2016-09-25T09:47:13Z</time>
      </trkpt>
      <trkpt lat="45.69045" lon="4.73897">
        <ele>225.940384</ele>
        <time>2016-09-25T09:47:15Z</time>
      </trkpt>
      <trkpt lat="45.69041" lon="4.73912">
        <ele>226.02002</ele>
        <time>2016-09-25T09:47:17Z</time>
      </trkpt>
      <trkpt lat="45.69037" lon="4.73926">
        <ele>226.195511</ele>
        <time>2016-09-25T09:47:19Z</time>
      </trkpt>
      <trkpt lat="45.69031" lon="4.7394">
        <ele>226.201874</ele>
        <time>2016-09-25T09:47:21Z</time>
      </trkpt>
      <trkpt lat="45.69025" lon="4.73953">
        <ele>225.873993</ele>
        <time>2016-09-25T09:47:23Z</time>
      </trkpt>
      <trkpt lat="45.69019" lon="4.73965">
        <ele>225.869461</ele>
        <time>2016-09-25T09:47:25Z</time>
      </trkpt>
      <trkpt lat="45.69011" lon="4.73978">
        <ele>225.696091</ele>
        <time>2016-09-25T09:47:27Z</time>
      </trkpt>
      <trkpt lat="45.69006" lon="4.73991">
        <ele>225.624176</ele>
        <time>2016-09-25T09:47:29Z</time>
      </trkpt>
      <trkpt lat="45.69" lon="4.74004">
        <ele>225.742065</ele>
        <time>2016-09-25T09:47:31Z</time>
      </trkpt>
      <trkpt lat="45.68996" lon="4.74017">
        <ele>225.813965</ele>
        <time>2016-09-25T09:47:33Z</time>
      </trkpt>
      <trkpt lat="45.68992" lon="4.7403">
        <ele>225.636322</ele>
        <time>2016-09-25T09:47:35Z</time>
      </trkpt>
      <trkpt lat="45.68987" lon="4.74043">
        <ele>225.671234</ele>
        <time>2016-09-25T09:47:37Z</time>
      </trkpt>
      <trkpt lat="45.6898" lon="4.74055">
        <ele>225.415329</ele>
        <time>2016-09-25T09:47:39Z</time>
      </trkpt>
      <trkpt lat="45.68974" lon="4.74067">
        <ele>225.366699</ele>
        <time>2016-09-25T09:47:41Z</time>
      </trkpt>
      <trkpt lat="45.68967" lon="4.74078">
        <ele>225.251862</ele>
        <time>2016-09-25T09:47:43Z</time>
      </trkpt>
      <trkpt lat="45.68961" lon="4.7409">
        <ele>225.330841</ele>
        <time>2016-09-25T09:47:45Z</time>
      </trkpt>
      <trkpt lat="45.68953" lon="4.74102">
        <ele>225.14682</ele>
        <time>2016-09-25T09:47:47Z</time>
      </trkpt>
      <trkpt lat="45.68946" lon="4.74113">
        <ele>224.963913</ele>
        <time>2016-09-25T09:47:49Z</time>
      </trkpt>
      <trkpt lat="45.6894" lon="4.74123">
        <ele>225.073883</ele>
        <time>2016-09-25T09:47:51Z</time>
      </trkpt>
      <trkpt lat="45.68933" lon="4.74132">
        <ele>224.849701</ele>
        <time>2016-09-25T09:47:53Z</time>
      </trkpt>
      <trkpt lat="45.68927" lon="4.74142">
        <ele>224.737549</ele>
        <time>2016-09-25T09:47:55Z</time>
      </trkpt>
      <trkpt lat="45.68922" lon="4.74152">
        <ele>224.7771</ele>
        <time>2016-09-25T09:47:57Z</time>
      </trkpt>
      <trkpt lat="45.68917" lon="4.74163">
        <ele>224.586517</ele>
        <time>2016-09-25T09:47:59Z</time>
      </trkpt>
      <trkpt lat="45.68912" lon="4.74176">
        <ele>224.32016</ele>
        <time>2016-09-25T09:48:01Z</time>
      </trkpt>
      <trkpt lat="45.68909" lon="4.7419">
        <ele>224.127686</ele>
        <time>2016-09-25T09:48:03Z</time>
      </trkpt>
      <trkpt lat="45.68905" lon="4.74203">
        <ele>224.002441</ele>
        <time>2016-09-25T09:48:05Z</time>
      </trkpt>
      <trkpt lat="45.68901" lon="4.74217">
        <ele>223.793121</ele>
        <time>2016-09-25T09:48:07Z</time>
      </trkpt>
      <trkpt lat="45.68898" lon="4.74229">
        <ele>223.749954</ele>
        <time>2016-09-25T09:48:09Z</time>
      </trkpt>
      <trkpt lat="45.68895" lon="4.74241">
        <ele>223.570755</ele>
        <time>2016-09-25T09:48:11Z</time>
      </trkpt>
      <trkpt lat="45.68891" lon="4.74253">
        <ele>223.380417</ele>
        <time>2016-09-25T09:48:13Z</time>
      </trkpt>
      <trkpt lat="45.68888" lon="4.74265">
        <ele>223.281052</ele>
        <time>2016-09-25T09:48:15Z</time>
      </trkpt>
      <trkpt lat="45.68884" lon="4.74277">
        <ele>223.352982</ele>
        <time>2016-09-25T09:48:17Z</time>
      </trkpt>
      <trkpt lat="45.6888" lon="4.7429">
        <ele>223.188766</ele>
        <time>2016-09-25T09:48:19Z</time>
      </trkpt>
      <trkpt lat="45.68876" lon="4.74304">
        <ele>223.173004</ele>
        <time>2016-09-25T09:48:21Z</time>
      </trkpt>
      <trkpt lat="45.68871" lon="4.7432">
        <ele>223.067291</ele>
        <time>2016-09-25T09:48:23Z</time>
      </trkpt>
      <trkpt lat="45.68864" lon="4.74335">
        <ele>223.095413</ele>
        <time>2016-09-25T09:48:25Z</time>
      </trkpt>
      <trkpt lat="45.68856" lon="4.74349">
        <ele>222.912888</ele>
        <time>2016-09-25T09:48:27Z</time>
      </trkpt>
      <trkpt lat="45.68849" lon="4.74361">
        <ele>222.797089</ele>
        <time>2016-09-25T09:48:29Z</time>
      </trkpt>
      <trkpt lat="45.68841" lon="4.74373">
        <ele>222.743164</ele>
        <time>2016-09-25T09:48:31Z</time>
      </trkpt>
      <trkpt lat="45.68835" lon="4.74386">
        <ele>222.717773</ele>
        <time>2016-09-25T09:48:33Z</time>
      </trkpt>
      <trkpt lat="45.68828" lon="4.744">
        <ele>222.715652</ele>
        <time>2016-09-25T09:48:35Z</time>
      </trkpt>
      <trkpt lat="45.68824" lon="4.74412">
        <ele>222.68396</ele>
        <time>2016-09-25T09:48:37Z</time>
      </trkpt>
      <trkpt lat="45.68816" lon="4.74412">
        <ele>222.339478</ele>
        <time>2016-09-25T09:48:39Z</time>
      </trkpt>
      <trkpt lat="45.68807" lon="4.74408">
        <ele>221.87915</ele>
        <time>2016-09-25T09:48:41Z</time>
      </trkpt>
      <trkpt lat="45.68797" lon="4.74403">
        <ele>222.335938</ele>
        <time>2016-09-25T09:48:43Z</time>
      </trkpt>
      <trkpt lat="45.68786" lon="4.74397">
        <ele>222.248169</ele>
        <time>2016-09-25T09:48:45Z</time>
      </trkpt>
      <trkpt lat="45.68776" lon="4.7439">
        <ele>222.00705</ele>
        <time>2016-09-25T09:48:47Z</time>
      </trkpt>
      <trkpt lat="45.68768" lon="4.74383">
        <ele>221.734406</ele>
        <time>2016-09-25T09:48:49Z</time>
      </trkpt>
      <trkpt lat="45.68762" lon="4.74381">
        <ele>221.506989</ele>
        <time>2016-09-25T09:48:51Z</time>
      </trkpt>
      <trkpt lat="45.68757" lon="4.74379">
        <ele>221.386505</ele>
        <time>2016-09-25T09:48:53Z</time>
      </trkpt>
      <trkpt lat="45.68752" lon="4.74374">
        <ele>221.242767</ele>
        <time>2016-09-25T09:48:55Z</time>
      </trkpt>
      <trkpt lat="45.68745" lon="4.74369">
        <ele>221.215302</ele>
        <time>2016-09-25T09:48:57Z</time>
      </trkpt>
      <trkpt lat="45.68736" lon="4.74363">
        <ele>220.760834</ele>
        <time>2016-09-25T09:48:59Z</time>
      </trkpt>
      <trkpt lat="45.68727" lon="4.74356">
        <ele>220.571976</ele>
        <time>2016-09-25T09:49:01Z</time>
      </trkpt>
      <trkpt lat="45.68719" lon="4.7435">
        <ele>220.205276</ele>
        <time>2016-09-25T09:49:03Z</time>
      </trkpt>
      <trkpt lat="45.68716" lon="4.74347">
        <ele>219.972992</ele>
        <time>2016-09-25T09:49:05Z</time>
      </trkpt>
      <trkpt lat="45.68714" lon="4.74347">
        <ele>219.63205</ele>
        <time>2016-09-25T09:49:07Z</time>
      </trkpt>
      <trkpt lat="45.68713" lon="4.74346">
        <ele>219.501755</ele>
        <time>2016-09-25T09:49:09Z</time>
      </trkpt>
      <trkpt lat="45.6871" lon="4.74345">
        <ele>218.924316</ele>
        <time>2016-09-25T09:49:13Z</time>
      </trkpt>
      <trkpt lat="45.68708" lon="4.74344">
        <ele>218.543289</ele>
        <time>2016-09-25T09:49:15Z</time>
      </trkpt>
      <trkpt lat="45.68703" lon="4.74342">
        <ele>218.086792</ele>
        <time>2016-09-25T09:49:17Z</time>
      </trkpt>
      <trkpt lat="45.68699" lon="4.7434">
        <ele>217.702057</ele>
        <time>2016-09-25T09:49:19Z</time>
      </trkpt>
      <trkpt lat="45.68697" lon="4.74338">
        <ele>217.7612</ele>
        <time>2016-09-25T09:49:21Z</time>
      </trkpt>
      <trkpt lat="45.68696" lon="4.74338">
        <ele>217.860199</ele>
        <time>2016-09-25T09:49:23Z</time>
      </trkpt>
      <trkpt lat="45.68693" lon="4.74338">
        <ele>217.209015</ele>
        <time>2016-09-25T09:49:25Z</time>
      </trkpt>
      <trkpt lat="45.6869" lon="4.74337">
        <ele>217.019867</ele>
        <time>2016-09-25T09:49:27Z</time>
      </trkpt>
      <trkpt lat="45.68686" lon="4.74336">
        <ele>217.054398</ele>
        <time>2016-09-25T09:49:29Z</time>
      </trkpt>
      <trkpt lat="45.68683" lon="4.74335">
        <ele>217.098419</ele>
        <time>2016-09-25T09:49:31Z</time>
      </trkpt>
      <trkpt lat="45.68679" lon="4.74335">
        <ele>217.119553</ele>
        <time>2016-09-25T09:49:33Z</time>
      </trkpt>
      <trkpt lat="45.68675" lon="4.74335">
        <ele>217.0625</ele>
        <time>2016-09-25T09:49:35Z</time>
      </trkpt>
      <trkpt lat="45.6867" lon="4.74337">
        <ele>217.037109</ele>
        <time>2016-09-25T09:49:37Z</time>
      </trkpt>
      <trkpt lat="45.68666" lon="4.7434">
        <ele>217.037109</ele>
        <time>2016-09-25T09:49:39Z</time>
      </trkpt>
      <trkpt lat="45.68661" lon="4.74345">
        <ele>217.126511</ele>
        <time>2016-09-25T09:49:41Z</time>
      </trkpt>
      <trkpt lat="45.68657" lon="4.74348">
        <ele>216.980713</ele>
        <time>2016-09-25T09:49:43Z</time>
      </trkpt>
      <trkpt lat="45.68652" lon="4.74352">
        <ele>217.3125</ele>
        <time>2016-09-25T09:49:45Z</time>
      </trkpt>
      <trkpt lat="45.68647" lon="4.74357">
        <ele>217.365082</ele>
        <time>2016-09-25T09:49:47Z</time>
      </trkpt>
      <trkpt lat="45.68642" lon="4.74362">
        <ele>217.729416</ele>
        <time>2016-09-25T09:49:49Z</time>
      </trkpt>
      <trkpt lat="45.68636" lon="4.74367">
        <ele>217.923126</ele>
        <time>2016-09-25T09:49:51Z</time>
      </trkpt>
      <trkpt lat="45.6863" lon="4.74372">
        <ele>218.102081</ele>
        <time>2016-09-25T09:49:53Z</time>
      </trkpt>
      <trkpt lat="45.68624" lon="4.74378">
        <ele>218.276764</ele>
        <time>2016-09-25T09:49:55Z</time>
      </trkpt>
      <trkpt lat="45.68618" lon="4.74383">
        <ele>218.520355</ele>
        <time>2016-09-25T09:49:57Z</time>
      </trkpt>
      <trkpt lat="45.68612" lon="4.74389">
        <ele>218.730179</ele>
        <time>2016-09-25T09:49:59Z</time>
      </trkpt>
      <trkpt lat="45.68605" lon="4.74396">
        <ele>219.028107</ele>
        <time>2016-09-25T09:50:01Z</time>
      </trkpt>
      <trkpt lat="45.68598" lon="4.74402">
        <ele>219.326294</ele>
        <time>2016-09-25T09:50:03Z</time>
      </trkpt>
      <trkpt lat="45.6859" lon="4.74407">
        <ele>219.486893</ele>
        <time>2016-09-25T09:50:05Z</time>
      </trkpt>
      <trkpt lat="45.68583" lon="4.74415">
        <ele>219.545044</ele>
        <time>2016-09-25T09:50:07Z</time>
      </trkpt>
      <trkpt lat="45.68575" lon="4.74422">
        <ele>219.53447</ele>
        <time>2016-09-25T09:50:09Z</time>
      </trkpt>
      <trkpt lat="45.68567" lon="4.7443">
        <ele>219.632813</ele>
        <time>2016-09-25T09:50:11Z</time>
      </trkpt>
      <trkpt lat="45.68558" lon="4.74439">
        <ele>219.656448</ele>
        <time>2016-09-25T09:50:13Z</time>
      </trkpt>
      <trkpt lat="45.68549" lon="4.74449">
        <ele>219.749603</ele>
        <time>2016-09-25T09:50:15Z</time>
      </trkpt>
      <trkpt lat="45.6854" lon="4.74457">
        <ele>219.779205</ele>
        <time>2016-09-25T09:50:17Z</time>
      </trkpt>
      <trkpt lat="45.68533" lon="4.74465">
        <ele>220.007523</ele>
        <time>2016-09-25T09:50:19Z</time>
      </trkpt>
      <trkpt lat="45.68527" lon="4.74471">
        <ele>220.008957</ele>
        <time>2016-09-25T09:50:21Z</time>
      </trkpt>
      <trkpt lat="45.6852" lon="4.74478">
        <ele>220.150543</ele>
        <time>2016-09-25T09:50:23Z</time>
      </trkpt>
      <trkpt lat="45.68513" lon="4.74484">
        <ele>220.35556</ele>
        <time>2016-09-25T09:50:25Z</time>
      </trkpt>
      <trkpt lat="45.68505" lon="4.74491">
        <ele>220.594482</ele>
        <time>2016-09-25T09:50:27Z</time>
      </trkpt>
      <trkpt lat="45.68497" lon="4.74497">
        <ele>220.698212</ele>
        <time>2016-09-25T09:50:29Z</time>
      </trkpt>
      <trkpt lat="45.68488" lon="4.74502">
        <ele>220.778519</ele>
        <time>2016-09-25T09:50:31Z</time>
      </trkpt>
      <trkpt lat="45.6848" lon="4.74507">
        <ele>220.790375</ele>
        <time>2016-09-25T09:50:33Z</time>
      </trkpt>
      <trkpt lat="45.68472" lon="4.7451">
        <ele>220.85022</ele>
        <time>2016-09-25T09:50:35Z</time>
      </trkpt>
      <trkpt lat="45.68463" lon="4.74514">
        <ele>220.855179</ele>
        <time>2016-09-25T09:50:37Z</time>
      </trkpt>
      <trkpt lat="45.68454" lon="4.74518">
        <ele>220.740875</ele>
        <time>2016-09-25T09:50:39Z</time>
      </trkpt>
      <trkpt lat="45.68447" lon="4.74523">
        <ele>220.917572</ele>
        <time>2016-09-25T09:50:41Z</time>
      </trkpt>
      <trkpt lat="45.68439" lon="4.7453">
        <ele>220.993683</ele>
        <time>2016-09-25T09:50:43Z</time>
      </trkpt>
      <trkpt lat="45.68432" lon="4.74536">
        <ele>220.848465</ele>
        <time>2016-09-25T09:50:45Z</time>
      </trkpt>
      <trkpt lat="45.68425" lon="4.74543">
        <ele>220.870651</ele>
        <time>2016-09-25T09:50:47Z</time>
      </trkpt>
      <trkpt lat="45.68417" lon="4.74552">
        <ele>221.158081</ele>
        <time>2016-09-25T09:50:49Z</time>
      </trkpt>
      <trkpt lat="45.68409" lon="4.74563">
        <ele>221.432831</ele>
        <time>2016-09-25T09:50:51Z</time>
      </trkpt>
      <trkpt lat="45.684" lon="4.74573">
        <ele>221.412674</ele>
        <time>2016-09-25T09:50:53Z</time>
      </trkpt>
      <trkpt lat="45.6839" lon="4.74583">
        <ele>221.433762</ele>
        <time>2016-09-25T09:50:55Z</time>
      </trkpt>
      <trkpt lat="45.6838" lon="4.7459">
        <ele>221.471024</ele>
        <time>2016-09-25T09:50:57Z</time>
      </trkpt>
      <trkpt lat="45.68369" lon="4.74596">
        <ele>221.553467</ele>
        <time>2016-09-25T09:50:59Z</time>
      </trkpt>
      <trkpt lat="45.68358" lon="4.746">
        <ele>221.361053</ele>
        <time>2016-09-25T09:51:01Z</time>
      </trkpt>
      <trkpt lat="45.68346" lon="4.74604">
        <ele>221.38855</ele>
        <time>2016-09-25T09:51:03Z</time>
      </trkpt>
      <trkpt lat="45.68335" lon="4.74608">
        <ele>221.447723</ele>
        <time>2016-09-25T09:51:05Z</time>
      </trkpt>
      <trkpt lat="45.68325" lon="4.74613">
        <ele>221.186859</ele>
        <time>2016-09-25T09:51:07Z</time>
      </trkpt>
      <trkpt lat="45.68314" lon="4.7462">
        <ele>220.800705</ele>
        <time>2016-09-25T09:51:09Z</time>
      </trkpt>
      <trkpt lat="45.68304" lon="4.74626">
        <ele>220.33963</ele>
        <time>2016-09-25T09:51:11Z</time>
      </trkpt>
      <trkpt lat="45.68295" lon="4.74633">
        <ele>220.258011</ele>
        <time>2016-09-25T09:51:13Z</time>
      </trkpt>
      <trkpt lat="45.68285" lon="4.7464">
        <ele>220.105804</ele>
        <time>2016-09-25T09:51:15Z</time>
      </trkpt>
      <trkpt lat="45.68276" lon="4.74647">
        <ele>220.004395</ele>
        <time>2016-09-25T09:51:17Z</time>
      </trkpt>
      <trkpt lat="45.68265" lon="4.74654">
        <ele>219.896606</ele>
        <time>2016-09-25T09:51:19Z</time>
      </trkpt>
      <trkpt lat="45.68254" lon="4.74664">
        <ele>219.834671</ele>
        <time>2016-09-25T09:51:21Z</time>
      </trkpt>
      <trkpt lat="45.68244" lon="4.74674">
        <ele>219.574921</ele>
        <time>2016-09-25T09:51:23Z</time>
      </trkpt>
      <trkpt lat="45.68232" lon="4.74684">
        <ele>219.341873</ele>
        <time>2016-09-25T09:51:25Z</time>
      </trkpt>
      <trkpt lat="45.6822" lon="4.74691">
        <ele>219.157379</ele>
        <time>2016-09-25T09:51:27Z</time>
      </trkpt>
      <trkpt lat="45.68207" lon="4.74695">
        <ele>218.962921</ele>
        <time>2016-09-25T09:51:29Z</time>
      </trkpt>
      <trkpt lat="45.68195" lon="4.74699">
        <ele>218.738525</ele>
        <time>2016-09-25T09:51:31Z</time>
      </trkpt>
      <trkpt lat="45.68183" lon="4.74704">
        <ele>218.582108</ele>
        <time>2016-09-25T09:51:33Z</time>
      </trkpt>
      <trkpt lat="45.68172" lon="4.74712">
        <ele>218.544037</ele>
        <time>2016-09-25T09:51:35Z</time>
      </trkpt>
      <trkpt lat="45.68163" lon="4.74723">
        <ele>218.468552</ele>
        <time>2016-09-25T09:51:37Z</time>
      </trkpt>
      <trkpt lat="45.68153" lon="4.74734">
        <ele>218.343872</ele>
        <time>2016-09-25T09:51:39Z</time>
      </trkpt>
      <trkpt lat="45.68143" lon="4.74745">
        <ele>218.054474</ele>
        <time>2016-09-25T09:51:41Z</time>
      </trkpt>
      <trkpt lat="45.68132" lon="4.74753">
        <ele>217.979584</ele>
        <time>2016-09-25T09:51:43Z</time>
      </trkpt>
      <trkpt lat="45.68121" lon="4.74762">
        <ele>217.797455</ele>
        <time>2016-09-25T09:51:45Z</time>
      </trkpt>
      <trkpt lat="45.6811" lon="4.74771">
        <ele>217.734085</ele>
        <time>2016-09-25T09:51:47Z</time>
      </trkpt>
      <trkpt lat="45.68098" lon="4.74778">
        <ele>217.720139</ele>
        <time>2016-09-25T09:51:49Z</time>
      </trkpt>
      <trkpt lat="45.68087" lon="4.74783">
        <ele>217.735199</ele>
        <time>2016-09-25T09:51:51Z</time>
      </trkpt>
      <trkpt lat="45.68074" lon="4.74784">
        <ele>217.57251</ele>
        <time>2016-09-25T09:51:53Z</time>
      </trkpt>
      <trkpt lat="45.68063" lon="4.74783">
        <ele>217.54715</ele>
        <time>2016-09-25T09:51:55Z</time>
      </trkpt>
      <trkpt lat="45.68052" lon="4.7478">
        <ele>217.51123</ele>
        <time>2016-09-25T09:51:57Z</time>
      </trkpt>
      <trkpt lat="45.68041" lon="4.74777">
        <ele>217.653275</ele>
        <time>2016-09-25T09:51:59Z</time>
      </trkpt>
      <trkpt lat="45.6803" lon="4.74772">
        <ele>217.616043</ele>
        <time>2016-09-25T09:52:01Z</time>
      </trkpt>
      <trkpt lat="45.6802" lon="4.7477">
        <ele>217.592819</ele>
        <time>2016-09-25T09:52:03Z</time>
      </trkpt>
      <trkpt lat="45.68009" lon="4.7477">
        <ele>217.690033</ele>
        <time>2016-09-25T09:52:05Z</time>
      </trkpt>
      <trkpt lat="45.67999" lon="4.74774">
        <ele>217.752411</ele>
        <time>2016-09-25T09:52:07Z</time>
      </trkpt>
      <trkpt lat="45.6799" lon="4.7478">
        <ele>217.924515</ele>
        <time>2016-09-25T09:52:09Z</time>
      </trkpt>
      <trkpt lat="45.67981" lon="4.74787">
        <ele>218.078781</ele>
        <time>2016-09-25T09:52:11Z</time>
      </trkpt>
      <trkpt lat="45.67971" lon="4.74794">
        <ele>218.180588</ele>
        <time>2016-09-25T09:52:13Z</time>
      </trkpt>
      <trkpt lat="45.67962" lon="4.74802">
        <ele>218.343338</ele>
        <time>2016-09-25T09:52:15Z</time>
      </trkpt>
      <trkpt lat="45.67953" lon="4.74808">
        <ele>218.354614</ele>
        <time>2016-09-25T09:52:17Z</time>
      </trkpt>
      <trkpt lat="45.67945" lon="4.74815">
        <ele>218.402664</ele>
        <time>2016-09-25T09:52:19Z</time>
      </trkpt>
      <trkpt lat="45.67936" lon="4.74822">
        <ele>218.459717</ele>
        <time>2016-09-25T09:52:21Z</time>
      </trkpt>
      <trkpt lat="45.67929" lon="4.74829">
        <ele>218.76059</ele>
        <time>2016-09-25T09:52:23Z</time>
      </trkpt>
      <trkpt lat="45.67921" lon="4.74837">
        <ele>218.735626</ele>
        <time>2016-09-25T09:52:25Z</time>
      </trkpt>
      <trkpt lat="45.67915" lon="4.74848">
        <ele>218.982391</ele>
        <time>2016-09-25T09:52:27Z</time>
      </trkpt>
      <trkpt lat="45.6791" lon="4.74862">
        <ele>218.809113</ele>
        <time>2016-09-25T09:52:29Z</time>
      </trkpt>
      <trkpt lat="45.67905" lon="4.74877">
        <ele>218.85347</ele>
        <time>2016-09-25T09:52:31Z</time>
      </trkpt>
      <trkpt lat="45.67901" lon="4.74893">
        <ele>218.822556</ele>
        <time>2016-09-25T09:52:33Z</time>
      </trkpt>
      <trkpt lat="45.67896" lon="4.74908">
        <ele>218.803543</ele>
        <time>2016-09-25T09:52:35Z</time>
      </trkpt>
      <trkpt lat="45.67888" lon="4.74923">
        <ele>218.807785</ele>
        <time>2016-09-25T09:52:37Z</time>
      </trkpt>
      <trkpt lat="45.67878" lon="4.74936">
        <ele>218.73172</ele>
        <time>2016-09-25T09:52:39Z</time>
      </trkpt>
      <trkpt lat="45.67868" lon="4.74947">
        <ele>218.600861</ele>
        <time>2016-09-25T09:52:41Z</time>
      </trkpt>
      <trkpt lat="45.67858" lon="4.74957">
        <ele>218.482712</ele>
        <time>2016-09-25T09:52:43Z</time>
      </trkpt>
      <trkpt lat="45.67848" lon="4.74965">
        <ele>218.476364</ele>
        <time>2016-09-25T09:52:45Z</time>
      </trkpt>
      <trkpt lat="45.67839" lon="4.74972">
        <ele>218.108154</ele>
        <time>2016-09-25T09:52:47Z</time>
      </trkpt>
      <trkpt lat="45.6783" lon="4.74977">
        <ele>217.978348</ele>
        <time>2016-09-25T09:52:49Z</time>
      </trkpt>
      <trkpt lat="45.6782" lon="4.74981">
        <ele>217.701508</ele>
        <time>2016-09-25T09:52:51Z</time>
      </trkpt>
      <trkpt lat="45.6781" lon="4.74984">
        <ele>217.399338</ele>
        <time>2016-09-25T09:52:53Z</time>
      </trkpt>
      <trkpt lat="45.67799" lon="4.74988">
        <ele>217.297897</ele>
        <time>2016-09-25T09:52:55Z</time>
      </trkpt>
      <trkpt lat="45.67788" lon="4.74992">
        <ele>216.972458</ele>
        <time>2016-09-25T09:52:57Z</time>
      </trkpt>
      <trkpt lat="45.67777" lon="4.74997">
        <ele>216.866119</ele>
        <time>2016-09-25T09:52:59Z</time>
      </trkpt>
      <trkpt lat="45.67766" lon="4.75003">
        <ele>216.625809</ele>
        <time>2016-09-25T09:53:01Z</time>
      </trkpt>
      <trkpt lat="45.67755" lon="4.75009">
        <ele>216.374359</ele>
        <time>2016-09-25T09:53:03Z</time>
      </trkpt>
      <trkpt lat="45.67744" lon="4.75015">
        <ele>215.985596</ele>
        <time>2016-09-25T09:53:05Z</time>
      </trkpt>
      <trkpt lat="45.67734" lon="4.75022">
        <ele>215.771881</ele>
        <time>2016-09-25T09:53:07Z</time>
      </trkpt>
      <trkpt lat="45.67726" lon="4.7503">
        <ele>215.501907</ele>
        <time>2016-09-25T09:53:09Z</time>
      </trkpt>
      <trkpt lat="45.67722" lon="4.75042">
        <ele>215.354034</ele>
        <time>2016-09-25T09:53:11Z</time>
      </trkpt>
      <trkpt lat="45.67725" lon="4.75054">
        <ele>215.088013</ele>
        <time>2016-09-25T09:53:13Z</time>
      </trkpt>
      <trkpt lat="45.67728" lon="4.75066">
        <ele>214.961258</ele>
        <time>2016-09-25T09:53:15Z</time>
      </trkpt>
      <trkpt lat="45.67734" lon="4.75078">
        <ele>214.800705</ele>
        <time>2016-09-25T09:53:17Z</time>
      </trkpt>
      <trkpt lat="45.67739" lon="4.7509">
        <ele>214.473221</ele>
        <time>2016-09-25T09:53:19Z</time>
      </trkpt>
      <trkpt lat="45.67744" lon="4.751">
        <ele>214.555634</ele>
        <time>2016-09-25T09:53:21Z</time>
      </trkpt>
      <trkpt lat="45.67749" lon="4.75111">
        <ele>214.381012</ele>
        <time>2016-09-25T09:53:23Z</time>
      </trkpt>
      <trkpt lat="45.67754" lon="4.75122">
        <ele>214.218185</ele>
        <time>2016-09-25T09:53:25Z</time>
      </trkpt>
      <trkpt lat="45.67758" lon="4.75132">
        <ele>214.161133</ele>
        <time>2016-09-25T09:53:27Z</time>
      </trkpt>
      <trkpt lat="45.67762" lon="4.75142">
        <ele>214.133698</ele>
        <time>2016-09-25T09:53:29Z</time>
      </trkpt>
      <trkpt lat="45.67767" lon="4.75152">
        <ele>213.889923</ele>
        <time>2016-09-25T09:53:31Z</time>
      </trkpt>
      <trkpt lat="45.6777" lon="4.75161">
        <ele>213.803375</ele>
        <time>2016-09-25T09:53:33Z</time>
      </trkpt>
      <trkpt lat="45.67775" lon="4.7517">
        <ele>213.718872</ele>
        <time>2016-09-25T09:53:35Z</time>
      </trkpt>
      <trkpt lat="45.67779" lon="4.75178">
        <ele>213.370438</ele>
        <time>2016-09-25T09:53:37Z</time>
      </trkpt>
      <trkpt lat="45.67782" lon="4.75186">
        <ele>213.27536</ele>
        <time>2016-09-25T09:53:39Z</time>
      </trkpt>
      <trkpt lat="45.67784" lon="4.75192">
        <ele>213.104248</ele>
        <time>2016-09-25T09:53:41Z</time>
      </trkpt>
      <trkpt lat="45.67786" lon="4.75198">
        <ele>212.975388</ele>
        <time>2016-09-25T09:53:43Z</time>
      </trkpt>
      <trkpt lat="45.67788" lon="4.75203">
        <ele>212.860764</ele>
        <time>2016-09-25T09:53:45Z</time>
      </trkpt>
      <trkpt lat="45.67792" lon="4.75209">
        <ele>212.829071</ele>
        <time>2016-09-25T09:53:47Z</time>
      </trkpt>
      <trkpt lat="45.67795" lon="4.75214">
        <ele>212.635132</ele>
        <time>2016-09-25T09:53:49Z</time>
      </trkpt>
      <trkpt lat="45.67796" lon="4.75217">
        <ele>212.499954</ele>
        <time>2016-09-25T09:53:51Z</time>
      </trkpt>
      <trkpt lat="45.67796" lon="4.7522">
        <ele>212.375931</ele>
        <time>2016-09-25T09:53:53Z</time>
      </trkpt>
      <trkpt lat="45.67796" lon="4.75224">
        <ele>212.226105</ele>
        <time>2016-09-25T09:53:55Z</time>
      </trkpt>
      <trkpt lat="45.67796" lon="4.75226">
        <ele>212.109909</ele>
        <time>2016-09-25T09:53:57Z</time>
      </trkpt>
    </trkseg>
  </trk>
</gpx>